<?xml version='1.0' encoding='UTF-8'?><gpx version="1.1" creator="JPX - https://github.com/jenetics/jpx" xmlns="http://www.topografix.com/GPX/1/1"><trk><trkseg><trkpt lat="42.9170750207984" lon="13.889658881901795"><ele>6.0</ele><time>2026-03-22T08:21:52Z</time></trkpt><trkpt lat="42.91700984015099" lon="13.889625780021307"><ele>6.0</ele><time>2026-03-22T08:21:53Z</time></trkpt><trkpt lat="42.91689423205634" lon="13.889580308155944"><ele>6.0</ele><time>2026-03-22T08:21:55Z</time></trkpt><trkpt lat="42.91680134971488" lon="13.889608224841146"><ele>6.0</ele><time>2026-03-22T08:21:57Z</time></trkpt><trkpt lat="42.916686855076655" lon="13.889614236785716"><ele>6.0</ele><time>2026-03-22T08:21:59Z</time></trkpt><trkpt lat="42.91661921566687" lon="13.88961322817585"><ele>5.999999999999999</ele><time>2026-03-22T08:22:00Z</time></trkpt><trkpt lat="42.916550821139126" lon="13.889622811934169"><ele>6.0</ele><time>2026-03-22T08:22:01Z</time></trkpt><trkpt lat="42.91648313134425" lon="13.889636546469479"><ele>6.0</ele><time>2026-03-22T08:22:02Z</time></trkpt><trkpt lat="42.91641789915535" lon="13.889650472422266"><ele>6.0</ele><time>2026-03-22T08:22:03Z</time></trkpt><trkpt lat="42.91634254576906" lon="13.889635863983925"><ele>6.0</ele><time>2026-03-22T08:22:04Z</time></trkpt><trkpt lat="42.91626849456832" lon="13.889637790228251"><ele>5.999999999999999</ele><time>2026-03-22T08:22:05Z</time></trkpt><trkpt lat="42.91619546198897" lon="13.889644651134487"><ele>6.0</ele><time>2026-03-22T08:22:07Z</time></trkpt><trkpt lat="42.9160960966324" lon="13.889638745891943"><ele>6.0</ele><time>2026-03-22T08:22:09Z</time></trkpt><trkpt lat="42.91603050053272" lon="13.88962482768351"><ele>6.0</ele><time>2026-03-22T08:22:12Z</time></trkpt><trkpt lat="42.91562220432866" lon="13.889582733858587"><ele>5.0</ele><time>2026-03-22T08:22:18Z</time></trkpt><trkpt lat="42.91622964973215" lon="13.889154004876973"><ele>5.0</ele><time>2026-03-22T08:22:21.999Z</time></trkpt><trkpt lat="42.916260871155735" lon="13.889063861181558"><ele>5.0</ele><time>2026-03-22T08:22:22.999Z</time></trkpt><trkpt lat="42.916293460380345" lon="13.888957312352355"><ele>5.0</ele><time>2026-03-22T08:22:23.999Z</time></trkpt><trkpt lat="42.91632863820239" lon="13.888847731243104"><ele>5.0</ele><time>2026-03-22T08:22:24.999Z</time></trkpt><trkpt lat="42.91634453713834" lon="13.888721793049294"><ele>5.0</ele><time>2026-03-22T08:22:25.999Z</time></trkpt><trkpt lat="42.916341767706065" lon="13.888615187868558"><ele>5.0</ele><time>2026-03-22T08:22:26.999Z</time></trkpt><trkpt lat="42.91633246750626" lon="13.888485513321394"><ele>6.0</ele><time>2026-03-22T08:22:27.999Z</time></trkpt><trkpt lat="42.91631460523894" lon="13.888335600522543"><ele>7.0</ele><time>2026-03-22T08:22:28.999Z</time></trkpt><trkpt lat="42.916293385608284" lon="13.888193456098247"><ele>8.0</ele><time>2026-03-22T08:22:29.999Z</time></trkpt><trkpt lat="42.91626357380331" lon="13.888044202321828"><ele>9.0</ele><time>2026-03-22T08:22:30.999Z</time></trkpt><trkpt lat="42.91622836035743" lon="13.887885398804638"><ele>9.0</ele><time>2026-03-22T08:22:31.999Z</time></trkpt><trkpt lat="42.91619555393493" lon="13.887715072745774"><ele>9.0</ele><time>2026-03-22T08:22:32.999Z</time></trkpt><trkpt lat="42.9161610189394" lon="13.887531695963427"><ele>9.0</ele><time>2026-03-22T08:22:33.999Z</time></trkpt><trkpt lat="42.916129238007066" lon="13.887334942887469"><ele>9.0</ele><time>2026-03-22T08:22:34.999Z</time></trkpt><trkpt lat="42.91609912331598" lon="13.88715386433339"><ele>11.8</ele><time>2026-03-22T08:22:35.999Z</time></trkpt><trkpt lat="42.91607045548053" lon="13.887014516485474"><ele>14.6</ele><time>2026-03-22T08:22:36.999Z</time></trkpt><trkpt lat="42.91604235524967" lon="13.886889513842139"><ele>17.4</ele><time>2026-03-22T08:22:37.999Z</time></trkpt><trkpt lat="42.91603486285022" lon="13.886769627007677"><ele>20.2</ele><time>2026-03-22T08:22:38.999Z</time></trkpt><trkpt lat="42.91603551180934" lon="13.886642558258945"><ele>23.0</ele><time>2026-03-22T08:22:39.999Z</time></trkpt><trkpt lat="42.91603726138666" lon="13.88652226024635"><ele>25.666666666666668</ele><time>2026-03-22T08:22:40.999Z</time></trkpt><trkpt lat="42.91604844861234" lon="13.886424689392987"><ele>28.333333333333336</ele><time>2026-03-22T08:22:41.999Z</time></trkpt><trkpt lat="42.916072331088934" lon="13.886325819466553"><ele>31.0</ele><time>2026-03-22T08:22:42.999Z</time></trkpt><trkpt lat="42.916113235081724" lon="13.8862279160416"><ele>33.666666666666664</ele><time>2026-03-22T08:22:43.999Z</time></trkpt><trkpt lat="42.91616713169319" lon="13.886134196791772"><ele>36.333333333333336</ele><time>2026-03-22T08:22:44.999Z</time></trkpt><trkpt lat="42.91623668715284" lon="13.886030521932431"><ele>39.0</ele><time>2026-03-22T08:22:45.999Z</time></trkpt><trkpt lat="42.91631322834981" lon="13.885907108630546"><ele>41.333333333333336</ele><time>2026-03-22T08:22:46.999Z</time></trkpt><trkpt lat="42.916368220788485" lon="13.885808808678801"><ele>43.66666666666667</ele><time>2026-03-22T08:22:47.999Z</time></trkpt><trkpt lat="42.916390465123385" lon="13.885679067629818"><ele>46.0</ele><time>2026-03-22T08:22:49.999Z</time></trkpt><trkpt lat="42.91636297506281" lon="13.885514808759298"><ele>48.333333333333336</ele><time>2026-03-22T08:22:51.999Z</time></trkpt><trkpt lat="42.91633483900183" lon="13.885429888493508"><ele>50.66666666666667</ele><time>2026-03-22T08:22:52.999Z</time></trkpt><trkpt lat="42.916301879733865" lon="13.885352701302903"><ele>53.0</ele><time>2026-03-22T08:22:53.999Z</time></trkpt><trkpt lat="42.91627419621914" lon="13.885273055614036"><ele>53.0</ele><time>2026-03-22T08:22:54.999Z</time></trkpt><trkpt lat="42.91624608458377" lon="13.88518723280025"><ele>53.0</ele><time>2026-03-22T08:22:55.999Z</time></trkpt><trkpt lat="42.91621890579379" lon="13.885107587094952"><ele>53.0</ele><time>2026-03-22T08:22:56.999Z</time></trkpt><trkpt lat="42.91619766217136" lon="13.885023701332244"><ele>53.0</ele><time>2026-03-22T08:22:57.999Z</time></trkpt><trkpt lat="42.91616919774175" lon="13.884916786804085"><ele>53.0</ele><time>2026-03-22T08:22:58.999Z</time></trkpt><trkpt lat="42.916133645796094" lon="13.88482357270762"><ele>53.0</ele><time>2026-03-22T08:22:59.999Z</time></trkpt><trkpt lat="42.916088824097436" lon="13.884734279001476"><ele>53.0</ele><time>2026-03-22T08:23:00.999Z</time></trkpt><trkpt lat="42.91604387393508" lon="13.88464407307343"><ele>54.50000000000001</ele><time>2026-03-22T08:23:01.999Z</time></trkpt><trkpt lat="42.91602084054522" lon="13.884538385243845"><ele>56.0</ele><time>2026-03-22T08:23:02.999Z</time></trkpt><trkpt lat="42.916003543656316" lon="13.88441717802335"><ele>57.5</ele><time>2026-03-22T08:23:03.999Z</time></trkpt><trkpt lat="42.91598787692951" lon="13.884295259357218"><ele>59.0</ele><time>2026-03-22T08:23:04.999Z</time></trkpt><trkpt lat="42.9159755502347" lon="13.88417518418598"><ele>60.50000000000001</ele><time>2026-03-22T08:23:05.999Z</time></trkpt><trkpt lat="42.915961861807055" lon="13.884042260031288"><ele>62.0</ele><time>2026-03-22T08:23:06.998Z</time></trkpt><trkpt lat="42.91595734555719" lon="13.88392499162532"><ele>62.50000000000001</ele><time>2026-03-22T08:23:07.998Z</time></trkpt><trkpt lat="42.91594633212244" lon="13.883795123755574"><ele>63.0</ele><time>2026-03-22T08:23:08.998Z</time></trkpt><trkpt lat="42.91594143996159" lon="13.88368658860508"><ele>63.5</ele><time>2026-03-22T08:23:09.998Z</time></trkpt><trkpt lat="42.91592978790592" lon="13.883567627916351"><ele>64.0</ele><time>2026-03-22T08:23:10.998Z</time></trkpt><trkpt lat="42.91591699770561" lon="13.883454820842468"><ele>64.5</ele><time>2026-03-22T08:23:11.998Z</time></trkpt><trkpt lat="42.91590666666153" lon="13.883338739555542"><ele>65.0</ele><time>2026-03-22T08:23:12.998Z</time></trkpt><trkpt lat="42.91590872649398" lon="13.883228956320329"><ele>65.0</ele><time>2026-03-22T08:23:13.998Z</time></trkpt><trkpt lat="42.915929675778" lon="13.883132075289279"><ele>65.0</ele><time>2026-03-22T08:23:14.998Z</time></trkpt><trkpt lat="42.91595893657871" lon="13.883039941096326"><ele>65.0</ele><time>2026-03-22T08:23:15.998Z</time></trkpt><trkpt lat="42.91600150772027" lon="13.88293636455453"><ele>65.0</ele><time>2026-03-22T08:23:16.998Z</time></trkpt><trkpt lat="42.91604652537092" lon="13.882841214804623"><ele>65.0</ele><time>2026-03-22T08:23:17.998Z</time></trkpt><trkpt lat="42.91609544177485" lon="13.88276429471762"><ele>65.0</ele><time>2026-03-22T08:23:18.998Z</time></trkpt><trkpt lat="42.91615480647804" lon="13.882661905874807"><ele>64.6</ele><time>2026-03-22T08:23:19.998Z</time></trkpt><trkpt lat="42.91621428518765" lon="13.882568838555818"><ele>64.2</ele><time>2026-03-22T08:23:20.998Z</time></trkpt><trkpt lat="42.91629146005816" lon="13.882459141954799"><ele>63.8</ele><time>2026-03-22T08:23:22.998Z</time></trkpt><trkpt lat="42.916340481805044" lon="13.88233718015779"><ele>63.4</ele><time>2026-03-22T08:23:24.998Z</time></trkpt><trkpt lat="42.916417927562776" lon="13.882292986375605"><ele>63.0</ele><time>2026-03-22T08:23:26.998Z</time></trkpt><trkpt lat="42.91654875005592" lon="13.882250558505326"><ele>63.0</ele><time>2026-03-22T08:23:28.998Z</time></trkpt><trkpt lat="42.916632132310845" lon="13.882276215580559"><ele>63.0</ele><time>2026-03-22T08:23:29.998Z</time></trkpt><trkpt lat="42.91670614944119" lon="13.882309216175074"><ele>63.0</ele><time>2026-03-22T08:23:30.998Z</time></trkpt><trkpt lat="42.91679655533092" lon="13.882375186841717"><ele>63.0</ele><time>2026-03-22T08:23:31.998Z</time></trkpt><trkpt lat="42.91686930090627" lon="13.882433193981111"><ele>63.0</ele><time>2026-03-22T08:23:32.998Z</time></trkpt><trkpt lat="42.91693426977836" lon="13.88248338928029"><ele>63.0</ele><time>2026-03-22T08:23:33.998Z</time></trkpt><trkpt lat="42.91700590526918" lon="13.882538735245735"><ele>65.6</ele><time>2026-03-22T08:23:34.998Z</time></trkpt><trkpt lat="42.9170857598068" lon="13.882600431293321"><ele>68.19999999999999</ele><time>2026-03-22T08:23:35.998Z</time></trkpt><trkpt lat="42.91714537052431" lon="13.882646290025667"><ele>70.8</ele><time>2026-03-22T08:23:36.998Z</time></trkpt><trkpt lat="42.91724094269553" lon="13.882719381737498"><ele>73.39999999999999</ele><time>2026-03-22T08:23:38.998Z</time></trkpt><trkpt lat="42.91732493564012" lon="13.88274966853666"><ele>76.0</ele><time>2026-03-22T08:23:40.998Z</time></trkpt><trkpt lat="42.91741471913091" lon="13.882806239075927"><ele>76.0</ele><time>2026-03-22T08:23:42.998Z</time></trkpt><trkpt lat="42.91747701365069" lon="13.882866462926062"><ele>76.0</ele><time>2026-03-22T08:23:43.998Z</time></trkpt><trkpt lat="42.917548995262514" lon="13.882926339795976"><ele>76.0</ele><time>2026-03-22T08:23:44.998Z</time></trkpt><trkpt lat="42.91763109912715" lon="13.882997039670709"><ele>76.0</ele><time>2026-03-22T08:23:45.998Z</time></trkpt><trkpt lat="42.91772302475671" lon="13.883070985669471"><ele>76.0</ele><time>2026-03-22T08:23:46.998Z</time></trkpt><trkpt lat="42.91778758549049" lon="13.883126867462225"><ele>76.0</ele><time>2026-03-22T08:23:48Z</time></trkpt><trkpt lat="42.917849998902916" lon="13.883188382727367"><ele>76.25</ele><time>2026-03-22T08:23:49Z</time></trkpt><trkpt lat="42.91792665202732" lon="13.883281019849257"><ele>76.5</ele><time>2026-03-22T08:23:50Z</time></trkpt><trkpt lat="42.91801653421994" lon="13.883390352969199"><ele>76.75</ele><time>2026-03-22T08:23:51Z</time></trkpt><trkpt lat="42.918107595447374" lon="13.883500198538265"><ele>77.0</ele><time>2026-03-22T08:23:52Z</time></trkpt><trkpt lat="42.91819181764521" lon="13.883595917076757"><ele>75.5</ele><time>2026-03-22T08:23:53Z</time></trkpt><trkpt lat="42.91826992549217" lon="13.8836846610222"><ele>74.0</ele><time>2026-03-22T08:23:54Z</time></trkpt><trkpt lat="42.91833212376877" lon="13.883766255303192"><ele>72.5</ele><time>2026-03-22T08:23:55Z</time></trkpt><trkpt lat="42.91839623100498" lon="13.883809185403285"><ele>71.0</ele><time>2026-03-22T08:23:56Z</time></trkpt><trkpt lat="42.91847877563376" lon="13.883861145779163"><ele>69.5</ele><time>2026-03-22T08:23:58Z</time></trkpt><trkpt lat="42.91854754984989" lon="13.883878619641472"><ele>68.0</ele><time>2026-03-22T08:24:00Z</time></trkpt><trkpt lat="42.91859544235505" lon="13.883747708231951"><ele>67.2</ele><time>2026-03-22T08:24:03Z</time></trkpt><trkpt lat="42.918589788703706" lon="13.883572484545708"><ele>66.4</ele><time>2026-03-22T08:24:05Z</time></trkpt><trkpt lat="42.9185846573902" lon="13.883459444422977"><ele>65.60000000000001</ele><time>2026-03-22T08:24:06Z</time></trkpt><trkpt lat="42.91858872647186" lon="13.883340829403336"><ele>64.8</ele><time>2026-03-22T08:24:07Z</time></trkpt><trkpt lat="42.91859781353363" lon="13.883225209916905"><ele>64.0</ele><time>2026-03-22T08:24:08Z</time></trkpt><trkpt lat="42.91860735850707" lon="13.883098244872908"><ele>66.5</ele><time>2026-03-22T08:24:09Z</time></trkpt><trkpt lat="42.91861286377577" lon="13.882936231076634"><ele>69.0</ele><time>2026-03-22T08:24:10Z</time></trkpt><trkpt lat="42.918619019239806" lon="13.882784342749446"><ele>71.5</ele><time>2026-03-22T08:24:11Z</time></trkpt><trkpt lat="42.918630498309035" lon="13.882622644636498"><ele>74.0</ele><time>2026-03-22T08:24:12Z</time></trkpt><trkpt lat="42.91865145205306" lon="13.882450875441647"><ele>77.25</ele><time>2026-03-22T08:24:13Z</time></trkpt><trkpt lat="42.91865777275397" lon="13.882282284321649"><ele>80.5</ele><time>2026-03-22T08:24:14Z</time></trkpt><trkpt lat="42.918665778661506" lon="13.882119118228461"><ele>83.75</ele><time>2026-03-22T08:24:15Z</time></trkpt><trkpt lat="42.91867340512865" lon="13.881955626339419"><ele>87.0</ele><time>2026-03-22T08:24:16Z</time></trkpt><trkpt lat="42.918685044236476" lon="13.881792041907074"><ele>90.5</ele><time>2026-03-22T08:24:17Z</time></trkpt><trkpt lat="42.91869374759717" lon="13.881621164455224"><ele>94.0</ele><time>2026-03-22T08:24:18Z</time></trkpt><trkpt lat="42.91869619407399" lon="13.881455018601441"><ele>97.5</ele><time>2026-03-22T08:24:19Z</time></trkpt><trkpt lat="42.91867825886636" lon="13.881306277179249"><ele>101.0</ele><time>2026-03-22T08:24:19.999Z</time></trkpt><trkpt lat="42.91863256255378" lon="13.881161820728867"><ele>100.99999999999999</ele><time>2026-03-22T08:24:20.999Z</time></trkpt><trkpt lat="42.918582962978775" lon="13.88101214033788"><ele>101.0</ele><time>2026-03-22T08:24:21.999Z</time></trkpt><trkpt lat="42.91854629340644" lon="13.880893828955864"><ele>101.0</ele><time>2026-03-22T08:24:22.999Z</time></trkpt><trkpt lat="42.91852282335275" lon="13.880804823455739"><ele>101.0</ele><time>2026-03-22T08:24:23.999Z</time></trkpt><trkpt lat="42.91850824848051" lon="13.880706818917664"><ele>100.99999999999999</ele><time>2026-03-22T08:24:24.999Z</time></trkpt><trkpt lat="42.91851856056903" lon="13.880612644593626"><ele>101.0</ele><time>2026-03-22T08:24:25.999Z</time></trkpt><trkpt lat="42.91854815930534" lon="13.880503467669076"><ele>104.25</ele><time>2026-03-22T08:24:26.999Z</time></trkpt><trkpt lat="42.91857595402979" lon="13.880361339406457"><ele>107.5</ele><time>2026-03-22T08:24:27.999Z</time></trkpt><trkpt lat="42.91860214235523" lon="13.880197392813443"><ele>110.75</ele><time>2026-03-22T08:24:28.999Z</time></trkpt><trkpt lat="42.9186276271194" lon="13.880010147963194"><ele>114.0</ele><time>2026-03-22T08:24:29.999Z</time></trkpt><trkpt lat="42.91866024807257" lon="13.879814120669403"><ele>116.80000000000001</ele><time>2026-03-22T08:24:30.999Z</time></trkpt><trkpt lat="42.918685920608866" lon="13.879635935627427"><ele>119.60000000000001</ele><time>2026-03-22T08:24:31.999Z</time></trkpt><trkpt lat="42.91871098929432" lon="13.879527215944904"><ele>122.4</ele><time>2026-03-22T08:24:32.999Z</time></trkpt><trkpt lat="42.91878589914037" lon="13.87939198437498"><ele>125.2</ele><time>2026-03-22T08:24:34.999Z</time></trkpt><trkpt lat="42.91879724952102" lon="13.879295884906144"><ele>128.0</ele><time>2026-03-22T08:24:35.999Z</time></trkpt><trkpt lat="42.91882763481008" lon="13.879182947700036"><ele>130.75</ele><time>2026-03-22T08:24:36.999Z</time></trkpt><trkpt lat="42.91888300618585" lon="13.87905353364599"><ele>133.5</ele><time>2026-03-22T08:24:37.999Z</time></trkpt><trkpt lat="42.9189559840143" lon="13.878904694594194"><ele>136.25</ele><time>2026-03-22T08:24:38.999Z</time></trkpt><trkpt lat="42.91904270185749" lon="13.878753286465212"><ele>139.0</ele><time>2026-03-22T08:24:39.999Z</time></trkpt><trkpt lat="42.919127981838095" lon="13.87862903156251"><ele>139.0</ele><time>2026-03-22T08:24:40.999Z</time></trkpt><trkpt lat="42.919210490441635" lon="13.878497690392043"><ele>139.0</ele><time>2026-03-22T08:24:41.999Z</time></trkpt><trkpt lat="42.91927561725565" lon="13.878346115638486"><ele>139.0</ele><time>2026-03-22T08:24:42.999Z</time></trkpt><trkpt lat="42.91932985431339" lon="13.878184311385548"><ele>139.0</ele><time>2026-03-22T08:24:43.999Z</time></trkpt><trkpt lat="42.91937127204704" lon="13.877978427702462"><ele>137.66666666666669</ele><time>2026-03-22T08:24:44.999Z</time></trkpt><trkpt lat="42.919426773674836" lon="13.877810657401067"><ele>136.33333333333334</ele><time>2026-03-22T08:24:45.999Z</time></trkpt><trkpt lat="42.919497232889064" lon="13.877473941081917"><ele>135.0</ele><time>2026-03-22T08:24:47.999Z</time></trkpt><trkpt lat="42.9194815239964" lon="13.877282712277106"><ele>134.66666666666666</ele><time>2026-03-22T08:24:48.999Z</time></trkpt><trkpt lat="42.91949971803483" lon="13.87706078919671"><ele>134.33333333333331</ele><time>2026-03-22T08:24:49.999Z</time></trkpt><trkpt lat="42.91951235561083" lon="13.876845602583472"><ele>134.0</ele><time>2026-03-22T08:24:50.999Z</time></trkpt><trkpt lat="42.919528737456574" lon="13.876666741014633"><ele>134.0</ele><time>2026-03-22T08:24:51.999Z</time></trkpt><trkpt lat="42.91953116771555" lon="13.876509566786721"><ele>134.0</ele><time>2026-03-22T08:24:52.999Z</time></trkpt><trkpt lat="42.91950830428026" lon="13.876356057038802"><ele>134.0</ele><time>2026-03-22T08:24:53.999Z</time></trkpt><trkpt lat="42.91946033428817" lon="13.87618730558003"><ele>134.0</ele><time>2026-03-22T08:24:54.999Z</time></trkpt><trkpt lat="42.919410004090764" lon="13.876023812114568"><ele>134.0</ele><time>2026-03-22T08:24:55.999Z</time></trkpt><trkpt lat="42.919361493018094" lon="13.875853568306018"><ele>134.0</ele><time>2026-03-22T08:24:56.999Z</time></trkpt><trkpt lat="42.91935265941126" lon="13.87565710626824"><ele>134.0</ele><time>2026-03-22T08:24:57.999Z</time></trkpt><trkpt lat="42.91932712701397" lon="13.875449475069184"><ele>134.0</ele><time>2026-03-22T08:24:58.999Z</time></trkpt><trkpt lat="42.91930207304216" lon="13.875251386468644"><ele>134.66666666666666</ele><time>2026-03-22T08:24:59.999Z</time></trkpt><trkpt lat="42.91929992698418" lon="13.875035286465094"><ele>135.33333333333334</ele><time>2026-03-22T08:25:00.999Z</time></trkpt><trkpt lat="42.919299486886366" lon="13.874798427013376"><ele>136.0</ele><time>2026-03-22T08:25:01.999Z</time></trkpt><trkpt lat="42.919297346589644" lon="13.874551898221736"><ele>136.0</ele><time>2026-03-22T08:25:02.999Z</time></trkpt><trkpt lat="42.919298218786324" lon="13.874373768218586"><ele>136.0</ele><time>2026-03-22T08:25:03.999Z</time></trkpt><trkpt lat="42.91932501498096" lon="13.874261343159787"><ele>136.0</ele><time>2026-03-22T08:25:04.999Z</time></trkpt><trkpt lat="42.91934790016287" lon="13.874130868020151"><ele>136.0</ele><time>2026-03-22T08:25:05.999Z</time></trkpt><trkpt lat="42.9193651584188" lon="13.873974787974182"><ele>136.0</ele><time>2026-03-22T08:25:06.999Z</time></trkpt><trkpt lat="42.9193806427166" lon="13.873797682663758"><ele>137.0</ele><time>2026-03-22T08:25:07.999Z</time></trkpt><trkpt lat="42.919393221340634" lon="13.87364226611789"><ele>138.0</ele><time>2026-03-22T08:25:08.999Z</time></trkpt><trkpt lat="42.919403336161004" lon="13.873495041009258"><ele>139.0</ele><time>2026-03-22T08:25:09.998Z</time></trkpt><trkpt lat="42.919410107173405" lon="13.873310166301128"><ele>140.0</ele><time>2026-03-22T08:25:10.998Z</time></trkpt><trkpt lat="42.91941345256157" lon="13.873099423205069"><ele>140.0</ele><time>2026-03-22T08:25:11.998Z</time></trkpt><trkpt lat="42.91940387831553" lon="13.872891273619983"><ele>140.0</ele><time>2026-03-22T08:25:12.998Z</time></trkpt><trkpt lat="42.9193935158547" lon="13.872685895773744"><ele>140.0</ele><time>2026-03-22T08:25:13.998Z</time></trkpt><trkpt lat="42.91939185255904" lon="13.872472450183034"><ele>139.66666666666666</ele><time>2026-03-22T08:25:14.998Z</time></trkpt><trkpt lat="42.91939185256655" lon="13.872237201140104"><ele>139.33333333333334</ele><time>2026-03-22T08:25:15.998Z</time></trkpt><trkpt lat="42.91939082310398" lon="13.871973829438641"><ele>139.0</ele><time>2026-03-22T08:25:16.998Z</time></trkpt><trkpt lat="42.91938569189254" lon="13.871710271036095"><ele>137.33333333333334</ele><time>2026-03-22T08:25:17.998Z</time></trkpt><trkpt lat="42.91937075475072" lon="13.871469579613763"><ele>135.66666666666666</ele><time>2026-03-22T08:25:18.998Z</time></trkpt><trkpt lat="42.91936650182596" lon="13.871239306362614"><ele>134.0</ele><time>2026-03-22T08:25:19.998Z</time></trkpt><trkpt lat="42.91937109848444" lon="13.871035823695776"><ele>134.5</ele><time>2026-03-22T08:25:20.998Z</time></trkpt><trkpt lat="42.91938230919543" lon="13.870848371033219"><ele>135.0</ele><time>2026-03-22T08:25:21.998Z</time></trkpt><trkpt lat="42.91939292809484" lon="13.870650062926666"><ele>135.5</ele><time>2026-03-22T08:25:22.998Z</time></trkpt><trkpt lat="42.91939001084787" lon="13.870476787442996"><ele>136.0</ele><time>2026-03-22T08:25:23.998Z</time></trkpt><trkpt lat="42.919379041772196" lon="13.870330491033924"><ele>136.0</ele><time>2026-03-22T08:25:24.998Z</time></trkpt><trkpt lat="42.919356126929344" lon="13.870165586712945"><ele>136.0</ele><time>2026-03-22T08:25:25.998Z</time></trkpt><trkpt lat="42.91934982367696" lon="13.869953494584223"><ele>136.0</ele><time>2026-03-22T08:25:26.998Z</time></trkpt><trkpt lat="42.91934300531917" lon="13.869753792518969"><ele>136.0</ele><time>2026-03-22T08:25:27.998Z</time></trkpt><trkpt lat="42.91934064547356" lon="13.869565854055637"><ele>134.33333333333334</ele><time>2026-03-22T08:25:28.998Z</time></trkpt><trkpt lat="42.919341279846634" lon="13.869366786764676"><ele>132.66666666666666</ele><time>2026-03-22T08:25:29.998Z</time></trkpt><trkpt lat="42.919343908371594" lon="13.86915405509933"><ele>131.0</ele><time>2026-03-22T08:25:30.998Z</time></trkpt><trkpt lat="42.91933294797613" lon="13.868933793763016"><ele>130.5</ele><time>2026-03-22T08:25:31.998Z</time></trkpt><trkpt lat="42.919340727989514" lon="13.868722268575748"><ele>130.0</ele><time>2026-03-22T08:25:32.998Z</time></trkpt><trkpt lat="42.91934412926026" lon="13.868525803425175"><ele>129.5</ele><time>2026-03-22T08:25:33.998Z</time></trkpt><trkpt lat="42.91936394484378" lon="13.868346995276807"><ele>129.0</ele><time>2026-03-22T08:25:34.998Z</time></trkpt><trkpt lat="42.919370790201036" lon="13.868160252745199"><ele>128.4</ele><time>2026-03-22T08:25:35.998Z</time></trkpt><trkpt lat="42.9193774664445" lon="13.867985685588092"><ele>127.80000000000001</ele><time>2026-03-22T08:25:36.998Z</time></trkpt><trkpt lat="42.919384197035285" lon="13.867840060118882"><ele>127.19999999999999</ele><time>2026-03-22T08:25:37.998Z</time></trkpt><trkpt lat="42.919385765824245" lon="13.867719558072647"><ele>126.6</ele><time>2026-03-22T08:25:38.998Z</time></trkpt><trkpt lat="42.91937935588921" lon="13.867603651363323"><ele>126.0</ele><time>2026-03-22T08:25:39.998Z</time></trkpt><trkpt lat="42.91943910246181" lon="13.86745600480559"><ele>124.33333333333334</ele><time>2026-03-22T08:25:40.998Z</time></trkpt><trkpt lat="42.91947379256046" lon="13.867258334667"><ele>122.66666666666667</ele><time>2026-03-22T08:25:41.998Z</time></trkpt><trkpt lat="42.91950654857284" lon="13.867008340386166"><ele>121.0</ele><time>2026-03-22T08:25:42.998Z</time></trkpt><trkpt lat="42.91953601841954" lon="13.866746487890266"><ele>121.0</ele><time>2026-03-22T08:25:43.998Z</time></trkpt><trkpt lat="42.91955917136794" lon="13.866525895562418"><ele>121.0</ele><time>2026-03-22T08:25:44.998Z</time></trkpt><trkpt lat="42.91958060602632" lon="13.866327481242392"><ele>121.0</ele><time>2026-03-22T08:25:45.998Z</time></trkpt><trkpt lat="42.91959944027376" lon="13.866151678903295"><ele>121.0</ele><time>2026-03-22T08:25:46.998Z</time></trkpt><trkpt lat="42.919603952642156" lon="13.865987144745667"><ele>121.33333333333334</ele><time>2026-03-22T08:25:47.998Z</time></trkpt><trkpt lat="42.91960088453719" lon="13.865894620262043"><ele>121.66666666666667</ele><time>2026-03-22T08:25:48.998Z</time></trkpt><trkpt lat="42.919583261524686" lon="13.865764656441847"><ele>122.0</ele><time>2026-03-22T08:25:50.998Z</time></trkpt><trkpt lat="42.91957230417579" lon="13.86567552470838"><ele>122.33333333333334</ele><time>2026-03-22T08:25:51.998Z</time></trkpt><trkpt lat="42.91956185301345" lon="13.865567807888976"><ele>122.66666666666667</ele><time>2026-03-22T08:25:52.998Z</time></trkpt><trkpt lat="42.91955975263916" lon="13.865455311134225"><ele>123.0</ele><time>2026-03-22T08:25:54Z</time></trkpt><trkpt lat="42.919634209014454" lon="13.865312501101371"><ele>123.0</ele><time>2026-03-22T08:25:56Z</time></trkpt><trkpt lat="42.91963459640461" lon="13.865165043272592"><ele>123.0</ele><time>2026-03-22T08:25:57Z</time></trkpt><trkpt lat="42.91963278822792" lon="13.864999293790074"><ele>123.0</ele><time>2026-03-22T08:25:58Z</time></trkpt><trkpt lat="42.9195646783522" lon="13.864801971820556"><ele>123.0</ele><time>2026-03-22T08:25:59Z</time></trkpt><trkpt lat="42.91956215866095" lon="13.864621016057422"><ele>123.25</ele><time>2026-03-22T08:26:00Z</time></trkpt><trkpt lat="42.91954725370602" lon="13.864462550790451"><ele>123.5</ele><time>2026-03-22T08:26:01Z</time></trkpt><trkpt lat="42.919549741128876" lon="13.864309893978128"><ele>123.75</ele><time>2026-03-22T08:26:02Z</time></trkpt><trkpt lat="42.9196363023339" lon="13.864177258295353"><ele>124.0</ele><time>2026-03-22T08:26:03Z</time></trkpt><trkpt lat="42.91967098849022" lon="13.864054461490952"><ele>124.0</ele><time>2026-03-22T08:26:04Z</time></trkpt><trkpt lat="42.919724956354415" lon="13.863887988588875"><ele>124.0</ele><time>2026-03-22T08:26:05Z</time></trkpt><trkpt lat="42.91978444463746" lon="13.863710717094099"><ele>124.0</ele><time>2026-03-22T08:26:06Z</time></trkpt><trkpt lat="42.919840109730295" lon="13.863544838479788"><ele>124.0</ele><time>2026-03-22T08:26:07Z</time></trkpt><trkpt lat="42.919886364002416" lon="13.863407003534526"><ele>124.4</ele><time>2026-03-22T08:26:08Z</time></trkpt><trkpt lat="42.91993419534829" lon="13.863271486103901"><ele>124.80000000000001</ele><time>2026-03-22T08:26:09Z</time></trkpt><trkpt lat="42.91998315271125" lon="13.863137788013068"><ele>125.19999999999999</ele><time>2026-03-22T08:26:10Z</time></trkpt><trkpt lat="42.92003032900723" lon="13.862994472587243"><ele>125.6</ele><time>2026-03-22T08:26:11Z</time></trkpt><trkpt lat="42.92006771471986" lon="13.862878884341391"><ele>126.0</ele><time>2026-03-22T08:26:12Z</time></trkpt><trkpt lat="42.92010807567907" lon="13.862763734850454"><ele>122.19999999999999</ele><time>2026-03-22T08:26:13Z</time></trkpt><trkpt lat="42.920149530946134" lon="13.862647581363602"><ele>118.39999999999999</ele><time>2026-03-22T08:26:14Z</time></trkpt><trkpt lat="42.92019288296978" lon="13.862506935784545"><ele>114.6</ele><time>2026-03-22T08:26:15Z</time></trkpt><trkpt lat="42.920248799923534" lon="13.862399833700412"><ele>110.8</ele><time>2026-03-22T08:26:16Z</time></trkpt><trkpt lat="42.92030583704008" lon="13.862289058724357"><ele>107.0</ele><time>2026-03-22T08:26:17Z</time></trkpt><trkpt lat="42.92036949965727" lon="13.862166719327005"><ele>106.99999999999999</ele><time>2026-03-22T08:26:18Z</time></trkpt><trkpt lat="42.92043521999106" lon="13.86206532122571"><ele>107.0</ele><time>2026-03-22T08:26:19Z</time></trkpt><trkpt lat="42.92049981377696" lon="13.86199972003243"><ele>107.0</ele><time>2026-03-22T08:26:20Z</time></trkpt><trkpt lat="42.920532168114924" lon="13.861916179412122"><ele>107.0</ele><time>2026-03-22T08:26:21Z</time></trkpt><trkpt lat="42.920611474305105" lon="13.861839765417495"><ele>106.99999999999999</ele><time>2026-03-22T08:26:23Z</time></trkpt><trkpt lat="42.92066078495055" lon="13.86177298495958"><ele>107.0</ele><time>2026-03-22T08:26:24.999Z</time></trkpt><trkpt lat="42.92071536411293" lon="13.861695206596803"><ele>108.8</ele><time>2026-03-22T08:26:26.999Z</time></trkpt><trkpt lat="42.920769488155806" lon="13.861618076819125"><ele>110.6</ele><time>2026-03-22T08:26:27.999Z</time></trkpt><trkpt lat="42.920780638240025" lon="13.861440550025963"><ele>112.39999999999999</ele><time>2026-03-22T08:26:28.999Z</time></trkpt><trkpt lat="42.9207890931838" lon="13.86128798468887"><ele>114.19999999999999</ele><time>2026-03-22T08:26:29.999Z</time></trkpt><trkpt lat="42.92076192393802" lon="13.861141616791357"><ele>116.0</ele><time>2026-03-22T08:26:30.999Z</time></trkpt><trkpt lat="42.920744805669514" lon="13.860995177320724"><ele>115.5</ele><time>2026-03-22T08:26:31.999Z</time></trkpt><trkpt lat="42.920715820992704" lon="13.86083108421009"><ele>115.0</ele><time>2026-03-22T08:26:32.999Z</time></trkpt><trkpt lat="42.920682929656756" lon="13.860656243259115"><ele>114.5</ele><time>2026-03-22T08:26:33.999Z</time></trkpt><trkpt lat="42.92066584770112" lon="13.860447162148734"><ele>114.0</ele><time>2026-03-22T08:26:34.999Z</time></trkpt><trkpt lat="42.92062114721727" lon="13.860221011129102"><ele>113.33333333333334</ele><time>2026-03-22T08:26:35.999Z</time></trkpt><trkpt lat="42.92059354752962" lon="13.8600044647306"><ele>112.66666666666667</ele><time>2026-03-22T08:26:36.999Z</time></trkpt><trkpt lat="42.92057569723482" lon="13.8597793790596"><ele>112.0</ele><time>2026-03-22T08:26:37.999Z</time></trkpt><trkpt lat="42.92056562154057" lon="13.85955365238875"><ele>112.0</ele><time>2026-03-22T08:26:38.999Z</time></trkpt><trkpt lat="42.920556301652255" lon="13.859318334477363"><ele>112.0</ele><time>2026-03-22T08:26:39.999Z</time></trkpt><trkpt lat="42.92054884938488" lon="13.859089488426365"><ele>112.0</ele><time>2026-03-22T08:26:40.999Z</time></trkpt><trkpt lat="42.92052683266091" lon="13.85888643280463"><ele>112.0</ele><time>2026-03-22T08:26:41.999Z</time></trkpt><trkpt lat="42.92046933690836" lon="13.858712334243952"><ele>112.0</ele><time>2026-03-22T08:26:42.999Z</time></trkpt><trkpt lat="42.92039978066814" lon="13.858539210801547"><ele>112.0</ele><time>2026-03-22T08:26:43.999Z</time></trkpt><trkpt lat="42.920283156823636" lon="13.858357381294791"><ele>111.0</ele><time>2026-03-22T08:26:44.999Z</time></trkpt><trkpt lat="42.920182690167415" lon="13.85814394060343"><ele>110.0</ele><time>2026-03-22T08:26:45.999Z</time></trkpt><trkpt lat="42.92009842865998" lon="13.857919146969357"><ele>109.0</ele><time>2026-03-22T08:26:46.999Z</time></trkpt><trkpt lat="42.919998999781335" lon="13.857696876048543"><ele>116.0</ele><time>2026-03-22T08:26:47.999Z</time></trkpt><trkpt lat="42.919925231953094" lon="13.857475084495057"><ele>123.0</ele><time>2026-03-22T08:26:48.999Z</time></trkpt><trkpt lat="42.91985207718837" lon="13.857267669009394"><ele>130.0</ele><time>2026-03-22T08:26:49.999Z</time></trkpt><trkpt lat="42.919782345349304" lon="13.857073923099794"><ele>130.0</ele><time>2026-03-22T08:26:50.999Z</time></trkpt><trkpt lat="42.91972623254404" lon="13.856903512768344"><ele>130.0</ele><time>2026-03-22T08:26:51.999Z</time></trkpt><trkpt lat="42.91966595292852" lon="13.856731600626512"><ele>130.0</ele><time>2026-03-22T08:26:52.999Z</time></trkpt><trkpt lat="42.91961107986049" lon="13.856556496378463"><ele>130.0</ele><time>2026-03-22T08:26:53.999Z</time></trkpt><trkpt lat="42.9195634850631" lon="13.856366827773757"><ele>129.0</ele><time>2026-03-22T08:26:54.999Z</time></trkpt><trkpt lat="42.91950982221055" lon="13.85617174017828"><ele>128.0</ele><time>2026-03-22T08:26:55.999Z</time></trkpt><trkpt lat="42.91946864577996" lon="13.855966462931987"><ele>127.0</ele><time>2026-03-22T08:26:56.999Z</time></trkpt><trkpt lat="42.919458512041786" lon="13.85574928266166"><ele>126.0</ele><time>2026-03-22T08:26:57.999Z</time></trkpt><trkpt lat="42.919471906109436" lon="13.85552578062312"><ele>125.0</ele><time>2026-03-22T08:26:58.999Z</time></trkpt><trkpt lat="42.91950975508499" lon="13.855299231090243"><ele>124.0</ele><time>2026-03-22T08:26:59.999Z</time></trkpt><trkpt lat="42.919571936931085" lon="13.8550550773801"><ele>126.0</ele><time>2026-03-22T08:27:00.999Z</time></trkpt><trkpt lat="42.919651301107365" lon="13.854771070162869"><ele>128.0</ele><time>2026-03-22T08:27:01.999Z</time></trkpt><trkpt lat="42.91972116750604" lon="13.854513819852876"><ele>130.0</ele><time>2026-03-22T08:27:02.999Z</time></trkpt><trkpt lat="42.919769800653796" lon="13.854315586009692"><ele>132.33333333333334</ele><time>2026-03-22T08:27:03.999Z</time></trkpt><trkpt lat="42.91979832489602" lon="13.854131380464073"><ele>134.66666666666666</ele><time>2026-03-22T08:27:04.999Z</time></trkpt><trkpt lat="42.919794596302125" lon="13.853912007627471"><ele>137.0</ele><time>2026-03-22T08:27:05.999Z</time></trkpt><trkpt lat="42.919760935769425" lon="13.853670634400823"><ele>135.66666666666666</ele><time>2026-03-22T08:27:06.999Z</time></trkpt><trkpt lat="42.919692731643345" lon="13.853416512883745"><ele>134.33333333333334</ele><time>2026-03-22T08:27:07.999Z</time></trkpt><trkpt lat="42.919642133528555" lon="13.853173715890287"><ele>133.0</ele><time>2026-03-22T08:27:08.999Z</time></trkpt><trkpt lat="42.91959443265067" lon="13.852924509802438"><ele>133.0</ele><time>2026-03-22T08:27:09.999Z</time></trkpt><trkpt lat="42.91953641704787" lon="13.852678166037782"><ele>133.0</ele><time>2026-03-22T08:27:10.999Z</time></trkpt><trkpt lat="42.919480042346066" lon="13.852432866587375"><ele>133.0</ele><time>2026-03-22T08:27:11.999Z</time></trkpt><trkpt lat="42.9194260268222" lon="13.852193462335297"><ele>133.0</ele><time>2026-03-22T08:27:12.999Z</time></trkpt><trkpt lat="42.919379270114334" lon="13.851957234807633"><ele>133.0</ele><time>2026-03-22T08:27:13.999Z</time></trkpt><trkpt lat="42.919345116668694" lon="13.851723869578057"><ele>133.0</ele><time>2026-03-22T08:27:14.999Z</time></trkpt><trkpt lat="42.919325848796156" lon="13.851504443273297"><ele>133.0</ele><time>2026-03-22T08:27:15.999Z</time></trkpt><trkpt lat="42.919318418640444" lon="13.851277898492729"><ele>133.0</ele><time>2026-03-22T08:27:16.999Z</time></trkpt><trkpt lat="42.91932210589936" lon="13.851042739987692"><ele>133.0</ele><time>2026-03-22T08:27:17.999Z</time></trkpt><trkpt lat="42.91933590797167" lon="13.850812978974359"><ele>134.0</ele><time>2026-03-22T08:27:18.998Z</time></trkpt><trkpt lat="42.91936288024501" lon="13.850586086890747"><ele>135.0</ele><time>2026-03-22T08:27:19.998Z</time></trkpt><trkpt lat="42.91940047300404" lon="13.850359858117951"><ele>136.0</ele><time>2026-03-22T08:27:20.998Z</time></trkpt><trkpt lat="42.91944172840649" lon="13.850151605743793"><ele>138.33333333333334</ele><time>2026-03-22T08:27:21.998Z</time></trkpt><trkpt lat="42.919482892474555" lon="13.849949049304012"><ele>140.66666666666666</ele><time>2026-03-22T08:27:22.998Z</time></trkpt><trkpt lat="42.9195256319293" lon="13.849745064579102"><ele>143.0</ele><time>2026-03-22T08:27:23.998Z</time></trkpt><trkpt lat="42.91957041174123" lon="13.849532995359816"><ele>143.0</ele><time>2026-03-22T08:27:24.998Z</time></trkpt><trkpt lat="42.91961575192059" lon="13.849317765312112"><ele>143.0</ele><time>2026-03-22T08:27:25.998Z</time></trkpt><trkpt lat="42.919643258755784" lon="13.849105885739467"><ele>143.0</ele><time>2026-03-22T08:27:26.998Z</time></trkpt><trkpt lat="42.91968285743677" lon="13.848939179556421"><ele>143.20000000000002</ele><time>2026-03-22T08:27:27.998Z</time></trkpt><trkpt lat="42.919708799598965" lon="13.848804908111727"><ele>143.4</ele><time>2026-03-22T08:27:28.998Z</time></trkpt><trkpt lat="42.91974023525522" lon="13.848693180899653"><ele>143.60000000000002</ele><time>2026-03-22T08:27:29.998Z</time></trkpt><trkpt lat="42.91975908767478" lon="13.848598436832857"><ele>143.8</ele><time>2026-03-22T08:27:30.998Z</time></trkpt><trkpt lat="42.919824070932336" lon="13.848518136334498"><ele>144.0</ele><time>2026-03-22T08:27:32.998Z</time></trkpt><trkpt lat="42.919970494240836" lon="13.848517492132991"><ele>144.6</ele><time>2026-03-22T08:27:33.998Z</time></trkpt><trkpt lat="42.9200922958598" lon="13.848506133065348"><ele>145.2</ele><time>2026-03-22T08:27:34.998Z</time></trkpt><trkpt lat="42.92019905501804" lon="13.848493575883627"><ele>145.79999999999998</ele><time>2026-03-22T08:27:35.998Z</time></trkpt><trkpt lat="42.9202953437518" lon="13.848476831270723"><ele>146.4</ele><time>2026-03-22T08:27:36.998Z</time></trkpt><trkpt lat="42.92039396132072" lon="13.848455774013347"><ele>147.0</ele><time>2026-03-22T08:27:37.998Z</time></trkpt><trkpt lat="42.92050428247645" lon="13.848408190365813"><ele>147.0</ele><time>2026-03-22T08:27:38.998Z</time></trkpt><trkpt lat="42.92062550202448" lon="13.84833676713209"><ele>147.0</ele><time>2026-03-22T08:27:39.998Z</time></trkpt><trkpt lat="42.920752379917" lon="13.848231370219015"><ele>147.0</ele><time>2026-03-22T08:27:40.998Z</time></trkpt><trkpt lat="42.92087476383175" lon="13.848112126917307"><ele>147.0</ele><time>2026-03-22T08:27:41.998Z</time></trkpt><trkpt lat="42.920997869614325" lon="13.848014183123201"><ele>145.75</ele><time>2026-03-22T08:27:42.998Z</time></trkpt><trkpt lat="42.92110651827944" lon="13.847908852242307"><ele>144.5</ele><time>2026-03-22T08:27:43.998Z</time></trkpt><trkpt lat="42.92121114065764" lon="13.847810754323358"><ele>143.25</ele><time>2026-03-22T08:27:44.998Z</time></trkpt><trkpt lat="42.921318508284436" lon="13.847685488375928"><ele>142.0</ele><time>2026-03-22T08:27:45.998Z</time></trkpt><trkpt lat="42.921431334992505" lon="13.84756996806606"><ele>142.0</ele><time>2026-03-22T08:27:46.998Z</time></trkpt><trkpt lat="42.92153413326438" lon="13.847472557622035"><ele>142.0</ele><time>2026-03-22T08:27:47.998Z</time></trkpt><trkpt lat="42.92165141368555" lon="13.847392828831603"><ele>142.0</ele><time>2026-03-22T08:27:48.998Z</time></trkpt><trkpt lat="42.921779328472844" lon="13.847312604950803"><ele>142.0</ele><time>2026-03-22T08:27:49.998Z</time></trkpt><trkpt lat="42.92190713990786" lon="13.847239286403546"><ele>138.75</ele><time>2026-03-22T08:27:50.998Z</time></trkpt><trkpt lat="42.922030509345866" lon="13.847171014692835"><ele>135.5</ele><time>2026-03-22T08:27:51.998Z</time></trkpt><trkpt lat="42.922150054067906" lon="13.84710466498689"><ele>132.25</ele><time>2026-03-22T08:27:52.998Z</time></trkpt><trkpt lat="42.92227269772988" lon="13.84703146100098"><ele>129.0</ele><time>2026-03-22T08:27:53.998Z</time></trkpt><trkpt lat="42.92239690283492" lon="13.84696961461406"><ele>129.0</ele><time>2026-03-22T08:27:54.998Z</time></trkpt><trkpt lat="42.92251103171418" lon="13.846906536842676"><ele>129.0</ele><time>2026-03-22T08:27:55.998Z</time></trkpt><trkpt lat="42.922626181840386" lon="13.846842183978522"><ele>129.0</ele><time>2026-03-22T08:27:56.998Z</time></trkpt><trkpt lat="42.92272485394652" lon="13.846770079150835"><ele>129.0</ele><time>2026-03-22T08:27:57.998Z</time></trkpt><trkpt lat="42.92281283153028" lon="13.846683817258551"><ele>125.5</ele><time>2026-03-22T08:27:58.998Z</time></trkpt><trkpt lat="42.92289802579527" lon="13.84656317921299"><ele>122.0</ele><time>2026-03-22T08:28:00Z</time></trkpt><trkpt lat="42.92297786395617" lon="13.84643726388778"><ele>118.5</ele><time>2026-03-22T08:28:01Z</time></trkpt><trkpt lat="42.92305393452546" lon="13.846308506962105"><ele>115.0</ele><time>2026-03-22T08:28:02Z</time></trkpt><trkpt lat="42.923114335158026" lon="13.846181060730995"><ele>115.00000000000001</ele><time>2026-03-22T08:28:03Z</time></trkpt><trkpt lat="42.92318087741386" lon="13.846075914036271"><ele>115.0</ele><time>2026-03-22T08:28:04Z</time></trkpt><trkpt lat="42.92322592248189" lon="13.845969171786663"><ele>115.0</ele><time>2026-03-22T08:28:05Z</time></trkpt><trkpt lat="42.92325816617611" lon="13.845876558054314"><ele>115.0</ele><time>2026-03-22T08:28:06Z</time></trkpt><trkpt lat="42.9232730035955" lon="13.84579095417859"><ele>115.00000000000001</ele><time>2026-03-22T08:28:07Z</time></trkpt><trkpt lat="42.92332867182911" lon="13.845735616456592"><ele>115.0</ele><time>2026-03-22T08:28:09Z</time></trkpt><trkpt lat="42.923549094524134" lon="13.845854319630524"><ele>114.4</ele><time>2026-03-22T08:28:10Z</time></trkpt><trkpt lat="42.92367466509591" lon="13.845933807188144"><ele>113.8</ele><time>2026-03-22T08:28:11Z</time></trkpt><trkpt lat="42.923781169894625" lon="13.845981511835888"><ele>113.19999999999999</ele><time>2026-03-22T08:28:12Z</time></trkpt><trkpt lat="42.92386920682309" lon="13.846015884150566"><ele>112.6</ele><time>2026-03-22T08:28:13Z</time></trkpt><trkpt lat="42.92394288254557" lon="13.84607239641489"><ele>112.0</ele><time>2026-03-22T08:28:14Z</time></trkpt><trkpt lat="42.92400297892008" lon="13.846136754830358"><ele>110.6</ele><time>2026-03-22T08:28:15Z</time></trkpt><trkpt lat="42.924053681538446" lon="13.846226925414957"><ele>109.19999999999999</ele><time>2026-03-22T08:28:16Z</time></trkpt><trkpt lat="42.92408988765213" lon="13.846326945505448"><ele>107.8</ele><time>2026-03-22T08:28:17Z</time></trkpt><trkpt lat="42.92409570319628" lon="13.84645804664662"><ele>106.4</ele><time>2026-03-22T08:28:18Z</time></trkpt><trkpt lat="42.924088550691444" lon="13.846611764426987"><ele>105.0</ele><time>2026-03-22T08:28:19Z</time></trkpt><trkpt lat="42.92408597732874" lon="13.846765097486076"><ele>104.0</ele><time>2026-03-22T08:28:20Z</time></trkpt><trkpt lat="42.92408468179174" lon="13.846898605331567"><ele>103.0</ele><time>2026-03-22T08:28:21Z</time></trkpt><trkpt lat="42.92410335617584" lon="13.847032030391464"><ele>102.0</ele><time>2026-03-22T08:28:22Z</time></trkpt><trkpt lat="42.92414231330022" lon="13.84714069887886"><ele>101.0</ele><time>2026-03-22T08:28:23Z</time></trkpt><trkpt lat="42.92422192904222" lon="13.847252700198405"><ele>100.0</ele><time>2026-03-22T08:28:24Z</time></trkpt><trkpt lat="42.92427322168794" lon="13.847376848084"><ele>97.0</ele><time>2026-03-22T08:28:25Z</time></trkpt><trkpt lat="42.92432936204601" lon="13.84749377939957"><ele>94.0</ele><time>2026-03-22T08:28:26Z</time></trkpt><trkpt lat="42.92438821247122" lon="13.84761635533687"><ele>91.0</ele><time>2026-03-22T08:28:27Z</time></trkpt><trkpt lat="42.92444425165263" lon="13.847723942922697"><ele>88.0</ele><time>2026-03-22T08:28:28Z</time></trkpt><trkpt lat="42.92449574368911" lon="13.84783006164994"><ele>85.0</ele><time>2026-03-22T08:28:29Z</time></trkpt><trkpt lat="42.9245432009599" lon="13.847935014810014"><ele>83.8</ele><time>2026-03-22T08:28:30Z</time></trkpt><trkpt lat="42.92458738766059" lon="13.848038606763367"><ele>82.6</ele><time>2026-03-22T08:28:31Z</time></trkpt><trkpt lat="42.92463677247516" lon="13.84814078196268"><ele>81.4</ele><time>2026-03-22T08:28:32Z</time></trkpt><trkpt lat="42.92469672027661" lon="13.848254380145871"><ele>80.2</ele><time>2026-03-22T08:28:33Z</time></trkpt><trkpt lat="42.92476173824219" lon="13.848380998359232"><ele>79.0</ele><time>2026-03-22T08:28:34Z</time></trkpt><trkpt lat="42.924827017991966" lon="13.848500736341734"><ele>77.60000000000001</ele><time>2026-03-22T08:28:34.999Z</time></trkpt><trkpt lat="42.92488992868734" lon="13.84861631887555"><ele>76.2</ele><time>2026-03-22T08:28:35.999Z</time></trkpt><trkpt lat="42.92494740854402" lon="13.848731629050974"><ele>74.80000000000001</ele><time>2026-03-22T08:28:36.999Z</time></trkpt><trkpt lat="42.92500896999061" lon="13.84885355048752"><ele>73.4</ele><time>2026-03-22T08:28:37.999Z</time></trkpt><trkpt lat="42.925068013093444" lon="13.848969965584228"><ele>72.0</ele><time>2026-03-22T08:28:38.999Z</time></trkpt><trkpt lat="42.925127946394895" lon="13.849081112200171"><ele>70.0</ele><time>2026-03-22T08:28:39.999Z</time></trkpt><trkpt lat="42.92518000373951" lon="13.849163938001839"><ele>68.0</ele><time>2026-03-22T08:28:40.999Z</time></trkpt><trkpt lat="42.9252505202788" lon="13.849237114715674"><ele>66.0</ele><time>2026-03-22T08:28:41.999Z</time></trkpt><trkpt lat="42.925340298463624" lon="13.849263281144106"><ele>64.0</ele><time>2026-03-22T08:28:42.999Z</time></trkpt><trkpt lat="42.925451743148585" lon="13.849272569484274"><ele>62.0</ele><time>2026-03-22T08:28:43.999Z</time></trkpt><trkpt lat="42.92556429435979" lon="13.849286810510748"><ele>62.2</ele><time>2026-03-22T08:28:44.999Z</time></trkpt><trkpt lat="42.925655657405926" lon="13.849309941203991"><ele>62.400000000000006</ele><time>2026-03-22T08:28:45.999Z</time></trkpt><trkpt lat="42.925744236907875" lon="13.849344805451377"><ele>62.599999999999994</ele><time>2026-03-22T08:28:46.999Z</time></trkpt><trkpt lat="42.92583183902241" lon="13.849388297502033"><ele>62.8</ele><time>2026-03-22T08:28:47.999Z</time></trkpt><trkpt lat="42.92590049648076" lon="13.849448589322233"><ele>63.0</ele><time>2026-03-22T08:28:48.999Z</time></trkpt><trkpt lat="42.925972126329356" lon="13.849533886683218"><ele>66.2</ele><time>2026-03-22T08:28:49.999Z</time></trkpt><trkpt lat="42.92602329052586" lon="13.84962352224991"><ele>69.4</ele><time>2026-03-22T08:28:50.999Z</time></trkpt><trkpt lat="42.92602596982871" lon="13.849742434577148"><ele>72.60000000000001</ele><time>2026-03-22T08:28:51.999Z</time></trkpt><trkpt lat="42.92596627773643" lon="13.84985549628728"><ele>75.8</ele><time>2026-03-22T08:28:52.999Z</time></trkpt><trkpt lat="42.92596264718332" lon="13.849998718498764"><ele>79.0</ele><time>2026-03-22T08:28:53.999Z</time></trkpt><trkpt lat="42.926020626629565" lon="13.85014136666266"><ele>79.75</ele><time>2026-03-22T08:28:54.999Z</time></trkpt><trkpt lat="42.926092394995784" lon="13.850305337835234"><ele>80.5</ele><time>2026-03-22T08:28:55.999Z</time></trkpt><trkpt lat="42.92616342958277" lon="13.850480394152715"><ele>81.25</ele><time>2026-03-22T08:28:56.999Z</time></trkpt><trkpt lat="42.926252878120806" lon="13.850665515957024"><ele>82.0</ele><time>2026-03-22T08:28:57.999Z</time></trkpt><trkpt lat="42.92633489488667" lon="13.850850004101805"><ele>81.5</ele><time>2026-03-22T08:28:58.999Z</time></trkpt><trkpt lat="42.92640914367824" lon="13.851013759579157"><ele>81.0</ele><time>2026-03-22T08:28:59.999Z</time></trkpt><trkpt lat="42.926474050802945" lon="13.851169895257902"><ele>80.5</ele><time>2026-03-22T08:29:00.999Z</time></trkpt><trkpt lat="42.9265357740303" lon="13.851323885961854"><ele>80.0</ele><time>2026-03-22T08:29:01.999Z</time></trkpt><trkpt lat="42.92659902173238" lon="13.851470989150425"><ele>80.0</ele><time>2026-03-22T08:29:02.999Z</time></trkpt><trkpt lat="42.926675437760174" lon="13.851596370477917"><ele>80.0</ele><time>2026-03-22T08:29:03.999Z</time></trkpt><trkpt lat="42.92675943142144" lon="13.851712830259029"><ele>80.0</ele><time>2026-03-22T08:29:04.999Z</time></trkpt><trkpt lat="42.92682780868422" lon="13.851796970074352"><ele>80.0</ele><time>2026-03-22T08:29:05.999Z</time></trkpt><trkpt lat="42.92690023984349" lon="13.85185953472575"><ele>80.0</ele><time>2026-03-22T08:29:06.999Z</time></trkpt><trkpt lat="42.92700505936473" lon="13.85189680528515"><ele>84.6</ele><time>2026-03-22T08:29:07.999Z</time></trkpt><trkpt lat="42.927120474630584" lon="13.851905242460989"><ele>89.2</ele><time>2026-03-22T08:29:08.999Z</time></trkpt><trkpt lat="42.92721740155976" lon="13.851915460438928"><ele>93.80000000000001</ele><time>2026-03-22T08:29:09.999Z</time></trkpt><trkpt lat="42.92730177974985" lon="13.85186789680268"><ele>98.4</ele><time>2026-03-22T08:29:10.999Z</time></trkpt><trkpt lat="42.927364440685" lon="13.851783824008633"><ele>103.0</ele><time>2026-03-22T08:29:11.999Z</time></trkpt><trkpt lat="42.92739095649963" lon="13.851632053805638"><ele>103.0</ele><time>2026-03-22T08:29:12.999Z</time></trkpt><trkpt lat="42.92743799550243" lon="13.851493895159274"><ele>103.0</ele><time>2026-03-22T08:29:13.999Z</time></trkpt><trkpt lat="42.92750173812677" lon="13.851317399915116"><ele>103.0</ele><time>2026-03-22T08:29:14.999Z</time></trkpt><trkpt lat="42.927568951337655" lon="13.851131962444324"><ele>103.0</ele><time>2026-03-22T08:29:15.999Z</time></trkpt><trkpt lat="42.927640974866144" lon="13.850950506450287"><ele>108.60000000000001</ele><time>2026-03-22T08:29:16.999Z</time></trkpt><trkpt lat="42.927688283757405" lon="13.850807875313398"><ele>114.2</ele><time>2026-03-22T08:29:17.999Z</time></trkpt><trkpt lat="42.92773067488474" lon="13.850686466948453"><ele>119.8</ele><time>2026-03-22T08:29:18.999Z</time></trkpt><trkpt lat="42.92776985107317" lon="13.850562709290944"><ele>125.4</ele><time>2026-03-22T08:29:19.999Z</time></trkpt><trkpt lat="42.927840812567545" lon="13.850435512331195"><ele>131.0</ele><time>2026-03-22T08:29:21.999Z</time></trkpt><trkpt lat="42.927910425450776" lon="13.850422915322474"><ele>131.0</ele><time>2026-03-22T08:29:22.999Z</time></trkpt><trkpt lat="42.92799523281602" lon="13.850474643678925"><ele>131.0</ele><time>2026-03-22T08:29:23.999Z</time></trkpt><trkpt lat="42.92811762270087" lon="13.850502536583122"><ele>131.0</ele><time>2026-03-22T08:29:24.999Z</time></trkpt><trkpt lat="42.92826197619571" lon="13.850572230442562"><ele>131.0</ele><time>2026-03-22T08:29:25.999Z</time></trkpt><trkpt lat="42.92840954224904" lon="13.850635251931864"><ele>134.5</ele><time>2026-03-22T08:29:26.999Z</time></trkpt><trkpt lat="42.92855409562994" lon="13.850692898009537"><ele>138.0</ele><time>2026-03-22T08:29:27.999Z</time></trkpt><trkpt lat="42.92867129218241" lon="13.850743684668442"><ele>141.5</ele><time>2026-03-22T08:29:28.998Z</time></trkpt><trkpt lat="42.928784191180384" lon="13.850776238582814"><ele>145.0</ele><time>2026-03-22T08:29:29.998Z</time></trkpt><trkpt lat="42.92890832764667" lon="13.850811785862408"><ele>145.0</ele><time>2026-03-22T08:29:30.998Z</time></trkpt><trkpt lat="42.92904674909477" lon="13.850859498563683"><ele>145.0</ele><time>2026-03-22T08:29:31.998Z</time></trkpt><trkpt lat="42.92917011292678" lon="13.850894094689702"><ele>145.0</ele><time>2026-03-22T08:29:32.998Z</time></trkpt><trkpt lat="42.92926460529716" lon="13.85090844014164"><ele>145.0</ele><time>2026-03-22T08:29:33.998Z</time></trkpt><trkpt lat="42.92933109379567" lon="13.850908442043183"><ele>145.0</ele><time>2026-03-22T08:29:34.998Z</time></trkpt><trkpt lat="42.92941985547668" lon="13.850860109999585"><ele>147.8</ele><time>2026-03-22T08:29:36.998Z</time></trkpt><trkpt lat="42.92948980684313" lon="13.850787269597348"><ele>150.6</ele><time>2026-03-22T08:29:39.998Z</time></trkpt><trkpt lat="42.929570386868164" lon="13.850691141225774"><ele>153.4</ele><time>2026-03-22T08:29:41.998Z</time></trkpt><trkpt lat="42.92962949470345" lon="13.850626060181876"><ele>156.2</ele><time>2026-03-22T08:29:42.998Z</time></trkpt><trkpt lat="42.9297040281439" lon="13.850546155479506"><ele>159.0</ele><time>2026-03-22T08:29:43.998Z</time></trkpt><trkpt lat="42.92978044037666" lon="13.850461272912725"><ele>159.0</ele><time>2026-03-22T08:29:44.998Z</time></trkpt><trkpt lat="42.92987632758575" lon="13.850365878862497"><ele>159.0</ele><time>2026-03-22T08:29:45.998Z</time></trkpt><trkpt lat="42.92998843431512" lon="13.85026927613719"><ele>159.0</ele><time>2026-03-22T08:29:46.998Z</time></trkpt><trkpt lat="42.93011933109821" lon="13.850174475531352"><ele>159.0</ele><time>2026-03-22T08:29:47.998Z</time></trkpt><trkpt lat="42.93026136591523" lon="13.850096869958673"><ele>161.66666666666666</ele><time>2026-03-22T08:29:48.998Z</time></trkpt><trkpt lat="42.930402777422636" lon="13.850024688054697"><ele>164.33333333333331</ele><time>2026-03-22T08:29:49.998Z</time></trkpt><trkpt lat="42.930553089022226" lon="13.84994164926403"><ele>167.0</ele><time>2026-03-22T08:29:50.998Z</time></trkpt><trkpt lat="42.930685278053375" lon="13.84985783016859"><ele>167.0</ele><time>2026-03-22T08:29:51.998Z</time></trkpt><trkpt lat="42.93076537674886" lon="13.849812733182956"><ele>167.0</ele><time>2026-03-22T08:29:52.998Z</time></trkpt><trkpt lat="42.93083194641514" lon="13.849763318682218"><ele>167.0</ele><time>2026-03-22T08:29:53.998Z</time></trkpt><trkpt lat="42.93089720437678" lon="13.849705999438896"><ele>167.0</ele><time>2026-03-22T08:29:54.998Z</time></trkpt><trkpt lat="42.93094152916869" lon="13.849628156343996"><ele>167.0</ele><time>2026-03-22T08:29:55.998Z</time></trkpt><trkpt lat="42.9309681873741" lon="13.8495161621577"><ele>167.0</ele><time>2026-03-22T08:29:56.998Z</time></trkpt><trkpt lat="42.93095628041544" lon="13.84938562808931"><ele>166.0</ele><time>2026-03-22T08:29:57.998Z</time></trkpt><trkpt lat="42.9309225289147" lon="13.849216384632541"><ele>165.0</ele><time>2026-03-22T08:29:58.998Z</time></trkpt><trkpt lat="42.93089979028871" lon="13.849025698559718"><ele>164.0</ele><time>2026-03-22T08:29:59.998Z</time></trkpt><trkpt lat="42.93088448254188" lon="13.848818487248971"><ele>163.0</ele><time>2026-03-22T08:30:00.998Z</time></trkpt><trkpt lat="42.93087544499044" lon="13.848598001655855"><ele>167.0</ele><time>2026-03-22T08:30:01.998Z</time></trkpt><trkpt lat="42.930874921043376" lon="13.848369652082715"><ele>171.0</ele><time>2026-03-22T08:30:02.998Z</time></trkpt><trkpt lat="42.93087348349278" lon="13.848157359686965"><ele>175.0</ele><time>2026-03-22T08:30:03.998Z</time></trkpt><trkpt lat="42.93087083766938" lon="13.847959304884876"><ele>175.0</ele><time>2026-03-22T08:30:04.998Z</time></trkpt><trkpt lat="42.93087632671615" lon="13.847781207397071"><ele>175.0</ele><time>2026-03-22T08:30:06Z</time></trkpt><trkpt lat="42.930889246613205" lon="13.847598114943871"><ele>175.0</ele><time>2026-03-22T08:30:07Z</time></trkpt><trkpt lat="42.93091146211993" lon="13.847386188608407"><ele>175.0</ele><time>2026-03-22T08:30:08Z</time></trkpt><trkpt lat="42.93094112245264" lon="13.847178308248413"><ele>181.0</ele><time>2026-03-22T08:30:09Z</time></trkpt><trkpt lat="42.93096929335083" lon="13.847022761950667"><ele>187.0</ele><time>2026-03-22T08:30:10Z</time></trkpt><trkpt lat="42.93098389811358" lon="13.846903063257692"><ele>193.0</ele><time>2026-03-22T08:30:11Z</time></trkpt><trkpt lat="42.93103892554047" lon="13.84676063769127"><ele>199.0</ele><time>2026-03-22T08:30:13Z</time></trkpt><trkpt lat="42.9310809001627" lon="13.846672658949046"><ele>205.0</ele><time>2026-03-22T08:30:15Z</time></trkpt><trkpt lat="42.93113447007682" lon="13.846584652082893"><ele>205.0</ele><time>2026-03-22T08:30:17Z</time></trkpt><trkpt lat="42.93121284716356" lon="13.846439183110508"><ele>205.0</ele><time>2026-03-22T08:30:19Z</time></trkpt><trkpt lat="42.93126464470981" lon="13.846358778827604"><ele>205.0</ele><time>2026-03-22T08:30:20Z</time></trkpt><trkpt lat="42.93134060121211" lon="13.84627793118912"><ele>205.0</ele><time>2026-03-22T08:30:21Z</time></trkpt><trkpt lat="42.93142713736389" lon="13.846222765089003"><ele>205.0</ele><time>2026-03-22T08:30:22Z</time></trkpt><trkpt lat="42.93150959649886" lon="13.846184517718662"><ele>205.0</ele><time>2026-03-22T08:30:23Z</time></trkpt><trkpt lat="42.93161145358352" lon="13.846153585112894"><ele>205.0</ele><time>2026-03-22T08:30:24Z</time></trkpt><trkpt lat="42.931737899411246" lon="13.846141077018626"><ele>205.0</ele><time>2026-03-22T08:30:25Z</time></trkpt><trkpt lat="42.93188035298416" lon="13.846122263711175"><ele>205.0</ele><time>2026-03-22T08:30:26Z</time></trkpt><trkpt lat="42.932041089071646" lon="13.846109353695837"><ele>206.8</ele><time>2026-03-22T08:30:27Z</time></trkpt><trkpt lat="42.93219299783111" lon="13.846109364563462"><ele>208.6</ele><time>2026-03-22T08:30:28Z</time></trkpt><trkpt lat="42.93230998101182" lon="13.846105406357006"><ele>210.39999999999998</ele><time>2026-03-22T08:30:29Z</time></trkpt><trkpt lat="42.93239579741891" lon="13.846103277036645"><ele>212.2</ele><time>2026-03-22T08:30:30Z</time></trkpt><trkpt lat="42.932484002723605" lon="13.846099163047121"><ele>214.0</ele><time>2026-03-22T08:30:31Z</time></trkpt><trkpt lat="42.93259504615123" lon="13.846101494285369"><ele>214.0</ele><time>2026-03-22T08:30:32Z</time></trkpt><trkpt lat="42.93269864218319" lon="13.846097936183684"><ele>213.99999999999997</ele><time>2026-03-22T08:30:33Z</time></trkpt><trkpt lat="42.93279166188133" lon="13.84609750532074"><ele>213.99999999999997</ele><time>2026-03-22T08:30:34Z</time></trkpt><trkpt lat="42.93287921511032" lon="13.846083677320706"><ele>214.0</ele><time>2026-03-22T08:30:35Z</time></trkpt><trkpt lat="42.93297010667603" lon="13.846065779958659"><ele>214.0</ele><time>2026-03-22T08:30:36Z</time></trkpt><trkpt lat="42.93305930740856" lon="13.846025066699374"><ele>213.99999999999997</ele><time>2026-03-22T08:30:37Z</time></trkpt><trkpt lat="42.93313494702383" lon="13.845966929743945"><ele>214.0</ele><time>2026-03-22T08:30:38Z</time></trkpt><trkpt lat="42.933207820988926" lon="13.845908992807209"><ele>214.0</ele><time>2026-03-22T08:30:39Z</time></trkpt><trkpt lat="42.933284831635866" lon="13.845861239517285"><ele>214.0</ele><time>2026-03-22T08:30:40Z</time></trkpt><trkpt lat="42.933369578834046" lon="13.84582084729637"><ele>213.99999999999997</ele><time>2026-03-22T08:30:41Z</time></trkpt><trkpt lat="42.93344338123014" lon="13.845788263549746"><ele>214.0</ele><time>2026-03-22T08:30:42Z</time></trkpt><trkpt lat="42.93351205400322" lon="13.845750397731628"><ele>211.6</ele><time>2026-03-22T08:30:43Z</time></trkpt><trkpt lat="42.93358422759821" lon="13.845696326851948"><ele>209.2</ele><time>2026-03-22T08:30:44Z</time></trkpt><trkpt lat="42.933641839025775" lon="13.845615865508782"><ele>206.79999999999998</ele><time>2026-03-22T08:30:45Z</time></trkpt><trkpt lat="42.93367891186411" lon="13.845483251831197"><ele>204.39999999999998</ele><time>2026-03-22T08:30:45.999Z</time></trkpt><trkpt lat="42.93370543135515" lon="13.845281101932331"><ele>202.0</ele><time>2026-03-22T08:30:46.999Z</time></trkpt><trkpt lat="42.93373371956732" lon="13.845062158738582"><ele>202.0</ele><time>2026-03-22T08:30:47.999Z</time></trkpt><trkpt lat="42.93377359870287" lon="13.844861037828478"><ele>202.0</ele><time>2026-03-22T08:30:48.999Z</time></trkpt><trkpt lat="42.93380651162942" lon="13.844666871111817"><ele>202.0</ele><time>2026-03-22T08:30:49.999Z</time></trkpt><trkpt lat="42.93383932135213" lon="13.84450594191408"><ele>202.0</ele><time>2026-03-22T08:30:50.999Z</time></trkpt><trkpt lat="42.933876980118484" lon="13.844372064571637"><ele>203.0</ele><time>2026-03-22T08:30:51.999Z</time></trkpt><trkpt lat="42.933921139725165" lon="13.844259114507503"><ele>204.0</ele><time>2026-03-22T08:30:52.999Z</time></trkpt><trkpt lat="42.933976065457955" lon="13.84415768346189"><ele>205.0</ele><time>2026-03-22T08:30:53.999Z</time></trkpt><trkpt lat="42.9341048294369" lon="13.844100230135455"><ele>206.0</ele><time>2026-03-22T08:30:55.999Z</time></trkpt><trkpt lat="42.934199273474995" lon="13.8441416105245"><ele>207.0</ele><time>2026-03-22T08:30:56.999Z</time></trkpt><trkpt lat="42.934329015862225" lon="13.844144345616632"><ele>210.25</ele><time>2026-03-22T08:30:57.999Z</time></trkpt><trkpt lat="42.93445496016979" lon="13.84408823302689"><ele>213.5</ele><time>2026-03-22T08:30:58.999Z</time></trkpt><trkpt lat="42.9345778066641" lon="13.84402932275922"><ele>216.75</ele><time>2026-03-22T08:30:59.999Z</time></trkpt><trkpt lat="42.934696771646614" lon="13.843972460954225"><ele>220.0</ele><time>2026-03-22T08:31:00.999Z</time></trkpt><trkpt lat="42.93482898761457" lon="13.843945853148753"><ele>220.0</ele><time>2026-03-22T08:31:01.999Z</time></trkpt><trkpt lat="42.93494467001165" lon="13.843979609404625"><ele>220.0</ele><time>2026-03-22T08:31:02.999Z</time></trkpt><trkpt lat="42.93505328785318" lon="13.844020634489071"><ele>220.0</ele><time>2026-03-22T08:31:03.999Z</time></trkpt><trkpt lat="42.93513084854402" lon="13.84406402368463"><ele>220.0</ele><time>2026-03-22T08:31:04.999Z</time></trkpt><trkpt lat="42.93520761055692" lon="13.844134706757648"><ele>220.0</ele><time>2026-03-22T08:31:05.999Z</time></trkpt><trkpt lat="42.93531509118487" lon="13.844213657524724"><ele>225.25</ele><time>2026-03-22T08:31:06.999Z</time></trkpt><trkpt lat="42.93541707576275" lon="13.844312040453826"><ele>230.5</ele><time>2026-03-22T08:31:07.999Z</time></trkpt><trkpt lat="42.935500507925774" lon="13.844418287575891"><ele>235.75</ele><time>2026-03-22T08:31:08.999Z</time></trkpt><trkpt lat="42.935574587909066" lon="13.844502479952554"><ele>241.0</ele><time>2026-03-22T08:31:09.999Z</time></trkpt><trkpt lat="42.93564026136512" lon="13.844631596899827"><ele>241.0</ele><time>2026-03-22T08:31:10.999Z</time></trkpt><trkpt lat="42.935720467136406" lon="13.844747026287935"><ele>241.00000000000003</ele><time>2026-03-22T08:31:11.999Z</time></trkpt><trkpt lat="42.935782443319354" lon="13.844829239632482"><ele>241.00000000000003</ele><time>2026-03-22T08:31:12.999Z</time></trkpt><trkpt lat="42.935846355516176" lon="13.844892937104218"><ele>241.0</ele><time>2026-03-22T08:31:13.999Z</time></trkpt><trkpt lat="42.93593843141644" lon="13.844939565301287"><ele>241.0</ele><time>2026-03-22T08:31:14.999Z</time></trkpt><trkpt lat="42.93603784380621" lon="13.844901179256038"><ele>242.5</ele><time>2026-03-22T08:31:15.999Z</time></trkpt><trkpt lat="42.936109353371826" lon="13.844822802136004"><ele>244.0</ele><time>2026-03-22T08:31:16.999Z</time></trkpt><trkpt lat="42.9361787750616" lon="13.844717866702505"><ele>245.5</ele><time>2026-03-22T08:31:17.999Z</time></trkpt><trkpt lat="42.93625675895921" lon="13.844573924936263"><ele>247.0</ele><time>2026-03-22T08:31:18.999Z</time></trkpt><trkpt lat="42.93633176574426" lon="13.84443254676193"><ele>246.99999999999997</ele><time>2026-03-22T08:31:19.999Z</time></trkpt><trkpt lat="42.936374473470714" lon="13.844296916150892"><ele>247.0</ele><time>2026-03-22T08:31:20.999Z</time></trkpt><trkpt lat="42.93640257886253" lon="13.844177835770294"><ele>247.0</ele><time>2026-03-22T08:31:21.999Z</time></trkpt><trkpt lat="42.936421492123536" lon="13.844081179989624"><ele>247.0</ele><time>2026-03-22T08:31:22.999Z</time></trkpt><trkpt lat="42.936439917291416" lon="13.843976430624489"><ele>246.99999999999997</ele><time>2026-03-22T08:31:24.999Z</time></trkpt><trkpt lat="42.93648922978551" lon="13.843886146802898"><ele>247.0</ele><time>2026-03-22T08:31:27.999Z</time></trkpt><trkpt lat="42.9365356303876" lon="13.843796692102922"><ele>246.8</ele><time>2026-03-22T08:31:29.999Z</time></trkpt><trkpt lat="42.93652376286717" lon="13.843705846959487"><ele>246.6</ele><time>2026-03-22T08:31:30.999Z</time></trkpt><trkpt lat="42.93652698249186" lon="13.843548711577615"><ele>246.40000000000003</ele><time>2026-03-22T08:31:32.999Z</time></trkpt><trkpt lat="42.936535817304474" lon="13.843383833010915"><ele>246.20000000000002</ele><time>2026-03-22T08:31:34.999Z</time></trkpt><trkpt lat="42.93653616253183" lon="13.843216611203466"><ele>246.0</ele><time>2026-03-22T08:31:36.999Z</time></trkpt><trkpt lat="42.93654077630726" lon="13.843121824267746"><ele>244.4</ele><time>2026-03-22T08:31:37.999Z</time></trkpt><trkpt lat="42.93654216385956" lon="13.8430253968524"><ele>242.8</ele><time>2026-03-22T08:31:38.998Z</time></trkpt><trkpt lat="42.936567014139605" lon="13.84286915429935"><ele>241.20000000000002</ele><time>2026-03-22T08:31:40.998Z</time></trkpt><trkpt lat="42.93659222207315" lon="13.842783543510151"><ele>239.60000000000002</ele><time>2026-03-22T08:31:41.998Z</time></trkpt><trkpt lat="42.93663064246244" lon="13.84270307190048"><ele>238.0</ele><time>2026-03-22T08:31:42.998Z</time></trkpt><trkpt lat="42.93675124342149" lon="13.842630756685239"><ele>234.0</ele><time>2026-03-22T08:31:44.998Z</time></trkpt><trkpt lat="42.93683376160807" lon="13.842533780184306"><ele>230.0</ele><time>2026-03-22T08:31:45.998Z</time></trkpt><trkpt lat="42.93692239052959" lon="13.842425782516905"><ele>226.0</ele><time>2026-03-22T08:31:46.998Z</time></trkpt><trkpt lat="42.936906928607065" lon="13.84220574529538"><ele>222.0</ele><time>2026-03-22T08:31:47.998Z</time></trkpt><trkpt lat="42.93693731276105" lon="13.842081127512431"><ele>222.0</ele><time>2026-03-22T08:31:48.998Z</time></trkpt><trkpt lat="42.93695656018098" lon="13.841950725395915"><ele>222.0</ele><time>2026-03-22T08:31:49.998Z</time></trkpt><trkpt lat="42.93697778419628" lon="13.841812539773413"><ele>222.0</ele><time>2026-03-22T08:31:50.998Z</time></trkpt><trkpt lat="42.937005211436805" lon="13.841677747946143"><ele>222.0</ele><time>2026-03-22T08:31:51.998Z</time></trkpt><trkpt lat="42.93704276851378" lon="13.841543185341644"><ele>222.0</ele><time>2026-03-22T08:31:52.998Z</time></trkpt><trkpt lat="42.93707697105388" lon="13.841417355955858"><ele>225.16666666666666</ele><time>2026-03-22T08:31:53.998Z</time></trkpt><trkpt lat="42.93711672950414" lon="13.841293205573795"><ele>228.33333333333331</ele><time>2026-03-22T08:31:54.998Z</time></trkpt><trkpt lat="42.93715503510002" lon="13.841168584578703"><ele>231.5</ele><time>2026-03-22T08:31:55.998Z</time></trkpt><trkpt lat="42.937184583640054" lon="13.841061568678134"><ele>234.66666666666666</ele><time>2026-03-22T08:31:56.998Z</time></trkpt><trkpt lat="42.93720514773015" lon="13.840976694858965"><ele>237.83333333333331</ele><time>2026-03-22T08:31:57.998Z</time></trkpt><trkpt lat="42.93720504730014" lon="13.840885401938277"><ele>241.0</ele><time>2026-03-22T08:31:58.998Z</time></trkpt><trkpt lat="42.93721846805646" lon="13.840791306244506"><ele>244.5</ele><time>2026-03-22T08:31:59.998Z</time></trkpt><trkpt lat="42.93721268920865" lon="13.840682695474474"><ele>248.0</ele><time>2026-03-22T08:32:00.998Z</time></trkpt><trkpt lat="42.9372205555145" lon="13.840561556872515"><ele>251.5</ele><time>2026-03-22T08:32:01.998Z</time></trkpt><trkpt lat="42.937453333075645" lon="13.840473171054729"><ele>255.0</ele><time>2026-03-22T08:32:02.998Z</time></trkpt><trkpt lat="42.93749282183157" lon="13.840376463601235"><ele>255.0</ele><time>2026-03-22T08:32:03.998Z</time></trkpt><trkpt lat="42.937514869081554" lon="13.840292597496076"><ele>255.0</ele><time>2026-03-22T08:32:04.998Z</time></trkpt><trkpt lat="42.93754620088179" lon="13.840128318954578"><ele>255.0</ele><time>2026-03-22T08:32:06.998Z</time></trkpt><trkpt lat="42.937578301493666" lon="13.84004427317249"><ele>255.0</ele><time>2026-03-22T08:32:07.998Z</time></trkpt><trkpt lat="42.93761315229168" lon="13.839962964529"><ele>255.0</ele><time>2026-03-22T08:32:08.998Z</time></trkpt><trkpt lat="42.937636715169596" lon="13.839876489107818"><ele>255.0</ele><time>2026-03-22T08:32:09.998Z</time></trkpt><trkpt lat="42.93764902762621" lon="13.839779995737171"><ele>256.0</ele><time>2026-03-22T08:32:10.998Z</time></trkpt><trkpt lat="42.93765222986219" lon="13.83968480527638"><ele>257.0</ele><time>2026-03-22T08:32:12Z</time></trkpt><trkpt lat="42.93764161151693" lon="13.839598902553178"><ele>258.0</ele><time>2026-03-22T08:32:13Z</time></trkpt><trkpt lat="42.937628002028234" lon="13.839512530602782"><ele>259.0</ele><time>2026-03-22T08:32:14Z</time></trkpt><trkpt lat="42.93757703238818" lon="13.839379015443695"><ele>260.0</ele><time>2026-03-22T08:32:16Z</time></trkpt><trkpt lat="42.93749765226766" lon="13.83926861325209"><ele>261.0</ele><time>2026-03-22T08:32:18Z</time></trkpt><trkpt lat="42.93741853728756" lon="13.839213968239209"><ele>261.0</ele><time>2026-03-22T08:32:20Z</time></trkpt><trkpt lat="42.93735395308272" lon="13.839180525737492"><ele>261.0</ele><time>2026-03-22T08:32:22Z</time></trkpt><trkpt lat="42.93727513124444" lon="13.839124870342884"><ele>261.0</ele><time>2026-03-22T08:32:24Z</time></trkpt><trkpt lat="42.93720050547054" lon="13.839020364787558"><ele>261.0</ele><time>2026-03-22T08:32:26Z</time></trkpt><trkpt lat="42.93716986996941" lon="13.838896800988278"><ele>261.0</ele><time>2026-03-22T08:32:28Z</time></trkpt><trkpt lat="42.93714000702852" lon="13.838806212581472"><ele>261.0</ele><time>2026-03-22T08:32:29Z</time></trkpt><trkpt lat="42.93710066086382" lon="13.838712901666504"><ele>261.0</ele><time>2026-03-22T08:32:30Z</time></trkpt><trkpt lat="42.9370696788959" lon="13.838595058622191"><ele>261.0</ele><time>2026-03-22T08:32:31Z</time></trkpt><trkpt lat="42.937040321871706" lon="13.838468726643281"><ele>261.0</ele><time>2026-03-22T08:32:32Z</time></trkpt><trkpt lat="42.93700380311251" lon="13.838359205815998"><ele>261.0</ele><time>2026-03-22T08:32:33Z</time></trkpt><trkpt lat="42.936985108983855" lon="13.838268132220406"><ele>261.0</ele><time>2026-03-22T08:32:34Z</time></trkpt><trkpt lat="42.9369907731059" lon="13.83817999674773"><ele>261.0</ele><time>2026-03-22T08:32:35Z</time></trkpt><trkpt lat="42.93701654152495" lon="13.838075404686752"><ele>261.0</ele><time>2026-03-22T08:32:36Z</time></trkpt><trkpt lat="42.93704910818743" lon="13.837961507824815"><ele>261.0</ele><time>2026-03-22T08:32:37Z</time></trkpt><trkpt lat="42.937077433535684" lon="13.837836660736592"><ele>261.0</ele><time>2026-03-22T08:32:38Z</time></trkpt><trkpt lat="42.93708259093827" lon="13.837709316985777"><ele>261.0</ele><time>2026-03-22T08:32:39Z</time></trkpt><trkpt lat="42.93708259914635" lon="13.8375972189678"><ele>261.0</ele><time>2026-03-22T08:32:40Z</time></trkpt><trkpt lat="42.93707565398984" lon="13.837494615373005"><ele>261.0</ele><time>2026-03-22T08:32:41Z</time></trkpt><trkpt lat="42.93705809350541" lon="13.837390256339921"><ele>261.0</ele><time>2026-03-22T08:32:42Z</time></trkpt><trkpt lat="42.93703049953759" lon="13.83728662528711"><ele>261.0</ele><time>2026-03-22T08:32:43Z</time></trkpt><trkpt lat="42.93698329226627" lon="13.837164393840089"><ele>261.0</ele><time>2026-03-22T08:32:44Z</time></trkpt><trkpt lat="42.93693421427071" lon="13.83704714687092"><ele>261.0</ele><time>2026-03-22T08:32:45Z</time></trkpt><trkpt lat="42.936872409838465" lon="13.836950467779996"><ele>261.0</ele><time>2026-03-22T08:32:46Z</time></trkpt><trkpt lat="42.93681793043078" lon="13.836845870449594"><ele>260.8</ele><time>2026-03-22T08:32:47Z</time></trkpt><trkpt lat="42.93679569268976" lon="13.836749928497406"><ele>260.6</ele><time>2026-03-22T08:32:48Z</time></trkpt><trkpt lat="42.936765862254724" lon="13.836665140872329"><ele>260.4</ele><time>2026-03-22T08:32:49Z</time></trkpt><trkpt lat="42.93666234027862" lon="13.836559516386663"><ele>260.2</ele><time>2026-03-22T08:32:51Z</time></trkpt><trkpt lat="42.93659008371453" lon="13.836487964204316"><ele>260.0</ele><time>2026-03-22T08:32:52.999Z</time></trkpt><trkpt lat="42.936540551819704" lon="13.836375150663173"><ele>259.33333333333337</ele><time>2026-03-22T08:32:54.999Z</time></trkpt><trkpt lat="42.9365280891189" lon="13.836227965031812"><ele>258.6666666666667</ele><time>2026-03-22T08:32:56.999Z</time></trkpt><trkpt lat="42.93655696631383" lon="13.836143692514971"><ele>258.0</ele><time>2026-03-22T08:32:57.999Z</time></trkpt><trkpt lat="42.9366117072937" lon="13.836069403430841"><ele>257.3333333333333</ele><time>2026-03-22T08:32:58.999Z</time></trkpt><trkpt lat="42.93667347112866" lon="13.835972682736912"><ele>256.66666666666663</ele><time>2026-03-22T08:32:59.999Z</time></trkpt><trkpt lat="42.93673678375279" lon="13.835869944778777"><ele>256.0</ele><time>2026-03-22T08:33:00.999Z</time></trkpt><trkpt lat="42.93678135349396" lon="13.835776194664767"><ele>255.99999999999997</ele><time>2026-03-22T08:33:01.999Z</time></trkpt><trkpt lat="42.936812664976195" lon="13.835668578885107"><ele>256.0</ele><time>2026-03-22T08:33:02.999Z</time></trkpt><trkpt lat="42.936839722163384" lon="13.83556982600246"><ele>256.0</ele><time>2026-03-22T08:33:03.999Z</time></trkpt><trkpt lat="42.936849025410424" lon="13.835469977562928"><ele>256.0</ele><time>2026-03-22T08:33:04.999Z</time></trkpt><trkpt lat="42.93684318991345" lon="13.835355851755361"><ele>255.99999999999997</ele><time>2026-03-22T08:33:05.999Z</time></trkpt><trkpt lat="42.93682215808946" lon="13.8352145474694"><ele>256.0</ele><time>2026-03-22T08:33:06.999Z</time></trkpt><trkpt lat="42.936822513777045" lon="13.835063564823477"><ele>256.75</ele><time>2026-03-22T08:33:07.999Z</time></trkpt><trkpt lat="42.93682607852957" lon="13.834888857835768"><ele>257.5</ele><time>2026-03-22T08:33:08.999Z</time></trkpt><trkpt lat="42.936828264511874" lon="13.834725216499825"><ele>258.25</ele><time>2026-03-22T08:33:09.999Z</time></trkpt><trkpt lat="42.93681927328052" lon="13.8345699298886"><ele>259.0</ele><time>2026-03-22T08:33:10.999Z</time></trkpt><trkpt lat="42.93681641233413" lon="13.83444494591147"><ele>259.0</ele><time>2026-03-22T08:33:11.999Z</time></trkpt><trkpt lat="42.93683524384672" lon="13.834337871719454"><ele>259.0</ele><time>2026-03-22T08:33:12.999Z</time></trkpt><trkpt lat="42.93686003850163" lon="13.834185042335886"><ele>259.0</ele><time>2026-03-22T08:33:13.999Z</time></trkpt><trkpt lat="42.93689455457107" lon="13.834009883160743"><ele>259.0</ele><time>2026-03-22T08:33:14.999Z</time></trkpt><trkpt lat="42.93692677689368" lon="13.833861359261315"><ele>259.0</ele><time>2026-03-22T08:33:15.999Z</time></trkpt><trkpt lat="42.93694634350884" lon="13.833752397460408"><ele>259.8333333333333</ele><time>2026-03-22T08:33:16.999Z</time></trkpt><trkpt lat="42.93696161368294" lon="13.833655739484188"><ele>260.66666666666663</ele><time>2026-03-22T08:33:17.999Z</time></trkpt><trkpt lat="42.93697908640615" lon="13.833530900624165"><ele>261.5</ele><time>2026-03-22T08:33:18.999Z</time></trkpt><trkpt lat="42.93698754177598" lon="13.833405743138838"><ele>262.3333333333333</ele><time>2026-03-22T08:33:19.999Z</time></trkpt><trkpt lat="42.93699819678605" lon="13.8332852619913"><ele>263.1666666666667</ele><time>2026-03-22T08:33:20.999Z</time></trkpt><trkpt lat="42.93700889145544" lon="13.833182635680295"><ele>264.0</ele><time>2026-03-22T08:33:21.999Z</time></trkpt><trkpt lat="42.93704426064462" lon="13.833084245714797"><ele>264.0</ele><time>2026-03-22T08:33:22.999Z</time></trkpt><trkpt lat="42.93709661692028" lon="13.832989966520461"><ele>264.0</ele><time>2026-03-22T08:33:23.999Z</time></trkpt><trkpt lat="42.937162232324695" lon="13.832896902889326"><ele>264.0</ele><time>2026-03-22T08:33:24.999Z</time></trkpt><trkpt lat="42.937227532810496" lon="13.832819789576577"><ele>264.0</ele><time>2026-03-22T08:33:25.999Z</time></trkpt><trkpt lat="42.93729353510622" lon="13.832770965187196"><ele>264.0</ele><time>2026-03-22T08:33:26.999Z</time></trkpt><trkpt lat="42.9373621066417" lon="13.832753034169045"><ele>264.0</ele><time>2026-03-22T08:33:27.999Z</time></trkpt><trkpt lat="42.937488791521965" lon="13.832767857205512"><ele>264.0</ele><time>2026-03-22T08:33:29.999Z</time></trkpt><trkpt lat="42.93755029155157" lon="13.83278817326276"><ele>264.0</ele><time>2026-03-22T08:33:30.999Z</time></trkpt><trkpt lat="42.937642306114" lon="13.832742829174192"><ele>264.0</ele><time>2026-03-22T08:33:32.999Z</time></trkpt><trkpt lat="42.93768257989767" lon="13.832651719728569"><ele>264.0</ele><time>2026-03-22T08:33:33.999Z</time></trkpt><trkpt lat="42.9377375089811" lon="13.83253186710643"><ele>264.0</ele><time>2026-03-22T08:33:34.999Z</time></trkpt><trkpt lat="42.93778508706696" lon="13.832425687937228"><ele>264.0</ele><time>2026-03-22T08:33:35.999Z</time></trkpt><trkpt lat="42.9378350458663" lon="13.832331811634775"><ele>261.8</ele><time>2026-03-22T08:33:36.999Z</time></trkpt><trkpt lat="42.9378868629001" lon="13.832236482569941"><ele>259.59999999999997</ele><time>2026-03-22T08:33:37.999Z</time></trkpt><trkpt lat="42.937941021969436" lon="13.832133109900271"><ele>257.4</ele><time>2026-03-22T08:33:38.999Z</time></trkpt><trkpt lat="42.9379890263283" lon="13.83203472956532"><ele>255.2</ele><time>2026-03-22T08:33:39.999Z</time></trkpt><trkpt lat="42.93805452768721" lon="13.831907007290093"><ele>253.0</ele><time>2026-03-22T08:33:41.999Z</time></trkpt><trkpt lat="42.93810287064268" lon="13.831803549439417"><ele>252.60000000000002</ele><time>2026-03-22T08:33:43.999Z</time></trkpt><trkpt lat="42.93813048200234" lon="13.831712007012719"><ele>252.20000000000002</ele><time>2026-03-22T08:33:44.999Z</time></trkpt><trkpt lat="42.93814831307876" lon="13.831598500525448"><ele>251.8</ele><time>2026-03-22T08:33:45.998Z</time></trkpt><trkpt lat="42.93817698501842" lon="13.831467215908033"><ele>251.4</ele><time>2026-03-22T08:33:46.998Z</time></trkpt><trkpt lat="42.938206767042786" lon="13.831310977349824"><ele>251.0</ele><time>2026-03-22T08:33:47.998Z</time></trkpt><trkpt lat="42.938257248652306" lon="13.831155443170639"><ele>251.0</ele><time>2026-03-22T08:33:48.998Z</time></trkpt><trkpt lat="42.93830790593657" lon="13.83099071950334"><ele>251.0</ele><time>2026-03-22T08:33:49.998Z</time></trkpt><trkpt lat="42.93836443887307" lon="13.830828918113921"><ele>251.0</ele><time>2026-03-22T08:33:50.998Z</time></trkpt><trkpt lat="42.938420114578875" lon="13.830658361899374"><ele>251.0</ele><time>2026-03-22T08:33:51.998Z</time></trkpt><trkpt lat="42.93846340253048" lon="13.830494602130914"><ele>250.60000000000002</ele><time>2026-03-22T08:33:52.998Z</time></trkpt><trkpt lat="42.93849297299467" lon="13.83033997248114"><ele>250.20000000000002</ele><time>2026-03-22T08:33:53.998Z</time></trkpt><trkpt lat="42.9385109467487" lon="13.830199994905177"><ele>249.79999999999998</ele><time>2026-03-22T08:33:54.998Z</time></trkpt><trkpt lat="42.93852426342457" lon="13.83006222816723"><ele>249.39999999999998</ele><time>2026-03-22T08:33:55.998Z</time></trkpt><trkpt lat="42.93852783254705" lon="13.829948488736791"><ele>249.0</ele><time>2026-03-22T08:33:56.998Z</time></trkpt><trkpt lat="42.93854896323669" lon="13.82985719436955"><ele>251.6</ele><time>2026-03-22T08:33:59.998Z</time></trkpt><trkpt lat="42.93866063448178" lon="13.82982617003545"><ele>254.2</ele><time>2026-03-22T08:34:02.998Z</time></trkpt><trkpt lat="42.93881397090692" lon="13.829820764952169"><ele>256.79999999999995</ele><time>2026-03-22T08:34:04.998Z</time></trkpt><trkpt lat="42.938905465055726" lon="13.829794802644342"><ele>259.4</ele><time>2026-03-22T08:34:05.998Z</time></trkpt><trkpt lat="42.93899016591285" lon="13.829762354019538"><ele>262.0</ele><time>2026-03-22T08:34:06.998Z</time></trkpt><trkpt lat="42.93907172656107" lon="13.829725751064005"><ele>262.0</ele><time>2026-03-22T08:34:07.998Z</time></trkpt><trkpt lat="42.93914004965928" lon="13.829689961133672"><ele>262.0</ele><time>2026-03-22T08:34:08.998Z</time></trkpt><trkpt lat="42.939212748186435" lon="13.829671750622264"><ele>262.0</ele><time>2026-03-22T08:34:09.998Z</time></trkpt><trkpt lat="42.93928254787242" lon="13.829672138420667"><ele>262.0</ele><time>2026-03-22T08:34:10.998Z</time></trkpt><trkpt lat="42.93935807373568" lon="13.82967708327683"><ele>262.0</ele><time>2026-03-22T08:34:11.998Z</time></trkpt><trkpt lat="42.93942858271629" lon="13.82969944836587"><ele>262.0</ele><time>2026-03-22T08:34:12.998Z</time></trkpt><trkpt lat="42.93950050267941" lon="13.829728189053142"><ele>262.0</ele><time>2026-03-22T08:34:13.998Z</time></trkpt><trkpt lat="42.93956951138267" lon="13.829763820363675"><ele>258.8</ele><time>2026-03-22T08:34:14.998Z</time></trkpt><trkpt lat="42.93963915687642" lon="13.829798047214029"><ele>255.6</ele><time>2026-03-22T08:34:15.998Z</time></trkpt><trkpt lat="42.93970859984154" lon="13.829839729730471"><ele>252.40000000000003</ele><time>2026-03-22T08:34:16.998Z</time></trkpt><trkpt lat="42.93981082947985" lon="13.829906309862068"><ele>249.20000000000002</ele><time>2026-03-22T08:34:19Z</time></trkpt><trkpt lat="42.939949373774866" lon="13.829960641948817"><ele>246.0</ele><time>2026-03-22T08:34:21Z</time></trkpt><trkpt lat="42.94003613484132" lon="13.829993824490634"><ele>244.5</ele><time>2026-03-22T08:34:22Z</time></trkpt><trkpt lat="42.940113669000624" lon="13.830040456893151"><ele>243.0</ele><time>2026-03-22T08:34:23Z</time></trkpt><trkpt lat="42.94019539823" lon="13.830086803245038"><ele>241.5</ele><time>2026-03-22T08:34:24Z</time></trkpt><trkpt lat="42.940271614205585" lon="13.830126217024203"><ele>240.0</ele><time>2026-03-22T08:34:25Z</time></trkpt><trkpt lat="42.94035501588194" lon="13.830148447908323"><ele>238.5</ele><time>2026-03-22T08:34:26Z</time></trkpt><trkpt lat="42.940451958657974" lon="13.830134786651174"><ele>237.0</ele><time>2026-03-22T08:34:28Z</time></trkpt><trkpt lat="42.94051153478064" lon="13.830054099616987"><ele>237.0</ele><time>2026-03-22T08:34:30Z</time></trkpt><trkpt lat="42.94054476116222" lon="13.829901012772"><ele>237.0</ele><time>2026-03-22T08:34:32Z</time></trkpt><trkpt lat="42.940555276288926" lon="13.829786958866125"><ele>237.0</ele><time>2026-03-22T08:34:33Z</time></trkpt><trkpt lat="42.94056913739107" lon="13.8296459828563"><ele>237.0</ele><time>2026-03-22T08:34:34Z</time></trkpt><trkpt lat="42.94058183803445" lon="13.829538108465133"><ele>237.0</ele><time>2026-03-22T08:34:35Z</time></trkpt><trkpt lat="42.94062814932052" lon="13.829451443464707"><ele>237.0</ele><time>2026-03-22T08:34:37Z</time></trkpt><trkpt lat="42.94068125850926" lon="13.82940381242932"><ele>237.0</ele><time>2026-03-22T08:34:39Z</time></trkpt><trkpt lat="42.94068226725602" lon="13.829256750631354"><ele>237.0</ele><time>2026-03-22T08:34:41Z</time></trkpt><trkpt lat="42.94067135712046" lon="13.829169046359125"><ele>237.0</ele><time>2026-03-22T08:34:42Z</time></trkpt><trkpt lat="42.94067017033643" lon="13.829043652345378"><ele>237.0</ele><time>2026-03-22T08:34:44Z</time></trkpt><trkpt lat="42.94067978701625" lon="13.828952820296829"><ele>237.0</ele><time>2026-03-22T08:34:45Z</time></trkpt><trkpt lat="42.94068027380367" lon="13.828820516356616"><ele>237.33333333333334</ele><time>2026-03-22T08:34:46Z</time></trkpt><trkpt lat="42.94068845204693" lon="13.828700364353779"><ele>237.66666666666669</ele><time>2026-03-22T08:34:47Z</time></trkpt><trkpt lat="42.94070489956913" lon="13.828597789174115"><ele>238.0</ele><time>2026-03-22T08:34:48Z</time></trkpt><trkpt lat="42.94075508263194" lon="13.828497930547217"><ele>238.33333333333334</ele><time>2026-03-22T08:34:49Z</time></trkpt><trkpt lat="42.94080765290805" lon="13.828387335575279"><ele>238.66666666666669</ele><time>2026-03-22T08:34:50Z</time></trkpt><trkpt lat="42.94085015769294" lon="13.828310434326971"><ele>239.0</ele><time>2026-03-22T08:34:51Z</time></trkpt><trkpt lat="42.940883297927066" lon="13.828206924592015"><ele>238.79999999999998</ele><time>2026-03-22T08:34:52Z</time></trkpt><trkpt lat="42.940911386162995" lon="13.82808964931377"><ele>238.59999999999997</ele><time>2026-03-22T08:34:53Z</time></trkpt><trkpt lat="42.940943982747484" lon="13.827946869597724"><ele>238.4</ele><time>2026-03-22T08:34:54Z</time></trkpt><trkpt lat="42.94097458053529" lon="13.827796080512627"><ele>238.2</ele><time>2026-03-22T08:34:55Z</time></trkpt><trkpt lat="42.940994322869166" lon="13.827646316368556"><ele>238.0</ele><time>2026-03-22T08:34:56Z</time></trkpt><trkpt lat="42.94101857870027" lon="13.827501195812411"><ele>238.0</ele><time>2026-03-22T08:34:57Z</time></trkpt><trkpt lat="42.9410811637315" lon="13.827353658982569"><ele>238.0</ele><time>2026-03-22T08:34:57.999Z</time></trkpt><trkpt lat="42.941138200929636" lon="13.827187186949333"><ele>238.0</ele><time>2026-03-22T08:34:58.999Z</time></trkpt><trkpt lat="42.94119836564225" lon="13.82702294341024"><ele>238.0</ele><time>2026-03-22T08:34:59.999Z</time></trkpt><trkpt lat="42.94125575408426" lon="13.826879392014469"><ele>238.8</ele><time>2026-03-22T08:35:00.999Z</time></trkpt><trkpt lat="42.94132384682767" lon="13.826752863350686"><ele>239.60000000000002</ele><time>2026-03-22T08:35:01.999Z</time></trkpt><trkpt lat="42.94139031622747" lon="13.82663938791682"><ele>240.39999999999998</ele><time>2026-03-22T08:35:02.999Z</time></trkpt><trkpt lat="42.94144186169313" lon="13.826538484254982"><ele>241.2</ele><time>2026-03-22T08:35:03.999Z</time></trkpt><trkpt lat="42.94150574452186" lon="13.826454655732853"><ele>242.0</ele><time>2026-03-22T08:35:04.999Z</time></trkpt><trkpt lat="42.94157106762413" lon="13.826362015809899"><ele>242.0</ele><time>2026-03-22T08:35:05.999Z</time></trkpt><trkpt lat="42.941642638200626" lon="13.826266138843167"><ele>242.0</ele><time>2026-03-22T08:35:06.999Z</time></trkpt><trkpt lat="42.94171698059541" lon="13.826150722628459"><ele>242.0</ele><time>2026-03-22T08:35:07.999Z</time></trkpt><trkpt lat="42.94179480410144" lon="13.826040689070684"><ele>242.0</ele><time>2026-03-22T08:35:08.999Z</time></trkpt><trkpt lat="42.94187670151369" lon="13.825945291485693"><ele>242.0</ele><time>2026-03-22T08:35:09.999Z</time></trkpt><trkpt lat="42.941932550610524" lon="13.825825521876647"><ele>239.66666666666669</ele><time>2026-03-22T08:35:10.999Z</time></trkpt><trkpt lat="42.9419803874605" lon="13.825714937455249"><ele>237.33333333333334</ele><time>2026-03-22T08:35:11.999Z</time></trkpt><trkpt lat="42.94201379605137" lon="13.825632141968464"><ele>235.0</ele><time>2026-03-22T08:35:12.999Z</time></trkpt><trkpt lat="42.94204245412457" lon="13.825551402081599"><ele>232.66666666666669</ele><time>2026-03-22T08:35:13.999Z</time></trkpt><trkpt lat="42.942065920720786" lon="13.825443020727734"><ele>230.33333333333334</ele><time>2026-03-22T08:35:14.999Z</time></trkpt><trkpt lat="42.94210728311243" lon="13.825303648072136"><ele>228.0</ele><time>2026-03-22T08:35:15.999Z</time></trkpt><trkpt lat="42.942135042929515" lon="13.82515105189407"><ele>228.0</ele><time>2026-03-22T08:35:16.999Z</time></trkpt><trkpt lat="42.94215468177649" lon="13.824998497644009"><ele>228.0</ele><time>2026-03-22T08:35:17.999Z</time></trkpt><trkpt lat="42.94217228798298" lon="13.824860649284478"><ele>228.0</ele><time>2026-03-22T08:35:18.999Z</time></trkpt><trkpt lat="42.94219250735047" lon="13.824711633317932"><ele>228.0</ele><time>2026-03-22T08:35:19.999Z</time></trkpt><trkpt lat="42.9421980204424" lon="13.82456305134238"><ele>228.0</ele><time>2026-03-22T08:35:20.999Z</time></trkpt><trkpt lat="42.94222975965511" lon="13.82442594369067"><ele>228.25</ele><time>2026-03-22T08:35:21.999Z</time></trkpt><trkpt lat="42.94228915247344" lon="13.824309614869158"><ele>228.5</ele><time>2026-03-22T08:35:22.999Z</time></trkpt><trkpt lat="42.9423581521882" lon="13.824224322671489"><ele>228.75</ele><time>2026-03-22T08:35:23.999Z</time></trkpt><trkpt lat="42.94245070575637" lon="13.824139831518336"><ele>229.0</ele><time>2026-03-22T08:35:24.999Z</time></trkpt><trkpt lat="42.942576263794386" lon="13.82404990528857"><ele>229.0</ele><time>2026-03-22T08:35:25.999Z</time></trkpt><trkpt lat="42.942714088234" lon="13.82399068495337"><ele>229.0</ele><time>2026-03-22T08:35:26.999Z</time></trkpt><trkpt lat="42.942848623195445" lon="13.823976100767107"><ele>229.0</ele><time>2026-03-22T08:35:27.999Z</time></trkpt><trkpt lat="42.94297140123305" lon="13.823931030228882"><ele>229.0</ele><time>2026-03-22T08:35:28.999Z</time></trkpt><trkpt lat="42.94309035575449" lon="13.823923189652618"><ele>229.0</ele><time>2026-03-22T08:35:29.999Z</time></trkpt><trkpt lat="42.94318862085479" lon="13.823919932630059"><ele>228.99999999999997</ele><time>2026-03-22T08:35:30.999Z</time></trkpt><trkpt lat="42.943286944698336" lon="13.823933703475555"><ele>228.99999999999997</ele><time>2026-03-22T08:35:31.999Z</time></trkpt><trkpt lat="42.94340168699944" lon="13.823970068808102"><ele>229.0</ele><time>2026-03-22T08:35:32.999Z</time></trkpt><trkpt lat="42.94352561114516" lon="13.823991473967574"><ele>229.0</ele><time>2026-03-22T08:35:33.999Z</time></trkpt><trkpt lat="42.94364279372303" lon="13.824011602960077"><ele>230.5</ele><time>2026-03-22T08:35:34.999Z</time></trkpt><trkpt lat="42.94376139935761" lon="13.823988503120015"><ele>232.0</ele><time>2026-03-22T08:35:35.999Z</time></trkpt><trkpt lat="42.94390434302973" lon="13.823941833564772"><ele>233.5</ele><time>2026-03-22T08:35:36.999Z</time></trkpt><trkpt lat="42.94401782005219" lon="13.823916094263383"><ele>235.0</ele><time>2026-03-22T08:35:37.999Z</time></trkpt><trkpt lat="42.94409359781015" lon="13.8239072787242"><ele>235.0</ele><time>2026-03-22T08:35:38.999Z</time></trkpt><trkpt lat="42.94416610636139" lon="13.823904061976052"><ele>235.0</ele><time>2026-03-22T08:35:39.999Z</time></trkpt><trkpt lat="42.94426024815733" lon="13.823901449807892"><ele>235.0</ele><time>2026-03-22T08:35:40.999Z</time></trkpt><trkpt lat="42.944375466306425" lon="13.823920087275866"><ele>235.0</ele><time>2026-03-22T08:35:41.999Z</time></trkpt><trkpt lat="42.94452386714596" lon="13.823965347410825"><ele>235.0</ele><time>2026-03-22T08:35:42.999Z</time></trkpt><trkpt lat="42.94467944146455" lon="13.824012680089263"><ele>238.75</ele><time>2026-03-22T08:35:43.999Z</time></trkpt><trkpt lat="42.9448351048623" lon="13.824059699098399"><ele>242.5</ele><time>2026-03-22T08:35:44.999Z</time></trkpt><trkpt lat="42.94497681163664" lon="13.824118350355114"><ele>246.25</ele><time>2026-03-22T08:35:45.999Z</time></trkpt><trkpt lat="42.945082769549366" lon="13.824198231437945"><ele>250.0</ele><time>2026-03-22T08:35:46.999Z</time></trkpt><trkpt lat="42.945155866597574" lon="13.82428029513905"><ele>252.99999999999997</ele><time>2026-03-22T08:35:47.999Z</time></trkpt><trkpt lat="42.945212738397736" lon="13.824349577904307"><ele>256.0</ele><time>2026-03-22T08:35:48.999Z</time></trkpt><trkpt lat="42.9452768815237" lon="13.824456120534409"><ele>259.0</ele><time>2026-03-22T08:35:50.998Z</time></trkpt><trkpt lat="42.94529389919743" lon="13.824541923213495"><ele>262.0</ele><time>2026-03-22T08:35:51.998Z</time></trkpt><trkpt lat="42.9453297857187" lon="13.82462279568696"><ele>265.0</ele><time>2026-03-22T08:35:52.998Z</time></trkpt><trkpt lat="42.94539094388209" lon="13.82473514663074"><ele>268.0</ele><time>2026-03-22T08:35:53.998Z</time></trkpt><trkpt lat="42.945446923637206" lon="13.824888774335772"><ele>268.0</ele><time>2026-03-22T08:35:54.998Z</time></trkpt><trkpt lat="42.945545301603936" lon="13.825066551032895"><ele>268.0</ele><time>2026-03-22T08:35:55.998Z</time></trkpt><trkpt lat="42.945627259246734" lon="13.825281300893963"><ele>268.0</ele><time>2026-03-22T08:35:56.998Z</time></trkpt><trkpt lat="42.94568422120611" lon="13.825462075656462"><ele>264.0</ele><time>2026-03-22T08:35:57.998Z</time></trkpt><trkpt lat="42.94572084097146" lon="13.825663671885593"><ele>260.0</ele><time>2026-03-22T08:35:58.998Z</time></trkpt><trkpt lat="42.945766223019966" lon="13.825873394211506"><ele>256.0</ele><time>2026-03-22T08:35:59.998Z</time></trkpt><trkpt lat="42.94581874664635" lon="13.82608036458858"><ele>254.5</ele><time>2026-03-22T08:36:00.998Z</time></trkpt><trkpt lat="42.94588969523953" lon="13.826260713074278"><ele>253.0</ele><time>2026-03-22T08:36:01.998Z</time></trkpt><trkpt lat="42.94595693743318" lon="13.82642034276889"><ele>251.5</ele><time>2026-03-22T08:36:02.998Z</time></trkpt><trkpt lat="42.94602257719249" lon="13.826562306666585"><ele>250.0</ele><time>2026-03-22T08:36:03.998Z</time></trkpt><trkpt lat="42.94608091048076" lon="13.826664650741746"><ele>250.0</ele><time>2026-03-22T08:36:04.998Z</time></trkpt><trkpt lat="42.94614626115253" lon="13.826757751866468"><ele>250.0</ele><time>2026-03-22T08:36:05.998Z</time></trkpt><trkpt lat="42.94622307635313" lon="13.82683231320932"><ele>250.0</ele><time>2026-03-22T08:36:06.998Z</time></trkpt><trkpt lat="42.946313913854816" lon="13.826924163825373"><ele>250.0</ele><time>2026-03-22T08:36:07.998Z</time></trkpt><trkpt lat="42.946415317791676" lon="13.826993373082194"><ele>250.0</ele><time>2026-03-22T08:36:08.998Z</time></trkpt><trkpt lat="42.94649514913949" lon="13.827067292401715"><ele>248.83333333333331</ele><time>2026-03-22T08:36:09.998Z</time></trkpt><trkpt lat="42.946567162345836" lon="13.827100761341033"><ele>247.66666666666666</ele><time>2026-03-22T08:36:11.998Z</time></trkpt><trkpt lat="42.94661879680931" lon="13.827188435426569"><ele>246.5</ele><time>2026-03-22T08:36:13.998Z</time></trkpt><trkpt lat="42.946588193513236" lon="13.827277230776172"><ele>245.33333333333331</ele><time>2026-03-22T08:36:14.998Z</time></trkpt><trkpt lat="42.94660480988772" lon="13.82737101762972"><ele>244.16666666666666</ele><time>2026-03-22T08:36:15.998Z</time></trkpt><trkpt lat="42.94662958254813" lon="13.827503310543797"><ele>243.0</ele><time>2026-03-22T08:36:16.998Z</time></trkpt><trkpt lat="42.946657152844764" lon="13.827650542297716"><ele>241.60000000000002</ele><time>2026-03-22T08:36:17.998Z</time></trkpt><trkpt lat="42.94668461260582" lon="13.827800633266033"><ele>240.20000000000002</ele><time>2026-03-22T08:36:18.998Z</time></trkpt><trkpt lat="42.94672445853239" lon="13.827929821766023"><ele>238.8</ele><time>2026-03-22T08:36:19.998Z</time></trkpt><trkpt lat="42.946731109944885" lon="13.828053220084547"><ele>237.4</ele><time>2026-03-22T08:36:20.998Z</time></trkpt><trkpt lat="42.94674929951235" lon="13.828141794211128"><ele>236.0</ele><time>2026-03-22T08:36:21.998Z</time></trkpt><trkpt lat="42.94678877549259" lon="13.828270727597081"><ele>234.8</ele><time>2026-03-22T08:36:24Z</time></trkpt><trkpt lat="42.94682711300975" lon="13.828353769401337"><ele>233.60000000000002</ele><time>2026-03-22T08:36:27Z</time></trkpt><trkpt lat="42.94691763088805" lon="13.82821880921269"><ele>232.4</ele><time>2026-03-22T08:36:29Z</time></trkpt><trkpt lat="42.946930976672434" lon="13.82809854960744"><ele>231.2</ele><time>2026-03-22T08:36:30Z</time></trkpt><trkpt lat="42.94695665658809" lon="13.82797066839516"><ele>230.0</ele><time>2026-03-22T08:36:31Z</time></trkpt><trkpt lat="42.94698968303436" lon="13.827826340090729"><ele>230.0</ele><time>2026-03-22T08:36:32Z</time></trkpt><trkpt lat="42.9470214900153" lon="13.82765242252727"><ele>230.0</ele><time>2026-03-22T08:36:33Z</time></trkpt><trkpt lat="42.94707037163097" lon="13.827451388858206"><ele>230.0</ele><time>2026-03-22T08:36:34Z</time></trkpt><trkpt lat="42.94711588623563" lon="13.827268091601027"><ele>230.0</ele><time>2026-03-22T08:36:35Z</time></trkpt><trkpt lat="42.94715702085714" lon="13.827107724108334"><ele>231.0</ele><time>2026-03-22T08:36:36Z</time></trkpt><trkpt lat="42.94718510999016" lon="13.826978034447608"><ele>232.0</ele><time>2026-03-22T08:36:37Z</time></trkpt><trkpt lat="42.94722631298326" lon="13.82686697762989"><ele>233.0</ele><time>2026-03-22T08:36:38Z</time></trkpt><trkpt lat="42.94726987929052" lon="13.82678581952612"><ele>234.0</ele><time>2026-03-22T08:36:39Z</time></trkpt><trkpt lat="42.94733890571472" lon="13.826702501400677"><ele>235.0</ele><time>2026-03-22T08:36:40Z</time></trkpt><trkpt lat="42.94742315462972" lon="13.82660483135695"><ele>235.66666666666666</ele><time>2026-03-22T08:36:41Z</time></trkpt><trkpt lat="42.94752060298076" lon="13.826526890643919"><ele>236.33333333333331</ele><time>2026-03-22T08:36:42Z</time></trkpt><trkpt lat="42.94759032465176" lon="13.826470775375883"><ele>237.0</ele><time>2026-03-22T08:36:43Z</time></trkpt><trkpt lat="42.94765910811988" lon="13.826429565552015"><ele>237.66666666666669</ele><time>2026-03-22T08:36:44Z</time></trkpt><trkpt lat="42.94772045710221" lon="13.826379360988536"><ele>238.33333333333334</ele><time>2026-03-22T08:36:45Z</time></trkpt><trkpt lat="42.94778035909657" lon="13.826328290985462"><ele>239.0</ele><time>2026-03-22T08:36:46Z</time></trkpt><trkpt lat="42.947839421688734" lon="13.826267384218744"><ele>236.16666666666669</ele><time>2026-03-22T08:36:47Z</time></trkpt><trkpt lat="42.94789304797122" lon="13.826199959939707"><ele>233.33333333333334</ele><time>2026-03-22T08:36:48Z</time></trkpt><trkpt lat="42.94795185130323" lon="13.82613167622614"><ele>230.5</ele><time>2026-03-22T08:36:49Z</time></trkpt><trkpt lat="42.948010539481274" lon="13.826051654827147"><ele>227.66666666666669</ele><time>2026-03-22T08:36:50Z</time></trkpt><trkpt lat="42.94806963988334" lon="13.82595397895038"><ele>224.83333333333334</ele><time>2026-03-22T08:36:51Z</time></trkpt><trkpt lat="42.94812513220921" lon="13.825846965890983"><ele>222.0</ele><time>2026-03-22T08:36:52Z</time></trkpt><trkpt lat="42.948185895669006" lon="13.825726762711554"><ele>222.0</ele><time>2026-03-22T08:36:53Z</time></trkpt><trkpt lat="42.94824578681689" lon="13.825599228129718"><ele>222.0</ele><time>2026-03-22T08:36:54Z</time></trkpt><trkpt lat="42.94830255090824" lon="13.82545803140953"><ele>222.0</ele><time>2026-03-22T08:36:55Z</time></trkpt><trkpt lat="42.94834428672622" lon="13.825293717247854"><ele>222.0</ele><time>2026-03-22T08:36:56Z</time></trkpt><trkpt lat="42.94838279207341" lon="13.825147126042891"><ele>218.0</ele><time>2026-03-22T08:36:57Z</time></trkpt><trkpt lat="42.948426541825" lon="13.82500444849969"><ele>214.0</ele><time>2026-03-22T08:36:58Z</time></trkpt><trkpt lat="42.948458236068866" lon="13.824858653770256"><ele>210.0</ele><time>2026-03-22T08:36:59Z</time></trkpt><trkpt lat="42.948476622810176" lon="13.82470768910906"><ele>206.0</ele><time>2026-03-22T08:37:00Z</time></trkpt><trkpt lat="42.9484869427356" lon="13.824575570382738"><ele>202.0</ele><time>2026-03-22T08:37:01Z</time></trkpt><trkpt lat="42.94850729168349" lon="13.824456269379692"><ele>202.0</ele><time>2026-03-22T08:37:01.999Z</time></trkpt><trkpt lat="42.94852075507797" lon="13.824341394584247"><ele>202.0</ele><time>2026-03-22T08:37:02.999Z</time></trkpt><trkpt lat="42.94851851847044" lon="13.824210823093004"><ele>202.0</ele><time>2026-03-22T08:37:03.999Z</time></trkpt><trkpt lat="42.94852233744356" lon="13.824062403335143"><ele>202.0</ele><time>2026-03-22T08:37:04.999Z</time></trkpt><trkpt lat="42.948510409432934" lon="13.823888150063672"><ele>202.0</ele><time>2026-03-22T08:37:05.999Z</time></trkpt><trkpt lat="42.948491124674966" lon="13.823726164909086"><ele>203.33333333333331</ele><time>2026-03-22T08:37:06.999Z</time></trkpt><trkpt lat="42.94845419975375" lon="13.823581377567542"><ele>204.66666666666666</ele><time>2026-03-22T08:37:07.999Z</time></trkpt><trkpt lat="42.94842316617198" lon="13.823466623782895"><ele>206.0</ele><time>2026-03-22T08:37:08.999Z</time></trkpt><trkpt lat="42.948407857966195" lon="13.823363661044002"><ele>207.33333333333331</ele><time>2026-03-22T08:37:09.999Z</time></trkpt><trkpt lat="42.948406502821065" lon="13.823254662416296"><ele>208.66666666666666</ele><time>2026-03-22T08:37:10.999Z</time></trkpt><trkpt lat="42.94844006289161" lon="13.823150755802436"><ele>210.0</ele><time>2026-03-22T08:37:11.999Z</time></trkpt><trkpt lat="42.94850541816549" lon="13.82301895157857"><ele>211.25</ele><time>2026-03-22T08:37:12.999Z</time></trkpt><trkpt lat="42.94855835872751" lon="13.822916963660898"><ele>212.5</ele><time>2026-03-22T08:37:13.999Z</time></trkpt><trkpt lat="42.94862949163629" lon="13.82284317830379"><ele>213.75</ele><time>2026-03-22T08:37:15.999Z</time></trkpt><trkpt lat="42.948801616037514" lon="13.822823584033788"><ele>215.0</ele><time>2026-03-22T08:37:17.999Z</time></trkpt><trkpt lat="42.94893073200039" lon="13.822764670491647"><ele>215.0</ele><time>2026-03-22T08:37:18.999Z</time></trkpt><trkpt lat="42.94906702651657" lon="13.822688970722528"><ele>215.0</ele><time>2026-03-22T08:37:19.999Z</time></trkpt><trkpt lat="42.9492119707788" lon="13.822618152323795"><ele>215.0</ele><time>2026-03-22T08:37:20.999Z</time></trkpt><trkpt lat="42.949339623819014" lon="13.822583700589224"><ele>215.0</ele><time>2026-03-22T08:37:21.999Z</time></trkpt><trkpt lat="42.949462448455655" lon="13.822622082162933"><ele>214.5</ele><time>2026-03-22T08:37:22.999Z</time></trkpt><trkpt lat="42.94955446391394" lon="13.822695044105144"><ele>214.0</ele><time>2026-03-22T08:37:23.999Z</time></trkpt><trkpt lat="42.949639198135124" lon="13.822790603018998"><ele>213.5</ele><time>2026-03-22T08:37:24.999Z</time></trkpt><trkpt lat="42.94973971815452" lon="13.822898920031982"><ele>213.0</ele><time>2026-03-22T08:37:25.999Z</time></trkpt><trkpt lat="42.94986079598937" lon="13.822988053738404"><ele>213.0</ele><time>2026-03-22T08:37:26.999Z</time></trkpt><trkpt lat="42.94996461989439" lon="13.823069067020214"><ele>213.0</ele><time>2026-03-22T08:37:27.999Z</time></trkpt><trkpt lat="42.9500889850188" lon="13.823114620982704"><ele>213.0</ele><time>2026-03-22T08:37:28.999Z</time></trkpt><trkpt lat="42.9502323473124" lon="13.823150635583046"><ele>213.0</ele><time>2026-03-22T08:37:29.999Z</time></trkpt><trkpt lat="42.950364413021816" lon="13.823177183483752"><ele>211.5</ele><time>2026-03-22T08:37:30.999Z</time></trkpt><trkpt lat="42.95048244612472" lon="13.823218440067558"><ele>210.0</ele><time>2026-03-22T08:37:31.999Z</time></trkpt><trkpt lat="42.95061044048274" lon="13.823273067189591"><ele>208.5</ele><time>2026-03-22T08:37:32.999Z</time></trkpt><trkpt lat="42.950747071552556" lon="13.823331054821345"><ele>207.0</ele><time>2026-03-22T08:37:33.999Z</time></trkpt><trkpt lat="42.95087649947875" lon="13.8234019262596"><ele>203.25</ele><time>2026-03-22T08:37:34.999Z</time></trkpt><trkpt lat="42.95099227085733" lon="13.823478288840347"><ele>199.5</ele><time>2026-03-22T08:37:35.999Z</time></trkpt><trkpt lat="42.951094546718" lon="13.823561614065639"><ele>195.75</ele><time>2026-03-22T08:37:36.999Z</time></trkpt><trkpt lat="42.95117603021509" lon="13.823656488992366"><ele>192.0</ele><time>2026-03-22T08:37:37.999Z</time></trkpt><trkpt lat="42.951229216313266" lon="13.823800600029456"><ele>192.0</ele><time>2026-03-22T08:37:38.999Z</time></trkpt><trkpt lat="42.95127292696608" lon="13.823977279976512"><ele>192.0</ele><time>2026-03-22T08:37:39.999Z</time></trkpt><trkpt lat="42.9513391183767" lon="13.824166533641968"><ele>192.0</ele><time>2026-03-22T08:37:40.999Z</time></trkpt><trkpt lat="42.95138146047676" lon="13.8243616573643"><ele>192.0</ele><time>2026-03-22T08:37:41.999Z</time></trkpt><trkpt lat="42.951424837569654" lon="13.824540290472871"><ele>191.75</ele><time>2026-03-22T08:37:42.999Z</time></trkpt><trkpt lat="42.951467126734144" lon="13.824694412516713"><ele>191.5</ele><time>2026-03-22T08:37:43.999Z</time></trkpt><trkpt lat="42.951521182271165" lon="13.824841973661993"><ele>191.25</ele><time>2026-03-22T08:37:44.999Z</time></trkpt><trkpt lat="42.95157420238075" lon="13.824972833305551"><ele>191.0</ele><time>2026-03-22T08:37:45.999Z</time></trkpt><trkpt lat="42.95164646124591" lon="13.825107861040987"><ele>185.33333333333331</ele><time>2026-03-22T08:37:46.999Z</time></trkpt><trkpt lat="42.95174678898862" lon="13.825266560599943"><ele>179.66666666666666</ele><time>2026-03-22T08:37:47.999Z</time></trkpt><trkpt lat="42.9518627801507" lon="13.82543678363811"><ele>174.0</ele><time>2026-03-22T08:37:48.999Z</time></trkpt><trkpt lat="42.95197970684471" lon="13.825589537001996"><ele>174.0</ele><time>2026-03-22T08:37:49.999Z</time></trkpt><trkpt lat="42.952090262953114" lon="13.82571999687415"><ele>174.0</ele><time>2026-03-22T08:37:50.999Z</time></trkpt><trkpt lat="42.95221098302801" lon="13.825827729903693"><ele>174.0</ele><time>2026-03-22T08:37:51.999Z</time></trkpt><trkpt lat="42.95233161007457" lon="13.82592586912329"><ele>174.0</ele><time>2026-03-22T08:37:52.999Z</time></trkpt><trkpt lat="42.95244979153533" lon="13.82602531018607"><ele>170.75</ele><time>2026-03-22T08:37:53.999Z</time></trkpt><trkpt lat="42.95256630792648" lon="13.82612858650421"><ele>167.5</ele><time>2026-03-22T08:37:54.999Z</time></trkpt><trkpt lat="42.952675715041835" lon="13.826225775511121"><ele>164.25</ele><time>2026-03-22T08:37:55.998Z</time></trkpt><trkpt lat="42.9527885605825" lon="13.826321874397927"><ele>161.0</ele><time>2026-03-22T08:37:56.998Z</time></trkpt><trkpt lat="42.95289801980233" lon="13.826411716670671"><ele>161.0</ele><time>2026-03-22T08:37:57.998Z</time></trkpt><trkpt lat="42.95299129686096" lon="13.826500015352787"><ele>161.0</ele><time>2026-03-22T08:37:58.998Z</time></trkpt><trkpt lat="42.953079888384465" lon="13.826591952239777"><ele>161.0</ele><time>2026-03-22T08:37:59.998Z</time></trkpt><trkpt lat="42.95316265971552" lon="13.826681824981451"><ele>161.0</ele><time>2026-03-22T08:38:00.998Z</time></trkpt><trkpt lat="42.95322553904282" lon="13.826757266212034"><ele>161.0</ele><time>2026-03-22T08:38:01.998Z</time></trkpt><trkpt lat="42.953275543955336" lon="13.826824362043402"><ele>159.75</ele><time>2026-03-22T08:38:02.998Z</time></trkpt><trkpt lat="42.95332586457742" lon="13.826911645940534"><ele>158.5</ele><time>2026-03-22T08:38:04.998Z</time></trkpt><trkpt lat="42.953561748993984" lon="13.826756219946613"><ele>157.25</ele><time>2026-03-22T08:38:08.998Z</time></trkpt><trkpt lat="42.95362825751349" lon="13.826706830265755"><ele>156.0</ele><time>2026-03-22T08:38:09.998Z</time></trkpt><trkpt lat="42.9537057421284" lon="13.826659161469237"><ele>154.5</ele><time>2026-03-22T08:38:10.998Z</time></trkpt><trkpt lat="42.95379010909705" lon="13.826609395915547"><ele>153.0</ele><time>2026-03-22T08:38:11.998Z</time></trkpt><trkpt lat="42.953865396822984" lon="13.826563034026641"><ele>151.5</ele><time>2026-03-22T08:38:12.998Z</time></trkpt><trkpt lat="42.953946179586275" lon="13.82650985549308"><ele>150.0</ele><time>2026-03-22T08:38:13.998Z</time></trkpt><trkpt lat="42.954020766152325" lon="13.826465655166965"><ele>148.5</ele><time>2026-03-22T08:38:14.998Z</time></trkpt><trkpt lat="42.954094355467845" lon="13.826422403593012"><ele>147.0</ele><time>2026-03-22T08:38:15.998Z</time></trkpt><trkpt lat="42.95416624664954" lon="13.826382593479345"><ele>144.16666666666666</ele><time>2026-03-22T08:38:16.998Z</time></trkpt><trkpt lat="42.954231832364904" lon="13.82634231055328"><ele>141.33333333333334</ele><time>2026-03-22T08:38:17.998Z</time></trkpt><trkpt lat="42.954296241916445" lon="13.826315125776569"><ele>138.5</ele><time>2026-03-22T08:38:18.998Z</time></trkpt><trkpt lat="42.95441320842963" lon="13.826292052012768"><ele>135.66666666666669</ele><time>2026-03-22T08:38:20.998Z</time></trkpt><trkpt lat="42.954496523978364" lon="13.82627632759005"><ele>132.83333333333334</ele><time>2026-03-22T08:38:22.998Z</time></trkpt><trkpt lat="42.95456680674353" lon="13.826246356991"><ele>130.0</ele><time>2026-03-22T08:38:24.998Z</time></trkpt><trkpt lat="42.95464480420703" lon="13.826219688496943"><ele>130.0</ele><time>2026-03-22T08:38:26.998Z</time></trkpt><trkpt lat="42.9547230578198" lon="13.826223058581697"><ele>130.0</ele><time>2026-03-22T08:38:28.998Z</time></trkpt><trkpt lat="42.954823685674114" lon="13.826252487552413"><ele>130.0</ele><time>2026-03-22T08:38:31Z</time></trkpt><trkpt lat="42.95492007250176" lon="13.82631407433747"><ele>130.0</ele><time>2026-03-22T08:38:33Z</time></trkpt><trkpt lat="42.955010520667166" lon="13.826421511266549"><ele>130.0</ele><time>2026-03-22T08:38:35Z</time></trkpt><trkpt lat="42.95510707390037" lon="13.826527519037375"><ele>127.00000000000001</ele><time>2026-03-22T08:38:37Z</time></trkpt><trkpt lat="42.95519701095679" lon="13.826624025618699"><ele>124.0</ele><time>2026-03-22T08:38:39Z</time></trkpt><trkpt lat="42.95525753418398" lon="13.826712539783669"><ele>121.0</ele><time>2026-03-22T08:38:41Z</time></trkpt><trkpt lat="42.95532218315519" lon="13.826732841441768"><ele>118.0</ele><time>2026-03-22T08:38:43Z</time></trkpt><trkpt lat="42.95539208602126" lon="13.8267001563486"><ele>115.00000000000001</ele><time>2026-03-22T08:38:45Z</time></trkpt><trkpt lat="42.95546539384591" lon="13.826669452470966"><ele>112.0</ele><time>2026-03-22T08:38:48Z</time></trkpt><trkpt lat="42.95552110107367" lon="13.826620442221582"><ele>112.00000000000001</ele><time>2026-03-22T08:38:51Z</time></trkpt><trkpt lat="42.95557201693932" lon="13.8265633550907"><ele>112.0</ele><time>2026-03-22T08:38:54Z</time></trkpt><trkpt lat="42.955655079019905" lon="13.82661444249338"><ele>112.0</ele><time>2026-03-22T08:38:57Z</time></trkpt><trkpt lat="42.95571506919228" lon="13.826697476219445"><ele>112.0</ele><time>2026-03-22T08:38:59Z</time></trkpt><trkpt lat="42.95577001065651" lon="13.826752020900607"><ele>112.00000000000001</ele><time>2026-03-22T08:39:01Z</time></trkpt><trkpt lat="42.9558727399918" lon="13.826823686166488"><ele>112.0</ele><time>2026-03-22T08:39:03Z</time></trkpt><trkpt lat="42.95598945792516" lon="13.826840044327433"><ele>109.0</ele><time>2026-03-22T08:39:05Z</time></trkpt><trkpt lat="42.956054580944716" lon="13.826839987896992"><ele>106.0</ele><time>2026-03-22T08:39:06Z</time></trkpt><trkpt lat="42.95612485870807" lon="13.826835824274358"><ele>103.0</ele><time>2026-03-22T08:39:07Z</time></trkpt><trkpt lat="42.95618839271469" lon="13.82683312728342"><ele>100.0</ele><time>2026-03-22T08:39:08Z</time></trkpt><trkpt lat="42.95625756375827" lon="13.826823654982464"><ele>97.0</ele><time>2026-03-22T08:39:09Z</time></trkpt><trkpt lat="42.95632394777442" lon="13.82680526435612"><ele>94.0</ele><time>2026-03-22T08:39:10Z</time></trkpt><trkpt lat="42.956398682940964" lon="13.82678916447242"><ele>91.0</ele><time>2026-03-22T08:39:11Z</time></trkpt><trkpt lat="42.95646310928302" lon="13.826764338330324"><ele>90.83333333333333</ele><time>2026-03-22T08:39:11.999Z</time></trkpt><trkpt lat="42.956528165952" lon="13.826741772643349"><ele>90.66666666666666</ele><time>2026-03-22T08:39:12.999Z</time></trkpt><trkpt lat="42.95665400075487" lon="13.826706973232616"><ele>90.5</ele><time>2026-03-22T08:39:14.999Z</time></trkpt><trkpt lat="42.9567187615617" lon="13.826676667648561"><ele>90.33333333333333</ele><time>2026-03-22T08:39:15.999Z</time></trkpt><trkpt lat="42.95678277452863" lon="13.82664674185811"><ele>90.16666666666667</ele><time>2026-03-22T08:39:16.999Z</time></trkpt><trkpt lat="42.95684496510466" lon="13.826626574883047"><ele>90.0</ele><time>2026-03-22T08:39:17.999Z</time></trkpt><trkpt lat="42.95694711237694" lon="13.826597817812488"><ele>88.2</ele><time>2026-03-22T08:39:19.999Z</time></trkpt><trkpt lat="42.95704809325285" lon="13.826574092566618"><ele>86.4</ele><time>2026-03-22T08:39:21.999Z</time></trkpt><trkpt lat="42.95715220199043" lon="13.826545769957223"><ele>84.6</ele><time>2026-03-22T08:39:23.999Z</time></trkpt><trkpt lat="42.95726017961734" lon="13.826529314542332"><ele>82.8</ele><time>2026-03-22T08:39:25.999Z</time></trkpt><trkpt lat="42.95733544769428" lon="13.82654703379334"><ele>81.0</ele><time>2026-03-22T08:39:27.999Z</time></trkpt><trkpt lat="42.95736532144957" lon="13.826634379363183"><ele>81.0</ele><time>2026-03-22T08:39:29.999Z</time></trkpt><trkpt lat="42.957372160540494" lon="13.826772589934343"><ele>81.0</ele><time>2026-03-22T08:39:31.999Z</time></trkpt><trkpt lat="42.957376582643874" lon="13.826860101715317"><ele>81.0</ele><time>2026-03-22T08:39:32.999Z</time></trkpt><trkpt lat="42.957386755663116" lon="13.82696351206938"><ele>81.0</ele><time>2026-03-22T08:39:34.999Z</time></trkpt><trkpt lat="42.95740706540596" lon="13.827046287571939"><ele>81.0</ele><time>2026-03-22T08:39:36.999Z</time></trkpt><trkpt lat="42.95743087892594" lon="13.827127229957918"><ele>81.0</ele><time>2026-03-22T08:40:05.998Z</time></trkpt><trkpt lat="42.95745150439528" lon="13.827215471718517"><ele>81.0</ele><time>2026-03-22T08:40:10.998Z</time></trkpt><trkpt lat="42.95751468075974" lon="13.827311188419614"><ele>82.66666666666667</ele><time>2026-03-22T08:40:15.998Z</time></trkpt><trkpt lat="42.95760156131593" lon="13.827283121239569"><ele>84.33333333333333</ele><time>2026-03-22T08:40:18.998Z</time></trkpt><trkpt lat="42.95768439910483" lon="13.82726937098228"><ele>86.0</ele><time>2026-03-22T08:40:21.998Z</time></trkpt><trkpt lat="42.95774890779105" lon="13.827284782132757"><ele>87.66666666666666</ele><time>2026-03-22T08:40:22.998Z</time></trkpt><trkpt lat="42.95783377768381" lon="13.82733058483546"><ele>89.33333333333333</ele><time>2026-03-22T08:40:24.998Z</time></trkpt><trkpt lat="42.95787932671306" lon="13.827439653911009"><ele>91.0</ele><time>2026-03-22T08:40:32.998Z</time></trkpt><trkpt lat="42.95785553009395" lon="13.827558335510238"><ele>89.6</ele><time>2026-03-22T08:40:33.998Z</time></trkpt><trkpt lat="42.95783016835981" lon="13.827671645775702"><ele>88.19999999999999</ele><time>2026-03-22T08:40:34.998Z</time></trkpt><trkpt lat="42.95781267801603" lon="13.82780792726344"><ele>86.80000000000001</ele><time>2026-03-22T08:40:36Z</time></trkpt><trkpt lat="42.957800558520866" lon="13.827945541045192"><ele>85.4</ele><time>2026-03-22T08:40:37Z</time></trkpt><trkpt lat="42.95779828561742" lon="13.828098457969025"><ele>84.0</ele><time>2026-03-22T08:40:38Z</time></trkpt><trkpt lat="42.95780819193826" lon="13.828253219325969"><ele>84.0</ele><time>2026-03-22T08:40:39Z</time></trkpt><trkpt lat="42.95783961079682" lon="13.828403795378067"><ele>84.0</ele><time>2026-03-22T08:40:40Z</time></trkpt><trkpt lat="42.95787952693224" lon="13.828558950351304"><ele>84.0</ele><time>2026-03-22T08:40:41Z</time></trkpt><trkpt lat="42.95793270466568" lon="13.828719116383702"><ele>84.0</ele><time>2026-03-22T08:40:42Z</time></trkpt><trkpt lat="42.95799169061264" lon="13.828897228436933"><ele>84.0</ele><time>2026-03-22T08:40:43Z</time></trkpt><trkpt lat="42.958055863861695" lon="13.829092233045914"><ele>84.0</ele><time>2026-03-22T08:40:44Z</time></trkpt><trkpt lat="42.9580950394882" lon="13.829302296317337"><ele>84.0</ele><time>2026-03-22T08:40:45Z</time></trkpt><trkpt lat="42.958112894019926" lon="13.829523091871392"><ele>84.0</ele><time>2026-03-22T08:40:46Z</time></trkpt><trkpt lat="42.95810850124643" lon="13.829748745318254"><ele>84.0</ele><time>2026-03-22T08:40:47Z</time></trkpt><trkpt lat="42.95808533237545" lon="13.829986717168676"><ele>84.0</ele><time>2026-03-22T08:40:48Z</time></trkpt><trkpt lat="42.95806075524584" lon="13.830210692950914"><ele>82.33333333333333</ele><time>2026-03-22T08:40:49Z</time></trkpt><trkpt lat="42.958055553792065" lon="13.83042615009238"><ele>80.66666666666666</ele><time>2026-03-22T08:40:50Z</time></trkpt><trkpt lat="42.95807129397166" lon="13.830640680612754"><ele>79.0</ele><time>2026-03-22T08:40:51Z</time></trkpt><trkpt lat="42.95810965456812" lon="13.830866776807907"><ele>76.33333333333333</ele><time>2026-03-22T08:40:52Z</time></trkpt><trkpt lat="42.95815488293752" lon="13.831093401022288"><ele>73.66666666666667</ele><time>2026-03-22T08:40:53Z</time></trkpt><trkpt lat="42.958202521309104" lon="13.83132942964224"><ele>71.0</ele><time>2026-03-22T08:40:54Z</time></trkpt><trkpt lat="42.95825207025986" lon="13.83156571316406"><ele>71.0</ele><time>2026-03-22T08:40:55Z</time></trkpt><trkpt lat="42.95829446918291" lon="13.831783761515663"><ele>71.0</ele><time>2026-03-22T08:40:56Z</time></trkpt><trkpt lat="42.95831511170352" lon="13.831995304372358"><ele>71.0</ele><time>2026-03-22T08:40:57Z</time></trkpt><trkpt lat="42.95829729920171" lon="13.832208249945724"><ele>72.0</ele><time>2026-03-22T08:40:58Z</time></trkpt><trkpt lat="42.9582499892113" lon="13.8324320763135"><ele>73.0</ele><time>2026-03-22T08:40:59Z</time></trkpt><trkpt lat="42.958186677255135" lon="13.832650798428876"><ele>74.0</ele><time>2026-03-22T08:41:00Z</time></trkpt><trkpt lat="42.958133342601386" lon="13.83287052718555"><ele>75.33333333333334</ele><time>2026-03-22T08:41:01Z</time></trkpt><trkpt lat="42.958096864928194" lon="13.833105080501078"><ele>76.66666666666667</ele><time>2026-03-22T08:41:02Z</time></trkpt><trkpt lat="42.958071544490515" lon="13.833356641263244"><ele>78.0</ele><time>2026-03-22T08:41:03Z</time></trkpt><trkpt lat="42.95804611414334" lon="13.833624980068992"><ele>78.0</ele><time>2026-03-22T08:41:04Z</time></trkpt><trkpt lat="42.958022817942535" lon="13.833885653849272"><ele>78.0</ele><time>2026-03-22T08:41:05Z</time></trkpt><trkpt lat="42.957999493267884" lon="13.834138678963118"><ele>78.0</ele><time>2026-03-22T08:41:06Z</time></trkpt><trkpt lat="42.957971045815576" lon="13.834356215738778"><ele>78.0</ele><time>2026-03-22T08:41:07Z</time></trkpt><trkpt lat="42.95794547048641" lon="13.834606084234746"><ele>78.0</ele><time>2026-03-22T08:41:08Z</time></trkpt><trkpt lat="42.957924533561545" lon="13.834848473412679"><ele>78.0</ele><time>2026-03-22T08:41:09Z</time></trkpt><trkpt lat="42.9579008360992" lon="13.83511289603932"><ele>76.33333333333333</ele><time>2026-03-22T08:41:10Z</time></trkpt><trkpt lat="42.95786769473168" lon="13.835374281769855"><ele>74.66666666666666</ele><time>2026-03-22T08:41:11Z</time></trkpt><trkpt lat="42.95783852780152" lon="13.835631508833764"><ele>73.0</ele><time>2026-03-22T08:41:12Z</time></trkpt><trkpt lat="42.95780638220326" lon="13.835879547738507"><ele>72.33333333333333</ele><time>2026-03-22T08:41:13Z</time></trkpt><trkpt lat="42.95777621096032" lon="13.836131077479429"><ele>71.66666666666667</ele><time>2026-03-22T08:41:14Z</time></trkpt><trkpt lat="42.95774806100862" lon="13.83637349984741"><ele>71.0</ele><time>2026-03-22T08:41:15Z</time></trkpt><trkpt lat="42.95772209684339" lon="13.83660505942049"><ele>71.66666666666667</ele><time>2026-03-22T08:41:16Z</time></trkpt><trkpt lat="42.957692253481206" lon="13.836855026093591"><ele>72.33333333333333</ele><time>2026-03-22T08:41:17Z</time></trkpt><trkpt lat="42.95766683480062" lon="13.837072036799652"><ele>73.0</ele><time>2026-03-22T08:41:18Z</time></trkpt><trkpt lat="42.95764042630026" lon="13.837301332003536"><ele>73.0</ele><time>2026-03-22T08:41:18.999Z</time></trkpt><trkpt lat="42.957615436003806" lon="13.83754191952405"><ele>73.0</ele><time>2026-03-22T08:41:19.999Z</time></trkpt><trkpt lat="42.957592780016014" lon="13.837780617680771"><ele>73.0</ele><time>2026-03-22T08:41:20.999Z</time></trkpt><trkpt lat="42.95755633987026" lon="13.838003409160057"><ele>70.0</ele><time>2026-03-22T08:41:21.999Z</time></trkpt><trkpt lat="42.95748223323507" lon="13.838203230026588"><ele>67.0</ele><time>2026-03-22T08:41:22.999Z</time></trkpt><trkpt lat="42.95737575913696" lon="13.838416457011796"><ele>64.0</ele><time>2026-03-22T08:41:23.999Z</time></trkpt><trkpt lat="42.95725033605749" lon="13.838645397819516"><ele>64.0</ele><time>2026-03-22T08:41:24.999Z</time></trkpt><trkpt lat="42.95713048552958" lon="13.838866562522824"><ele>64.0</ele><time>2026-03-22T08:41:25.999Z</time></trkpt><trkpt lat="42.957040946891944" lon="13.839069717892059"><ele>64.0</ele><time>2026-03-22T08:41:26.999Z</time></trkpt><trkpt lat="42.95698042070583" lon="13.839294093648666"><ele>64.0</ele><time>2026-03-22T08:41:27.999Z</time></trkpt><trkpt lat="42.956941379765794" lon="13.839567799708083"><ele>64.0</ele><time>2026-03-22T08:41:28.999Z</time></trkpt><trkpt lat="42.95691526225378" lon="13.839883488146453"><ele>64.0</ele><time>2026-03-22T08:41:29.999Z</time></trkpt><trkpt lat="42.95687705075047" lon="13.840203511663184"><ele>65.33333333333333</ele><time>2026-03-22T08:41:30.999Z</time></trkpt><trkpt lat="42.956832705108084" lon="13.84048779154534"><ele>66.66666666666667</ele><time>2026-03-22T08:41:31.999Z</time></trkpt><trkpt lat="42.956790226010014" lon="13.840766155166095"><ele>68.0</ele><time>2026-03-22T08:41:32.999Z</time></trkpt><trkpt lat="42.95675030379728" lon="13.841037760938372"><ele>65.0</ele><time>2026-03-22T08:41:33.999Z</time></trkpt><trkpt lat="42.9567107722292" lon="13.841320879885755"><ele>62.0</ele><time>2026-03-22T08:41:34.999Z</time></trkpt><trkpt lat="42.95666940244342" lon="13.84160321044633"><ele>59.0</ele><time>2026-03-22T08:41:35.999Z</time></trkpt><trkpt lat="42.956626531114274" lon="13.841891698903058"><ele>59.333333333333336</ele><time>2026-03-22T08:41:36.999Z</time></trkpt><trkpt lat="42.95658975376908" lon="13.842185186246393"><ele>59.66666666666667</ele><time>2026-03-22T08:41:37.999Z</time></trkpt><trkpt lat="42.95655150423095" lon="13.842466848291247"><ele>60.0</ele><time>2026-03-22T08:41:38.999Z</time></trkpt><trkpt lat="42.956514274736556" lon="13.842743010919419"><ele>60.0</ele><time>2026-03-22T08:41:39.999Z</time></trkpt><trkpt lat="42.95647341901791" lon="13.843018832857702"><ele>60.0</ele><time>2026-03-22T08:41:40.999Z</time></trkpt><trkpt lat="42.95643073307086" lon="13.843296063546083"><ele>60.0</ele><time>2026-03-22T08:41:41.999Z</time></trkpt><trkpt lat="42.95638276827878" lon="13.843564226052425"><ele>60.66666666666667</ele><time>2026-03-22T08:41:42.999Z</time></trkpt><trkpt lat="42.95631332807473" lon="13.843817912029571"><ele>61.333333333333336</ele><time>2026-03-22T08:41:43.999Z</time></trkpt><trkpt lat="42.95622873741469" lon="13.84406608876165"><ele>62.0</ele><time>2026-03-22T08:41:44.999Z</time></trkpt><trkpt lat="42.956147350412216" lon="13.844327937078228"><ele>62.0</ele><time>2026-03-22T08:41:45.999Z</time></trkpt><trkpt lat="42.95607552188908" lon="13.84458563932438"><ele>62.0</ele><time>2026-03-22T08:41:46.999Z</time></trkpt><trkpt lat="42.95601119468263" lon="13.844839558330149"><ele>62.0</ele><time>2026-03-22T08:41:47.999Z</time></trkpt><trkpt lat="42.95594038759123" lon="13.845076653683511"><ele>64.0</ele><time>2026-03-22T08:41:48.999Z</time></trkpt><trkpt lat="42.95587166654227" lon="13.845312578295388"><ele>66.0</ele><time>2026-03-22T08:41:49.999Z</time></trkpt><trkpt lat="42.95581422440397" lon="13.845536284074493"><ele>68.0</ele><time>2026-03-22T08:41:50.999Z</time></trkpt><trkpt lat="42.95575403233553" lon="13.8457570470117"><ele>64.0</ele><time>2026-03-22T08:41:51.999Z</time></trkpt><trkpt lat="42.95569171776836" lon="13.845997957511505"><ele>60.0</ele><time>2026-03-22T08:41:52.999Z</time></trkpt><trkpt lat="42.955621197135265" lon="13.846261180311297"><ele>56.0</ele><time>2026-03-22T08:41:53.999Z</time></trkpt><trkpt lat="42.955550768836744" lon="13.846536307245895"><ele>56.66666666666667</ele><time>2026-03-22T08:41:54.999Z</time></trkpt><trkpt lat="42.95546966700797" lon="13.846800702253304"><ele>57.33333333333333</ele><time>2026-03-22T08:41:55.999Z</time></trkpt><trkpt lat="42.9553897355175" lon="13.847062178581"><ele>58.0</ele><time>2026-03-22T08:41:56.999Z</time></trkpt><trkpt lat="42.95531430928916" lon="13.847310192742256"><ele>58.0</ele><time>2026-03-22T08:41:57.999Z</time></trkpt><trkpt lat="42.95521830191996" lon="13.847515302687409"><ele>58.0</ele><time>2026-03-22T08:41:58.999Z</time></trkpt><trkpt lat="42.955113238088934" lon="13.847697509220565"><ele>58.0</ele><time>2026-03-22T08:41:59.999Z</time></trkpt><trkpt lat="42.955009832957316" lon="13.84786588315174"><ele>54.666666666666664</ele><time>2026-03-22T08:42:00.999Z</time></trkpt><trkpt lat="42.9549165921158" lon="13.848034213014902"><ele>51.33333333333333</ele><time>2026-03-22T08:42:01.999Z</time></trkpt><trkpt lat="42.95481398939367" lon="13.848193923329069"><ele>48.0</ele><time>2026-03-22T08:42:02.999Z</time></trkpt><trkpt lat="42.954699348751646" lon="13.848375076007374"><ele>48.66666666666667</ele><time>2026-03-22T08:42:03.999Z</time></trkpt><trkpt lat="42.954581432230505" lon="13.84857518816804"><ele>49.333333333333336</ele><time>2026-03-22T08:42:04.999Z</time></trkpt><trkpt lat="42.95445384438175" lon="13.848772024056931"><ele>50.0</ele><time>2026-03-22T08:42:05.999Z</time></trkpt><trkpt lat="42.954337072654035" lon="13.84896803303463"><ele>50.0</ele><time>2026-03-22T08:42:06.999Z</time></trkpt><trkpt lat="42.95424792269002" lon="13.849162494713005"><ele>50.0</ele><time>2026-03-22T08:42:07.999Z</time></trkpt><trkpt lat="42.9541995712905" lon="13.84936779347867"><ele>50.0</ele><time>2026-03-22T08:42:08.999Z</time></trkpt><trkpt lat="42.95417594996222" lon="13.849576815185232"><ele>47.66666666666667</ele><time>2026-03-22T08:42:09.999Z</time></trkpt><trkpt lat="42.95415972268697" lon="13.849797766572"><ele>45.333333333333336</ele><time>2026-03-22T08:42:10.999Z</time></trkpt><trkpt lat="42.95413787300393" lon="13.850053577621564"><ele>43.0</ele><time>2026-03-22T08:42:11.998Z</time></trkpt><trkpt lat="42.95411146932763" lon="13.850339400872866"><ele>43.0</ele><time>2026-03-22T08:42:12.998Z</time></trkpt><trkpt lat="42.95407821407634" lon="13.850626863664461"><ele>43.0</ele><time>2026-03-22T08:42:13.998Z</time></trkpt><trkpt lat="42.954046782782605" lon="13.850911956032602"><ele>43.0</ele><time>2026-03-22T08:42:14.998Z</time></trkpt><trkpt lat="42.95402023603718" lon="13.851174899047331"><ele>43.0</ele><time>2026-03-22T08:42:15.998Z</time></trkpt><trkpt lat="42.953994946283046" lon="13.851417941710615"><ele>43.0</ele><time>2026-03-22T08:42:16.998Z</time></trkpt><trkpt lat="42.953972716283054" lon="13.851626737833309"><ele>43.0</ele><time>2026-03-22T08:42:17.998Z</time></trkpt><trkpt lat="42.95395236372885" lon="13.851804908027141"><ele>43.66666666666667</ele><time>2026-03-22T08:42:18.998Z</time></trkpt><trkpt lat="42.9539295056256" lon="13.851982764630083"><ele>44.333333333333336</ele><time>2026-03-22T08:42:19.998Z</time></trkpt><trkpt lat="42.95390772942956" lon="13.852209509084467"><ele>45.0</ele><time>2026-03-22T08:42:20.998Z</time></trkpt><trkpt lat="42.95388229779139" lon="13.852468514978005"><ele>46.33333333333333</ele><time>2026-03-22T08:42:21.998Z</time></trkpt><trkpt lat="42.95385065537938" lon="13.852705164583123"><ele>47.666666666666664</ele><time>2026-03-22T08:42:22.998Z</time></trkpt><trkpt lat="42.95382029453783" lon="13.852929718760224"><ele>49.0</ele><time>2026-03-22T08:42:23.998Z</time></trkpt><trkpt lat="42.95380497789923" lon="13.85313659838632"><ele>49.0</ele><time>2026-03-22T08:42:24.998Z</time></trkpt><trkpt lat="42.95378203603264" lon="13.853360346211586"><ele>49.0</ele><time>2026-03-22T08:42:25.998Z</time></trkpt><trkpt lat="42.95374463829214" lon="13.853581370624585"><ele>49.0</ele><time>2026-03-22T08:42:26.998Z</time></trkpt><trkpt lat="42.953683369217714" lon="13.853813867323021"><ele>50.0</ele><time>2026-03-22T08:42:27.998Z</time></trkpt><trkpt lat="42.95360318591873" lon="13.854064970065982"><ele>51.0</ele><time>2026-03-22T08:42:28.998Z</time></trkpt><trkpt lat="42.95349347066949" lon="13.854357371858741"><ele>52.0</ele><time>2026-03-22T08:42:29.998Z</time></trkpt><trkpt lat="42.953392893268045" lon="13.85463406510471"><ele>48.33333333333333</ele><time>2026-03-22T08:42:30.998Z</time></trkpt><trkpt lat="42.95330707348763" lon="13.85488018096874"><ele>44.666666666666664</ele><time>2026-03-22T08:42:31.998Z</time></trkpt><trkpt lat="42.95323191804966" lon="13.855082338757407"><ele>41.0</ele><time>2026-03-22T08:42:32.998Z</time></trkpt><trkpt lat="42.953164733932695" lon="13.855272315456448"><ele>41.0</ele><time>2026-03-22T08:42:33.998Z</time></trkpt><trkpt lat="42.95309147493922" lon="13.855456251815395"><ele>41.0</ele><time>2026-03-22T08:42:34.998Z</time></trkpt><trkpt lat="42.95301892933369" lon="13.855626829954378"><ele>41.0</ele><time>2026-03-22T08:42:35.998Z</time></trkpt><trkpt lat="42.95296220904955" lon="13.855785371329793"><ele>41.0</ele><time>2026-03-22T08:42:36.998Z</time></trkpt><trkpt lat="42.9529117143268" lon="13.855943522663877"><ele>41.25</ele><time>2026-03-22T08:42:37.998Z</time></trkpt><trkpt lat="42.952865029516154" lon="13.85608540129887"><ele>41.5</ele><time>2026-03-22T08:42:38.998Z</time></trkpt><trkpt lat="42.95283990074667" lon="13.856225537231731"><ele>41.75</ele><time>2026-03-22T08:42:39.998Z</time></trkpt><trkpt lat="42.95284389924081" lon="13.856367506048187"><ele>42.0</ele><time>2026-03-22T08:42:40.998Z</time></trkpt><trkpt lat="42.95287503651484" lon="13.856551243223306"><ele>42.0</ele><time>2026-03-22T08:42:42Z</time></trkpt><trkpt lat="42.952947243721916" lon="13.856779911893247"><ele>42.0</ele><time>2026-03-22T08:42:43Z</time></trkpt><trkpt lat="42.95302411177105" lon="13.857043122746285"><ele>42.0</ele><time>2026-03-22T08:42:44Z</time></trkpt><trkpt lat="42.953094809233306" lon="13.857297156853182"><ele>40.333333333333336</ele><time>2026-03-22T08:42:45Z</time></trkpt><trkpt lat="42.95312004286606" lon="13.857543648773653"><ele>38.66666666666667</ele><time>2026-03-22T08:42:46Z</time></trkpt><trkpt lat="42.953099186767915" lon="13.857810093408071"><ele>37.0</ele><time>2026-03-22T08:42:47Z</time></trkpt><trkpt lat="42.953066671426555" lon="13.858057376743595"><ele>36.66666666666667</ele><time>2026-03-22T08:42:48Z</time></trkpt><trkpt lat="42.95300706382928" lon="13.858264936947712"><ele>36.333333333333336</ele><time>2026-03-22T08:42:49Z</time></trkpt><trkpt lat="42.952926096185216" lon="13.858457238759001"><ele>36.0</ele><time>2026-03-22T08:42:50Z</time></trkpt><trkpt lat="42.95284089994277" lon="13.858667702700373"><ele>36.333333333333336</ele><time>2026-03-22T08:42:51Z</time></trkpt><trkpt lat="42.9527145154791" lon="13.858880220415106"><ele>36.66666666666667</ele><time>2026-03-22T08:42:52Z</time></trkpt><trkpt lat="42.952603884675696" lon="13.859105728196043"><ele>37.0</ele><time>2026-03-22T08:42:53Z</time></trkpt><trkpt lat="42.952496526942404" lon="13.8593131228239"><ele>37.0</ele><time>2026-03-22T08:42:54Z</time></trkpt><trkpt lat="42.952391303038034" lon="13.859513432512692"><ele>37.0</ele><time>2026-03-22T08:42:55Z</time></trkpt><trkpt lat="42.95226905745209" lon="13.859760162844356"><ele>37.0</ele><time>2026-03-22T08:42:56Z</time></trkpt><trkpt lat="42.95214301945158" lon="13.860010475324497"><ele>38.333333333333336</ele><time>2026-03-22T08:42:57Z</time></trkpt><trkpt lat="42.9520376875327" lon="13.860216615727612"><ele>39.666666666666664</ele><time>2026-03-22T08:42:58Z</time></trkpt><trkpt lat="42.95196201758312" lon="13.860419047776336"><ele>41.0</ele><time>2026-03-22T08:42:59Z</time></trkpt><trkpt lat="42.95188410763143" lon="13.860613909554406"><ele>41.0</ele><time>2026-03-22T08:43:00Z</time></trkpt><trkpt lat="42.95180985597115" lon="13.860788417063238"><ele>41.0</ele><time>2026-03-22T08:43:01Z</time></trkpt><trkpt lat="42.95174121489541" lon="13.860935590377112"><ele>41.0</ele><time>2026-03-22T08:43:02Z</time></trkpt><trkpt lat="42.95168780751071" lon="13.86105578485806"><ele>41.0</ele><time>2026-03-22T08:43:03Z</time></trkpt><trkpt lat="42.95164654213144" lon="13.861160653622129"><ele>41.25</ele><time>2026-03-22T08:43:04Z</time></trkpt><trkpt lat="42.95160419425414" lon="13.861301389976425"><ele>41.5</ele><time>2026-03-22T08:43:06Z</time></trkpt><trkpt lat="42.95173957975214" lon="13.861419839646455"><ele>41.75</ele><time>2026-03-22T08:43:09Z</time></trkpt><trkpt lat="42.951852204446254" lon="13.861428261375172"><ele>42.0</ele><time>2026-03-22T08:43:10Z</time></trkpt><trkpt lat="42.95196845541557" lon="13.861474800292177"><ele>42.0</ele><time>2026-03-22T08:43:11Z</time></trkpt><trkpt lat="42.95209904257934" lon="13.861501048365914"><ele>42.0</ele><time>2026-03-22T08:43:12Z</time></trkpt><trkpt lat="42.95222453812297" lon="13.861526273029506"><ele>42.0</ele><time>2026-03-22T08:43:13Z</time></trkpt><trkpt lat="42.952347922986164" lon="13.861549303167404"><ele>42.0</ele><time>2026-03-22T08:43:14Z</time></trkpt><trkpt lat="42.95247158915574" lon="13.861571534351981"><ele>44.75</ele><time>2026-03-22T08:43:15Z</time></trkpt><trkpt lat="42.95259230480007" lon="13.861593390732255"><ele>47.5</ele><time>2026-03-22T08:43:16Z</time></trkpt><trkpt lat="42.95274083967525" lon="13.86161729503465"><ele>50.25</ele><time>2026-03-22T08:43:17Z</time></trkpt><trkpt lat="42.95290714924852" lon="13.861634957209018"><ele>53.0</ele><time>2026-03-22T08:43:18Z</time></trkpt><trkpt lat="42.95309065266342" lon="13.861649965827526"><ele>53.0</ele><time>2026-03-22T08:43:19Z</time></trkpt><trkpt lat="42.95327245999768" lon="13.861687089119675"><ele>53.0</ele><time>2026-03-22T08:43:19.999Z</time></trkpt><trkpt lat="42.953417371932744" lon="13.861694903334374"><ele>53.0</ele><time>2026-03-22T08:43:20.999Z</time></trkpt><trkpt lat="42.9535740706785" lon="13.861698328986344"><ele>57.0</ele><time>2026-03-22T08:43:21.999Z</time></trkpt><trkpt lat="42.95374640383629" lon="13.86168923988516"><ele>61.0</ele><time>2026-03-22T08:43:22.999Z</time></trkpt><trkpt lat="42.95393123601734" lon="13.861683040892892"><ele>65.0</ele><time>2026-03-22T08:43:23.999Z</time></trkpt><trkpt lat="42.954115508864774" lon="13.861677521669055"><ele>69.33333333333334</ele><time>2026-03-22T08:43:24.999Z</time></trkpt><trkpt lat="42.9542750941604" lon="13.861675210005432"><ele>73.66666666666667</ele><time>2026-03-22T08:43:25.999Z</time></trkpt><trkpt lat="42.954433516988864" lon="13.861672265537086"><ele>78.0</ele><time>2026-03-22T08:43:26.999Z</time></trkpt><trkpt lat="42.95460257909475" lon="13.861664586528562"><ele>78.0</ele><time>2026-03-22T08:43:27.999Z</time></trkpt><trkpt lat="42.9547682647469" lon="13.861657862363431"><ele>78.0</ele><time>2026-03-22T08:43:28.999Z</time></trkpt><trkpt lat="42.9548998055469" lon="13.861653785237932"><ele>78.0</ele><time>2026-03-22T08:43:29.999Z</time></trkpt><trkpt lat="42.95503989265207" lon="13.86165115924942"><ele>78.0</ele><time>2026-03-22T08:43:30.999Z</time></trkpt><trkpt lat="42.955153689029984" lon="13.861652474433853"><ele>78.4</ele><time>2026-03-22T08:43:31.999Z</time></trkpt><trkpt lat="42.95524287685332" lon="13.861654735781201"><ele>78.8</ele><time>2026-03-22T08:43:32.999Z</time></trkpt><trkpt lat="42.95534834034882" lon="13.86164284949238"><ele>79.2</ele><time>2026-03-22T08:43:33.999Z</time></trkpt><trkpt lat="42.955465486088" lon="13.861593939019466"><ele>79.6</ele><time>2026-03-22T08:43:34.999Z</time></trkpt><trkpt lat="42.95557474751553" lon="13.8615160855458"><ele>80.0</ele><time>2026-03-22T08:43:35.999Z</time></trkpt><trkpt lat="42.955680742264036" lon="13.861486257070123"><ele>80.0</ele><time>2026-03-22T08:43:36.999Z</time></trkpt><trkpt lat="42.95576164593496" lon="13.861498807085814"><ele>80.0</ele><time>2026-03-22T08:43:37.999Z</time></trkpt><trkpt lat="42.955836040611295" lon="13.861534938523745"><ele>80.0</ele><time>2026-03-22T08:43:38.999Z</time></trkpt><trkpt lat="42.95589828857895" lon="13.86163664070137"><ele>80.0</ele><time>2026-03-22T08:43:39.999Z</time></trkpt><trkpt lat="42.9560019372651" lon="13.861709411088137"><ele>80.0</ele><time>2026-03-22T08:43:40.999Z</time></trkpt><trkpt lat="42.95611085404195" lon="13.861768859446025"><ele>81.33333333333334</ele><time>2026-03-22T08:43:41.999Z</time></trkpt><trkpt lat="42.95626880164177" lon="13.861799338818484"><ele>82.66666666666667</ele><time>2026-03-22T08:43:42.999Z</time></trkpt><trkpt lat="42.95646745824942" lon="13.861820439488099"><ele>84.0</ele><time>2026-03-22T08:43:43.999Z</time></trkpt><trkpt lat="42.95669685644276" lon="13.861841338884407"><ele>90.0</ele><time>2026-03-22T08:43:44.999Z</time></trkpt><trkpt lat="42.95690765419173" lon="13.861858748716323"><ele>96.0</ele><time>2026-03-22T08:43:45.999Z</time></trkpt><trkpt lat="42.95710320808039" lon="13.861876100035886"><ele>102.0</ele><time>2026-03-22T08:43:46.999Z</time></trkpt><trkpt lat="42.95730451170745" lon="13.861910909328696"><ele>102.0</ele><time>2026-03-22T08:43:47.999Z</time></trkpt><trkpt lat="42.95741659915766" lon="13.861914928806726"><ele>102.0</ele><time>2026-03-22T08:43:48.999Z</time></trkpt><trkpt lat="42.95758177327414" lon="13.861945322399777"><ele>102.0</ele><time>2026-03-22T08:43:49.999Z</time></trkpt><trkpt lat="42.95774031745876" lon="13.861985033236284"><ele>102.0</ele><time>2026-03-22T08:43:50.999Z</time></trkpt><trkpt lat="42.9578617018621" lon="13.862020466203363"><ele>105.5</ele><time>2026-03-22T08:43:51.999Z</time></trkpt><trkpt lat="42.957970529918114" lon="13.862074277079499"><ele>109.0</ele><time>2026-03-22T08:43:52.999Z</time></trkpt><trkpt lat="42.95808530768081" lon="13.862164066763917"><ele>112.5</ele><time>2026-03-22T08:43:53.999Z</time></trkpt><trkpt lat="42.9581979707602" lon="13.862280972501205"><ele>116.0</ele><time>2026-03-22T08:43:54.999Z</time></trkpt><trkpt lat="42.9583107822808" lon="13.86238535957929"><ele>120.8</ele><time>2026-03-22T08:43:55.999Z</time></trkpt><trkpt lat="42.95840722659413" lon="13.862450460404085"><ele>125.6</ele><time>2026-03-22T08:43:56.999Z</time></trkpt><trkpt lat="42.958493757993686" lon="13.862514779716632"><ele>130.4</ele><time>2026-03-22T08:43:57.999Z</time></trkpt><trkpt lat="42.95857084644438" lon="13.862577142815443"><ele>135.2</ele><time>2026-03-22T08:43:58.999Z</time></trkpt><trkpt lat="42.958633381647495" lon="13.862641652186007"><ele>140.0</ele><time>2026-03-22T08:43:59.999Z</time></trkpt><trkpt lat="42.95866870747766" lon="13.862756507192685"><ele>140.0</ele><time>2026-03-22T08:44:00.999Z</time></trkpt><trkpt lat="42.95870301880818" lon="13.86285753821286"><ele>140.0</ele><time>2026-03-22T08:44:01.999Z</time></trkpt><trkpt lat="42.958698274698605" lon="13.862977323405527"><ele>140.0</ele><time>2026-03-22T08:44:02.999Z</time></trkpt><trkpt lat="42.958734716041725" lon="13.863093155847203"><ele>140.0</ele><time>2026-03-22T08:44:04.999Z</time></trkpt><trkpt lat="42.958819446533305" lon="13.86309045061156"><ele>140.0</ele><time>2026-03-22T08:44:06.999Z</time></trkpt><trkpt lat="42.95888276788472" lon="13.862904502798761"><ele>140.0</ele><time>2026-03-22T08:44:07.999Z</time></trkpt><trkpt lat="42.95896075353127" lon="13.862783605792714"><ele>140.0</ele><time>2026-03-22T08:44:08.999Z</time></trkpt><trkpt lat="42.95900135942059" lon="13.862655537270932"><ele>140.0</ele><time>2026-03-22T08:44:09.999Z</time></trkpt><trkpt lat="42.95901373207802" lon="13.862528748762468"><ele>140.0</ele><time>2026-03-22T08:44:10.999Z</time></trkpt><trkpt lat="42.95897600053672" lon="13.862411309421034"><ele>140.0</ele><time>2026-03-22T08:44:11.999Z</time></trkpt><trkpt lat="42.95885298185483" lon="13.862346605785135"><ele>140.83333333333331</ele><time>2026-03-22T08:44:12.998Z</time></trkpt><trkpt lat="42.95875673571881" lon="13.86227160028721"><ele>141.66666666666666</ele><time>2026-03-22T08:44:13.998Z</time></trkpt><trkpt lat="42.958684170018685" lon="13.862178234535456"><ele>142.5</ele><time>2026-03-22T08:44:14.998Z</time></trkpt><trkpt lat="42.958632409060954" lon="13.862121250430036"><ele>143.33333333333334</ele><time>2026-03-22T08:44:15.998Z</time></trkpt><trkpt lat="42.9585914619742" lon="13.862052040382343"><ele>144.16666666666669</ele><time>2026-03-22T08:44:16.998Z</time></trkpt><trkpt lat="42.95857708627358" lon="13.861947992492112"><ele>145.0</ele><time>2026-03-22T08:44:17.998Z</time></trkpt><trkpt lat="42.95857856745811" lon="13.861821000302134"><ele>144.83333333333334</ele><time>2026-03-22T08:44:18.998Z</time></trkpt><trkpt lat="42.9585992296424" lon="13.861692000745377"><ele>144.66666666666669</ele><time>2026-03-22T08:44:19.998Z</time></trkpt><trkpt lat="42.95864025912599" lon="13.861566241977856"><ele>144.5</ele><time>2026-03-22T08:44:20.998Z</time></trkpt><trkpt lat="42.95868160959245" lon="13.861472263737074"><ele>144.33333333333334</ele><time>2026-03-22T08:44:21.998Z</time></trkpt><trkpt lat="42.95873142758805" lon="13.86138662219791"><ele>144.16666666666666</ele><time>2026-03-22T08:44:22.998Z</time></trkpt><trkpt lat="42.958784508014816" lon="13.86131999880369"><ele>144.0</ele><time>2026-03-22T08:44:23.998Z</time></trkpt><trkpt lat="42.95885193659921" lon="13.861271584762575"><ele>144.0</ele><time>2026-03-22T08:44:24.998Z</time></trkpt><trkpt lat="42.95894428505465" lon="13.861227682821617"><ele>144.0</ele><time>2026-03-22T08:44:25.998Z</time></trkpt><trkpt lat="42.95905026772741" lon="13.8612149762217"><ele>144.0</ele><time>2026-03-22T08:44:26.998Z</time></trkpt><trkpt lat="42.95916949313621" lon="13.861199211033691"><ele>144.0</ele><time>2026-03-22T08:44:27.998Z</time></trkpt><trkpt lat="42.95927589486556" lon="13.86112894951834"><ele>144.0</ele><time>2026-03-22T08:44:28.998Z</time></trkpt><trkpt lat="42.95937238253333" lon="13.861041218041004"><ele>145.8</ele><time>2026-03-22T08:44:29.998Z</time></trkpt><trkpt lat="42.9594732549425" lon="13.861005964004468"><ele>147.60000000000002</ele><time>2026-03-22T08:44:30.998Z</time></trkpt><trkpt lat="42.95955586363672" lon="13.86100279619819"><ele>149.4</ele><time>2026-03-22T08:44:31.998Z</time></trkpt><trkpt lat="42.959619999143854" lon="13.860971887183538"><ele>151.20000000000002</ele><time>2026-03-22T08:44:32.998Z</time></trkpt><trkpt lat="42.959694871722085" lon="13.86081614806081"><ele>153.0</ele><time>2026-03-22T08:44:34.998Z</time></trkpt><trkpt lat="42.95967193157584" lon="13.860676440845985"><ele>153.0</ele><time>2026-03-22T08:44:35.998Z</time></trkpt><trkpt lat="42.95962791620598" lon="13.860530261073981"><ele>153.0</ele><time>2026-03-22T08:44:36.998Z</time></trkpt><trkpt lat="42.959553856873434" lon="13.860383454270012"><ele>153.0</ele><time>2026-03-22T08:44:37.998Z</time></trkpt><trkpt lat="42.95949196049507" lon="13.860264807760016"><ele>153.0</ele><time>2026-03-22T08:44:38.998Z</time></trkpt><trkpt lat="42.95944495765184" lon="13.860163246061472"><ele>153.0</ele><time>2026-03-22T08:44:39.998Z</time></trkpt><trkpt lat="42.95941771480348" lon="13.860074251512723"><ele>152.5</ele><time>2026-03-22T08:44:40.998Z</time></trkpt><trkpt lat="42.95941699323142" lon="13.859985431411749"><ele>152.0</ele><time>2026-03-22T08:44:41.998Z</time></trkpt><trkpt lat="42.95945246023064" lon="13.859899205952807"><ele>151.5</ele><time>2026-03-22T08:44:42.998Z</time></trkpt><trkpt lat="42.959509665183816" lon="13.859828126594048"><ele>151.0</ele><time>2026-03-22T08:44:43.998Z</time></trkpt><trkpt lat="42.95958408893016" lon="13.859784756469566"><ele>150.5</ele><time>2026-03-22T08:44:44.998Z</time></trkpt><trkpt lat="42.959677099052136" lon="13.859715574494976"><ele>150.0</ele><time>2026-03-22T08:44:45.998Z</time></trkpt><trkpt lat="42.95976058022783" lon="13.859596747006703"><ele>150.0</ele><time>2026-03-22T08:44:46.998Z</time></trkpt><trkpt lat="42.959823221910334" lon="13.859469954842448"><ele>150.0</ele><time>2026-03-22T08:44:47.998Z</time></trkpt><trkpt lat="42.95988791861255" lon="13.85938048770503"><ele>150.0</ele><time>2026-03-22T08:44:48.998Z</time></trkpt><trkpt lat="42.95993913549134" lon="13.859294070797072"><ele>150.0</ele><time>2026-03-22T08:44:49.998Z</time></trkpt><trkpt lat="42.9599645947168" lon="13.859198480551996"><ele>150.0</ele><time>2026-03-22T08:44:50.998Z</time></trkpt><trkpt lat="42.959979611778536" lon="13.85910416125428"><ele>150.0</ele><time>2026-03-22T08:44:51.998Z</time></trkpt><trkpt lat="42.95998010376659" lon="13.858993951712883"><ele>149.0</ele><time>2026-03-22T08:44:52.998Z</time></trkpt><trkpt lat="42.95988524655152" lon="13.858881738986694"><ele>148.0</ele><time>2026-03-22T08:44:53.998Z</time></trkpt><trkpt lat="42.959795425402554" lon="13.858804077385495"><ele>147.0</ele><time>2026-03-22T08:44:54.998Z</time></trkpt><trkpt lat="42.95970513962885" lon="13.858692600076521"><ele>146.0</ele><time>2026-03-22T08:44:55.998Z</time></trkpt><trkpt lat="42.959602802506026" lon="13.858548698228583"><ele>147.75</ele><time>2026-03-22T08:44:56.998Z</time></trkpt><trkpt lat="42.95947623617056" lon="13.858427983155"><ele>149.5</ele><time>2026-03-22T08:44:57.998Z</time></trkpt><trkpt lat="42.95938094565084" lon="13.858314639862048"><ele>151.25</ele><time>2026-03-22T08:44:58.998Z</time></trkpt><trkpt lat="42.959310690067326" lon="13.858196064384789"><ele>153.0</ele><time>2026-03-22T08:44:59.998Z</time></trkpt><trkpt lat="42.959245657471214" lon="13.858101936002322"><ele>153.0</ele><time>2026-03-22T08:45:00.998Z</time></trkpt><trkpt lat="42.95919117950301" lon="13.858000819604445"><ele>153.0</ele><time>2026-03-22T08:45:02.998Z</time></trkpt><trkpt lat="42.95922963216586" lon="13.85789565358355"><ele>153.0</ele><time>2026-03-22T08:45:05.998Z</time></trkpt><trkpt lat="42.959327885140254" lon="13.857931834832824"><ele>153.0</ele><time>2026-03-22T08:45:07.998Z</time></trkpt><trkpt lat="42.959440901707396" lon="13.858050113698026"><ele>153.0</ele><time>2026-03-22T08:45:09.998Z</time></trkpt><trkpt lat="42.95952902637362" lon="13.85813057225317"><ele>153.0</ele><time>2026-03-22T08:45:10.998Z</time></trkpt><trkpt lat="42.95964109231133" lon="13.858217728273477"><ele>153.0</ele><time>2026-03-22T08:45:11.998Z</time></trkpt><trkpt lat="42.959779165011575" lon="13.858298122147179"><ele>153.0</ele><time>2026-03-22T08:45:12.998Z</time></trkpt><trkpt lat="42.95994533200739" lon="13.858385558433081"><ele>155.0</ele><time>2026-03-22T08:45:13.998Z</time></trkpt><trkpt lat="42.96007691020593" lon="13.85844428124212"><ele>157.0</ele><time>2026-03-22T08:45:14.998Z</time></trkpt><trkpt lat="42.960186118381806" lon="13.85850008285043"><ele>159.0</ele><time>2026-03-22T08:45:15.999Z</time></trkpt><trkpt lat="42.96028226728035" lon="13.858538852263516"><ele>161.0</ele><time>2026-03-22T08:45:16.999Z</time></trkpt><trkpt lat="42.96037385370699" lon="13.858564221500934"><ele>163.0</ele><time>2026-03-22T08:45:17.999Z</time></trkpt><trkpt lat="42.96046125516626" lon="13.858573108162254"><ele>163.0</ele><time>2026-03-22T08:45:18.999Z</time></trkpt><trkpt lat="42.96055074681712" lon="13.858555434855717"><ele>163.0</ele><time>2026-03-22T08:45:19.999Z</time></trkpt><trkpt lat="42.960637566970675" lon="13.858526067075935"><ele>163.0</ele><time>2026-03-22T08:45:20.999Z</time></trkpt><trkpt lat="42.96073009720901" lon="13.858500456813756"><ele>163.0</ele><time>2026-03-22T08:45:21.999Z</time></trkpt><trkpt lat="42.960817024361425" lon="13.858435618288317"><ele>163.0</ele><time>2026-03-22T08:45:22.999Z</time></trkpt><trkpt lat="42.96089777078256" lon="13.858347395127659"><ele>167.0</ele><time>2026-03-22T08:45:23.999Z</time></trkpt><trkpt lat="42.96095716004373" lon="13.858230212754476"><ele>171.0</ele><time>2026-03-22T08:45:24.999Z</time></trkpt><trkpt lat="42.96098905931808" lon="13.858077983949642"><ele>175.0</ele><time>2026-03-22T08:45:25.999Z</time></trkpt><trkpt lat="42.960976520423635" lon="13.857929482548693"><ele>179.0</ele><time>2026-03-22T08:45:26.999Z</time></trkpt><trkpt lat="42.96097815062203" lon="13.85778304568113"><ele>183.0</ele><time>2026-03-22T08:45:27.999Z</time></trkpt><trkpt lat="42.960926579097304" lon="13.857600468188311"><ele>179.0</ele><time>2026-03-22T08:45:28.999Z</time></trkpt><trkpt lat="42.96085517890369" lon="13.857465106613601"><ele>175.0</ele><time>2026-03-22T08:45:29.999Z</time></trkpt><trkpt lat="42.96079447620238" lon="13.857346754485075"><ele>171.0</ele><time>2026-03-22T08:45:30.999Z</time></trkpt><trkpt lat="42.96075127415293" lon="13.857234192489097"><ele>167.0</ele><time>2026-03-22T08:45:31.999Z</time></trkpt><trkpt lat="42.960743084721564" lon="13.857133379415076"><ele>163.0</ele><time>2026-03-22T08:45:32.999Z</time></trkpt><trkpt lat="42.960765893909716" lon="13.857022579868566"><ele>163.0</ele><time>2026-03-22T08:45:33.999Z</time></trkpt><trkpt lat="42.96080149414401" lon="13.856915521286831"><ele>163.0</ele><time>2026-03-22T08:45:34.999Z</time></trkpt><trkpt lat="42.960849742009366" lon="13.856824750576601"><ele>163.0</ele><time>2026-03-22T08:45:35.999Z</time></trkpt><trkpt lat="42.96092459524391" lon="13.856789692771642"><ele>163.0</ele><time>2026-03-22T08:45:37.999Z</time></trkpt><trkpt lat="42.96099023371993" lon="13.856786359121536"><ele>163.0</ele><time>2026-03-22T08:45:38.999Z</time></trkpt><trkpt lat="42.9610666702641" lon="13.85679034821683"><ele>163.0</ele><time>2026-03-22T08:45:39.999Z</time></trkpt><trkpt lat="42.96115060059316" lon="13.856770097010907"><ele>166.2</ele><time>2026-03-22T08:45:40.998Z</time></trkpt><trkpt lat="42.961235270721346" lon="13.856759707149639"><ele>169.4</ele><time>2026-03-22T08:45:41.998Z</time></trkpt><trkpt lat="42.961308385060676" lon="13.8566611421546"><ele>172.6</ele><time>2026-03-22T08:45:42.998Z</time></trkpt><trkpt lat="42.961346343739784" lon="13.85651237009374"><ele>175.79999999999998</ele><time>2026-03-22T08:45:43.998Z</time></trkpt><trkpt lat="42.961382733831954" lon="13.856374364887843"><ele>179.0</ele><time>2026-03-22T08:45:44.998Z</time></trkpt><trkpt lat="42.96142545668148" lon="13.856238891549726"><ele>179.0</ele><time>2026-03-22T08:45:45.998Z</time></trkpt><trkpt lat="42.96146401704386" lon="13.856143763204116"><ele>179.0</ele><time>2026-03-22T08:45:46.998Z</time></trkpt><trkpt lat="42.96151032388054" lon="13.856064170259309"><ele>179.0</ele><time>2026-03-22T08:45:48.998Z</time></trkpt><trkpt lat="42.96157987567108" lon="13.856068008003998"><ele>179.0</ele><time>2026-03-22T08:45:50.998Z</time></trkpt><trkpt lat="42.96164709722301" lon="13.856082998302076"><ele>179.0</ele><time>2026-03-22T08:45:51.998Z</time></trkpt><trkpt lat="42.96172278777725" lon="13.856097203259274"><ele>179.0</ele><time>2026-03-22T08:45:52.998Z</time></trkpt><trkpt lat="42.96180806393728" lon="13.856110131874944"><ele>180.0</ele><time>2026-03-22T08:45:53.998Z</time></trkpt><trkpt lat="42.96190629480655" lon="13.85611336908746"><ele>181.0</ele><time>2026-03-22T08:45:54.998Z</time></trkpt><trkpt lat="42.96201874722583" lon="13.85612931747591"><ele>182.0</ele><time>2026-03-22T08:45:55.998Z</time></trkpt><trkpt lat="42.962122157854495" lon="13.856128033910093"><ele>183.0</ele><time>2026-03-22T08:45:56.998Z</time></trkpt><trkpt lat="42.962198463293994" lon="13.856118108613364"><ele>184.0</ele><time>2026-03-22T08:45:57.998Z</time></trkpt><trkpt lat="42.962284258971934" lon="13.856106357436161"><ele>184.0</ele><time>2026-03-22T08:45:58.998Z</time></trkpt><trkpt lat="42.96234680605256" lon="13.856030021152938"><ele>184.0</ele><time>2026-03-22T08:45:59.998Z</time></trkpt><trkpt lat="42.96239301862794" lon="13.855928810167178"><ele>184.0</ele><time>2026-03-22T08:46:00.998Z</time></trkpt><trkpt lat="42.96242413587582" lon="13.855788078253896"><ele>184.0</ele><time>2026-03-22T08:46:01.998Z</time></trkpt><trkpt lat="42.96245652779115" lon="13.855650573805674"><ele>184.0</ele><time>2026-03-22T08:46:02.998Z</time></trkpt><trkpt lat="42.962470734097906" lon="13.85552393992866"><ele>183.75</ele><time>2026-03-22T08:46:03.998Z</time></trkpt><trkpt lat="42.96248509990299" lon="13.855323557277652"><ele>183.5</ele><time>2026-03-22T08:46:05.998Z</time></trkpt><trkpt lat="42.9624778016664" lon="13.855155720376569"><ele>183.25</ele><time>2026-03-22T08:46:06.998Z</time></trkpt><trkpt lat="42.96243491341077" lon="13.854956522923848"><ele>183.0</ele><time>2026-03-22T08:46:07.998Z</time></trkpt><trkpt lat="42.96237952786196" lon="13.854792600623133"><ele>184.0</ele><time>2026-03-22T08:46:08.998Z</time></trkpt><trkpt lat="42.9623454868032" lon="13.85465517389543"><ele>185.0</ele><time>2026-03-22T08:46:09.998Z</time></trkpt><trkpt lat="42.96232897828867" lon="13.854523000062319"><ele>186.0</ele><time>2026-03-22T08:46:10.998Z</time></trkpt><trkpt lat="42.9623262586315" lon="13.854383610187028"><ele>187.0</ele><time>2026-03-22T08:46:11.998Z</time></trkpt><trkpt lat="42.962328693597854" lon="13.854209731726172"><ele>188.0</ele><time>2026-03-22T08:46:12.998Z</time></trkpt><trkpt lat="42.962316281225284" lon="13.854045047593205"><ele>189.2</ele><time>2026-03-22T08:46:13.998Z</time></trkpt><trkpt lat="42.96226727659437" lon="13.85388744178133"><ele>190.4</ele><time>2026-03-22T08:46:14.998Z</time></trkpt><trkpt lat="42.962193545851136" lon="13.853758751040331"><ele>191.6</ele><time>2026-03-22T08:46:15.998Z</time></trkpt><trkpt lat="42.9621310200018" lon="13.853641635604406"><ele>192.79999999999998</ele><time>2026-03-22T08:46:16.998Z</time></trkpt><trkpt lat="42.962060785365914" lon="13.853549306577035"><ele>194.0</ele><time>2026-03-22T08:46:17.998Z</time></trkpt><trkpt lat="42.96201765546955" lon="13.85347865947026"><ele>196.39999999999998</ele><time>2026-03-22T08:46:18.998Z</time></trkpt><trkpt lat="42.96198236238855" lon="13.853340350187532"><ele>198.8</ele><time>2026-03-22T08:46:20.998Z</time></trkpt><trkpt lat="42.962012089041785" lon="13.85325937196539"><ele>201.2</ele><time>2026-03-22T08:46:21.998Z</time></trkpt><trkpt lat="42.96204622502663" lon="13.85317715399571"><ele>203.60000000000002</ele><time>2026-03-22T08:46:22.998Z</time></trkpt><trkpt lat="42.962142107121025" lon="13.853109803633695"><ele>206.0</ele><time>2026-03-22T08:46:23.998Z</time></trkpt><trkpt lat="42.962245045329745" lon="13.853002107279645"><ele>206.0</ele><time>2026-03-22T08:46:24.998Z</time></trkpt><trkpt lat="42.96232707990483" lon="13.852884395553492"><ele>206.0</ele><time>2026-03-22T08:46:25.998Z</time></trkpt><trkpt lat="42.962373148708956" lon="13.852759202561078"><ele>206.0</ele><time>2026-03-22T08:46:26.998Z</time></trkpt><trkpt lat="42.962407698637485" lon="13.852593523988563"><ele>206.0</ele><time>2026-03-22T08:46:27.998Z</time></trkpt><trkpt lat="42.96245796102502" lon="13.852371441600054"><ele>204.66666666666669</ele><time>2026-03-22T08:46:28.998Z</time></trkpt><trkpt lat="42.96251065357289" lon="13.85211276649968"><ele>203.33333333333331</ele><time>2026-03-22T08:46:29.998Z</time></trkpt><trkpt lat="42.962560303672916" lon="13.851900231766946"><ele>202.0</ele><time>2026-03-22T08:46:30.998Z</time></trkpt><trkpt lat="42.9626098770283" lon="13.851732705398419"><ele>199.39999999999998</ele><time>2026-03-22T08:46:31.998Z</time></trkpt><trkpt lat="42.96262796956207" lon="13.851601890695871"><ele>196.79999999999998</ele><time>2026-03-22T08:46:32.998Z</time></trkpt><trkpt lat="42.96264143666235" lon="13.851498402975245"><ele>194.2</ele><time>2026-03-22T08:46:33.998Z</time></trkpt><trkpt lat="42.96259334870826" lon="13.851320304808814"><ele>191.6</ele><time>2026-03-22T08:46:35.998Z</time></trkpt><trkpt lat="42.96257869519394" lon="13.851190800491786"><ele>189.0</ele><time>2026-03-22T08:46:37.998Z</time></trkpt><trkpt lat="42.96258099427153" lon="13.851087948057003"><ele>189.0</ele><time>2026-03-22T08:46:39.998Z</time></trkpt><trkpt lat="42.962595707695286" lon="13.850979400669955"><ele>189.0</ele><time>2026-03-22T08:46:40.998Z</time></trkpt><trkpt lat="42.96265237180166" lon="13.850917191338036"><ele>189.0</ele><time>2026-03-22T08:46:41.998Z</time></trkpt><trkpt lat="42.96270600150787" lon="13.850849434695258"><ele>189.0</ele><time>2026-03-22T08:46:43.998Z</time></trkpt><trkpt lat="42.96279457314424" lon="13.85081425795791"><ele>189.0</ele><time>2026-03-22T08:46:45.998Z</time></trkpt><trkpt lat="42.962781827049035" lon="13.85068386530632"><ele>189.0</ele><time>2026-03-22T08:46:46.998Z</time></trkpt><trkpt lat="42.96272793045255" lon="13.85052626542446"><ele>189.0</ele><time>2026-03-22T08:46:48.998Z</time></trkpt><trkpt lat="42.962702434364836" lon="13.85043353300478"><ele>189.0</ele><time>2026-03-22T08:46:49.998Z</time></trkpt><trkpt lat="42.96267441943701" lon="13.850283440212579"><ele>189.0</ele><time>2026-03-22T08:46:51.998Z</time></trkpt><trkpt lat="42.96267736441135" lon="13.850194967115875"><ele>189.0</ele><time>2026-03-22T08:46:52.998Z</time></trkpt><trkpt lat="42.962668790057386" lon="13.850071338168538"><ele>189.0</ele><time>2026-03-22T08:46:54.999Z</time></trkpt><trkpt lat="42.96263800386203" lon="13.849942419545012"><ele>189.0</ele><time>2026-03-22T08:46:57.999Z</time></trkpt><trkpt lat="42.96267775290629" lon="13.849820376173415"><ele>189.0</ele><time>2026-03-22T08:46:59.999Z</time></trkpt><trkpt lat="42.96271141948055" lon="13.849728898852325"><ele>189.0</ele><time>2026-03-22T08:47:00.999Z</time></trkpt><trkpt lat="42.96277328745726" lon="13.8496120455116"><ele>189.0</ele><time>2026-03-22T08:47:01.999Z</time></trkpt><trkpt lat="42.96283199633155" lon="13.8495196982069"><ele>189.0</ele><time>2026-03-22T08:47:02.999Z</time></trkpt><trkpt lat="42.96287625426021" lon="13.849434829767272"><ele>189.0</ele><time>2026-03-22T08:47:03.999Z</time></trkpt><trkpt lat="42.962891309284366" lon="13.84930218688239"><ele>189.0</ele><time>2026-03-22T08:47:05.999Z</time></trkpt><trkpt lat="42.96289104150173" lon="13.849166159345794"><ele>189.6</ele><time>2026-03-22T08:47:07.999Z</time></trkpt><trkpt lat="42.96288589598287" lon="13.849039104506524"><ele>190.2</ele><time>2026-03-22T08:47:08.999Z</time></trkpt><trkpt lat="42.96285468721088" lon="13.848916444889738"><ele>190.79999999999998</ele><time>2026-03-22T08:47:09.999Z</time></trkpt><trkpt lat="42.9628062694907" lon="13.84884433027918"><ele>191.39999999999998</ele><time>2026-03-22T08:47:10.999Z</time></trkpt><trkpt lat="42.96272285570773" lon="13.848757077157536"><ele>192.0</ele><time>2026-03-22T08:47:11.999Z</time></trkpt><trkpt lat="42.96265839588629" lon="13.848658752396922"><ele>192.0</ele><time>2026-03-22T08:47:12.999Z</time></trkpt><trkpt lat="42.96262047394787" lon="13.848529085602163"><ele>192.0</ele><time>2026-03-22T08:47:14.999Z</time></trkpt><trkpt lat="42.962602070123026" lon="13.848425084206397"><ele>192.0</ele><time>2026-03-22T08:47:15.999Z</time></trkpt><trkpt lat="42.962601035695265" lon="13.848328823588634"><ele>192.0</ele><time>2026-03-22T08:47:16.999Z</time></trkpt><trkpt lat="42.962616663679285" lon="13.848210395392574"><ele>192.0</ele><time>2026-03-22T08:47:17.999Z</time></trkpt><trkpt lat="42.96264463219748" lon="13.84807794275663"><ele>192.0</ele><time>2026-03-22T08:47:18.999Z</time></trkpt><trkpt lat="42.96266422769325" lon="13.84795317602813"><ele>192.16666666666666</ele><time>2026-03-22T08:47:19.999Z</time></trkpt><trkpt lat="42.96266241027488" lon="13.847822366039766"><ele>192.33333333333331</ele><time>2026-03-22T08:47:20.999Z</time></trkpt><trkpt lat="42.96265030476847" lon="13.847712827797759"><ele>192.5</ele><time>2026-03-22T08:47:21.999Z</time></trkpt><trkpt lat="42.962645646185976" lon="13.847610108974616"><ele>192.66666666666666</ele><time>2026-03-22T08:47:22.999Z</time></trkpt><trkpt lat="42.96263833098235" lon="13.847524613754498"><ele>192.83333333333331</ele><time>2026-03-22T08:47:23.999Z</time></trkpt><trkpt lat="42.9626208904013" lon="13.847441115667197"><ele>193.0</ele><time>2026-03-22T08:47:24.999Z</time></trkpt><trkpt lat="42.962582505900876" lon="13.847358176854126"><ele>194.16666666666666</ele><time>2026-03-22T08:47:25.999Z</time></trkpt><trkpt lat="42.96250118503918" lon="13.84728287359648"><ele>195.33333333333331</ele><time>2026-03-22T08:47:26.999Z</time></trkpt><trkpt lat="42.962407477972775" lon="13.847224036526114"><ele>196.5</ele><time>2026-03-22T08:47:27.999Z</time></trkpt><trkpt lat="42.96234627163564" lon="13.847178989781082"><ele>197.66666666666669</ele><time>2026-03-22T08:47:28.999Z</time></trkpt><trkpt lat="42.96233188391259" lon="13.847047179983742"><ele>198.83333333333334</ele><time>2026-03-22T08:47:30.999Z</time></trkpt><trkpt lat="42.96235498389736" lon="13.846949274270228"><ele>200.0</ele><time>2026-03-22T08:47:31.999Z</time></trkpt><trkpt lat="42.96237523958725" lon="13.846817312580585"><ele>199.50000000000003</ele><time>2026-03-22T08:47:32.999Z</time></trkpt><trkpt lat="42.9624270195432" lon="13.846707468734962"><ele>199.0</ele><time>2026-03-22T08:47:33.999Z</time></trkpt><trkpt lat="42.96247654415787" lon="13.846604935847777"><ele>198.5</ele><time>2026-03-22T08:47:34.999Z</time></trkpt><trkpt lat="42.96252140690876" lon="13.846523660239267"><ele>198.0</ele><time>2026-03-22T08:47:35.999Z</time></trkpt><trkpt lat="42.96255542895596" lon="13.846449323742624"><ele>197.50000000000003</ele><time>2026-03-22T08:47:36.999Z</time></trkpt><trkpt lat="42.96260757304816" lon="13.84634979534303"><ele>197.0</ele><time>2026-03-22T08:47:38.999Z</time></trkpt><trkpt lat="42.96261600314886" lon="13.84622351661388"><ele>195.75</ele><time>2026-03-22T08:47:41.999Z</time></trkpt><trkpt lat="42.9625505291583" lon="13.846028207662231"><ele>194.5</ele><time>2026-03-22T08:47:43.999Z</time></trkpt><trkpt lat="42.9624912995492" lon="13.845889021571477"><ele>193.25</ele><time>2026-03-22T08:47:44.999Z</time></trkpt><trkpt lat="42.962457437264774" lon="13.845775885285654"><ele>192.0</ele><time>2026-03-22T08:47:45.999Z</time></trkpt><trkpt lat="42.96243870331041" lon="13.845642439101098"><ele>192.0</ele><time>2026-03-22T08:47:47.999Z</time></trkpt><trkpt lat="42.962433322234" lon="13.845507712305457"><ele>192.0</ele><time>2026-03-22T08:47:49.999Z</time></trkpt><trkpt lat="42.962438141685546" lon="13.845345287413696"><ele>192.0</ele><time>2026-03-22T08:47:51.999Z</time></trkpt><trkpt lat="42.96245421277794" lon="13.845177553096432"><ele>192.0</ele><time>2026-03-22T08:47:53.999Z</time></trkpt><trkpt lat="42.96247300904031" lon="13.845031623667477"><ele>190.5</ele><time>2026-03-22T08:47:55.999Z</time></trkpt><trkpt lat="42.962502282639996" lon="13.844931405755045"><ele>189.0</ele><time>2026-03-22T08:47:57.999Z</time></trkpt><trkpt lat="42.96256776229485" lon="13.844912234775984"><ele>187.5</ele><time>2026-03-22T08:47:59.999Z</time></trkpt><trkpt lat="42.96267090094938" lon="13.844895255489643"><ele>186.0</ele><time>2026-03-22T08:48:01.999Z</time></trkpt><trkpt lat="42.962738358058324" lon="13.844863142248798"><ele>184.5</ele><time>2026-03-22T08:48:02.999Z</time></trkpt><trkpt lat="42.96282950365361" lon="13.844812908320373"><ele>183.0</ele><time>2026-03-22T08:48:03.999Z</time></trkpt><trkpt lat="42.96292830609824" lon="13.844759672333598"><ele>179.5</ele><time>2026-03-22T08:48:04.999Z</time></trkpt><trkpt lat="42.96304042578579" lon="13.844696403498029"><ele>176.0</ele><time>2026-03-22T08:48:05.999Z</time></trkpt><trkpt lat="42.963166593474526" lon="13.844668770803146"><ele>172.5</ele><time>2026-03-22T08:48:06.999Z</time></trkpt><trkpt lat="42.96330253577716" lon="13.844637182861364"><ele>169.0</ele><time>2026-03-22T08:48:07.999Z</time></trkpt><trkpt lat="42.963436408787274" lon="13.844598905773207"><ele>168.75</ele><time>2026-03-22T08:48:08.999Z</time></trkpt><trkpt lat="42.963577961162066" lon="13.844566608245993"><ele>168.5</ele><time>2026-03-22T08:48:09.999Z</time></trkpt><trkpt lat="42.963729465587974" lon="13.844528850039273"><ele>168.25</ele><time>2026-03-22T08:48:10.999Z</time></trkpt><trkpt lat="42.9638717680323" lon="13.844499500762021"><ele>168.0</ele><time>2026-03-22T08:48:11.999Z</time></trkpt><trkpt lat="42.96400313434694" lon="13.844469993914565"><ele>168.0</ele><time>2026-03-22T08:48:12.999Z</time></trkpt><trkpt lat="42.964117403312635" lon="13.844448673243653"><ele>168.0</ele><time>2026-03-22T08:48:13.999Z</time></trkpt><trkpt lat="42.96423961466355" lon="13.84442148717641"><ele>168.0</ele><time>2026-03-22T08:48:14.999Z</time></trkpt><trkpt lat="42.964340403541534" lon="13.844396315181811"><ele>168.0</ele><time>2026-03-22T08:48:15.999Z</time></trkpt><trkpt lat="42.96442852759328" lon="13.844379606084651"><ele>168.0</ele><time>2026-03-22T08:48:16.999Z</time></trkpt><trkpt lat="42.96450168683233" lon="13.844351858952265"><ele>172.0</ele><time>2026-03-22T08:48:17.999Z</time></trkpt><trkpt lat="42.964560089064676" lon="13.844220067486749"><ele>176.0</ele><time>2026-03-22T08:48:18.999Z</time></trkpt><trkpt lat="42.964638083949986" lon="13.84419765099343"><ele>180.0</ele><time>2026-03-22T08:48:21.999Z</time></trkpt><trkpt lat="42.96466969698796" lon="13.844120207076482"><ele>184.0</ele><time>2026-03-22T08:48:25.999Z</time></trkpt><trkpt lat="42.96468566788831" lon="13.844033172874939"><ele>188.0</ele><time>2026-03-22T08:48:27.999Z</time></trkpt><trkpt lat="42.96467507572368" lon="13.843873995190481"><ele>192.0</ele><time>2026-03-22T08:48:29.999Z</time></trkpt><trkpt lat="42.96466653014548" lon="13.8437732046906"><ele>192.0</ele><time>2026-03-22T08:48:30.999Z</time></trkpt><trkpt lat="42.96465504228309" lon="13.84366002517227"><ele>192.0</ele><time>2026-03-22T08:48:31.999Z</time></trkpt><trkpt lat="42.96464216339248" lon="13.843542334128617"><ele>192.0</ele><time>2026-03-22T08:48:32.999Z</time></trkpt><trkpt lat="42.96462655450905" lon="13.843421840799978"><ele>192.0</ele><time>2026-03-22T08:48:33.999Z</time></trkpt><trkpt lat="42.96461180544798" lon="13.84328794087329"><ele>192.0</ele><time>2026-03-22T08:48:34.999Z</time></trkpt><trkpt lat="42.964598427249165" lon="13.843140914461502"><ele>195.0</ele><time>2026-03-22T08:48:35.999Z</time></trkpt><trkpt lat="42.964579193012035" lon="13.84298801534318"><ele>198.0</ele><time>2026-03-22T08:48:36.999Z</time></trkpt><trkpt lat="42.96455694826751" lon="13.842829597073507"><ele>201.0</ele><time>2026-03-22T08:48:37.999Z</time></trkpt><trkpt lat="42.964529165128994" lon="13.84266527510018"><ele>204.0</ele><time>2026-03-22T08:48:38.999Z</time></trkpt><trkpt lat="42.964508725065215" lon="13.842489854702238"><ele>207.25</ele><time>2026-03-22T08:48:39.999Z</time></trkpt><trkpt lat="42.964493066827394" lon="13.842307864776519"><ele>210.5</ele><time>2026-03-22T08:48:40.999Z</time></trkpt><trkpt lat="42.96449090657485" lon="13.84212770420739"><ele>213.75</ele><time>2026-03-22T08:48:41.999Z</time></trkpt><trkpt lat="42.96449642828018" lon="13.84194514365494"><ele>217.0</ele><time>2026-03-22T08:48:42.999Z</time></trkpt><trkpt lat="42.96450875853296" lon="13.841731460923233"><ele>218.39999999999998</ele><time>2026-03-22T08:48:43.999Z</time></trkpt><trkpt lat="42.96453768958747" lon="13.841544736833736"><ele>219.79999999999998</ele><time>2026-03-22T08:48:44.999Z</time></trkpt><trkpt lat="42.96455370971498" lon="13.84139930995779"><ele>221.2</ele><time>2026-03-22T08:48:45.999Z</time></trkpt><trkpt lat="42.964556895840886" lon="13.841285897440269"><ele>222.6</ele><time>2026-03-22T08:48:46.999Z</time></trkpt><trkpt lat="42.96455978100031" lon="13.841160346491412"><ele>224.0</ele><time>2026-03-22T08:48:47.999Z</time></trkpt><trkpt lat="42.96456651350326" lon="13.841041038661853"><ele>224.0</ele><time>2026-03-22T08:48:48.999Z</time></trkpt><trkpt lat="42.96460445745339" lon="13.840916087706706"><ele>223.99999999999997</ele><time>2026-03-22T08:48:50.999Z</time></trkpt><trkpt lat="42.96462752857163" lon="13.84082314172673"><ele>223.99999999999997</ele><time>2026-03-22T08:48:53.999Z</time></trkpt><trkpt lat="42.964625319598156" lon="13.84070865507878"><ele>224.0</ele><time>2026-03-22T08:48:55.999Z</time></trkpt><trkpt lat="42.96461870594111" lon="13.840797324254304"><ele>224.0</ele><time>2026-03-22T08:51:10.001Z</time></trkpt><trkpt lat="42.96475088654998" lon="13.841026641517331"><ele>224.00000000000003</ele><time>2026-03-22T08:52:37.999Z</time></trkpt><trkpt lat="42.96481071657148" lon="13.841176434727474"><ele>224.0</ele><time>2026-03-22T08:52:39.999Z</time></trkpt><trkpt lat="42.964840115381094" lon="13.841260628943642"><ele>224.0</ele><time>2026-03-22T08:52:40.999Z</time></trkpt><trkpt lat="42.964885123619254" lon="13.841351106927902"><ele>224.0</ele><time>2026-03-22T08:52:41.999Z</time></trkpt><trkpt lat="42.96493709872587" lon="13.841437083454661"><ele>224.00000000000003</ele><time>2026-03-22T08:52:42.999Z</time></trkpt><trkpt lat="42.965002819078585" lon="13.841518204346348"><ele>224.0</ele><time>2026-03-22T08:52:43.999Z</time></trkpt><trkpt lat="42.96506669162851" lon="13.841602019366139"><ele>225.00000000000003</ele><time>2026-03-22T08:52:44.999Z</time></trkpt><trkpt lat="42.965107603326835" lon="13.841668667217196"><ele>226.0</ele><time>2026-03-22T08:52:45.999Z</time></trkpt><trkpt lat="42.96512160568152" lon="13.841837052005037"><ele>227.0</ele><time>2026-03-22T08:52:47.999Z</time></trkpt><trkpt lat="42.965124528449195" lon="13.841950660254724"><ele>228.0</ele><time>2026-03-22T08:52:48.999Z</time></trkpt><trkpt lat="42.96514796141258" lon="13.842067819529554"><ele>229.00000000000003</ele><time>2026-03-22T08:52:49.999Z</time></trkpt><trkpt lat="42.96519658617073" lon="13.842165044335388"><ele>230.0</ele><time>2026-03-22T08:52:50.999Z</time></trkpt><trkpt lat="42.96526456184016" lon="13.842243543136535"><ele>230.0</ele><time>2026-03-22T08:52:51.999Z</time></trkpt><trkpt lat="42.965347467775025" lon="13.842294256934606"><ele>230.0</ele><time>2026-03-22T08:52:52.999Z</time></trkpt><trkpt lat="42.96544172111055" lon="13.842335605497459"><ele>230.0</ele><time>2026-03-22T08:52:53.999Z</time></trkpt><trkpt lat="42.965525789356846" lon="13.842356310077074"><ele>230.0</ele><time>2026-03-22T08:52:54.999Z</time></trkpt><trkpt lat="42.965593996128064" lon="13.842353616854227"><ele>230.0</ele><time>2026-03-22T08:52:55.999Z</time></trkpt><trkpt lat="42.96570092014794" lon="13.842275782526883"><ele>230.00000000000003</ele><time>2026-03-22T08:52:57.999Z</time></trkpt><trkpt lat="42.96575239762632" lon="13.842124211247038"><ele>230.0</ele><time>2026-03-22T08:52:59.999Z</time></trkpt><trkpt lat="42.96573783650721" lon="13.842011132838342"><ele>230.0</ele><time>2026-03-22T08:53:00.999Z</time></trkpt><trkpt lat="42.96567264774916" lon="13.8419441477088"><ele>230.0</ele><time>2026-03-22T08:53:01.999Z</time></trkpt><trkpt lat="42.96567206950143" lon="13.841853441420456"><ele>230.00000000000003</ele><time>2026-03-22T08:53:02.999Z</time></trkpt><trkpt lat="42.965658023165595" lon="13.841745082463945"><ele>230.0</ele><time>2026-03-22T08:53:03.999Z</time></trkpt><trkpt lat="42.96564517180937" lon="13.84159434414859"><ele>230.8</ele><time>2026-03-22T08:53:04.999Z</time></trkpt><trkpt lat="42.96563911527273" lon="13.84144827490123"><ele>231.6</ele><time>2026-03-22T08:53:05.999Z</time></trkpt><trkpt lat="42.96564269931164" lon="13.841312022836439"><ele>232.39999999999998</ele><time>2026-03-22T08:53:06.999Z</time></trkpt><trkpt lat="42.96565341977643" lon="13.841184192475371"><ele>233.2</ele><time>2026-03-22T08:53:07.999Z</time></trkpt><trkpt lat="42.96566869778773" lon="13.841040877763099"><ele>234.0</ele><time>2026-03-22T08:53:08.999Z</time></trkpt><trkpt lat="42.965687614184816" lon="13.840895372343049"><ele>234.79999999999998</ele><time>2026-03-22T08:53:09.999Z</time></trkpt><trkpt lat="42.965710237601655" lon="13.840748036595112"><ele>235.59999999999997</ele><time>2026-03-22T08:53:10.999Z</time></trkpt><trkpt lat="42.96572976856913" lon="13.84060449157898"><ele>236.4</ele><time>2026-03-22T08:53:12.001Z</time></trkpt><trkpt lat="42.965771811469" lon="13.840453884361446"><ele>237.2</ele><time>2026-03-22T08:53:13.001Z</time></trkpt><trkpt lat="42.96581054308674" lon="13.840309254691759"><ele>238.0</ele><time>2026-03-22T08:53:14.001Z</time></trkpt><trkpt lat="42.96585129184328" lon="13.840158467773467"><ele>239.8</ele><time>2026-03-22T08:53:15.001Z</time></trkpt><trkpt lat="42.96587917884605" lon="13.840015311218387"><ele>241.60000000000002</ele><time>2026-03-22T08:53:16.001Z</time></trkpt><trkpt lat="42.9659041290575" lon="13.83986013069065"><ele>243.39999999999998</ele><time>2026-03-22T08:53:17.001Z</time></trkpt><trkpt lat="42.965923421279555" lon="13.83972269867619"><ele>245.2</ele><time>2026-03-22T08:53:18.001Z</time></trkpt><trkpt lat="42.965935682092315" lon="13.839602711865348"><ele>247.0</ele><time>2026-03-22T08:53:19.001Z</time></trkpt><trkpt lat="42.96594824321411" lon="13.83949384546085"><ele>246.99999999999997</ele><time>2026-03-22T08:53:20.001Z</time></trkpt><trkpt lat="42.96598387598672" lon="13.839409271359614"><ele>247.0</ele><time>2026-03-22T08:53:21.001Z</time></trkpt><trkpt lat="42.96605020732749" lon="13.839332973362486"><ele>247.0</ele><time>2026-03-22T08:53:23.001Z</time></trkpt><trkpt lat="42.966110945458595" lon="13.83936438493004"><ele>247.0</ele><time>2026-03-22T08:53:24.001Z</time></trkpt><trkpt lat="42.96616407515044" lon="13.839431122290277"><ele>246.99999999999997</ele><time>2026-03-22T08:53:25.001Z</time></trkpt><trkpt lat="42.96624381007256" lon="13.839497316100248"><ele>247.0</ele><time>2026-03-22T08:53:26.001Z</time></trkpt><trkpt lat="42.966316890183265" lon="13.839590230743836"><ele>247.0</ele><time>2026-03-22T08:53:27.001Z</time></trkpt><trkpt lat="42.966406317996" lon="13.839665310259031"><ele>247.0</ele><time>2026-03-22T08:53:28Z</time></trkpt><trkpt lat="42.966497339497906" lon="13.83975236879776"><ele>247.0</ele><time>2026-03-22T08:53:29Z</time></trkpt><trkpt lat="42.966606484546425" lon="13.839840768708282"><ele>247.0</ele><time>2026-03-22T08:53:30Z</time></trkpt><trkpt lat="42.96672900581438" lon="13.839948704692556"><ele>245.25</ele><time>2026-03-22T08:53:31Z</time></trkpt><trkpt lat="42.966822581906314" lon="13.840057154453199"><ele>243.5</ele><time>2026-03-22T08:53:32Z</time></trkpt><trkpt lat="42.96692391547815" lon="13.840154097038072"><ele>241.75</ele><time>2026-03-22T08:53:33Z</time></trkpt><trkpt lat="42.96701134321745" lon="13.840232492413781"><ele>240.0</ele><time>2026-03-22T08:53:34Z</time></trkpt><trkpt lat="42.967094313733895" lon="13.840308234980887"><ele>240.0</ele><time>2026-03-22T08:53:35Z</time></trkpt><trkpt lat="42.96716769929383" lon="13.840377359367782"><ele>240.0</ele><time>2026-03-22T08:53:36Z</time></trkpt><trkpt lat="42.96723455754668" lon="13.840423306442348"><ele>240.0</ele><time>2026-03-22T08:53:37Z</time></trkpt><trkpt lat="42.96733355822711" lon="13.840416647292214"><ele>240.0</ele><time>2026-03-22T08:53:39Z</time></trkpt><trkpt lat="42.96739008949219" lon="13.84031085683336"><ele>240.0</ele><time>2026-03-22T08:53:41Z</time></trkpt><trkpt lat="42.96742191309054" lon="13.84023048628708"><ele>240.0</ele><time>2026-03-22T08:53:43Z</time></trkpt><trkpt lat="42.96746862645066" lon="13.840061322646294"><ele>240.0</ele><time>2026-03-22T08:53:45Z</time></trkpt><trkpt lat="42.96748028338591" lon="13.839942024010458"><ele>240.0</ele><time>2026-03-22T08:53:46Z</time></trkpt><trkpt lat="42.967494931009455" lon="13.839834676047742"><ele>240.0</ele><time>2026-03-22T08:53:47Z</time></trkpt><trkpt lat="42.96752477178033" lon="13.839723992483115"><ele>240.0</ele><time>2026-03-22T08:53:48Z</time></trkpt><trkpt lat="42.967536644776054" lon="13.839590566841656"><ele>240.0</ele><time>2026-03-22T08:53:49Z</time></trkpt><trkpt lat="42.967530337827775" lon="13.839463286899742"><ele>240.0</ele><time>2026-03-22T08:53:50Z</time></trkpt><trkpt lat="42.967541693770386" lon="13.839365507968916"><ele>236.5</ele><time>2026-03-22T08:53:51Z</time></trkpt><trkpt lat="42.96756242099847" lon="13.83926302589036"><ele>233.0</ele><time>2026-03-22T08:53:52Z</time></trkpt><trkpt lat="42.96756958933772" lon="13.83917136683534"><ele>229.5</ele><time>2026-03-22T08:53:53Z</time></trkpt><trkpt lat="42.96758471799907" lon="13.839085611960195"><ele>226.0</ele><time>2026-03-22T08:53:54Z</time></trkpt><trkpt lat="42.96759848462929" lon="13.838886787195934"><ele>222.5</ele><time>2026-03-22T08:53:56Z</time></trkpt><trkpt lat="42.967602172208565" lon="13.838792198399053"><ele>219.0</ele><time>2026-03-22T08:53:57Z</time></trkpt><trkpt lat="42.967603777670035" lon="13.838645855832995"><ele>219.0</ele><time>2026-03-22T08:53:59Z</time></trkpt><trkpt lat="42.96759692441431" lon="13.83849200780987"><ele>218.99999999999997</ele><time>2026-03-22T08:54:01Z</time></trkpt><trkpt lat="42.96764545617178" lon="13.838363185837979"><ele>218.99999999999997</ele><time>2026-03-22T08:54:03Z</time></trkpt><trkpt lat="42.96767197698874" lon="13.838240386163074"><ele>219.0</ele><time>2026-03-22T08:54:05Z</time></trkpt><trkpt lat="42.96770703188783" lon="13.838143906731682"><ele>219.0</ele><time>2026-03-22T08:54:07Z</time></trkpt><trkpt lat="42.967738424489276" lon="13.838063359120584"><ele>219.0</ele><time>2026-03-22T08:54:09Z</time></trkpt><trkpt lat="42.967809973351976" lon="13.837993336871786"><ele>219.0</ele><time>2026-03-22T08:54:11Z</time></trkpt><trkpt lat="42.96790096734135" lon="13.83793293594024"><ele>219.0</ele><time>2026-03-22T08:54:13Z</time></trkpt><trkpt lat="42.96796201202541" lon="13.837911319888379"><ele>219.0</ele><time>2026-03-22T08:54:15Z</time></trkpt><trkpt lat="42.9673562454305" lon="13.837710731958667"><ele>220.66666666666666</ele><time>2026-03-22T08:54:17Z</time></trkpt><trkpt lat="42.96731723432125" lon="13.83763641329689"><ele>222.33333333333331</ele><time>2026-03-22T08:54:18Z</time></trkpt><trkpt lat="42.967290496132044" lon="13.837552758092892"><ele>224.0</ele><time>2026-03-22T08:54:19Z</time></trkpt><trkpt lat="42.967258094310225" lon="13.83744704902209"><ele>225.66666666666666</ele><time>2026-03-22T08:54:20Z</time></trkpt><trkpt lat="42.96722332878406" lon="13.837328566639693"><ele>227.33333333333331</ele><time>2026-03-22T08:54:20.999Z</time></trkpt><trkpt lat="42.96717657627354" lon="13.837154308150941"><ele>229.0</ele><time>2026-03-22T08:54:21.999Z</time></trkpt><trkpt lat="42.96713298458076" lon="13.836975247538692"><ele>229.5</ele><time>2026-03-22T08:54:22.999Z</time></trkpt><trkpt lat="42.96709150358072" lon="13.836775731802307"><ele>230.0</ele><time>2026-03-22T08:54:23.999Z</time></trkpt><trkpt lat="42.96705652606635" lon="13.83659086117885"><ele>230.5</ele><time>2026-03-22T08:54:24.999Z</time></trkpt><trkpt lat="42.967026006878726" lon="13.83641012917588"><ele>231.0</ele><time>2026-03-22T08:54:25.999Z</time></trkpt><trkpt lat="42.96700479054377" lon="13.836271056589265"><ele>231.0</ele><time>2026-03-22T08:54:26.999Z</time></trkpt><trkpt lat="42.96698392252085" lon="13.836157821161674"><ele>231.0</ele><time>2026-03-22T08:54:27.999Z</time></trkpt><trkpt lat="42.966960220181655" lon="13.836045599999888"><ele>231.0</ele><time>2026-03-22T08:54:28.999Z</time></trkpt><trkpt lat="42.966919419824904" lon="13.835867635876598"><ele>231.0</ele><time>2026-03-22T08:54:30.999Z</time></trkpt><trkpt lat="42.96706099666277" lon="13.835673260181501"><ele>231.8</ele><time>2026-03-22T08:54:31.999Z</time></trkpt><trkpt lat="42.96699952412098" lon="13.83557263426886"><ele>232.60000000000002</ele><time>2026-03-22T08:54:32.999Z</time></trkpt><trkpt lat="42.96696136215622" lon="13.835439445983498"><ele>233.4</ele><time>2026-03-22T08:54:33.999Z</time></trkpt><trkpt lat="42.96694317112145" lon="13.835296643872185"><ele>234.2</ele><time>2026-03-22T08:54:34.999Z</time></trkpt><trkpt lat="42.96694021918368" lon="13.835200161206696"><ele>235.0</ele><time>2026-03-22T08:54:35.999Z</time></trkpt><trkpt lat="42.96692038617168" lon="13.835041070591267"><ele>235.75</ele><time>2026-03-22T08:54:37.999Z</time></trkpt><trkpt lat="42.966927260354566" lon="13.834946283416798"><ele>236.5</ele><time>2026-03-22T08:54:38.999Z</time></trkpt><trkpt lat="42.96694076397509" lon="13.834825647509621"><ele>237.25</ele><time>2026-03-22T08:54:39.999Z</time></trkpt><trkpt lat="42.96696679260271" lon="13.834647184279776"><ele>238.0</ele><time>2026-03-22T08:54:40.999Z</time></trkpt><trkpt lat="42.966997869676675" lon="13.83442346375711"><ele>239.0</ele><time>2026-03-22T08:54:41.999Z</time></trkpt><trkpt lat="42.9670260315564" lon="13.834194753712957"><ele>240.0</ele><time>2026-03-22T08:54:42.999Z</time></trkpt><trkpt lat="42.967049020715194" lon="13.833969843594558"><ele>241.0</ele><time>2026-03-22T08:54:43.999Z</time></trkpt><trkpt lat="42.96706781351787" lon="13.833740722524045"><ele>241.0</ele><time>2026-03-22T08:54:44.999Z</time></trkpt><trkpt lat="42.9670857663845" lon="13.833500545032026"><ele>241.0</ele><time>2026-03-22T08:54:45.999Z</time></trkpt><trkpt lat="42.96710598669022" lon="13.833281175482082"><ele>241.0</ele><time>2026-03-22T08:54:46.999Z</time></trkpt><trkpt lat="42.96712694653676" lon="13.833074581432763"><ele>242.0</ele><time>2026-03-22T08:54:47.999Z</time></trkpt><trkpt lat="42.96715132565798" lon="13.832877880050896"><ele>243.0</ele><time>2026-03-22T08:54:48.999Z</time></trkpt><trkpt lat="42.96717881711179" lon="13.832683548486543"><ele>244.0</ele><time>2026-03-22T08:54:49.999Z</time></trkpt><trkpt lat="42.967216351157326" lon="13.832501716613843"><ele>245.0</ele><time>2026-03-22T08:54:50.999Z</time></trkpt><trkpt lat="42.967262177787795" lon="13.832307309513833"><ele>248.33333333333334</ele><time>2026-03-22T08:54:51.999Z</time></trkpt><trkpt lat="42.967320667152684" lon="13.83208905656124"><ele>251.66666666666669</ele><time>2026-03-22T08:54:52.999Z</time></trkpt><trkpt lat="42.967380308599" lon="13.831861303199542"><ele>255.0</ele><time>2026-03-22T08:54:53.999Z</time></trkpt><trkpt lat="42.96743881266461" lon="13.831635600567632"><ele>255.0</ele><time>2026-03-22T08:54:54.999Z</time></trkpt><trkpt lat="42.967489874730866" lon="13.831433967906063"><ele>255.0</ele><time>2026-03-22T08:54:55.999Z</time></trkpt><trkpt lat="42.967531736860195" lon="13.831251486752905"><ele>255.0</ele><time>2026-03-22T08:54:56.999Z</time></trkpt><trkpt lat="42.96758417010143" lon="13.8310281907864"><ele>258.6666666666667</ele><time>2026-03-22T08:54:57.999Z</time></trkpt><trkpt lat="42.967637846003655" lon="13.830783797677427"><ele>262.33333333333337</ele><time>2026-03-22T08:54:58.999Z</time></trkpt><trkpt lat="42.967691950665085" lon="13.83054284990518"><ele>266.0</ele><time>2026-03-22T08:54:59.999Z</time></trkpt><trkpt lat="42.96773466116698" lon="13.830348433310197"><ele>266.0</ele><time>2026-03-22T08:55:00.999Z</time></trkpt><trkpt lat="42.96777812936341" lon="13.830190345876286"><ele>266.0</ele><time>2026-03-22T08:55:01.999Z</time></trkpt><trkpt lat="42.96782095876493" lon="13.830043508590592"><ele>266.0</ele><time>2026-03-22T08:55:02.999Z</time></trkpt><trkpt lat="42.96786873469306" lon="13.829889359222575"><ele>266.0</ele><time>2026-03-22T08:55:03.999Z</time></trkpt><trkpt lat="42.9679304712464" lon="13.829742682685096"><ele>268.75</ele><time>2026-03-22T08:55:04.999Z</time></trkpt><trkpt lat="42.96798893772381" lon="13.829593060462614"><ele>271.5</ele><time>2026-03-22T08:55:05.999Z</time></trkpt><trkpt lat="42.9680411037686" lon="13.829435325963473"><ele>274.25</ele><time>2026-03-22T08:55:06.999Z</time></trkpt><trkpt lat="42.96808660521181" lon="13.82926512711058"><ele>277.0</ele><time>2026-03-22T08:55:07.999Z</time></trkpt><trkpt lat="42.96813322878528" lon="13.829089704250055"><ele>278.0</ele><time>2026-03-22T08:55:08.999Z</time></trkpt><trkpt lat="42.96818079369996" lon="13.828916861637081"><ele>279.0</ele><time>2026-03-22T08:55:09.999Z</time></trkpt><trkpt lat="42.96822079987989" lon="13.828733460465275"><ele>280.0</ele><time>2026-03-22T08:55:10.999Z</time></trkpt><trkpt lat="42.96825154389913" lon="13.828536328214518"><ele>281.0</ele><time>2026-03-22T08:55:11.999Z</time></trkpt><trkpt lat="42.96827386363125" lon="13.828363440562683"><ele>281.5</ele><time>2026-03-22T08:55:12.999Z</time></trkpt><trkpt lat="42.96829814524367" lon="13.828171147250034"><ele>282.0</ele><time>2026-03-22T08:55:13.999Z</time></trkpt><trkpt lat="42.96834057877835" lon="13.827980516172195"><ele>282.5</ele><time>2026-03-22T08:55:14.999Z</time></trkpt><trkpt lat="42.96837931977065" lon="13.827815723770408"><ele>283.0</ele><time>2026-03-22T08:55:15.999Z</time></trkpt><trkpt lat="42.96841321781476" lon="13.82768127644982"><ele>278.8</ele><time>2026-03-22T08:55:16.999Z</time></trkpt><trkpt lat="42.96843134257075" lon="13.82756952163613"><ele>274.6</ele><time>2026-03-22T08:55:18Z</time></trkpt><trkpt lat="42.96843550344279" lon="13.827477496517119"><ele>270.4</ele><time>2026-03-22T08:55:19Z</time></trkpt><trkpt lat="42.96842778113817" lon="13.82731835960242"><ele>266.2</ele><time>2026-03-22T08:55:21Z</time></trkpt><trkpt lat="42.968430415011454" lon="13.827217754249302"><ele>262.0</ele><time>2026-03-22T08:55:23Z</time></trkpt><trkpt lat="42.9685875669362" lon="13.827291977983807"><ele>262.0</ele><time>2026-03-22T08:55:28Z</time></trkpt><trkpt lat="42.96867555066871" lon="13.82731656228054"><ele>262.0</ele><time>2026-03-22T08:55:31Z</time></trkpt><trkpt lat="42.96873814350533" lon="13.827275396608137"><ele>262.0</ele><time>2026-03-22T08:55:35Z</time></trkpt><trkpt lat="42.968696798419735" lon="13.827153635732863"><ele>262.0</ele><time>2026-03-22T08:55:38Z</time></trkpt><trkpt lat="42.968615069954296" lon="13.82705099548202"><ele>262.0</ele><time>2026-03-22T08:55:40Z</time></trkpt><trkpt lat="42.96858432402026" lon="13.826943018641645"><ele>262.0</ele><time>2026-03-22T08:55:42Z</time></trkpt><trkpt lat="42.968558450268986" lon="13.826838094916972"><ele>262.0</ele><time>2026-03-22T08:55:44Z</time></trkpt><trkpt lat="42.9685826988087" lon="13.82670250496488"><ele>262.0</ele><time>2026-03-22T08:55:46Z</time></trkpt><trkpt lat="42.96859275378652" lon="13.826608639623197"><ele>262.0</ele><time>2026-03-22T08:55:47Z</time></trkpt><trkpt lat="42.968633226367416" lon="13.826466545727886"><ele>262.0</ele><time>2026-03-22T08:55:49Z</time></trkpt><trkpt lat="42.96869806011528" lon="13.826365308032754"><ele>260.8571428571429</ele><time>2026-03-22T08:55:51Z</time></trkpt><trkpt lat="42.9687640429742" lon="13.826309390773579"><ele>259.7142857142857</ele><time>2026-03-22T08:55:53Z</time></trkpt><trkpt lat="42.968832270443464" lon="13.826225773309217"><ele>258.57142857142856</ele><time>2026-03-22T08:55:55Z</time></trkpt><trkpt lat="42.96889156052736" lon="13.826186078917548"><ele>257.42857142857144</ele><time>2026-03-22T08:55:56Z</time></trkpt><trkpt lat="42.96894472027999" lon="13.826138482382428"><ele>256.2857142857143</ele><time>2026-03-22T08:55:57Z</time></trkpt><trkpt lat="42.969001102304894" lon="13.826077603289935"><ele>255.14285714285717</ele><time>2026-03-22T08:55:58Z</time></trkpt><trkpt lat="42.96905291466876" lon="13.826015074005388"><ele>254.0</ele><time>2026-03-22T08:55:59Z</time></trkpt><trkpt lat="42.969126179670184" lon="13.825892339522012"><ele>254.00000000000003</ele><time>2026-03-22T08:56:01Z</time></trkpt><trkpt lat="42.969182009885216" lon="13.825795345591239"><ele>254.0</ele><time>2026-03-22T08:56:03Z</time></trkpt><trkpt lat="42.96925715018029" lon="13.82572836988637"><ele>254.0</ele><time>2026-03-22T08:56:05Z</time></trkpt><trkpt lat="42.969318120375334" lon="13.825692247388135"><ele>254.0</ele><time>2026-03-22T08:56:06Z</time></trkpt><trkpt lat="42.969380694369235" lon="13.825656459552679"><ele>254.00000000000003</ele><time>2026-03-22T08:56:07Z</time></trkpt><trkpt lat="42.96945078779513" lon="13.825624084048188"><ele>254.0</ele><time>2026-03-22T08:56:08Z</time></trkpt><trkpt lat="42.96953207294145" lon="13.825591657750572"><ele>248.16666666666669</ele><time>2026-03-22T08:56:09.999Z</time></trkpt><trkpt lat="42.969591598733594" lon="13.825536891746856"><ele>242.33333333333334</ele><time>2026-03-22T08:56:11.999Z</time></trkpt><trkpt lat="42.96966409437365" lon="13.825467535672765"><ele>236.5</ele><time>2026-03-22T08:56:14.999Z</time></trkpt><trkpt lat="42.96972211162884" lon="13.825416714460292"><ele>230.66666666666669</ele><time>2026-03-22T08:56:16.999Z</time></trkpt><trkpt lat="42.969776190191105" lon="13.825363277842568"><ele>224.83333333333334</ele><time>2026-03-22T08:56:18.999Z</time></trkpt><trkpt lat="42.96986443349809" lon="13.825279291350082"><ele>219.0</ele><time>2026-03-22T08:56:20.999Z</time></trkpt><trkpt lat="42.969956078824865" lon="13.825172016619108"><ele>221.0</ele><time>2026-03-22T08:56:22.999Z</time></trkpt><trkpt lat="42.970003672333085" lon="13.82511253193403"><ele>223.0</ele><time>2026-03-22T08:56:23.999Z</time></trkpt><trkpt lat="42.97005163355283" lon="13.82505469865769"><ele>225.0</ele><time>2026-03-22T08:56:24.999Z</time></trkpt><trkpt lat="42.97011012087573" lon="13.825002215954807"><ele>227.0</ele><time>2026-03-22T08:56:25.999Z</time></trkpt><trkpt lat="42.9701912773613" lon="13.824907687478998"><ele>229.0</ele><time>2026-03-22T08:56:27.999Z</time></trkpt><trkpt lat="42.970259194727106" lon="13.824817449539964"><ele>231.0</ele><time>2026-03-22T08:56:29.999Z</time></trkpt><trkpt lat="42.97029522046312" lon="13.8247195345497"><ele>226.83333333333334</ele><time>2026-03-22T08:56:31.999Z</time></trkpt><trkpt lat="42.970337106609946" lon="13.824651066740484"><ele>222.66666666666669</ele><time>2026-03-22T08:56:33.999Z</time></trkpt><trkpt lat="42.97037819887746" lon="13.824585530352202"><ele>218.5</ele><time>2026-03-22T08:56:35.999Z</time></trkpt><trkpt lat="42.97035500915298" lon="13.824498053062348"><ele>214.33333333333334</ele><time>2026-03-22T08:56:37.999Z</time></trkpt><trkpt lat="42.97027843586336" lon="13.82439014155235"><ele>210.16666666666669</ele><time>2026-03-22T08:56:39.999Z</time></trkpt><trkpt lat="42.97023169616237" lon="13.824272599596323"><ele>206.0</ele><time>2026-03-22T08:56:41.999Z</time></trkpt><trkpt lat="42.97024422562492" lon="13.824187792700334"><ele>206.0</ele><time>2026-03-22T08:56:42.999Z</time></trkpt><trkpt lat="42.97030655133243" lon="13.824084838654354"><ele>206.0</ele><time>2026-03-22T08:56:44.999Z</time></trkpt><trkpt lat="42.97038962295969" lon="13.82400989108928"><ele>206.0</ele><time>2026-03-22T08:56:46.999Z</time></trkpt><trkpt lat="42.970473233477954" lon="13.823964777064573"><ele>206.0</ele><time>2026-03-22T08:56:48.999Z</time></trkpt><trkpt lat="42.970587721329665" lon="13.823922008994584"><ele>206.0</ele><time>2026-03-22T08:56:50.999Z</time></trkpt><trkpt lat="42.97065036021409" lon="13.82390753736635"><ele>206.0</ele><time>2026-03-22T08:56:51.999Z</time></trkpt><trkpt lat="42.970735625779106" lon="13.823882760791893"><ele>206.0</ele><time>2026-03-22T08:56:53.999Z</time></trkpt><trkpt lat="42.97083766623176" lon="13.823892703696151"><ele>206.0</ele><time>2026-03-22T08:56:56.999Z</time></trkpt><trkpt lat="42.97093798765682" lon="13.82386224513641"><ele>206.0</ele><time>2026-03-22T08:56:58.999Z</time></trkpt><trkpt lat="42.97105711470901" lon="13.823799411237319"><ele>206.0</ele><time>2026-03-22T08:57:00.999Z</time></trkpt><trkpt lat="42.97112040663791" lon="13.82377331294158"><ele>204.60000000000002</ele><time>2026-03-22T08:57:01.999Z</time></trkpt><trkpt lat="42.97117227299462" lon="13.823720257800169"><ele>203.2</ele><time>2026-03-22T08:57:02.999Z</time></trkpt><trkpt lat="42.971220108237254" lon="13.823637327796346"><ele>201.8</ele><time>2026-03-22T08:57:03.999Z</time></trkpt><trkpt lat="42.971271038038125" lon="13.823521846897936"><ele>200.39999999999998</ele><time>2026-03-22T08:57:04.999Z</time></trkpt><trkpt lat="42.97135355531934" lon="13.823374677290436"><ele>199.0</ele><time>2026-03-22T08:57:05.999Z</time></trkpt><trkpt lat="42.971429201138804" lon="13.823252221504873"><ele>199.0</ele><time>2026-03-22T08:57:06.999Z</time></trkpt><trkpt lat="42.97150641419878" lon="13.823125707109568"><ele>199.0</ele><time>2026-03-22T08:57:07.999Z</time></trkpt><trkpt lat="42.97157012651643" lon="13.823022752197335"><ele>199.0</ele><time>2026-03-22T08:57:08.999Z</time></trkpt><trkpt lat="42.97162703672417" lon="13.822934589706087"><ele>199.0</ele><time>2026-03-22T08:57:09.999Z</time></trkpt><trkpt lat="42.97168757771817" lon="13.822831431493093"><ele>199.0</ele><time>2026-03-22T08:57:10.999Z</time></trkpt><trkpt lat="42.97173881210383" lon="13.822713301704844"><ele>195.66666666666666</ele><time>2026-03-22T08:57:11.999Z</time></trkpt><trkpt lat="42.971782908029574" lon="13.822619542114712"><ele>192.33333333333331</ele><time>2026-03-22T08:57:12.999Z</time></trkpt><trkpt lat="42.97183267894892" lon="13.822527003499253"><ele>189.0</ele><time>2026-03-22T08:57:13.999Z</time></trkpt><trkpt lat="42.971883511090894" lon="13.822446745118977"><ele>185.66666666666666</ele><time>2026-03-22T08:57:14.999Z</time></trkpt><trkpt lat="42.97192531714961" lon="13.822351408075061"><ele>182.33333333333331</ele><time>2026-03-22T08:57:15.998Z</time></trkpt><trkpt lat="42.97197486131462" lon="13.822238628446524"><ele>179.0</ele><time>2026-03-22T08:57:16.998Z</time></trkpt><trkpt lat="42.972005058808115" lon="13.822153353198045"><ele>179.0</ele><time>2026-03-22T08:57:17.998Z</time></trkpt><trkpt lat="42.97203553277729" lon="13.822060714922833"><ele>179.0</ele><time>2026-03-22T08:57:19.998Z</time></trkpt><trkpt lat="42.97204002299884" lon="13.821970367455739"><ele>179.0</ele><time>2026-03-22T08:57:20.998Z</time></trkpt><trkpt lat="42.97205982684737" lon="13.821841894780622"><ele>179.0</ele><time>2026-03-22T08:57:21.998Z</time></trkpt><trkpt lat="42.97209591335261" lon="13.821691968837566"><ele>179.0</ele><time>2026-03-22T08:57:22.998Z</time></trkpt><trkpt lat="42.97204244357942" lon="13.821529676163312"><ele>181.5</ele><time>2026-03-22T08:57:24Z</time></trkpt><trkpt lat="42.97207961875953" lon="13.821433721180492"><ele>184.0</ele><time>2026-03-22T08:57:25Z</time></trkpt><trkpt lat="42.97212491566465" lon="13.821309850387488"><ele>186.5</ele><time>2026-03-22T08:57:26Z</time></trkpt><trkpt lat="42.97216455609355" lon="13.82120144746458"><ele>189.0</ele><time>2026-03-22T08:57:27Z</time></trkpt><trkpt lat="42.972185569330485" lon="13.821120301851916"><ele>191.50000000000003</ele><time>2026-03-22T08:57:28Z</time></trkpt><trkpt lat="42.97220757811101" lon="13.821038535946792"><ele>194.0</ele><time>2026-03-22T08:57:29Z</time></trkpt><trkpt lat="42.97224147980458" lon="13.820902879069921"><ele>195.66666666666669</ele><time>2026-03-22T08:57:31Z</time></trkpt><trkpt lat="42.97226258474042" lon="13.820818428144774"><ele>197.33333333333334</ele><time>2026-03-22T08:57:32Z</time></trkpt><trkpt lat="42.97228570697213" lon="13.820733898685232"><ele>199.0</ele><time>2026-03-22T08:57:36Z</time></trkpt><trkpt lat="42.97230520812776" lon="13.820651275302897"><ele>200.66666666666669</ele><time>2026-03-22T08:58:18.999Z</time></trkpt><trkpt lat="42.97235185768051" lon="13.820510351199928"><ele>202.33333333333334</ele><time>2026-03-22T08:58:20.999Z</time></trkpt><trkpt lat="42.97237805741378" lon="13.820422851988441"><ele>204.0</ele><time>2026-03-22T08:58:21.999Z</time></trkpt><trkpt lat="42.972388359961286" lon="13.82031489207702"><ele>204.0</ele><time>2026-03-22T08:58:22.999Z</time></trkpt><trkpt lat="42.972415759280466" lon="13.820204982872477"><ele>204.0</ele><time>2026-03-22T08:58:23.999Z</time></trkpt><trkpt lat="42.972443707630084" lon="13.820099591884011"><ele>204.0</ele><time>2026-03-22T08:58:24.999Z</time></trkpt><trkpt lat="42.97246842294983" lon="13.81998825729855"><ele>204.0</ele><time>2026-03-22T08:58:25.999Z</time></trkpt><trkpt lat="42.97249324265818" lon="13.819869980780293"><ele>204.0</ele><time>2026-03-22T08:58:26.999Z</time></trkpt><trkpt lat="42.97251839822761" lon="13.81976018612945"><ele>204.0</ele><time>2026-03-22T08:58:27.999Z</time></trkpt><trkpt lat="42.97253217469135" lon="13.8196632856953"><ele>206.2</ele><time>2026-03-22T08:58:28.999Z</time></trkpt><trkpt lat="42.9725458139749" lon="13.819559160416205"><ele>208.39999999999998</ele><time>2026-03-22T08:58:29.999Z</time></trkpt><trkpt lat="42.9725371121884" lon="13.819440421702575"><ele>210.6</ele><time>2026-03-22T08:58:30.999Z</time></trkpt><trkpt lat="42.972522258502075" lon="13.81928514680385"><ele>212.8</ele><time>2026-03-22T08:58:31.999Z</time></trkpt><trkpt lat="42.97251131626298" lon="13.819094548275643"><ele>215.0</ele><time>2026-03-22T08:58:32.999Z</time></trkpt><trkpt lat="42.972489272979935" lon="13.818907972765922"><ele>215.0</ele><time>2026-03-22T08:58:33.999Z</time></trkpt><trkpt lat="42.97248801185359" lon="13.818743114787681"><ele>215.0</ele><time>2026-03-22T08:58:34.999Z</time></trkpt><trkpt lat="42.972505238125336" lon="13.818605153075294"><ele>215.0</ele><time>2026-03-22T08:58:35.999Z</time></trkpt><trkpt lat="42.97252452593034" lon="13.818486596099687"><ele>215.0</ele><time>2026-03-22T08:58:36.999Z</time></trkpt><trkpt lat="42.9725582247313" lon="13.818354582825915"><ele>215.0</ele><time>2026-03-22T08:58:38.999Z</time></trkpt><trkpt lat="42.97258168517787" lon="13.818229891917303"><ele>215.66666666666669</ele><time>2026-03-22T08:58:40.999Z</time></trkpt><trkpt lat="42.97249961677291" lon="13.818143898626218"><ele>216.33333333333334</ele><time>2026-03-22T08:58:41.999Z</time></trkpt><trkpt lat="42.97244677299225" lon="13.818087133895842"><ele>217.0</ele><time>2026-03-22T08:58:42.999Z</time></trkpt><trkpt lat="42.97238381562725" lon="13.818007131484887"><ele>217.66666666666669</ele><time>2026-03-22T08:58:43.999Z</time></trkpt><trkpt lat="42.972318485502996" lon="13.817934702799507"><ele>218.33333333333334</ele><time>2026-03-22T08:58:44.999Z</time></trkpt><trkpt lat="42.97226654780096" lon="13.81783888552887"><ele>219.0</ele><time>2026-03-22T08:58:45.999Z</time></trkpt><trkpt lat="42.97220239073771" lon="13.817762999526343"><ele>219.0</ele><time>2026-03-22T08:58:46.999Z</time></trkpt><trkpt lat="42.97212551243009" lon="13.81768212111996"><ele>218.99999999999997</ele><time>2026-03-22T08:58:47.999Z</time></trkpt><trkpt lat="42.972045710992994" lon="13.81759924790509"><ele>218.99999999999997</ele><time>2026-03-22T08:58:48.999Z</time></trkpt><trkpt lat="42.97195481766185" lon="13.817508712868266"><ele>219.0</ele><time>2026-03-22T08:58:49.999Z</time></trkpt><trkpt lat="42.971870508026264" lon="13.81742671654346"><ele>219.0</ele><time>2026-03-22T08:58:50.999Z</time></trkpt><trkpt lat="42.9717769523511" lon="13.81733572778927"><ele>223.0</ele><time>2026-03-22T08:58:51.999Z</time></trkpt><trkpt lat="42.9716874059925" lon="13.81725085738051"><ele>226.99999999999997</ele><time>2026-03-22T08:58:52.999Z</time></trkpt><trkpt lat="42.97159732773654" lon="13.817166366227582"><ele>230.99999999999997</ele><time>2026-03-22T08:58:53.999Z</time></trkpt><trkpt lat="42.97148870273925" lon="13.81708413485872"><ele>235.0</ele><time>2026-03-22T08:58:54.999Z</time></trkpt><trkpt lat="42.97141467867471" lon="13.816992531453094"><ele>239.0</ele><time>2026-03-22T08:58:55.999Z</time></trkpt><trkpt lat="42.97133633057702" lon="13.816919769983299"><ele>239.00000000000003</ele><time>2026-03-22T08:58:56.999Z</time></trkpt><trkpt lat="42.97125914094618" lon="13.816843540810204"><ele>239.0</ele><time>2026-03-22T08:58:57.999Z</time></trkpt><trkpt lat="42.97120244010016" lon="13.81679454927373"><ele>239.0</ele><time>2026-03-22T08:58:58.999Z</time></trkpt><trkpt lat="42.97112806216591" lon="13.816756510237404"><ele>239.0</ele><time>2026-03-22T08:59:01.999Z</time></trkpt><trkpt lat="42.97113681636796" lon="13.816931319404416"><ele>239.00000000000003</ele><time>2026-03-22T08:59:05.999Z</time></trkpt><trkpt lat="42.97119834523467" lon="13.816997590349157"><ele>239.0</ele><time>2026-03-22T08:59:06.999Z</time></trkpt><trkpt lat="42.97126686230499" lon="13.817075963566907"><ele>239.0</ele><time>2026-03-22T08:59:07.999Z</time></trkpt><trkpt lat="42.971314784299224" lon="13.817173683614646"><ele>238.99999999999997</ele><time>2026-03-22T08:59:08.999Z</time></trkpt><trkpt lat="42.971323207197315" lon="13.817264217428603"><ele>238.99999999999997</ele><time>2026-03-22T08:59:09.999Z</time></trkpt><trkpt lat="42.97131728108214" lon="13.817462284484225"><ele>239.0</ele><time>2026-03-22T08:59:11.999Z</time></trkpt><trkpt lat="42.97132896934566" lon="13.817611867993367"><ele>239.0</ele><time>2026-03-22T08:59:12.999Z</time></trkpt><trkpt lat="42.97132354678811" lon="13.817769704029637"><ele>239.79999999999998</ele><time>2026-03-22T08:59:13.999Z</time></trkpt><trkpt lat="42.97132128764142" lon="13.817939708379098"><ele>240.59999999999997</ele><time>2026-03-22T08:59:14.999Z</time></trkpt><trkpt lat="42.971309014795196" lon="13.818110324383001"><ele>241.4</ele><time>2026-03-22T08:59:15.998Z</time></trkpt><trkpt lat="42.97129701053356" lon="13.818267354068189"><ele>242.2</ele><time>2026-03-22T08:59:16.998Z</time></trkpt><trkpt lat="42.971292683528475" lon="13.818380237360152"><ele>243.0</ele><time>2026-03-22T08:59:17.998Z</time></trkpt><trkpt lat="42.971281297886996" lon="13.81850146113644"><ele>243.4</ele><time>2026-03-22T08:59:18.998Z</time></trkpt><trkpt lat="42.97127245886043" lon="13.818622124585888"><ele>243.8</ele><time>2026-03-22T08:59:19.998Z</time></trkpt><trkpt lat="42.971278640130684" lon="13.818753421379213"><ele>244.2</ele><time>2026-03-22T08:59:20.998Z</time></trkpt><trkpt lat="42.9712622263001" lon="13.818928111710932"><ele>244.6</ele><time>2026-03-22T08:59:22.998Z</time></trkpt><trkpt lat="42.97125726563776" lon="13.819023718267644"><ele>245.0</ele><time>2026-03-22T08:59:23.998Z</time></trkpt><trkpt lat="42.971242895375" lon="13.819169038050143"><ele>245.0</ele><time>2026-03-22T08:59:25.998Z</time></trkpt><trkpt lat="42.971247644231426" lon="13.819303516735129"><ele>245.0</ele><time>2026-03-22T08:59:27.998Z</time></trkpt><trkpt lat="42.97123070272419" lon="13.819455791343099"><ele>245.0</ele><time>2026-03-22T08:59:30Z</time></trkpt><trkpt lat="42.97118039820515" lon="13.819572473842756"><ele>245.0</ele><time>2026-03-22T08:59:32Z</time></trkpt><trkpt lat="42.97107231989922" lon="13.819629549568708"><ele>245.0</ele><time>2026-03-22T08:59:34Z</time></trkpt><trkpt lat="42.97099310653208" lon="13.819635973740512"><ele>244.50000000000003</ele><time>2026-03-22T08:59:35Z</time></trkpt><trkpt lat="42.97091610168461" lon="13.819633794838092"><ele>244.0</ele><time>2026-03-22T08:59:36Z</time></trkpt><trkpt lat="42.97080028267682" lon="13.819676718980942"><ele>243.5</ele><time>2026-03-22T08:59:38Z</time></trkpt><trkpt lat="42.97074064235831" lon="13.819715211834007"><ele>243.0</ele><time>2026-03-22T08:59:39Z</time></trkpt><trkpt lat="42.970675968256685" lon="13.819760690874439"><ele>242.50000000000003</ele><time>2026-03-22T08:59:40Z</time></trkpt><trkpt lat="42.97060958500949" lon="13.819833678101686"><ele>242.0</ele><time>2026-03-22T08:59:41Z</time></trkpt><trkpt lat="42.970554675628264" lon="13.819886206872294"><ele>244.2</ele><time>2026-03-22T08:59:42Z</time></trkpt><trkpt lat="42.97045080513137" lon="13.819971080606216"><ele>246.39999999999998</ele><time>2026-03-22T08:59:44Z</time></trkpt><trkpt lat="42.97037222763091" lon="13.820040863573489"><ele>248.60000000000002</ele><time>2026-03-22T08:59:45Z</time></trkpt><trkpt lat="42.97029481901388" lon="13.8201181700822"><ele>250.8</ele><time>2026-03-22T08:59:46Z</time></trkpt><trkpt lat="42.97021877979313" lon="13.820201712058072"><ele>253.0</ele><time>2026-03-22T08:59:47Z</time></trkpt><trkpt lat="42.97016647094591" lon="13.820286946275306"><ele>252.99999999999997</ele><time>2026-03-22T08:59:48Z</time></trkpt><trkpt lat="42.97009524416937" lon="13.820360219227442"><ele>253.0</ele><time>2026-03-22T08:59:49Z</time></trkpt><trkpt lat="42.97002143587179" lon="13.82044550869322"><ele>253.0</ele><time>2026-03-22T08:59:50Z</time></trkpt><trkpt lat="42.96995074968605" lon="13.820528899136033"><ele>253.0</ele><time>2026-03-22T08:59:51Z</time></trkpt><trkpt lat="42.9698849008524" lon="13.820612115766124"><ele>252.99999999999997</ele><time>2026-03-22T08:59:52Z</time></trkpt><trkpt lat="42.96982685922744" lon="13.820673808575156"><ele>253.0</ele><time>2026-03-22T08:59:53Z</time></trkpt><trkpt lat="42.96976683830539" lon="13.82070469026281"><ele>257.8333333333333</ele><time>2026-03-22T08:59:54Z</time></trkpt><trkpt lat="42.96969418326707" lon="13.820721083726756"><ele>262.66666666666663</ele><time>2026-03-22T08:59:55Z</time></trkpt><trkpt lat="42.969615311094294" lon="13.820742865446508"><ele>267.5</ele><time>2026-03-22T08:59:56Z</time></trkpt><trkpt lat="42.969547861786836" lon="13.820741700430375"><ele>272.3333333333333</ele><time>2026-03-22T08:59:57Z</time></trkpt><trkpt lat="42.96946909712338" lon="13.820733745819362"><ele>277.1666666666667</ele><time>2026-03-22T08:59:59Z</time></trkpt><trkpt lat="42.96938507153628" lon="13.820733136659594"><ele>282.0</ele><time>2026-03-22T09:13:36.999Z</time></trkpt><trkpt lat="42.969289816849844" lon="13.820727924364904"><ele>282.0</ele><time>2026-03-22T09:13:39.998Z</time></trkpt><trkpt lat="42.969241001469506" lon="13.820611123434862"><ele>282.0</ele><time>2026-03-22T09:13:42.998Z</time></trkpt><trkpt lat="42.96923777386767" lon="13.820516624540193"><ele>282.0</ele><time>2026-03-22T09:13:43.998Z</time></trkpt><trkpt lat="42.96924318656371" lon="13.820384068019237"><ele>282.0</ele><time>2026-03-22T09:13:44.998Z</time></trkpt><trkpt lat="42.969261681036684" lon="13.820211078469331"><ele>282.0</ele><time>2026-03-22T09:13:45.998Z</time></trkpt><trkpt lat="42.96927944090697" lon="13.819999460326086"><ele>285.3333333333333</ele><time>2026-03-22T09:13:46.998Z</time></trkpt><trkpt lat="42.96929877497421" lon="13.81978473240097"><ele>288.66666666666663</ele><time>2026-03-22T09:13:47.998Z</time></trkpt><trkpt lat="42.96932236207174" lon="13.819555098938617"><ele>292.0</ele><time>2026-03-22T09:13:48.998Z</time></trkpt><trkpt lat="42.969346747961666" lon="13.81933697778472"><ele>293.0</ele><time>2026-03-22T09:13:49.998Z</time></trkpt><trkpt lat="42.969384982948945" lon="13.818853845645863"><ele>294.0</ele><time>2026-03-22T09:13:51.998Z</time></trkpt><trkpt lat="42.96939800196656" lon="13.818633588101244"><ele>294.5</ele><time>2026-03-22T09:13:52.998Z</time></trkpt><trkpt lat="42.9694077748537" lon="13.818430912262464"><ele>295.0</ele><time>2026-03-22T09:13:53.998Z</time></trkpt><trkpt lat="42.96941950829588" lon="13.8182488272756"><ele>295.5</ele><time>2026-03-22T09:13:54.998Z</time></trkpt><trkpt lat="42.96942571641579" lon="13.81809286854583"><ele>296.0</ele><time>2026-03-22T09:13:55.998Z</time></trkpt><trkpt lat="42.96943384387866" lon="13.81794089772238"><ele>296.0</ele><time>2026-03-22T09:13:56.998Z</time></trkpt><trkpt lat="42.96943671168534" lon="13.81781381524469"><ele>296.0</ele><time>2026-03-22T09:13:57.998Z</time></trkpt><trkpt lat="42.969434035972895" lon="13.817713264130528"><ele>296.0</ele><time>2026-03-22T09:13:58.998Z</time></trkpt><trkpt lat="42.969430168436766" lon="13.817556152024904"><ele>296.0</ele><time>2026-03-22T09:14:00.998Z</time></trkpt><trkpt lat="42.96943063332062" lon="13.81746345568317"><ele>296.0</ele><time>2026-03-22T09:14:01.998Z</time></trkpt><trkpt lat="42.969443199249824" lon="13.817333662466813"><ele>296.0</ele><time>2026-03-22T09:14:02.998Z</time></trkpt><trkpt lat="42.96946102027672" lon="13.817196781510289"><ele>294.7142857142857</ele><time>2026-03-22T09:14:03.998Z</time></trkpt><trkpt lat="42.96947763321878" lon="13.817081335484655"><ele>293.42857142857144</ele><time>2026-03-22T09:14:04.998Z</time></trkpt><trkpt lat="42.96949387225547" lon="13.81697475208641"><ele>292.1428571428571</ele><time>2026-03-22T09:14:05.998Z</time></trkpt><trkpt lat="42.96951383366819" lon="13.816880907701577"><ele>290.8571428571429</ele><time>2026-03-22T09:14:06.998Z</time></trkpt><trkpt lat="42.96953487510535" lon="13.816796745436713"><ele>289.57142857142856</ele><time>2026-03-22T09:14:07.998Z</time></trkpt><trkpt lat="42.96955859816372" lon="13.816716766081363"><ele>288.2857142857143</ele><time>2026-03-22T09:14:08.998Z</time></trkpt><trkpt lat="42.96959430958015" lon="13.81664015132473"><ele>287.0</ele><time>2026-03-22T09:14:10.998Z</time></trkpt><trkpt lat="42.9696528292781" lon="13.816522218691482"><ele>286.4</ele><time>2026-03-22T09:14:13Z</time></trkpt><trkpt lat="42.96969166955125" lon="13.816453648357419"><ele>285.79999999999995</ele><time>2026-03-22T09:14:14Z</time></trkpt><trkpt lat="42.9697361177334" lon="13.81639010716324"><ele>285.2</ele><time>2026-03-22T09:14:15Z</time></trkpt><trkpt lat="42.9697968387437" lon="13.816297349946016"><ele>284.59999999999997</ele><time>2026-03-22T09:14:16Z</time></trkpt><trkpt lat="42.969868333503605" lon="13.816186035486052"><ele>284.0</ele><time>2026-03-22T09:14:17Z</time></trkpt><trkpt lat="42.9699867783912" lon="13.815706498683458"><ele>284.0</ele><time>2026-03-22T09:14:18Z</time></trkpt><trkpt lat="42.9699736641969" lon="13.815529748161692"><ele>284.0</ele><time>2026-03-22T09:14:19Z</time></trkpt><trkpt lat="42.96996884698138" lon="13.81543268225102"><ele>284.0</ele><time>2026-03-22T09:14:20Z</time></trkpt><trkpt lat="42.96996552001955" lon="13.815283988900045"><ele>284.0</ele><time>2026-03-22T09:14:21Z</time></trkpt><trkpt lat="42.96996426019102" lon="13.815078699391291"><ele>283.6666666666667</ele><time>2026-03-22T09:14:22Z</time></trkpt><trkpt lat="42.96996365206895" lon="13.814917516815143"><ele>283.33333333333337</ele><time>2026-03-22T09:14:23Z</time></trkpt><trkpt lat="42.96996544757" lon="13.814799966172213"><ele>283.0</ele><time>2026-03-22T09:14:24Z</time></trkpt><trkpt lat="42.969969598297176" lon="13.814695077386881"><ele>282.6666666666667</ele><time>2026-03-22T09:14:25Z</time></trkpt><trkpt lat="42.96997569388771" lon="13.814598868821754"><ele>282.3333333333333</ele><time>2026-03-22T09:14:26Z</time></trkpt><trkpt lat="42.96998299008861" lon="13.81450984945086"><ele>282.0</ele><time>2026-03-22T09:14:27Z</time></trkpt><trkpt lat="42.96999156356177" lon="13.814417810283214"><ele>282.0</ele><time>2026-03-22T09:14:28Z</time></trkpt><trkpt lat="42.96999999082206" lon="13.814329686526984"><ele>282.0</ele><time>2026-03-22T09:14:29Z</time></trkpt><trkpt lat="42.97000920673211" lon="13.814231334885077"><ele>282.0</ele><time>2026-03-22T09:14:30Z</time></trkpt><trkpt lat="42.97001648071417" lon="13.81412409950239"><ele>282.0</ele><time>2026-03-22T09:14:31Z</time></trkpt><trkpt lat="42.97002092975926" lon="13.814034613052376"><ele>282.0</ele><time>2026-03-22T09:14:32Z</time></trkpt><trkpt lat="42.97002524386756" lon="13.813947840164246"><ele>282.0</ele><time>2026-03-22T09:14:33Z</time></trkpt><trkpt lat="42.97003753667502" lon="13.813760094143253"><ele>275.6</ele><time>2026-03-22T09:14:35Z</time></trkpt><trkpt lat="42.97004252831482" lon="13.813616660165888"><ele>269.2</ele><time>2026-03-22T09:14:37Z</time></trkpt><trkpt lat="42.97004486034459" lon="13.813473838762855"><ele>262.8</ele><time>2026-03-22T09:14:39Z</time></trkpt><trkpt lat="42.9700464843702" lon="13.813332460552392"><ele>256.4</ele><time>2026-03-22T09:14:41Z</time></trkpt><trkpt lat="42.97004982702818" lon="13.813225426878748"><ele>250.0</ele><time>2026-03-22T09:14:43Z</time></trkpt><trkpt lat="42.970056158081306" lon="13.813065111991351"><ele>249.83333333333331</ele><time>2026-03-22T09:14:45Z</time></trkpt><trkpt lat="42.97006159700402" lon="13.81294551089808"><ele>249.66666666666666</ele><time>2026-03-22T09:14:46Z</time></trkpt><trkpt lat="42.97006675430794" lon="13.812832102592308"><ele>249.5</ele><time>2026-03-22T09:14:47Z</time></trkpt><trkpt lat="42.9700707910567" lon="13.812743335074215"><ele>249.33333333333331</ele><time>2026-03-22T09:14:47.999Z</time></trkpt><trkpt lat="42.97007497939408" lon="13.812648795879495"><ele>249.16666666666666</ele><time>2026-03-22T09:14:48.999Z</time></trkpt><trkpt lat="42.97007068945116" lon="13.81247328015623"><ele>249.0</ele><time>2026-03-22T09:14:50.999Z</time></trkpt><trkpt lat="42.970084994629694" lon="13.812254556440053"><ele>250.16666666666666</ele><time>2026-03-22T09:14:51.999Z</time></trkpt><trkpt lat="42.970071180165874" lon="13.812130253564142"><ele>251.33333333333331</ele><time>2026-03-22T09:14:52.999Z</time></trkpt><trkpt lat="42.97005499197806" lon="13.812021355112746"><ele>252.5</ele><time>2026-03-22T09:14:53.999Z</time></trkpt><trkpt lat="42.970032039619106" lon="13.811886585162302"><ele>253.66666666666666</ele><time>2026-03-22T09:14:55.999Z</time></trkpt><trkpt lat="42.970019040099615" lon="13.811785976706817"><ele>254.83333333333331</ele><time>2026-03-22T09:14:57.999Z</time></trkpt><trkpt lat="42.970009760444455" lon="13.811693703370716"><ele>256.0</ele><time>2026-03-22T09:14:59.999Z</time></trkpt><trkpt lat="42.96999547678109" lon="13.811547632636122"><ele>261.25</ele><time>2026-03-22T09:15:01.999Z</time></trkpt><trkpt lat="42.96997823398011" lon="13.81138199219321"><ele>266.5</ele><time>2026-03-22T09:15:03.999Z</time></trkpt><trkpt lat="42.969924967708714" lon="13.811153302386694"><ele>271.75</ele><time>2026-03-22T09:15:05.999Z</time></trkpt><trkpt lat="42.96989832095273" lon="13.81103780713186"><ele>277.0</ele><time>2026-03-22T09:15:07.999Z</time></trkpt><trkpt lat="42.96987418930462" lon="13.810922937867245"><ele>277.0</ele><time>2026-03-22T09:15:09.999Z</time></trkpt><trkpt lat="42.96985497987579" lon="13.81082585630692"><ele>277.0</ele><time>2026-03-22T09:15:11.999Z</time></trkpt><trkpt lat="42.96983581337808" lon="13.810728992173281"><ele>277.0</ele><time>2026-03-22T09:15:13.999Z</time></trkpt><trkpt lat="42.96981458227694" lon="13.810636715600452"><ele>277.0</ele><time>2026-03-22T09:15:15.999Z</time></trkpt><trkpt lat="42.969788804788095" lon="13.810535166665446"><ele>277.0</ele><time>2026-03-22T09:15:17.999Z</time></trkpt><trkpt lat="42.969764194453056" lon="13.810448366655493"><ele>277.0</ele><time>2026-03-22T09:15:19.999Z</time></trkpt><trkpt lat="42.969720587471954" lon="13.810340572679982"><ele>277.0</ele><time>2026-03-22T09:15:22.999Z</time></trkpt><trkpt lat="42.9696384458678" lon="13.81018301252682"><ele>277.0</ele><time>2026-03-22T09:15:25.999Z</time></trkpt><trkpt lat="42.96967817227536" lon="13.810112811762407"><ele>277.0</ele><time>2026-03-22T09:15:26.999Z</time></trkpt><trkpt lat="42.9697077928705" lon="13.810020462930972"><ele>277.0</ele><time>2026-03-22T09:15:27.999Z</time></trkpt><trkpt lat="42.96971493722576" lon="13.809916148623337"><ele>277.0</ele><time>2026-03-22T09:15:28.999Z</time></trkpt><trkpt lat="42.969719617984" lon="13.809816443720425"><ele>277.0</ele><time>2026-03-22T09:15:29.999Z</time></trkpt><trkpt lat="42.969699070237546" lon="13.809708808217568"><ele>277.2</ele><time>2026-03-22T09:15:30.999Z</time></trkpt><trkpt lat="42.96967925964295" lon="13.809588299943126"><ele>277.4</ele><time>2026-03-22T09:15:31.999Z</time></trkpt><trkpt lat="42.9696587231588" lon="13.80945266549577"><ele>277.6</ele><time>2026-03-22T09:15:32.999Z</time></trkpt><trkpt lat="42.969637098427256" lon="13.809311042071737"><ele>277.8</ele><time>2026-03-22T09:15:33.999Z</time></trkpt><trkpt lat="42.96961465115495" lon="13.809176382019745"><ele>278.0</ele><time>2026-03-22T09:15:34.999Z</time></trkpt><trkpt lat="42.9695962643666" lon="13.8090257342297"><ele>278.0</ele><time>2026-03-22T09:15:35.999Z</time></trkpt><trkpt lat="42.969580827362954" lon="13.808873700264332"><ele>278.0</ele><time>2026-03-22T09:15:36.999Z</time></trkpt><trkpt lat="42.96957998483138" lon="13.808743231001287"><ele>278.0</ele><time>2026-03-22T09:15:37.999Z</time></trkpt><trkpt lat="42.969564345050806" lon="13.808594492621085"><ele>278.0</ele><time>2026-03-22T09:15:38.999Z</time></trkpt><trkpt lat="42.96955298496748" lon="13.80846232154849"><ele>278.0</ele><time>2026-03-22T09:15:39.999Z</time></trkpt><trkpt lat="42.9695408744117" lon="13.808350105940361"><ele>278.0</ele><time>2026-03-22T09:15:40.998Z</time></trkpt><trkpt lat="42.96955003123577" lon="13.808215028496273"><ele>278.0</ele><time>2026-03-22T09:15:41.998Z</time></trkpt><trkpt lat="42.96953938616164" lon="13.808084177181167"><ele>278.0</ele><time>2026-03-22T09:15:42.998Z</time></trkpt><trkpt lat="42.96955124215134" lon="13.807974677959935"><ele>278.0</ele><time>2026-03-22T09:15:43.998Z</time></trkpt><trkpt lat="42.96957357156581" lon="13.80781229160545"><ele>278.0</ele><time>2026-03-22T09:15:45.998Z</time></trkpt><trkpt lat="42.96960555778377" lon="13.807697145865351"><ele>280.0</ele><time>2026-03-22T09:15:47.998Z</time></trkpt><trkpt lat="42.969618538739866" lon="13.807603726658499"><ele>282.0</ele><time>2026-03-22T09:15:49.998Z</time></trkpt><trkpt lat="42.96983973824122" lon="13.807255179568092"><ele>284.0</ele><time>2026-03-22T09:15:53.998Z</time></trkpt><trkpt lat="42.970168656569356" lon="13.807233543831526"><ele>273.5</ele><time>2026-03-22T09:15:58.998Z</time></trkpt><trkpt lat="42.97031525660986" lon="13.807232130059537"><ele>263.0</ele><time>2026-03-22T09:16:01.998Z</time></trkpt><trkpt lat="42.97046934112751" lon="13.807902319026066"><ele>262.75</ele><time>2026-03-22T09:16:03.998Z</time></trkpt><trkpt lat="42.970515326752796" lon="13.808035018259082"><ele>262.5</ele><time>2026-03-22T09:16:05.998Z</time></trkpt><trkpt lat="42.970530815379476" lon="13.808196873302302"><ele>262.25</ele><time>2026-03-22T09:16:07.998Z</time></trkpt><trkpt lat="42.97059621681957" lon="13.80831883154588"><ele>262.0</ele><time>2026-03-22T09:16:09.998Z</time></trkpt><trkpt lat="42.970688995825405" lon="13.808434945443695"><ele>263.0</ele><time>2026-03-22T09:16:11.998Z</time></trkpt><trkpt lat="42.970814654242595" lon="13.808515001846683"><ele>264.0</ele><time>2026-03-22T09:16:13.998Z</time></trkpt><trkpt lat="42.970899356150525" lon="13.808554439219447"><ele>265.0</ele><time>2026-03-22T09:16:14.998Z</time></trkpt><trkpt lat="42.97098581982242" lon="13.808604792108891"><ele>266.0</ele><time>2026-03-22T09:16:15.998Z</time></trkpt><trkpt lat="42.97105648631025" lon="13.808662422921312"><ele>267.0</ele><time>2026-03-22T09:16:16.998Z</time></trkpt><trkpt lat="42.97111113807475" lon="13.80874962439258"><ele>261.8</ele><time>2026-03-22T09:16:18Z</time></trkpt><trkpt lat="42.97115436235672" lon="13.808814664181746"><ele>256.6</ele><time>2026-03-22T09:16:19Z</time></trkpt><trkpt lat="42.97123202694449" lon="13.808949519491211"><ele>251.40000000000003</ele><time>2026-03-22T09:16:21Z</time></trkpt><trkpt lat="42.971281592412915" lon="13.809057999380032"><ele>246.20000000000002</ele><time>2026-03-22T09:16:23Z</time></trkpt><trkpt lat="42.971300710952114" lon="13.809150236130456"><ele>241.0</ele><time>2026-03-22T09:16:25Z</time></trkpt><trkpt lat="42.971309168052656" lon="13.809306564552505"><ele>241.49999999999997</ele><time>2026-03-22T09:16:27Z</time></trkpt><trkpt lat="42.97130955469857" lon="13.80939781777115"><ele>242.0</ele><time>2026-03-22T09:16:28Z</time></trkpt><trkpt lat="42.97131526308751" lon="13.809495739404653"><ele>242.5</ele><time>2026-03-22T09:16:29Z</time></trkpt><trkpt lat="42.97132074515027" lon="13.80959015157582"><ele>243.0</ele><time>2026-03-22T09:16:30Z</time></trkpt><trkpt lat="42.97130702386347" lon="13.809735381627466"><ele>243.49999999999997</ele><time>2026-03-22T09:16:32Z</time></trkpt><trkpt lat="42.97128674428105" lon="13.80982470555735"><ele>244.0</ele><time>2026-03-22T09:16:33Z</time></trkpt><trkpt lat="42.971276986802486" lon="13.809926123808825"><ele>243.99999999999997</ele><time>2026-03-22T09:16:34Z</time></trkpt><trkpt lat="42.97127331544573" lon="13.81003351926361"><ele>244.0</ele><time>2026-03-22T09:16:35Z</time></trkpt><trkpt lat="42.97127607125516" lon="13.810138493169212"><ele>244.0</ele><time>2026-03-22T09:16:36Z</time></trkpt><trkpt lat="42.97127429046339" lon="13.810243822396592"><ele>244.0</ele><time>2026-03-22T09:16:37Z</time></trkpt><trkpt lat="42.97127475389117" lon="13.810342240302097"><ele>243.99999999999997</ele><time>2026-03-22T09:16:38Z</time></trkpt><trkpt lat="42.971275651233725" lon="13.810430045098368"><ele>244.0</ele><time>2026-03-22T09:16:39Z</time></trkpt><trkpt lat="42.971284902112075" lon="13.810594140200187"><ele>244.2</ele><time>2026-03-22T09:16:41Z</time></trkpt><trkpt lat="42.97130141314862" lon="13.810681371048439"><ele>244.39999999999998</ele><time>2026-03-22T09:16:42Z</time></trkpt><trkpt lat="42.971359389111946" lon="13.810825029467445"><ele>244.6</ele><time>2026-03-22T09:16:44Z</time></trkpt><trkpt lat="42.97142570838193" lon="13.810937968067966"><ele>244.8</ele><time>2026-03-22T09:16:46Z</time></trkpt><trkpt lat="42.97150195041035" lon="13.811038918158642"><ele>245.0</ele><time>2026-03-22T09:16:48Z</time></trkpt><trkpt lat="42.97156340119006" lon="13.811156606263616"><ele>244.4</ele><time>2026-03-22T09:16:50Z</time></trkpt><trkpt lat="42.971608146849164" lon="13.811289790689703"><ele>243.8</ele><time>2026-03-22T09:16:51.999Z</time></trkpt><trkpt lat="42.9716236182957" lon="13.811418977581383"><ele>243.2</ele><time>2026-03-22T09:16:53.999Z</time></trkpt><trkpt lat="42.97160927584429" lon="13.81155342638798"><ele>242.6</ele><time>2026-03-22T09:16:55.999Z</time></trkpt><trkpt lat="42.97159180069913" lon="13.811689212910256"><ele>242.0</ele><time>2026-03-22T09:16:57.999Z</time></trkpt><trkpt lat="42.971567330827696" lon="13.811795205548819"><ele>240.83333333333334</ele><time>2026-03-22T09:16:58.999Z</time></trkpt><trkpt lat="42.971553489157245" lon="13.811884657874355"><ele>239.66666666666669</ele><time>2026-03-22T09:16:59.999Z</time></trkpt><trkpt lat="42.97154343005892" lon="13.811980126446088"><ele>238.5</ele><time>2026-03-22T09:17:00.999Z</time></trkpt><trkpt lat="42.971532624139556" lon="13.812105303270403"><ele>237.33333333333331</ele><time>2026-03-22T09:17:02.999Z</time></trkpt><trkpt lat="42.971516968850445" lon="13.812216871563065"><ele>236.16666666666666</ele><time>2026-03-22T09:17:04.999Z</time></trkpt><trkpt lat="42.97151222069999" lon="13.812330848425853"><ele>235.0</ele><time>2026-03-22T09:17:15.999Z</time></trkpt><trkpt lat="42.97149207272088" lon="13.812423281403944"><ele>234.99999999999997</ele><time>2026-03-22T09:18:58Z</time></trkpt><trkpt lat="42.97143876917956" lon="13.81248609598581"><ele>235.0</ele><time>2026-03-22T09:19:05.999Z</time></trkpt><trkpt lat="42.97140312603916" lon="13.812585128681627"><ele>235.0</ele><time>2026-03-22T09:19:07.999Z</time></trkpt><trkpt lat="42.971364948569885" lon="13.812703572645356"><ele>235.0</ele><time>2026-03-22T09:19:09.999Z</time></trkpt><trkpt lat="42.9712897128302" lon="13.812761704496495"><ele>234.99999999999997</ele><time>2026-03-22T09:19:12.999Z</time></trkpt><trkpt lat="42.97122319259125" lon="13.812729763975055"><ele>235.0</ele><time>2026-03-22T09:23:35.999Z</time></trkpt><trkpt lat="42.97115721084388" lon="13.812755462058416"><ele>234.66666666666666</ele><time>2026-03-22T09:23:57.999Z</time></trkpt><trkpt lat="42.97112668182637" lon="13.81283598535537"><ele>234.33333333333331</ele><time>2026-03-22T09:24:09.999Z</time></trkpt><trkpt lat="42.97111340881005" lon="13.812936366066221"><ele>234.0</ele><time>2026-03-22T09:24:12.999Z</time></trkpt><trkpt lat="42.97111344815182" lon="13.813065435121073"><ele>233.66666666666669</ele><time>2026-03-22T09:24:14.999Z</time></trkpt><trkpt lat="42.9711214993794" lon="13.813227481918199"><ele>233.33333333333334</ele><time>2026-03-22T09:24:19.998Z</time></trkpt><trkpt lat="42.97115751080491" lon="13.813313249487724"><ele>233.0</ele><time>2026-03-22T09:24:20.998Z</time></trkpt><trkpt lat="42.97119305417266" lon="13.813385671957258"><ele>232.83333333333334</ele><time>2026-03-22T09:24:21.998Z</time></trkpt><trkpt lat="42.97127651348312" lon="13.813546956047114"><ele>232.66666666666669</ele><time>2026-03-22T09:24:23.998Z</time></trkpt><trkpt lat="42.97132649935801" lon="13.813637215745738"><ele>232.5</ele><time>2026-03-22T09:24:24.998Z</time></trkpt><trkpt lat="42.971369544002975" lon="13.813716122203003"><ele>232.33333333333331</ele><time>2026-03-22T09:24:25.998Z</time></trkpt><trkpt lat="42.97140631063188" lon="13.813794744703586"><ele>232.16666666666666</ele><time>2026-03-22T09:24:26.998Z</time></trkpt><trkpt lat="42.97145039952311" lon="13.813888448131012"><ele>232.0</ele><time>2026-03-22T09:24:27.998Z</time></trkpt><trkpt lat="42.971488483311134" lon="13.813990644326369"><ele>231.99999999999997</ele><time>2026-03-22T09:24:28.998Z</time></trkpt><trkpt lat="42.971509839637505" lon="13.814075589296072"><ele>232.0</ele><time>2026-03-22T09:24:29.998Z</time></trkpt><trkpt lat="42.97153626525807" lon="13.81418700437127"><ele>232.0</ele><time>2026-03-22T09:24:30.998Z</time></trkpt><trkpt lat="42.971547283693894" lon="13.814289775906499"><ele>232.0</ele><time>2026-03-22T09:24:31.998Z</time></trkpt><trkpt lat="42.97156541764052" lon="13.814417712235207"><ele>231.99999999999997</ele><time>2026-03-22T09:24:32.998Z</time></trkpt><trkpt lat="42.97157069412791" lon="13.814526057377593"><ele>232.0</ele><time>2026-03-22T09:24:33.998Z</time></trkpt><trkpt lat="42.971585782960815" lon="13.814623700084368"><ele>231.49999999999997</ele><time>2026-03-22T09:24:34.998Z</time></trkpt><trkpt lat="42.97159705467291" lon="13.814721301575496"><ele>231.0</ele><time>2026-03-22T09:24:35.998Z</time></trkpt><trkpt lat="42.9716100533371" lon="13.814816056311416"><ele>230.5</ele><time>2026-03-22T09:24:36.998Z</time></trkpt><trkpt lat="42.9716220088402" lon="13.814959786629355"><ele>230.0</ele><time>2026-03-22T09:24:38.998Z</time></trkpt><trkpt lat="42.97165006530787" lon="13.81509451361397"><ele>229.49999999999997</ele><time>2026-03-22T09:24:40.998Z</time></trkpt><trkpt lat="42.97168772915476" lon="13.81520555302854"><ele>229.0</ele><time>2026-03-22T09:24:43Z</time></trkpt><trkpt lat="42.97172806152335" lon="13.81530359515917"><ele>224.83333333333331</ele><time>2026-03-22T09:24:45Z</time></trkpt><trkpt lat="42.97179786402879" lon="13.815356560861764"><ele>220.66666666666666</ele><time>2026-03-22T09:24:47Z</time></trkpt><trkpt lat="42.971879220627464" lon="13.815373443365845"><ele>216.5</ele><time>2026-03-22T09:24:49Z</time></trkpt><trkpt lat="42.97197013220878" lon="13.815412077566087"><ele>212.33333333333331</ele><time>2026-03-22T09:24:51Z</time></trkpt><trkpt lat="42.97206105808588" lon="13.815445063294561"><ele>208.16666666666666</ele><time>2026-03-22T09:24:53Z</time></trkpt><trkpt lat="42.972133029514524" lon="13.815467030716801"><ele>204.0</ele><time>2026-03-22T09:24:55Z</time></trkpt><trkpt lat="42.972218165197006" lon="13.815492472808812"><ele>204.0</ele><time>2026-03-22T09:24:58Z</time></trkpt><trkpt lat="42.9722874783262" lon="13.815459729083395"><ele>204.0</ele><time>2026-03-22T09:25:01Z</time></trkpt><trkpt lat="42.972317867507336" lon="13.815379471464658"><ele>204.0</ele><time>2026-03-22T09:25:05Z</time></trkpt><trkpt lat="42.97236199552299" lon="13.815307994229082"><ele>204.0</ele><time>2026-03-22T09:25:08Z</time></trkpt><trkpt lat="42.97241188299938" lon="13.815250531507433"><ele>204.0</ele><time>2026-03-22T09:25:10Z</time></trkpt><trkpt lat="42.972473870551745" lon="13.815207466221535"><ele>204.0</ele><time>2026-03-22T09:25:14Z</time></trkpt><trkpt lat="42.97254760786662" lon="13.815191824689489"><ele>204.0</ele><time>2026-03-22T09:25:17Z</time></trkpt><trkpt lat="42.97265753724052" lon="13.815237260507594"><ele>200.2</ele><time>2026-03-22T09:25:20Z</time></trkpt><trkpt lat="42.972741153022106" lon="13.81527050527099"><ele>196.39999999999998</ele><time>2026-03-22T09:25:22Z</time></trkpt><trkpt lat="42.972861608259194" lon="13.815286713330234"><ele>192.6</ele><time>2026-03-22T09:25:24Z</time></trkpt><trkpt lat="42.97296812170034" lon="13.81529983259283"><ele>188.8</ele><time>2026-03-22T09:25:25.999Z</time></trkpt><trkpt lat="42.973052718574465" lon="13.815348392228026"><ele>185.0</ele><time>2026-03-22T09:25:27.999Z</time></trkpt><trkpt lat="42.97309889650634" lon="13.815407336388215"><ele>185.0</ele><time>2026-03-22T09:25:29.999Z</time></trkpt><trkpt lat="42.97300880281156" lon="13.81544077556767"><ele>185.0</ele><time>2026-03-22T09:25:33.999Z</time></trkpt><trkpt lat="42.97294238715374" lon="13.815423558389321"><ele>185.0</ele><time>2026-03-22T09:25:35.999Z</time></trkpt><trkpt lat="42.972848180634394" lon="13.815449422843269"><ele>185.0</ele><time>2026-03-22T09:25:38.999Z</time></trkpt><trkpt lat="42.97278082410705" lon="13.81551287364181"><ele>185.0</ele><time>2026-03-22T09:25:41.999Z</time></trkpt><trkpt lat="42.97274198402575" lon="13.81558378422991"><ele>185.0</ele><time>2026-03-22T09:25:50.999Z</time></trkpt><trkpt lat="42.972742896814815" lon="13.815676584896558"><ele>185.0</ele><time>2026-03-22T09:25:57.999Z</time></trkpt><trkpt lat="42.972769784951986" lon="13.81576594854524"><ele>185.0</ele><time>2026-03-22T09:26:16.999Z</time></trkpt><trkpt lat="42.97281063609825" lon="13.815863511320302"><ele>185.0</ele><time>2026-03-22T09:26:24.998Z</time></trkpt><trkpt lat="42.97287184474766" lon="13.815942570170769"><ele>185.0</ele><time>2026-03-22T09:26:27.998Z</time></trkpt><trkpt lat="42.97298398708501" lon="13.815930036491348"><ele>185.0</ele><time>2026-03-22T09:26:30.998Z</time></trkpt><trkpt lat="42.97306314406011" lon="13.815961322225428"><ele>185.0</ele><time>2026-03-22T09:26:32.998Z</time></trkpt><trkpt lat="42.973142425252895" lon="13.81598652759132"><ele>186.0</ele><time>2026-03-22T09:26:34.998Z</time></trkpt><trkpt lat="42.97329872697997" lon="13.816013921236802"><ele>187.0</ele><time>2026-03-22T09:26:45.998Z</time></trkpt><trkpt lat="42.97337459705007" lon="13.816062246838039"><ele>188.0</ele><time>2026-03-22T09:26:48Z</time></trkpt><trkpt lat="42.97345025526736" lon="13.81606743775397"><ele>189.0</ele><time>2026-03-22T09:27:12Z</time></trkpt><trkpt lat="42.97351388376483" lon="13.816077940583652"><ele>190.0</ele><time>2026-03-22T09:27:15Z</time></trkpt><trkpt lat="42.97358383558653" lon="13.816050446954016"><ele>187.5</ele><time>2026-03-22T09:27:18Z</time></trkpt><trkpt lat="42.973655267765096" lon="13.816006167928533"><ele>185.0</ele><time>2026-03-22T09:27:21Z</time></trkpt><trkpt lat="42.97372611204294" lon="13.815978210239162"><ele>182.5</ele><time>2026-03-22T09:27:25Z</time></trkpt><trkpt lat="42.973813318910764" lon="13.815979040494609"><ele>180.0</ele><time>2026-03-22T09:27:28Z</time></trkpt><trkpt lat="42.97389306539589" lon="13.816028282196129"><ele>177.5</ele><time>2026-03-22T09:27:32.999Z</time></trkpt><trkpt lat="42.97397784488351" lon="13.816053008116146"><ele>175.0</ele><time>2026-03-22T09:27:35.999Z</time></trkpt><trkpt lat="42.97404610830626" lon="13.816019453711185"><ele>174.5</ele><time>2026-03-22T09:27:38.999Z</time></trkpt><trkpt lat="42.9741081434481" lon="13.815981501420975"><ele>174.0</ele><time>2026-03-22T09:27:40.999Z</time></trkpt><trkpt lat="42.974202960261096" lon="13.815982276167176"><ele>173.5</ele><time>2026-03-22T09:27:43.999Z</time></trkpt><trkpt lat="42.97427615154256" lon="13.815959905744531"><ele>173.0</ele><time>2026-03-22T09:27:45.999Z</time></trkpt><trkpt lat="42.97437895141826" lon="13.815926629655065"><ele>172.5</ele><time>2026-03-22T09:27:48.999Z</time></trkpt><trkpt lat="42.9744481574599" lon="13.815935087547565"><ele>172.0</ele><time>2026-03-22T09:27:49.999Z</time></trkpt><trkpt lat="42.974539655323056" lon="13.81593056068732"><ele>169.8</ele><time>2026-03-22T09:27:50.999Z</time></trkpt><trkpt lat="42.97460626867287" lon="13.8159937524596"><ele>167.6</ele><time>2026-03-22T09:27:52.999Z</time></trkpt><trkpt lat="42.97470301931363" lon="13.816033535937262"><ele>165.4</ele><time>2026-03-22T09:27:54.999Z</time></trkpt><trkpt lat="42.9747914732445" lon="13.816088104594968"><ele>163.20000000000002</ele><time>2026-03-22T09:27:56.999Z</time></trkpt><trkpt lat="42.97488337654612" lon="13.81615459397647"><ele>161.0</ele><time>2026-03-22T09:27:58.999Z</time></trkpt><trkpt lat="42.9749549772811" lon="13.816083200347153"><ele>161.0</ele><time>2026-03-22T09:28:01.999Z</time></trkpt><trkpt lat="42.9749927093763" lon="13.816014271483954"><ele>161.0</ele><time>2026-03-22T09:28:02.999Z</time></trkpt><trkpt lat="42.97508479943919" lon="13.815928318671583"><ele>161.0</ele><time>2026-03-22T09:28:04.999Z</time></trkpt><trkpt lat="42.97515628928375" lon="13.815863011107785"><ele>161.0</ele><time>2026-03-22T09:28:06.999Z</time></trkpt><trkpt lat="42.975223611566626" lon="13.815781984923198"><ele>161.0</ele><time>2026-03-22T09:28:10.999Z</time></trkpt><trkpt lat="42.975308825874976" lon="13.815830238841253"><ele>161.0</ele><time>2026-03-22T09:28:13.999Z</time></trkpt><trkpt lat="42.975258446682425" lon="13.815603510500395"><ele>158.5</ele><time>2026-03-22T09:29:02Z</time></trkpt><trkpt lat="42.97526586857708" lon="13.815516975118811"><ele>156.0</ele><time>2026-03-22T09:29:03Z</time></trkpt><trkpt lat="42.975301397223646" lon="13.815408494872917"><ele>153.5</ele><time>2026-03-22T09:29:05Z</time></trkpt><trkpt lat="42.975411927591615" lon="13.81534391665532"><ele>151.0</ele><time>2026-03-22T09:29:07Z</time></trkpt><trkpt lat="42.97547420861032" lon="13.815288212655323"><ele>148.5</ele><time>2026-03-22T09:29:09Z</time></trkpt><trkpt lat="42.97548476340838" lon="13.815169528138572"><ele>146.0</ele><time>2026-03-22T09:29:12Z</time></trkpt><trkpt lat="42.9754394691088" lon="13.815047776932355"><ele>143.8</ele><time>2026-03-22T09:29:14Z</time></trkpt><trkpt lat="42.975406187196505" lon="13.814895102962506"><ele>141.6</ele><time>2026-03-22T09:29:16Z</time></trkpt><trkpt lat="42.97539808979029" lon="13.814782728168112"><ele>139.4</ele><time>2026-03-22T09:29:18Z</time></trkpt><trkpt lat="42.97550780878809" lon="13.814700151239734"><ele>137.2</ele><time>2026-03-22T09:29:20Z</time></trkpt><trkpt lat="42.97555856315926" lon="13.81459462692614"><ele>135.0</ele><time>2026-03-22T09:29:22Z</time></trkpt><trkpt lat="42.97558642471032" lon="13.81443594830734"><ele>132.0</ele><time>2026-03-22T09:29:24Z</time></trkpt><trkpt lat="42.97564048270173" lon="13.81430043972436"><ele>129.0</ele><time>2026-03-22T09:29:26Z</time></trkpt><trkpt lat="42.975709626530346" lon="13.814272286143733"><ele>126.0</ele><time>2026-03-22T09:29:34Z</time></trkpt><trkpt lat="42.97571013189008" lon="13.81414678036662"><ele>123.0</ele><time>2026-03-22T09:29:37.999Z</time></trkpt><trkpt lat="42.975697882049474" lon="13.814022282112226"><ele>120.0</ele><time>2026-03-22T09:29:39.999Z</time></trkpt><trkpt lat="42.975743838183675" lon="13.8139270006252"><ele>120.0</ele><time>2026-03-22T09:29:42.999Z</time></trkpt><trkpt lat="42.975771263034815" lon="13.813826579163191"><ele>120.0</ele><time>2026-03-22T09:29:44.999Z</time></trkpt><trkpt lat="42.97573587086893" lon="13.813741643753826"><ele>120.0</ele><time>2026-03-22T09:29:46.999Z</time></trkpt><trkpt lat="42.97566052947695" lon="13.81365607217946"><ele>120.0</ele><time>2026-03-22T09:29:48.999Z</time></trkpt><trkpt lat="42.97561055336801" lon="13.813585949984379"><ele>120.0</ele><time>2026-03-22T09:29:49.999Z</time></trkpt><trkpt lat="42.975557785975354" lon="13.81353157811811"><ele>120.0</ele><time>2026-03-22T09:29:50.999Z</time></trkpt><trkpt lat="42.97548182661341" lon="13.813452316532196"><ele>119.66666666666667</ele><time>2026-03-22T09:29:52.999Z</time></trkpt><trkpt lat="42.97542634971018" lon="13.813407031445973"><ele>119.33333333333334</ele><time>2026-03-22T09:29:54.999Z</time></trkpt><trkpt lat="42.97537392757573" lon="13.813330199238024"><ele>119.0</ele><time>2026-03-22T09:29:57.999Z</time></trkpt><trkpt lat="42.97545143489627" lon="13.813268536738324"><ele>118.66666666666667</ele><time>2026-03-22T09:30:00.999Z</time></trkpt><trkpt lat="42.97553656555065" lon="13.813324141429275"><ele>118.33333333333334</ele><time>2026-03-22T09:30:02.999Z</time></trkpt><trkpt lat="42.97560112982816" lon="13.813382320777226"><ele>118.0</ele><time>2026-03-22T09:30:04.999Z</time></trkpt><trkpt lat="42.97569889420689" lon="13.813446925109805"><ele>118.00000000000001</ele><time>2026-03-22T09:30:12.999Z</time></trkpt><trkpt lat="42.97580066722957" lon="13.81345635116902"><ele>118.0</ele><time>2026-03-22T09:30:15.999Z</time></trkpt><trkpt lat="42.97588086801295" lon="13.813512628380272"><ele>118.0</ele><time>2026-03-22T09:30:17.999Z</time></trkpt><trkpt lat="42.975948447597276" lon="13.813581736056625"><ele>118.0</ele><time>2026-03-22T09:30:21.999Z</time></trkpt><trkpt lat="42.97601454727113" lon="13.813588219915369"><ele>118.00000000000001</ele><time>2026-03-22T09:30:24.999Z</time></trkpt><trkpt lat="42.976112171095004" lon="13.813561557478765"><ele>118.0</ele><time>2026-03-22T09:31:08Z</time></trkpt><trkpt lat="42.97617662748267" lon="13.813540034413107"><ele>115.60000000000001</ele><time>2026-03-22T09:31:09Z</time></trkpt><trkpt lat="42.976259849823734" lon="13.813519516084455"><ele>113.20000000000002</ele><time>2026-03-22T09:31:11Z</time></trkpt><trkpt lat="42.97635353028751" lon="13.81347755024773"><ele>110.8</ele><time>2026-03-22T09:31:23Z</time></trkpt><trkpt lat="42.97646613786621" lon="13.813465093395857"><ele>108.4</ele><time>2026-03-22T09:31:25Z</time></trkpt><trkpt lat="42.976567218992514" lon="13.813483245716254"><ele>106.0</ele><time>2026-03-22T09:31:27Z</time></trkpt><trkpt lat="42.976699965249814" lon="13.813480343522343"><ele>103.33333333333334</ele><time>2026-03-22T09:31:30Z</time></trkpt><trkpt lat="42.976786581700246" lon="13.813467600078456"><ele>100.66666666666667</ele><time>2026-03-22T09:31:32Z</time></trkpt><trkpt lat="42.97688003566874" lon="13.81346182314336"><ele>98.0</ele><time>2026-03-22T09:31:34Z</time></trkpt><trkpt lat="42.976989042197395" lon="13.81350421363502"><ele>95.33333333333334</ele><time>2026-03-22T09:31:36Z</time></trkpt><trkpt lat="42.977054323049785" lon="13.81350419290685"><ele>92.66666666666667</ele><time>2026-03-22T09:31:37Z</time></trkpt><trkpt lat="42.97712394060957" lon="13.81350021666341"><ele>90.0</ele><time>2026-03-22T09:31:38Z</time></trkpt><trkpt lat="42.97719798307768" lon="13.813495889755327"><ele>90.0</ele><time>2026-03-22T09:31:39Z</time></trkpt><trkpt lat="42.97731311833882" lon="13.813490108533435"><ele>90.0</ele><time>2026-03-22T09:31:41Z</time></trkpt><trkpt lat="42.977386797541385" lon="13.813430199860234"><ele>90.0</ele><time>2026-03-22T09:31:42Z</time></trkpt><trkpt lat="42.97748013285861" lon="13.813329153068757"><ele>90.0</ele><time>2026-03-22T09:31:43.999Z</time></trkpt><trkpt lat="42.97756764616975" lon="13.813236634394164"><ele>90.0</ele><time>2026-03-22T09:31:45.999Z</time></trkpt><trkpt lat="42.97765719377307" lon="13.813220003862"><ele>85.6</ele><time>2026-03-22T09:31:47.999Z</time></trkpt><trkpt lat="42.97774791234368" lon="13.813266202858903"><ele>81.2</ele><time>2026-03-22T09:31:49.999Z</time></trkpt><trkpt lat="42.97783503664422" lon="13.813253230943698"><ele>76.8</ele><time>2026-03-22T09:31:51.999Z</time></trkpt><trkpt lat="42.977957951602434" lon="13.813219589864932"><ele>72.4</ele><time>2026-03-22T09:31:53.999Z</time></trkpt><trkpt lat="42.978042372702845" lon="13.81323573691196"><ele>68.0</ele><time>2026-03-22T09:31:55.999Z</time></trkpt><trkpt lat="42.97812824385962" lon="13.813222278644007"><ele>68.0</ele><time>2026-03-22T09:31:57.999Z</time></trkpt><trkpt lat="42.97819547301713" lon="13.813209437667098"><ele>68.0</ele><time>2026-03-22T09:31:59.999Z</time></trkpt><trkpt lat="42.978261778878974" lon="13.813233453657542"><ele>68.0</ele><time>2026-03-22T09:32:01.999Z</time></trkpt><trkpt lat="42.97833118669807" lon="13.813230127480507"><ele>68.0</ele><time>2026-03-22T09:32:03.999Z</time></trkpt><trkpt lat="42.978402928752296" lon="13.813229595489771"><ele>68.0</ele><time>2026-03-22T09:32:05.999Z</time></trkpt><trkpt lat="42.97847353847223" lon="13.81328855684829"><ele>68.0</ele><time>2026-03-22T09:32:08.999Z</time></trkpt><trkpt lat="42.978562080217166" lon="13.81331022770163"><ele>64.83333333333334</ele><time>2026-03-22T09:32:10.999Z</time></trkpt><trkpt lat="42.97862179998817" lon="13.813239725467445"><ele>61.66666666666667</ele><time>2026-03-22T09:32:12.999Z</time></trkpt><trkpt lat="42.97869895710821" lon="13.813248292770231"><ele>58.5</ele><time>2026-03-22T09:32:14.999Z</time></trkpt><trkpt lat="42.978819580884135" lon="13.81332726978803"><ele>55.33333333333333</ele><time>2026-03-22T09:32:16.999Z</time></trkpt><trkpt lat="42.97888968159105" lon="13.813364160420038"><ele>52.166666666666664</ele><time>2026-03-22T09:32:17.999Z</time></trkpt><trkpt lat="42.97895493596611" lon="13.81341276939895"><ele>49.0</ele><time>2026-03-22T09:32:18.999Z</time></trkpt><trkpt lat="42.979024466061354" lon="13.813463469385864"><ele>48.99999999999999</ele><time>2026-03-22T09:32:19.999Z</time></trkpt><trkpt lat="42.97910138762046" lon="13.813498537772059"><ele>49.0</ele><time>2026-03-22T09:32:20.999Z</time></trkpt><trkpt lat="42.97917879393488" lon="13.813541175549851"><ele>49.0</ele><time>2026-03-22T09:32:21.999Z</time></trkpt><trkpt lat="42.97925121451248" lon="13.813575352901504"><ele>49.0</ele><time>2026-03-22T09:32:22.999Z</time></trkpt><trkpt lat="42.97931422801452" lon="13.813599527138518"><ele>48.99999999999999</ele><time>2026-03-22T09:32:23.999Z</time></trkpt><trkpt lat="42.97939884409415" lon="13.81370641224578"><ele>49.0</ele><time>2026-03-22T09:32:25.999Z</time></trkpt><trkpt lat="42.97947384243756" lon="13.813711242330973"><ele>46.5</ele><time>2026-03-22T09:32:27.999Z</time></trkpt><trkpt lat="42.97951719539516" lon="13.813130985524658"><ele>44.0</ele><time>2026-03-22T09:35:59.999Z</time></trkpt><trkpt lat="42.97952693439906" lon="13.812971702471112"><ele>44.0</ele><time>2026-03-22T09:36:00.999Z</time></trkpt><trkpt lat="42.979550369295964" lon="13.81277060373658"><ele>44.0</ele><time>2026-03-22T09:36:01.999Z</time></trkpt><trkpt lat="42.97956288332212" lon="13.812585191908854"><ele>44.0</ele><time>2026-03-22T09:36:02.999Z</time></trkpt><trkpt lat="42.979584019193325" lon="13.812354152143262"><ele>44.0</ele><time>2026-03-22T09:36:03.999Z</time></trkpt><trkpt lat="42.9796215963449" lon="13.812058862624612"><ele>44.0</ele><time>2026-03-22T09:36:04.999Z</time></trkpt><trkpt lat="42.979656390689755" lon="13.811780398644832"><ele>44.0</ele><time>2026-03-22T09:36:05.999Z</time></trkpt><trkpt lat="42.979677074431876" lon="13.811544401844452"><ele>44.33333333333333</ele><time>2026-03-22T09:36:06.999Z</time></trkpt><trkpt lat="42.97970000785767" lon="13.811318636740946"><ele>44.666666666666664</ele><time>2026-03-22T09:36:07.999Z</time></trkpt><trkpt lat="42.979727788376614" lon="13.811112267421352"><ele>45.0</ele><time>2026-03-22T09:36:08.999Z</time></trkpt><trkpt lat="42.979746557249136" lon="13.810926937159536"><ele>45.0</ele><time>2026-03-22T09:36:09.999Z</time></trkpt><trkpt lat="42.97975681741723" lon="13.810757580520734"><ele>45.0</ele><time>2026-03-22T09:36:10.999Z</time></trkpt><trkpt lat="42.97977215584483" lon="13.81059914816433"><ele>45.0</ele><time>2026-03-22T09:36:11.999Z</time></trkpt><trkpt lat="42.97979773590364" lon="13.810422118479766"><ele>45.0</ele><time>2026-03-22T09:36:12.999Z</time></trkpt><trkpt lat="42.979813079444384" lon="13.810209401438097"><ele>45.666666666666664</ele><time>2026-03-22T09:36:13.999Z</time></trkpt><trkpt lat="42.979832604510904" lon="13.809956134768573"><ele>46.33333333333333</ele><time>2026-03-22T09:36:14.999Z</time></trkpt><trkpt lat="42.979865626159146" lon="13.80967076175998"><ele>47.0</ele><time>2026-03-22T09:36:15.999Z</time></trkpt><trkpt lat="42.97989219342349" lon="13.80934766983966"><ele>47.0</ele><time>2026-03-22T09:36:16.999Z</time></trkpt><trkpt lat="42.97991643515562" lon="13.809025556185599"><ele>47.0</ele><time>2026-03-22T09:36:17.999Z</time></trkpt><trkpt lat="42.97994487444696" lon="13.808720849660213"><ele>47.33333333333333</ele><time>2026-03-22T09:36:18.999Z</time></trkpt><trkpt lat="42.979969499296196" lon="13.808442833417825"><ele>47.666666666666664</ele><time>2026-03-22T09:36:19.999Z</time></trkpt><trkpt lat="42.979989796421485" lon="13.808208819999905"><ele>48.0</ele><time>2026-03-22T09:36:20.999Z</time></trkpt><trkpt lat="42.98000595778948" lon="13.808027873830785"><ele>48.0</ele><time>2026-03-22T09:36:21.999Z</time></trkpt><trkpt lat="42.98001365422822" lon="13.807890995285664"><ele>48.0</ele><time>2026-03-22T09:36:22.999Z</time></trkpt><trkpt lat="42.980016355252324" lon="13.807775023958971"><ele>48.0</ele><time>2026-03-22T09:36:23.999Z</time></trkpt><trkpt lat="42.980014375812424" lon="13.807666409567295"><ele>48.0</ele><time>2026-03-22T09:36:24.999Z</time></trkpt><trkpt lat="42.9800126060185" lon="13.80757109154816"><ele>48.0</ele><time>2026-03-22T09:36:25.999Z</time></trkpt><trkpt lat="42.98000488321586" lon="13.80741409701655"><ele>48.0</ele><time>2026-03-22T09:36:27.999Z</time></trkpt><trkpt lat="42.98000076197779" lon="13.807211726584631"><ele>48.0</ele><time>2026-03-22T09:36:29.999Z</time></trkpt><trkpt lat="42.97999489205668" lon="13.807046679676265"><ele>48.0</ele><time>2026-03-22T09:36:30.999Z</time></trkpt><trkpt lat="42.97998599649122" lon="13.806838759415033"><ele>48.0</ele><time>2026-03-22T09:36:31.999Z</time></trkpt><trkpt lat="42.9799737171493" lon="13.806598489194123"><ele>48.66666666666667</ele><time>2026-03-22T09:36:32.999Z</time></trkpt><trkpt lat="42.979953818868246" lon="13.806337785122338"><ele>49.333333333333336</ele><time>2026-03-22T09:36:33.999Z</time></trkpt><trkpt lat="42.979930061272945" lon="13.806104835223437"><ele>50.0</ele><time>2026-03-22T09:36:34.999Z</time></trkpt><trkpt lat="42.979913114983354" lon="13.805882584470117"><ele>50.0</ele><time>2026-03-22T09:36:35.999Z</time></trkpt><trkpt lat="42.97990992216951" lon="13.805682719509942"><ele>50.0</ele><time>2026-03-22T09:36:36.999Z</time></trkpt><trkpt lat="42.97990142148597" lon="13.805502716524698"><ele>50.0</ele><time>2026-03-22T09:36:37.999Z</time></trkpt><trkpt lat="42.979873844206004" lon="13.805306716631232"><ele>50.0</ele><time>2026-03-22T09:36:38.999Z</time></trkpt><trkpt lat="42.97983558010467" lon="13.805079974480163"><ele>50.0</ele><time>2026-03-22T09:36:39.999Z</time></trkpt><trkpt lat="42.979791629678076" lon="13.804841583079842"><ele>50.0</ele><time>2026-03-22T09:36:40.999Z</time></trkpt><trkpt lat="42.97975589409352" lon="13.804611790434928"><ele>50.0</ele><time>2026-03-22T09:36:41.999Z</time></trkpt><trkpt lat="42.979720779785936" lon="13.804386887020103"><ele>50.333333333333336</ele><time>2026-03-22T09:36:42.999Z</time></trkpt><trkpt lat="42.97968657708429" lon="13.804157571059122"><ele>50.66666666666667</ele><time>2026-03-22T09:36:43.999Z</time></trkpt><trkpt lat="42.979652965849965" lon="13.80392753813685"><ele>51.0</ele><time>2026-03-22T09:36:44.999Z</time></trkpt><trkpt lat="42.9796176082868" lon="13.803703116646147"><ele>51.0</ele><time>2026-03-22T09:36:45.999Z</time></trkpt><trkpt lat="42.97958492717632" lon="13.803500828590686"><ele>51.0</ele><time>2026-03-22T09:36:46.999Z</time></trkpt><trkpt lat="42.97955714593039" lon="13.803317428263108"><ele>51.0</ele><time>2026-03-22T09:36:47.999Z</time></trkpt><trkpt lat="42.979522745701026" lon="13.803134783609416"><ele>51.0</ele><time>2026-03-22T09:36:48.999Z</time></trkpt><trkpt lat="42.97948220326429" lon="13.802945874818974"><ele>51.33333333333333</ele><time>2026-03-22T09:36:49.999Z</time></trkpt><trkpt lat="42.97944690342712" lon="13.802745025098865"><ele>51.666666666666664</ele><time>2026-03-22T09:36:50.999Z</time></trkpt><trkpt lat="42.97940797775235" lon="13.802507760341102"><ele>52.0</ele><time>2026-03-22T09:36:51.999Z</time></trkpt><trkpt lat="42.97936378107855" lon="13.802273635447106"><ele>52.33333333333333</ele><time>2026-03-22T09:36:52.998Z</time></trkpt><trkpt lat="42.979318763264075" lon="13.802055391394168"><ele>52.66666666666667</ele><time>2026-03-22T09:36:53.998Z</time></trkpt><trkpt lat="42.979270446462294" lon="13.801810275678294"><ele>53.0</ele><time>2026-03-22T09:36:54.998Z</time></trkpt><trkpt lat="42.97922555817374" lon="13.801531629533596"><ele>53.0</ele><time>2026-03-22T09:36:55.998Z</time></trkpt><trkpt lat="42.97918556855222" lon="13.801289563607849"><ele>53.0</ele><time>2026-03-22T09:36:56.998Z</time></trkpt><trkpt lat="42.97914439450818" lon="13.801063846755062"><ele>53.0</ele><time>2026-03-22T09:36:57.998Z</time></trkpt><trkpt lat="42.97911062497226" lon="13.800836701179607"><ele>53.66666666666667</ele><time>2026-03-22T09:36:58.998Z</time></trkpt><trkpt lat="42.97907726331105" lon="13.800602785600413"><ele>54.33333333333333</ele><time>2026-03-22T09:36:59.998Z</time></trkpt><trkpt lat="42.979043581566366" lon="13.800367722567813"><ele>55.0</ele><time>2026-03-22T09:37:00.998Z</time></trkpt><trkpt lat="42.979003352513054" lon="13.800123379616677"><ele>55.0</ele><time>2026-03-22T09:37:01.998Z</time></trkpt><trkpt lat="42.978964975028624" lon="13.79987837959303"><ele>55.0</ele><time>2026-03-22T09:37:02.998Z</time></trkpt><trkpt lat="42.97892772205034" lon="13.79963489225043"><ele>55.0</ele><time>2026-03-22T09:37:03.998Z</time></trkpt><trkpt lat="42.97888696353222" lon="13.799383774415942"><ele>54.666666666666664</ele><time>2026-03-22T09:37:04.998Z</time></trkpt><trkpt lat="42.978853798539355" lon="13.799137521795535"><ele>54.33333333333333</ele><time>2026-03-22T09:37:05.998Z</time></trkpt><trkpt lat="42.978819337962946" lon="13.798890707029772"><ele>54.0</ele><time>2026-03-22T09:37:06.998Z</time></trkpt><trkpt lat="42.978782422220995" lon="13.798650616325256"><ele>54.0</ele><time>2026-03-22T09:37:07.998Z</time></trkpt><trkpt lat="42.97873806244981" lon="13.798419762868148"><ele>54.0</ele><time>2026-03-22T09:37:08.998Z</time></trkpt><trkpt lat="42.97868089952997" lon="13.798205421129223"><ele>54.0</ele><time>2026-03-22T09:37:09.998Z</time></trkpt><trkpt lat="42.97861995339973" lon="13.797987681626367"><ele>54.0</ele><time>2026-03-22T09:37:10.998Z</time></trkpt><trkpt lat="42.97855122189887" lon="13.797758622812635"><ele>54.0</ele><time>2026-03-22T09:37:11.998Z</time></trkpt><trkpt lat="42.97848378528025" lon="13.797518597569024"><ele>54.0</ele><time>2026-03-22T09:37:12.998Z</time></trkpt><trkpt lat="42.978412266290555" lon="13.797282430136736"><ele>55.0</ele><time>2026-03-22T09:37:13.998Z</time></trkpt><trkpt lat="42.978351148785215" lon="13.797082477256424"><ele>56.0</ele><time>2026-03-22T09:37:14.998Z</time></trkpt><trkpt lat="42.978298121664025" lon="13.796897982271854"><ele>57.0</ele><time>2026-03-22T09:37:15.998Z</time></trkpt><trkpt lat="42.978263201093064" lon="13.79673186495935"><ele>58.0</ele><time>2026-03-22T09:37:16.998Z</time></trkpt><trkpt lat="42.97824194307343" lon="13.796548564992815"><ele>58.0</ele><time>2026-03-22T09:37:18Z</time></trkpt><trkpt lat="42.97821179654665" lon="13.796321648142003"><ele>58.0</ele><time>2026-03-22T09:37:19Z</time></trkpt><trkpt lat="42.97818181995013" lon="13.79607487801105"><ele>58.0</ele><time>2026-03-22T09:37:20Z</time></trkpt><trkpt lat="42.978150891174245" lon="13.795856522617578"><ele>58.0</ele><time>2026-03-22T09:37:21Z</time></trkpt><trkpt lat="42.97811906524487" lon="13.795669061434591"><ele>58.0</ele><time>2026-03-22T09:37:22Z</time></trkpt><trkpt lat="42.978090181549554" lon="13.795499305981627"><ele>58.0</ele><time>2026-03-22T09:37:23Z</time></trkpt><trkpt lat="42.97806122729289" lon="13.79534432218568"><ele>58.0</ele><time>2026-03-22T09:37:24Z</time></trkpt><trkpt lat="42.97802315476082" lon="13.795201805106894"><ele>57.75</ele><time>2026-03-22T09:37:25Z</time></trkpt><trkpt lat="42.97797658356558" lon="13.795044077479755"><ele>57.5</ele><time>2026-03-22T09:37:26Z</time></trkpt><trkpt lat="42.97791343686872" lon="13.794875027614502"><ele>57.25</ele><time>2026-03-22T09:37:27Z</time></trkpt><trkpt lat="42.97783197274855" lon="13.794700262081829"><ele>57.0</ele><time>2026-03-22T09:37:28Z</time></trkpt><trkpt lat="42.97773545587692" lon="13.794520499828693"><ele>57.0</ele><time>2026-03-22T09:37:29Z</time></trkpt><trkpt lat="42.97762729108011" lon="13.794341243186745"><ele>57.0</ele><time>2026-03-22T09:37:30Z</time></trkpt><trkpt lat="42.97751303435964" lon="13.794167126574571"><ele>57.0</ele><time>2026-03-22T09:37:31Z</time></trkpt><trkpt lat="42.97740124000537" lon="13.794000986839638"><ele>57.66666666666667</ele><time>2026-03-22T09:37:32Z</time></trkpt><trkpt lat="42.977292128319505" lon="13.79383088600207"><ele>58.333333333333336</ele><time>2026-03-22T09:37:33Z</time></trkpt><trkpt lat="42.97718836771265" lon="13.793652495312172"><ele>59.0</ele><time>2026-03-22T09:37:34Z</time></trkpt><trkpt lat="42.97710265696468" lon="13.79345584401707"><ele>59.0</ele><time>2026-03-22T09:37:35Z</time></trkpt><trkpt lat="42.97703731547155" lon="13.793248428860812"><ele>59.0</ele><time>2026-03-22T09:37:36Z</time></trkpt><trkpt lat="42.976968917967866" lon="13.793044324411447"><ele>59.0</ele><time>2026-03-22T09:37:37Z</time></trkpt><trkpt lat="42.9768946930234" lon="13.792863574743057"><ele>59.0</ele><time>2026-03-22T09:37:38Z</time></trkpt><trkpt lat="42.976821944336464" lon="13.79270679745399"><ele>59.0</ele><time>2026-03-22T09:37:39Z</time></trkpt><trkpt lat="42.976760519741795" lon="13.792564408677855"><ele>59.0</ele><time>2026-03-22T09:37:40Z</time></trkpt><trkpt lat="42.976705264822996" lon="13.792430850406488"><ele>59.0</ele><time>2026-03-22T09:37:41Z</time></trkpt><trkpt lat="42.97663783313998" lon="13.792297321502282"><ele>59.75</ele><time>2026-03-22T09:37:42Z</time></trkpt><trkpt lat="42.97656507631811" lon="13.792160348632478"><ele>60.5</ele><time>2026-03-22T09:37:43Z</time></trkpt><trkpt lat="42.976505487692954" lon="13.792014358526796"><ele>61.25</ele><time>2026-03-22T09:37:44Z</time></trkpt><trkpt lat="42.97643550407613" lon="13.791870229359132"><ele>62.0</ele><time>2026-03-22T09:37:45Z</time></trkpt><trkpt lat="42.97637910035537" lon="13.791719234694934"><ele>62.0</ele><time>2026-03-22T09:37:46Z</time></trkpt><trkpt lat="42.976329084000994" lon="13.791581794967337"><ele>62.0</ele><time>2026-03-22T09:37:47Z</time></trkpt><trkpt lat="42.976285938644416" lon="13.791482479908193"><ele>62.0</ele><time>2026-03-22T09:37:48Z</time></trkpt><trkpt lat="42.97624956799163" lon="13.791395563434726"><ele>62.0</ele><time>2026-03-22T09:37:49Z</time></trkpt><trkpt lat="42.97621313676263" lon="13.791283075070645"><ele>62.0</ele><time>2026-03-22T09:37:51Z</time></trkpt><trkpt lat="42.97632157582417" lon="13.791289542133773"><ele>62.0</ele><time>2026-03-22T09:37:52Z</time></trkpt><trkpt lat="42.9764570316172" lon="13.791259064508118"><ele>62.0</ele><time>2026-03-22T09:37:53.999Z</time></trkpt><trkpt lat="42.97654187841403" lon="13.791233567718733"><ele>62.0</ele><time>2026-03-22T09:37:54.999Z</time></trkpt><trkpt lat="42.97663071476274" lon="13.791207639851972"><ele>62.0</ele><time>2026-03-22T09:37:55.999Z</time></trkpt><trkpt lat="42.976732731107575" lon="13.7911848584707"><ele>62.0</ele><time>2026-03-22T09:37:56.999Z</time></trkpt><trkpt lat="42.97684848015203" lon="13.791052351428895"><ele>61.8</ele><time>2026-03-22T09:37:57.999Z</time></trkpt><trkpt lat="42.9769859528697" lon="13.79100325970067"><ele>61.6</ele><time>2026-03-22T09:37:58.999Z</time></trkpt><trkpt lat="42.9771005341783" lon="13.79096124691093"><ele>61.39999999999999</ele><time>2026-03-22T09:37:59.999Z</time></trkpt><trkpt lat="42.97718875261691" lon="13.790928274399848"><ele>61.199999999999996</ele><time>2026-03-22T09:38:00.999Z</time></trkpt><trkpt lat="42.97725904181766" lon="13.790898806562392"><ele>61.0</ele><time>2026-03-22T09:38:01.999Z</time></trkpt><trkpt lat="42.97731084152945" lon="13.79084121366009"><ele>61.0</ele><time>2026-03-22T09:38:02.999Z</time></trkpt><trkpt lat="42.97737081828193" lon="13.790812674891503"><ele>60.99999999999999</ele><time>2026-03-22T09:38:04.999Z</time></trkpt><trkpt lat="42.97733902355156" lon="13.7905823694477"><ele>60.99999999999999</ele><time>2026-03-22T09:38:05.999Z</time></trkpt><trkpt lat="42.97732468880032" lon="13.790449369228872"><ele>61.0</ele><time>2026-03-22T09:38:06.999Z</time></trkpt><trkpt lat="42.977298539771425" lon="13.790295193816423"><ele>61.0</ele><time>2026-03-22T09:38:07.999Z</time></trkpt><trkpt lat="42.97726549684069" lon="13.790099989915664"><ele>61.0</ele><time>2026-03-22T09:38:08.999Z</time></trkpt><trkpt lat="42.97723199541854" lon="13.789901726918501"><ele>61.0</ele><time>2026-03-22T09:38:09.999Z</time></trkpt><trkpt lat="42.97719849863431" lon="13.789696113253267"><ele>61.0</ele><time>2026-03-22T09:38:10.999Z</time></trkpt><trkpt lat="42.97716380881151" lon="13.789486774546516"><ele>61.0</ele><time>2026-03-22T09:38:11.999Z</time></trkpt><trkpt lat="42.97712423213907" lon="13.789275563129364"><ele>61.0</ele><time>2026-03-22T09:38:12.999Z</time></trkpt><trkpt lat="42.9770869287478" lon="13.789080744904203"><ele>61.0</ele><time>2026-03-22T09:38:13.999Z</time></trkpt><trkpt lat="42.97705725809718" lon="13.78889608833799"><ele>61.0</ele><time>2026-03-22T09:38:14.999Z</time></trkpt><trkpt lat="42.97702256628466" lon="13.78869530448462"><ele>61.33333333333333</ele><time>2026-03-22T09:38:15.999Z</time></trkpt><trkpt lat="42.97697472469683" lon="13.788473791309508"><ele>61.66666666666667</ele><time>2026-03-22T09:38:16.999Z</time></trkpt><trkpt lat="42.97692639490616" lon="13.788239648150553"><ele>62.0</ele><time>2026-03-22T09:38:17.999Z</time></trkpt><trkpt lat="42.97688048883689" lon="13.78802229110291"><ele>62.0</ele><time>2026-03-22T09:38:18.999Z</time></trkpt><trkpt lat="42.97682190377492" lon="13.787830625205231"><ele>62.0</ele><time>2026-03-22T09:38:19.999Z</time></trkpt><trkpt lat="42.976781147744255" lon="13.787622432215606"><ele>62.0</ele><time>2026-03-22T09:38:20.999Z</time></trkpt><trkpt lat="42.976706899889614" lon="13.787405470696404"><ele>62.333333333333336</ele><time>2026-03-22T09:38:21.999Z</time></trkpt><trkpt lat="42.97665268749892" lon="13.787200985764352"><ele>62.66666666666667</ele><time>2026-03-22T09:38:22.999Z</time></trkpt><trkpt lat="42.97661050787408" lon="13.787009640742749"><ele>63.0</ele><time>2026-03-22T09:38:23.999Z</time></trkpt><trkpt lat="42.97657403422217" lon="13.786809843725157"><ele>63.0</ele><time>2026-03-22T09:38:24.999Z</time></trkpt><trkpt lat="42.976534848087056" lon="13.786600464616065"><ele>63.0</ele><time>2026-03-22T09:38:25.999Z</time></trkpt><trkpt lat="42.97649674398257" lon="13.78639074580849"><ele>63.0</ele><time>2026-03-22T09:38:26.999Z</time></trkpt><trkpt lat="42.976462426549524" lon="13.786175860674378"><ele>63.66666666666667</ele><time>2026-03-22T09:38:27.999Z</time></trkpt><trkpt lat="42.97642730132717" lon="13.785962602757502"><ele>64.33333333333334</ele><time>2026-03-22T09:38:28.999Z</time></trkpt><trkpt lat="42.976400609806944" lon="13.785744369541238"><ele>65.0</ele><time>2026-03-22T09:38:29.999Z</time></trkpt><trkpt lat="42.976373379020124" lon="13.785526900191254"><ele>65.0</ele><time>2026-03-22T09:38:30.999Z</time></trkpt><trkpt lat="42.97633807325421" lon="13.785313004007604"><ele>65.0</ele><time>2026-03-22T09:38:31.999Z</time></trkpt><trkpt lat="42.97631125911385" lon="13.785117198536481"><ele>65.0</ele><time>2026-03-22T09:38:32.999Z</time></trkpt><trkpt lat="42.97628696473357" lon="13.784933934971992"><ele>65.0</ele><time>2026-03-22T09:38:33.999Z</time></trkpt><trkpt lat="42.97625492662879" lon="13.784764637857227"><ele>65.0</ele><time>2026-03-22T09:38:34.999Z</time></trkpt><trkpt lat="42.976226733229616" lon="13.784592742776843"><ele>65.0</ele><time>2026-03-22T09:38:35.999Z</time></trkpt><trkpt lat="42.976193452062496" lon="13.784421985436504"><ele>65.0</ele><time>2026-03-22T09:38:36.999Z</time></trkpt><trkpt lat="42.97614870046883" lon="13.784243307261791"><ele>65.0</ele><time>2026-03-22T09:38:37.999Z</time></trkpt><trkpt lat="42.976089995367296" lon="13.784062406370008"><ele>65.0</ele><time>2026-03-22T09:38:38.999Z</time></trkpt><trkpt lat="42.97601340673747" lon="13.783877812861537"><ele>65.0</ele><time>2026-03-22T09:38:39.999Z</time></trkpt><trkpt lat="42.97592819744735" lon="13.783695723780063"><ele>65.0</ele><time>2026-03-22T09:38:40.999Z</time></trkpt><trkpt lat="42.97584506975186" lon="13.78350791112924"><ele>65.66666666666667</ele><time>2026-03-22T09:38:41.999Z</time></trkpt><trkpt lat="42.97576978171205" lon="13.783311327297652"><ele>66.33333333333333</ele><time>2026-03-22T09:38:42.999Z</time></trkpt><trkpt lat="42.97570808830643" lon="13.783101133227882"><ele>67.0</ele><time>2026-03-22T09:38:43.999Z</time></trkpt><trkpt lat="42.975651496266345" lon="13.782888222633808"><ele>67.0</ele><time>2026-03-22T09:38:44.999Z</time></trkpt><trkpt lat="42.97560454830322" lon="13.78267562801631"><ele>67.0</ele><time>2026-03-22T09:38:45.999Z</time></trkpt><trkpt lat="42.97555978264095" lon="13.782465858347766"><ele>67.0</ele><time>2026-03-22T09:38:46.999Z</time></trkpt><trkpt lat="42.97551692860092" lon="13.782253334282135"><ele>67.0</ele><time>2026-03-22T09:38:47.999Z</time></trkpt><trkpt lat="42.97547108843576" lon="13.782039023449519"><ele>67.0</ele><time>2026-03-22T09:38:48.999Z</time></trkpt><trkpt lat="42.975420792353695" lon="13.781818694084498"><ele>67.0</ele><time>2026-03-22T09:38:49.999Z</time></trkpt><trkpt lat="42.975371640938775" lon="13.781597513066167"><ele>67.33333333333333</ele><time>2026-03-22T09:38:50.999Z</time></trkpt><trkpt lat="42.975324442117476" lon="13.781379863898426"><ele>67.66666666666667</ele><time>2026-03-22T09:38:51.999Z</time></trkpt><trkpt lat="42.975274275110706" lon="13.78115886129687"><ele>68.0</ele><time>2026-03-22T09:38:52.998Z</time></trkpt><trkpt lat="42.97522249575149" lon="13.780941814634705"><ele>68.33333333333334</ele><time>2026-03-22T09:38:53.998Z</time></trkpt><trkpt lat="42.97516709724018" lon="13.780730791953106"><ele>68.66666666666667</ele><time>2026-03-22T09:38:54.998Z</time></trkpt><trkpt lat="42.975109672165125" lon="13.780521327925369"><ele>69.0</ele><time>2026-03-22T09:38:55.998Z</time></trkpt><trkpt lat="42.97505336891761" lon="13.780313654114348"><ele>69.66666666666667</ele><time>2026-03-22T09:38:56.998Z</time></trkpt><trkpt lat="42.97499880267567" lon="13.78010774773992"><ele>70.33333333333334</ele><time>2026-03-22T09:38:57.998Z</time></trkpt><trkpt lat="42.974937646943424" lon="13.779895834679936"><ele>71.0</ele><time>2026-03-22T09:38:58.998Z</time></trkpt><trkpt lat="42.97487217771936" lon="13.77967545480354"><ele>71.0</ele><time>2026-03-22T09:38:59.998Z</time></trkpt><trkpt lat="42.97480367668553" lon="13.779452854424964"><ele>71.0</ele><time>2026-03-22T09:39:00.998Z</time></trkpt><trkpt lat="42.974740449186356" lon="13.779228545421152"><ele>71.0</ele><time>2026-03-22T09:39:01.998Z</time></trkpt><trkpt lat="42.97467064195841" lon="13.779009767930168"><ele>71.0</ele><time>2026-03-22T09:39:02.998Z</time></trkpt><trkpt lat="42.97459547664503" lon="13.77878877227919"><ele>71.0</ele><time>2026-03-22T09:39:03.998Z</time></trkpt><trkpt lat="42.97451713003328" lon="13.778570887402212"><ele>71.0</ele><time>2026-03-22T09:39:04.998Z</time></trkpt><trkpt lat="42.974438201662096" lon="13.778353009934948"><ele>71.0</ele><time>2026-03-22T09:39:05.998Z</time></trkpt><trkpt lat="42.974357396164415" lon="13.778134797133255"><ele>71.0</ele><time>2026-03-22T09:39:06.998Z</time></trkpt><trkpt lat="42.97427872799982" lon="13.777910748460462"><ele>71.0</ele><time>2026-03-22T09:39:07.998Z</time></trkpt><trkpt lat="42.97420357822109" lon="13.77768521304242"><ele>72.0</ele><time>2026-03-22T09:39:08.998Z</time></trkpt><trkpt lat="42.974133478923186" lon="13.777457495401826"><ele>73.0</ele><time>2026-03-22T09:39:09.998Z</time></trkpt><trkpt lat="42.97406203880921" lon="13.777223434787349"><ele>74.0</ele><time>2026-03-22T09:39:10.998Z</time></trkpt><trkpt lat="42.97399231000708" lon="13.776982296426793"><ele>73.66666666666667</ele><time>2026-03-22T09:39:11.998Z</time></trkpt><trkpt lat="42.97392429026255" lon="13.776743824447173"><ele>73.33333333333333</ele><time>2026-03-22T09:39:12.998Z</time></trkpt><trkpt lat="42.9738591804394" lon="13.776510615640504"><ele>73.0</ele><time>2026-03-22T09:39:13.998Z</time></trkpt><trkpt lat="42.97379099424449" lon="13.776290723850606"><ele>73.0</ele><time>2026-03-22T09:39:14.998Z</time></trkpt><trkpt lat="42.973717659514115" lon="13.776069412421286"><ele>73.0</ele><time>2026-03-22T09:39:15.998Z</time></trkpt><trkpt lat="42.97365667345774" lon="13.77585710092935"><ele>73.0</ele><time>2026-03-22T09:39:16.998Z</time></trkpt><trkpt lat="42.973599245075484" lon="13.775661647537625"><ele>73.33333333333333</ele><time>2026-03-22T09:39:17.998Z</time></trkpt><trkpt lat="42.97354518238462" lon="13.775474805251939"><ele>73.66666666666667</ele><time>2026-03-22T09:39:18.998Z</time></trkpt><trkpt lat="42.973492196507415" lon="13.775272305019394"><ele>74.0</ele><time>2026-03-22T09:39:19.998Z</time></trkpt><trkpt lat="42.973443524709175" lon="13.775043779453812"><ele>74.0</ele><time>2026-03-22T09:39:20.998Z</time></trkpt><trkpt lat="42.973403989494145" lon="13.774812014107388"><ele>74.0</ele><time>2026-03-22T09:39:21.998Z</time></trkpt><trkpt lat="42.97337079156661" lon="13.774586060679031"><ele>74.0</ele><time>2026-03-22T09:39:22.998Z</time></trkpt><trkpt lat="42.97333743268255" lon="13.77436989976375"><ele>74.33333333333334</ele><time>2026-03-22T09:39:24Z</time></trkpt><trkpt lat="42.97328425114453" lon="13.774149884596595"><ele>74.66666666666667</ele><time>2026-03-22T09:39:25Z</time></trkpt><trkpt lat="42.97323295237443" lon="13.773927936930761"><ele>75.0</ele><time>2026-03-22T09:39:26Z</time></trkpt><trkpt lat="42.97318504087629" lon="13.773702965957742"><ele>75.33333333333333</ele><time>2026-03-22T09:39:27Z</time></trkpt><trkpt lat="42.97313633368437" lon="13.773479715828524"><ele>75.66666666666666</ele><time>2026-03-22T09:39:28Z</time></trkpt><trkpt lat="42.97309019115845" lon="13.773245438419295"><ele>76.0</ele><time>2026-03-22T09:39:29Z</time></trkpt><trkpt lat="42.97304430440804" lon="13.772995059090587"><ele>76.0</ele><time>2026-03-22T09:39:30Z</time></trkpt><trkpt lat="42.972991000252826" lon="13.772732078562644"><ele>76.0</ele><time>2026-03-22T09:39:31Z</time></trkpt><trkpt lat="42.97294083399918" lon="13.77248291943721"><ele>76.0</ele><time>2026-03-22T09:39:32Z</time></trkpt><trkpt lat="42.97289407733412" lon="13.772248234538871"><ele>76.0</ele><time>2026-03-22T09:39:33Z</time></trkpt><trkpt lat="42.97285143286703" lon="13.772030603580694"><ele>76.0</ele><time>2026-03-22T09:39:34Z</time></trkpt><trkpt lat="42.97280885992838" lon="13.771820509305073"><ele>76.0</ele><time>2026-03-22T09:39:35Z</time></trkpt><trkpt lat="42.972761684952964" lon="13.771608528002968"><ele>75.66666666666666</ele><time>2026-03-22T09:39:36Z</time></trkpt><trkpt lat="42.97270992571013" lon="13.77138024596537"><ele>75.33333333333333</ele><time>2026-03-22T09:39:37Z</time></trkpt><trkpt lat="42.972645800674314" lon="13.771153432255007"><ele>75.0</ele><time>2026-03-22T09:39:38Z</time></trkpt><trkpt lat="42.97258321482703" lon="13.770931035867575"><ele>75.0</ele><time>2026-03-22T09:39:39Z</time></trkpt><trkpt lat="42.97252684623748" lon="13.770720460190796"><ele>75.0</ele><time>2026-03-22T09:39:40Z</time></trkpt><trkpt lat="42.97247371816531" lon="13.770505244848566"><ele>75.0</ele><time>2026-03-22T09:39:41Z</time></trkpt><trkpt lat="42.97242895364642" lon="13.770295581999429"><ele>75.75</ele><time>2026-03-22T09:39:42Z</time></trkpt><trkpt lat="42.972381485481606" lon="13.770103776203035"><ele>76.5</ele><time>2026-03-22T09:39:43Z</time></trkpt><trkpt lat="42.97233296410411" lon="13.769918447577144"><ele>77.25</ele><time>2026-03-22T09:39:44Z</time></trkpt><trkpt lat="42.97228837694113" lon="13.769721423375158"><ele>78.0</ele><time>2026-03-22T09:39:45Z</time></trkpt><trkpt lat="42.972250098225345" lon="13.769497374431118"><ele>78.33333333333333</ele><time>2026-03-22T09:39:46Z</time></trkpt><trkpt lat="42.97222207574733" lon="13.769250089660698"><ele>78.66666666666666</ele><time>2026-03-22T09:39:47Z</time></trkpt><trkpt lat="42.9722045767371" lon="13.768991864428997"><ele>79.0</ele><time>2026-03-22T09:39:48Z</time></trkpt><trkpt lat="42.9721810557311" lon="13.768738274272746"><ele>79.0</ele><time>2026-03-22T09:39:49Z</time></trkpt><trkpt lat="42.97215146430787" lon="13.768479800391132"><ele>79.0</ele><time>2026-03-22T09:39:50Z</time></trkpt><trkpt lat="42.97211662149552" lon="13.768230901563852"><ele>79.0</ele><time>2026-03-22T09:39:51Z</time></trkpt><trkpt lat="42.97208218742995" lon="13.767973021646467"><ele>79.0</ele><time>2026-03-22T09:39:52Z</time></trkpt><trkpt lat="42.97204335805928" lon="13.767704032051409"><ele>79.0</ele><time>2026-03-22T09:39:53Z</time></trkpt><trkpt lat="42.97199753973009" lon="13.767424019392092"><ele>79.0</ele><time>2026-03-22T09:39:54Z</time></trkpt><trkpt lat="42.97194918971214" lon="13.767129488263553"><ele>79.0</ele><time>2026-03-22T09:39:55Z</time></trkpt><trkpt lat="42.971901811795725" lon="13.76686882119051"><ele>79.0</ele><time>2026-03-22T09:39:56Z</time></trkpt><trkpt lat="42.97186252078713" lon="13.766636971240564"><ele>79.0</ele><time>2026-03-22T09:39:56.999Z</time></trkpt><trkpt lat="42.97182913428655" lon="13.766422952583346"><ele>79.0</ele><time>2026-03-22T09:39:57.999Z</time></trkpt><trkpt lat="42.97179648066179" lon="13.766216920243066"><ele>79.0</ele><time>2026-03-22T09:39:58.999Z</time></trkpt><trkpt lat="42.971758725137626" lon="13.766004368525055"><ele>79.0</ele><time>2026-03-22T09:39:59.999Z</time></trkpt><trkpt lat="42.97171246238314" lon="13.76577794878389"><ele>79.33333333333333</ele><time>2026-03-22T09:40:00.999Z</time></trkpt><trkpt lat="42.97166240150649" lon="13.765527820575873"><ele>79.66666666666667</ele><time>2026-03-22T09:40:01.999Z</time></trkpt><trkpt lat="42.971612626715626" lon="13.76528966470753"><ele>80.0</ele><time>2026-03-22T09:40:02.999Z</time></trkpt><trkpt lat="42.97156595811668" lon="13.765078031569711"><ele>80.66666666666667</ele><time>2026-03-22T09:40:03.999Z</time></trkpt><trkpt lat="42.97152221728854" lon="13.764872886076358"><ele>81.33333333333333</ele><time>2026-03-22T09:40:04.999Z</time></trkpt><trkpt lat="42.97147561759822" lon="13.764659165143748"><ele>82.0</ele><time>2026-03-22T09:40:05.999Z</time></trkpt><trkpt lat="42.97143547685117" lon="13.764437444647792"><ele>82.0</ele><time>2026-03-22T09:40:06.999Z</time></trkpt><trkpt lat="42.97138732065905" lon="13.764225448924739"><ele>82.0</ele><time>2026-03-22T09:40:07.999Z</time></trkpt><trkpt lat="42.971334976586874" lon="13.76400571505299"><ele>82.0</ele><time>2026-03-22T09:40:08.999Z</time></trkpt><trkpt lat="42.97128853130732" lon="13.763763256661209"><ele>82.66666666666666</ele><time>2026-03-22T09:40:09.999Z</time></trkpt><trkpt lat="42.97123902055754" lon="13.763518230487712"><ele>83.33333333333333</ele><time>2026-03-22T09:40:10.999Z</time></trkpt><trkpt lat="42.97119224983683" lon="13.76329355659205"><ele>84.0</ele><time>2026-03-22T09:40:11.999Z</time></trkpt><trkpt lat="42.971148989985" lon="13.763091439327294"><ele>84.0</ele><time>2026-03-22T09:40:12.999Z</time></trkpt><trkpt lat="42.971108201673026" lon="13.76290372379534"><ele>84.0</ele><time>2026-03-22T09:40:13.999Z</time></trkpt><trkpt lat="42.97106873990594" lon="13.762725990147214"><ele>84.0</ele><time>2026-03-22T09:40:14.999Z</time></trkpt><trkpt lat="42.97102547262445" lon="13.762527110234922"><ele>84.0</ele><time>2026-03-22T09:40:15.999Z</time></trkpt><trkpt lat="42.97098233013864" lon="13.762309282201743"><ele>84.33333333333333</ele><time>2026-03-22T09:40:16.999Z</time></trkpt><trkpt lat="42.97093825483411" lon="13.76209141561911"><ele>84.66666666666666</ele><time>2026-03-22T09:40:17.999Z</time></trkpt><trkpt lat="42.97089219737322" lon="13.761883161947893"><ele>85.0</ele><time>2026-03-22T09:40:18.999Z</time></trkpt><trkpt lat="42.970847466562944" lon="13.761672574627454"><ele>85.0</ele><time>2026-03-22T09:40:19.999Z</time></trkpt><trkpt lat="42.97080301409722" lon="13.761454641977473"><ele>85.0</ele><time>2026-03-22T09:40:20.999Z</time></trkpt><trkpt lat="42.97075329271082" lon="13.761230661532117"><ele>85.0</ele><time>2026-03-22T09:40:21.999Z</time></trkpt><trkpt lat="42.97070595195728" lon="13.761014216078225"><ele>85.33333333333333</ele><time>2026-03-22T09:40:22.999Z</time></trkpt><trkpt lat="42.970660996527066" lon="13.760800634255485"><ele>85.66666666666667</ele><time>2026-03-22T09:40:23.999Z</time></trkpt><trkpt lat="42.97061868524075" lon="13.760586673864093"><ele>86.0</ele><time>2026-03-22T09:40:24.999Z</time></trkpt><trkpt lat="42.970571946267505" lon="13.76037738861159"><ele>86.0</ele><time>2026-03-22T09:40:25.999Z</time></trkpt><trkpt lat="42.97052852522422" lon="13.76017023019808"><ele>86.0</ele><time>2026-03-22T09:40:26.999Z</time></trkpt><trkpt lat="42.97048271567438" lon="13.75996714293295"><ele>86.0</ele><time>2026-03-22T09:40:27.999Z</time></trkpt><trkpt lat="42.97044229611192" lon="13.759770234003154"><ele>86.0</ele><time>2026-03-22T09:40:28.999Z</time></trkpt><trkpt lat="42.970403810294705" lon="13.759567003272949"><ele>86.0</ele><time>2026-03-22T09:40:29.999Z</time></trkpt><trkpt lat="42.970363650528924" lon="13.759370875742869"><ele>86.0</ele><time>2026-03-22T09:40:30.999Z</time></trkpt><trkpt lat="42.9703237027084" lon="13.759170162809509"><ele>86.0</ele><time>2026-03-22T09:40:31.999Z</time></trkpt><trkpt lat="42.97028076068007" lon="13.758971887173306"><ele>86.0</ele><time>2026-03-22T09:40:32.999Z</time></trkpt><trkpt lat="42.97023591183239" lon="13.758767552897158"><ele>86.0</ele><time>2026-03-22T09:40:33.999Z</time></trkpt><trkpt lat="42.97019182087974" lon="13.758558340696"><ele>86.0</ele><time>2026-03-22T09:40:34.999Z</time></trkpt><trkpt lat="42.97014452428168" lon="13.758341981879866"><ele>86.0</ele><time>2026-03-22T09:40:35.999Z</time></trkpt><trkpt lat="42.970100110493725" lon="13.758145206818185"><ele>86.0</ele><time>2026-03-22T09:40:36.999Z</time></trkpt><trkpt lat="42.9700573884658" lon="13.757962388970144"><ele>86.0</ele><time>2026-03-22T09:40:37.999Z</time></trkpt><trkpt lat="42.9700262746357" lon="13.757792016595905"><ele>86.0</ele><time>2026-03-22T09:40:38.999Z</time></trkpt><trkpt lat="42.97001257847062" lon="13.75763040868689"><ele>86.0</ele><time>2026-03-22T09:40:39.999Z</time></trkpt><trkpt lat="42.970005871415566" lon="13.757483140165741"><ele>86.0</ele><time>2026-03-22T09:40:40.999Z</time></trkpt><trkpt lat="42.96999800745762" lon="13.757341701524487"><ele>86.6</ele><time>2026-03-22T09:40:41.999Z</time></trkpt><trkpt lat="42.969979301427024" lon="13.757222383630102"><ele>87.19999999999999</ele><time>2026-03-22T09:40:42.999Z</time></trkpt><trkpt lat="42.96994140223406" lon="13.757116523473991"><ele>87.80000000000001</ele><time>2026-03-22T09:40:43.999Z</time></trkpt><trkpt lat="42.96988816047761" lon="13.75699621410951"><ele>88.4</ele><time>2026-03-22T09:40:44.999Z</time></trkpt><trkpt lat="42.96979431457972" lon="13.756908619398775"><ele>89.0</ele><time>2026-03-22T09:40:45.999Z</time></trkpt><trkpt lat="42.969683452452806" lon="13.756895790119122"><ele>88.99999999999999</ele><time>2026-03-22T09:40:46.999Z</time></trkpt><trkpt lat="42.96961163220535" lon="13.756871253248516"><ele>89.0</ele><time>2026-03-22T09:40:47.999Z</time></trkpt><trkpt lat="42.969544977910395" lon="13.75684539041133"><ele>89.0</ele><time>2026-03-22T09:40:49.999Z</time></trkpt><trkpt lat="42.96959616406619" lon="13.756793504788421"><ele>89.0</ele><time>2026-03-22T09:40:54.999Z</time></trkpt><trkpt lat="42.969677378674355" lon="13.75680457181537"><ele>89.0</ele><time>2026-03-22T09:40:55.999Z</time></trkpt><trkpt lat="42.9697472869905" lon="13.756828459110034"><ele>88.99999999999999</ele><time>2026-03-22T09:40:56.999Z</time></trkpt><trkpt lat="42.96981453324472" lon="13.756839490904397"><ele>89.0</ele><time>2026-03-22T09:40:58.999Z</time></trkpt><trkpt lat="42.96984841250744" lon="13.756654552377352"><ele>89.2</ele><time>2026-03-22T09:40:59.998Z</time></trkpt><trkpt lat="42.969872768465756" lon="13.7565612827091"><ele>89.4</ele><time>2026-03-22T09:41:00.998Z</time></trkpt><trkpt lat="42.969898653323156" lon="13.756437657141268"><ele>89.6</ele><time>2026-03-22T09:41:01.998Z</time></trkpt><trkpt lat="42.969918313610094" lon="13.756312857466163"><ele>89.8</ele><time>2026-03-22T09:41:02.998Z</time></trkpt><trkpt lat="42.96993928739361" lon="13.756166545709206"><ele>90.0</ele><time>2026-03-22T09:41:03.998Z</time></trkpt><trkpt lat="42.96995293758725" lon="13.75600137980693"><ele>90.2</ele><time>2026-03-22T09:41:04.998Z</time></trkpt><trkpt lat="42.9699711787948" lon="13.755847201358485"><ele>90.4</ele><time>2026-03-22T09:41:05.998Z</time></trkpt><trkpt lat="42.9699882841608" lon="13.755708242437358"><ele>90.6</ele><time>2026-03-22T09:41:06.998Z</time></trkpt><trkpt lat="42.97000157717201" lon="13.755581679926381"><ele>90.8</ele><time>2026-03-22T09:41:07.998Z</time></trkpt><trkpt lat="42.970013943661996" lon="13.755467849880352"><ele>91.0</ele><time>2026-03-22T09:41:08.998Z</time></trkpt><trkpt lat="42.970027060904116" lon="13.75535301070952"><ele>90.6</ele><time>2026-03-22T09:41:09.998Z</time></trkpt><trkpt lat="42.97003743350284" lon="13.755254580268048"><ele>90.19999999999999</ele><time>2026-03-22T09:41:10.998Z</time></trkpt><trkpt lat="42.97005152800447" lon="13.755093571963329"><ele>89.80000000000001</ele><time>2026-03-22T09:41:12.998Z</time></trkpt><trkpt lat="42.970062316495536" lon="13.754946767766059"><ele>89.4</ele><time>2026-03-22T09:41:14.998Z</time></trkpt><trkpt lat="42.9700807511634" lon="13.754783825058816"><ele>89.0</ele><time>2026-03-22T09:41:16.998Z</time></trkpt><trkpt lat="42.9700901014934" lon="13.75469547520524"><ele>89.0</ele><time>2026-03-22T09:41:17.998Z</time></trkpt><trkpt lat="42.97009368512419" lon="13.754576868575363"><ele>89.0</ele><time>2026-03-22T09:41:18.998Z</time></trkpt><trkpt lat="42.97009795441176" lon="13.754441347048168"><ele>89.0</ele><time>2026-03-22T09:41:19.998Z</time></trkpt><trkpt lat="42.970104973809214" lon="13.754318764021225"><ele>89.0</ele><time>2026-03-22T09:41:20.998Z</time></trkpt><trkpt lat="42.970114316463544" lon="13.754202379834362"><ele>89.0</ele><time>2026-03-22T09:41:21.998Z</time></trkpt><trkpt lat="42.97012833661326" lon="13.754079589281698"><ele>89.4</ele><time>2026-03-22T09:41:22.998Z</time></trkpt><trkpt lat="42.97014326612544" lon="13.753959133994448"><ele>89.80000000000001</ele><time>2026-03-22T09:41:23.998Z</time></trkpt><trkpt lat="42.97015551974142" lon="13.753829400985817"><ele>90.19999999999999</ele><time>2026-03-22T09:41:24.998Z</time></trkpt><trkpt lat="42.97017077506485" lon="13.753697929691823"><ele>90.6</ele><time>2026-03-22T09:41:25.998Z</time></trkpt><trkpt lat="42.97018708903535" lon="13.753563592460758"><ele>91.0</ele><time>2026-03-22T09:41:26.998Z</time></trkpt><trkpt lat="42.97020556724443" lon="13.753421868428802"><ele>91.0</ele><time>2026-03-22T09:41:27.998Z</time></trkpt><trkpt lat="42.970225837949144" lon="13.753280283264793"><ele>91.0</ele><time>2026-03-22T09:41:28.998Z</time></trkpt><trkpt lat="42.97023773821822" lon="13.75312309251666"><ele>91.0</ele><time>2026-03-22T09:41:30Z</time></trkpt><trkpt lat="42.97024707068531" lon="13.752950538644225"><ele>91.0</ele><time>2026-03-22T09:41:31Z</time></trkpt><trkpt lat="42.97024872544324" lon="13.75277012791135"><ele>91.25</ele><time>2026-03-22T09:41:32Z</time></trkpt><trkpt lat="42.97025573947928" lon="13.752603033168244"><ele>91.5</ele><time>2026-03-22T09:41:33Z</time></trkpt><trkpt lat="42.970259988454444" lon="13.752432540905794"><ele>91.75</ele><time>2026-03-22T09:41:34Z</time></trkpt><trkpt lat="42.97026849149237" lon="13.752251856393762"><ele>92.0</ele><time>2026-03-22T09:41:35Z</time></trkpt><trkpt lat="42.970286885752145" lon="13.752064797340914"><ele>92.33333333333334</ele><time>2026-03-22T09:41:36Z</time></trkpt><trkpt lat="42.9703070694935" lon="13.751860097165451"><ele>92.66666666666667</ele><time>2026-03-22T09:41:37Z</time></trkpt><trkpt lat="42.970325257469995" lon="13.751629974963723"><ele>93.0</ele><time>2026-03-22T09:41:38Z</time></trkpt><trkpt lat="42.970335316772974" lon="13.751392702674789"><ele>93.0</ele><time>2026-03-22T09:41:39Z</time></trkpt><trkpt lat="42.970342733774565" lon="13.751160723114683"><ele>93.0</ele><time>2026-03-22T09:41:40Z</time></trkpt><trkpt lat="42.97035357445519" lon="13.750909234046784"><ele>93.0</ele><time>2026-03-22T09:41:41Z</time></trkpt><trkpt lat="42.97036159051048" lon="13.750668808386724"><ele>93.33333333333333</ele><time>2026-03-22T09:41:42Z</time></trkpt><trkpt lat="42.970371045593474" lon="13.750378339332041"><ele>93.66666666666666</ele><time>2026-03-22T09:41:43Z</time></trkpt><trkpt lat="42.97038421985998" lon="13.750062731991575"><ele>94.0</ele><time>2026-03-22T09:41:44Z</time></trkpt><trkpt lat="42.97039867632218" lon="13.749726059777801"><ele>94.0</ele><time>2026-03-22T09:41:45Z</time></trkpt><trkpt lat="42.97041637231132" lon="13.749404392080876"><ele>94.0</ele><time>2026-03-22T09:41:46Z</time></trkpt><trkpt lat="42.97043367622007" lon="13.74911650242633"><ele>94.0</ele><time>2026-03-22T09:41:47Z</time></trkpt><trkpt lat="42.97044428825048" lon="13.748857658875623"><ele>94.33333333333333</ele><time>2026-03-22T09:41:48Z</time></trkpt><trkpt lat="42.97045235206818" lon="13.74863086981818"><ele>94.66666666666667</ele><time>2026-03-22T09:41:49Z</time></trkpt><trkpt lat="42.970448677508145" lon="13.74840811554336"><ele>95.0</ele><time>2026-03-22T09:41:50Z</time></trkpt><trkpt lat="42.97045464266667" lon="13.748170932252677"><ele>95.33333333333334</ele><time>2026-03-22T09:41:51Z</time></trkpt><trkpt lat="42.970460855751114" lon="13.747938617871174"><ele>95.66666666666667</ele><time>2026-03-22T09:41:52Z</time></trkpt><trkpt lat="42.97046383599572" lon="13.747731125073752"><ele>96.0</ele><time>2026-03-22T09:41:53Z</time></trkpt><trkpt lat="42.970454187337644" lon="13.747532628334458"><ele>96.5</ele><time>2026-03-22T09:41:54Z</time></trkpt><trkpt lat="42.970478682068205" lon="13.747349649503349"><ele>97.0</ele><time>2026-03-22T09:41:55Z</time></trkpt><trkpt lat="42.970488642499085" lon="13.747182117022808"><ele>97.5</ele><time>2026-03-22T09:41:56Z</time></trkpt><trkpt lat="42.97049239823361" lon="13.747031440691327"><ele>98.0</ele><time>2026-03-22T09:41:57Z</time></trkpt><trkpt lat="42.97050116380802" lon="13.746890049663635"><ele>98.0</ele><time>2026-03-22T09:41:58Z</time></trkpt><trkpt lat="42.970511601370376" lon="13.746708728480545"><ele>98.0</ele><time>2026-03-22T09:41:59Z</time></trkpt><trkpt lat="42.97054196769465" lon="13.746493140594634"><ele>98.0</ele><time>2026-03-22T09:42:00Z</time></trkpt><trkpt lat="42.970570874617714" lon="13.746284212479763"><ele>98.0</ele><time>2026-03-22T09:42:01Z</time></trkpt><trkpt lat="42.97059567857756" lon="13.746084299025693"><ele>98.0</ele><time>2026-03-22T09:42:02Z</time></trkpt><trkpt lat="42.97061814608399" lon="13.745871362029005"><ele>98.0</ele><time>2026-03-22T09:42:03Z</time></trkpt><trkpt lat="42.97063756082918" lon="13.74563727190213"><ele>98.0</ele><time>2026-03-22T09:42:04Z</time></trkpt><trkpt lat="42.97064617049185" lon="13.745413552637604"><ele>97.66666666666666</ele><time>2026-03-22T09:42:05Z</time></trkpt><trkpt lat="42.970650245843586" lon="13.745201869244218"><ele>97.33333333333334</ele><time>2026-03-22T09:42:06Z</time></trkpt><trkpt lat="42.970643717332585" lon="13.74498989308634"><ele>97.0</ele><time>2026-03-22T09:42:07Z</time></trkpt><trkpt lat="42.97065170196007" lon="13.744763055430674"><ele>97.0</ele><time>2026-03-22T09:42:08Z</time></trkpt><trkpt lat="42.97066481653336" lon="13.744496559173333"><ele>97.0</ele><time>2026-03-22T09:42:09Z</time></trkpt><trkpt lat="42.97069909341543" lon="13.744197379213666"><ele>97.0</ele><time>2026-03-22T09:42:10Z</time></trkpt><trkpt lat="42.970738654000904" lon="13.743874772914472"><ele>97.66666666666667</ele><time>2026-03-22T09:42:11Z</time></trkpt><trkpt lat="42.97077717706375" lon="13.743568542399556"><ele>98.33333333333334</ele><time>2026-03-22T09:42:12Z</time></trkpt><trkpt lat="42.970809811046" lon="13.743309366357053"><ele>99.0</ele><time>2026-03-22T09:42:12.999Z</time></trkpt><trkpt lat="42.97083846524386" lon="13.743082659768541"><ele>99.33333333333334</ele><time>2026-03-22T09:42:13.999Z</time></trkpt><trkpt lat="42.97086627109383" lon="13.742852599937875"><ele>99.66666666666667</ele><time>2026-03-22T09:42:14.999Z</time></trkpt><trkpt lat="42.970907404994314" lon="13.74259616621284"><ele>100.0</ele><time>2026-03-22T09:42:15.999Z</time></trkpt><trkpt lat="42.970940619232216" lon="13.742347026207758"><ele>100.0</ele><time>2026-03-22T09:42:16.999Z</time></trkpt><trkpt lat="42.97096897099567" lon="13.742118848877228"><ele>100.0</ele><time>2026-03-22T09:42:17.999Z</time></trkpt><trkpt lat="42.970988987990665" lon="13.74193064350993"><ele>100.0</ele><time>2026-03-22T09:42:18.999Z</time></trkpt><trkpt lat="42.97100730521548" lon="13.741782730775368"><ele>100.0</ele><time>2026-03-22T09:42:19.999Z</time></trkpt><trkpt lat="42.971007489636925" lon="13.741662794556333"><ele>100.33333333333334</ele><time>2026-03-22T09:42:20.999Z</time></trkpt><trkpt lat="42.97103271801118" lon="13.7415649374705"><ele>100.66666666666667</ele><time>2026-03-22T09:42:21.999Z</time></trkpt><trkpt lat="42.971049036248765" lon="13.741479098418479"><ele>101.0</ele><time>2026-03-22T09:42:22.999Z</time></trkpt><trkpt lat="42.971068941361146" lon="13.741322139110068"><ele>101.33333333333334</ele><time>2026-03-22T09:42:24.999Z</time></trkpt><trkpt lat="42.97109547256144" lon="13.741164034560276"><ele>101.66666666666667</ele><time>2026-03-22T09:42:26.999Z</time></trkpt><trkpt lat="42.971087253963084" lon="13.741068803906414"><ele>102.0</ele><time>2026-03-22T09:42:27.999Z</time></trkpt><trkpt lat="42.971091449801584" lon="13.740960728243873"><ele>102.0</ele><time>2026-03-22T09:42:28.999Z</time></trkpt><trkpt lat="42.97107053678006" lon="13.740811371380621"><ele>102.0</ele><time>2026-03-22T09:42:29.999Z</time></trkpt><trkpt lat="42.97104874620823" lon="13.740613974334892"><ele>102.0</ele><time>2026-03-22T09:42:30.999Z</time></trkpt><trkpt lat="42.97102887155531" lon="13.740407500131813"><ele>102.0</ele><time>2026-03-22T09:42:31.999Z</time></trkpt><trkpt lat="42.97100236129735" lon="13.740210207909941"><ele>102.0</ele><time>2026-03-22T09:42:32.999Z</time></trkpt><trkpt lat="42.970969139891174" lon="13.739986713703624"><ele>102.0</ele><time>2026-03-22T09:42:33.999Z</time></trkpt><trkpt lat="42.97094665695101" lon="13.73970580060169"><ele>102.0</ele><time>2026-03-22T09:42:34.999Z</time></trkpt><trkpt lat="42.970923169270705" lon="13.739426326441142"><ele>102.33333333333334</ele><time>2026-03-22T09:42:35.999Z</time></trkpt><trkpt lat="42.97090419468657" lon="13.739182951364972"><ele>102.66666666666667</ele><time>2026-03-22T09:42:36.999Z</time></trkpt><trkpt lat="42.970890079151545" lon="13.738974885882884"><ele>103.0</ele><time>2026-03-22T09:42:37.999Z</time></trkpt><trkpt lat="42.970863977153954" lon="13.738738865774534"><ele>104.33333333333334</ele><time>2026-03-22T09:42:38.999Z</time></trkpt><trkpt lat="42.97084244876316" lon="13.738455000239222"><ele>105.66666666666666</ele><time>2026-03-22T09:42:39.999Z</time></trkpt><trkpt lat="42.97083600806185" lon="13.738174538400003"><ele>107.0</ele><time>2026-03-22T09:42:40.999Z</time></trkpt><trkpt lat="42.97084133668182" lon="13.737865980135137"><ele>108.0</ele><time>2026-03-22T09:42:41.999Z</time></trkpt><trkpt lat="42.9708417035823" lon="13.737520859829509"><ele>109.0</ele><time>2026-03-22T09:42:42.999Z</time></trkpt><trkpt lat="42.970838540782665" lon="13.73722767242239"><ele>109.0</ele><time>2026-03-22T09:42:43.999Z</time></trkpt><trkpt lat="42.97083031903606" lon="13.736966709022884"><ele>109.0</ele><time>2026-03-22T09:42:44.999Z</time></trkpt><trkpt lat="42.97082620727025" lon="13.73670358880156"><ele>109.0</ele><time>2026-03-22T09:42:45.999Z</time></trkpt><trkpt lat="42.970819555765786" lon="13.736469503847752"><ele>108.66666666666667</ele><time>2026-03-22T09:42:46.999Z</time></trkpt><trkpt lat="42.97081606038474" lon="13.736238776434611"><ele>108.33333333333334</ele><time>2026-03-22T09:42:47.999Z</time></trkpt><trkpt lat="42.97081430100088" lon="13.736012696181158"><ele>108.0</ele><time>2026-03-22T09:42:48.999Z</time></trkpt><trkpt lat="42.97082272859958" lon="13.735778772081032"><ele>108.0</ele><time>2026-03-22T09:42:49.999Z</time></trkpt><trkpt lat="42.97082236601516" lon="13.735540697674326"><ele>108.0</ele><time>2026-03-22T09:42:50.999Z</time></trkpt><trkpt lat="42.97081005378472" lon="13.73531662517824"><ele>108.0</ele><time>2026-03-22T09:42:51.999Z</time></trkpt><trkpt lat="42.97081144445066" lon="13.735117573919673"><ele>108.5</ele><time>2026-03-22T09:42:52.999Z</time></trkpt><trkpt lat="42.97081976157948" lon="13.734930867679887"><ele>109.0</ele><time>2026-03-22T09:42:53.999Z</time></trkpt><trkpt lat="42.97082274446001" lon="13.73476099774048"><ele>109.5</ele><time>2026-03-22T09:42:54.999Z</time></trkpt><trkpt lat="42.97083144798016" lon="13.734611715001131"><ele>110.0</ele><time>2026-03-22T09:42:55.999Z</time></trkpt><trkpt lat="42.97083717862369" lon="13.73447262032112"><ele>110.25</ele><time>2026-03-22T09:42:56.999Z</time></trkpt><trkpt lat="42.970836111762225" lon="13.734304041710221"><ele>110.5</ele><time>2026-03-22T09:42:57.999Z</time></trkpt><trkpt lat="42.97082088007015" lon="13.734100463061559"><ele>110.75</ele><time>2026-03-22T09:42:58.999Z</time></trkpt><trkpt lat="42.97081812560593" lon="13.733877262629267"><ele>111.0</ele><time>2026-03-22T09:42:59.999Z</time></trkpt><trkpt lat="42.97080920983591" lon="13.733614832879033"><ele>110.66666666666666</ele><time>2026-03-22T09:43:00.999Z</time></trkpt><trkpt lat="42.970802227828294" lon="13.733357947004771"><ele>110.33333333333333</ele><time>2026-03-22T09:43:01.999Z</time></trkpt><trkpt lat="42.97079304152847" lon="13.73310153677247"><ele>110.0</ele><time>2026-03-22T09:43:02.999Z</time></trkpt><trkpt lat="42.9707740882593" lon="13.732854557815603"><ele>110.0</ele><time>2026-03-22T09:43:03.999Z</time></trkpt><trkpt lat="42.97074844985053" lon="13.732627534136993"><ele>110.0</ele><time>2026-03-22T09:43:04.999Z</time></trkpt><trkpt lat="42.97072387969232" lon="13.732424193255444"><ele>110.0</ele><time>2026-03-22T09:43:05.999Z</time></trkpt><trkpt lat="42.970694714303015" lon="13.732214023230094"><ele>110.0</ele><time>2026-03-22T09:43:06.999Z</time></trkpt><trkpt lat="42.97066296029361" lon="13.731975058512054"><ele>110.0</ele><time>2026-03-22T09:43:07.999Z</time></trkpt><trkpt lat="42.970622264265636" lon="13.731657997370066"><ele>110.0</ele><time>2026-03-22T09:43:08.999Z</time></trkpt><trkpt lat="42.97058302337987" lon="13.731306404694468"><ele>110.5</ele><time>2026-03-22T09:43:09.999Z</time></trkpt><trkpt lat="42.970541854220734" lon="13.730954442668816"><ele>111.0</ele><time>2026-03-22T09:43:10.999Z</time></trkpt><trkpt lat="42.9705054656366" lon="13.730617574028061"><ele>111.0</ele><time>2026-03-22T09:43:11.999Z</time></trkpt><trkpt lat="42.970464776456105" lon="13.73026718411631"><ele>111.0</ele><time>2026-03-22T09:43:12.999Z</time></trkpt><trkpt lat="42.97041989517713" lon="13.729892822360451"><ele>110.5</ele><time>2026-03-22T09:43:13.999Z</time></trkpt><trkpt lat="42.97037646536833" lon="13.72952298372366"><ele>110.0</ele><time>2026-03-22T09:43:14.998Z</time></trkpt><trkpt lat="42.970339619788994" lon="13.729200863042264"><ele>110.66666666666666</ele><time>2026-03-22T09:43:15.998Z</time></trkpt><trkpt lat="42.97030484565696" lon="13.72890728372292"><ele>111.33333333333334</ele><time>2026-03-22T09:43:16.998Z</time></trkpt><trkpt lat="42.97027152139715" lon="13.728617190146648"><ele>112.0</ele><time>2026-03-22T09:43:17.998Z</time></trkpt><trkpt lat="42.97023748622751" lon="13.72834078457368"><ele>112.0</ele><time>2026-03-22T09:43:18.998Z</time></trkpt><trkpt lat="42.97020486875884" lon="13.728065802239575"><ele>112.0</ele><time>2026-03-22T09:43:19.998Z</time></trkpt><trkpt lat="42.97017310001494" lon="13.72778738360219"><ele>112.0</ele><time>2026-03-22T09:43:20.998Z</time></trkpt><trkpt lat="42.97013560062233" lon="13.727467275385761"><ele>112.0</ele><time>2026-03-22T09:43:21.998Z</time></trkpt><trkpt lat="42.9700949485022" lon="13.727138942007851"><ele>112.0</ele><time>2026-03-22T09:43:22.998Z</time></trkpt><trkpt lat="42.97005307060743" lon="13.726811865658632"><ele>114.0</ele><time>2026-03-22T09:43:23.998Z</time></trkpt><trkpt lat="42.97001352197995" lon="13.726504019400146"><ele>116.0</ele><time>2026-03-22T09:43:24.998Z</time></trkpt><trkpt lat="42.9699733768623" lon="13.72619461849164"><ele>116.33333333333333</ele><time>2026-03-22T09:43:25.998Z</time></trkpt><trkpt lat="42.96993641438249" lon="13.725890614003019"><ele>116.66666666666666</ele><time>2026-03-22T09:43:26.998Z</time></trkpt><trkpt lat="42.969898888421916" lon="13.725610572479658"><ele>117.0</ele><time>2026-03-22T09:43:27.998Z</time></trkpt><trkpt lat="42.969855211075476" lon="13.725338709487037"><ele>117.0</ele><time>2026-03-22T09:43:28.998Z</time></trkpt><trkpt lat="42.96981539644042" lon="13.725071633225157"><ele>117.0</ele><time>2026-03-22T09:43:29.998Z</time></trkpt><trkpt lat="42.969768522874496" lon="13.724802939520192"><ele>117.0</ele><time>2026-03-22T09:43:30.998Z</time></trkpt><trkpt lat="42.96972198440149" lon="13.724514452744655"><ele>117.33333333333334</ele><time>2026-03-22T09:43:31.998Z</time></trkpt><trkpt lat="42.96967506261248" lon="13.724212383578383"><ele>117.66666666666667</ele><time>2026-03-22T09:43:32.998Z</time></trkpt><trkpt lat="42.96963081566272" lon="13.72391604996811"><ele>118.0</ele><time>2026-03-22T09:43:33.998Z</time></trkpt><trkpt lat="42.969589710718765" lon="13.723628209330235"><ele>118.66666666666667</ele><time>2026-03-22T09:43:34.998Z</time></trkpt><trkpt lat="42.96954665665993" lon="13.72334848648282"><ele>119.33333333333334</ele><time>2026-03-22T09:43:36Z</time></trkpt><trkpt lat="42.969506370391876" lon="13.723076798642872"><ele>120.0</ele><time>2026-03-22T09:43:37Z</time></trkpt><trkpt lat="42.96946156606939" lon="13.722813930343433"><ele>120.33333333333334</ele><time>2026-03-22T09:43:38Z</time></trkpt><trkpt lat="42.96942146539604" lon="13.722552056709064"><ele>120.66666666666667</ele><time>2026-03-22T09:43:39Z</time></trkpt><trkpt lat="42.969376193595295" lon="13.722291991470092"><ele>121.0</ele><time>2026-03-22T09:43:40Z</time></trkpt><trkpt lat="42.96932883160441" lon="13.722022927094834"><ele>121.0</ele><time>2026-03-22T09:43:41Z</time></trkpt><trkpt lat="42.96927344998848" lon="13.721755988614373"><ele>121.0</ele><time>2026-03-22T09:43:42Z</time></trkpt><trkpt lat="42.96921228584158" lon="13.721495358683978"><ele>121.0</ele><time>2026-03-22T09:43:43Z</time></trkpt><trkpt lat="42.969153795081006" lon="13.721236996737472"><ele>121.66666666666667</ele><time>2026-03-22T09:43:44Z</time></trkpt><trkpt lat="42.96909631764552" lon="13.720974576419103"><ele>122.33333333333334</ele><time>2026-03-22T09:43:45Z</time></trkpt><trkpt lat="42.96903834090843" lon="13.720722732839924"><ele>123.0</ele><time>2026-03-22T09:43:46Z</time></trkpt><trkpt lat="42.96897869718302" lon="13.720468081154925"><ele>123.33333333333334</ele><time>2026-03-22T09:43:47Z</time></trkpt><trkpt lat="42.96891843808043" lon="13.72021217211864"><ele>123.66666666666667</ele><time>2026-03-22T09:43:48Z</time></trkpt><trkpt lat="42.96885962119609" lon="13.719947564265535"><ele>124.0</ele><time>2026-03-22T09:43:49Z</time></trkpt><trkpt lat="42.96880466710333" lon="13.71968609248463"><ele>124.0</ele><time>2026-03-22T09:43:50Z</time></trkpt><trkpt lat="42.968753202688596" lon="13.719420395962054"><ele>124.0</ele><time>2026-03-22T09:43:51Z</time></trkpt><trkpt lat="42.96870152254943" lon="13.719155293975879"><ele>124.0</ele><time>2026-03-22T09:43:52Z</time></trkpt><trkpt lat="42.96864715545624" lon="13.718886714510568"><ele>124.0</ele><time>2026-03-22T09:43:53Z</time></trkpt><trkpt lat="42.96859394256669" lon="13.71861524732701"><ele>124.0</ele><time>2026-03-22T09:43:54Z</time></trkpt><trkpt lat="42.968538571175145" lon="13.71834262466752"><ele>124.0</ele><time>2026-03-22T09:43:55Z</time></trkpt><trkpt lat="42.96848301111527" lon="13.718071082971903"><ele>124.0</ele><time>2026-03-22T09:43:56Z</time></trkpt><trkpt lat="42.96842891463369" lon="13.717804288580648"><ele>124.0</ele><time>2026-03-22T09:43:57Z</time></trkpt><trkpt lat="42.96837577263971" lon="13.717544658191963"><ele>124.0</ele><time>2026-03-22T09:43:58Z</time></trkpt><trkpt lat="42.96832214703598" lon="13.717286935331115"><ele>124.66666666666667</ele><time>2026-03-22T09:43:59Z</time></trkpt><trkpt lat="42.96827128310356" lon="13.717029185230176"><ele>125.33333333333334</ele><time>2026-03-22T09:44:00Z</time></trkpt><trkpt lat="42.968222109547106" lon="13.716771721865976"><ele>126.0</ele><time>2026-03-22T09:44:01Z</time></trkpt><trkpt lat="42.968166308432835" lon="13.71651988172089"><ele>126.33333333333334</ele><time>2026-03-22T09:44:02Z</time></trkpt><trkpt lat="42.96810946500514" lon="13.716254747293581"><ele>126.66666666666667</ele><time>2026-03-22T09:44:03Z</time></trkpt><trkpt lat="42.968051973482446" lon="13.715976540343084"><ele>127.0</ele><time>2026-03-22T09:44:04Z</time></trkpt><trkpt lat="42.96798587385093" lon="13.715674596253676"><ele>127.33333333333334</ele><time>2026-03-22T09:44:05Z</time></trkpt><trkpt lat="42.967922026066006" lon="13.715377760545994"><ele>127.66666666666666</ele><time>2026-03-22T09:44:06Z</time></trkpt><trkpt lat="42.9678674579625" lon="13.715101266881264"><ele>128.0</ele><time>2026-03-22T09:44:07Z</time></trkpt><trkpt lat="42.96780738663216" lon="13.714824881413435"><ele>128.0</ele><time>2026-03-22T09:44:08Z</time></trkpt><trkpt lat="42.96774348577817" lon="13.714551897545023"><ele>128.0</ele><time>2026-03-22T09:44:09Z</time></trkpt><trkpt lat="42.96768289782428" lon="13.714269996645788"><ele>128.0</ele><time>2026-03-22T09:44:10Z</time></trkpt><trkpt lat="42.967623330417986" lon="13.713980784335657"><ele>128.0</ele><time>2026-03-22T09:44:11Z</time></trkpt><trkpt lat="42.96756565230659" lon="13.713708885027389"><ele>128.0</ele><time>2026-03-22T09:44:12Z</time></trkpt><trkpt lat="42.96751655646023" lon="13.713468499917706"><ele>128.0</ele><time>2026-03-22T09:44:13Z</time></trkpt><trkpt lat="42.96746674865718" lon="13.713236649074227"><ele>128.33333333333331</ele><time>2026-03-22T09:44:14Z</time></trkpt><trkpt lat="42.967427561510846" lon="13.713022165311484"><ele>128.66666666666666</ele><time>2026-03-22T09:44:15Z</time></trkpt><trkpt lat="42.967388702297" lon="13.71282546552307"><ele>129.0</ele><time>2026-03-22T09:44:16Z</time></trkpt><trkpt lat="42.96735431757166" lon="13.71263013677095"><ele>129.25</ele><time>2026-03-22T09:44:17Z</time></trkpt><trkpt lat="42.96731861587091" lon="13.712437310011595"><ele>129.5</ele><time>2026-03-22T09:44:18Z</time></trkpt><trkpt lat="42.96729918881449" lon="13.712254343330644"><ele>129.75</ele><time>2026-03-22T09:44:19Z</time></trkpt><trkpt lat="42.967283591434764" lon="13.712087568462172"><ele>130.0</ele><time>2026-03-22T09:44:19.999Z</time></trkpt><trkpt lat="42.96727584502808" lon="13.711939839081667"><ele>130.0</ele><time>2026-03-22T09:44:20.999Z</time></trkpt><trkpt lat="42.96727489096303" lon="13.711815642769901"><ele>130.0</ele><time>2026-03-22T09:44:21.999Z</time></trkpt><trkpt lat="42.967275337687155" lon="13.711715074064218"><ele>130.0</ele><time>2026-03-22T09:44:22.999Z</time></trkpt><trkpt lat="42.96722554215369" lon="13.711557935934065"><ele>130.0</ele><time>2026-03-22T09:44:24.999Z</time></trkpt><trkpt lat="42.96716867686989" lon="13.711484815651529"><ele>130.0</ele><time>2026-03-22T09:44:25.999Z</time></trkpt><trkpt lat="42.96710867996527" lon="13.711398724719015"><ele>130.0</ele><time>2026-03-22T09:44:26.999Z</time></trkpt><trkpt lat="42.96704564068375" lon="13.711287175141699"><ele>130.0</ele><time>2026-03-22T09:44:27.999Z</time></trkpt><trkpt lat="42.966993701385256" lon="13.7111544813956"><ele>130.0</ele><time>2026-03-22T09:44:28.999Z</time></trkpt><trkpt lat="42.966967385343004" lon="13.71102044557413"><ele>130.0</ele><time>2026-03-22T09:44:29.999Z</time></trkpt><trkpt lat="42.96695232104103" lon="13.710906478068749"><ele>130.0</ele><time>2026-03-22T09:44:30.999Z</time></trkpt><trkpt lat="42.966937724975786" lon="13.710784592164238"><ele>130.2</ele><time>2026-03-22T09:44:31.999Z</time></trkpt><trkpt lat="42.966922409968696" lon="13.71064946230913"><ele>130.4</ele><time>2026-03-22T09:44:32.999Z</time></trkpt><trkpt lat="42.966896694760834" lon="13.710527207091628"><ele>130.6</ele><time>2026-03-22T09:44:33.999Z</time></trkpt><trkpt lat="42.96687354108639" lon="13.710417014766888"><ele>130.8</ele><time>2026-03-22T09:44:34.999Z</time></trkpt><trkpt lat="42.966844110962356" lon="13.710283690271881"><ele>131.0</ele><time>2026-03-22T09:44:35.999Z</time></trkpt><trkpt lat="42.96681256644436" lon="13.710158879904107"><ele>131.0</ele><time>2026-03-22T09:44:36.999Z</time></trkpt><trkpt lat="42.96677794676381" lon="13.710002712311374"><ele>131.0</ele><time>2026-03-22T09:44:37.999Z</time></trkpt><trkpt lat="42.966736170503495" lon="13.709818035430194"><ele>131.0</ele><time>2026-03-22T09:44:38.999Z</time></trkpt><trkpt lat="42.9666914294716" lon="13.709595233544276"><ele>131.0</ele><time>2026-03-22T09:44:39.999Z</time></trkpt><trkpt lat="42.9666298695579" lon="13.70930180265957"><ele>132.5</ele><time>2026-03-22T09:44:40.999Z</time></trkpt><trkpt lat="42.96656128668766" lon="13.708981362210404"><ele>134.0</ele><time>2026-03-22T09:44:41.999Z</time></trkpt><trkpt lat="42.9664925930266" lon="13.708666631509542"><ele>135.0</ele><time>2026-03-22T09:44:42.999Z</time></trkpt><trkpt lat="42.966411193255965" lon="13.708322438680014"><ele>136.0</ele><time>2026-03-22T09:44:43.999Z</time></trkpt><trkpt lat="42.96632097899607" lon="13.707951136982649"><ele>136.0</ele><time>2026-03-22T09:44:44.999Z</time></trkpt><trkpt lat="42.96623551734843" lon="13.707566966162904"><ele>136.0</ele><time>2026-03-22T09:44:45.999Z</time></trkpt><trkpt lat="42.966168805761946" lon="13.707221392613395"><ele>136.0</ele><time>2026-03-22T09:44:46.999Z</time></trkpt><trkpt lat="42.966100082346145" lon="13.706910113048439"><ele>136.0</ele><time>2026-03-22T09:44:47.999Z</time></trkpt><trkpt lat="42.96604228340643" lon="13.706626782609609"><ele>136.0</ele><time>2026-03-22T09:44:48.999Z</time></trkpt><trkpt lat="42.96598181545471" lon="13.706339543105084"><ele>136.0</ele><time>2026-03-22T09:44:49.999Z</time></trkpt><trkpt lat="42.96592115674931" lon="13.7060624657576"><ele>136.0</ele><time>2026-03-22T09:44:50.999Z</time></trkpt><trkpt lat="42.96586347890701" lon="13.70578390691918"><ele>136.33333333333334</ele><time>2026-03-22T09:44:51.999Z</time></trkpt><trkpt lat="42.9658032738043" lon="13.705497272703985"><ele>136.66666666666666</ele><time>2026-03-22T09:44:52.999Z</time></trkpt><trkpt lat="42.965742602301184" lon="13.705211632757784"><ele>137.0</ele><time>2026-03-22T09:44:53.999Z</time></trkpt><trkpt lat="42.96568179025359" lon="13.70491900725525"><ele>137.0</ele><time>2026-03-22T09:44:54.999Z</time></trkpt><trkpt lat="42.96562090583093" lon="13.704634120370999"><ele>137.0</ele><time>2026-03-22T09:44:55.999Z</time></trkpt><trkpt lat="42.965557767705604" lon="13.704358635896504"><ele>137.0</ele><time>2026-03-22T09:44:56.999Z</time></trkpt><trkpt lat="42.96549598751551" lon="13.704080661336725"><ele>137.5</ele><time>2026-03-22T09:44:57.999Z</time></trkpt><trkpt lat="42.96543280875767" lon="13.703784555859194"><ele>138.0</ele><time>2026-03-22T09:44:58.999Z</time></trkpt><trkpt lat="42.965367949741" lon="13.703472649625207"><ele>138.5</ele><time>2026-03-22T09:44:59.999Z</time></trkpt><trkpt lat="42.965301817396735" lon="13.703151070507296"><ele>139.0</ele><time>2026-03-22T09:45:00.999Z</time></trkpt><trkpt lat="42.96523686660563" lon="13.702833253471905"><ele>138.5</ele><time>2026-03-22T09:45:01.999Z</time></trkpt><trkpt lat="42.96517591444542" lon="13.702522127777543"><ele>138.0</ele><time>2026-03-22T09:45:02.999Z</time></trkpt><trkpt lat="42.965117949454495" lon="13.702218557988168"><ele>138.0</ele><time>2026-03-22T09:45:03.999Z</time></trkpt><trkpt lat="42.9650614760592" lon="13.701934263778588"><ele>138.0</ele><time>2026-03-22T09:45:04.999Z</time></trkpt><trkpt lat="42.965014004074085" lon="13.701661876947568"><ele>138.0</ele><time>2026-03-22T09:45:05.999Z</time></trkpt><trkpt lat="42.964970390940564" lon="13.7013949485455"><ele>139.0</ele><time>2026-03-22T09:45:06.999Z</time></trkpt><trkpt lat="42.96492603309307" lon="13.701120595232904"><ele>140.0</ele><time>2026-03-22T09:45:07.999Z</time></trkpt><trkpt lat="42.964876772564175" lon="13.700839604233732"><ele>141.0</ele><time>2026-03-22T09:45:08.999Z</time></trkpt><trkpt lat="42.96481954165596" lon="13.70055399146111"><ele>141.0</ele><time>2026-03-22T09:45:09.999Z</time></trkpt><trkpt lat="42.96475678344317" lon="13.70025228783911"><ele>141.0</ele><time>2026-03-22T09:45:10.999Z</time></trkpt><trkpt lat="42.964686156412334" lon="13.699916519259933"><ele>141.0</ele><time>2026-03-22T09:45:11.999Z</time></trkpt><trkpt lat="42.96460467437007" lon="13.699571933431871"><ele>141.0</ele><time>2026-03-22T09:45:12.999Z</time></trkpt><trkpt lat="42.964517267901435" lon="13.699261246865882"><ele>141.0</ele><time>2026-03-22T09:45:13.999Z</time></trkpt><trkpt lat="42.964432907128106" lon="13.698975131798345"><ele>141.0</ele><time>2026-03-22T09:45:14.999Z</time></trkpt><trkpt lat="42.96435310165857" lon="13.698700957486531"><ele>141.0</ele><time>2026-03-22T09:45:15.999Z</time></trkpt><trkpt lat="42.964253815585195" lon="13.698440928326397"><ele>142.66666666666666</ele><time>2026-03-22T09:45:16.999Z</time></trkpt><trkpt lat="42.96416439997208" lon="13.698178250413804"><ele>144.33333333333331</ele><time>2026-03-22T09:45:17.999Z</time></trkpt><trkpt lat="42.96407262328684" lon="13.69791543942655"><ele>146.0</ele><time>2026-03-22T09:45:18.999Z</time></trkpt><trkpt lat="42.963997064640246" lon="13.697638759694051"><ele>146.0</ele><time>2026-03-22T09:45:19.999Z</time></trkpt><trkpt lat="42.96390698385966" lon="13.69737109905579"><ele>146.0</ele><time>2026-03-22T09:45:20.998Z</time></trkpt><trkpt lat="42.96382513633053" lon="13.69710443485942"><ele>146.0</ele><time>2026-03-22T09:45:21.998Z</time></trkpt><trkpt lat="42.96374516127733" lon="13.696820923848406"><ele>145.33333333333331</ele><time>2026-03-22T09:45:22.998Z</time></trkpt><trkpt lat="42.96366561782305" lon="13.696539791605666"><ele>144.66666666666666</ele><time>2026-03-22T09:45:23.998Z</time></trkpt><trkpt lat="42.96358641978684" lon="13.696252132858088"><ele>144.0</ele><time>2026-03-22T09:45:24.998Z</time></trkpt><trkpt lat="42.963497407173854" lon="13.695959107199696"><ele>143.5</ele><time>2026-03-22T09:45:25.998Z</time></trkpt><trkpt lat="42.96342056066289" lon="13.695650015894538"><ele>143.0</ele><time>2026-03-22T09:45:26.998Z</time></trkpt><trkpt lat="42.96334562723966" lon="13.695333954440615"><ele>144.5</ele><time>2026-03-22T09:45:27.998Z</time></trkpt><trkpt lat="42.96328851479076" lon="13.694993140942463"><ele>146.0</ele><time>2026-03-22T09:45:28.998Z</time></trkpt><trkpt lat="42.963218445633835" lon="13.694642833732319"><ele>146.0</ele><time>2026-03-22T09:45:29.998Z</time></trkpt><trkpt lat="42.963156385444094" lon="13.69433163261078"><ele>146.0</ele><time>2026-03-22T09:45:30.998Z</time></trkpt><trkpt lat="42.96310371381785" lon="13.694040826853485"><ele>146.0</ele><time>2026-03-22T09:45:31.998Z</time></trkpt><trkpt lat="42.96305935268696" lon="13.693769582403037"><ele>146.0</ele><time>2026-03-22T09:45:32.998Z</time></trkpt><trkpt lat="42.963021051662814" lon="13.693505888637583"><ele>146.0</ele><time>2026-03-22T09:45:33.998Z</time></trkpt><trkpt lat="42.96299192390421" lon="13.693246335062335"><ele>146.66666666666666</ele><time>2026-03-22T09:45:34.998Z</time></trkpt><trkpt lat="42.962966950288944" lon="13.692979432666474"><ele>147.33333333333334</ele><time>2026-03-22T09:45:35.998Z</time></trkpt><trkpt lat="42.96293163508959" lon="13.692715194350514"><ele>148.0</ele><time>2026-03-22T09:45:36.998Z</time></trkpt><trkpt lat="42.962888552610835" lon="13.692448805637094"><ele>148.33333333333334</ele><time>2026-03-22T09:45:37.998Z</time></trkpt><trkpt lat="42.962849197978485" lon="13.69219109934108"><ele>148.66666666666666</ele><time>2026-03-22T09:45:38.998Z</time></trkpt><trkpt lat="42.962816988321705" lon="13.69194035410626"><ele>149.0</ele><time>2026-03-22T09:45:39.998Z</time></trkpt><trkpt lat="42.962789087048385" lon="13.691671625412791"><ele>149.0</ele><time>2026-03-22T09:45:40.998Z</time></trkpt><trkpt lat="42.962756268616516" lon="13.691375345932672"><ele>149.0</ele><time>2026-03-22T09:45:42Z</time></trkpt><trkpt lat="42.962725138926714" lon="13.6910739286448"><ele>149.0</ele><time>2026-03-22T09:45:43Z</time></trkpt><trkpt lat="42.9626879648486" lon="13.690773201803328"><ele>149.0</ele><time>2026-03-22T09:45:44Z</time></trkpt><trkpt lat="42.96264897955477" lon="13.690468219696777"><ele>149.0</ele><time>2026-03-22T09:45:45Z</time></trkpt><trkpt lat="42.96260983839878" lon="13.690171068659183"><ele>149.0</ele><time>2026-03-22T09:45:46Z</time></trkpt><trkpt lat="42.9625747580758" lon="13.689885381947526"><ele>149.0</ele><time>2026-03-22T09:45:47Z</time></trkpt><trkpt lat="42.96255319231876" lon="13.689604338840365"><ele>149.0</ele><time>2026-03-22T09:45:48Z</time></trkpt><trkpt lat="42.962546011378556" lon="13.689339100766553"><ele>149.0</ele><time>2026-03-22T09:45:49Z</time></trkpt><trkpt lat="42.96254005955623" lon="13.689062646288086"><ele>149.66666666666666</ele><time>2026-03-22T09:45:50Z</time></trkpt><trkpt lat="42.96250159286191" lon="13.688814844549022"><ele>150.33333333333334</ele><time>2026-03-22T09:45:51Z</time></trkpt><trkpt lat="42.96247452009455" lon="13.688546883648657"><ele>151.0</ele><time>2026-03-22T09:45:52Z</time></trkpt><trkpt lat="42.96245802091777" lon="13.688268980426555"><ele>151.0</ele><time>2026-03-22T09:45:53Z</time></trkpt><trkpt lat="42.96241820390386" lon="13.687993883972354"><ele>151.0</ele><time>2026-03-22T09:45:54Z</time></trkpt><trkpt lat="42.96237122771438" lon="13.687715906888982"><ele>151.0</ele><time>2026-03-22T09:45:55Z</time></trkpt><trkpt lat="42.962325373817585" lon="13.687438590020642"><ele>151.33333333333334</ele><time>2026-03-22T09:45:56Z</time></trkpt><trkpt lat="42.96228183997254" lon="13.687155739300266"><ele>151.66666666666666</ele><time>2026-03-22T09:45:57Z</time></trkpt><trkpt lat="42.96223806680341" lon="13.68686670312275"><ele>152.0</ele><time>2026-03-22T09:45:58Z</time></trkpt><trkpt lat="42.962195963146584" lon="13.686577507802415"><ele>152.33333333333331</ele><time>2026-03-22T09:45:59Z</time></trkpt><trkpt lat="42.96215842887676" lon="13.686286318425653"><ele>152.66666666666666</ele><time>2026-03-22T09:46:00Z</time></trkpt><trkpt lat="42.962129493515036" lon="13.685990505176305"><ele>153.0</ele><time>2026-03-22T09:46:01Z</time></trkpt><trkpt lat="42.96210836482997" lon="13.68569679783337"><ele>153.33333333333334</ele><time>2026-03-22T09:46:02Z</time></trkpt><trkpt lat="42.96210040441399" lon="13.68539751929106"><ele>153.66666666666669</ele><time>2026-03-22T09:46:03Z</time></trkpt><trkpt lat="42.962096588321174" lon="13.68509146545994"><ele>154.0</ele><time>2026-03-22T09:46:04Z</time></trkpt><trkpt lat="42.962098539674116" lon="13.684775728935804"><ele>155.5</ele><time>2026-03-22T09:46:05Z</time></trkpt><trkpt lat="42.962099768475426" lon="13.684458589169358"><ele>157.0</ele><time>2026-03-22T09:46:06Z</time></trkpt><trkpt lat="42.96209711439939" lon="13.684147961856066"><ele>157.0</ele><time>2026-03-22T09:46:07Z</time></trkpt><trkpt lat="42.962083007319485" lon="13.683839143753541"><ele>157.0</ele><time>2026-03-22T09:46:08Z</time></trkpt><trkpt lat="42.9620641291055" lon="13.68355270819938"><ele>157.0</ele><time>2026-03-22T09:46:09Z</time></trkpt><trkpt lat="42.962048101141285" lon="13.68327173051289"><ele>157.0</ele><time>2026-03-22T09:46:10Z</time></trkpt><trkpt lat="42.962034703044495" lon="13.68299745108908"><ele>157.0</ele><time>2026-03-22T09:46:11Z</time></trkpt><trkpt lat="42.96200305703761" lon="13.682724866122074"><ele>157.0</ele><time>2026-03-22T09:46:12Z</time></trkpt><trkpt lat="42.96198886551926" lon="13.682451799475487"><ele>157.33333333333334</ele><time>2026-03-22T09:46:13Z</time></trkpt><trkpt lat="42.9619763110748" lon="13.682160597420262"><ele>157.66666666666666</ele><time>2026-03-22T09:46:14Z</time></trkpt><trkpt lat="42.96197869136472" lon="13.681867151859162"><ele>158.0</ele><time>2026-03-22T09:46:15Z</time></trkpt><trkpt lat="42.961964437818125" lon="13.681569777036245"><ele>159.0</ele><time>2026-03-22T09:46:16Z</time></trkpt><trkpt lat="42.96195952999143" lon="13.681282052452447"><ele>160.0</ele><time>2026-03-22T09:46:17Z</time></trkpt><trkpt lat="42.961963937091646" lon="13.680994476286239"><ele>161.0</ele><time>2026-03-22T09:46:18Z</time></trkpt><trkpt lat="42.96195563924604" lon="13.680706472246303"><ele>161.66666666666666</ele><time>2026-03-22T09:46:19Z</time></trkpt><trkpt lat="42.961961661243365" lon="13.680426457285991"><ele>162.33333333333334</ele><time>2026-03-22T09:46:20Z</time></trkpt><trkpt lat="42.96196813391406" lon="13.68012548638693"><ele>163.0</ele><time>2026-03-22T09:46:21Z</time></trkpt><trkpt lat="42.961981295465534" lon="13.679844668525766"><ele>163.0</ele><time>2026-03-22T09:46:22Z</time></trkpt><trkpt lat="42.96216722568723" lon="13.679590202591552"><ele>163.0</ele><time>2026-03-22T09:46:23Z</time></trkpt><trkpt lat="42.962214580400065" lon="13.679335925709495"><ele>163.33333333333334</ele><time>2026-03-22T09:46:24Z</time></trkpt><trkpt lat="42.962242629145955" lon="13.679108911935236"><ele>163.66666666666666</ele><time>2026-03-22T09:46:25Z</time></trkpt><trkpt lat="42.962261431314964" lon="13.678900657327354"><ele>164.0</ele><time>2026-03-22T09:46:26Z</time></trkpt><trkpt lat="42.96226517448053" lon="13.678701789264645"><ele>164.66666666666666</ele><time>2026-03-22T09:46:26.999Z</time></trkpt><trkpt lat="42.96223856155109" lon="13.678515254537638"><ele>165.33333333333334</ele><time>2026-03-22T09:46:27.999Z</time></trkpt><trkpt lat="42.96217947918036" lon="13.678313426165822"><ele>166.0</ele><time>2026-03-22T09:46:28.999Z</time></trkpt><trkpt lat="42.96209887172799" lon="13.678068543993701"><ele>166.0</ele><time>2026-03-22T09:46:29.999Z</time></trkpt><trkpt lat="42.961996415700035" lon="13.677813401066317"><ele>166.0</ele><time>2026-03-22T09:46:30.999Z</time></trkpt><trkpt lat="42.961887872116286" lon="13.677578425051532"><ele>166.0</ele><time>2026-03-22T09:46:31.999Z</time></trkpt><trkpt lat="42.961777780374085" lon="13.677362786174747"><ele>167.33333333333334</ele><time>2026-03-22T09:46:32.999Z</time></trkpt><trkpt lat="42.961667899756456" lon="13.67716258564379"><ele>168.66666666666666</ele><time>2026-03-22T09:46:33.999Z</time></trkpt><trkpt lat="42.9615644325372" lon="13.676981046244789"><ele>170.0</ele><time>2026-03-22T09:46:34.999Z</time></trkpt><trkpt lat="42.961453322527134" lon="13.676818441622716"><ele>170.0</ele><time>2026-03-22T09:46:35.999Z</time></trkpt><trkpt lat="42.96134046018729" lon="13.676681110763237"><ele>170.0</ele><time>2026-03-22T09:46:36.999Z</time></trkpt><trkpt lat="42.96123105508067" lon="13.676562526741662"><ele>170.0</ele><time>2026-03-22T09:46:37.999Z</time></trkpt><trkpt lat="42.96113428025606" lon="13.676435083904241"><ele>170.0</ele><time>2026-03-22T09:46:38.999Z</time></trkpt><trkpt lat="42.961044701522745" lon="13.676331770588705"><ele>170.0</ele><time>2026-03-22T09:46:39.999Z</time></trkpt><trkpt lat="42.96096508648856" lon="13.676238418846896"><ele>170.0</ele><time>2026-03-22T09:46:40.999Z</time></trkpt><trkpt lat="42.9608910150423" lon="13.676157866714615"><ele>170.0</ele><time>2026-03-22T09:46:41.999Z</time></trkpt><trkpt lat="42.960824931980746" lon="13.676093612798658"><ele>170.0</ele><time>2026-03-22T09:46:42.999Z</time></trkpt><trkpt lat="42.96076332512365" lon="13.676020853806207"><ele>170.0</ele><time>2026-03-22T09:46:43.999Z</time></trkpt><trkpt lat="42.96071398738795" lon="13.675957631653963"><ele>170.0</ele><time>2026-03-22T09:46:44.999Z</time></trkpt><trkpt lat="42.9606652191699" lon="13.675871726222626"><ele>172.0</ele><time>2026-03-22T09:46:45.999Z</time></trkpt><trkpt lat="42.9606069316396" lon="13.675734403228976"><ele>174.0</ele><time>2026-03-22T09:46:46.999Z</time></trkpt><trkpt lat="42.96054332919129" lon="13.675555631053234"><ele>176.0</ele><time>2026-03-22T09:46:47.999Z</time></trkpt><trkpt lat="42.960484783432996" lon="13.675389240034121"><ele>178.0</ele><time>2026-03-22T09:46:48.999Z</time></trkpt><trkpt lat="42.960431266542365" lon="13.675240363234654"><ele>178.0</ele><time>2026-03-22T09:46:49.999Z</time></trkpt><trkpt lat="42.96038124869171" lon="13.675107134195818"><ele>178.0</ele><time>2026-03-22T09:46:50.999Z</time></trkpt><trkpt lat="42.96034611204491" lon="13.674995428038292"><ele>178.0</ele><time>2026-03-22T09:46:51.999Z</time></trkpt><trkpt lat="42.96031303626309" lon="13.674904070343333"><ele>178.0</ele><time>2026-03-22T09:46:52.999Z</time></trkpt><trkpt lat="42.960286910038185" lon="13.67481818497043"><ele>178.0</ele><time>2026-03-22T09:46:53.999Z</time></trkpt><trkpt lat="42.96028076559321" lon="13.674718714175413"><ele>178.0</ele><time>2026-03-22T09:46:54.999Z</time></trkpt><trkpt lat="42.96028216337797" lon="13.674584480235183"><ele>179.5</ele><time>2026-03-22T09:46:55.999Z</time></trkpt><trkpt lat="42.96028987666331" lon="13.674412168236671"><ele>181.0</ele><time>2026-03-22T09:46:56.999Z</time></trkpt><trkpt lat="42.960305687709194" lon="13.674231802258953"><ele>182.5</ele><time>2026-03-22T09:46:57.999Z</time></trkpt><trkpt lat="42.96031551907982" lon="13.674062131006778"><ele>184.0</ele><time>2026-03-22T09:46:58.999Z</time></trkpt><trkpt lat="42.96031929148935" lon="13.673883476511474"><ele>184.0</ele><time>2026-03-22T09:46:59.999Z</time></trkpt><trkpt lat="42.96032404644036" lon="13.673708893115526"><ele>184.0</ele><time>2026-03-22T09:47:00.999Z</time></trkpt><trkpt lat="42.96032010407892" lon="13.673551233352597"><ele>184.0</ele><time>2026-03-22T09:47:01.999Z</time></trkpt><trkpt lat="42.96030481744289" lon="13.673406393676785"><ele>184.0</ele><time>2026-03-22T09:47:02.999Z</time></trkpt><trkpt lat="42.960279718948755" lon="13.673267875641347"><ele>184.5</ele><time>2026-03-22T09:47:03.999Z</time></trkpt><trkpt lat="42.96024143494059" lon="13.673138625159096"><ele>185.0</ele><time>2026-03-22T09:47:04.999Z</time></trkpt><trkpt lat="42.96017225425682" lon="13.673012900394768"><ele>185.5</ele><time>2026-03-22T09:47:05.999Z</time></trkpt><trkpt lat="42.96007144250942" lon="13.672905525459454"><ele>186.0</ele><time>2026-03-22T09:47:06.999Z</time></trkpt><trkpt lat="42.95993947793183" lon="13.672802373498412"><ele>184.0</ele><time>2026-03-22T09:47:07.999Z</time></trkpt><trkpt lat="42.95981029390892" lon="13.672707076631562"><ele>182.0</ele><time>2026-03-22T09:47:08.999Z</time></trkpt><trkpt lat="42.959699518630636" lon="13.672563577504047"><ele>180.0</ele><time>2026-03-22T09:47:09.999Z</time></trkpt><trkpt lat="42.95960859970754" lon="13.672400579736033"><ele>178.0</ele><time>2026-03-22T09:47:10.999Z</time></trkpt><trkpt lat="42.95952179532213" lon="13.672224043979188"><ele>178.0</ele><time>2026-03-22T09:47:11.999Z</time></trkpt><trkpt lat="42.959440900938155" lon="13.67203681133964"><ele>178.0</ele><time>2026-03-22T09:47:12.999Z</time></trkpt><trkpt lat="42.95937856861331" lon="13.67185713291829"><ele>178.0</ele><time>2026-03-22T09:47:13.999Z</time></trkpt><trkpt lat="42.95932970578059" lon="13.67170241395275"><ele>178.0</ele><time>2026-03-22T09:47:14.999Z</time></trkpt><trkpt lat="42.95926784063327" lon="13.671579388904178"><ele>178.25</ele><time>2026-03-22T09:47:15.999Z</time></trkpt><trkpt lat="42.95918594412759" lon="13.67145565452371"><ele>178.5</ele><time>2026-03-22T09:47:16.999Z</time></trkpt><trkpt lat="42.95909900331174" lon="13.671330665063413"><ele>178.75</ele><time>2026-03-22T09:47:17.999Z</time></trkpt><trkpt lat="42.95900534734794" lon="13.671195221707078"><ele>179.0</ele><time>2026-03-22T09:47:18.999Z</time></trkpt><trkpt lat="42.958923870560305" lon="13.671077364592989"><ele>178.25</ele><time>2026-03-22T09:47:19.999Z</time></trkpt><trkpt lat="42.95884120386039" lon="13.670977855600249"><ele>177.5</ele><time>2026-03-22T09:47:20.999Z</time></trkpt><trkpt lat="42.9587383075674" lon="13.670886826978087"><ele>176.75</ele><time>2026-03-22T09:47:21.999Z</time></trkpt><trkpt lat="42.95863057787176" lon="13.67081463153234"><ele>176.0</ele><time>2026-03-22T09:47:22.999Z</time></trkpt><trkpt lat="42.9585087991455" lon="13.67077573941902"><ele>176.5</ele><time>2026-03-22T09:47:23.999Z</time></trkpt><trkpt lat="42.95836732455721" lon="13.670781202963994"><ele>177.0</ele><time>2026-03-22T09:47:24.999Z</time></trkpt><trkpt lat="42.95822328631237" lon="13.670797056987833"><ele>177.5</ele><time>2026-03-22T09:47:25.999Z</time></trkpt><trkpt lat="42.958101487757425" lon="13.670806866359907"><ele>178.0</ele><time>2026-03-22T09:47:26.999Z</time></trkpt><trkpt lat="42.95799904192119" lon="13.670781861362068"><ele>178.0</ele><time>2026-03-22T09:47:27.998Z</time></trkpt><trkpt lat="42.957902459825306" lon="13.67073410766303"><ele>178.0</ele><time>2026-03-22T09:47:28.998Z</time></trkpt><trkpt lat="42.957822709447726" lon="13.67067783072763"><ele>178.0</ele><time>2026-03-22T09:47:29.998Z</time></trkpt><trkpt lat="42.957746024726355" lon="13.670617284569241"><ele>178.0</ele><time>2026-03-22T09:47:30.998Z</time></trkpt><trkpt lat="42.957694126500755" lon="13.670529380395216"><ele>178.0</ele><time>2026-03-22T09:47:31.998Z</time></trkpt><trkpt lat="42.95767114938803" lon="13.67042865257886"><ele>178.0</ele><time>2026-03-22T09:47:32.998Z</time></trkpt><trkpt lat="42.95766707668951" lon="13.670286451868266"><ele>178.66666666666669</ele><time>2026-03-22T09:47:33.998Z</time></trkpt><trkpt lat="42.9576418966122" lon="13.670095888294744"><ele>179.33333333333334</ele><time>2026-03-22T09:47:34.998Z</time></trkpt><trkpt lat="42.957585031074295" lon="13.669892967823117"><ele>180.0</ele><time>2026-03-22T09:47:35.998Z</time></trkpt><trkpt lat="42.95752588053388" lon="13.669656821050753"><ele>180.33333333333334</ele><time>2026-03-22T09:47:36.998Z</time></trkpt><trkpt lat="42.95748027254727" lon="13.669411208820225"><ele>180.66666666666669</ele><time>2026-03-22T09:47:37.998Z</time></trkpt><trkpt lat="42.957450211482616" lon="13.669210786629462"><ele>181.0</ele><time>2026-03-22T09:47:38.998Z</time></trkpt><trkpt lat="42.95744831182809" lon="13.66903910367299"><ele>181.0</ele><time>2026-03-22T09:47:39.998Z</time></trkpt><trkpt lat="42.95747804504531" lon="13.668879367659827"><ele>181.0</ele><time>2026-03-22T09:47:40.998Z</time></trkpt><trkpt lat="42.957530990238745" lon="13.668703757490919"><ele>181.0</ele><time>2026-03-22T09:47:41.998Z</time></trkpt><trkpt lat="42.95757074025626" lon="13.66849624000173"><ele>181.0</ele><time>2026-03-22T09:47:42.998Z</time></trkpt><trkpt lat="42.95757664374687" lon="13.668300951318821"><ele>181.33333333333334</ele><time>2026-03-22T09:47:43.998Z</time></trkpt><trkpt lat="42.957558903222456" lon="13.668104986683371"><ele>181.66666666666666</ele><time>2026-03-22T09:47:44.998Z</time></trkpt><trkpt lat="42.9575166893553" lon="13.667884758291567"><ele>182.0</ele><time>2026-03-22T09:47:45.998Z</time></trkpt><trkpt lat="42.95746279798238" lon="13.667636157175195"><ele>182.66666666666666</ele><time>2026-03-22T09:47:46.998Z</time></trkpt><trkpt lat="42.95743378621719" lon="13.667371687610357"><ele>183.33333333333334</ele><time>2026-03-22T09:47:48Z</time></trkpt><trkpt lat="42.95741562250513" lon="13.667122916866928"><ele>184.0</ele><time>2026-03-22T09:47:49Z</time></trkpt><trkpt lat="42.95739839627724" lon="13.666918388952139"><ele>184.0</ele><time>2026-03-22T09:47:50Z</time></trkpt><trkpt lat="42.9573813817585" lon="13.666679374046844"><ele>184.0</ele><time>2026-03-22T09:47:51Z</time></trkpt><trkpt lat="42.95738442946466" lon="13.666498102478977"><ele>184.0</ele><time>2026-03-22T09:47:52Z</time></trkpt><trkpt lat="42.957392286176024" lon="13.666347184918202"><ele>184.0</ele><time>2026-03-22T09:47:53Z</time></trkpt><trkpt lat="42.95735801592753" lon="13.666191424807154"><ele>185.66666666666669</ele><time>2026-03-22T09:47:54Z</time></trkpt><trkpt lat="42.957292736993686" lon="13.666016935782832"><ele>187.33333333333334</ele><time>2026-03-22T09:47:55Z</time></trkpt><trkpt lat="42.957204535185284" lon="13.665824811873"><ele>189.0</ele><time>2026-03-22T09:47:56Z</time></trkpt><trkpt lat="42.957100431922065" lon="13.665633052652568"><ele>189.0</ele><time>2026-03-22T09:47:57Z</time></trkpt><trkpt lat="42.95699548990279" lon="13.665463882752448"><ele>189.0</ele><time>2026-03-22T09:47:58Z</time></trkpt><trkpt lat="42.95688279211486" lon="13.665315005744121"><ele>189.0</ele><time>2026-03-22T09:47:59Z</time></trkpt><trkpt lat="42.95675599154723" lon="13.66519524910567"><ele>188.25</ele><time>2026-03-22T09:48:00Z</time></trkpt><trkpt lat="42.95662868686394" lon="13.665094062316598"><ele>187.5</ele><time>2026-03-22T09:48:01Z</time></trkpt><trkpt lat="42.95652576567475" lon="13.665004156869186"><ele>186.75</ele><time>2026-03-22T09:48:02Z</time></trkpt><trkpt lat="42.9564380292091" lon="13.664924091754115"><ele>186.0</ele><time>2026-03-22T09:48:03Z</time></trkpt><trkpt lat="42.95634737527405" lon="13.664822083502582"><ele>186.0</ele><time>2026-03-22T09:48:04Z</time></trkpt><trkpt lat="42.9563124019398" lon="13.664685560259077"><ele>186.0</ele><time>2026-03-22T09:48:05Z</time></trkpt><trkpt lat="42.95626671349237" lon="13.664502075621414"><ele>186.0</ele><time>2026-03-22T09:48:06Z</time></trkpt><trkpt lat="42.95622807991434" lon="13.664274870123963"><ele>186.0</ele><time>2026-03-22T09:48:07Z</time></trkpt><trkpt lat="42.95616615014756" lon="13.664044712386522"><ele>187.0</ele><time>2026-03-22T09:48:08Z</time></trkpt><trkpt lat="42.95614749790928" lon="13.663824056095704"><ele>188.0</ele><time>2026-03-22T09:48:09Z</time></trkpt><trkpt lat="42.956118411566536" lon="13.663635550457172"><ele>189.0</ele><time>2026-03-22T09:48:10Z</time></trkpt><trkpt lat="42.95608625111897" lon="13.663492272815208"><ele>190.0</ele><time>2026-03-22T09:48:11Z</time></trkpt><trkpt lat="42.956044737646096" lon="13.663385778281299"><ele>190.33333333333334</ele><time>2026-03-22T09:48:12Z</time></trkpt><trkpt lat="42.956011067609175" lon="13.663283051812984"><ele>190.66666666666669</ele><time>2026-03-22T09:48:13Z</time></trkpt><trkpt lat="42.95597111439445" lon="13.663129379691876"><ele>191.0</ele><time>2026-03-22T09:48:15Z</time></trkpt><trkpt lat="42.955981563040574" lon="13.663016447196918"><ele>191.33333333333334</ele><time>2026-03-22T09:48:17Z</time></trkpt><trkpt lat="42.95604595613832" lon="13.662950082275366"><ele>191.66666666666666</ele><time>2026-03-22T09:48:19Z</time></trkpt><trkpt lat="42.95607918993739" lon="13.662858013507524"><ele>192.0</ele><time>2026-03-22T09:48:21Z</time></trkpt><trkpt lat="42.95611253312127" lon="13.662727254734534"><ele>192.0</ele><time>2026-03-22T09:48:23Z</time></trkpt><trkpt lat="42.95607132418564" lon="13.66262309920763"><ele>192.0</ele><time>2026-03-22T09:48:25Z</time></trkpt><trkpt lat="42.95602022570075" lon="13.662480129757416"><ele>192.0</ele><time>2026-03-22T09:48:27Z</time></trkpt><trkpt lat="42.95597631033476" lon="13.662408632485379"><ele>192.0</ele><time>2026-03-22T09:48:28Z</time></trkpt><trkpt lat="42.955929944395876" lon="13.662306511852217"><ele>192.0</ele><time>2026-03-22T09:48:29Z</time></trkpt><trkpt lat="42.95582690793823" lon="13.662248283338249"><ele>195.0</ele><time>2026-03-22T09:48:31Z</time></trkpt><trkpt lat="42.956092442981955" lon="13.661670098513952"><ele>195.0</ele><time>2026-03-22T09:48:32Z</time></trkpt><trkpt lat="42.956093597891126" lon="13.661470916728094"><ele>195.0</ele><time>2026-03-22T09:48:33Z</time></trkpt><trkpt lat="42.95609678539882" lon="13.661290429700669"><ele>195.0</ele><time>2026-03-22T09:48:33.999Z</time></trkpt><trkpt lat="42.95608983096197" lon="13.661109579358891"><ele>195.0</ele><time>2026-03-22T09:48:34.999Z</time></trkpt><trkpt lat="42.95608926502762" lon="13.660942774723216"><ele>197.25</ele><time>2026-03-22T09:48:35.999Z</time></trkpt><trkpt lat="42.95608858918677" lon="13.660783483921998"><ele>199.5</ele><time>2026-03-22T09:48:36.999Z</time></trkpt><trkpt lat="42.95608712013456" lon="13.660631610753784"><ele>201.75</ele><time>2026-03-22T09:48:37.999Z</time></trkpt><trkpt lat="42.95608015626074" lon="13.660467101610758"><ele>204.0</ele><time>2026-03-22T09:48:38.999Z</time></trkpt><trkpt lat="42.95607749694934" lon="13.660292235876218"><ele>206.39999999999998</ele><time>2026-03-22T09:48:39.999Z</time></trkpt><trkpt lat="42.95607091035545" lon="13.660132783752633"><ele>208.8</ele><time>2026-03-22T09:48:40.999Z</time></trkpt><trkpt lat="42.956064866634016" lon="13.66000777023796"><ele>211.20000000000002</ele><time>2026-03-22T09:48:41.999Z</time></trkpt><trkpt lat="42.956060531967104" lon="13.659892080362178"><ele>213.60000000000002</ele><time>2026-03-22T09:48:42.999Z</time></trkpt><trkpt lat="42.956065586551254" lon="13.65975503303965"><ele>216.0</ele><time>2026-03-22T09:48:43.999Z</time></trkpt><trkpt lat="42.95606345952863" lon="13.659611302637916"><ele>216.0</ele><time>2026-03-22T09:48:44.999Z</time></trkpt><trkpt lat="42.95605422449785" lon="13.659463474079255"><ele>216.00000000000003</ele><time>2026-03-22T09:48:45.999Z</time></trkpt><trkpt lat="42.95604441709136" lon="13.659314857826098"><ele>216.00000000000003</ele><time>2026-03-22T09:48:46.999Z</time></trkpt><trkpt lat="42.95603663212858" lon="13.659179798190923"><ele>216.0</ele><time>2026-03-22T09:48:47.999Z</time></trkpt><trkpt lat="42.9560296245524" lon="13.65903237590665"><ele>216.0</ele><time>2026-03-22T09:48:48.999Z</time></trkpt><trkpt lat="42.956029652968176" lon="13.65888899893239"><ele>219.0</ele><time>2026-03-22T09:48:49.999Z</time></trkpt><trkpt lat="42.95603098777785" lon="13.658737415626108"><ele>222.0</ele><time>2026-03-22T09:48:50.999Z</time></trkpt><trkpt lat="42.95603319635785" lon="13.658561872701075"><ele>225.0</ele><time>2026-03-22T09:48:51.999Z</time></trkpt><trkpt lat="42.956044196462905" lon="13.658406743783905"><ele>228.0</ele><time>2026-03-22T09:48:52.999Z</time></trkpt><trkpt lat="42.956050453990365" lon="13.658247874486674"><ele>232.0</ele><time>2026-03-22T09:48:53.999Z</time></trkpt><trkpt lat="42.95604707405408" lon="13.65807084250934"><ele>236.0</ele><time>2026-03-22T09:48:54.999Z</time></trkpt><trkpt lat="42.95603486556845" lon="13.6578816977934"><ele>240.0</ele><time>2026-03-22T09:48:55.999Z</time></trkpt><trkpt lat="42.95602558518062" lon="13.657744947251087"><ele>244.0</ele><time>2026-03-22T09:48:56.999Z</time></trkpt><trkpt lat="42.95603423389733" lon="13.657606322328734"><ele>246.6</ele><time>2026-03-22T09:48:58.999Z</time></trkpt><trkpt lat="42.95609592424914" lon="13.657441140848237"><ele>249.2</ele><time>2026-03-22T09:49:00.999Z</time></trkpt><trkpt lat="42.9561457731342" lon="13.65732687907074"><ele>251.79999999999998</ele><time>2026-03-22T09:49:01.999Z</time></trkpt><trkpt lat="42.95620460824037" lon="13.657197545380969"><ele>254.39999999999998</ele><time>2026-03-22T09:49:02.999Z</time></trkpt><trkpt lat="42.95622885683163" lon="13.657062702689455"><ele>257.0</ele><time>2026-03-22T09:49:03.999Z</time></trkpt><trkpt lat="42.95627464693215" lon="13.65694428929662"><ele>258.8</ele><time>2026-03-22T09:49:04.999Z</time></trkpt><trkpt lat="42.95631569817902" lon="13.656838128610465"><ele>260.6</ele><time>2026-03-22T09:49:05.999Z</time></trkpt><trkpt lat="42.9563555824306" lon="13.656734985620767"><ele>262.40000000000003</ele><time>2026-03-22T09:49:06.999Z</time></trkpt><trkpt lat="42.956396169151496" lon="13.656630026022523"><ele>264.2</ele><time>2026-03-22T09:49:07.999Z</time></trkpt><trkpt lat="42.95644378013058" lon="13.656506901362082"><ele>266.0</ele><time>2026-03-22T09:49:08.999Z</time></trkpt><trkpt lat="42.95649197583357" lon="13.6563914862762"><ele>266.0</ele><time>2026-03-22T09:49:09.999Z</time></trkpt><trkpt lat="42.956547878341624" lon="13.656269140280308"><ele>266.0</ele><time>2026-03-22T09:49:10.999Z</time></trkpt><trkpt lat="42.956608215160294" lon="13.656153039150295"><ele>266.0</ele><time>2026-03-22T09:49:11.999Z</time></trkpt><trkpt lat="42.95667641574976" lon="13.656051933304994"><ele>266.0</ele><time>2026-03-22T09:49:12.999Z</time></trkpt><trkpt lat="42.95673243811738" lon="13.655927462406504"><ele>266.0</ele><time>2026-03-22T09:49:13.999Z</time></trkpt><trkpt lat="42.95679144653966" lon="13.655811924053138"><ele>266.6</ele><time>2026-03-22T09:49:14.999Z</time></trkpt><trkpt lat="42.956845902519326" lon="13.655702737915481"><ele>267.20000000000005</ele><time>2026-03-22T09:49:15.999Z</time></trkpt><trkpt lat="42.956874260853624" lon="13.65559054484136"><ele>267.79999999999995</ele><time>2026-03-22T09:49:16.999Z</time></trkpt><trkpt lat="42.956929785970146" lon="13.655492294467868"><ele>268.4</ele><time>2026-03-22T09:49:17.999Z</time></trkpt><trkpt lat="42.95697246813767" lon="13.6553691608324"><ele>269.0</ele><time>2026-03-22T09:49:18.999Z</time></trkpt><trkpt lat="42.957015659994916" lon="13.65524046589183"><ele>269.0</ele><time>2026-03-22T09:49:19.999Z</time></trkpt><trkpt lat="42.95705548219863" lon="13.655105538409002"><ele>269.0</ele><time>2026-03-22T09:49:20.999Z</time></trkpt><trkpt lat="42.95708845108044" lon="13.654961912769663"><ele>269.0</ele><time>2026-03-22T09:49:21.999Z</time></trkpt><trkpt lat="42.95712208700945" lon="13.654816665741047"><ele>269.0</ele><time>2026-03-22T09:49:22.999Z</time></trkpt><trkpt lat="42.95715921599837" lon="13.654662840047664"><ele>269.0</ele><time>2026-03-22T09:49:23.999Z</time></trkpt><trkpt lat="42.95719204031486" lon="13.654505595194054"><ele>271.25</ele><time>2026-03-22T09:49:24.999Z</time></trkpt><trkpt lat="42.957225173905876" lon="13.654344769432386"><ele>273.5</ele><time>2026-03-22T09:49:25.999Z</time></trkpt><trkpt lat="42.95726135936464" lon="13.654175966947577"><ele>275.75</ele><time>2026-03-22T09:49:26.999Z</time></trkpt><trkpt lat="42.95729673719699" lon="13.653995221714695"><ele>278.0</ele><time>2026-03-22T09:49:27.999Z</time></trkpt><trkpt lat="42.95732611164466" lon="13.653821268908347"><ele>278.0</ele><time>2026-03-22T09:49:28.999Z</time></trkpt><trkpt lat="42.95734624013375" lon="13.653646932184406"><ele>278.0</ele><time>2026-03-22T09:49:29.999Z</time></trkpt><trkpt lat="42.95735393569991" lon="13.653467663633329"><ele>278.0</ele><time>2026-03-22T09:49:30.999Z</time></trkpt><trkpt lat="42.95735659280985" lon="13.653267723529755"><ele>278.0</ele><time>2026-03-22T09:49:31.999Z</time></trkpt><trkpt lat="42.95735638790724" lon="13.65306620154861"><ele>278.4</ele><time>2026-03-22T09:49:32.999Z</time></trkpt><trkpt lat="42.95735398329438" lon="13.652905133653379"><ele>278.8</ele><time>2026-03-22T09:49:33.998Z</time></trkpt><trkpt lat="42.95735271434163" lon="13.652775042379618"><ele>279.2</ele><time>2026-03-22T09:49:34.998Z</time></trkpt><trkpt lat="42.957357636838736" lon="13.652662203014533"><ele>279.6</ele><time>2026-03-22T09:49:35.998Z</time></trkpt><trkpt lat="42.957367860769544" lon="13.652560216991358"><ele>280.0</ele><time>2026-03-22T09:49:36.998Z</time></trkpt><trkpt lat="42.95738724597032" lon="13.65241576261848"><ele>279.25</ele><time>2026-03-22T09:49:37.998Z</time></trkpt><trkpt lat="42.957465771126586" lon="13.652277106051379"><ele>278.5</ele><time>2026-03-22T09:49:38.998Z</time></trkpt><trkpt lat="42.957561525793324" lon="13.65216242083835"><ele>277.75</ele><time>2026-03-22T09:49:39.998Z</time></trkpt><trkpt lat="42.957657394275635" lon="13.652051835567471"><ele>277.0</ele><time>2026-03-22T09:49:40.998Z</time></trkpt><trkpt lat="42.957771752532196" lon="13.651960346897573"><ele>281.5</ele><time>2026-03-22T09:49:41.998Z</time></trkpt><trkpt lat="42.957901875829954" lon="13.651890420985934"><ele>286.0</ele><time>2026-03-22T09:49:42.998Z</time></trkpt><trkpt lat="42.95804405472206" lon="13.651839269699972"><ele>290.5</ele><time>2026-03-22T09:49:43.998Z</time></trkpt><trkpt lat="42.95817777779627" lon="13.651811601394492"><ele>295.0</ele><time>2026-03-22T09:49:44.998Z</time></trkpt><trkpt lat="42.958296967392016" lon="13.65180706470226"><ele>295.3333333333333</ele><time>2026-03-22T09:49:45.998Z</time></trkpt><trkpt lat="42.95838811530141" lon="13.651824316467339"><ele>295.66666666666663</ele><time>2026-03-22T09:49:46.998Z</time></trkpt><trkpt lat="42.95847208832533" lon="13.651828206347023"><ele>296.0</ele><time>2026-03-22T09:49:47.998Z</time></trkpt><trkpt lat="42.958550082946466" lon="13.65180190834683"><ele>296.3333333333333</ele><time>2026-03-22T09:49:48.998Z</time></trkpt><trkpt lat="42.95863414206378" lon="13.651746337393918"><ele>296.6666666666667</ele><time>2026-03-22T09:49:49.998Z</time></trkpt><trkpt lat="42.958715467494784" lon="13.651675384297107"><ele>297.0</ele><time>2026-03-22T09:49:50.998Z</time></trkpt><trkpt lat="42.95878279081064" lon="13.651571949882976"><ele>297.0</ele><time>2026-03-22T09:49:51.998Z</time></trkpt><trkpt lat="42.95883952001431" lon="13.651469784016868"><ele>297.0</ele><time>2026-03-22T09:49:52.998Z</time></trkpt><trkpt lat="42.95889105129636" lon="13.651331561328531"><ele>297.0</ele><time>2026-03-22T09:49:54Z</time></trkpt><trkpt lat="42.95895868771906" lon="13.651166776675463"><ele>297.0</ele><time>2026-03-22T09:49:55Z</time></trkpt><trkpt lat="42.959059570991684" lon="13.650989012243976"><ele>298.4</ele><time>2026-03-22T09:49:56Z</time></trkpt><trkpt lat="42.95913616271538" lon="13.650839350364867"><ele>299.79999999999995</ele><time>2026-03-22T09:49:57Z</time></trkpt><trkpt lat="42.95916193463665" lon="13.650713398595753"><ele>301.2</ele><time>2026-03-22T09:49:58Z</time></trkpt><trkpt lat="42.95920108089567" lon="13.650615398940849"><ele>302.59999999999997</ele><time>2026-03-22T09:49:59Z</time></trkpt><trkpt lat="42.95926072315165" lon="13.650506975467291"><ele>304.0</ele><time>2026-03-22T09:50:01Z</time></trkpt><trkpt lat="42.959277936408846" lon="13.650401676195264"><ele>303.2</ele><time>2026-03-22T09:50:18Z</time></trkpt><trkpt lat="42.95928322225192" lon="13.65026952511542"><ele>302.4</ele><time>2026-03-22T09:50:20Z</time></trkpt><trkpt lat="42.95920349088121" lon="13.650212386442812"><ele>301.6</ele><time>2026-03-22T09:50:21Z</time></trkpt><trkpt lat="42.95910990284787" lon="13.650095773587406"><ele>300.8</ele><time>2026-03-22T09:50:23Z</time></trkpt><trkpt lat="42.95903538921365" lon="13.650032234116768"><ele>300.0</ele><time>2026-03-22T09:50:24Z</time></trkpt><trkpt lat="42.95894627796841" lon="13.649922071071934"><ele>304.3333333333333</ele><time>2026-03-22T09:50:25Z</time></trkpt><trkpt lat="42.95883637894331" lon="13.649793427241956"><ele>308.66666666666663</ele><time>2026-03-22T09:50:26Z</time></trkpt><trkpt lat="42.95871069570762" lon="13.649644630252542"><ele>313.0</ele><time>2026-03-22T09:50:27Z</time></trkpt><trkpt lat="42.95856356868277" lon="13.649474468767046"><ele>312.25</ele><time>2026-03-22T09:50:28Z</time></trkpt><trkpt lat="42.95845214688796" lon="13.649341819657236"><ele>311.5</ele><time>2026-03-22T09:50:29Z</time></trkpt><trkpt lat="42.958353556054504" lon="13.649225480705686"><ele>310.75</ele><time>2026-03-22T09:50:30Z</time></trkpt><trkpt lat="42.95825959558744" lon="13.649113711820286"><ele>310.0</ele><time>2026-03-22T09:50:31Z</time></trkpt><trkpt lat="42.95815468734463" lon="13.649003836902395"><ele>311.25</ele><time>2026-03-22T09:50:32Z</time></trkpt><trkpt lat="42.958037995128095" lon="13.648889779915999"><ele>312.5</ele><time>2026-03-22T09:50:33Z</time></trkpt><trkpt lat="42.95792130343342" lon="13.648763807263137"><ele>313.75</ele><time>2026-03-22T09:50:34Z</time></trkpt><trkpt lat="42.957819537020185" lon="13.648619318412953"><ele>315.0</ele><time>2026-03-22T09:50:35Z</time></trkpt><trkpt lat="42.957720085624636" lon="13.648491195263889"><ele>315.0</ele><time>2026-03-22T09:50:36Z</time></trkpt><trkpt lat="42.95762888150062" lon="13.648398824746666"><ele>315.0</ele><time>2026-03-22T09:50:37Z</time></trkpt><trkpt lat="42.957464479132746" lon="13.64822169667646"><ele>315.0</ele><time>2026-03-22T09:50:38Z</time></trkpt><trkpt lat="42.95732275325883" lon="13.648068298669276"><ele>317.0</ele><time>2026-03-22T09:50:39Z</time></trkpt><trkpt lat="42.95717010209599" lon="13.647921054475223"><ele>319.0</ele><time>2026-03-22T09:50:39.999Z</time></trkpt><trkpt lat="42.95703694954637" lon="13.647799092910706"><ele>321.0</ele><time>2026-03-22T09:50:40.999Z</time></trkpt><trkpt lat="42.95690647435758" lon="13.647690261870377"><ele>321.0</ele><time>2026-03-22T09:50:41.999Z</time></trkpt><trkpt lat="42.95675799357031" lon="13.647580559901717"><ele>321.0</ele><time>2026-03-22T09:50:42.999Z</time></trkpt><trkpt lat="42.95662401499439" lon="13.64745816413656"><ele>321.0</ele><time>2026-03-22T09:50:43.999Z</time></trkpt><trkpt lat="42.95650046658238" lon="13.647349133675446"><ele>324.0</ele><time>2026-03-22T09:50:44.999Z</time></trkpt><trkpt lat="42.95637175031234" lon="13.647244809049294"><ele>327.0</ele><time>2026-03-22T09:50:45.999Z</time></trkpt><trkpt lat="42.956242730838" lon="13.647146186752614"><ele>330.0</ele><time>2026-03-22T09:50:46.999Z</time></trkpt><trkpt lat="42.956130163331125" lon="13.647012411122018"><ele>333.0</ele><time>2026-03-22T09:50:47.999Z</time></trkpt><trkpt lat="42.956040775210354" lon="13.646852433736612"><ele>333.0</ele><time>2026-03-22T09:50:48.999Z</time></trkpt><trkpt lat="42.95601459290554" lon="13.646605893706766"><ele>333.0</ele><time>2026-03-22T09:50:49.999Z</time></trkpt><trkpt lat="42.955973202652466" lon="13.646361453188684"><ele>333.0</ele><time>2026-03-22T09:50:50.999Z</time></trkpt><trkpt lat="42.95590053330161" lon="13.6461178098155"><ele>335.3333333333333</ele><time>2026-03-22T09:50:51.999Z</time></trkpt><trkpt lat="42.955852576072544" lon="13.645833655987111"><ele>337.66666666666663</ele><time>2026-03-22T09:50:52.999Z</time></trkpt><trkpt lat="42.95577569993888" lon="13.64558615635323"><ele>340.0</ele><time>2026-03-22T09:50:53.999Z</time></trkpt><trkpt lat="42.95571459107031" lon="13.6453376351474"><ele>342.0</ele><time>2026-03-22T09:50:54.999Z</time></trkpt><trkpt lat="42.95565840871211" lon="13.645110107399415"><ele>344.0</ele><time>2026-03-22T09:50:55.999Z</time></trkpt><trkpt lat="42.9556183666902" lon="13.644880677661883"><ele>346.0</ele><time>2026-03-22T09:50:56.999Z</time></trkpt><trkpt lat="42.955548083539895" lon="13.644658557741742"><ele>345.66666666666663</ele><time>2026-03-22T09:50:57.999Z</time></trkpt><trkpt lat="42.95549665536184" lon="13.644447044752269"><ele>345.3333333333333</ele><time>2026-03-22T09:50:58.999Z</time></trkpt><trkpt lat="42.95544800764883" lon="13.644246907337129"><ele>345.0</ele><time>2026-03-22T09:50:59.999Z</time></trkpt><trkpt lat="42.95539753341684" lon="13.644053737690253"><ele>345.0</ele><time>2026-03-22T09:51:00.999Z</time></trkpt><trkpt lat="42.955341124543665" lon="13.643866233615947"><ele>345.0</ele><time>2026-03-22T09:51:01.999Z</time></trkpt><trkpt lat="42.955260223617145" lon="13.643699154558451"><ele>345.0</ele><time>2026-03-22T09:51:02.999Z</time></trkpt><trkpt lat="42.95516411479974" lon="13.643527903641516"><ele>343.3333333333333</ele><time>2026-03-22T09:51:03.999Z</time></trkpt><trkpt lat="42.955039671181275" lon="13.64337304585221"><ele>341.66666666666663</ele><time>2026-03-22T09:51:04.999Z</time></trkpt><trkpt lat="42.9549313440037" lon="13.643197113647044"><ele>340.0</ele><time>2026-03-22T09:51:05.999Z</time></trkpt><trkpt lat="42.95485514759725" lon="13.642989785240646"><ele>343.0</ele><time>2026-03-22T09:51:06.999Z</time></trkpt><trkpt lat="42.954777178901196" lon="13.642767187294291"><ele>346.0</ele><time>2026-03-22T09:51:07.999Z</time></trkpt><trkpt lat="42.954732743957784" lon="13.642530433223463"><ele>349.0</ele><time>2026-03-22T09:51:08.999Z</time></trkpt><trkpt lat="42.954683661177576" lon="13.642294876828567"><ele>349.0</ele><time>2026-03-22T09:51:09.999Z</time></trkpt><trkpt lat="42.95462003529465" lon="13.642058498294642"><ele>349.0</ele><time>2026-03-22T09:51:10.999Z</time></trkpt><trkpt lat="42.95453936070495" lon="13.641820729361351"><ele>349.0</ele><time>2026-03-22T09:51:11.999Z</time></trkpt><trkpt lat="42.954467676856524" lon="13.641573913622544"><ele>345.66666666666663</ele><time>2026-03-22T09:51:12.999Z</time></trkpt><trkpt lat="42.95438845432089" lon="13.641354930632025"><ele>342.3333333333333</ele><time>2026-03-22T09:51:13.999Z</time></trkpt><trkpt lat="42.95431250508369" lon="13.641156308132176"><ele>339.0</ele><time>2026-03-22T09:51:14.999Z</time></trkpt><trkpt lat="42.95425251194286" lon="13.640983068011002"><ele>335.3333333333333</ele><time>2026-03-22T09:51:15.999Z</time></trkpt><trkpt lat="42.954208775918254" lon="13.640800618999492"><ele>331.66666666666663</ele><time>2026-03-22T09:51:16.999Z</time></trkpt><trkpt lat="42.95418331979786" lon="13.640592852995216"><ele>328.0</ele><time>2026-03-22T09:51:17.999Z</time></trkpt><trkpt lat="42.95419149370678" lon="13.64036964960032"><ele>339.3333333333333</ele><time>2026-03-22T09:51:18.999Z</time></trkpt><trkpt lat="42.954189124034215" lon="13.64014273336734"><ele>350.6666666666667</ele><time>2026-03-22T09:51:19.999Z</time></trkpt><trkpt lat="42.95417864137765" lon="13.639904106115356"><ele>362.0</ele><time>2026-03-22T09:51:20.999Z</time></trkpt><trkpt lat="42.95415576271796" lon="13.639665929833583"><ele>360.6666666666667</ele><time>2026-03-22T09:51:21.999Z</time></trkpt><trkpt lat="42.95411812017466" lon="13.63944175101259"><ele>359.3333333333333</ele><time>2026-03-22T09:51:22.999Z</time></trkpt><trkpt lat="42.95406213930803" lon="13.639258345456076"><ele>358.0</ele><time>2026-03-22T09:51:23.999Z</time></trkpt><trkpt lat="42.953974399603204" lon="13.639091447775717"><ele>358.0</ele><time>2026-03-22T09:51:24.999Z</time></trkpt><trkpt lat="42.95386814196459" lon="13.638922193377548"><ele>358.0</ele><time>2026-03-22T09:51:25.999Z</time></trkpt><trkpt lat="42.9537348515515" lon="13.638823772260741"><ele>358.0</ele><time>2026-03-22T09:51:26.999Z</time></trkpt><trkpt lat="42.95360847990957" lon="13.638761752409977"><ele>358.0</ele><time>2026-03-22T09:51:27.999Z</time></trkpt><trkpt lat="42.953499409895315" lon="13.63870880832381"><ele>358.0</ele><time>2026-03-22T09:51:28.999Z</time></trkpt><trkpt lat="42.9533956390234" lon="13.63868164696055"><ele>358.0</ele><time>2026-03-22T09:51:29.999Z</time></trkpt><trkpt lat="42.95331198188238" lon="13.638671090029618"><ele>358.0</ele><time>2026-03-22T09:51:30.999Z</time></trkpt><trkpt lat="42.95324605088343" lon="13.638644162994344"><ele>358.0</ele><time>2026-03-22T09:51:31.999Z</time></trkpt><trkpt lat="42.95318223088002" lon="13.638605786862726"><ele>358.0</ele><time>2026-03-22T09:51:34.999Z</time></trkpt><trkpt lat="42.953234263831085" lon="13.638382874173491"><ele>357.25</ele><time>2026-03-22T09:51:37.998Z</time></trkpt><trkpt lat="42.95328828970278" lon="13.638276621732224"><ele>356.5</ele><time>2026-03-22T09:51:38.998Z</time></trkpt><trkpt lat="42.95335266931444" lon="13.638148158412806"><ele>355.75</ele><time>2026-03-22T09:51:39.998Z</time></trkpt><trkpt lat="42.95343510974529" lon="13.637996359705637"><ele>355.0</ele><time>2026-03-22T09:51:40.998Z</time></trkpt><trkpt lat="42.953509845259646" lon="13.637858975765823"><ele>355.66666666666663</ele><time>2026-03-22T09:51:41.998Z</time></trkpt><trkpt lat="42.95355912777742" lon="13.63774060619547"><ele>356.3333333333333</ele><time>2026-03-22T09:51:42.998Z</time></trkpt><trkpt lat="42.953601428996606" lon="13.637624686608811"><ele>357.0</ele><time>2026-03-22T09:51:43.998Z</time></trkpt><trkpt lat="42.95365357665251" lon="13.637534997578049"><ele>357.6666666666667</ele><time>2026-03-22T09:51:44.998Z</time></trkpt><trkpt lat="42.95371438138965" lon="13.637458273735977"><ele>358.33333333333337</ele><time>2026-03-22T09:51:45.998Z</time></trkpt><trkpt lat="42.95377877348575" lon="13.637377099293984"><ele>359.0</ele><time>2026-03-22T09:51:46.998Z</time></trkpt><trkpt lat="42.95384746067467" lon="13.637294540949494"><ele>359.0</ele><time>2026-03-22T09:51:47.998Z</time></trkpt><trkpt lat="42.95392936483059" lon="13.637197725474094"><ele>359.0</ele><time>2026-03-22T09:51:48.998Z</time></trkpt><trkpt lat="42.95401905958544" lon="13.637092183544791"><ele>359.0</ele><time>2026-03-22T09:51:49.998Z</time></trkpt><trkpt lat="42.954111686400154" lon="13.636985608871935"><ele>359.0</ele><time>2026-03-22T09:51:50.998Z</time></trkpt><trkpt lat="42.95419829184358" lon="13.63688596229778"><ele>356.4</ele><time>2026-03-22T09:51:51.998Z</time></trkpt><trkpt lat="42.95428309805603" lon="13.63679000909821"><ele>353.79999999999995</ele><time>2026-03-22T09:51:52.998Z</time></trkpt><trkpt lat="42.954367844982926" lon="13.636694969369984"><ele>351.20000000000005</ele><time>2026-03-22T09:51:53.998Z</time></trkpt><trkpt lat="42.95444853490737" lon="13.63660943975367"><ele>348.6</ele><time>2026-03-22T09:51:54.998Z</time></trkpt><trkpt lat="42.95452643652322" lon="13.636524917331345"><ele>346.0</ele><time>2026-03-22T09:51:55.998Z</time></trkpt><trkpt lat="42.954602789466854" lon="13.636436891873046"><ele>346.0</ele><time>2026-03-22T09:51:56.998Z</time></trkpt><trkpt lat="42.9546795579199" lon="13.636338831087334"><ele>346.0</ele><time>2026-03-22T09:51:57.998Z</time></trkpt><trkpt lat="42.954765281569834" lon="13.636216893485987"><ele>346.0</ele><time>2026-03-22T09:51:58.998Z</time></trkpt><trkpt lat="42.95486625171138" lon="13.636073069797906"><ele>346.0</ele><time>2026-03-22T09:52:00Z</time></trkpt><trkpt lat="42.95495539147401" lon="13.635952477007255"><ele>343.5</ele><time>2026-03-22T09:52:01Z</time></trkpt><trkpt lat="42.955053479153065" lon="13.635822137540906"><ele>341.0</ele><time>2026-03-22T09:52:02Z</time></trkpt><trkpt lat="42.95514943702362" lon="13.635695921759407"><ele>338.5</ele><time>2026-03-22T09:52:03Z</time></trkpt><trkpt lat="42.955233616943765" lon="13.635585639979208"><ele>336.0</ele><time>2026-03-22T09:52:04Z</time></trkpt><trkpt lat="42.95530122741889" lon="13.63549706542362"><ele>336.0</ele><time>2026-03-22T09:52:05Z</time></trkpt><trkpt lat="42.955361966167075" lon="13.635417771200952"><ele>336.0</ele><time>2026-03-22T09:52:06Z</time></trkpt><trkpt lat="42.95541738931983" lon="13.63534609336743"><ele>336.0</ele><time>2026-03-22T09:52:07Z</time></trkpt><trkpt lat="42.95547791309827" lon="13.635267818901832"><ele>336.0</ele><time>2026-03-22T09:52:08Z</time></trkpt><trkpt lat="42.955540677491946" lon="13.635186646731622"><ele>336.0</ele><time>2026-03-22T09:52:09Z</time></trkpt><trkpt lat="42.955608278821046" lon="13.635098308274088"><ele>336.0</ele><time>2026-03-22T09:52:10Z</time></trkpt><trkpt lat="42.95567373613754" lon="13.635009293437195"><ele>338.3333333333333</ele><time>2026-03-22T09:52:11Z</time></trkpt><trkpt lat="42.95573281292979" lon="13.634924904235053"><ele>340.6666666666667</ele><time>2026-03-22T09:52:12Z</time></trkpt><trkpt lat="42.955791802222535" lon="13.634837980749152"><ele>343.0</ele><time>2026-03-22T09:52:13Z</time></trkpt><trkpt lat="42.955851302162976" lon="13.63474908588074"><ele>345.33333333333337</ele><time>2026-03-22T09:52:14Z</time></trkpt><trkpt lat="42.95590406768612" lon="13.634668353304908"><ele>347.6666666666667</ele><time>2026-03-22T09:52:15Z</time></trkpt><trkpt lat="42.955954064406704" lon="13.63457370851141"><ele>350.0</ele><time>2026-03-22T09:52:16Z</time></trkpt><trkpt lat="42.955986227537785" lon="13.634476974755776"><ele>346.2</ele><time>2026-03-22T09:52:17Z</time></trkpt><trkpt lat="42.95601094517449" lon="13.634364450780248"><ele>342.4</ele><time>2026-03-22T09:52:18Z</time></trkpt><trkpt lat="42.95602276618103" lon="13.634249623654792"><ele>338.6</ele><time>2026-03-22T09:52:19Z</time></trkpt><trkpt lat="42.95601494463511" lon="13.634123404197375"><ele>334.8</ele><time>2026-03-22T09:52:20Z</time></trkpt><trkpt lat="42.95600608219087" lon="13.633962129694423"><ele>331.0</ele><time>2026-03-22T09:52:21Z</time></trkpt><trkpt lat="42.95600127269041" lon="13.633753809678268"><ele>332.3333333333333</ele><time>2026-03-22T09:52:22Z</time></trkpt><trkpt lat="42.955988690532514" lon="13.633530350774054"><ele>333.6666666666667</ele><time>2026-03-22T09:52:23Z</time></trkpt><trkpt lat="42.95597396082658" lon="13.63332245283256"><ele>335.0</ele><time>2026-03-22T09:52:24Z</time></trkpt><trkpt lat="42.955960690447334" lon="13.63313515199899"><ele>335.0</ele><time>2026-03-22T09:52:25Z</time></trkpt><trkpt lat="42.95594137398591" lon="13.632965368889554"><ele>335.0</ele><time>2026-03-22T09:52:26Z</time></trkpt><trkpt lat="42.95594556297068" lon="13.632799249732628"><ele>335.0</ele><time>2026-03-22T09:52:27Z</time></trkpt><trkpt lat="42.95592885095298" lon="13.63264139734495"><ele>335.0</ele><time>2026-03-22T09:52:28Z</time></trkpt><trkpt lat="42.95591791838598" lon="13.632489777655652"><ele>335.1666666666667</ele><time>2026-03-22T09:52:29Z</time></trkpt><trkpt lat="42.95590419305396" lon="13.632375383079584"><ele>335.33333333333337</ele><time>2026-03-22T09:52:30Z</time></trkpt><trkpt lat="42.95589289635664" lon="13.632219274813792"><ele>335.5</ele><time>2026-03-22T09:52:32Z</time></trkpt><trkpt lat="42.9558816778435" lon="13.632093692690345"><ele>335.6666666666667</ele><time>2026-03-22T09:52:34Z</time></trkpt><trkpt lat="42.95586885413125" lon="13.632004941295229"><ele>335.8333333333333</ele><time>2026-03-22T09:52:36Z</time></trkpt><trkpt lat="42.95589063197232" lon="13.63211112960894"><ele>336.0</ele><time>2026-03-22T09:52:43Z</time></trkpt><trkpt lat="42.95583377399842" lon="13.631938046580249"><ele>334.3333333333333</ele><time>2026-03-22T09:52:44Z</time></trkpt><trkpt lat="42.95590254388112" lon="13.632310239644216"><ele>332.66666666666663</ele><time>2026-03-22T09:52:45Z</time></trkpt><trkpt lat="42.95590837452604" lon="13.632423942026309"><ele>331.0</ele><time>2026-03-22T09:52:45.999Z</time></trkpt><trkpt lat="42.95591967990479" lon="13.632593412912833"><ele>331.0</ele><time>2026-03-22T09:52:46.999Z</time></trkpt><trkpt lat="42.95593182256594" lon="13.63277013833896"><ele>331.0</ele><time>2026-03-22T09:52:47.999Z</time></trkpt><trkpt lat="42.95594490464725" lon="13.632934701242018"><ele>331.0</ele><time>2026-03-22T09:52:48.999Z</time></trkpt><trkpt lat="42.95595351426503" lon="13.63308196970469"><ele>331.0</ele><time>2026-03-22T09:52:49.999Z</time></trkpt><trkpt lat="42.955961618427466" lon="13.63320856476309"><ele>331.0</ele><time>2026-03-22T09:52:50.999Z</time></trkpt><trkpt lat="42.95597039896238" lon="13.633348714199553"><ele>331.0</ele><time>2026-03-22T09:52:51.999Z</time></trkpt><trkpt lat="42.955979741456765" lon="13.633507747661634"><ele>331.0</ele><time>2026-03-22T09:52:52.999Z</time></trkpt><trkpt lat="42.955987488548736" lon="13.633675711055126"><ele>331.0</ele><time>2026-03-22T09:52:53.999Z</time></trkpt><trkpt lat="42.95599422556775" lon="13.63384228718997"><ele>331.0</ele><time>2026-03-22T09:52:54.999Z</time></trkpt><trkpt lat="42.95600127889388" lon="13.633984258701007"><ele>331.0</ele><time>2026-03-22T09:52:55.999Z</time></trkpt><trkpt lat="42.9560022941968" lon="13.634083693487751"><ele>331.0</ele><time>2026-03-22T09:52:56.999Z</time></trkpt><trkpt lat="42.95598428441914" lon="13.634183289015528"><ele>331.0</ele><time>2026-03-22T09:52:57.999Z</time></trkpt><trkpt lat="42.95598674804674" lon="13.63429815242952"><ele>331.0</ele><time>2026-03-22T09:52:58.999Z</time></trkpt><trkpt lat="42.95595717973727" lon="13.634452355138011"><ele>331.0</ele><time>2026-03-22T09:53:00.999Z</time></trkpt><trkpt lat="42.955926177435934" lon="13.634550424431815"><ele>331.0</ele><time>2026-03-22T09:53:02.999Z</time></trkpt><trkpt lat="42.9560299205968" lon="13.634491425377083"><ele>331.0</ele><time>2026-03-22T09:53:08.999Z</time></trkpt><trkpt lat="42.956075466300504" lon="13.634419014539342"><ele>331.0</ele><time>2026-03-22T09:53:09.999Z</time></trkpt><trkpt lat="42.95612816387326" lon="13.63435596730628"><ele>331.0</ele><time>2026-03-22T09:53:10.999Z</time></trkpt><trkpt lat="42.95617763433493" lon="13.634281360334258"><ele>331.0</ele><time>2026-03-22T09:53:11.999Z</time></trkpt><trkpt lat="42.956225427488725" lon="13.634199678258408"><ele>331.0</ele><time>2026-03-22T09:53:12.999Z</time></trkpt><trkpt lat="42.95628239043216" lon="13.634094493086089"><ele>331.0</ele><time>2026-03-22T09:53:13.999Z</time></trkpt><trkpt lat="42.9563534171305" lon="13.633988109013666"><ele>331.0</ele><time>2026-03-22T09:53:14.999Z</time></trkpt><trkpt lat="42.95642162254058" lon="13.63390224767684"><ele>331.0</ele><time>2026-03-22T09:53:15.999Z</time></trkpt><trkpt lat="42.95649378950763" lon="13.63380387998768"><ele>331.0</ele><time>2026-03-22T09:53:16.999Z</time></trkpt><trkpt lat="42.95656794320196" lon="13.63370486455265"><ele>332.0</ele><time>2026-03-22T09:53:17.999Z</time></trkpt><trkpt lat="42.95665218490409" lon="13.63358595731035"><ele>333.0</ele><time>2026-03-22T09:53:18.999Z</time></trkpt><trkpt lat="42.9567349564908" lon="13.633473331622422"><ele>334.0</ele><time>2026-03-22T09:53:19.999Z</time></trkpt><trkpt lat="42.95681029282177" lon="13.633368803849578"><ele>335.0</ele><time>2026-03-22T09:53:20.999Z</time></trkpt><trkpt lat="42.956886082286545" lon="13.633263402637164"><ele>330.6</ele><time>2026-03-22T09:53:21.999Z</time></trkpt><trkpt lat="42.95698595367728" lon="13.633175815465886"><ele>326.2</ele><time>2026-03-22T09:53:22.999Z</time></trkpt><trkpt lat="42.95708102259278" lon="13.633092339577916"><ele>321.8</ele><time>2026-03-22T09:53:23.999Z</time></trkpt><trkpt lat="42.957154162651385" lon="13.633012944345708"><ele>317.4</ele><time>2026-03-22T09:53:24.999Z</time></trkpt><trkpt lat="42.9572421662401" lon="13.632958628178608"><ele>313.0</ele><time>2026-03-22T09:53:25.999Z</time></trkpt><trkpt lat="42.957305535952834" lon="13.632899964158346"><ele>313.0</ele><time>2026-03-22T09:53:26.999Z</time></trkpt><trkpt lat="42.957366992425484" lon="13.632841371792788"><ele>313.0</ele><time>2026-03-22T09:53:27.999Z</time></trkpt><trkpt lat="42.95742647693153" lon="13.632772708258532"><ele>313.0</ele><time>2026-03-22T09:53:28.999Z</time></trkpt><trkpt lat="42.95746527138596" lon="13.632701466180675"><ele>313.0</ele><time>2026-03-22T09:53:29.999Z</time></trkpt><trkpt lat="42.95749384184585" lon="13.632617685275182"><ele>313.0</ele><time>2026-03-22T09:53:30.999Z</time></trkpt><trkpt lat="42.957491802429296" lon="13.63252734669578"><ele>313.0</ele><time>2026-03-22T09:53:31.999Z</time></trkpt><trkpt lat="42.957497694708884" lon="13.632429599275254"><ele>313.0</ele><time>2026-03-22T09:53:32.999Z</time></trkpt><trkpt lat="42.957507086977955" lon="13.63227110478569"><ele>313.5</ele><time>2026-03-22T09:53:33.999Z</time></trkpt><trkpt lat="42.9574979898648" lon="13.632078384418643"><ele>314.0</ele><time>2026-03-22T09:53:34.999Z</time></trkpt><trkpt lat="42.95750403731697" lon="13.631910323873772"><ele>314.5</ele><time>2026-03-22T09:53:35.999Z</time></trkpt><trkpt lat="42.957511243499496" lon="13.63175143603952"><ele>315.0</ele><time>2026-03-22T09:53:36.999Z</time></trkpt><trkpt lat="42.957537196655906" lon="13.631600938165288"><ele>308.0</ele><time>2026-03-22T09:53:37.999Z</time></trkpt><trkpt lat="42.957536058560144" lon="13.631463597896515"><ele>301.0</ele><time>2026-03-22T09:53:38.999Z</time></trkpt><trkpt lat="42.95756510969806" lon="13.631329765496853"><ele>294.0</ele><time>2026-03-22T09:53:39.999Z</time></trkpt><trkpt lat="42.95756261187191" lon="13.6312013310214"><ele>287.0</ele><time>2026-03-22T09:53:40.999Z</time></trkpt><trkpt lat="42.95758550355122" lon="13.63105691557542"><ele>280.0</ele><time>2026-03-22T09:53:41.999Z</time></trkpt><trkpt lat="42.957601609545755" lon="13.630921702251422"><ele>280.0</ele><time>2026-03-22T09:53:42.999Z</time></trkpt><trkpt lat="42.95761584133028" lon="13.630785274675148"><ele>280.0</ele><time>2026-03-22T09:53:43.998Z</time></trkpt><trkpt lat="42.957649610225694" lon="13.630661854104304"><ele>280.0</ele><time>2026-03-22T09:53:44.998Z</time></trkpt><trkpt lat="42.957669399126424" lon="13.63054269463361"><ele>280.0</ele><time>2026-03-22T09:53:45.998Z</time></trkpt><trkpt lat="42.9576927224243" lon="13.630423324569245"><ele>280.0</ele><time>2026-03-22T09:53:46.998Z</time></trkpt><trkpt lat="42.95772168482611" lon="13.630304383804383"><ele>281.4</ele><time>2026-03-22T09:53:47.998Z</time></trkpt><trkpt lat="42.957742087771756" lon="13.630148232375245"><ele>282.8</ele><time>2026-03-22T09:53:48.998Z</time></trkpt><trkpt lat="42.95778825473674" lon="13.630021351497918"><ele>284.2</ele><time>2026-03-22T09:53:49.998Z</time></trkpt><trkpt lat="42.957807264535965" lon="13.629881264736367"><ele>285.6</ele><time>2026-03-22T09:53:50.998Z</time></trkpt><trkpt lat="42.95786759108673" lon="13.629754730551923"><ele>287.0</ele><time>2026-03-22T09:53:51.998Z</time></trkpt><trkpt lat="42.95791038410448" lon="13.629610207190728"><ele>287.0</ele><time>2026-03-22T09:53:52.998Z</time></trkpt><trkpt lat="42.95795281688475" lon="13.629494172322588"><ele>287.0</ele><time>2026-03-22T09:53:53.998Z</time></trkpt><trkpt lat="42.957975303223186" lon="13.629385842752185"><ele>287.0</ele><time>2026-03-22T09:53:54.998Z</time></trkpt><trkpt lat="42.95798517344237" lon="13.62928479493701"><ele>287.0</ele><time>2026-03-22T09:53:55.998Z</time></trkpt><trkpt lat="42.958029246061564" lon="13.629147994052277"><ele>287.0</ele><time>2026-03-22T09:53:57.998Z</time></trkpt><trkpt lat="42.95804691226648" lon="13.629059294410295"><ele>287.0</ele><time>2026-03-22T09:53:59.998Z</time></trkpt><trkpt lat="42.95790148242935" lon="13.629035561657876"><ele>287.83333333333337</ele><time>2026-03-22T09:54:06Z</time></trkpt><trkpt lat="42.95786482293626" lon="13.629105826361153"><ele>288.6666666666667</ele><time>2026-03-22T09:54:08Z</time></trkpt><trkpt lat="42.95780172867371" lon="13.629099263182544"><ele>289.5</ele><time>2026-03-22T09:54:12Z</time></trkpt><trkpt lat="42.95782011936876" lon="13.629014966272553"><ele>290.3333333333333</ele><time>2026-03-22T09:54:14Z</time></trkpt><trkpt lat="42.957866861266965" lon="13.628887412362783"><ele>291.16666666666663</ele><time>2026-03-22T09:54:16Z</time></trkpt><trkpt lat="42.95791457297529" lon="13.628780182993955"><ele>292.0</ele><time>2026-03-22T09:54:18Z</time></trkpt><trkpt lat="42.95797161219511" lon="13.62868025301061"><ele>291.8</ele><time>2026-03-22T09:54:20Z</time></trkpt><trkpt lat="42.9580320533277" lon="13.628605571979593"><ele>291.6</ele><time>2026-03-22T09:54:22Z</time></trkpt><trkpt lat="42.95813152077945" lon="13.62857766114043"><ele>291.40000000000003</ele><time>2026-03-22T09:54:24Z</time></trkpt><trkpt lat="42.9582128283001" lon="13.62850438318584"><ele>291.2</ele><time>2026-03-22T09:54:26Z</time></trkpt><trkpt lat="42.95823571340807" lon="13.62835280222955"><ele>291.0</ele><time>2026-03-22T09:54:28Z</time></trkpt><trkpt lat="42.95823113809565" lon="13.628211506813974"><ele>291.0</ele><time>2026-03-22T09:54:30Z</time></trkpt><trkpt lat="42.95823746722884" lon="13.628122568234868"><ele>291.0</ele><time>2026-03-22T09:54:33Z</time></trkpt><trkpt lat="42.95827879453837" lon="13.628047046440356"><ele>291.0</ele><time>2026-03-22T09:54:35Z</time></trkpt><trkpt lat="42.95831876799628" lon="13.627928551960329"><ele>291.0</ele><time>2026-03-22T09:54:37Z</time></trkpt><trkpt lat="42.958286923941046" lon="13.627794364597507"><ele>291.0</ele><time>2026-03-22T09:54:39Z</time></trkpt><trkpt lat="42.95824898980387" lon="13.627705771032538"><ele>291.0</ele><time>2026-03-22T09:54:41Z</time></trkpt><trkpt lat="42.95820658514506" lon="13.627635375463525"><ele>288.8333333333333</ele><time>2026-03-22T09:54:43Z</time></trkpt><trkpt lat="42.958142364144926" lon="13.627588910935899"><ele>286.6666666666667</ele><time>2026-03-22T09:54:45Z</time></trkpt><trkpt lat="42.9580772266291" lon="13.627550741912941"><ele>284.5</ele><time>2026-03-22T09:54:47Z</time></trkpt><trkpt lat="42.95802703171905" lon="13.62746609872962"><ele>282.33333333333337</ele><time>2026-03-22T09:54:49Z</time></trkpt><trkpt lat="42.95797489739217" lon="13.62736410776848"><ele>280.1666666666667</ele><time>2026-03-22T09:54:52.999Z</time></trkpt><trkpt lat="42.95790875921115" lon="13.62730284483254"><ele>278.0</ele><time>2026-03-22T09:54:54.999Z</time></trkpt><trkpt lat="42.95784046297768" lon="13.627275597890215"><ele>278.0</ele><time>2026-03-22T09:54:56.999Z</time></trkpt><trkpt lat="42.95777881015666" lon="13.627207201334418"><ele>278.0</ele><time>2026-03-22T09:55:08.999Z</time></trkpt><trkpt lat="42.957720813717444" lon="13.627132355191433"><ele>278.0</ele><time>2026-03-22T09:55:11.999Z</time></trkpt><trkpt lat="42.957673471812775" lon="13.62706533243692"><ele>278.0</ele><time>2026-03-22T09:55:14.999Z</time></trkpt><trkpt lat="42.9576242011679" lon="13.62700373204439"><ele>278.0</ele><time>2026-03-22T09:55:17.999Z</time></trkpt><trkpt lat="42.9575578309276" lon="13.62698871412597"><ele>278.0</ele><time>2026-03-22T09:55:20.999Z</time></trkpt><trkpt lat="42.95751100360464" lon="13.626907095189575"><ele>278.0</ele><time>2026-03-22T09:55:24.999Z</time></trkpt><trkpt lat="42.95744473725087" lon="13.62685304675899"><ele>274.83333333333337</ele><time>2026-03-22T09:55:26.999Z</time></trkpt><trkpt lat="42.95737963242008" lon="13.626802952209118"><ele>271.6666666666667</ele><time>2026-03-22T09:55:28.999Z</time></trkpt><trkpt lat="42.95734788684059" lon="13.626727701366445"><ele>268.5</ele><time>2026-03-22T09:55:30.999Z</time></trkpt><trkpt lat="42.957375275242065" lon="13.62663145775363"><ele>265.3333333333333</ele><time>2026-03-22T09:55:33.999Z</time></trkpt><trkpt lat="42.957451917963105" lon="13.626603526456039"><ele>262.16666666666663</ele><time>2026-03-22T09:55:35.999Z</time></trkpt><trkpt lat="42.95753526831872" lon="13.62658340738105"><ele>259.0</ele><time>2026-03-22T09:55:37.999Z</time></trkpt><trkpt lat="42.957617603939184" lon="13.626575848585082"><ele>257.8333333333333</ele><time>2026-03-22T09:55:39.999Z</time></trkpt><trkpt lat="42.95769920683575" lon="13.626537034216831"><ele>256.66666666666663</ele><time>2026-03-22T09:55:41.999Z</time></trkpt><trkpt lat="42.957777857882434" lon="13.6265217112948"><ele>255.5</ele><time>2026-03-22T09:55:43.999Z</time></trkpt><trkpt lat="42.95787156871399" lon="13.626505261172795"><ele>254.33333333333331</ele><time>2026-03-22T09:55:45.999Z</time></trkpt><trkpt lat="42.9579538784656" lon="13.626517038041722"><ele>253.16666666666666</ele><time>2026-03-22T09:55:47.998Z</time></trkpt><trkpt lat="42.95802546228791" lon="13.62651654220781"><ele>252.0</ele><time>2026-03-22T09:55:49.998Z</time></trkpt><trkpt lat="42.958107410506265" lon="13.626528449935645"><ele>252.0</ele><time>2026-03-22T09:55:52.998Z</time></trkpt><trkpt lat="42.95817759294802" lon="13.626556972428306"><ele>252.0</ele><time>2026-03-22T09:55:55.998Z</time></trkpt><trkpt lat="42.9581912631261" lon="13.626457179991027"><ele>252.0</ele><time>2026-03-22T09:55:59.998Z</time></trkpt><trkpt lat="42.95813529280019" lon="13.626378650165917"><ele>252.0</ele><time>2026-03-22T09:56:03.998Z</time></trkpt><trkpt lat="42.95807342501967" lon="13.626325129838223"><ele>252.0</ele><time>2026-03-22T09:56:07.998Z</time></trkpt><trkpt lat="42.95801458887874" lon="13.626251077495816"><ele>252.0</ele><time>2026-03-22T09:56:12Z</time></trkpt><trkpt lat="42.957963123621454" lon="13.62619634838563"><ele>252.0</ele><time>2026-03-22T09:56:14Z</time></trkpt><trkpt lat="42.957919937043975" lon="13.626107614719489"><ele>250.5</ele><time>2026-03-22T09:56:17Z</time></trkpt><trkpt lat="42.95791361121598" lon="13.6260148629168"><ele>249.0</ele><time>2026-03-22T09:56:28Z</time></trkpt><trkpt lat="42.95787486362721" lon="13.625943568465365"><ele>247.5</ele><time>2026-03-22T09:56:33Z</time></trkpt><trkpt lat="42.95787895904391" lon="13.625849747123162"><ele>246.0</ele><time>2026-03-22T09:56:37Z</time></trkpt><trkpt lat="42.95797355840127" lon="13.62581336265923"><ele>244.5</ele><time>2026-03-22T09:57:17.999Z</time></trkpt><trkpt lat="42.95806916734074" lon="13.625821707363801"><ele>243.0</ele><time>2026-03-22T09:57:19.999Z</time></trkpt><trkpt lat="42.95816313362071" lon="13.625871740685096"><ele>243.0</ele><time>2026-03-22T09:57:21.999Z</time></trkpt><trkpt lat="42.958215023046606" lon="13.625921130936858"><ele>243.0</ele><time>2026-03-22T09:57:22.999Z</time></trkpt><trkpt lat="42.95831787087694" lon="13.62599694327942"><ele>243.0</ele><time>2026-03-22T09:57:24.999Z</time></trkpt><trkpt lat="42.958407237393146" lon="13.626050533089163"><ele>243.0</ele><time>2026-03-22T09:57:26.999Z</time></trkpt><trkpt lat="42.9584999046717" lon="13.626116831490389"><ele>243.0</ele><time>2026-03-22T09:57:28.999Z</time></trkpt><trkpt lat="42.958594881930594" lon="13.626245380868719"><ele>241.66666666666666</ele><time>2026-03-22T09:57:30.999Z</time></trkpt><trkpt lat="42.958665870538695" lon="13.626345205922094"><ele>240.33333333333331</ele><time>2026-03-22T09:57:31.999Z</time></trkpt><trkpt lat="42.958723843814774" lon="13.626409730128126"><ele>239.0</ele><time>2026-03-22T09:57:32.999Z</time></trkpt><trkpt lat="42.958777448803836" lon="13.626464941721268"><ele>237.66666666666666</ele><time>2026-03-22T09:57:33.999Z</time></trkpt><trkpt lat="42.958824515980446" lon="13.626577408013567"><ele>236.33333333333331</ele><time>2026-03-22T09:57:35.999Z</time></trkpt><trkpt lat="42.958844999606676" lon="13.626685468952774"><ele>235.0</ele><time>2026-03-22T09:57:38.999Z</time></trkpt><trkpt lat="42.958801913250625" lon="13.62677515876952"><ele>234.99999999999997</ele><time>2026-03-22T09:57:42.999Z</time></trkpt><trkpt lat="42.95883188629852" lon="13.626896668047202"><ele>235.0</ele><time>2026-03-22T09:57:44.999Z</time></trkpt><trkpt lat="42.95890078107522" lon="13.62695904716733"><ele>235.0</ele><time>2026-03-22T09:57:46.999Z</time></trkpt><trkpt lat="42.95898946987201" lon="13.626989238033158"><ele>235.0</ele><time>2026-03-22T09:57:48.998Z</time></trkpt><trkpt lat="42.95905942420077" lon="13.62699145196632"><ele>234.99999999999997</ele><time>2026-03-22T09:57:50.998Z</time></trkpt><trkpt lat="42.95910751794307" lon="13.627096179987179"><ele>235.0</ele><time>2026-03-22T09:57:53.998Z</time></trkpt><trkpt lat="42.95915264932148" lon="13.627188195752035"><ele>234.42857142857142</ele><time>2026-03-22T09:57:54.998Z</time></trkpt><trkpt lat="42.95920142671695" lon="13.627273173088865"><ele>233.85714285714283</ele><time>2026-03-22T09:57:55.998Z</time></trkpt><trkpt lat="42.959251254320186" lon="13.627339518910993"><ele>233.28571428571428</ele><time>2026-03-22T09:57:56.998Z</time></trkpt><trkpt lat="42.95930928753528" lon="13.627420927027808"><ele>232.71428571428572</ele><time>2026-03-22T09:57:58.998Z</time></trkpt><trkpt lat="42.95936428826166" lon="13.627484638103565"><ele>232.14285714285714</ele><time>2026-03-22T09:58:35Z</time></trkpt><trkpt lat="42.95938444163548" lon="13.627566429431928"><ele>231.57142857142856</ele><time>2026-03-22T09:58:41Z</time></trkpt><trkpt lat="42.95941147710843" lon="13.627669083967547"><ele>231.0</ele><time>2026-03-22T09:58:43Z</time></trkpt><trkpt lat="42.959496803551126" lon="13.627692382043035"><ele>231.0</ele><time>2026-03-22T10:00:24Z</time></trkpt><trkpt lat="42.95954261630436" lon="13.627619069407185"><ele>231.0</ele><time>2026-03-22T10:00:28Z</time></trkpt><trkpt lat="42.95958267702306" lon="13.627513303825971"><ele>231.0</ele><time>2026-03-22T10:00:30Z</time></trkpt><trkpt lat="42.959619372399324" lon="13.627416261337444"><ele>231.0</ele><time>2026-03-22T10:00:32Z</time></trkpt><trkpt lat="42.95966517052083" lon="13.627346252908092"><ele>231.0</ele><time>2026-03-22T10:00:34Z</time></trkpt><trkpt lat="42.9597255682434" lon="13.627284489290242"><ele>231.0</ele><time>2026-03-22T10:00:36Z</time></trkpt><trkpt lat="42.95974370562466" lon="13.627196510822314"><ele>231.0</ele><time>2026-03-22T10:00:38Z</time></trkpt><trkpt lat="42.95972054415638" lon="13.62708170765293"><ele>231.0</ele><time>2026-03-22T10:00:40Z</time></trkpt><trkpt lat="42.959692266833066" lon="13.626990845914627"><ele>231.00000000000003</ele><time>2026-03-22T10:00:42Z</time></trkpt><trkpt lat="42.95962992491888" lon="13.62691937151611"><ele>231.00000000000003</ele><time>2026-03-22T10:01:19.999Z</time></trkpt><trkpt lat="42.95952604532424" lon="13.62692391797106"><ele>231.0</ele><time>2026-03-22T10:01:22.999Z</time></trkpt><trkpt lat="42.959421225031505" lon="13.626955346079802"><ele>231.0</ele><time>2026-03-22T10:01:24.999Z</time></trkpt><trkpt lat="42.95933901634393" lon="13.626986268587052"><ele>231.0</ele><time>2026-03-22T10:01:26.999Z</time></trkpt><trkpt lat="42.95925476157391" lon="13.626946630670663"><ele>231.00000000000003</ele><time>2026-03-22T10:01:28.999Z</time></trkpt><trkpt lat="42.959172707427065" lon="13.62684202135743"><ele>231.00000000000003</ele><time>2026-03-22T10:01:30.999Z</time></trkpt><trkpt lat="42.959115197138026" lon="13.62671231766139"><ele>231.0</ele><time>2026-03-22T10:01:32.999Z</time></trkpt><trkpt lat="42.95907955009274" lon="13.626635525549903"><ele>231.0</ele><time>2026-03-22T10:01:33.999Z</time></trkpt><trkpt lat="42.95899539583048" lon="13.626492770166934"><ele>231.66666666666666</ele><time>2026-03-22T10:01:35.999Z</time></trkpt><trkpt lat="42.95895319940178" lon="13.626412138771295"><ele>232.33333333333331</ele><time>2026-03-22T10:01:36.999Z</time></trkpt><trkpt lat="42.9589090348436" lon="13.62632906862836"><ele>233.0</ele><time>2026-03-22T10:01:37.999Z</time></trkpt><trkpt lat="42.958874508410325" lon="13.626246012263575"><ele>233.66666666666666</ele><time>2026-03-22T10:01:38.999Z</time></trkpt><trkpt lat="42.958810352673005" lon="13.626155649204344"><ele>234.33333333333331</ele><time>2026-03-22T10:01:40.999Z</time></trkpt><trkpt lat="42.9587634367438" lon="13.62608059438813"><ele>235.0</ele><time>2026-03-22T10:01:42.999Z</time></trkpt><trkpt lat="42.95871868825032" lon="13.625989445436444"><ele>235.99999999999997</ele><time>2026-03-22T10:01:45.999Z</time></trkpt><trkpt lat="42.95874728784622" lon="13.625886420639013"><ele>237.0</ele><time>2026-03-22T10:01:51.999Z</time></trkpt><trkpt lat="42.95883471451651" lon="13.625805210405337"><ele>238.0</ele><time>2026-03-22T10:01:53.999Z</time></trkpt><trkpt lat="42.95889106632366" lon="13.625713720889935"><ele>239.0</ele><time>2026-03-22T10:01:55.999Z</time></trkpt><trkpt lat="42.95892715555697" lon="13.625626660991648"><ele>239.99999999999997</ele><time>2026-03-22T10:01:57.999Z</time></trkpt><trkpt lat="42.95893065142863" lon="13.625509732893494"><ele>241.0</ele><time>2026-03-22T10:01:59.999Z</time></trkpt><trkpt lat="42.959002411803404" lon="13.625457837483278"><ele>241.0</ele><time>2026-03-22T10:02:01.999Z</time></trkpt><trkpt lat="42.95907883468277" lon="13.62539080848781"><ele>241.00000000000003</ele><time>2026-03-22T10:02:03.999Z</time></trkpt><trkpt lat="42.95911704176828" lon="13.625246585336399"><ele>241.00000000000003</ele><time>2026-03-22T10:02:05.999Z</time></trkpt><trkpt lat="42.95917515673659" lon="13.625102212338959"><ele>241.0</ele><time>2026-03-22T10:02:07.999Z</time></trkpt><trkpt lat="42.95923458705589" lon="13.625033228044147"><ele>241.0</ele><time>2026-03-22T10:02:08.998Z</time></trkpt><trkpt lat="42.95928893174907" lon="13.62494309597146"><ele>240.8</ele><time>2026-03-22T10:02:09.998Z</time></trkpt><trkpt lat="42.959358040618476" lon="13.624823782154136"><ele>240.60000000000002</ele><time>2026-03-22T10:02:10.998Z</time></trkpt><trkpt lat="42.95940096773998" lon="13.624705338880855"><ele>240.4</ele><time>2026-03-22T10:02:12.998Z</time></trkpt><trkpt lat="42.959421241536596" lon="13.624602978224459"><ele>240.2</ele><time>2026-03-22T10:02:20.998Z</time></trkpt><trkpt lat="42.959427185648835" lon="13.624475664656986"><ele>240.0</ele><time>2026-03-22T10:02:22.998Z</time></trkpt><trkpt lat="42.95940835462966" lon="13.624349176184346"><ele>242.33333333333334</ele><time>2026-03-22T10:02:24.998Z</time></trkpt><trkpt lat="42.95934341127952" lon="13.624241146403461"><ele>244.66666666666669</ele><time>2026-03-22T10:02:26.998Z</time></trkpt><trkpt lat="42.95929935597949" lon="13.624163041611306"><ele>247.0</ele><time>2026-03-22T10:02:27.998Z</time></trkpt><trkpt lat="42.95925794243648" lon="13.624086406579174"><ele>249.33333333333334</ele><time>2026-03-22T10:02:28.998Z</time></trkpt><trkpt lat="42.95921896419137" lon="13.624004672114038"><ele>251.66666666666669</ele><time>2026-03-22T10:02:30Z</time></trkpt><trkpt lat="42.95918451613161" lon="13.623914951768674"><ele>254.0</ele><time>2026-03-22T10:02:31Z</time></trkpt><trkpt lat="42.959136401854686" lon="13.62381809441443"><ele>258.1666666666667</ele><time>2026-03-22T10:02:32Z</time></trkpt><trkpt lat="42.959091951456955" lon="13.623727105810472"><ele>262.33333333333337</ele><time>2026-03-22T10:02:33Z</time></trkpt><trkpt lat="42.95904909871295" lon="13.623646439405405"><ele>266.5</ele><time>2026-03-22T10:02:34Z</time></trkpt><trkpt lat="42.95900589606548" lon="13.623564618882389"><ele>270.6666666666667</ele><time>2026-03-22T10:02:35Z</time></trkpt><trkpt lat="42.95897263563821" lon="13.623491123298923"><ele>274.8333333333333</ele><time>2026-03-22T10:02:36Z</time></trkpt><trkpt lat="42.95890822880419" lon="13.623342135517074"><ele>279.0</ele><time>2026-03-22T10:02:38Z</time></trkpt><trkpt lat="42.95886323490949" lon="13.62324508883017"><ele>281.0</ele><time>2026-03-22T10:02:39Z</time></trkpt><trkpt lat="42.9588282771545" lon="13.623156276256939"><ele>283.0</ele><time>2026-03-22T10:02:40Z</time></trkpt><trkpt lat="42.958821698229364" lon="13.622969662188444"><ele>285.0</ele><time>2026-03-22T10:02:42Z</time></trkpt><trkpt lat="42.958824528456034" lon="13.622882666376121"><ele>287.0</ele><time>2026-03-22T10:02:43Z</time></trkpt><trkpt lat="42.95879153846019" lon="13.622682695322792"><ele>289.0</ele><time>2026-03-22T10:02:45Z</time></trkpt><trkpt lat="42.95879063523979" lon="13.622544495290347"><ele>290.3333333333333</ele><time>2026-03-22T10:02:46Z</time></trkpt><trkpt lat="42.958798579519836" lon="13.622392349836854"><ele>291.66666666666663</ele><time>2026-03-22T10:02:47Z</time></trkpt><trkpt lat="42.95880702729001" lon="13.622267553309875"><ele>293.0</ele><time>2026-03-22T10:02:48Z</time></trkpt><trkpt lat="42.95880914825672" lon="13.622174439465603"><ele>294.3333333333333</ele><time>2026-03-22T10:02:49Z</time></trkpt><trkpt lat="42.95881212458935" lon="13.622077224191504"><ele>295.6666666666667</ele><time>2026-03-22T10:02:50Z</time></trkpt><trkpt lat="42.95881480830586" lon="13.621967496924645"><ele>297.0</ele><time>2026-03-22T10:02:51Z</time></trkpt><trkpt lat="42.95882264113695" lon="13.621851678941695"><ele>299.0</ele><time>2026-03-22T10:02:52Z</time></trkpt><trkpt lat="42.95882521386845" lon="13.621765652050287"><ele>301.0</ele><time>2026-03-22T10:02:53Z</time></trkpt><trkpt lat="42.958771092702555" lon="13.621616639877473"><ele>303.0</ele><time>2026-03-22T10:02:55Z</time></trkpt><trkpt lat="42.95872480053637" lon="13.62153128189179"><ele>305.0</ele><time>2026-03-22T10:02:56Z</time></trkpt><trkpt lat="42.958683217519905" lon="13.621438554128387"><ele>307.0</ele><time>2026-03-22T10:02:57Z</time></trkpt><trkpt lat="42.95863819183073" lon="13.621316845793096"><ele>309.0</ele><time>2026-03-22T10:02:58Z</time></trkpt><trkpt lat="42.95860277336025" lon="13.621227962969284"><ele>310.8333333333333</ele><time>2026-03-22T10:02:59Z</time></trkpt><trkpt lat="42.95857191758925" lon="13.621148007414778"><ele>312.6666666666667</ele><time>2026-03-22T10:03:00Z</time></trkpt><trkpt lat="42.958547690255614" lon="13.621055175983058"><ele>314.5</ele><time>2026-03-22T10:03:01Z</time></trkpt><trkpt lat="42.95852502541037" lon="13.62092066306022"><ele>316.33333333333337</ele><time>2026-03-22T10:03:03Z</time></trkpt><trkpt lat="42.95853839487636" lon="13.620763373682411"><ele>318.1666666666667</ele><time>2026-03-22T10:03:05Z</time></trkpt><trkpt lat="42.95855574928971" lon="13.620665551112833"><ele>320.0</ele><time>2026-03-22T10:03:06Z</time></trkpt><trkpt lat="42.95857328568514" lon="13.62053787796689"><ele>320.0</ele><time>2026-03-22T10:03:07Z</time></trkpt><trkpt lat="42.958605460554764" lon="13.620383867889084"><ele>320.0</ele><time>2026-03-22T10:03:08Z</time></trkpt><trkpt lat="42.95865769711479" lon="13.620217410685324"><ele>320.0</ele><time>2026-03-22T10:03:09Z</time></trkpt><trkpt lat="42.95868261324679" lon="13.620061015548423"><ele>320.0</ele><time>2026-03-22T10:03:09.999Z</time></trkpt><trkpt lat="42.9587047724017" lon="13.619931034871058"><ele>321.0</ele><time>2026-03-22T10:03:10.999Z</time></trkpt><trkpt lat="42.95871935445911" lon="13.619799369694537"><ele>322.0</ele><time>2026-03-22T10:03:11.999Z</time></trkpt><trkpt lat="42.95871855645659" lon="13.619665577655917"><ele>323.0</ele><time>2026-03-22T10:03:12.999Z</time></trkpt><trkpt lat="42.958717092013046" lon="13.619529435619572"><ele>324.0</ele><time>2026-03-22T10:03:13.999Z</time></trkpt><trkpt lat="42.95871641576317" lon="13.61939934752382"><ele>325.0</ele><time>2026-03-22T10:03:14.999Z</time></trkpt><trkpt lat="42.958732455689734" lon="13.619273049923297"><ele>325.8</ele><time>2026-03-22T10:03:15.999Z</time></trkpt><trkpt lat="42.9587312648696" lon="13.619134922363735"><ele>326.6</ele><time>2026-03-22T10:03:16.999Z</time></trkpt><trkpt lat="42.95871594563361" lon="13.618995799955153"><ele>327.4</ele><time>2026-03-22T10:03:17.999Z</time></trkpt><trkpt lat="42.958715773820266" lon="13.618848319523625"><ele>328.2</ele><time>2026-03-22T10:03:18.999Z</time></trkpt><trkpt lat="42.958715628892755" lon="13.618723919547149"><ele>329.0</ele><time>2026-03-22T10:03:19.999Z</time></trkpt><trkpt lat="42.958715503940944" lon="13.618597087619623"><ele>330.2</ele><time>2026-03-22T10:03:20.999Z</time></trkpt><trkpt lat="42.95871550393735" lon="13.618489810243748"><ele>331.4</ele><time>2026-03-22T10:03:21.999Z</time></trkpt><trkpt lat="42.958715503933185" lon="13.618372264373228"><ele>332.6</ele><time>2026-03-22T10:03:22.999Z</time></trkpt><trkpt lat="42.95871550392745" lon="13.618214669836735"><ele>333.8</ele><time>2026-03-22T10:03:23.999Z</time></trkpt><trkpt lat="42.95871550392148" lon="13.618027815429897"><ele>335.0</ele><time>2026-03-22T10:03:24.999Z</time></trkpt><trkpt lat="42.95873202076755" lon="13.617812338376241"><ele>337.5</ele><time>2026-03-22T10:03:25.999Z</time></trkpt><trkpt lat="42.95872603054252" lon="13.617516360541353"><ele>340.0</ele><time>2026-03-22T10:03:26.999Z</time></trkpt><trkpt lat="42.95872462312087" lon="13.617182175101911"><ele>342.0</ele><time>2026-03-22T10:03:27.999Z</time></trkpt><trkpt lat="42.95872583884912" lon="13.616882809548246"><ele>344.0</ele><time>2026-03-22T10:03:28.999Z</time></trkpt><trkpt lat="42.95873819412838" lon="13.61661940843292"><ele>346.0</ele><time>2026-03-22T10:03:29.999Z</time></trkpt><trkpt lat="42.95872240387273" lon="13.616406410053528"><ele>346.0</ele><time>2026-03-22T10:03:30.999Z</time></trkpt><trkpt lat="42.95872183137203" lon="13.616223453364668"><ele>346.0</ele><time>2026-03-22T10:03:31.999Z</time></trkpt><trkpt lat="42.958720437167266" lon="13.616066233942094"><ele>346.0</ele><time>2026-03-22T10:03:32.999Z</time></trkpt><trkpt lat="42.95871653194473" lon="13.615903737086306"><ele>346.0</ele><time>2026-03-22T10:03:33.999Z</time></trkpt><trkpt lat="42.95871025767328" lon="13.615740465564695"><ele>347.25</ele><time>2026-03-22T10:03:34.999Z</time></trkpt><trkpt lat="42.95870227428495" lon="13.615567378933413"><ele>348.5</ele><time>2026-03-22T10:03:35.999Z</time></trkpt><trkpt lat="42.95869210879333" lon="13.615382454542614"><ele>349.75</ele><time>2026-03-22T10:03:36.999Z</time></trkpt><trkpt lat="42.95868237186482" lon="13.61522412177138"><ele>351.0</ele><time>2026-03-22T10:03:37.999Z</time></trkpt><trkpt lat="42.95867419489166" lon="13.615091155448743"><ele>351.3333333333333</ele><time>2026-03-22T10:03:38.999Z</time></trkpt><trkpt lat="42.95866765514263" lon="13.614958997455645"><ele>351.6666666666667</ele><time>2026-03-22T10:03:39.999Z</time></trkpt><trkpt lat="42.95866751246943" lon="13.614840773506621"><ele>352.0</ele><time>2026-03-22T10:03:40.999Z</time></trkpt><trkpt lat="42.958671261014" lon="13.614735325912322"><ele>352.33333333333337</ele><time>2026-03-22T10:03:41.999Z</time></trkpt><trkpt lat="42.95867716841833" lon="13.614629678237966"><ele>352.6666666666667</ele><time>2026-03-22T10:03:42.999Z</time></trkpt><trkpt lat="42.95867495549114" lon="13.61450592250058"><ele>353.0</ele><time>2026-03-22T10:03:44.999Z</time></trkpt><trkpt lat="42.95863799761796" lon="13.614434207998515"><ele>353.0</ele><time>2026-03-22T10:03:46.999Z</time></trkpt><trkpt lat="42.958500747942225" lon="13.61448274681392"><ele>353.0</ele><time>2026-03-22T10:03:47.999Z</time></trkpt><trkpt lat="42.958432832757524" lon="13.614525764178742"><ele>353.0</ele><time>2026-03-22T10:03:48.999Z</time></trkpt><trkpt lat="42.958328619924586" lon="13.614612806530058"><ele>353.0</ele><time>2026-03-22T10:03:49.999Z</time></trkpt><trkpt lat="42.958249355990915" lon="13.61467683780913"><ele>353.0</ele><time>2026-03-22T10:03:50.999Z</time></trkpt><trkpt lat="42.95816596851987" lon="13.61474558953734"><ele>353.79999999999995</ele><time>2026-03-22T10:03:51.999Z</time></trkpt><trkpt lat="42.95808379485638" lon="13.614814310579462"><ele>354.6</ele><time>2026-03-22T10:03:52.999Z</time></trkpt><trkpt lat="42.95800236627132" lon="13.614882408434646"><ele>355.4</ele><time>2026-03-22T10:03:53.999Z</time></trkpt><trkpt lat="42.95792764051778" lon="13.614938160405606"><ele>356.20000000000005</ele><time>2026-03-22T10:03:54.999Z</time></trkpt><trkpt lat="42.95784548497505" lon="13.614979441682165"><ele>357.0</ele><time>2026-03-22T10:03:55.999Z</time></trkpt><trkpt lat="42.957755260693546" lon="13.615005915309032"><ele>357.0</ele><time>2026-03-22T10:03:56.999Z</time></trkpt><trkpt lat="42.95765242788114" lon="13.61499563462813"><ele>357.0</ele><time>2026-03-22T10:03:57.999Z</time></trkpt><trkpt lat="42.95749946257332" lon="13.614952079751847"><ele>357.0</ele><time>2026-03-22T10:03:58.999Z</time></trkpt><trkpt lat="42.95732193420418" lon="13.6148972057863"><ele>357.0</ele><time>2026-03-22T10:03:59.999Z</time></trkpt><trkpt lat="42.95711859419918" lon="13.614832077187016"><ele>353.0</ele><time>2026-03-22T10:04:00.999Z</time></trkpt><trkpt lat="42.95693699217271" lon="13.614773854517821"><ele>349.0</ele><time>2026-03-22T10:04:01.999Z</time></trkpt><trkpt lat="42.95676946247506" lon="13.614718773865356"><ele>345.0</ele><time>2026-03-22T10:04:02.999Z</time></trkpt><trkpt lat="42.95662380884791" lon="13.61466970341647"><ele>345.0</ele><time>2026-03-22T10:04:03.999Z</time></trkpt><trkpt lat="42.9564992444582" lon="13.614615744492514"><ele>345.0</ele><time>2026-03-22T10:04:04.999Z</time></trkpt><trkpt lat="42.956385874251" lon="13.614564990625215"><ele>345.0</ele><time>2026-03-22T10:04:05.999Z</time></trkpt><trkpt lat="42.95629120235694" lon="13.614487940610594"><ele>345.0</ele><time>2026-03-22T10:04:06.999Z</time></trkpt><trkpt lat="42.9562053533289" lon="13.614409053281864"><ele>344.5</ele><time>2026-03-22T10:04:07.999Z</time></trkpt><trkpt lat="42.95611216900847" lon="13.614337096326222"><ele>344.0</ele><time>2026-03-22T10:04:08.999Z</time></trkpt><trkpt lat="42.956031022174976" lon="13.614274429981949"><ele>343.5</ele><time>2026-03-22T10:04:09.999Z</time></trkpt><trkpt lat="42.955955105561145" lon="13.614225191271057"><ele>343.0</ele><time>2026-03-22T10:04:10.999Z</time></trkpt><trkpt lat="42.955881751478685" lon="13.61418176678822"><ele>342.5</ele><time>2026-03-22T10:04:11.999Z</time></trkpt><trkpt lat="42.95581656482974" lon="13.614122754889214"><ele>342.0</ele><time>2026-03-22T10:04:12.999Z</time></trkpt><trkpt lat="42.95575105414024" lon="13.614105481844579"><ele>342.0</ele><time>2026-03-22T10:04:13.998Z</time></trkpt><trkpt lat="42.95565247381408" lon="13.614061410359527"><ele>342.0</ele><time>2026-03-22T10:04:15.998Z</time></trkpt><trkpt lat="42.95556834927742" lon="13.614016172548968"><ele>342.0</ele><time>2026-03-22T10:04:17.998Z</time></trkpt><trkpt lat="42.95549383253755" lon="13.613990188492467"><ele>342.0</ele><time>2026-03-22T10:04:19.998Z</time></trkpt><trkpt lat="42.95542889689764" lon="13.613967545363964"><ele>342.0</ele><time>2026-03-22T10:04:21.998Z</time></trkpt><trkpt lat="42.95534785553097" lon="13.613941428206823"><ele>342.0</ele><time>2026-03-22T10:04:24.998Z</time></trkpt><trkpt lat="42.95527251788139" lon="13.613921279096456"><ele>342.0</ele><time>2026-03-22T10:05:16Z</time></trkpt><trkpt lat="42.95508260571203" lon="13.61385198455409"><ele>342.0</ele><time>2026-03-22T10:05:19.999Z</time></trkpt><trkpt lat="42.95533227179349" lon="13.614081242438912"><ele>342.0</ele><time>2026-03-22T10:05:20.999Z</time></trkpt><trkpt lat="42.95539689706561" lon="13.614045129450858"><ele>342.0</ele><time>2026-03-22T10:05:28.999Z</time></trkpt><trkpt lat="42.95550969757039" lon="13.614046842145479"><ele>342.0</ele><time>2026-03-22T10:05:30.999Z</time></trkpt><trkpt lat="42.95558947598011" lon="13.614061753510148"><ele>342.0</ele><time>2026-03-22T10:05:31.999Z</time></trkpt><trkpt lat="42.9556749899082" lon="13.614086660790095"><ele>342.0</ele><time>2026-03-22T10:05:32.999Z</time></trkpt><trkpt lat="42.95576918423973" lon="13.614131573051353"><ele>342.0</ele><time>2026-03-22T10:05:33.999Z</time></trkpt><trkpt lat="42.95586764135358" lon="13.614178174725277"><ele>342.0</ele><time>2026-03-22T10:05:34.999Z</time></trkpt><trkpt lat="42.955976402248" lon="13.614244861240858"><ele>342.0</ele><time>2026-03-22T10:05:35.999Z</time></trkpt><trkpt lat="42.9560949897799" lon="13.61435887339638"><ele>342.0</ele><time>2026-03-22T10:05:36.999Z</time></trkpt><trkpt lat="42.956233400296966" lon="13.614443031357117"><ele>342.75</ele><time>2026-03-22T10:05:37.999Z</time></trkpt><trkpt lat="42.95636137402371" lon="13.614573385653976"><ele>343.5</ele><time>2026-03-22T10:05:38.999Z</time></trkpt><trkpt lat="42.956502986918586" lon="13.614656121229473"><ele>344.25</ele><time>2026-03-22T10:05:39.999Z</time></trkpt><trkpt lat="42.956628106871186" lon="13.614718189548785"><ele>345.0</ele><time>2026-03-22T10:05:40.999Z</time></trkpt><trkpt lat="42.95679075713796" lon="13.61477983604688"><ele>345.0</ele><time>2026-03-22T10:05:41.999Z</time></trkpt><trkpt lat="42.95698139254472" lon="13.614822240988941"><ele>345.0</ele><time>2026-03-22T10:05:42.999Z</time></trkpt><trkpt lat="42.95719679482651" lon="13.614896127972226"><ele>345.0</ele><time>2026-03-22T10:05:43.999Z</time></trkpt><trkpt lat="42.95739191961333" lon="13.614963354362407"><ele>348.0</ele><time>2026-03-22T10:05:44.999Z</time></trkpt><trkpt lat="42.95756185910764" lon="13.615017657407034"><ele>351.0</ele><time>2026-03-22T10:05:45.999Z</time></trkpt><trkpt lat="42.957707302451894" lon="13.615058785499533"><ele>354.0</ele><time>2026-03-22T10:05:46.999Z</time></trkpt><trkpt lat="42.95782519237719" lon="13.61503623701201"><ele>357.0</ele><time>2026-03-22T10:05:47.999Z</time></trkpt><trkpt lat="42.95793094095519" lon="13.614992581768838"><ele>357.0</ele><time>2026-03-22T10:05:48.999Z</time></trkpt><trkpt lat="42.95801933343208" lon="13.614921119336389"><ele>357.0</ele><time>2026-03-22T10:05:49.999Z</time></trkpt><trkpt lat="42.95812200995755" lon="13.614835563866185"><ele>357.0</ele><time>2026-03-22T10:05:50.999Z</time></trkpt><trkpt lat="42.95823019787362" lon="13.614745291980796"><ele>357.0</ele><time>2026-03-22T10:05:51.999Z</time></trkpt><trkpt lat="42.958338865759195" lon="13.61465713739377"><ele>356.3333333333333</ele><time>2026-03-22T10:05:52.999Z</time></trkpt><trkpt lat="42.95842976928182" lon="13.614585276396834"><ele>355.6666666666667</ele><time>2026-03-22T10:05:53.999Z</time></trkpt><trkpt lat="42.95850750244456" lon="13.614528476565825"><ele>355.0</ele><time>2026-03-22T10:05:54.999Z</time></trkpt><trkpt lat="42.958591663991285" lon="13.614475168510113"><ele>354.33333333333337</ele><time>2026-03-22T10:05:55.999Z</time></trkpt><trkpt lat="42.95866250261155" lon="13.614440870618564"><ele>353.6666666666667</ele><time>2026-03-22T10:05:56.999Z</time></trkpt><trkpt lat="42.95871573874843" lon="13.614357777807113"><ele>353.0</ele><time>2026-03-22T10:05:57.999Z</time></trkpt><trkpt lat="42.95877399974171" lon="13.614259584306069"><ele>352.75</ele><time>2026-03-22T10:05:58.999Z</time></trkpt><trkpt lat="42.95885965528081" lon="13.61416038779995"><ele>352.5</ele><time>2026-03-22T10:05:59.999Z</time></trkpt><trkpt lat="42.95895790211566" lon="13.614035236501998"><ele>352.25</ele><time>2026-03-22T10:06:00.999Z</time></trkpt><trkpt lat="42.95908664426898" lon="13.613906789083604"><ele>352.0</ele><time>2026-03-22T10:06:01.999Z</time></trkpt><trkpt lat="42.959244373977654" lon="13.613749793359824"><ele>355.3333333333333</ele><time>2026-03-22T10:06:02.999Z</time></trkpt><trkpt lat="42.95941003671776" lon="13.613581742986439"><ele>358.6666666666667</ele><time>2026-03-22T10:06:03.999Z</time></trkpt><trkpt lat="42.959550137396405" lon="13.613408516204203"><ele>362.0</ele><time>2026-03-22T10:06:04.999Z</time></trkpt><trkpt lat="42.95966706235069" lon="13.613200040877343"><ele>362.0</ele><time>2026-03-22T10:06:05.999Z</time></trkpt><trkpt lat="42.95975882393852" lon="13.612951541823403"><ele>362.0</ele><time>2026-03-22T10:06:06.999Z</time></trkpt><trkpt lat="42.95982538627695" lon="13.612681551298834"><ele>362.0</ele><time>2026-03-22T10:06:07.999Z</time></trkpt><trkpt lat="42.959855090998126" lon="13.612409621564794"><ele>363.33333333333337</ele><time>2026-03-22T10:06:08.999Z</time></trkpt><trkpt lat="42.95986637089716" lon="13.61213771496163"><ele>364.6666666666667</ele><time>2026-03-22T10:06:09.999Z</time></trkpt><trkpt lat="42.959874622289114" lon="13.611922283696174"><ele>366.0</ele><time>2026-03-22T10:06:10.999Z</time></trkpt><trkpt lat="42.95984281433529" lon="13.611714902676741"><ele>368.3333333333333</ele><time>2026-03-22T10:06:11.999Z</time></trkpt><trkpt lat="42.95979559986238" lon="13.611517412338422"><ele>370.66666666666663</ele><time>2026-03-22T10:06:12.999Z</time></trkpt><trkpt lat="42.95974156375952" lon="13.61130702227004"><ele>373.0</ele><time>2026-03-22T10:06:13.999Z</time></trkpt><trkpt lat="42.95968384336945" lon="13.611080790996358"><ele>373.66666666666663</ele><time>2026-03-22T10:06:14.999Z</time></trkpt><trkpt lat="42.959632843367565" lon="13.610838716742958"><ele>374.3333333333333</ele><time>2026-03-22T10:06:15.999Z</time></trkpt><trkpt lat="42.95959592625164" lon="13.610584362745"><ele>375.0</ele><time>2026-03-22T10:06:16.999Z</time></trkpt><trkpt lat="42.95957798488938" lon="13.610321243685393"><ele>375.0</ele><time>2026-03-22T10:06:17.999Z</time></trkpt><trkpt lat="42.95956047454142" lon="13.61001002630622"><ele>375.0</ele><time>2026-03-22T10:06:18.999Z</time></trkpt><trkpt lat="42.95954219751656" lon="13.609719991780702"><ele>375.0</ele><time>2026-03-22T10:06:19.999Z</time></trkpt><trkpt lat="42.95951805038622" lon="13.60945983901207"><ele>374.3333333333333</ele><time>2026-03-22T10:06:20.999Z</time></trkpt><trkpt lat="42.9594723031638" lon="13.609181025510342"><ele>373.66666666666663</ele><time>2026-03-22T10:06:21.999Z</time></trkpt><trkpt lat="42.95939919751683" lon="13.60891834450405"><ele>373.0</ele><time>2026-03-22T10:06:22.999Z</time></trkpt><trkpt lat="42.95930012055938" lon="13.608662268227613"><ele>373.0</ele><time>2026-03-22T10:06:23.999Z</time></trkpt><trkpt lat="42.959167727694215" lon="13.608371117015409"><ele>373.0</ele><time>2026-03-22T10:06:24.998Z</time></trkpt><trkpt lat="42.95901381967743" lon="13.608060724666538"><ele>372.0</ele><time>2026-03-22T10:06:25.998Z</time></trkpt><trkpt lat="42.958852750969555" lon="13.607767940399787"><ele>371.0</ele><time>2026-03-22T10:06:26.998Z</time></trkpt><trkpt lat="42.95867752609404" lon="13.607495437461607"><ele>371.0</ele><time>2026-03-22T10:06:27.998Z</time></trkpt><trkpt lat="42.958507829931456" lon="13.607256673801523"><ele>371.0</ele><time>2026-03-22T10:06:28.998Z</time></trkpt><trkpt lat="42.95834387022751" lon="13.607050642084092"><ele>373.33333333333337</ele><time>2026-03-22T10:06:29.998Z</time></trkpt><trkpt lat="42.95818060533462" lon="13.60687416466494"><ele>375.6666666666667</ele><time>2026-03-22T10:06:30.998Z</time></trkpt><trkpt lat="42.95802504216693" lon="13.60671689290491"><ele>378.0</ele><time>2026-03-22T10:06:31.998Z</time></trkpt><trkpt lat="42.957878456472166" lon="13.606579515213415"><ele>378.0</ele><time>2026-03-22T10:06:32.998Z</time></trkpt><trkpt lat="42.95774928056612" lon="13.60644336702462"><ele>378.0</ele><time>2026-03-22T10:06:33.998Z</time></trkpt><trkpt lat="42.9576262351035" lon="13.60633651198862"><ele>378.0</ele><time>2026-03-22T10:06:34.998Z</time></trkpt><trkpt lat="42.957529648792104" lon="13.60623995308359"><ele>378.0</ele><time>2026-03-22T10:06:35.998Z</time></trkpt><trkpt lat="42.95746446705453" lon="13.606130369080681"><ele>378.75</ele><time>2026-03-22T10:06:36.998Z</time></trkpt><trkpt lat="42.957416220849964" lon="13.605992354657804"><ele>379.5</ele><time>2026-03-22T10:06:37.998Z</time></trkpt><trkpt lat="42.95738387336915" lon="13.605819823304394"><ele>380.25</ele><time>2026-03-22T10:06:38.998Z</time></trkpt><trkpt lat="42.95737616962859" lon="13.605621310386356"><ele>381.0</ele><time>2026-03-22T10:06:39.998Z</time></trkpt><trkpt lat="42.95739357760299" lon="13.605403183115877"><ele>381.3333333333333</ele><time>2026-03-22T10:06:40.998Z</time></trkpt><trkpt lat="42.95740456353867" lon="13.605160773546547"><ele>381.66666666666663</ele><time>2026-03-22T10:06:42Z</time></trkpt><trkpt lat="42.95742280344203" lon="13.604901459643848"><ele>382.0</ele><time>2026-03-22T10:06:43Z</time></trkpt><trkpt lat="42.957439718570235" lon="13.604633559557868"><ele>383.66666666666663</ele><time>2026-03-22T10:06:44Z</time></trkpt><trkpt lat="42.95745366191652" lon="13.604358321977614"><ele>385.3333333333333</ele><time>2026-03-22T10:06:45Z</time></trkpt><trkpt lat="42.95745296303072" lon="13.60413085906951"><ele>387.0</ele><time>2026-03-22T10:06:46Z</time></trkpt><trkpt lat="42.95743586816798" lon="13.603892494140453"><ele>388.0</ele><time>2026-03-22T10:06:47Z</time></trkpt><trkpt lat="42.95740834426514" lon="13.603655522680357"><ele>389.0</ele><time>2026-03-22T10:06:48Z</time></trkpt><trkpt lat="42.95737693915129" lon="13.603417721188542"><ele>390.0</ele><time>2026-03-22T10:06:49Z</time></trkpt><trkpt lat="42.95734883722652" lon="13.603171733675246"><ele>390.0</ele><time>2026-03-22T10:06:50Z</time></trkpt><trkpt lat="42.95734854600682" lon="13.602919394195801"><ele>390.0</ele><time>2026-03-22T10:06:51Z</time></trkpt><trkpt lat="42.95737572746479" lon="13.602679476152119"><ele>390.0</ele><time>2026-03-22T10:06:52Z</time></trkpt><trkpt lat="42.957424347872205" lon="13.602456445087624"><ele>390.25</ele><time>2026-03-22T10:06:53Z</time></trkpt><trkpt lat="42.9574623715342" lon="13.602266438667112"><ele>390.5</ele><time>2026-03-22T10:06:54Z</time></trkpt><trkpt lat="42.95749436032177" lon="13.602099727100413"><ele>390.75</ele><time>2026-03-22T10:06:55Z</time></trkpt><trkpt lat="42.95751949031087" lon="13.601926255205697"><ele>391.0</ele><time>2026-03-22T10:06:56Z</time></trkpt><trkpt lat="42.957524271833186" lon="13.60174317578662"><ele>391.0</ele><time>2026-03-22T10:06:57Z</time></trkpt><trkpt lat="42.95750805510579" lon="13.601561611072864"><ele>391.0</ele><time>2026-03-22T10:06:58Z</time></trkpt><trkpt lat="42.957474445548876" lon="13.60139050987519"><ele>391.0</ele><time>2026-03-22T10:06:59Z</time></trkpt><trkpt lat="42.95742393324399" lon="13.601213112853335"><ele>391.0</ele><time>2026-03-22T10:07:00Z</time></trkpt><trkpt lat="42.957355490088354" lon="13.601030024715785"><ele>391.0</ele><time>2026-03-22T10:07:01Z</time></trkpt><trkpt lat="42.9572568889464" lon="13.60086257300357"><ele>391.0</ele><time>2026-03-22T10:07:02Z</time></trkpt><trkpt lat="42.95712179789645" lon="13.600732648059347"><ele>391.0</ele><time>2026-03-22T10:07:03Z</time></trkpt><trkpt lat="42.95697866147875" lon="13.600608717331415"><ele>391.0</ele><time>2026-03-22T10:07:04Z</time></trkpt><trkpt lat="42.956824510951975" lon="13.600498344866134"><ele>391.0</ele><time>2026-03-22T10:07:05Z</time></trkpt><trkpt lat="42.9566761595257" lon="13.600389693393657"><ele>391.0</ele><time>2026-03-22T10:07:06Z</time></trkpt><trkpt lat="42.956532734062954" lon="13.600275791012749"><ele>392.0</ele><time>2026-03-22T10:07:07Z</time></trkpt><trkpt lat="42.95639649452041" lon="13.600156442449093"><ele>393.0</ele><time>2026-03-22T10:07:08Z</time></trkpt><trkpt lat="42.95626524753269" lon="13.600034759147894"><ele>394.0</ele><time>2026-03-22T10:07:09Z</time></trkpt><trkpt lat="42.95614228263834" lon="13.599920892824185"><ele>394.0</ele><time>2026-03-22T10:07:10Z</time></trkpt><trkpt lat="42.95602994910411" lon="13.5998123796953"><ele>394.0</ele><time>2026-03-22T10:07:11Z</time></trkpt><trkpt lat="42.95592748839678" lon="13.599712579109218"><ele>394.0</ele><time>2026-03-22T10:07:12Z</time></trkpt><trkpt lat="42.955825331980755" lon="13.599616433251612"><ele>394.0</ele><time>2026-03-22T10:07:13Z</time></trkpt><trkpt lat="42.95573779958782" lon="13.599508919635488"><ele>393.4</ele><time>2026-03-22T10:07:14Z</time></trkpt><trkpt lat="42.95566569871808" lon="13.599406446224867"><ele>392.79999999999995</ele><time>2026-03-22T10:07:15Z</time></trkpt><trkpt lat="42.95559146946489" lon="13.599311633257553"><ele>392.20000000000005</ele><time>2026-03-22T10:07:16Z</time></trkpt><trkpt lat="42.95552037794015" lon="13.599218227555582"><ele>391.6</ele><time>2026-03-22T10:07:17Z</time></trkpt><trkpt lat="42.95543610177736" lon="13.59910573960535"><ele>391.0</ele><time>2026-03-22T10:07:18Z</time></trkpt><trkpt lat="42.95533467477358" lon="13.598971312657834"><ele>391.0</ele><time>2026-03-22T10:07:19Z</time></trkpt><trkpt lat="42.95522099936062" lon="13.598828027065148"><ele>391.0</ele><time>2026-03-22T10:07:20Z</time></trkpt><trkpt lat="42.955091468308424" lon="13.598691131806536"><ele>391.0</ele><time>2026-03-22T10:07:21Z</time></trkpt><trkpt lat="42.95494880472282" lon="13.598570607942461"><ele>392.33333333333337</ele><time>2026-03-22T10:07:22Z</time></trkpt><trkpt lat="42.95478938299498" lon="13.598477362850252"><ele>393.66666666666663</ele><time>2026-03-22T10:07:23Z</time></trkpt><trkpt lat="42.95463183009552" lon="13.59839967478338"><ele>395.0</ele><time>2026-03-22T10:07:24Z</time></trkpt><trkpt lat="42.95447669897665" lon="13.598299830002873"><ele>395.0</ele><time>2026-03-22T10:07:25Z</time></trkpt><trkpt lat="42.954346297776546" lon="13.598229824416963"><ele>395.0</ele><time>2026-03-22T10:07:26Z</time></trkpt><trkpt lat="42.95421840472665" lon="13.598162647271213"><ele>395.0</ele><time>2026-03-22T10:07:27Z</time></trkpt><trkpt lat="42.95412120779709" lon="13.598055705277334"><ele>395.0</ele><time>2026-03-22T10:07:28Z</time></trkpt><trkpt lat="42.954022478071735" lon="13.597917172791158"><ele>396.25</ele><time>2026-03-22T10:07:29Z</time></trkpt><trkpt lat="42.953937866576446" lon="13.597757865554474"><ele>397.5</ele><time>2026-03-22T10:07:30Z</time></trkpt><trkpt lat="42.95387052501005" lon="13.59758117835928"><ele>398.75</ele><time>2026-03-22T10:07:31Z</time></trkpt><trkpt lat="42.9538086651113" lon="13.5974115090888"><ele>400.0</ele><time>2026-03-22T10:07:32Z</time></trkpt><trkpt lat="42.953769778450656" lon="13.597231533314842"><ele>400.0</ele><time>2026-03-22T10:07:32.999Z</time></trkpt><trkpt lat="42.95374488916995" lon="13.597028457668252"><ele>400.0</ele><time>2026-03-22T10:07:33.999Z</time></trkpt><trkpt lat="42.95371775202357" lon="13.596830383539197"><ele>400.0</ele><time>2026-03-22T10:07:34.999Z</time></trkpt><trkpt lat="42.95367957218415" lon="13.596614272661956"><ele>401.0</ele><time>2026-03-22T10:07:35.999Z</time></trkpt><trkpt lat="42.95361993229663" lon="13.59642622029127"><ele>402.0</ele><time>2026-03-22T10:07:36.999Z</time></trkpt><trkpt lat="42.95353580574334" lon="13.596230145926722"><ele>403.0</ele><time>2026-03-22T10:07:37.999Z</time></trkpt><trkpt lat="42.95341573426246" lon="13.59605543124787"><ele>401.6666666666667</ele><time>2026-03-22T10:07:38.999Z</time></trkpt><trkpt lat="42.95327231054649" lon="13.595889720057864"><ele>400.33333333333337</ele><time>2026-03-22T10:07:39.999Z</time></trkpt><trkpt lat="42.953114062917514" lon="13.595736271636692"><ele>399.0</ele><time>2026-03-22T10:07:40.999Z</time></trkpt><trkpt lat="42.952937593884" lon="13.595601057144442"><ele>399.0</ele><time>2026-03-22T10:07:41.999Z</time></trkpt><trkpt lat="42.95274227436237" lon="13.595466493542874"><ele>399.0</ele><time>2026-03-22T10:07:42.999Z</time></trkpt><trkpt lat="42.952529508958534" lon="13.595330132941669"><ele>397.66666666666663</ele><time>2026-03-22T10:07:43.999Z</time></trkpt><trkpt lat="42.95234006897536" lon="13.595210709519197"><ele>396.3333333333333</ele><time>2026-03-22T10:07:44.999Z</time></trkpt><trkpt lat="42.952171962162396" lon="13.595105085743864"><ele>395.0</ele><time>2026-03-22T10:07:45.999Z</time></trkpt><trkpt lat="42.95201941844048" lon="13.594998841401544"><ele>395.0</ele><time>2026-03-22T10:07:46.999Z</time></trkpt><trkpt lat="42.95187726634766" lon="13.594900593507456"><ele>395.0</ele><time>2026-03-22T10:07:47.999Z</time></trkpt><trkpt lat="42.95174215663821" lon="13.594816209350746"><ele>395.0</ele><time>2026-03-22T10:07:48.999Z</time></trkpt><trkpt lat="42.95162250184236" lon="13.59475106774426"><ele>395.0</ele><time>2026-03-22T10:07:49.999Z</time></trkpt><trkpt lat="42.951510430424555" lon="13.594685882265658"><ele>395.16666666666663</ele><time>2026-03-22T10:07:50.999Z</time></trkpt><trkpt lat="42.95141207288676" lon="13.594626303059144"><ele>395.3333333333333</ele><time>2026-03-22T10:07:51.999Z</time></trkpt><trkpt lat="42.95131975139753" lon="13.594563475695965"><ele>395.5</ele><time>2026-03-22T10:07:52.999Z</time></trkpt><trkpt lat="42.951243018221426" lon="13.594504761870239"><ele>395.66666666666663</ele><time>2026-03-22T10:07:53.999Z</time></trkpt><trkpt lat="42.951166212236984" lon="13.594463302754148"><ele>395.8333333333333</ele><time>2026-03-22T10:07:54.999Z</time></trkpt><trkpt lat="42.95110784790153" lon="13.594429996845772"><ele>396.0</ele><time>2026-03-22T10:07:55.999Z</time></trkpt><trkpt lat="42.95101193678703" lon="13.594367911568577"><ele>396.66666666666663</ele><time>2026-03-22T10:08:08.999Z</time></trkpt><trkpt lat="42.95090316072087" lon="13.594280611630419"><ele>397.3333333333333</ele><time>2026-03-22T10:08:09.999Z</time></trkpt><trkpt lat="42.9507656112042" lon="13.594210539534396"><ele>398.0</ele><time>2026-03-22T10:08:10.999Z</time></trkpt><trkpt lat="42.95057536638847" lon="13.594128732271306"><ele>400.0</ele><time>2026-03-22T10:08:11.999Z</time></trkpt><trkpt lat="42.950381895031164" lon="13.594058390589163"><ele>402.0</ele><time>2026-03-22T10:08:12.999Z</time></trkpt><trkpt lat="42.9501551418622" lon="13.593972891908566"><ele>404.0</ele><time>2026-03-22T10:08:13.999Z</time></trkpt><trkpt lat="42.94992504891305" lon="13.593865165523681"><ele>404.66666666666663</ele><time>2026-03-22T10:08:14.999Z</time></trkpt><trkpt lat="42.949734901903824" lon="13.59380527951617"><ele>405.33333333333337</ele><time>2026-03-22T10:08:15.999Z</time></trkpt><trkpt lat="42.94958338408271" lon="13.593741949993131"><ele>406.0</ele><time>2026-03-22T10:08:16.999Z</time></trkpt><trkpt lat="42.94947409527322" lon="13.593687179516245"><ele>406.00000000000006</ele><time>2026-03-22T10:08:17.999Z</time></trkpt><trkpt lat="42.9493686465833" lon="13.593684315076398"><ele>406.0</ele><time>2026-03-22T10:08:18.999Z</time></trkpt><trkpt lat="42.9492779737043" lon="13.593720070920122"><ele>406.0</ele><time>2026-03-22T10:08:19.999Z</time></trkpt><trkpt lat="42.94920410696658" lon="13.593771508507844"><ele>406.0</ele><time>2026-03-22T10:08:20.999Z</time></trkpt><trkpt lat="42.949149473130596" lon="13.593818526973557"><ele>406.00000000000006</ele><time>2026-03-22T10:08:22.999Z</time></trkpt><trkpt lat="42.94920799598181" lon="13.593739716941105"><ele>406.0</ele><time>2026-03-22T10:08:29.999Z</time></trkpt><trkpt lat="42.94925756228398" lon="13.593604555722179"><ele>406.0</ele><time>2026-03-22T10:08:32.999Z</time></trkpt><trkpt lat="42.949061974874404" lon="13.593496480964813"><ele>406.0</ele><time>2026-03-22T10:08:33.999Z</time></trkpt><trkpt lat="42.94926138169825" lon="13.593571191606955"><ele>406.0</ele><time>2026-03-22T10:08:35.999Z</time></trkpt><trkpt lat="42.94922528043518" lon="13.593672971858542"><ele>420.0</ele><time>2026-03-22T10:08:36.999Z</time></trkpt><trkpt lat="42.94895211249323" lon="13.593168428599292"><ele>420.0</ele><time>2026-03-22T10:08:38.998Z</time></trkpt><trkpt lat="42.94888594924234" lon="13.593100223213863"><ele>420.0</ele><time>2026-03-22T10:08:39.998Z</time></trkpt><trkpt lat="42.94880044420948" lon="13.593032683497556"><ele>420.0</ele><time>2026-03-22T10:08:40.998Z</time></trkpt><trkpt lat="42.948740274575684" lon="13.592989369711502"><ele>420.0</ele><time>2026-03-22T10:08:41.998Z</time></trkpt><trkpt lat="42.94867645635211" lon="13.592947107124585"><ele>420.0</ele><time>2026-03-22T10:08:42.998Z</time></trkpt><trkpt lat="42.94859369068708" lon="13.592903466261538"><ele>420.0</ele><time>2026-03-22T10:08:43.998Z</time></trkpt><trkpt lat="42.94850047318255" lon="13.592859023155055"><ele>421.2</ele><time>2026-03-22T10:08:44.998Z</time></trkpt><trkpt lat="42.94841727058029" lon="13.59282204150269"><ele>422.4</ele><time>2026-03-22T10:08:45.998Z</time></trkpt><trkpt lat="42.94830446210186" lon="13.592783390647616"><ele>423.6</ele><time>2026-03-22T10:08:48Z</time></trkpt><trkpt lat="42.94819873587396" lon="13.5927536950381"><ele>424.8</ele><time>2026-03-22T10:08:50Z</time></trkpt><trkpt lat="42.948125620625575" lon="13.592814053033539"><ele>426.0</ele><time>2026-03-22T10:08:52Z</time></trkpt><trkpt lat="42.94805618546924" lon="13.592945188783247"><ele>426.75</ele><time>2026-03-22T10:08:54Z</time></trkpt><trkpt lat="42.94798152276136" lon="13.59306405480218"><ele>427.5</ele><time>2026-03-22T10:08:55Z</time></trkpt><trkpt lat="42.94790633739528" lon="13.593158519472853"><ele>428.25</ele><time>2026-03-22T10:08:56Z</time></trkpt><trkpt lat="42.94780520053971" lon="13.593231773234335"><ele>429.0</ele><time>2026-03-22T10:08:57Z</time></trkpt><trkpt lat="42.94767113215733" lon="13.59329074456053"><ele>431.0</ele><time>2026-03-22T10:08:58Z</time></trkpt><trkpt lat="42.947518949278845" lon="13.593369133561264"><ele>433.0</ele><time>2026-03-22T10:08:59Z</time></trkpt><trkpt lat="42.947382998548456" lon="13.593437684302486"><ele>435.0</ele><time>2026-03-22T10:09:00Z</time></trkpt><trkpt lat="42.947259384949014" lon="13.593500187297247"><ele>437.0</ele><time>2026-03-22T10:09:01Z</time></trkpt><trkpt lat="42.94714108939768" lon="13.593564429063424"><ele>437.0</ele><time>2026-03-22T10:09:02Z</time></trkpt><trkpt lat="42.94703209368896" lon="13.59361421641284"><ele>437.0</ele><time>2026-03-22T10:09:03Z</time></trkpt><trkpt lat="42.94690672183405" lon="13.593665636620514"><ele>437.0</ele><time>2026-03-22T10:09:04Z</time></trkpt><trkpt lat="42.946781716558355" lon="13.593726351593336"><ele>437.0</ele><time>2026-03-22T10:09:05Z</time></trkpt><trkpt lat="42.94666188777637" lon="13.593799613184618"><ele>437.0</ele><time>2026-03-22T10:09:06Z</time></trkpt><trkpt lat="42.94652517925046" lon="13.593743658235189"><ele>437.0</ele><time>2026-03-22T10:09:07Z</time></trkpt><trkpt lat="42.94642623894842" lon="13.593782891006718"><ele>437.0</ele><time>2026-03-22T10:09:08Z</time></trkpt><trkpt lat="42.94631172452669" lon="13.59380853405919"><ele>437.0</ele><time>2026-03-22T10:09:09Z</time></trkpt><trkpt lat="42.94617961943426" lon="13.593826779004079"><ele>437.0</ele><time>2026-03-22T10:09:10Z</time></trkpt><trkpt lat="42.94602038115138" lon="13.593832287479888"><ele>437.0</ele><time>2026-03-22T10:09:11Z</time></trkpt><trkpt lat="42.9458535847562" lon="13.593834124979239"><ele>437.0</ele><time>2026-03-22T10:09:12Z</time></trkpt><trkpt lat="42.9456911306343" lon="13.593835914645704"><ele>437.75</ele><time>2026-03-22T10:09:13Z</time></trkpt><trkpt lat="42.94554202749591" lon="13.593837682792186"><ele>438.5</ele><time>2026-03-22T10:09:14Z</time></trkpt><trkpt lat="42.94541620589805" lon="13.593839309624698"><ele>439.25</ele><time>2026-03-22T10:09:15Z</time></trkpt><trkpt lat="42.94530847181798" lon="13.593840702595541"><ele>440.0</ele><time>2026-03-22T10:09:16Z</time></trkpt><trkpt lat="42.945217342635566" lon="13.593841875663527"><ele>440.0</ele><time>2026-03-22T10:09:17Z</time></trkpt><trkpt lat="42.9451226218818" lon="13.593841685725412"><ele>440.0</ele><time>2026-03-22T10:09:18Z</time></trkpt><trkpt lat="42.94502317863473" lon="13.593841194746107"><ele>440.0</ele><time>2026-03-22T10:09:19Z</time></trkpt><trkpt lat="42.944925813291334" lon="13.593848456024366"><ele>440.0</ele><time>2026-03-22T10:09:20Z</time></trkpt><trkpt lat="42.94484533736895" lon="13.593865346235766"><ele>440.0</ele><time>2026-03-22T10:09:21Z</time></trkpt><trkpt lat="42.94471478865682" lon="13.593901252101897"><ele>441.75</ele><time>2026-03-22T10:09:23Z</time></trkpt><trkpt lat="42.94460033084493" lon="13.593921333447794"><ele>443.5</ele><time>2026-03-22T10:09:25Z</time></trkpt><trkpt lat="42.94449834784118" lon="13.59388904719296"><ele>445.25</ele><time>2026-03-22T10:09:26Z</time></trkpt><trkpt lat="42.944361276315774" lon="13.593907274940333"><ele>447.0</ele><time>2026-03-22T10:09:27Z</time></trkpt><trkpt lat="42.94422411367725" lon="13.5939189595776"><ele>449.25</ele><time>2026-03-22T10:09:28Z</time></trkpt><trkpt lat="42.94409272740274" lon="13.593929297177514"><ele>451.5</ele><time>2026-03-22T10:09:29Z</time></trkpt><trkpt lat="42.943972028038424" lon="13.593937203917164"><ele>453.75</ele><time>2026-03-22T10:09:30Z</time></trkpt><trkpt lat="42.94384718210296" lon="13.593933598382606"><ele>456.0</ele><time>2026-03-22T10:09:31Z</time></trkpt><trkpt lat="42.94371155938463" lon="13.59392539044857"><ele>456.0</ele><time>2026-03-22T10:09:32Z</time></trkpt><trkpt lat="42.94359469547791" lon="13.593914206495793"><ele>456.0</ele><time>2026-03-22T10:09:33Z</time></trkpt><trkpt lat="42.94348924022909" lon="13.593901268460023"><ele>456.0</ele><time>2026-03-22T10:09:34Z</time></trkpt><trkpt lat="42.94341212421043" lon="13.593876571950272"><ele>456.0</ele><time>2026-03-22T10:09:35Z</time></trkpt><trkpt lat="42.94334444280822" lon="13.59383877411227"><ele>456.0</ele><time>2026-03-22T10:09:36Z</time></trkpt><trkpt lat="42.94326408529177" lon="13.593798797950015"><ele>456.0</ele><time>2026-03-22T10:09:37Z</time></trkpt><trkpt lat="42.943201204076765" lon="13.59375218334579"><ele>456.0</ele><time>2026-03-22T10:09:38Z</time></trkpt><trkpt lat="42.94311472785342" lon="13.593596885284303"><ele>456.0</ele><time>2026-03-22T10:09:40Z</time></trkpt><trkpt lat="42.94308180351268" lon="13.593469563644453"><ele>456.0</ele><time>2026-03-22T10:09:40.999Z</time></trkpt><trkpt lat="42.943044020411946" lon="13.593309697293003"><ele>456.0</ele><time>2026-03-22T10:09:41.999Z</time></trkpt><trkpt lat="42.943019021781616" lon="13.593140175683875"><ele>456.0</ele><time>2026-03-22T10:09:42.999Z</time></trkpt><trkpt lat="42.94296545982588" lon="13.592984417215083"><ele>456.0</ele><time>2026-03-22T10:09:43.999Z</time></trkpt><trkpt lat="42.94291793042841" lon="13.592825390836202"><ele>456.0</ele><time>2026-03-22T10:09:44.999Z</time></trkpt><trkpt lat="42.94282902319836" lon="13.59268300293715"><ele>456.0</ele><time>2026-03-22T10:09:45.999Z</time></trkpt><trkpt lat="42.9427315475777" lon="13.592554132500117"><ele>455.25</ele><time>2026-03-22T10:09:46.999Z</time></trkpt><trkpt lat="42.94263282168906" lon="13.592418846216006"><ele>454.5</ele><time>2026-03-22T10:09:47.999Z</time></trkpt><trkpt lat="42.94253916535339" lon="13.592260572124884"><ele>453.75</ele><time>2026-03-22T10:09:48.999Z</time></trkpt><trkpt lat="42.94245759409592" lon="13.592091061487345"><ele>453.0</ele><time>2026-03-22T10:09:49.999Z</time></trkpt><trkpt lat="42.94238554904083" lon="13.591931546729707"><ele>455.0</ele><time>2026-03-22T10:09:50.999Z</time></trkpt><trkpt lat="42.94232639915119" lon="13.591794107439927"><ele>457.0</ele><time>2026-03-22T10:09:51.999Z</time></trkpt><trkpt lat="42.942275680776724" lon="13.591665048435784"><ele>459.0</ele><time>2026-03-22T10:09:52.999Z</time></trkpt><trkpt lat="42.94225013110867" lon="13.591497721503886"><ele>461.0</ele><time>2026-03-22T10:09:53.999Z</time></trkpt><trkpt lat="42.94223723521359" lon="13.591340136091345"><ele>461.0</ele><time>2026-03-22T10:09:54.999Z</time></trkpt><trkpt lat="42.94221789820775" lon="13.591191454743013"><ele>461.0</ele><time>2026-03-22T10:09:55.999Z</time></trkpt><trkpt lat="42.94219332356963" lon="13.59104267908649"><ele>461.0</ele><time>2026-03-22T10:09:56.999Z</time></trkpt><trkpt lat="42.94215831260162" lon="13.590890485637534"><ele>461.0</ele><time>2026-03-22T10:09:57.999Z</time></trkpt><trkpt lat="42.942124056993116" lon="13.590740717233114"><ele>460.0</ele><time>2026-03-22T10:09:58.999Z</time></trkpt><trkpt lat="42.94207567202303" lon="13.590624789961062"><ele>459.0</ele><time>2026-03-22T10:09:59.999Z</time></trkpt><trkpt lat="42.94202323078558" lon="13.590505473589857"><ele>458.0</ele><time>2026-03-22T10:10:00.999Z</time></trkpt><trkpt lat="42.94196471784926" lon="13.590381425459263"><ele>457.0</ele><time>2026-03-22T10:10:01.999Z</time></trkpt><trkpt lat="42.94189146780437" lon="13.59026934907272"><ele>456.0</ele><time>2026-03-22T10:10:02.999Z</time></trkpt><trkpt lat="42.9418110892224" lon="13.59018397036926"><ele>455.8</ele><time>2026-03-22T10:10:03.999Z</time></trkpt><trkpt lat="42.94172328228894" lon="13.590125135390204"><ele>455.6</ele><time>2026-03-22T10:10:04.999Z</time></trkpt><trkpt lat="42.94164282651117" lon="13.5900703087037"><ele>455.4</ele><time>2026-03-22T10:10:05.999Z</time></trkpt><trkpt lat="42.941540610988056" lon="13.59004835346252"><ele>455.2</ele><time>2026-03-22T10:10:06.999Z</time></trkpt><trkpt lat="42.941429440371564" lon="13.59005673269728"><ele>455.0</ele><time>2026-03-22T10:10:07.999Z</time></trkpt><trkpt lat="42.94132940372484" lon="13.590098528306529"><ele>457.4</ele><time>2026-03-22T10:10:08.999Z</time></trkpt><trkpt lat="42.94124295596429" lon="13.590162369094875"><ele>459.8</ele><time>2026-03-22T10:10:09.999Z</time></trkpt><trkpt lat="42.9411736917066" lon="13.590263034346167"><ele>462.20000000000005</ele><time>2026-03-22T10:10:10.999Z</time></trkpt><trkpt lat="42.94112265504538" lon="13.590388779634605"><ele>464.6</ele><time>2026-03-22T10:10:11.999Z</time></trkpt><trkpt lat="42.941073922436736" lon="13.590517441029286"><ele>467.0</ele><time>2026-03-22T10:10:12.999Z</time></trkpt><trkpt lat="42.94102726722119" lon="13.590670234403692"><ele>469.25</ele><time>2026-03-22T10:10:13.999Z</time></trkpt><trkpt lat="42.94097628862458" lon="13.59083583558997"><ele>471.5</ele><time>2026-03-22T10:10:14.999Z</time></trkpt><trkpt lat="42.940907404405245" lon="13.591014465986008"><ele>473.75</ele><time>2026-03-22T10:10:15.999Z</time></trkpt><trkpt lat="42.94083028931923" lon="13.59118289699764"><ele>476.0</ele><time>2026-03-22T10:10:16.999Z</time></trkpt><trkpt lat="42.94076722576741" lon="13.591315644764844"><ele>476.20000000000005</ele><time>2026-03-22T10:10:17.999Z</time></trkpt><trkpt lat="42.94071703590014" lon="13.591414689292595"><ele>476.40000000000003</ele><time>2026-03-22T10:10:18.999Z</time></trkpt><trkpt lat="42.94066608954944" lon="13.591511920247841"><ele>476.6</ele><time>2026-03-22T10:10:20.999Z</time></trkpt><trkpt lat="42.940557910743316" lon="13.591508669298591"><ele>476.8</ele><time>2026-03-22T10:10:24.999Z</time></trkpt><trkpt lat="42.94048078798885" lon="13.591433947557926"><ele>477.0</ele><time>2026-03-22T10:10:25.999Z</time></trkpt><trkpt lat="42.94038214899457" lon="13.591341569636384"><ele>477.0</ele><time>2026-03-22T10:10:26.999Z</time></trkpt><trkpt lat="42.94026312598693" lon="13.591235076885955"><ele>477.0</ele><time>2026-03-22T10:10:27.999Z</time></trkpt><trkpt lat="42.94012368373604" lon="13.59113037401396"><ele>477.0</ele><time>2026-03-22T10:10:28.999Z</time></trkpt><trkpt lat="42.93999154819429" lon="13.591033114469722"><ele>475.25</ele><time>2026-03-22T10:10:29.999Z</time></trkpt><trkpt lat="42.93988299539735" lon="13.590934165904986"><ele>473.5</ele><time>2026-03-22T10:10:30.999Z</time></trkpt><trkpt lat="42.93977767545097" lon="13.590829395717641"><ele>471.75</ele><time>2026-03-22T10:10:31.999Z</time></trkpt><trkpt lat="42.93966542905121" lon="13.590715283296507"><ele>470.0</ele><time>2026-03-22T10:10:32.999Z</time></trkpt><trkpt lat="42.93956210810539" lon="13.590558394038807"><ele>470.0</ele><time>2026-03-22T10:10:33.999Z</time></trkpt><trkpt lat="42.9394744543677" lon="13.590352522005363"><ele>470.0</ele><time>2026-03-22T10:10:34.999Z</time></trkpt><trkpt lat="42.93939740480843" lon="13.590113725190369"><ele>470.0</ele><time>2026-03-22T10:10:35.999Z</time></trkpt><trkpt lat="42.93933664394996" lon="13.58988459696828"><ele>469.3333333333333</ele><time>2026-03-22T10:10:36.999Z</time></trkpt><trkpt lat="42.93927755211081" lon="13.589663417943886"><ele>468.66666666666663</ele><time>2026-03-22T10:10:37.999Z</time></trkpt><trkpt lat="42.939222290449884" lon="13.58944954594337"><ele>468.0</ele><time>2026-03-22T10:10:38.999Z</time></trkpt><trkpt lat="42.939167026273296" lon="13.589251285990166"><ele>468.0</ele><time>2026-03-22T10:10:39.999Z</time></trkpt><trkpt lat="42.939113492412275" lon="13.589057537555142"><ele>468.0</ele><time>2026-03-22T10:10:40.999Z</time></trkpt><trkpt lat="42.93906308193223" lon="13.588865931031142"><ele>468.0</ele><time>2026-03-22T10:10:41.999Z</time></trkpt><trkpt lat="42.939015517889494" lon="13.588686768649588"><ele>468.0</ele><time>2026-03-22T10:10:42.999Z</time></trkpt><trkpt lat="42.9389570769163" lon="13.5885126561308"><ele>467.75</ele><time>2026-03-22T10:10:43.998Z</time></trkpt><trkpt lat="42.93888817474072" lon="13.588352766598794"><ele>467.5</ele><time>2026-03-22T10:10:44.998Z</time></trkpt><trkpt lat="42.93881066024658" lon="13.588207913040137"><ele>467.25</ele><time>2026-03-22T10:10:45.998Z</time></trkpt><trkpt lat="42.938726178937046" lon="13.588083268623572"><ele>467.0</ele><time>2026-03-22T10:10:46.998Z</time></trkpt><trkpt lat="42.93862924662018" lon="13.587970733141947"><ele>467.0</ele><time>2026-03-22T10:10:47.998Z</time></trkpt><trkpt lat="42.93851423136459" lon="13.587865640429829"><ele>467.0</ele><time>2026-03-22T10:10:48.998Z</time></trkpt><trkpt lat="42.938383978312565" lon="13.587793315949172"><ele>467.0</ele><time>2026-03-22T10:10:49.998Z</time></trkpt><trkpt lat="42.938273516994094" lon="13.587708469539166"><ele>467.0</ele><time>2026-03-22T10:10:50.998Z</time></trkpt><trkpt lat="42.93815685215199" lon="13.587659604449257"><ele>469.8</ele><time>2026-03-22T10:10:51.998Z</time></trkpt><trkpt lat="42.93804623371273" lon="13.587627932362297"><ele>472.6</ele><time>2026-03-22T10:10:52.998Z</time></trkpt><trkpt lat="42.9379288843541" lon="13.587606193218951"><ele>475.40000000000003</ele><time>2026-03-22T10:10:54Z</time></trkpt><trkpt lat="42.93782398865701" lon="13.587577394674405"><ele>478.20000000000005</ele><time>2026-03-22T10:10:55Z</time></trkpt><trkpt lat="42.93772857570314" lon="13.587520315571416"><ele>481.0</ele><time>2026-03-22T10:10:56Z</time></trkpt><trkpt lat="42.93765321065367" lon="13.587440328141582"><ele>481.0</ele><time>2026-03-22T10:10:57Z</time></trkpt><trkpt lat="42.937571277236735" lon="13.587386671490256"><ele>481.0</ele><time>2026-03-22T10:10:58Z</time></trkpt><trkpt lat="42.93747665297933" lon="13.587347557165636"><ele>481.0</ele><time>2026-03-22T10:10:59Z</time></trkpt><trkpt lat="42.9374008069097" lon="13.587272030474152"><ele>481.0</ele><time>2026-03-22T10:11:00Z</time></trkpt><trkpt lat="42.937313114046916" lon="13.587188665035994"><ele>481.0</ele><time>2026-03-22T10:11:01Z</time></trkpt><trkpt lat="42.93722178703697" lon="13.587117664034867"><ele>481.0</ele><time>2026-03-22T10:11:02Z</time></trkpt><trkpt lat="42.93712073464842" lon="13.587041237224144"><ele>481.0</ele><time>2026-03-22T10:11:03Z</time></trkpt><trkpt lat="42.937012487226724" lon="13.586956756823602"><ele>481.0</ele><time>2026-03-22T10:11:04Z</time></trkpt><trkpt lat="42.93691195080204" lon="13.586864931570444"><ele>481.0</ele><time>2026-03-22T10:11:05Z</time></trkpt><trkpt lat="42.936823255586496" lon="13.586746037446137"><ele>480.75</ele><time>2026-03-22T10:11:06Z</time></trkpt><trkpt lat="42.936737722737654" lon="13.586594705323755"><ele>480.5</ele><time>2026-03-22T10:11:07Z</time></trkpt><trkpt lat="42.93668107364274" lon="13.586437664607054"><ele>480.25</ele><time>2026-03-22T10:11:08Z</time></trkpt><trkpt lat="42.93662774986461" lon="13.586252064836449"><ele>480.0</ele><time>2026-03-22T10:11:09Z</time></trkpt><trkpt lat="42.93655245089377" lon="13.586081421763637"><ele>481.6</ele><time>2026-03-22T10:11:10Z</time></trkpt><trkpt lat="42.93651280233466" lon="13.585911859979436"><ele>483.2</ele><time>2026-03-22T10:11:11Z</time></trkpt><trkpt lat="42.93644774172973" lon="13.585782316748364"><ele>484.79999999999995</ele><time>2026-03-22T10:11:12Z</time></trkpt><trkpt lat="42.936403971281045" lon="13.5856673516884"><ele>486.4</ele><time>2026-03-22T10:11:13Z</time></trkpt><trkpt lat="42.93636229133133" lon="13.585564001098275"><ele>488.0</ele><time>2026-03-22T10:11:14Z</time></trkpt><trkpt lat="42.936335861095976" lon="13.585472347421861"><ele>488.0</ele><time>2026-03-22T10:11:15Z</time></trkpt><trkpt lat="42.93627738640798" lon="13.585436203326461"><ele>488.0</ele><time>2026-03-22T10:11:16Z</time></trkpt><trkpt lat="42.93611157654771" lon="13.585391346455035"><ele>488.0</ele><time>2026-03-22T10:11:18Z</time></trkpt><trkpt lat="42.93600116956186" lon="13.585477803892667"><ele>488.0</ele><time>2026-03-22T10:11:19Z</time></trkpt><trkpt lat="42.9358811510874" lon="13.585594752236778"><ele>491.0</ele><time>2026-03-22T10:11:20Z</time></trkpt><trkpt lat="42.93574563661144" lon="13.585737832014814"><ele>494.0</ele><time>2026-03-22T10:11:21Z</time></trkpt><trkpt lat="42.935630490417836" lon="13.585859008356518"><ele>497.0</ele><time>2026-03-22T10:11:22Z</time></trkpt><trkpt lat="42.935535887453646" lon="13.585949749001808"><ele>500.0</ele><time>2026-03-22T10:11:23Z</time></trkpt><trkpt lat="42.93545573625629" lon="13.586010728426471"><ele>500.0</ele><time>2026-03-22T10:11:24Z</time></trkpt><trkpt lat="42.935355808079386" lon="13.586045739963813"><ele>500.0</ele><time>2026-03-22T10:11:26Z</time></trkpt><trkpt lat="42.935277215943266" lon="13.585975396472893"><ele>500.0</ele><time>2026-03-22T10:11:28Z</time></trkpt><trkpt lat="42.9352872094054" lon="13.585760207443553"><ele>500.0</ele><time>2026-03-22T10:11:29Z</time></trkpt><trkpt lat="42.93533677595376" lon="13.58558344676855"><ele>500.0</ele><time>2026-03-22T10:11:30Z</time></trkpt><trkpt lat="42.9353627206504" lon="13.58540987273524"><ele>500.0</ele><time>2026-03-22T10:11:31Z</time></trkpt><trkpt lat="42.93535534759448" lon="13.585285473872919"><ele>500.0</ele><time>2026-03-22T10:11:32Z</time></trkpt><trkpt lat="42.935332659378574" lon="13.585180068103186"><ele>500.0</ele><time>2026-03-22T10:11:33Z</time></trkpt><trkpt lat="42.93526418749891" lon="13.58505141011798"><ele>500.0</ele><time>2026-03-22T10:11:35Z</time></trkpt><trkpt lat="42.935201996634504" lon="13.584997789284229"><ele>499.8</ele><time>2026-03-22T10:11:36Z</time></trkpt><trkpt lat="42.935139222515055" lon="13.584935718585843"><ele>499.6</ele><time>2026-03-22T10:11:37Z</time></trkpt><trkpt lat="42.935059533638864" lon="13.584936016445978"><ele>499.4</ele><time>2026-03-22T10:11:38Z</time></trkpt><trkpt lat="42.9349914957424" lon="13.584941393598234"><ele>499.2</ele><time>2026-03-22T10:11:39Z</time></trkpt><trkpt lat="42.934928991343405" lon="13.5847374839956"><ele>499.0</ele><time>2026-03-22T10:11:40Z</time></trkpt><trkpt lat="42.93484884910323" lon="13.584663837086875"><ele>502.0</ele><time>2026-03-22T10:11:41Z</time></trkpt><trkpt lat="42.9347737521134" lon="13.584594377447242"><ele>505.0</ele><time>2026-03-22T10:11:42Z</time></trkpt><trkpt lat="42.93471093281283" lon="13.584525614417208"><ele>508.0</ele><time>2026-03-22T10:11:43Z</time></trkpt><trkpt lat="42.93466659943123" lon="13.58446261334566"><ele>511.0</ele><time>2026-03-22T10:11:44Z</time></trkpt><trkpt lat="42.93460454033545" lon="13.584317478461369"><ele>514.0</ele><time>2026-03-22T10:11:45.999Z</time></trkpt><trkpt lat="42.93457018161404" lon="13.58419945090283"><ele>514.75</ele><time>2026-03-22T10:11:46.999Z</time></trkpt><trkpt lat="42.93451703869347" lon="13.584090352423937"><ele>515.5</ele><time>2026-03-22T10:11:47.999Z</time></trkpt><trkpt lat="42.93442512756693" lon="13.58401146799743"><ele>516.25</ele><time>2026-03-22T10:11:48.999Z</time></trkpt><trkpt lat="42.934297999264956" lon="13.58392876159587"><ele>517.0</ele><time>2026-03-22T10:11:49.999Z</time></trkpt><trkpt lat="42.9341640238904" lon="13.583878087028962"><ele>518.6666666666667</ele><time>2026-03-22T10:11:50.999Z</time></trkpt><trkpt lat="42.93405971594214" lon="13.58383759710936"><ele>520.3333333333334</ele><time>2026-03-22T10:11:51.999Z</time></trkpt><trkpt lat="42.93398394808974" lon="13.583807346303484"><ele>522.0</ele><time>2026-03-22T10:11:52.999Z</time></trkpt><trkpt lat="42.93391682314974" lon="13.583776629056734"><ele>523.6666666666666</ele><time>2026-03-22T10:11:53.999Z</time></trkpt><trkpt lat="42.933853344313306" lon="13.583742788823187"><ele>525.3333333333333</ele><time>2026-03-22T10:11:54.999Z</time></trkpt><trkpt lat="42.9337950755675" lon="13.583709771901733"><ele>527.0</ele><time>2026-03-22T10:11:55.999Z</time></trkpt><trkpt lat="42.933735294423016" lon="13.58367259262482"><ele>530.0</ele><time>2026-03-22T10:11:56.999Z</time></trkpt><trkpt lat="42.93365674364382" lon="13.583621117656019"><ele>533.0</ele><time>2026-03-22T10:11:57.999Z</time></trkpt><trkpt lat="42.93356411567084" lon="13.583560417782111"><ele>536.0</ele><time>2026-03-22T10:11:58.999Z</time></trkpt><trkpt lat="42.93345307929035" lon="13.583487654754226"><ele>539.0</ele><time>2026-03-22T10:11:59.999Z</time></trkpt><trkpt lat="42.933347054969126" lon="13.583437933021662"><ele>542.0</ele><time>2026-03-22T10:12:00.999Z</time></trkpt><trkpt lat="42.93324086017502" lon="13.583348446214346"><ele>544.3333333333333</ele><time>2026-03-22T10:12:01.999Z</time></trkpt><trkpt lat="42.93310582533725" lon="13.583248385654109"><ele>546.6666666666666</ele><time>2026-03-22T10:12:02.999Z</time></trkpt><trkpt lat="42.93295810954856" lon="13.583149371247957"><ele>549.0</ele><time>2026-03-22T10:12:03.999Z</time></trkpt><trkpt lat="42.93282436984526" lon="13.583049893073888"><ele>549.0</ele><time>2026-03-22T10:12:04.999Z</time></trkpt><trkpt lat="42.93270328814195" lon="13.583004760803945"><ele>549.0</ele><time>2026-03-22T10:12:05.999Z</time></trkpt><trkpt lat="42.932610130068895" lon="13.583002276058798"><ele>549.0</ele><time>2026-03-22T10:12:06.999Z</time></trkpt><trkpt lat="42.932532925821675" lon="13.583015678198734"><ele>549.0</ele><time>2026-03-22T10:12:07.999Z</time></trkpt><trkpt lat="42.93246421405181" lon="13.583025658626243"><ele>549.0</ele><time>2026-03-22T10:12:08.999Z</time></trkpt><trkpt lat="42.93239130221626" lon="13.583031224941573"><ele>549.0</ele><time>2026-03-22T10:12:09.999Z</time></trkpt><trkpt lat="42.93232513404392" lon="13.583034945324238"><ele>550.0</ele><time>2026-03-22T10:12:10.999Z</time></trkpt><trkpt lat="42.93225183454301" lon="13.58304174553166"><ele>551.0</ele><time>2026-03-22T10:12:11.999Z</time></trkpt><trkpt lat="42.93218638599716" lon="13.582995310235784"><ele>552.0</ele><time>2026-03-22T10:12:12.999Z</time></trkpt><trkpt lat="42.932109455207275" lon="13.582948219032192"><ele>553.0</ele><time>2026-03-22T10:12:14.999Z</time></trkpt><trkpt lat="42.932003508890034" lon="13.582869951197367"><ele>554.0</ele><time>2026-03-22T10:12:16.999Z</time></trkpt><trkpt lat="42.93189667854775" lon="13.582761405827526"><ele>557.0</ele><time>2026-03-22T10:12:18.999Z</time></trkpt><trkpt lat="42.931824915783004" lon="13.582688491417363"><ele>560.0</ele><time>2026-03-22T10:12:19.999Z</time></trkpt><trkpt lat="42.9317515153573" lon="13.58261493349965"><ele>563.0</ele><time>2026-03-22T10:12:20.999Z</time></trkpt><trkpt lat="42.93168928810671" lon="13.582553828658614"><ele>566.0</ele><time>2026-03-22T10:12:21.999Z</time></trkpt><trkpt lat="42.93162354768592" lon="13.582489274023589"><ele>569.0</ele><time>2026-03-22T10:12:22.999Z</time></trkpt><trkpt lat="42.93153263788677" lon="13.582404577067992"><ele>572.0</ele><time>2026-03-22T10:12:23.999Z</time></trkpt><trkpt lat="42.931448607900464" lon="13.582328472758062"><ele>573.0</ele><time>2026-03-22T10:12:24.999Z</time></trkpt><trkpt lat="42.9313637186815" lon="13.58224841009556"><ele>574.0</ele><time>2026-03-22T10:12:25.999Z</time></trkpt><trkpt lat="42.931284870506" lon="13.582165592442056"><ele>575.0</ele><time>2026-03-22T10:12:26.999Z</time></trkpt><trkpt lat="42.93122564640168" lon="13.58208793038343"><ele>576.0</ele><time>2026-03-22T10:12:27.999Z</time></trkpt><trkpt lat="42.93116853698034" lon="13.582017294823094"><ele>577.0</ele><time>2026-03-22T10:12:28.999Z</time></trkpt><trkpt lat="42.931114303454116" lon="13.581950216295503"><ele>578.0</ele><time>2026-03-22T10:12:29.999Z</time></trkpt><trkpt lat="42.93079787880303" lon="13.582158050886457"><ele>578.3333333333333</ele><time>2026-03-22T10:12:31.999Z</time></trkpt><trkpt lat="42.93074325456288" lon="13.58210998610999"><ele>578.6666666666666</ele><time>2026-03-22T10:12:32.999Z</time></trkpt><trkpt lat="42.93069270644354" lon="13.582024990771103"><ele>579.0</ele><time>2026-03-22T10:12:34.999Z</time></trkpt><trkpt lat="42.930638593210496" lon="13.581969865066414"><ele>579.3333333333334</ele><time>2026-03-22T10:12:36.999Z</time></trkpt><trkpt lat="42.93056935253852" lon="13.581914948706704"><ele>579.6666666666667</ele><time>2026-03-22T10:12:38.999Z</time></trkpt><trkpt lat="42.93046800221062" lon="13.58184960259644"><ele>580.0</ele><time>2026-03-22T10:12:40.999Z</time></trkpt><trkpt lat="42.930399515033734" lon="13.581827867015152"><ele>580.0</ele><time>2026-03-22T10:12:41.999Z</time></trkpt><trkpt lat="42.93031643787921" lon="13.581803942285742"><ele>580.0</ele><time>2026-03-22T10:12:42.999Z</time></trkpt><trkpt lat="42.93023020359502" lon="13.581772348426432"><ele>580.0</ele><time>2026-03-22T10:12:43.999Z</time></trkpt><trkpt lat="42.93014630667802" lon="13.581737669506765"><ele>580.0</ele><time>2026-03-22T10:12:44.999Z</time></trkpt><trkpt lat="42.93007079399628" lon="13.581700079721543"><ele>580.0</ele><time>2026-03-22T10:12:45.998Z</time></trkpt><trkpt lat="42.93000778452393" lon="13.581659246024822"><ele>580.0</ele><time>2026-03-22T10:12:46.998Z</time></trkpt><trkpt lat="42.92995736467999" lon="13.581606017259162"><ele>578.2</ele><time>2026-03-22T10:12:47.998Z</time></trkpt><trkpt lat="42.92990459107852" lon="13.581537220189793"><ele>576.4</ele><time>2026-03-22T10:12:48.998Z</time></trkpt><trkpt lat="42.929842773234974" lon="13.581440951123612"><ele>574.6</ele><time>2026-03-22T10:12:49.998Z</time></trkpt><trkpt lat="42.9297705709144" lon="13.581326809966617"><ele>572.8</ele><time>2026-03-22T10:12:51.998Z</time></trkpt><trkpt lat="42.92970327575359" lon="13.581235607925242"><ele>571.0</ele><time>2026-03-22T10:12:53.998Z</time></trkpt><trkpt lat="42.92964055131384" lon="13.581162818866359"><ele>571.0</ele><time>2026-03-22T10:12:55.998Z</time></trkpt><trkpt lat="42.92955932996614" lon="13.581123000436206"><ele>571.0</ele><time>2026-03-22T10:12:58.998Z</time></trkpt><trkpt lat="42.929488050093084" lon="13.581108123923466"><ele>571.0</ele><time>2026-03-22T10:13:02Z</time></trkpt><trkpt lat="42.929417979500876" lon="13.5810969897344"><ele>571.0</ele><time>2026-03-22T10:13:04Z</time></trkpt><trkpt lat="42.929346473235206" lon="13.581084598768424"><ele>571.0</ele><time>2026-03-22T10:13:08Z</time></trkpt><trkpt lat="42.92925362987728" lon="13.581101766536854"><ele>571.0</ele><time>2026-03-22T10:13:10Z</time></trkpt><trkpt lat="42.929155013407815" lon="13.581114176779806"><ele>568.6666666666667</ele><time>2026-03-22T10:13:12Z</time></trkpt><trkpt lat="42.92906001542341" lon="13.581107294427891"><ele>566.3333333333334</ele><time>2026-03-22T10:13:14Z</time></trkpt><trkpt lat="42.928979154757634" lon="13.581094638877273"><ele>564.0</ele><time>2026-03-22T10:13:17Z</time></trkpt><trkpt lat="42.92890149254427" lon="13.581066623209065"><ele>561.6666666666666</ele><time>2026-03-22T10:13:19Z</time></trkpt><trkpt lat="42.92881688431492" lon="13.581041453118003"><ele>559.3333333333333</ele><time>2026-03-22T10:13:21Z</time></trkpt><trkpt lat="42.92872877404079" lon="13.581025577679442"><ele>557.0</ele><time>2026-03-22T10:13:25Z</time></trkpt><trkpt lat="42.928656733472764" lon="13.580988712286256"><ele>557.0</ele><time>2026-03-22T10:13:27Z</time></trkpt><trkpt lat="42.92858623649754" lon="13.580937712643204"><ele>557.0</ele><time>2026-03-22T10:13:29Z</time></trkpt><trkpt lat="42.92850881710848" lon="13.580895590941177"><ele>557.0</ele><time>2026-03-22T10:13:31Z</time></trkpt><trkpt lat="42.92842180989805" lon="13.58087458253068"><ele>557.0</ele><time>2026-03-22T10:13:33Z</time></trkpt><trkpt lat="42.92831400328623" lon="13.580891644953319"><ele>557.0</ele><time>2026-03-22T10:13:35Z</time></trkpt><trkpt lat="42.928248159789156" lon="13.58087455450856"><ele>557.0</ele><time>2026-03-22T10:13:36Z</time></trkpt><trkpt lat="42.92814361581113" lon="13.5808128963456"><ele>558.2</ele><time>2026-03-22T10:13:38Z</time></trkpt><trkpt lat="42.9280812834748" lon="13.580658282916309"><ele>559.4000000000001</ele><time>2026-03-22T10:13:40Z</time></trkpt><trkpt lat="42.92803941692074" lon="13.580574746736163"><ele>560.5999999999999</ele><time>2026-03-22T10:13:41Z</time></trkpt><trkpt lat="42.927948520001316" lon="13.580502443869067"><ele>561.8</ele><time>2026-03-22T10:13:43Z</time></trkpt><trkpt lat="42.927836726736274" lon="13.580461323056777"><ele>563.0</ele><time>2026-03-22T10:13:45Z</time></trkpt><trkpt lat="42.927759205235816" lon="13.580461025880888"><ele>563.0</ele><time>2026-03-22T10:13:47Z</time></trkpt><trkpt lat="42.92773563194594" lon="13.580602402247633"><ele>563.0</ele><time>2026-03-22T10:13:49Z</time></trkpt><trkpt lat="42.927734315327356" lon="13.580733997691397"><ele>563.0</ele><time>2026-03-22T10:13:50Z</time></trkpt><trkpt lat="42.92773375327326" lon="13.580889796416724"><ele>563.0</ele><time>2026-03-22T10:13:50.999Z</time></trkpt><trkpt lat="42.92772456898002" lon="13.580998507102585"><ele>563.0</ele><time>2026-03-22T10:13:51.999Z</time></trkpt><trkpt lat="42.927695072618704" lon="13.581089719730459"><ele>562.6</ele><time>2026-03-22T10:13:52.999Z</time></trkpt><trkpt lat="42.92765094032298" lon="13.581186261874644"><ele>562.1999999999999</ele><time>2026-03-22T10:13:53.999Z</time></trkpt><trkpt lat="42.927592290043584" lon="13.581295131317717"><ele>561.8</ele><time>2026-03-22T10:13:54.999Z</time></trkpt><trkpt lat="42.92753789987929" lon="13.581395282739072"><ele>561.4</ele><time>2026-03-22T10:13:55.999Z</time></trkpt><trkpt lat="42.92749616588351" lon="13.58148032799692"><ele>561.0</ele><time>2026-03-22T10:13:56.999Z</time></trkpt><trkpt lat="42.927445897237085" lon="13.58163292496267"><ele>566.25</ele><time>2026-03-22T10:13:58.999Z</time></trkpt><trkpt lat="42.927443178651245" lon="13.581750642886783"><ele>571.5</ele><time>2026-03-22T10:13:59.999Z</time></trkpt><trkpt lat="42.92745168780676" lon="13.581891624979761"><ele>576.75</ele><time>2026-03-22T10:14:00.999Z</time></trkpt><trkpt lat="42.92747464898741" lon="13.582090501924123"><ele>582.0</ele><time>2026-03-22T10:14:01.999Z</time></trkpt><trkpt lat="42.927482029889035" lon="13.582260983662529"><ele>582.2</ele><time>2026-03-22T10:14:02.999Z</time></trkpt><trkpt lat="42.92746573260282" lon="13.582420476065987"><ele>582.4000000000001</ele><time>2026-03-22T10:14:03.999Z</time></trkpt><trkpt lat="42.92743494412211" lon="13.582559414004702"><ele>582.5999999999999</ele><time>2026-03-22T10:14:04.999Z</time></trkpt><trkpt lat="42.92741446426754" lon="13.582680922145483"><ele>582.8</ele><time>2026-03-22T10:14:05.999Z</time></trkpt><trkpt lat="42.92741743275913" lon="13.582815959248101"><ele>583.0</ele><time>2026-03-22T10:14:06.999Z</time></trkpt><trkpt lat="42.92743781511045" lon="13.582974744181062"><ele>583.0</ele><time>2026-03-22T10:14:07.999Z</time></trkpt><trkpt lat="42.92745987122781" lon="13.583145668169825"><ele>583.0</ele><time>2026-03-22T10:14:08.999Z</time></trkpt><trkpt lat="42.92746996713651" lon="13.583324193088009"><ele>583.0</ele><time>2026-03-22T10:14:09.999Z</time></trkpt><trkpt lat="42.927467507323065" lon="13.58345812065724"><ele>583.0</ele><time>2026-03-22T10:14:10.999Z</time></trkpt><trkpt lat="42.927456018174574" lon="13.583567486474841"><ele>583.0</ele><time>2026-03-22T10:14:11.999Z</time></trkpt><trkpt lat="42.92742049189714" lon="13.583679512827207"><ele>581.3333333333334</ele><time>2026-03-22T10:14:13.999Z</time></trkpt><trkpt lat="42.927367244482305" lon="13.583740852675906"><ele>579.6666666666667</ele><time>2026-03-22T10:14:14.999Z</time></trkpt><trkpt lat="42.92729566546366" lon="13.58383413952973"><ele>578.0</ele><time>2026-03-22T10:14:15.999Z</time></trkpt><trkpt lat="42.927232803461116" lon="13.583912681167295"><ele>576.3333333333334</ele><time>2026-03-22T10:14:16.999Z</time></trkpt><trkpt lat="42.92719239522763" lon="13.583985946577172"><ele>574.6666666666666</ele><time>2026-03-22T10:14:17.999Z</time></trkpt><trkpt lat="42.9271417608903" lon="13.584135402589835"><ele>573.0</ele><time>2026-03-22T10:14:19.999Z</time></trkpt><trkpt lat="42.92708487749641" lon="13.584284641128772"><ele>573.0</ele><time>2026-03-22T10:14:21.999Z</time></trkpt><trkpt lat="42.92697394379092" lon="13.584387295009535"><ele>573.0</ele><time>2026-03-22T10:14:23.999Z</time></trkpt><trkpt lat="42.926926551993894" lon="13.584465338822048"><ele>573.0</ele><time>2026-03-22T10:14:24.999Z</time></trkpt><trkpt lat="42.92692495566842" lon="13.584616312863622"><ele>573.0</ele><time>2026-03-22T10:14:26.999Z</time></trkpt><trkpt lat="42.92694461685237" lon="13.584698842017588"><ele>573.0</ele><time>2026-03-22T10:14:27.999Z</time></trkpt><trkpt lat="42.92695723255207" lon="13.58486839674928"><ele>571.0</ele><time>2026-03-22T10:14:29.999Z</time></trkpt><trkpt lat="42.926939169312874" lon="13.584963387087498"><ele>569.0</ele><time>2026-03-22T10:14:30.999Z</time></trkpt><trkpt lat="42.9269179380787" lon="13.58506128303412"><ele>567.0</ele><time>2026-03-22T10:14:31.999Z</time></trkpt><trkpt lat="42.926900540477995" lon="13.585147345024238"><ele>565.0</ele><time>2026-03-22T10:14:32.999Z</time></trkpt><trkpt lat="42.92689376263854" lon="13.58528911870418"><ele>563.0</ele><time>2026-03-22T10:14:34.999Z</time></trkpt><trkpt lat="42.92690529984317" lon="13.585408799677985"><ele>561.0</ele><time>2026-03-22T10:14:36.999Z</time></trkpt><trkpt lat="42.926920432249474" lon="13.585530128922304"><ele>559.4</ele><time>2026-03-22T10:14:39.999Z</time></trkpt><trkpt lat="42.92686779265462" lon="13.585655046011704"><ele>557.8</ele><time>2026-03-22T10:14:42.999Z</time></trkpt><trkpt lat="42.926819817991785" lon="13.585755178413525"><ele>556.1999999999999</ele><time>2026-03-22T10:14:44.999Z</time></trkpt><trkpt lat="42.92673999669461" lon="13.585886275631259"><ele>554.6</ele><time>2026-03-22T10:14:46.999Z</time></trkpt><trkpt lat="42.92669021252567" lon="13.585976460266465"><ele>553.0</ele><time>2026-03-22T10:14:47.998Z</time></trkpt><trkpt lat="42.92665076039781" lon="13.586060137600795"><ele>556.6666666666667</ele><time>2026-03-22T10:14:48.998Z</time></trkpt><trkpt lat="42.92659538549532" lon="13.586164671396993"><ele>560.3333333333334</ele><time>2026-03-22T10:14:50.998Z</time></trkpt><trkpt lat="42.92653591884479" lon="13.586200746302305"><ele>564.0</ele><time>2026-03-22T10:14:55.998Z</time></trkpt><trkpt lat="42.926515212047526" lon="13.58611080178652"><ele>567.6666666666666</ele><time>2026-03-22T10:15:03.998Z</time></trkpt><trkpt lat="42.92652901227159" lon="13.585945392673054"><ele>571.3333333333333</ele><time>2026-03-22T10:15:06Z</time></trkpt><trkpt lat="42.92653181376564" lon="13.585844719532075"><ele>575.0</ele><time>2026-03-22T10:15:07Z</time></trkpt><trkpt lat="42.92652276475919" lon="13.585705511551058"><ele>577.25</ele><time>2026-03-22T10:15:08Z</time></trkpt><trkpt lat="42.92651493004503" lon="13.585528777943761"><ele>579.5</ele><time>2026-03-22T10:15:09Z</time></trkpt><trkpt lat="42.92650715941163" lon="13.585361870167874"><ele>581.75</ele><time>2026-03-22T10:15:10Z</time></trkpt><trkpt lat="42.92649013933722" lon="13.585166859183952"><ele>584.0</ele><time>2026-03-22T10:15:11Z</time></trkpt><trkpt lat="42.92632321838494" lon="13.584950720472351"><ele>585.4</ele><time>2026-03-22T10:15:12Z</time></trkpt><trkpt lat="42.92632990275299" lon="13.584779327443572"><ele>586.8</ele><time>2026-03-22T10:15:13Z</time></trkpt><trkpt lat="42.926331162012104" lon="13.58467342573343"><ele>588.2</ele><time>2026-03-22T10:15:14Z</time></trkpt><trkpt lat="42.92632625152617" lon="13.584517570037509"><ele>589.6</ele><time>2026-03-22T10:15:16Z</time></trkpt><trkpt lat="42.92629517174613" lon="13.584426596010129"><ele>591.0</ele><time>2026-03-22T10:15:18Z</time></trkpt><trkpt lat="42.926145973002676" lon="13.584405495933687"><ele>591.0</ele><time>2026-03-22T10:15:20Z</time></trkpt><trkpt lat="42.926097693691936" lon="13.584550909939379"><ele>591.0</ele><time>2026-03-22T10:15:21Z</time></trkpt><trkpt lat="42.92606218618597" lon="13.584630524279374"><ele>591.0</ele><time>2026-03-22T10:15:22Z</time></trkpt><trkpt lat="42.925979241126136" lon="13.584714236157662"><ele>591.0</ele><time>2026-03-22T10:15:24Z</time></trkpt><trkpt lat="42.92587097032217" lon="13.58472892791387"><ele>591.0</ele><time>2026-03-22T10:15:26Z</time></trkpt><trkpt lat="42.9257860336833" lon="13.584704658746507"><ele>595.2</ele><time>2026-03-22T10:15:27Z</time></trkpt><trkpt lat="42.92569243214338" lon="13.584652739972897"><ele>599.4000000000001</ele><time>2026-03-22T10:15:28Z</time></trkpt><trkpt lat="42.925619212412194" lon="13.58460155807165"><ele>603.6</ele><time>2026-03-22T10:15:29Z</time></trkpt><trkpt lat="42.925596367236864" lon="13.584499933188086"><ele>607.8000000000001</ele><time>2026-03-22T10:15:30Z</time></trkpt><trkpt lat="42.92554183972372" lon="13.584366903303778"><ele>612.0</ele><time>2026-03-22T10:15:31Z</time></trkpt><trkpt lat="42.92550287414256" lon="13.584200384807458"><ele>615.75</ele><time>2026-03-22T10:15:32Z</time></trkpt><trkpt lat="42.925470490415655" lon="13.584014996864537"><ele>619.5</ele><time>2026-03-22T10:15:33Z</time></trkpt><trkpt lat="42.925443192362096" lon="13.583833967276412"><ele>623.25</ele><time>2026-03-22T10:15:34Z</time></trkpt><trkpt lat="42.9254248817593" lon="13.58366702165091"><ele>627.0</ele><time>2026-03-22T10:15:35Z</time></trkpt><trkpt lat="42.92541222860954" lon="13.583501226565357"><ele>629.2</ele><time>2026-03-22T10:15:36Z</time></trkpt><trkpt lat="42.92540198570922" lon="13.583328305451632"><ele>631.4000000000001</ele><time>2026-03-22T10:15:37Z</time></trkpt><trkpt lat="42.92539213321914" lon="13.583198369205576"><ele>633.5999999999999</ele><time>2026-03-22T10:15:38Z</time></trkpt><trkpt lat="42.92536738355846" lon="13.583100090946049"><ele>635.8</ele><time>2026-03-22T10:15:39Z</time></trkpt><trkpt lat="42.92532273738928" lon="13.582986564241391"><ele>638.0</ele><time>2026-03-22T10:15:40Z</time></trkpt><trkpt lat="42.92527194386055" lon="13.582853035626627"><ele>642.0</ele><time>2026-03-22T10:15:41Z</time></trkpt><trkpt lat="42.92523819928511" lon="13.582677158787225"><ele>646.0</ele><time>2026-03-22T10:15:42Z</time></trkpt><trkpt lat="42.92521891174029" lon="13.582485461749528"><ele>650.0</ele><time>2026-03-22T10:15:43Z</time></trkpt><trkpt lat="42.92520142244151" lon="13.582294036711513"><ele>654.0</ele><time>2026-03-22T10:15:44Z</time></trkpt><trkpt lat="42.925184646444926" lon="13.582100284537407"><ele>657.0</ele><time>2026-03-22T10:15:45Z</time></trkpt><trkpt lat="42.92516606128808" lon="13.581897996823363"><ele>660.0</ele><time>2026-03-22T10:15:46Z</time></trkpt><trkpt lat="42.92513957782187" lon="13.58169920822564"><ele>663.0</ele><time>2026-03-22T10:15:47Z</time></trkpt><trkpt lat="42.92510937121264" lon="13.581506794308623"><ele>666.0</ele><time>2026-03-22T10:15:48Z</time></trkpt><trkpt lat="42.925079421399566" lon="13.581321695572507"><ele>673.0</ele><time>2026-03-22T10:15:49Z</time></trkpt><trkpt lat="42.92504770982287" lon="13.581112998437888"><ele>680.0</ele><time>2026-03-22T10:15:50Z</time></trkpt><trkpt lat="42.92501421888663" lon="13.580899589594656"><ele>687.0</ele><time>2026-03-22T10:15:51Z</time></trkpt><trkpt lat="42.924970748283535" lon="13.580681342336463"><ele>687.0</ele><time>2026-03-22T10:15:52Z</time></trkpt><trkpt lat="42.924934351379974" lon="13.580500917297368"><ele>687.0</ele><time>2026-03-22T10:15:52.999Z</time></trkpt><trkpt lat="42.92490757513539" lon="13.580324987970362"><ele>687.0</ele><time>2026-03-22T10:15:53.999Z</time></trkpt><trkpt lat="42.92488222931836" lon="13.580165001337893"><ele>687.0</ele><time>2026-03-22T10:15:54.999Z</time></trkpt><trkpt lat="42.92485312377352" lon="13.580014556873412"><ele>692.3333333333334</ele><time>2026-03-22T10:15:55.999Z</time></trkpt><trkpt lat="42.92478564702649" lon="13.579857329934274"><ele>697.6666666666667</ele><time>2026-03-22T10:15:56.999Z</time></trkpt><trkpt lat="42.92470476153263" lon="13.579676058159144"><ele>703.0</ele><time>2026-03-22T10:15:57.999Z</time></trkpt><trkpt lat="42.9246317141413" lon="13.579473108184633"><ele>706.25</ele><time>2026-03-22T10:15:58.999Z</time></trkpt><trkpt lat="42.92459056483981" lon="13.579271813963137"><ele>709.5</ele><time>2026-03-22T10:15:59.999Z</time></trkpt><trkpt lat="42.92454814899239" lon="13.57910722705547"><ele>712.75</ele><time>2026-03-22T10:16:00.999Z</time></trkpt><trkpt lat="42.92447916289833" lon="13.578949670197321"><ele>716.0</ele><time>2026-03-22T10:16:01.999Z</time></trkpt><trkpt lat="42.924398243133204" lon="13.578791121063135"><ele>716.25</ele><time>2026-03-22T10:16:02.999Z</time></trkpt><trkpt lat="42.92431557776334" lon="13.57866373125966"><ele>716.5</ele><time>2026-03-22T10:16:03.999Z</time></trkpt><trkpt lat="42.92425797595702" lon="13.578548634152737"><ele>716.75</ele><time>2026-03-22T10:16:04.999Z</time></trkpt><trkpt lat="42.9242142372787" lon="13.578413690754862"><ele>717.0</ele><time>2026-03-22T10:16:05.999Z</time></trkpt><trkpt lat="42.92416173807995" lon="13.578255735893926"><ele>717.0</ele><time>2026-03-22T10:16:06.999Z</time></trkpt><trkpt lat="42.92415190132701" lon="13.578080147009688"><ele>717.0</ele><time>2026-03-22T10:16:07.999Z</time></trkpt><trkpt lat="42.92417152649717" lon="13.577908835261619"><ele>717.0</ele><time>2026-03-22T10:16:08.999Z</time></trkpt><trkpt lat="42.924230181057844" lon="13.57776413233919"><ele>717.0</ele><time>2026-03-22T10:16:09.999Z</time></trkpt><trkpt lat="42.924292012479775" lon="13.577639820279485"><ele>714.2</ele><time>2026-03-22T10:16:10.999Z</time></trkpt><trkpt lat="42.924340052690425" lon="13.577516457374069"><ele>711.4000000000001</ele><time>2026-03-22T10:16:11.999Z</time></trkpt><trkpt lat="42.92434922286947" lon="13.577419284233988"><ele>708.5999999999999</ele><time>2026-03-22T10:16:12.999Z</time></trkpt><trkpt lat="42.92434497029984" lon="13.577315414102578"><ele>705.8</ele><time>2026-03-22T10:16:13.999Z</time></trkpt><trkpt lat="42.924328167201" lon="13.577180912608485"><ele>703.0</ele><time>2026-03-22T10:16:14.999Z</time></trkpt><trkpt lat="42.92426910128285" lon="13.577043300811692"><ele>705.25</ele><time>2026-03-22T10:16:15.999Z</time></trkpt><trkpt lat="42.924207967021815" lon="13.576898780935617"><ele>707.5</ele><time>2026-03-22T10:16:16.999Z</time></trkpt><trkpt lat="42.924134607168206" lon="13.576770171220252"><ele>709.75</ele><time>2026-03-22T10:16:17.999Z</time></trkpt><trkpt lat="42.924087491246965" lon="13.57659093718482"><ele>712.0</ele><time>2026-03-22T10:16:18.999Z</time></trkpt><trkpt lat="42.924055340969545" lon="13.576394365332867"><ele>712.0</ele><time>2026-03-22T10:16:19.999Z</time></trkpt><trkpt lat="42.92400948526632" lon="13.576253496084645"><ele>712.0</ele><time>2026-03-22T10:16:20.999Z</time></trkpt><trkpt lat="42.924000970540874" lon="13.576155187500417"><ele>712.0</ele><time>2026-03-22T10:16:21.999Z</time></trkpt><trkpt lat="42.92395590319204" lon="13.576058187986762"><ele>712.0</ele><time>2026-03-22T10:16:22.999Z</time></trkpt><trkpt lat="42.92390581371465" lon="13.575941274354024"><ele>712.0</ele><time>2026-03-22T10:16:23.999Z</time></trkpt><trkpt lat="42.923842534954986" lon="13.575838218500978"><ele>712.75</ele><time>2026-03-22T10:16:24.999Z</time></trkpt><trkpt lat="42.92378970067792" lon="13.575720388166893"><ele>713.5</ele><time>2026-03-22T10:16:25.999Z</time></trkpt><trkpt lat="42.92375276994683" lon="13.575573119499412"><ele>714.25</ele><time>2026-03-22T10:16:26.999Z</time></trkpt><trkpt lat="42.92372485072697" lon="13.575393391096268"><ele>715.0</ele><time>2026-03-22T10:16:27.999Z</time></trkpt><trkpt lat="42.92367092288362" lon="13.575196232621341"><ele>717.75</ele><time>2026-03-22T10:16:28.999Z</time></trkpt><trkpt lat="42.923630868403116" lon="13.574984014017865"><ele>720.5</ele><time>2026-03-22T10:16:29.999Z</time></trkpt><trkpt lat="42.92359197402727" lon="13.574751306268668"><ele>723.25</ele><time>2026-03-22T10:16:30.999Z</time></trkpt><trkpt lat="42.923617774931984" lon="13.574667272478004"><ele>726.0</ele><time>2026-03-22T10:16:31.999Z</time></trkpt><trkpt lat="42.9236273995793" lon="13.574514774595045"><ele>728.75</ele><time>2026-03-22T10:16:32.999Z</time></trkpt><trkpt lat="42.92363019291119" lon="13.574300722561699"><ele>731.5</ele><time>2026-03-22T10:16:33.999Z</time></trkpt><trkpt lat="42.92362258534966" lon="13.574093955243248"><ele>734.25</ele><time>2026-03-22T10:16:34.999Z</time></trkpt><trkpt lat="42.9236279017002" lon="13.573948951893279"><ele>737.0</ele><time>2026-03-22T10:16:35.999Z</time></trkpt><trkpt lat="42.92363963385628" lon="13.57384038440041"><ele>737.0</ele><time>2026-03-22T10:16:36.999Z</time></trkpt><trkpt lat="42.923651983186744" lon="13.573750122435081"><ele>737.0</ele><time>2026-03-22T10:16:37.999Z</time></trkpt><trkpt lat="42.92364318179933" lon="13.573614792140086"><ele>737.0</ele><time>2026-03-22T10:16:38.999Z</time></trkpt><trkpt lat="42.92364951645796" lon="13.573454335517198"><ele>737.0</ele><time>2026-03-22T10:16:39.999Z</time></trkpt><trkpt lat="42.92365658314974" lon="13.573267550033867"><ele>737.0</ele><time>2026-03-22T10:16:40.999Z</time></trkpt><trkpt lat="42.92362923886309" lon="13.573085641508621"><ele>737.6666666666666</ele><time>2026-03-22T10:16:41.999Z</time></trkpt><trkpt lat="42.923592725165705" lon="13.572874983736764"><ele>738.3333333333334</ele><time>2026-03-22T10:16:42.999Z</time></trkpt><trkpt lat="42.92354605960186" lon="13.572667792987929"><ele>739.0</ele><time>2026-03-22T10:16:43.999Z</time></trkpt><trkpt lat="42.92349859807239" lon="13.572462007016146"><ele>741.0</ele><time>2026-03-22T10:16:44.999Z</time></trkpt><trkpt lat="42.92346325217363" lon="13.572247616467818"><ele>743.0</ele><time>2026-03-22T10:16:45.999Z</time></trkpt><trkpt lat="42.923443526800206" lon="13.572047546440256"><ele>745.0</ele><time>2026-03-22T10:16:46.999Z</time></trkpt><trkpt lat="42.923432035123376" lon="13.57188537606161"><ele>747.0</ele><time>2026-03-22T10:16:47.999Z</time></trkpt><trkpt lat="42.92343263577044" lon="13.571754965006916"><ele>747.3333333333334</ele><time>2026-03-22T10:16:48.998Z</time></trkpt><trkpt lat="42.92344017084645" lon="13.57164488775006"><ele>747.6666666666666</ele><time>2026-03-22T10:16:49.998Z</time></trkpt><trkpt lat="42.92342726095749" lon="13.571532554293645"><ele>748.0</ele><time>2026-03-22T10:16:50.998Z</time></trkpt><trkpt lat="42.923443197409235" lon="13.571433537609257"><ele>748.3333333333333</ele><time>2026-03-22T10:16:51.998Z</time></trkpt><trkpt lat="42.92343003904691" lon="13.571344863368521"><ele>748.6666666666666</ele><time>2026-03-22T10:16:52.998Z</time></trkpt><trkpt lat="42.923449311882095" lon="13.5711883754005"><ele>749.0</ele><time>2026-03-22T10:16:54.998Z</time></trkpt><trkpt lat="42.92359806241317" lon="13.571112966105268"><ele>750.4285714285714</ele><time>2026-03-22T10:16:56.998Z</time></trkpt><trkpt lat="42.92367057369154" lon="13.57108099217693"><ele>751.8571428571429</ele><time>2026-03-22T10:16:57.998Z</time></trkpt><trkpt lat="42.92373578604622" lon="13.57106163072774"><ele>753.2857142857142</ele><time>2026-03-22T10:16:58.998Z</time></trkpt><trkpt lat="42.92380163016214" lon="13.571042081627835"><ele>754.7142857142858</ele><time>2026-03-22T10:17:00.998Z</time></trkpt><trkpt lat="42.92384336918513" lon="13.570952317253582"><ele>756.1428571428571</ele><time>2026-03-22T10:17:05.998Z</time></trkpt><trkpt lat="42.92379561620497" lon="13.570854484447521"><ele>757.5714285714286</ele><time>2026-03-22T10:17:06.998Z</time></trkpt><trkpt lat="42.923743321129386" lon="13.5707850992818"><ele>759.0</ele><time>2026-03-22T10:17:07.998Z</time></trkpt><trkpt lat="42.92370756522335" lon="13.570692718181942"><ele>759.0</ele><time>2026-03-22T10:17:08.998Z</time></trkpt><trkpt lat="42.92367788225313" lon="13.570601868056839"><ele>759.0</ele><time>2026-03-22T10:17:09.998Z</time></trkpt><trkpt lat="42.92363514717032" lon="13.570411518972586"><ele>759.0</ele><time>2026-03-22T10:17:12Z</time></trkpt><trkpt lat="42.92360896145421" lon="13.570294015478806"><ele>759.0</ele><time>2026-03-22T10:17:13Z</time></trkpt><trkpt lat="42.92358920514375" lon="13.570205362759479"><ele>759.0</ele><time>2026-03-22T10:17:14Z</time></trkpt><trkpt lat="42.92353045444254" lon="13.570088122626002"><ele>762.6</ele><time>2026-03-22T10:17:15Z</time></trkpt><trkpt lat="42.923512169442716" lon="13.569957719808741"><ele>766.2</ele><time>2026-03-22T10:17:16Z</time></trkpt><trkpt lat="42.923484261580484" lon="13.569831602938121"><ele>769.8000000000001</ele><time>2026-03-22T10:17:17Z</time></trkpt><trkpt lat="42.92343939481792" lon="13.569743590052404"><ele>773.4000000000001</ele><time>2026-03-22T10:17:18Z</time></trkpt><trkpt lat="42.92339406850344" lon="13.569638284576289"><ele>777.0</ele><time>2026-03-22T10:17:19Z</time></trkpt><trkpt lat="42.92334312912515" lon="13.569519548194027"><ele>780.1666666666666</ele><time>2026-03-22T10:17:20Z</time></trkpt><trkpt lat="42.9233003874918" lon="13.569417386452987"><ele>783.3333333333333</ele><time>2026-03-22T10:17:21Z</time></trkpt><trkpt lat="42.92326493055371" lon="13.569344511288506"><ele>786.5</ele><time>2026-03-22T10:17:22Z</time></trkpt><trkpt lat="42.92325671183549" lon="13.569162198590417"><ele>789.6666666666666</ele><time>2026-03-22T10:17:24Z</time></trkpt><trkpt lat="42.92326342820722" lon="13.56905923004859"><ele>792.8333333333333</ele><time>2026-03-22T10:17:25Z</time></trkpt><trkpt lat="42.92325109378755" lon="13.568960997603208"><ele>796.0</ele><time>2026-03-22T10:17:26Z</time></trkpt><trkpt lat="42.923215763038" lon="13.56886987077362"><ele>796.0</ele><time>2026-03-22T10:17:27Z</time></trkpt><trkpt lat="42.923180354209336" lon="13.568766101710168"><ele>796.0</ele><time>2026-03-22T10:17:28Z</time></trkpt><trkpt lat="42.9231660852501" lon="13.568581520697261"><ele>796.0</ele><time>2026-03-22T10:17:30Z</time></trkpt><trkpt lat="42.92317713509999" lon="13.568464229081313"><ele>796.0</ele><time>2026-03-22T10:17:31Z</time></trkpt><trkpt lat="42.923183474905" lon="13.56833145954545"><ele>796.0</ele><time>2026-03-22T10:17:32Z</time></trkpt><trkpt lat="42.92317876827691" lon="13.568204437113078"><ele>798.3333333333333</ele><time>2026-03-22T10:17:33Z</time></trkpt><trkpt lat="42.92316419586499" lon="13.568070243689634"><ele>800.6666666666666</ele><time>2026-03-22T10:17:34Z</time></trkpt><trkpt lat="42.92313693903785" lon="13.567942422677877"><ele>803.0</ele><time>2026-03-22T10:17:35Z</time></trkpt><trkpt lat="42.92310963460186" lon="13.567835990538278"><ele>805.3333333333333</ele><time>2026-03-22T10:17:36Z</time></trkpt><trkpt lat="42.92309846372749" lon="13.567744497665425"><ele>807.6666666666666</ele><time>2026-03-22T10:17:37Z</time></trkpt><trkpt lat="42.923095355893324" lon="13.567657630143328"><ele>810.0</ele><time>2026-03-22T10:17:38Z</time></trkpt><trkpt lat="42.92311200810906" lon="13.567563497017613"><ele>810.6</ele><time>2026-03-22T10:17:39Z</time></trkpt><trkpt lat="42.923140408459396" lon="13.567454408163588"><ele>811.2</ele><time>2026-03-22T10:17:40Z</time></trkpt><trkpt lat="42.92317721280774" lon="13.567330538610937"><ele>811.8</ele><time>2026-03-22T10:17:41Z</time></trkpt><trkpt lat="42.92317660861754" lon="13.567191895101853"><ele>812.4</ele><time>2026-03-22T10:17:42Z</time></trkpt><trkpt lat="42.92315479054522" lon="13.567069095466922"><ele>813.0</ele><time>2026-03-22T10:17:43Z</time></trkpt><trkpt lat="42.92312236922822" lon="13.566943793269406"><ele>813.0</ele><time>2026-03-22T10:17:44Z</time></trkpt><trkpt lat="42.92309722751401" lon="13.566837796297836"><ele>813.0</ele><time>2026-03-22T10:17:45Z</time></trkpt><trkpt lat="42.92305164354932" lon="13.566678674253447"><ele>813.0</ele><time>2026-03-22T10:17:47Z</time></trkpt><trkpt lat="42.92303364754022" lon="13.566573899295854"><ele>813.0</ele><time>2026-03-22T10:17:48Z</time></trkpt><trkpt lat="42.92302373973858" lon="13.566471245837214"><ele>813.0</ele><time>2026-03-22T10:17:49Z</time></trkpt><trkpt lat="42.92300720904527" lon="13.566385260911668"><ele>813.0</ele><time>2026-03-22T10:17:50Z</time></trkpt><trkpt lat="42.922975744517764" lon="13.56627983963269"><ele>812.8333333333334</ele><time>2026-03-22T10:17:51Z</time></trkpt><trkpt lat="42.92292986897325" lon="13.566122985565784"><ele>812.6666666666667</ele><time>2026-03-22T10:17:53Z</time></trkpt><trkpt lat="42.922874978716045" lon="13.56603889362258"><ele>812.5</ele><time>2026-03-22T10:17:54Z</time></trkpt><trkpt lat="42.92283351721366" lon="13.565959898040665"><ele>812.3333333333334</ele><time>2026-03-22T10:17:55Z</time></trkpt><trkpt lat="42.92277952476801" lon="13.565874412147412"><ele>812.1666666666667</ele><time>2026-03-22T10:17:56Z</time></trkpt><trkpt lat="42.92273148872833" lon="13.56579988900934"><ele>812.0</ele><time>2026-03-22T10:17:56.999Z</time></trkpt><trkpt lat="42.922667876418615" lon="13.565742663081565"><ele>812.0000000000001</ele><time>2026-03-22T10:17:57.999Z</time></trkpt><trkpt lat="42.92260182946972" lon="13.565716700824092"><ele>812.0</ele><time>2026-03-22T10:17:58.999Z</time></trkpt><trkpt lat="42.92250932420789" lon="13.56568591605367"><ele>812.0</ele><time>2026-03-22T10:17:59.999Z</time></trkpt><trkpt lat="42.92244162151048" lon="13.565641388036786"><ele>812.0</ele><time>2026-03-22T10:18:00.999Z</time></trkpt><trkpt lat="42.922389510600794" lon="13.565581165045952"><ele>812.0000000000001</ele><time>2026-03-22T10:18:01.999Z</time></trkpt><trkpt lat="42.922345072170096" lon="13.565485917735222"><ele>812.0</ele><time>2026-03-22T10:18:02.999Z</time></trkpt><trkpt lat="42.92229931880464" lon="13.56536286787054"><ele>816.8333333333334</ele><time>2026-03-22T10:18:03.999Z</time></trkpt><trkpt lat="42.92224460029134" lon="13.565272585430533"><ele>821.6666666666667</ele><time>2026-03-22T10:18:04.999Z</time></trkpt><trkpt lat="42.9221915007932" lon="13.565225428114358"><ele>826.5</ele><time>2026-03-22T10:18:05.999Z</time></trkpt><trkpt lat="42.922107991117805" lon="13.565179234954481"><ele>831.3333333333333</ele><time>2026-03-22T10:18:07.999Z</time></trkpt><trkpt lat="42.922047396497035" lon="13.565142338807446"><ele>836.1666666666666</ele><time>2026-03-22T10:18:09.999Z</time></trkpt><trkpt lat="42.92200559885505" lon="13.565041790233234"><ele>841.0</ele><time>2026-03-22T10:18:11.999Z</time></trkpt><trkpt lat="42.92199918321331" lon="13.564955673262114"><ele>840.9999999999999</ele><time>2026-03-22T10:18:13.999Z</time></trkpt><trkpt lat="42.92195782559847" lon="13.564854921677439"><ele>841.0</ele><time>2026-03-22T10:18:15.999Z</time></trkpt><trkpt lat="42.921906460140264" lon="13.564801231373389"><ele>841.0</ele><time>2026-03-22T10:22:54.999Z</time></trkpt><trkpt lat="42.921870062588376" lon="13.564718716402416"><ele>841.0</ele><time>2026-03-22T10:22:56.999Z</time></trkpt><trkpt lat="42.92181404698897" lon="13.564601632018118"><ele>840.9999999999999</ele><time>2026-03-22T10:22:58.999Z</time></trkpt><trkpt lat="42.92175742254022" lon="13.564490620001742"><ele>841.0</ele><time>2026-03-22T10:23:00.998Z</time></trkpt><trkpt lat="42.92172143680024" lon="13.564417500636374"><ele>843.8333333333333</ele><time>2026-03-22T10:23:01.998Z</time></trkpt><trkpt lat="42.92167546083023" lon="13.564326122451144"><ele>846.6666666666666</ele><time>2026-03-22T10:23:02.998Z</time></trkpt><trkpt lat="42.921644566871095" lon="13.564238834928032"><ele>849.5</ele><time>2026-03-22T10:23:03.998Z</time></trkpt><trkpt lat="42.92163190316762" lon="13.564154335180122"><ele>852.3333333333333</ele><time>2026-03-22T10:23:04.998Z</time></trkpt><trkpt lat="42.92160983482396" lon="13.56406801619486"><ele>855.1666666666666</ele><time>2026-03-22T10:23:05.998Z</time></trkpt><trkpt lat="42.92158968609932" lon="13.563960624483409"><ele>858.0</ele><time>2026-03-22T10:23:06.998Z</time></trkpt><trkpt lat="42.92156532404728" lon="13.563846930530508"><ele>858.0</ele><time>2026-03-22T10:23:08.998Z</time></trkpt><trkpt lat="42.9214708296977" lon="13.563790959735297"><ele>858.0</ele><time>2026-03-22T10:23:10.998Z</time></trkpt><trkpt lat="42.9213902539025" lon="13.563725682773832"><ele>858.0</ele><time>2026-03-22T10:23:12.998Z</time></trkpt><trkpt lat="42.92131458855069" lon="13.563638144992026"><ele>858.0</ele><time>2026-03-22T10:23:14.998Z</time></trkpt><trkpt lat="42.92127180081833" lon="13.563565698456149"><ele>858.0</ele><time>2026-03-22T10:23:15.998Z</time></trkpt><trkpt lat="42.921213330695764" lon="13.563529885901463"><ele>858.0</ele><time>2026-03-22T10:23:16.998Z</time></trkpt><trkpt lat="42.92114303897342" lon="13.563489626022996"><ele>863.5</ele><time>2026-03-22T10:23:17.998Z</time></trkpt><trkpt lat="42.921035287808635" lon="13.563392963066828"><ele>869.0</ele><time>2026-03-22T10:23:19.998Z</time></trkpt><trkpt lat="42.92097484822594" lon="13.563328883138809"><ele>874.5</ele><time>2026-03-22T10:23:20.998Z</time></trkpt><trkpt lat="42.920924489706316" lon="13.563225181562387"><ele>880.0</ele><time>2026-03-22T10:23:22.998Z</time></trkpt><trkpt lat="42.92089671145315" lon="13.563124265636404"><ele>885.5</ele><time>2026-03-22T10:23:26.998Z</time></trkpt><trkpt lat="42.920946496669664" lon="13.563060218209495"><ele>891.0</ele><time>2026-03-22T10:23:30.999Z</time></trkpt><trkpt lat="42.92103701227327" lon="13.563021985818967"><ele>891.1999999999999</ele><time>2026-03-22T10:23:32.999Z</time></trkpt><trkpt lat="42.92112473390667" lon="13.562921591791499"><ele>891.3999999999999</ele><time>2026-03-22T10:23:34.999Z</time></trkpt><trkpt lat="42.921229280002095" lon="13.562874627155471"><ele>891.6</ele><time>2026-03-22T10:23:36.999Z</time></trkpt><trkpt lat="42.92134313397191" lon="13.562848004421664"><ele>891.8</ele><time>2026-03-22T10:23:38.999Z</time></trkpt><trkpt lat="42.921416206811024" lon="13.562778933016858"><ele>892.0</ele><time>2026-03-22T10:23:40.999Z</time></trkpt><trkpt lat="42.92150394335528" lon="13.5626948148505"><ele>895.4999999999999</ele><time>2026-03-22T10:23:42.999Z</time></trkpt><trkpt lat="42.921597854578664" lon="13.562632773448954"><ele>899.0</ele><time>2026-03-22T10:23:44.999Z</time></trkpt><trkpt lat="42.921678337717154" lon="13.562577636269733"><ele>902.5</ele><time>2026-03-22T10:23:46.999Z</time></trkpt><trkpt lat="42.92173286063319" lon="13.562526211785343"><ele>906.0</ele><time>2026-03-22T10:23:47.999Z</time></trkpt><trkpt lat="42.92179757120731" lon="13.562466252635637"><ele>909.4999999999999</ele><time>2026-03-22T10:23:48.999Z</time></trkpt><trkpt lat="42.92185485578215" lon="13.562399680738032"><ele>913.0</ele><time>2026-03-22T10:23:49.999Z</time></trkpt><trkpt lat="42.921908490722664" lon="13.562278553093586"><ele>912.9999999999999</ele><time>2026-03-22T10:23:51.999Z</time></trkpt><trkpt lat="42.921942621240426" lon="13.562203174429253"><ele>913.0</ele><time>2026-03-22T10:23:52.999Z</time></trkpt><trkpt lat="42.921993955944664" lon="13.562054020100392"><ele>913.0</ele><time>2026-03-22T10:23:54.999Z</time></trkpt><trkpt lat="42.92200846866113" lon="13.56192060889866"><ele>913.0</ele><time>2026-03-22T10:23:56.999Z</time></trkpt><trkpt lat="42.92204799627928" lon="13.56179920100396"><ele>912.9999999999999</ele><time>2026-03-22T10:23:58.999Z</time></trkpt><trkpt lat="42.92208494315329" lon="13.56172165470906"><ele>913.0</ele><time>2026-03-22T10:23:59.999Z</time></trkpt><trkpt lat="42.92213217259155" lon="13.561651339976732"><ele>918.8</ele><time>2026-03-22T10:24:00.999Z</time></trkpt><trkpt lat="42.922214399295484" lon="13.561524842835254"><ele>924.5999999999999</ele><time>2026-03-22T10:24:02.999Z</time></trkpt><trkpt lat="42.922279476603634" lon="13.561387760094334"><ele>930.4000000000001</ele><time>2026-03-22T10:24:04.999Z</time></trkpt><trkpt lat="42.92230742163245" lon="13.561256209430326"><ele>936.2</ele><time>2026-03-22T10:24:06.999Z</time></trkpt><trkpt lat="42.92236296329823" lon="13.561154770267105"><ele>942.0</ele><time>2026-03-22T10:24:08.999Z</time></trkpt><trkpt lat="42.92240346402242" lon="13.561028360374447"><ele>944.6</ele><time>2026-03-22T10:24:10.999Z</time></trkpt><trkpt lat="42.922420598707546" lon="13.560930673220254"><ele>947.2</ele><time>2026-03-22T10:24:11.999Z</time></trkpt><trkpt lat="42.92243146878409" lon="13.560782112806205"><ele>949.8</ele><time>2026-03-22T10:24:13.999Z</time></trkpt><trkpt lat="42.92241236305194" lon="13.560646978619422"><ele>952.4</ele><time>2026-03-22T10:24:15.999Z</time></trkpt><trkpt lat="42.922370538869664" lon="13.560505088097154"><ele>955.0</ele><time>2026-03-22T10:24:17.999Z</time></trkpt><trkpt lat="42.922293565917755" lon="13.560371256635289"><ele>956.8333333333333</ele><time>2026-03-22T10:24:19.999Z</time></trkpt><trkpt lat="42.92223639140171" lon="13.56025522830034"><ele>958.6666666666666</ele><time>2026-03-22T10:24:21.999Z</time></trkpt><trkpt lat="42.92222603463402" lon="13.560164012861383"><ele>960.5</ele><time>2026-03-22T10:24:22.999Z</time></trkpt><trkpt lat="42.9222216532628" lon="13.560061733930882"><ele>962.3333333333333</ele><time>2026-03-22T10:24:23.999Z</time></trkpt><trkpt lat="42.92224842509336" lon="13.559955826634749"><ele>964.1666666666666</ele><time>2026-03-22T10:24:24.999Z</time></trkpt><trkpt lat="42.92227838124529" lon="13.559827962089159"><ele>966.0</ele><time>2026-03-22T10:24:25.999Z</time></trkpt><trkpt lat="42.922306848207434" lon="13.559737487735129"><ele>966.0</ele><time>2026-03-22T10:24:26.999Z</time></trkpt><trkpt lat="42.92233959982595" lon="13.559641587419087"><ele>966.0</ele><time>2026-03-22T10:24:27.999Z</time></trkpt><trkpt lat="42.92237774065928" lon="13.559554125279428"><ele>966.0</ele><time>2026-03-22T10:24:28.999Z</time></trkpt><trkpt lat="42.92240128891495" lon="13.559451091377918"><ele>966.0</ele><time>2026-03-22T10:24:29.999Z</time></trkpt><trkpt lat="42.922475301523015" lon="13.559362555450287"><ele>966.0</ele><time>2026-03-22T10:24:31.999Z</time></trkpt><trkpt lat="42.92249128418704" lon="13.559255288788417"><ele>966.0</ele><time>2026-03-22T10:24:33.999Z</time></trkpt><trkpt lat="42.922519065913185" lon="13.559094996458922"><ele>964.0</ele><time>2026-03-22T10:24:35.999Z</time></trkpt><trkpt lat="42.922559546992325" lon="13.558948790638752"><ele>961.9999999999999</ele><time>2026-03-22T10:24:37.999Z</time></trkpt><trkpt lat="42.92256753860747" lon="13.558807609404747"><ele>959.9999999999999</ele><time>2026-03-22T10:24:39.999Z</time></trkpt><trkpt lat="42.92255426407083" lon="13.558710626404075"><ele>958.0</ele><time>2026-03-22T10:24:40.999Z</time></trkpt><trkpt lat="42.92254553873273" lon="13.558552530734476"><ele>956.0</ele><time>2026-03-22T10:24:42.999Z</time></trkpt><trkpt lat="42.922584297038824" lon="13.558419089032691"><ele>963.0</ele><time>2026-03-22T10:24:44.999Z</time></trkpt><trkpt lat="42.9226225983021" lon="13.558348063496762"><ele>969.9999999999999</ele><time>2026-03-22T10:24:45.999Z</time></trkpt><trkpt lat="42.92269895428163" lon="13.558212750606154"><ele>976.9999999999999</ele><time>2026-03-22T10:24:47.998Z</time></trkpt><trkpt lat="42.9228232511292" lon="13.558106198674897"><ele>984.0</ele><time>2026-03-22T10:24:49.998Z</time></trkpt><trkpt lat="42.9229016289016" lon="13.558048639663644"><ele>991.0</ele><time>2026-03-22T10:24:50.998Z</time></trkpt><trkpt lat="42.92296982713322" lon="13.558010582108162"><ele>990.9999999999999</ele><time>2026-03-22T10:24:51.998Z</time></trkpt><trkpt lat="42.92290528291937" lon="13.558006662755455"><ele>991.0</ele><time>2026-03-22T10:29:06.999Z</time></trkpt><trkpt lat="42.92296747393477" lon="13.557910305761247"><ele>991.0</ele><time>2026-03-22T10:29:10.999Z</time></trkpt><trkpt lat="42.92303701392059" lon="13.557826690009193"><ele>991.0</ele><time>2026-03-22T10:29:12.999Z</time></trkpt><trkpt lat="42.92306759665691" lon="13.557749897836532"><ele>990.9999999999999</ele><time>2026-03-22T10:29:14.999Z</time></trkpt><trkpt lat="42.923010727672725" lon="13.557857690688277"><ele>991.0</ele><time>2026-03-22T10:29:18.999Z</time></trkpt><trkpt lat="42.92298068457822" lon="13.557937218492674"><ele>990.9999999999999</ele><time>2026-03-22T10:29:20.999Z</time></trkpt><trkpt lat="42.9229278104988" lon="13.557996274598734"><ele>991.0</ele><time>2026-03-22T10:29:53.001Z</time></trkpt><trkpt lat="42.92288662230382" lon="13.55807272802361"><ele>991.0</ele><time>2026-03-22T10:30:52.999Z</time></trkpt><trkpt lat="42.92279226699442" lon="13.558178958195297"><ele>991.0</ele><time>2026-03-22T10:32:37Z</time></trkpt><trkpt lat="42.922871334107626" lon="13.558187767463433"><ele>990.9999999999999</ele><time>2026-03-22T10:35:05.999Z</time></trkpt><trkpt lat="42.92292552370357" lon="13.55812310324899"><ele>991.0</ele><time>2026-03-22T10:35:07.999Z</time></trkpt><trkpt lat="42.922981502346985" lon="13.558049735955953"><ele>990.9999999999999</ele><time>2026-03-22T10:35:09.999Z</time></trkpt><trkpt lat="42.92291434150011" lon="13.55807831719537"><ele>991.0</ele><time>2026-03-22T10:37:02.999Z</time></trkpt><trkpt lat="42.92284886079141" lon="13.558122933576598"><ele>991.0</ele><time>2026-03-22T10:37:47.998Z</time></trkpt><trkpt lat="42.922806719184365" lon="13.558200128143465"><ele>991.0</ele><time>2026-03-22T10:38:00.998Z</time></trkpt><trkpt lat="42.922846066050596" lon="13.558116919251605"><ele>990.9999999999999</ele><time>2026-03-22T10:40:43Z</time></trkpt><trkpt lat="42.922932077407374" lon="13.558036190944893"><ele>991.0</ele><time>2026-03-22T10:40:59Z</time></trkpt><trkpt lat="42.923000236807596" lon="13.557997223712947"><ele>991.0000000000001</ele><time>2026-03-22T10:41:07.999Z</time></trkpt><trkpt lat="42.92306142075898" lon="13.55795352852498"><ele>991.0</ele><time>2026-03-22T10:41:19.999Z</time></trkpt><trkpt lat="42.923107679073475" lon="13.557885062767367"><ele>991.0000000000001</ele><time>2026-03-22T10:41:28.999Z</time></trkpt><trkpt lat="42.923138271003836" lon="13.55780268629654"><ele>991.0000000000001</ele><time>2026-03-22T10:41:38.999Z</time></trkpt><trkpt lat="42.92313701623679" lon="13.557705579223574"><ele>991.0</ele><time>2026-03-22T10:41:47.999Z</time></trkpt><trkpt lat="42.923176792734544" lon="13.557634943513571"><ele>991.0000000000001</ele><time>2026-03-22T10:41:54.998Z</time></trkpt><trkpt lat="42.92323288294714" lon="13.55756657437975"><ele>991.0000000000001</ele><time>2026-03-22T10:42:02.998Z</time></trkpt><trkpt lat="42.92328531375022" lon="13.557516615470366"><ele>992.4285714285716</ele><time>2026-03-22T10:42:09.998Z</time></trkpt><trkpt lat="42.92335151931823" lon="13.557486575156652"><ele>993.8571428571429</ele><time>2026-03-22T10:42:14.998Z</time></trkpt><trkpt lat="42.92341221194837" lon="13.557452927205615"><ele>995.2857142857143</ele><time>2026-03-22T10:42:21.998Z</time></trkpt><trkpt lat="42.923477344505265" lon="13.557411149906786"><ele>996.7142857142858</ele><time>2026-03-22T10:42:29Z</time></trkpt><trkpt lat="42.92354034640319" lon="13.557397481888545"><ele>998.1428571428571</ele><time>2026-03-22T10:42:36Z</time></trkpt><trkpt lat="42.923601314069366" lon="13.55734777272399"><ele>999.5714285714286</ele><time>2026-03-22T10:42:42Z</time></trkpt><trkpt lat="42.92365331326229" lon="13.557277948664547"><ele>1001.0</ele><time>2026-03-22T10:42:50Z</time></trkpt><trkpt lat="42.923696671646354" lon="13.557214047306259"><ele>1001.0</ele><time>2026-03-22T10:43:00Z</time></trkpt><trkpt lat="42.923736701162056" lon="13.557139152141517"><ele>1001.0</ele><time>2026-03-22T10:43:08.999Z</time></trkpt><trkpt lat="42.923753813872345" lon="13.557048725208771"><ele>1001.0</ele><time>2026-03-22T10:43:15.999Z</time></trkpt><trkpt lat="42.923811555150905" lon="13.55698329239124"><ele>1001.0</ele><time>2026-03-22T10:43:23.999Z</time></trkpt><trkpt lat="42.92386503562179" lon="13.55689479740649"><ele>1001.0</ele><time>2026-03-22T10:44:16.998Z</time></trkpt><trkpt lat="42.9239049872141" lon="13.556824788105644"><ele>1001.0</ele><time>2026-03-22T10:44:23.998Z</time></trkpt><trkpt lat="42.923947034103065" lon="13.556757967612304"><ele>1001.0</ele><time>2026-03-22T10:44:36Z</time></trkpt><trkpt lat="42.92399235535249" lon="13.55669817580609"><ele>1003.2857142857142</ele><time>2026-03-22T10:44:47Z</time></trkpt><trkpt lat="42.92404600621839" lon="13.556651326295235"><ele>1005.5714285714286</ele><time>2026-03-22T10:44:54Z</time></trkpt><trkpt lat="42.924109110813994" lon="13.556589408070934"><ele>1007.8571428571429</ele><time>2026-03-22T10:45:06Z</time></trkpt><trkpt lat="42.92414389163828" lon="13.556513857970087"><ele>1010.1428571428571</ele><time>2026-03-22T10:45:22.999Z</time></trkpt><trkpt lat="42.92416824992726" lon="13.556430735878738"><ele>1012.4285714285713</ele><time>2026-03-22T10:46:37Z</time></trkpt><trkpt lat="42.9242115878199" lon="13.556336945196481"><ele>1014.7142857142857</ele><time>2026-03-22T10:46:53Z</time></trkpt><trkpt lat="42.92426687745069" lon="13.556278803530745"><ele>1017.0</ele><time>2026-03-22T10:47:01Z</time></trkpt><trkpt lat="42.92432361121286" lon="13.556228025913066"><ele>1021.1666666666666</ele><time>2026-03-22T10:47:08Z</time></trkpt><trkpt lat="42.92438129554696" lon="13.556190664872977"><ele>1025.3333333333333</ele><time>2026-03-22T10:47:18.999Z</time></trkpt><trkpt lat="42.92448111651029" lon="13.556085885421567"><ele>1029.5</ele><time>2026-03-22T10:47:43.999Z</time></trkpt><trkpt lat="42.92452619653263" lon="13.556018771282874"><ele>1033.6666666666665</ele><time>2026-03-22T10:47:49.999Z</time></trkpt><trkpt lat="42.92446725358599" lon="13.556080018505941"><ele>1037.8333333333333</ele><time>2026-03-22T10:48:07.998Z</time></trkpt><trkpt lat="42.92444275640616" lon="13.55617616471459"><ele>1042.0</ele><time>2026-03-22T10:48:18.998Z</time></trkpt><trkpt lat="42.9244376543392" lon="13.556088022325872"><ele>1042.0</ele><time>2026-03-22T10:48:51Z</time></trkpt><trkpt lat="42.9244276046925" lon="13.556202322601713"><ele>1042.0</ele><time>2026-03-22T10:49:42.999Z</time></trkpt><trkpt lat="42.92436179754129" lon="13.556205495919341"><ele>1042.0</ele><time>2026-03-22T10:52:36.998Z</time></trkpt><trkpt lat="42.92429316365763" lon="13.556247485081705"><ele>1042.0</ele><time>2026-03-22T10:52:56Z</time></trkpt><trkpt lat="42.92423732015699" lon="13.556288293198987"><ele>1042.0</ele><time>2026-03-22T10:53:03Z</time></trkpt><trkpt lat="42.92418629321854" lon="13.556344696194575"><ele>1042.0</ele><time>2026-03-22T10:53:09Z</time></trkpt><trkpt lat="42.92416428226795" lon="13.556432862971155"><ele>1042.0</ele><time>2026-03-22T10:53:17Z</time></trkpt><trkpt lat="42.924187516982684" lon="13.556517463876075"><ele>1042.857142857143</ele><time>2026-03-22T10:54:37.998Z</time></trkpt><trkpt lat="42.92413289058916" lon="13.55660917468849"><ele>1043.7142857142858</ele><time>2026-03-22T10:55:12Z</time></trkpt><trkpt lat="42.92409784589838" lon="13.556704550153407"><ele>1044.5714285714287</ele><time>2026-03-22T10:55:38Z</time></trkpt><trkpt lat="42.92408296252421" lon="13.556595294084943"><ele>1045.4285714285716</ele><time>2026-03-22T10:56:57.998Z</time></trkpt><trkpt lat="42.92402584581703" lon="13.556636624787265"><ele>1046.2857142857144</ele><time>2026-03-22T10:57:16Z</time></trkpt><trkpt lat="42.924001222053214" lon="13.556720478172657"><ele>1047.142857142857</ele><time>2026-03-22T10:57:22Z</time></trkpt><trkpt lat="42.92394207173794" lon="13.556776088679415"><ele>1048.0</ele><time>2026-03-22T10:57:28Z</time></trkpt><trkpt lat="42.92384423678683" lon="13.55693285062564"><ele>1048.0</ele><time>2026-03-22T10:57:40Z</time></trkpt><trkpt lat="42.92380399432624" lon="13.557014014213042"><ele>1048.0</ele><time>2026-03-22T10:57:45Z</time></trkpt><trkpt lat="42.92392006709047" lon="13.556958680961651"><ele>1048.0</ele><time>2026-03-22T11:01:58.999Z</time></trkpt><trkpt lat="42.923855591660704" lon="13.556967498076506"><ele>1048.0</ele><time>2026-03-22T11:08:17.999Z</time></trkpt><trkpt lat="42.92379810434739" lon="13.557007670690608"><ele>1048.0</ele><time>2026-03-22T11:10:03.999Z</time></trkpt><trkpt lat="42.92388353952188" lon="13.557054812122793"><ele>1048.0</ele><time>2026-03-22T11:13:02.999Z</time></trkpt><trkpt lat="42.92394470620737" lon="13.557030229481507"><ele>1048.0</ele><time>2026-03-22T11:13:04.999Z</time></trkpt><trkpt lat="42.92401228234916" lon="13.557017499400452"><ele>1048.0</ele><time>2026-03-22T11:13:06.999Z</time></trkpt><trkpt lat="42.92407733239466" lon="13.557006129423803"><ele>1048.0</ele><time>2026-03-22T11:13:08.999Z</time></trkpt><trkpt lat="42.92418108133853" lon="13.557000953189567"><ele>1048.0</ele><time>2026-03-22T11:13:10.999Z</time></trkpt><trkpt lat="42.924252673323565" lon="13.556932661355617"><ele>1048.0</ele><time>2026-03-22T11:13:12.999Z</time></trkpt><trkpt lat="42.924301988745746" lon="13.556796544865549"><ele>1048.0</ele><time>2026-03-22T11:13:14.999Z</time></trkpt><trkpt lat="42.92438117356154" lon="13.55669886931243"><ele>1041.8</ele><time>2026-03-22T11:13:16.999Z</time></trkpt><trkpt lat="42.92446419386294" lon="13.556689803177182"><ele>1035.6</ele><time>2026-03-22T11:13:18.999Z</time></trkpt><trkpt lat="42.92455085478475" lon="13.556684300662793"><ele>1029.4</ele><time>2026-03-22T11:13:20.999Z</time></trkpt><trkpt lat="42.92462292860509" lon="13.556596812433805"><ele>1023.2</ele><time>2026-03-22T11:13:22.999Z</time></trkpt><trkpt lat="42.92469552859984" lon="13.556450119599623"><ele>1017.0</ele><time>2026-03-22T11:13:24.999Z</time></trkpt><trkpt lat="42.92475843750992" lon="13.556312164622154"><ele>1017.0</ele><time>2026-03-22T11:13:26.999Z</time></trkpt><trkpt lat="42.9247802090777" lon="13.556227947794518"><ele>1017.0</ele><time>2026-03-22T11:13:27.999Z</time></trkpt><trkpt lat="42.924804027646154" lon="13.556074911123199"><ele>1017.0</ele><time>2026-03-22T11:13:29.999Z</time></trkpt><trkpt lat="42.92479667609664" lon="13.555982135311481"><ele>1017.0</ele><time>2026-03-22T11:13:30.999Z</time></trkpt><trkpt lat="42.924793197076276" lon="13.555805387070356"><ele>1017.0</ele><time>2026-03-22T11:13:32.999Z</time></trkpt><trkpt lat="42.92483576946045" lon="13.55567896439747"><ele>1021.1666666666666</ele><time>2026-03-22T11:13:34.999Z</time></trkpt><trkpt lat="42.92487011000946" lon="13.555576428467504"><ele>1025.3333333333333</ele><time>2026-03-22T11:13:36.999Z</time></trkpt><trkpt lat="42.92488085086727" lon="13.555490323261614"><ele>1029.5</ele><time>2026-03-22T11:13:37.999Z</time></trkpt><trkpt lat="42.92488628740222" lon="13.555394137328427"><ele>1033.6666666666665</ele><time>2026-03-22T11:13:38.999Z</time></trkpt><trkpt lat="42.92489569152289" lon="13.55528465022735"><ele>1037.8333333333333</ele><time>2026-03-22T11:13:39.999Z</time></trkpt><trkpt lat="42.92492513939088" lon="13.555194296713454"><ele>1042.0</ele><time>2026-03-22T11:13:40.998Z</time></trkpt><trkpt lat="42.92496559425953" lon="13.555095785720855"><ele>1042.8333333333333</ele><time>2026-03-22T11:13:41.998Z</time></trkpt><trkpt lat="42.9249893053664" lon="13.555006471793089"><ele>1043.6666666666665</ele><time>2026-03-22T11:13:42.998Z</time></trkpt><trkpt lat="42.92499228456889" lon="13.554871198540368"><ele>1044.5</ele><time>2026-03-22T11:13:44.998Z</time></trkpt><trkpt lat="42.92501737038634" lon="13.554736882938299"><ele>1045.3333333333333</ele><time>2026-03-22T11:14:39Z</time></trkpt><trkpt lat="42.92499965699041" lon="13.55461459703667"><ele>1046.1666666666667</ele><time>2026-03-22T11:14:41Z</time></trkpt><trkpt lat="42.924988806992914" lon="13.554516159900585"><ele>1047.0</ele><time>2026-03-22T11:14:43Z</time></trkpt><trkpt lat="42.924947474914134" lon="13.554369064222037"><ele>1047.0</ele><time>2026-03-22T11:14:45Z</time></trkpt><trkpt lat="42.92486541535079" lon="13.554306214497513"><ele>1047.0</ele><time>2026-03-22T11:14:47Z</time></trkpt><trkpt lat="42.924774106186824" lon="13.554362693221874"><ele>1047.0</ele><time>2026-03-22T11:14:49Z</time></trkpt><trkpt lat="42.92476864542698" lon="13.554473879925188"><ele>1047.0</ele><time>2026-03-22T11:14:51Z</time></trkpt><trkpt lat="42.92480364803179" lon="13.554638396553852"><ele>1047.0</ele><time>2026-03-22T11:14:53Z</time></trkpt><trkpt lat="42.92481719884113" lon="13.554729451072616"><ele>1047.6</ele><time>2026-03-22T11:14:54Z</time></trkpt><trkpt lat="42.92471562006153" lon="13.554824398038715"><ele>1048.2</ele><time>2026-03-22T11:14:55Z</time></trkpt><trkpt lat="42.92468079188347" lon="13.554937000842273"><ele>1048.8</ele><time>2026-03-22T11:14:56Z</time></trkpt><trkpt lat="42.92463861322471" lon="13.555055880368299"><ele>1049.4</ele><time>2026-03-22T11:14:56.999Z</time></trkpt><trkpt lat="42.924585510990966" lon="13.555190431286633"><ele>1050.0</ele><time>2026-03-22T11:14:57.999Z</time></trkpt><trkpt lat="42.92453762026156" lon="13.555294900473886"><ele>1048.4</ele><time>2026-03-22T11:14:58.999Z</time></trkpt><trkpt lat="42.92449784414044" lon="13.555371304303392"><ele>1046.8</ele><time>2026-03-22T11:14:59.999Z</time></trkpt><trkpt lat="42.92444020531104" lon="13.555442788283136"><ele>1045.2</ele><time>2026-03-22T11:15:01.999Z</time></trkpt><trkpt lat="42.924324662188496" lon="13.555461183122372"><ele>1043.6</ele><time>2026-03-22T11:15:03.999Z</time></trkpt><trkpt lat="42.92423043478688" lon="13.555445853743807"><ele>1042.0</ele><time>2026-03-22T11:15:04.999Z</time></trkpt><trkpt lat="42.92412271035408" lon="13.555433222989038"><ele>1047.2</ele><time>2026-03-22T11:15:05.999Z</time></trkpt><trkpt lat="42.92400451450714" lon="13.555423001037722"><ele>1052.4</ele><time>2026-03-22T11:15:06.999Z</time></trkpt><trkpt lat="42.923902630840935" lon="13.555422942794724"><ele>1057.6</ele><time>2026-03-22T11:15:07.999Z</time></trkpt><trkpt lat="42.92381680338251" lon="13.555442783802274"><ele>1062.8</ele><time>2026-03-22T11:15:08.999Z</time></trkpt><trkpt lat="42.92374815265727" lon="13.555465200725994"><ele>1068.0</ele><time>2026-03-22T11:15:09.999Z</time></trkpt><trkpt lat="42.92360669374474" lon="13.555517247944294"><ele>1068.0</ele><time>2026-03-22T11:15:11.999Z</time></trkpt><trkpt lat="42.923509745645504" lon="13.555557540137789"><ele>1068.0</ele><time>2026-03-22T11:15:12.999Z</time></trkpt><trkpt lat="42.923438985113116" lon="13.55558657154235"><ele>1068.0</ele><time>2026-03-22T11:15:13.999Z</time></trkpt><trkpt lat="42.92336637586693" lon="13.55561027260515"><ele>1068.0</ele><time>2026-03-22T11:15:15.999Z</time></trkpt><trkpt lat="42.923303811820944" lon="13.555622491242854"><ele>1068.0</ele><time>2026-03-22T11:16:30Z</time></trkpt><trkpt lat="42.923377682487" lon="13.555973464059177"><ele>1068.3333333333333</ele><time>2026-03-22T11:16:33Z</time></trkpt><trkpt lat="42.923385613557045" lon="13.556081202323467"><ele>1068.6666666666667</ele><time>2026-03-22T11:16:34Z</time></trkpt><trkpt lat="42.92337302760829" lon="13.556171623294471"><ele>1069.0</ele><time>2026-03-22T11:16:35Z</time></trkpt><trkpt lat="42.92332101683032" lon="13.556314370754565"><ele>1069.3333333333335</ele><time>2026-03-22T11:16:37Z</time></trkpt><trkpt lat="42.923258700703435" lon="13.55643835767894"><ele>1069.6666666666667</ele><time>2026-03-22T11:16:39Z</time></trkpt><trkpt lat="42.92320395722335" lon="13.556483554495783"><ele>1070.0</ele><time>2026-03-22T11:16:40Z</time></trkpt><trkpt lat="42.92313227048508" lon="13.556525606238372"><ele>1070.0</ele><time>2026-03-22T11:16:41Z</time></trkpt><trkpt lat="42.9230565844373" lon="13.5565726031249"><ele>1070.0</ele><time>2026-03-22T11:16:42Z</time></trkpt><trkpt lat="42.92299030661865" lon="13.556606094225502"><ele>1070.0</ele><time>2026-03-22T11:16:43Z</time></trkpt><trkpt lat="42.92291106616552" lon="13.55661516102303"><ele>1070.0</ele><time>2026-03-22T11:16:45Z</time></trkpt><trkpt lat="42.92282268159937" lon="13.556639727003768"><ele>1070.0</ele><time>2026-03-22T11:16:49Z</time></trkpt><trkpt lat="42.92275799327738" lon="13.556684197727465"><ele>1070.0</ele><time>2026-03-22T11:16:50Z</time></trkpt><trkpt lat="42.92268019771689" lon="13.55670890542235"><ele>1070.0</ele><time>2026-03-22T11:16:51Z</time></trkpt><trkpt lat="42.922606998582836" lon="13.556745261651587"><ele>1070.0</ele><time>2026-03-22T11:16:52Z</time></trkpt><trkpt lat="42.92253986715646" lon="13.556772066269238"><ele>1070.0</ele><time>2026-03-22T11:16:55Z</time></trkpt><trkpt lat="42.92249203854002" lon="13.55682862271331"><ele>1070.0</ele><time>2026-03-22T11:18:16.001Z</time></trkpt><trkpt lat="42.92243050618776" lon="13.556860530716797"><ele>1070.0</ele><time>2026-03-22T11:18:59Z</time></trkpt><trkpt lat="42.92250671486315" lon="13.556871762867502"><ele>1070.0</ele><time>2026-03-22T11:26:14.998Z</time></trkpt><trkpt lat="42.92245945937102" lon="13.556942064919998"><ele>1070.0</ele><time>2026-03-22T11:27:39.999Z</time></trkpt><trkpt lat="42.922405752162256" lon="13.556995667505687"><ele>1070.0</ele><time>2026-03-22T11:27:44.999Z</time></trkpt><trkpt lat="42.922437121649395" lon="13.556912507735833"><ele>1070.0</ele><time>2026-03-22T11:28:37Z</time></trkpt><trkpt lat="42.92251881997166" lon="13.556877705329102"><ele>1070.0</ele><time>2026-03-22T11:30:04.998Z</time></trkpt><trkpt lat="42.92256883814685" lon="13.556813879608079"><ele>1070.0</ele><time>2026-03-22T11:35:10Z</time></trkpt><trkpt lat="42.92265723947313" lon="13.556779528811752"><ele>1070.0</ele><time>2026-03-22T11:35:12Z</time></trkpt><trkpt lat="42.92273312207864" lon="13.556726988995651"><ele>1070.0</ele><time>2026-03-22T11:35:14Z</time></trkpt><trkpt lat="42.92280826322947" lon="13.556699900505711"><ele>1070.0</ele><time>2026-03-22T11:35:16Z</time></trkpt><trkpt lat="42.922876790843844" lon="13.556674864999236"><ele>1070.0</ele><time>2026-03-22T11:35:18Z</time></trkpt><trkpt lat="42.92294383281355" lon="13.55665249932544"><ele>1070.0</ele><time>2026-03-22T11:35:20Z</time></trkpt><trkpt lat="42.9230162156837" lon="13.556640365333807"><ele>1070.0</ele><time>2026-03-22T11:35:22Z</time></trkpt><trkpt lat="42.92308569564435" lon="13.556613906483655"><ele>1070.0</ele><time>2026-03-22T11:35:24Z</time></trkpt><trkpt lat="42.923165784548004" lon="13.556568913240156"><ele>1070.0</ele><time>2026-03-22T11:35:26Z</time></trkpt><trkpt lat="42.92325487429368" lon="13.556510106375278"><ele>1070.0</ele><time>2026-03-22T11:35:28Z</time></trkpt><trkpt lat="42.9233323680799" lon="13.556448745723836"><ele>1070.0</ele><time>2026-03-22T11:35:30Z</time></trkpt><trkpt lat="42.92339301590142" lon="13.556321226244725"><ele>1070.0</ele><time>2026-03-22T11:35:32Z</time></trkpt><trkpt lat="42.92342197185129" lon="13.556237119601908"><ele>1070.0</ele><time>2026-03-22T11:35:33Z</time></trkpt><trkpt lat="42.92343471366508" lon="13.556120617101183"><ele>1070.0</ele><time>2026-03-22T11:35:35Z</time></trkpt><trkpt lat="42.923415775357725" lon="13.556037123097452"><ele>1070.0</ele><time>2026-03-22T11:35:36.999Z</time></trkpt><trkpt lat="42.923461901226005" lon="13.555964940072565"><ele>1069.5</ele><time>2026-03-22T11:37:30Z</time></trkpt><trkpt lat="42.923391796071265" lon="13.55584678259626"><ele>1069.0</ele><time>2026-03-22T11:37:32Z</time></trkpt><trkpt lat="42.923445845805475" lon="13.555737787401794"><ele>1068.5</ele><time>2026-03-22T11:37:35Z</time></trkpt><trkpt lat="42.92354433401955" lon="13.555676218065777"><ele>1068.0</ele><time>2026-03-22T11:37:37Z</time></trkpt><trkpt lat="42.92364516960106" lon="13.555548637841673"><ele>1068.0</ele><time>2026-03-22T11:37:39Z</time></trkpt><trkpt lat="42.923763725620724" lon="13.555506475343929"><ele>1068.0</ele><time>2026-03-22T11:37:40.999Z</time></trkpt><trkpt lat="42.923831576698156" lon="13.555485039855268"><ele>1068.0</ele><time>2026-03-22T11:37:41.999Z</time></trkpt><trkpt lat="42.92390605644011" lon="13.555469800421193"><ele>1068.0</ele><time>2026-03-22T11:37:42.999Z</time></trkpt><trkpt lat="42.923976223247934" lon="13.555462626323372"><ele>1068.0</ele><time>2026-03-22T11:37:43.999Z</time></trkpt><trkpt lat="42.92404872279401" lon="13.555475708447403"><ele>1068.0</ele><time>2026-03-22T11:37:44.999Z</time></trkpt><trkpt lat="42.92411886807391" lon="13.555493999235011"><ele>1068.0</ele><time>2026-03-22T11:37:45.999Z</time></trkpt><trkpt lat="42.92418233603514" lon="13.555485696479037"><ele>1068.0</ele><time>2026-03-22T11:37:46.999Z</time></trkpt><trkpt lat="42.92426435487954" lon="13.555494017812073"><ele>1068.0</ele><time>2026-03-22T11:37:47.999Z</time></trkpt><trkpt lat="42.9243367531023" lon="13.555506586238394"><ele>1068.0</ele><time>2026-03-22T11:37:48.999Z</time></trkpt><trkpt lat="42.924453511650185" lon="13.555496618406307"><ele>1068.0</ele><time>2026-03-22T11:37:50.999Z</time></trkpt><trkpt lat="42.924515276960186" lon="13.555464860269359"><ele>1068.0</ele><time>2026-03-22T11:37:51.999Z</time></trkpt><trkpt lat="42.924568659992616" lon="13.55531626797265"><ele>1065.0</ele><time>2026-03-22T11:37:53.999Z</time></trkpt><trkpt lat="42.92461592725357" lon="13.555210788622741"><ele>1062.0</ele><time>2026-03-22T11:37:54.999Z</time></trkpt><trkpt lat="42.92465203091805" lon="13.555119366457872"><ele>1059.0</ele><time>2026-03-22T11:37:55.999Z</time></trkpt><trkpt lat="42.92469104891841" lon="13.555016348167618"><ele>1056.0</ele><time>2026-03-22T11:37:56.999Z</time></trkpt><trkpt lat="42.924721865688085" lon="13.55492218330254"><ele>1053.0</ele><time>2026-03-22T11:37:57.999Z</time></trkpt><trkpt lat="42.92474347618386" lon="13.554840114268421"><ele>1050.0</ele><time>2026-03-22T11:37:58.999Z</time></trkpt><trkpt lat="42.9247683720617" lon="13.554679138579523"><ele>1050.0</ele><time>2026-03-22T11:38:00.999Z</time></trkpt><trkpt lat="42.92475494622399" lon="13.554555462358593"><ele>1050.0</ele><time>2026-03-22T11:38:02.999Z</time></trkpt><trkpt lat="42.92473922393775" lon="13.554425403270747"><ele>1050.0</ele><time>2026-03-22T11:38:04.999Z</time></trkpt><trkpt lat="42.924783179230296" lon="13.554282137225801"><ele>1050.0</ele><time>2026-03-22T11:38:06.999Z</time></trkpt><trkpt lat="42.92486348811101" lon="13.554266297313685"><ele>1050.0</ele><time>2026-03-22T11:38:07.999Z</time></trkpt><trkpt lat="42.92492289060941" lon="13.55433920907624"><ele>1049.5</ele><time>2026-03-22T11:38:08.999Z</time></trkpt><trkpt lat="42.92495626539018" lon="13.554433049535707"><ele>1049.0</ele><time>2026-03-22T11:38:10.999Z</time></trkpt><trkpt lat="42.925045133186586" lon="13.554366972726848"><ele>1048.5</ele><time>2026-03-22T11:38:19.999Z</time></trkpt><trkpt lat="42.92503728277102" lon="13.5542723103195"><ele>1048.0</ele><time>2026-03-22T11:38:21.999Z</time></trkpt><trkpt lat="42.92503436966121" lon="13.55417019294012"><ele>1047.5</ele><time>2026-03-22T11:38:24.999Z</time></trkpt><trkpt lat="42.925037927115156" lon="13.554067218212042"><ele>1047.0</ele><time>2026-03-22T11:38:29.998Z</time></trkpt><trkpt lat="42.92507555569293" lon="13.553989381626936"><ele>1047.0</ele><time>2026-03-22T11:38:35.998Z</time></trkpt><trkpt lat="42.92505079477515" lon="13.553899904347839"><ele>1047.0</ele><time>2026-03-22T11:38:42.998Z</time></trkpt><trkpt lat="42.924988870908486" lon="13.55381263567682"><ele>1047.0</ele><time>2026-03-22T11:38:47.998Z</time></trkpt><trkpt lat="42.92493507777844" lon="13.553749458352627"><ele>1047.0</ele><time>2026-03-22T11:38:50.998Z</time></trkpt><trkpt lat="42.924971538925575" lon="13.55365909900178"><ele>1047.0</ele><time>2026-03-22T11:38:55.998Z</time></trkpt><trkpt lat="42.92504408308179" lon="13.55359709299743"><ele>1047.0</ele><time>2026-03-22T11:38:57.998Z</time></trkpt><trkpt lat="42.925124047097476" lon="13.553550020487828"><ele>1043.8333333333333</ele><time>2026-03-22T11:38:59.998Z</time></trkpt><trkpt lat="42.925245479256546" lon="13.553548493154663"><ele>1040.6666666666667</ele><time>2026-03-22T11:39:01.998Z</time></trkpt><trkpt lat="42.925309724404784" lon="13.55358135510075"><ele>1037.5</ele><time>2026-03-22T11:39:02.998Z</time></trkpt><trkpt lat="42.92537446709062" lon="13.55362699119268"><ele>1034.3333333333335</ele><time>2026-03-22T11:39:03.998Z</time></trkpt><trkpt lat="42.92544340776735" lon="13.55366599287242"><ele>1031.1666666666667</ele><time>2026-03-22T11:39:05Z</time></trkpt><trkpt lat="42.92550464682274" lon="13.553728709358762"><ele>1028.0</ele><time>2026-03-22T11:39:06Z</time></trkpt><trkpt lat="42.925572490668976" lon="13.553785194866707"><ele>1028.0</ele><time>2026-03-22T11:39:07Z</time></trkpt><trkpt lat="42.92563028369556" lon="13.553842238773678"><ele>1028.0</ele><time>2026-03-22T11:39:08Z</time></trkpt><trkpt lat="42.92568003288271" lon="13.553899185577402"><ele>1028.0</ele><time>2026-03-22T11:39:09Z</time></trkpt><trkpt lat="42.92574162796778" lon="13.554049376837181"><ele>1028.0</ele><time>2026-03-22T11:39:11Z</time></trkpt><trkpt lat="42.92576985101947" lon="13.554160210370624"><ele>1028.0</ele><time>2026-03-22T11:39:12Z</time></trkpt><trkpt lat="42.92578782961666" lon="13.554291689132718"><ele>1028.0</ele><time>2026-03-22T11:39:13Z</time></trkpt><trkpt lat="42.92579749469397" lon="13.55442454530402"><ele>1027.5</ele><time>2026-03-22T11:39:14Z</time></trkpt><trkpt lat="42.92580187519977" lon="13.554541410325548"><ele>1027.0</ele><time>2026-03-22T11:39:15Z</time></trkpt><trkpt lat="42.92580306881204" lon="13.554650996685261"><ele>1026.5</ele><time>2026-03-22T11:39:16Z</time></trkpt><trkpt lat="42.9258039211542" lon="13.554771006824478"><ele>1026.0</ele><time>2026-03-22T11:39:17Z</time></trkpt><trkpt lat="42.92579997662369" lon="13.554859336832088"><ele>1025.5</ele><time>2026-03-22T11:39:18Z</time></trkpt><trkpt lat="42.925796053311174" lon="13.554954937633418"><ele>1025.0</ele><time>2026-03-22T11:39:19Z</time></trkpt><trkpt lat="42.92578690512993" lon="13.555040433963901"><ele>1025.0</ele><time>2026-03-22T11:39:20Z</time></trkpt><trkpt lat="42.9257503410213" lon="13.555171719310383"><ele>1025.0</ele><time>2026-03-22T11:39:22Z</time></trkpt><trkpt lat="42.92570415214739" lon="13.555322169867953"><ele>1025.0</ele><time>2026-03-22T11:39:24Z</time></trkpt><trkpt lat="42.92570643525026" lon="13.555433553880711"><ele>1025.0</ele><time>2026-03-22T11:39:25Z</time></trkpt><trkpt lat="42.9257375861346" lon="13.555539406355086"><ele>1025.0</ele><time>2026-03-22T11:39:26Z</time></trkpt><trkpt lat="42.92581386328987" lon="13.555624816129262"><ele>1021.2</ele><time>2026-03-22T11:39:27Z</time></trkpt><trkpt lat="42.92591749572148" lon="13.55562576137825"><ele>1017.4</ele><time>2026-03-22T11:39:28Z</time></trkpt><trkpt lat="42.92598662116411" lon="13.555559027765204"><ele>1013.5999999999999</ele><time>2026-03-22T11:39:29Z</time></trkpt><trkpt lat="42.92603123082441" lon="13.555493917928388"><ele>1009.8</ele><time>2026-03-22T11:39:30Z</time></trkpt><trkpt lat="42.926132028669954" lon="13.5553489802138"><ele>1006.0</ele><time>2026-03-22T11:39:32Z</time></trkpt><trkpt lat="42.92620938399498" lon="13.555215748396906"><ele>1006.0</ele><time>2026-03-22T11:39:33Z</time></trkpt><trkpt lat="42.92629279660509" lon="13.555079301042904"><ele>1005.9999999999999</ele><time>2026-03-22T11:39:34Z</time></trkpt><trkpt lat="42.926369243148464" lon="13.554963109341376"><ele>1005.9999999999999</ele><time>2026-03-22T11:39:35Z</time></trkpt><trkpt lat="42.9264386667671" lon="13.554852444630788"><ele>1006.0</ele><time>2026-03-22T11:39:36Z</time></trkpt><trkpt lat="42.92648788625195" lon="13.554767824358889"><ele>1006.0</ele><time>2026-03-22T11:39:37Z</time></trkpt><trkpt lat="42.9265261201489" lon="13.554687898757475"><ele>1006.0</ele><time>2026-03-22T11:39:38Z</time></trkpt><trkpt lat="42.92655775044332" lon="13.55460350158545"><ele>1005.9999999999999</ele><time>2026-03-22T11:39:39Z</time></trkpt><trkpt lat="42.92657938693723" lon="13.55451324559965"><ele>1005.9999999999999</ele><time>2026-03-22T11:39:40Z</time></trkpt><trkpt lat="42.926599702575004" lon="13.55434625114254"><ele>1006.0</ele><time>2026-03-22T11:39:42Z</time></trkpt><trkpt lat="42.92660047766161" lon="13.554214007181697"><ele>1006.0</ele><time>2026-03-22T11:39:43Z</time></trkpt><trkpt lat="42.92659012522759" lon="13.554060931960482"><ele>1006.5</ele><time>2026-03-22T11:39:44Z</time></trkpt><trkpt lat="42.926565188635436" lon="13.553916642287561"><ele>1007.0</ele><time>2026-03-22T11:39:44.999Z</time></trkpt><trkpt lat="42.926521298168495" lon="13.553780723377365"><ele>1007.5</ele><time>2026-03-22T11:39:45.999Z</time></trkpt><trkpt lat="42.92645946542027" lon="13.55365365955975"><ele>1008.0</ele><time>2026-03-22T11:39:46.999Z</time></trkpt><trkpt lat="42.92638121135778" lon="13.55352395885788"><ele>1006.5</ele><time>2026-03-22T11:39:47.999Z</time></trkpt><trkpt lat="42.92629306434243" lon="13.55340101809046"><ele>1005.0</ele><time>2026-03-22T11:39:48.999Z</time></trkpt><trkpt lat="42.926189341012545" lon="13.553266595799816"><ele>1003.5</ele><time>2026-03-22T11:39:49.999Z</time></trkpt><trkpt lat="42.92608610405406" lon="13.55313955010652"><ele>1002.0</ele><time>2026-03-22T11:39:50.999Z</time></trkpt><trkpt lat="42.925986868749156" lon="13.55304922304247"><ele>1002.0</ele><time>2026-03-22T11:39:51.999Z</time></trkpt><trkpt lat="42.925907958570704" lon="13.552953498149144"><ele>1002.0</ele><time>2026-03-22T11:39:52.999Z</time></trkpt><trkpt lat="42.92583884440579" lon="13.552874057935"><ele>1002.0</ele><time>2026-03-22T11:39:53.999Z</time></trkpt><trkpt lat="42.92577274931071" lon="13.552807698949259"><ele>1002.0</ele><time>2026-03-22T11:39:54.999Z</time></trkpt><trkpt lat="42.9257093526785" lon="13.552752133067733"><ele>1002.0</ele><time>2026-03-22T11:39:55.999Z</time></trkpt><trkpt lat="42.92565758507691" lon="13.552655287313039"><ele>1002.0</ele><time>2026-03-22T11:39:56.999Z</time></trkpt><trkpt lat="42.92560736374011" lon="13.552525970622495"><ele>1002.8</ele><time>2026-03-22T11:39:57.999Z</time></trkpt><trkpt lat="42.92558387563187" lon="13.552386398964138"><ele>1003.6</ele><time>2026-03-22T11:39:58.999Z</time></trkpt><trkpt lat="42.92557240996401" lon="13.552280410088125"><ele>1004.3999999999999</ele><time>2026-03-22T11:39:59.999Z</time></trkpt><trkpt lat="42.9255667499332" lon="13.552194464409066"><ele>1005.1999999999999</ele><time>2026-03-22T11:40:00.999Z</time></trkpt><trkpt lat="42.925588065982566" lon="13.552015337317087"><ele>1006.0</ele><time>2026-03-22T11:40:02.999Z</time></trkpt><trkpt lat="42.9256782479028" lon="13.551880811689971"><ele>1003.25</ele><time>2026-03-22T11:40:03.999Z</time></trkpt><trkpt lat="42.92577343268455" lon="13.55180850277728"><ele>1000.5</ele><time>2026-03-22T11:40:04.999Z</time></trkpt><trkpt lat="42.92587333859907" lon="13.551762129533182"><ele>997.75</ele><time>2026-03-22T11:40:05.999Z</time></trkpt><trkpt lat="42.926003149941415" lon="13.5517461681945"><ele>995.0</ele><time>2026-03-22T11:40:06.999Z</time></trkpt><trkpt lat="42.92612302584301" lon="13.551720088307093"><ele>995.0</ele><time>2026-03-22T11:40:07.999Z</time></trkpt><trkpt lat="42.9262268437884" lon="13.55169054978013"><ele>995.0</ele><time>2026-03-22T11:40:08.999Z</time></trkpt><trkpt lat="42.92631538377275" lon="13.55165635675993"><ele>995.0</ele><time>2026-03-22T11:40:09.999Z</time></trkpt><trkpt lat="42.926401260031454" lon="13.551605129773991"><ele>995.0</ele><time>2026-03-22T11:40:10.999Z</time></trkpt><trkpt lat="42.92647908882797" lon="13.551508657445392"><ele>995.0</ele><time>2026-03-22T11:40:11.999Z</time></trkpt><trkpt lat="42.92658038449398" lon="13.551393811898478"><ele>995.0000000000001</ele><time>2026-03-22T11:40:12.999Z</time></trkpt><trkpt lat="42.9266786734601" lon="13.551317590055028"><ele>995.0</ele><time>2026-03-22T11:40:13.999Z</time></trkpt><trkpt lat="42.926760274983025" lon="13.551265926553745"><ele>995.0</ele><time>2026-03-22T11:40:14.999Z</time></trkpt><trkpt lat="42.92682938987404" lon="13.551229952746926"><ele>995.0</ele><time>2026-03-22T11:40:15.999Z</time></trkpt><trkpt lat="42.92690840275071" lon="13.551199794018052"><ele>995.0000000000001</ele><time>2026-03-22T11:40:16.999Z</time></trkpt><trkpt lat="42.92698233963257" lon="13.551180161692894"><ele>995.0</ele><time>2026-03-22T11:40:17.999Z</time></trkpt><trkpt lat="42.92705486435813" lon="13.551171443858992"><ele>990.8333333333334</ele><time>2026-03-22T11:40:18.999Z</time></trkpt><trkpt lat="42.927127927682314" lon="13.551182815213371"><ele>986.6666666666667</ele><time>2026-03-22T11:40:19.999Z</time></trkpt><trkpt lat="42.927244205302586" lon="13.55117876261378"><ele>982.5</ele><time>2026-03-22T11:40:21.999Z</time></trkpt><trkpt lat="42.92730417121265" lon="13.551132965474523"><ele>978.3333333333333</ele><time>2026-03-22T11:40:23.999Z</time></trkpt><trkpt lat="42.927316243416215" lon="13.551038907921434"><ele>974.1666666666666</ele><time>2026-03-22T11:40:25.999Z</time></trkpt><trkpt lat="42.92727406264678" lon="13.550939643544286"><ele>970.0</ele><time>2026-03-22T11:40:27.999Z</time></trkpt><trkpt lat="42.927214438590944" lon="13.550878302261573"><ele>970.0</ele><time>2026-03-22T11:40:29.999Z</time></trkpt><trkpt lat="42.92715725402982" lon="13.550795618680695"><ele>970.0</ele><time>2026-03-22T11:40:32.998Z</time></trkpt><trkpt lat="42.92709185679918" lon="13.550732695205838"><ele>970.0</ele><time>2026-03-22T11:40:35.998Z</time></trkpt><trkpt lat="42.927074915986765" lon="13.550648169418048"><ele>970.0</ele><time>2026-03-22T11:40:42.998Z</time></trkpt><trkpt lat="42.92704695388506" lon="13.550752680853321"><ele>970.0</ele><time>2026-03-22T11:40:46.998Z</time></trkpt><trkpt lat="42.92723427386547" lon="13.550711711386223"><ele>970.0</ele><time>2026-03-22T11:40:49.998Z</time></trkpt><trkpt lat="42.927290221495866" lon="13.550777193408654"><ele>970.0</ele><time>2026-03-22T11:40:50.998Z</time></trkpt><trkpt lat="42.92735520924863" lon="13.550890178517593"><ele>970.0</ele><time>2026-03-22T11:40:52.998Z</time></trkpt><trkpt lat="42.92741134355955" lon="13.550978459792855"><ele>970.0</ele><time>2026-03-22T11:40:54.998Z</time></trkpt><trkpt lat="42.927440746619915" lon="13.551061687692322"><ele>970.0</ele><time>2026-03-22T11:40:57.998Z</time></trkpt><trkpt lat="42.92727745060094" lon="13.551221060239966"><ele>972.6666666666666</ele><time>2026-03-22T11:40:58.998Z</time></trkpt><trkpt lat="42.92718530711403" lon="13.551236227174584"><ele>975.3333333333333</ele><time>2026-03-22T11:41:00.998Z</time></trkpt><trkpt lat="42.927119880718756" lon="13.551227294412998"><ele>978.0</ele><time>2026-03-22T11:41:01.998Z</time></trkpt><trkpt lat="42.92704163086168" lon="13.55121604460911"><ele>980.6666666666667</ele><time>2026-03-22T11:41:02.998Z</time></trkpt><trkpt lat="42.92695665113143" lon="13.551218978643567"><ele>983.3333333333334</ele><time>2026-03-22T11:41:03.998Z</time></trkpt><trkpt lat="42.92688277177478" lon="13.551249242113443"><ele>986.0</ele><time>2026-03-22T11:41:04.998Z</time></trkpt><trkpt lat="42.926802323229666" lon="13.551291221754889"><ele>987.8</ele><time>2026-03-22T11:41:05.998Z</time></trkpt><trkpt lat="42.926707531817385" lon="13.551344595508159"><ele>989.5999999999999</ele><time>2026-03-22T11:41:06.998Z</time></trkpt><trkpt lat="42.9266264003429" lon="13.551395542930154"><ele>991.4</ele><time>2026-03-22T11:41:07.998Z</time></trkpt><trkpt lat="42.92656819781244" lon="13.551475774261199"><ele>993.2</ele><time>2026-03-22T11:41:08.998Z</time></trkpt><trkpt lat="42.92649983317858" lon="13.551561095691827"><ele>995.0</ele><time>2026-03-22T11:41:09.998Z</time></trkpt><trkpt lat="42.926430592795654" lon="13.551634380435335"><ele>995.0</ele><time>2026-03-22T11:41:11Z</time></trkpt><trkpt lat="42.92634623794097" lon="13.551710259470273"><ele>995.0</ele><time>2026-03-22T11:41:12Z</time></trkpt><trkpt lat="42.926256138269885" lon="13.551743693420308"><ele>995.0</ele><time>2026-03-22T11:41:13Z</time></trkpt><trkpt lat="42.92615609015389" lon="13.551760043640414"><ele>995.0</ele><time>2026-03-22T11:41:14Z</time></trkpt><trkpt lat="42.92605292316427" lon="13.551769233382647"><ele>995.0</ele><time>2026-03-22T11:41:15Z</time></trkpt><trkpt lat="42.925966962924356" lon="13.551773026669363"><ele>995.0000000000001</ele><time>2026-03-22T11:41:16Z</time></trkpt><trkpt lat="42.925902073248146" lon="13.551795220711021"><ele>995.0</ele><time>2026-03-22T11:41:17Z</time></trkpt><trkpt lat="42.92583931397933" lon="13.55184834074617"><ele>995.0</ele><time>2026-03-22T11:41:18Z</time></trkpt><trkpt lat="42.92575077449053" lon="13.55192646947028"><ele>995.0</ele><time>2026-03-22T11:41:19Z</time></trkpt><trkpt lat="42.925684779182575" lon="13.551975144321407"><ele>995.0000000000001</ele><time>2026-03-22T11:41:20Z</time></trkpt><trkpt lat="42.92561987922997" lon="13.552095520389646"><ele>995.0</ele><time>2026-03-22T11:41:22Z</time></trkpt><trkpt lat="42.92560932020248" lon="13.552191501403124"><ele>997.2</ele><time>2026-03-22T11:41:23Z</time></trkpt><trkpt lat="42.92560737526346" lon="13.552306480966896"><ele>999.4</ele><time>2026-03-22T11:41:24Z</time></trkpt><trkpt lat="42.92561857077054" lon="13.55243334882608"><ele>1001.5999999999999</ele><time>2026-03-22T11:41:25Z</time></trkpt><trkpt lat="42.925649892470744" lon="13.552563087233294"><ele>1003.8</ele><time>2026-03-22T11:41:26Z</time></trkpt><trkpt lat="42.92569427485244" lon="13.552712231324538"><ele>1006.0</ele><time>2026-03-22T11:41:27Z</time></trkpt><trkpt lat="42.92574318830901" lon="13.55283430021418"><ele>1005.0</ele><time>2026-03-22T11:41:28Z</time></trkpt><trkpt lat="42.92580324590159" lon="13.552944736454082"><ele>1004.0</ele><time>2026-03-22T11:41:29Z</time></trkpt><trkpt lat="42.925886689977276" lon="13.553031669064396"><ele>1003.0</ele><time>2026-03-22T11:41:30Z</time></trkpt><trkpt lat="42.92599009098216" lon="13.553105134575766"><ele>1002.0</ele><time>2026-03-22T11:41:31Z</time></trkpt><trkpt lat="42.92611754457831" lon="13.553238933444279"><ele>1002.0</ele><time>2026-03-22T11:41:32Z</time></trkpt><trkpt lat="42.9262440235724" lon="13.55339955083339"><ele>1002.0</ele><time>2026-03-22T11:41:33Z</time></trkpt><trkpt lat="42.92633225987975" lon="13.55351950817888"><ele>1002.0</ele><time>2026-03-22T11:41:34Z</time></trkpt><trkpt lat="42.92640981036233" lon="13.553638806587882"><ele>1002.0</ele><time>2026-03-22T11:41:35Z</time></trkpt><trkpt lat="42.926483553470995" lon="13.55378268593442"><ele>1003.0</ele><time>2026-03-22T11:41:36Z</time></trkpt><trkpt lat="42.9265321238798" lon="13.553912047222344"><ele>1004.0</ele><time>2026-03-22T11:41:37Z</time></trkpt><trkpt lat="42.92655443613196" lon="13.55401944274379"><ele>1005.0</ele><time>2026-03-22T11:41:38Z</time></trkpt><trkpt lat="42.92656318825694" lon="13.554133016184156"><ele>1006.0</ele><time>2026-03-22T11:41:39Z</time></trkpt><trkpt lat="42.92656770693762" lon="13.554229543455833"><ele>1007.0</ele><time>2026-03-22T11:41:40Z</time></trkpt><trkpt lat="42.92656667386996" lon="13.55436298993369"><ele>1008.0</ele><time>2026-03-22T11:41:42Z</time></trkpt><trkpt lat="42.926580464368804" lon="13.554457435643055"><ele>1008.0</ele><time>2026-03-22T11:41:45Z</time></trkpt><trkpt lat="42.92654523614482" lon="13.554534064951788"><ele>1008.0</ele><time>2026-03-22T11:41:47Z</time></trkpt><trkpt lat="42.92650166521649" lon="13.554684290440347"><ele>1008.0</ele><time>2026-03-22T11:41:49Z</time></trkpt><trkpt lat="42.92642717747872" lon="13.554811184039279"><ele>1008.0</ele><time>2026-03-22T11:41:50.999Z</time></trkpt><trkpt lat="42.926388781013195" lon="13.55490715188241"><ele>1008.0</ele><time>2026-03-22T11:41:52.999Z</time></trkpt><trkpt lat="42.92637315352122" lon="13.554997482286339"><ele>982.0</ele><time>2026-03-22T11:41:54.999Z</time></trkpt><trkpt lat="42.92675177648951" lon="13.555457004099127"><ele>981.9999999999999</ele><time>2026-03-22T11:41:55.999Z</time></trkpt><trkpt lat="42.926806683174426" lon="13.555517316939513"><ele>982.0</ele><time>2026-03-22T11:41:57.999Z</time></trkpt><trkpt lat="42.92687006859728" lon="13.555478393021222"><ele>982.0</ele><time>2026-03-22T11:41:59.999Z</time></trkpt><trkpt lat="42.92694897726526" lon="13.555442476770336"><ele>982.0</ele><time>2026-03-22T11:42:02.999Z</time></trkpt><trkpt lat="42.927023633111965" lon="13.555491410896762"><ele>981.9999999999999</ele><time>2026-03-22T11:42:05.999Z</time></trkpt><trkpt lat="42.92707816664444" lon="13.55558490335321"><ele>982.0</ele><time>2026-03-22T11:42:09.999Z</time></trkpt><trkpt lat="42.92713425713108" lon="13.55568651564841"><ele>981.9999999999999</ele><time>2026-03-22T11:42:12.999Z</time></trkpt><trkpt lat="42.92720959751889" lon="13.555725160513417"><ele>982.0</ele><time>2026-03-22T11:42:15.999Z</time></trkpt><trkpt lat="42.92727480632028" lon="13.555754976630947"><ele>982.0</ele><time>2026-03-22T11:42:17.999Z</time></trkpt><trkpt lat="42.9273288664242" lon="13.555814297724897"><ele>982.0</ele><time>2026-03-22T11:42:20.999Z</time></trkpt><trkpt lat="42.92738144730975" lon="13.555881167035304"><ele>981.9999999999999</ele><time>2026-03-22T11:42:23.999Z</time></trkpt><trkpt lat="42.927453990187296" lon="13.555963770039712"><ele>982.0</ele><time>2026-03-22T11:42:26.999Z</time></trkpt><trkpt lat="42.92748493702325" lon="13.55609468818654"><ele>981.9999999999999</ele><time>2026-03-22T11:42:29.999Z</time></trkpt><trkpt lat="42.9274908811" lon="13.556198713211234"><ele>982.0</ele><time>2026-03-22T11:42:32.999Z</time></trkpt><trkpt lat="42.927483280822514" lon="13.556312474214424"><ele>982.0</ele><time>2026-03-22T11:42:35.999Z</time></trkpt><trkpt lat="42.927484490936855" lon="13.556412927101567"><ele>982.0</ele><time>2026-03-22T11:42:38.998Z</time></trkpt><trkpt lat="42.927482513142195" lon="13.556522533921148"><ele>981.9999999999999</ele><time>2026-03-22T11:42:42.998Z</time></trkpt><trkpt lat="42.927573070442996" lon="13.55655052748252"><ele>982.0</ele><time>2026-03-22T11:42:46.998Z</time></trkpt><trkpt lat="42.92764755062102" lon="13.556511619645699"><ele>976.8333333333333</ele><time>2026-03-22T11:42:48.998Z</time></trkpt><trkpt lat="42.92769659510561" lon="13.556430722976108"><ele>971.6666666666666</ele><time>2026-03-22T11:42:50.998Z</time></trkpt><trkpt lat="42.9277585692517" lon="13.55637801530214"><ele>966.5</ele><time>2026-03-22T11:42:52.998Z</time></trkpt><trkpt lat="42.92783495988375" lon="13.556302313549487"><ele>961.3333333333333</ele><time>2026-03-22T11:42:55.998Z</time></trkpt><trkpt lat="42.927882305567564" lon="13.556238862229845"><ele>956.1666666666666</ele><time>2026-03-22T11:42:57.998Z</time></trkpt><trkpt lat="42.927955577814" lon="13.556179544439182"><ele>951.0</ele><time>2026-03-22T11:43:00.998Z</time></trkpt><trkpt lat="42.92803287869343" lon="13.556146594834072"><ele>951.0</ele><time>2026-03-22T11:43:03.998Z</time></trkpt><trkpt lat="42.92809037601409" lon="13.556035847546816"><ele>951.0</ele><time>2026-03-22T11:43:06.998Z</time></trkpt><trkpt lat="42.92815835847901" lon="13.556005130804083"><ele>951.0</ele><time>2026-03-22T11:43:08.998Z</time></trkpt><trkpt lat="42.92822991499849" lon="13.556011524596483"><ele>951.0</ele><time>2026-03-22T11:43:10.998Z</time></trkpt><trkpt lat="42.92831395113524" lon="13.555972534746044"><ele>951.0</ele><time>2026-03-22T11:43:12.998Z</time></trkpt><trkpt lat="42.928400242839636" lon="13.555953826773573"><ele>951.0</ele><time>2026-03-22T11:43:14.998Z</time></trkpt><trkpt lat="42.928473873046805" lon="13.555982307538208"><ele>946.8</ele><time>2026-03-22T11:43:19Z</time></trkpt><trkpt lat="42.9284346423879" lon="13.556109728112963"><ele>942.5999999999999</ele><time>2026-03-22T11:43:22Z</time></trkpt><trkpt lat="42.92836230283666" lon="13.556211826599554"><ele>938.4</ele><time>2026-03-22T11:43:24Z</time></trkpt><trkpt lat="42.92829232276409" lon="13.556273674668445"><ele>934.2</ele><time>2026-03-22T11:43:27Z</time></trkpt><trkpt lat="42.92826029947104" lon="13.556391362903817"><ele>930.0</ele><time>2026-03-22T11:43:45Z</time></trkpt><trkpt lat="42.92827066981589" lon="13.556491296502323"><ele>930.0</ele><time>2026-03-22T11:43:47Z</time></trkpt><trkpt lat="42.92828970648387" lon="13.556605563880218"><ele>930.0</ele><time>2026-03-22T11:43:49Z</time></trkpt><trkpt lat="42.92835824645684" lon="13.556672111571512"><ele>930.0</ele><time>2026-03-22T11:43:51Z</time></trkpt><trkpt lat="42.928470960303805" lon="13.556643179728061"><ele>930.0</ele><time>2026-03-22T11:43:53Z</time></trkpt><trkpt lat="42.92853920264621" lon="13.55657630726898"><ele>930.0</ele><time>2026-03-22T11:43:54Z</time></trkpt><trkpt lat="42.92863537706895" lon="13.556489117744984"><ele>925.0</ele><time>2026-03-22T11:43:55Z</time></trkpt><trkpt lat="42.92876518702649" lon="13.556408842084327"><ele>920.0</ele><time>2026-03-22T11:43:56Z</time></trkpt><trkpt lat="42.92889874635543" lon="13.556336783010101"><ele>915.0</ele><time>2026-03-22T11:43:56.999Z</time></trkpt><trkpt lat="42.9290256139456" lon="13.556290120337374"><ele>910.0</ele><time>2026-03-22T11:43:57.999Z</time></trkpt><trkpt lat="42.92912736059232" lon="13.556224626352622"><ele>910.4999999999999</ele><time>2026-03-22T11:43:58.999Z</time></trkpt><trkpt lat="42.929221837416875" lon="13.556168926680439"><ele>911.0</ele><time>2026-03-22T11:43:59.999Z</time></trkpt><trkpt lat="42.92929908068471" lon="13.55612761300879"><ele>911.5</ele><time>2026-03-22T11:44:00.999Z</time></trkpt><trkpt lat="42.92936625775726" lon="13.556096611484"><ele>912.0</ele><time>2026-03-22T11:44:01.999Z</time></trkpt><trkpt lat="42.92942838525802" lon="13.556047281800248"><ele>912.4999999999999</ele><time>2026-03-22T11:44:02.999Z</time></trkpt><trkpt lat="42.92951618082615" lon="13.55606173815059"><ele>913.0</ele><time>2026-03-22T11:44:04.999Z</time></trkpt><trkpt lat="42.92954456875711" lon="13.556194593958704"><ele>912.4</ele><time>2026-03-22T11:44:06.999Z</time></trkpt><trkpt lat="42.929515217578725" lon="13.556279615557354"><ele>911.8</ele><time>2026-03-22T11:44:07.999Z</time></trkpt><trkpt lat="42.9294682103857" lon="13.556368187456224"><ele>911.2</ele><time>2026-03-22T11:44:08.999Z</time></trkpt><trkpt lat="42.92940107136006" lon="13.5564659890876"><ele>910.6</ele><time>2026-03-22T11:44:09.999Z</time></trkpt><trkpt lat="42.92932346104795" lon="13.556588985414026"><ele>910.0</ele><time>2026-03-22T11:44:10.999Z</time></trkpt><trkpt lat="42.92922532931524" lon="13.556722593570019"><ele>910.0</ele><time>2026-03-22T11:44:11.999Z</time></trkpt><trkpt lat="42.929107727320996" lon="13.556846818700766"><ele>910.0</ele><time>2026-03-22T11:44:12.999Z</time></trkpt><trkpt lat="42.92897684358524" lon="13.556954611978151"><ele>910.0</ele><time>2026-03-22T11:44:13.999Z</time></trkpt><trkpt lat="42.92885577026293" lon="13.55704418003085"><ele>910.0</ele><time>2026-03-22T11:44:14.999Z</time></trkpt><trkpt lat="42.92873256485689" lon="13.557134350614593"><ele>908.0</ele><time>2026-03-22T11:44:15.999Z</time></trkpt><trkpt lat="42.928596765357" lon="13.55722730382224"><ele>906.0</ele><time>2026-03-22T11:44:16.999Z</time></trkpt><trkpt lat="42.92845005204644" lon="13.55730216600436"><ele>904.0</ele><time>2026-03-22T11:44:17.999Z</time></trkpt><trkpt lat="42.928333270524284" lon="13.557380808265789"><ele>902.0</ele><time>2026-03-22T11:44:18.999Z</time></trkpt><trkpt lat="42.928235719581636" lon="13.557478336235366"><ele>902.0</ele><time>2026-03-22T11:44:19.999Z</time></trkpt><trkpt lat="42.928135174528805" lon="13.557580730482508"><ele>902.0</ele><time>2026-03-22T11:44:20.999Z</time></trkpt><trkpt lat="42.92804423935264" lon="13.557677284643722"><ele>902.0</ele><time>2026-03-22T11:44:21.999Z</time></trkpt><trkpt lat="42.927963481122404" lon="13.557792326133908"><ele>902.0</ele><time>2026-03-22T11:44:22.999Z</time></trkpt><trkpt lat="42.927884905085016" lon="13.557882846940545"><ele>899.8333333333334</ele><time>2026-03-22T11:44:23.999Z</time></trkpt><trkpt lat="42.92781629910324" lon="13.557969541135055"><ele>897.6666666666667</ele><time>2026-03-22T11:44:24.999Z</time></trkpt><trkpt lat="42.92775757764658" lon="13.55802376750362"><ele>895.5</ele><time>2026-03-22T11:44:25.999Z</time></trkpt><trkpt lat="42.92768517031462" lon="13.55805867385962"><ele>893.3333333333333</ele><time>2026-03-22T11:44:26.999Z</time></trkpt><trkpt lat="42.92760840867339" lon="13.558111331580413"><ele>891.1666666666666</ele><time>2026-03-22T11:44:27.999Z</time></trkpt><trkpt lat="42.92751891752778" lon="13.558167186972465"><ele>889.0</ele><time>2026-03-22T11:44:29.999Z</time></trkpt><trkpt lat="42.92751481593326" lon="13.55829176155344"><ele>885.5</ele><time>2026-03-22T11:44:31.999Z</time></trkpt><trkpt lat="42.927633862085564" lon="13.558378076982674"><ele>882.0</ele><time>2026-03-22T11:44:33.999Z</time></trkpt><trkpt lat="42.927735688916535" lon="13.558394352641988"><ele>878.5</ele><time>2026-03-22T11:44:34.999Z</time></trkpt><trkpt lat="42.92785778468578" lon="13.558386044618224"><ele>875.0</ele><time>2026-03-22T11:44:35.999Z</time></trkpt><trkpt lat="42.92801602254796" lon="13.55836306522347"><ele>875.0</ele><time>2026-03-22T11:44:36.999Z</time></trkpt><trkpt lat="42.92815887854876" lon="13.55831478987153"><ele>875.0</ele><time>2026-03-22T11:44:37.999Z</time></trkpt><trkpt lat="42.92831572838857" lon="13.558263490281174"><ele>875.0</ele><time>2026-03-22T11:44:38.999Z</time></trkpt><trkpt lat="42.92846336022279" lon="13.558207046950539"><ele>870.75</ele><time>2026-03-22T11:44:39.999Z</time></trkpt><trkpt lat="42.928607201507404" lon="13.558135899873658"><ele>866.5</ele><time>2026-03-22T11:44:40.999Z</time></trkpt><trkpt lat="42.92873201050117" lon="13.558070858145495"><ele>862.25</ele><time>2026-03-22T11:44:41.999Z</time></trkpt><trkpt lat="42.92884631248263" lon="13.55802336554676"><ele>858.0</ele><time>2026-03-22T11:44:42.999Z</time></trkpt><trkpt lat="42.928973404781985" lon="13.558001030573308"><ele>858.0</ele><time>2026-03-22T11:44:43.999Z</time></trkpt><trkpt lat="42.92912384911872" lon="13.557996747777546"><ele>858.0</ele><time>2026-03-22T11:44:44.998Z</time></trkpt><trkpt lat="42.929249328420404" lon="13.557989062649462"><ele>858.0</ele><time>2026-03-22T11:44:45.998Z</time></trkpt><trkpt lat="42.92936948518436" lon="13.557959861599286"><ele>858.0</ele><time>2026-03-22T11:44:46.998Z</time></trkpt><trkpt lat="42.92950904670725" lon="13.55791970830893"><ele>862.0</ele><time>2026-03-22T11:44:47.998Z</time></trkpt><trkpt lat="42.92966386980267" lon="13.557862725205112"><ele>866.0</ele><time>2026-03-22T11:44:48.998Z</time></trkpt><trkpt lat="42.92981013692956" lon="13.55780825913154"><ele>870.0</ele><time>2026-03-22T11:44:49.998Z</time></trkpt><trkpt lat="42.92995863153695" lon="13.557757446122189"><ele>868.0</ele><time>2026-03-22T11:44:50.998Z</time></trkpt><trkpt lat="42.93009385344505" lon="13.55770730368356"><ele>866.0</ele><time>2026-03-22T11:44:51.998Z</time></trkpt><trkpt lat="42.93022083534438" lon="13.55765576685549"><ele>864.0</ele><time>2026-03-22T11:44:52.998Z</time></trkpt><trkpt lat="42.93035105001341" lon="13.557608854304153"><ele>862.0</ele><time>2026-03-22T11:44:53.998Z</time></trkpt><trkpt lat="42.93046753372733" lon="13.557577669608783"><ele>861.9999999999999</ele><time>2026-03-22T11:44:54.998Z</time></trkpt><trkpt lat="42.93056708630284" lon="13.557555926776832"><ele>862.0</ele><time>2026-03-22T11:44:55.998Z</time></trkpt><trkpt lat="42.930647929486426" lon="13.557543135661197"><ele>862.0</ele><time>2026-03-22T11:44:56.998Z</time></trkpt><trkpt lat="42.930730836384086" lon="13.557537231609542"><ele>862.0</ele><time>2026-03-22T11:44:57.998Z</time></trkpt><trkpt lat="42.930801951144055" lon="13.557535490582818"><ele>861.9999999999999</ele><time>2026-03-22T11:44:58.998Z</time></trkpt><trkpt lat="42.93089674652981" lon="13.557557747910899"><ele>862.0</ele><time>2026-03-22T11:45:00.998Z</time></trkpt><trkpt lat="42.93097168522517" lon="13.557643849371614"><ele>862.0</ele><time>2026-03-22T11:45:02.998Z</time></trkpt><trkpt lat="42.93093447406577" lon="13.557744037227845"><ele>862.0</ele><time>2026-03-22T11:45:03.998Z</time></trkpt><trkpt lat="42.93088534626453" lon="13.557809007399381"><ele>862.0</ele><time>2026-03-22T11:45:05.998Z</time></trkpt><trkpt lat="42.93079555836629" lon="13.557839369519167"><ele>862.0</ele><time>2026-03-22T11:45:07.998Z</time></trkpt><trkpt lat="42.93069816397342" lon="13.557758990056195"><ele>862.0</ele><time>2026-03-22T11:45:08.998Z</time></trkpt><trkpt lat="42.93057795527116" lon="13.557840043665013"><ele>850.3333333333333</ele><time>2026-03-22T11:45:09.998Z</time></trkpt><trkpt lat="42.93041874352605" lon="13.557933459850881"><ele>838.6666666666667</ele><time>2026-03-22T11:45:10.998Z</time></trkpt><trkpt lat="42.93025047424256" lon="13.558028261245065"><ele>827.0</ele><time>2026-03-22T11:45:11.998Z</time></trkpt><trkpt lat="42.93011552235649" lon="13.558114332652146"><ele>831.6666666666667</ele><time>2026-03-22T11:45:12.998Z</time></trkpt><trkpt lat="42.92998766153998" lon="13.558204040733566"><ele>836.3333333333333</ele><time>2026-03-22T11:45:13.998Z</time></trkpt><trkpt lat="42.9298490740365" lon="13.558326540563618"><ele>841.0</ele><time>2026-03-22T11:45:14.998Z</time></trkpt><trkpt lat="42.92973094767376" lon="13.558469291203613"><ele>841.0</ele><time>2026-03-22T11:45:15.998Z</time></trkpt><trkpt lat="42.9296259558382" lon="13.558618794830277"><ele>841.0</ele><time>2026-03-22T11:45:16.998Z</time></trkpt><trkpt lat="42.929511648269234" lon="13.558831973541022"><ele>841.0</ele><time>2026-03-22T11:45:17.998Z</time></trkpt><trkpt lat="42.92944105382457" lon="13.558986341236457"><ele>839.1999999999999</ele><time>2026-03-22T11:45:18.998Z</time></trkpt><trkpt lat="42.92936806639193" lon="13.559117115734509"><ele>837.4</ele><time>2026-03-22T11:45:19.998Z</time></trkpt><trkpt lat="42.92930147655783" lon="13.559224163759753"><ele>835.6</ele><time>2026-03-22T11:45:20.998Z</time></trkpt><trkpt lat="42.92923497349972" lon="13.559315650432946"><ele>833.8</ele><time>2026-03-22T11:45:21.998Z</time></trkpt><trkpt lat="42.92916461533605" lon="13.559388774841223"><ele>832.0</ele><time>2026-03-22T11:45:23Z</time></trkpt><trkpt lat="42.92909153463046" lon="13.559452856548099"><ele>832.0</ele><time>2026-03-22T11:45:24Z</time></trkpt><trkpt lat="42.9290081478837" lon="13.559520084402648"><ele>832.0</ele><time>2026-03-22T11:45:25Z</time></trkpt><trkpt lat="42.92893769053589" lon="13.559576888357908"><ele>832.0</ele><time>2026-03-22T11:45:26Z</time></trkpt><trkpt lat="42.92884854348162" lon="13.559648760282657"><ele>832.0</ele><time>2026-03-22T11:45:27Z</time></trkpt><trkpt lat="42.92876857918246" lon="13.559713228913363"><ele>832.0</ele><time>2026-03-22T11:45:28Z</time></trkpt><trkpt lat="42.92867227234344" lon="13.559793050882389"><ele>830.4000000000001</ele><time>2026-03-22T11:45:29Z</time></trkpt><trkpt lat="42.928566913788735" lon="13.55988181038332"><ele>828.8000000000001</ele><time>2026-03-22T11:45:30Z</time></trkpt><trkpt lat="42.92847152156315" lon="13.559962766197623"><ele>827.2</ele><time>2026-03-22T11:45:31Z</time></trkpt><trkpt lat="42.92840027966858" lon="13.560025682248526"><ele>825.6</ele><time>2026-03-22T11:45:32Z</time></trkpt><trkpt lat="42.92833701912716" lon="13.560084191983695"><ele>824.0</ele><time>2026-03-22T11:45:33Z</time></trkpt><trkpt lat="42.92825493648719" lon="13.560149493466335"><ele>823.75</ele><time>2026-03-22T11:45:35Z</time></trkpt><trkpt lat="42.92814220805123" lon="13.560164808879088"><ele>823.5</ele><time>2026-03-22T11:45:37Z</time></trkpt><trkpt lat="42.9280614598813" lon="13.560072737385099"><ele>823.25</ele><time>2026-03-22T11:45:39Z</time></trkpt><trkpt lat="42.927965084322906" lon="13.559912993764165"><ele>823.0</ele><time>2026-03-22T11:45:41Z</time></trkpt><trkpt lat="42.927820738889295" lon="13.560038604056173"><ele>823.0</ele><time>2026-03-22T11:45:42Z</time></trkpt><trkpt lat="42.92782574914987" lon="13.560258310263624"><ele>823.0</ele><time>2026-03-22T11:45:43Z</time></trkpt><trkpt lat="42.92802108694321" lon="13.560359439331561"><ele>823.0</ele><time>2026-03-22T11:45:44Z</time></trkpt><trkpt lat="42.92810280902475" lon="13.560455546612095"><ele>819.3333333333333</ele><time>2026-03-22T11:45:45Z</time></trkpt><trkpt lat="42.92821427653067" lon="13.560597717471195"><ele>815.6666666666667</ele><time>2026-03-22T11:45:46Z</time></trkpt><trkpt lat="42.928331735473236" lon="13.560774927058311"><ele>812.0</ele><time>2026-03-22T11:45:47Z</time></trkpt><trkpt lat="42.9284453099449" lon="13.560933359930226"><ele>812.0</ele><time>2026-03-22T11:45:48Z</time></trkpt><trkpt lat="42.92853966378929" lon="13.560998381852258"><ele>812.0</ele><time>2026-03-22T11:45:49Z</time></trkpt><trkpt lat="42.928618738148394" lon="13.561007149214989"><ele>812.0</ele><time>2026-03-22T11:45:50Z</time></trkpt><trkpt lat="42.92870266049507" lon="13.560985519165397"><ele>812.0</ele><time>2026-03-22T11:45:51Z</time></trkpt><trkpt lat="42.92879826812448" lon="13.560971900757831"><ele>812.0</ele><time>2026-03-22T11:45:52Z</time></trkpt><trkpt lat="42.928909257569245" lon="13.560988740909737"><ele>812.0000000000001</ele><time>2026-03-22T11:45:53Z</time></trkpt><trkpt lat="42.92897738442709" lon="13.561036136280133"><ele>812.0</ele><time>2026-03-22T11:45:54Z</time></trkpt><trkpt lat="42.92906628535651" lon="13.561076515684867"><ele>812.0</ele><time>2026-03-22T11:45:56Z</time></trkpt><trkpt lat="42.929048264485104" lon="13.561179504236321"><ele>812.0</ele><time>2026-03-22T11:45:57Z</time></trkpt><trkpt lat="42.9289679491139" lon="13.561214829054766"><ele>812.0000000000001</ele><time>2026-03-22T11:45:58Z</time></trkpt><trkpt lat="42.92890201660169" lon="13.561186576277057"><ele>812.0</ele><time>2026-03-22T11:45:59Z</time></trkpt><trkpt lat="42.92872292750415" lon="13.561282860067083"><ele>805.2</ele><time>2026-03-22T11:46:01Z</time></trkpt><trkpt lat="42.92860954209693" lon="13.561401039599707"><ele>798.4000000000001</ele><time>2026-03-22T11:46:01.999Z</time></trkpt><trkpt lat="42.9285467644918" lon="13.561449196334612"><ele>791.5999999999999</ele><time>2026-03-22T11:46:02.999Z</time></trkpt><trkpt lat="42.928460545465114" lon="13.561476905101468"><ele>784.8</ele><time>2026-03-22T11:46:04.999Z</time></trkpt><trkpt lat="42.928372125990364" lon="13.561474844639914"><ele>778.0</ele><time>2026-03-22T11:46:05.999Z</time></trkpt><trkpt lat="42.92829518731727" lon="13.561389411953801"><ele>777.5999999999999</ele><time>2026-03-22T11:46:06.999Z</time></trkpt><trkpt lat="42.928206602529016" lon="13.561303526966306"><ele>777.1999999999999</ele><time>2026-03-22T11:46:07.999Z</time></trkpt><trkpt lat="42.928144087327574" lon="13.561193554106602"><ele>776.8</ele><time>2026-03-22T11:46:08.999Z</time></trkpt><trkpt lat="42.92809858374261" lon="13.56108949918358"><ele>776.4</ele><time>2026-03-22T11:46:09.999Z</time></trkpt><trkpt lat="42.92801706412288" lon="13.56100972808922"><ele>776.0</ele><time>2026-03-22T11:46:10.999Z</time></trkpt><trkpt lat="42.927945756223565" lon="13.560943557083995"><ele>780.0000000000001</ele><time>2026-03-22T11:46:11.999Z</time></trkpt><trkpt lat="42.927879915603455" lon="13.560898147800142"><ele>784.0</ele><time>2026-03-22T11:46:12.999Z</time></trkpt><trkpt lat="42.92783089342603" lon="13.560842309441371"><ele>788.0</ele><time>2026-03-22T11:46:13.999Z</time></trkpt><trkpt lat="42.92776781524939" lon="13.560803739886854"><ele>792.0</ele><time>2026-03-22T11:46:14.999Z</time></trkpt><trkpt lat="42.927689881143" lon="13.560786881588898"><ele>796.0000000000001</ele><time>2026-03-22T11:46:15.999Z</time></trkpt><trkpt lat="42.927599049840616" lon="13.560814321958807"><ele>800.0</ele><time>2026-03-22T11:46:16.999Z</time></trkpt><trkpt lat="42.92751287568948" lon="13.560916295395257"><ele>800.25</ele><time>2026-03-22T11:46:17.999Z</time></trkpt><trkpt lat="42.927508256451326" lon="13.561130037308171"><ele>800.5</ele><time>2026-03-22T11:46:18.999Z</time></trkpt><trkpt lat="42.927591106595926" lon="13.561294786764757"><ele>800.75</ele><time>2026-03-22T11:46:19.999Z</time></trkpt><trkpt lat="42.92761484697038" lon="13.561436913514514"><ele>801.0</ele><time>2026-03-22T11:46:20.999Z</time></trkpt><trkpt lat="42.92761656599214" lon="13.561577434294522"><ele>796.0</ele><time>2026-03-22T11:46:21.999Z</time></trkpt><trkpt lat="42.92761172535817" lon="13.561741361124504"><ele>791.0</ele><time>2026-03-22T11:46:22.999Z</time></trkpt><trkpt lat="42.92759878073333" lon="13.561873359644634"><ele>786.0</ele><time>2026-03-22T11:46:23.999Z</time></trkpt><trkpt lat="42.92757520789299" lon="13.561979302279498"><ele>781.0</ele><time>2026-03-22T11:46:24.999Z</time></trkpt><trkpt lat="42.9275185789636" lon="13.562071949141055"><ele>776.0</ele><time>2026-03-22T11:46:25.999Z</time></trkpt><trkpt lat="42.92749097727186" lon="13.562179356057994"><ele>773.8</ele><time>2026-03-22T11:46:26.999Z</time></trkpt><trkpt lat="42.92748573647528" lon="13.562322655214139"><ele>771.5999999999999</ele><time>2026-03-22T11:46:27.999Z</time></trkpt><trkpt lat="42.92756268595051" lon="13.562467689940526"><ele>769.4</ele><time>2026-03-22T11:46:28.999Z</time></trkpt><trkpt lat="42.92764609492459" lon="13.562533928721598"><ele>767.2</ele><time>2026-03-22T11:46:29.999Z</time></trkpt><trkpt lat="42.927724297062376" lon="13.562550071638453"><ele>765.0</ele><time>2026-03-22T11:46:30.999Z</time></trkpt><trkpt lat="42.927807391110285" lon="13.56243871965964"><ele>764.3333333333334</ele><time>2026-03-22T11:46:32.999Z</time></trkpt><trkpt lat="42.9278036189762" lon="13.562332611935311"><ele>763.6666666666666</ele><time>2026-03-22T11:46:34.999Z</time></trkpt><trkpt lat="42.92778987566948" lon="13.562218964197742"><ele>763.0</ele><time>2026-03-22T11:46:35.999Z</time></trkpt><trkpt lat="42.92775583769288" lon="13.562073960827355"><ele>762.3333333333333</ele><time>2026-03-22T11:46:36.999Z</time></trkpt><trkpt lat="42.927747209707974" lon="13.561958270741785"><ele>761.6666666666666</ele><time>2026-03-22T11:46:37.999Z</time></trkpt><trkpt lat="42.92775822558468" lon="13.561844173604197"><ele>761.0</ele><time>2026-03-22T11:46:38.999Z</time></trkpt><trkpt lat="42.92779834419774" lon="13.56173990302361"><ele>761.0</ele><time>2026-03-22T11:46:39.999Z</time></trkpt><trkpt lat="42.927884532932865" lon="13.561655477119693"><ele>761.0</ele><time>2026-03-22T11:46:40.999Z</time></trkpt><trkpt lat="42.92802891322213" lon="13.56173714662738"><ele>761.0</ele><time>2026-03-22T11:46:41.999Z</time></trkpt><trkpt lat="42.92804844794326" lon="13.56193570253263"><ele>761.0</ele><time>2026-03-22T11:46:42.999Z</time></trkpt><trkpt lat="42.92811827621736" lon="13.562076467010673"><ele>761.0</ele><time>2026-03-22T11:46:43.999Z</time></trkpt><trkpt lat="42.92820237078446" lon="13.562280682051371"><ele>761.0</ele><time>2026-03-22T11:46:44.999Z</time></trkpt><trkpt lat="42.928295826313104" lon="13.56250408747883"><ele>761.0</ele><time>2026-03-22T11:46:45.999Z</time></trkpt><trkpt lat="42.928385321769035" lon="13.562720073825956"><ele>758.25</ele><time>2026-03-22T11:46:46.999Z</time></trkpt><trkpt lat="42.92844182786781" lon="13.56291193733013"><ele>755.5</ele><time>2026-03-22T11:46:47.999Z</time></trkpt><trkpt lat="42.928462605089976" lon="13.563085704021706"><ele>752.75</ele><time>2026-03-22T11:46:48.999Z</time></trkpt><trkpt lat="42.92848106263124" lon="13.563259015834099"><ele>750.0</ele><time>2026-03-22T11:46:49.998Z</time></trkpt><trkpt lat="42.92850368115898" lon="13.563379858074876"><ele>750.0</ele><time>2026-03-22T11:46:50.998Z</time></trkpt><trkpt lat="42.92857338469222" lon="13.563475508624755"><ele>750.0</ele><time>2026-03-22T11:46:51.998Z</time></trkpt><trkpt lat="42.9286605753792" lon="13.563520966220642"><ele>750.0</ele><time>2026-03-22T11:46:52.998Z</time></trkpt><trkpt lat="42.928770361087295" lon="13.56360682044444"><ele>750.0</ele><time>2026-03-22T11:46:53.998Z</time></trkpt><trkpt lat="42.92892035333354" lon="13.563713502200669"><ele>747.0</ele><time>2026-03-22T11:46:54.998Z</time></trkpt><trkpt lat="42.92905548908678" lon="13.5638383107419"><ele>744.0</ele><time>2026-03-22T11:46:55.998Z</time></trkpt><trkpt lat="42.92915285528955" lon="13.563960112326866"><ele>741.0</ele><time>2026-03-22T11:46:56.998Z</time></trkpt><trkpt lat="42.92923596949387" lon="13.564093110667176"><ele>738.0</ele><time>2026-03-22T11:46:57.998Z</time></trkpt><trkpt lat="42.92934688255385" lon="13.564228207015613"><ele>737.0</ele><time>2026-03-22T11:46:58.998Z</time></trkpt><trkpt lat="42.92946339153843" lon="13.564340186777207"><ele>736.0</ele><time>2026-03-22T11:46:59.998Z</time></trkpt><trkpt lat="42.92955148597493" lon="13.564468479071389"><ele>735.0</ele><time>2026-03-22T11:47:00.998Z</time></trkpt><trkpt lat="42.92963546587034" lon="13.564555894900838"><ele>734.0</ele><time>2026-03-22T11:47:01.998Z</time></trkpt><trkpt lat="42.92970088927264" lon="13.564617626303152"><ele>734.0</ele><time>2026-03-22T11:47:02.998Z</time></trkpt><trkpt lat="42.929761694485" lon="13.564642675356867"><ele>734.0</ele><time>2026-03-22T11:47:03.998Z</time></trkpt><trkpt lat="42.929820373010735" lon="13.564550936224883"><ele>734.0</ele><time>2026-03-22T11:47:04.998Z</time></trkpt><trkpt lat="42.92986805488889" lon="13.564454754712932"><ele>734.0</ele><time>2026-03-22T11:47:05.998Z</time></trkpt><trkpt lat="42.92996132907305" lon="13.564300287792705"><ele>734.0</ele><time>2026-03-22T11:47:06.998Z</time></trkpt><trkpt lat="42.930118064245164" lon="13.564091139071898"><ele>729.0</ele><time>2026-03-22T11:47:07.998Z</time></trkpt><trkpt lat="42.930268585592735" lon="13.563890982251017"><ele>724.0</ele><time>2026-03-22T11:47:08.998Z</time></trkpt><trkpt lat="42.930401527905474" lon="13.563722686387026"><ele>719.0</ele><time>2026-03-22T11:47:09.998Z</time></trkpt><trkpt lat="42.93050080344832" lon="13.56358898726091"><ele>719.0</ele><time>2026-03-22T11:47:10.998Z</time></trkpt><trkpt lat="42.93057929433539" lon="13.563446228659744"><ele>719.0</ele><time>2026-03-22T11:47:11.998Z</time></trkpt><trkpt lat="42.93063445947914" lon="13.563358620845658"><ele>719.0</ele><time>2026-03-22T11:47:12.998Z</time></trkpt><trkpt lat="42.93070263735035" lon="13.563288955793361"><ele>719.0</ele><time>2026-03-22T11:47:13.998Z</time></trkpt><trkpt lat="42.9307796365622" lon="13.563266682552248"><ele>719.0</ele><time>2026-03-22T11:47:14.998Z</time></trkpt><trkpt lat="42.93087394144818" lon="13.563339063287314"><ele>719.0</ele><time>2026-03-22T11:47:15.998Z</time></trkpt><trkpt lat="42.930907284499085" lon="13.563491211880422"><ele>719.0</ele><time>2026-03-22T11:47:16.998Z</time></trkpt><trkpt lat="42.93089511866403" lon="13.563614309379263"><ele>719.0</ele><time>2026-03-22T11:47:17.998Z</time></trkpt><trkpt lat="42.93082574445488" lon="13.563672697146893"><ele>719.0</ele><time>2026-03-22T11:47:18.998Z</time></trkpt><trkpt lat="42.93076424115781" lon="13.563730376788342"><ele>719.0</ele><time>2026-03-22T11:47:19.998Z</time></trkpt><trkpt lat="42.93065324341828" lon="13.563866718333907"><ele>716.3333333333333</ele><time>2026-03-22T11:47:20.998Z</time></trkpt><trkpt lat="42.93053657888174" lon="13.56409863509282"><ele>713.6666666666666</ele><time>2026-03-22T11:47:21.998Z</time></trkpt><trkpt lat="42.93042590976766" lon="13.564337493148544"><ele>711.0</ele><time>2026-03-22T11:47:22.998Z</time></trkpt><trkpt lat="42.930310207280044" lon="13.564568057079605"><ele>712.6666666666666</ele><time>2026-03-22T11:47:23.998Z</time></trkpt><trkpt lat="42.930205226173776" lon="13.564767232612237"><ele>714.3333333333333</ele><time>2026-03-22T11:47:24.998Z</time></trkpt><trkpt lat="42.93011699430217" lon="13.564930876341625"><ele>716.0</ele><time>2026-03-22T11:47:25.998Z</time></trkpt><trkpt lat="42.93003326786221" lon="13.565081132182096"><ele>716.0</ele><time>2026-03-22T11:47:26.998Z</time></trkpt><trkpt lat="42.92997044482421" lon="13.565193840980916"><ele>716.0</ele><time>2026-03-22T11:47:27.998Z</time></trkpt><trkpt lat="42.92992195618284" lon="13.565278961120814"><ele>716.0</ele><time>2026-03-22T11:47:29Z</time></trkpt><trkpt lat="42.92987425858157" lon="13.565366029434246"><ele>716.0</ele><time>2026-03-22T11:47:30Z</time></trkpt><trkpt lat="42.929847922646346" lon="13.56549644410249"><ele>716.0</ele><time>2026-03-22T11:47:31Z</time></trkpt><trkpt lat="42.92986844887204" lon="13.56563673263362"><ele>709.3333333333333</ele><time>2026-03-22T11:47:32Z</time></trkpt><trkpt lat="42.93005999250933" lon="13.56570392224689"><ele>702.6666666666666</ele><time>2026-03-22T11:47:33Z</time></trkpt><trkpt lat="42.930165223018335" lon="13.56576891705112"><ele>696.0</ele><time>2026-03-22T11:47:34Z</time></trkpt><trkpt lat="42.93033059257347" lon="13.565866148668581"><ele>696.0</ele><time>2026-03-22T11:47:35Z</time></trkpt><trkpt lat="42.930513400455084" lon="13.565978597430107"><ele>696.0</ele><time>2026-03-22T11:47:36Z</time></trkpt><trkpt lat="42.93070069356948" lon="13.566083859627572"><ele>696.0</ele><time>2026-03-22T11:47:37Z</time></trkpt><trkpt lat="42.93087433182509" lon="13.566054290196991"><ele>694.3333333333334</ele><time>2026-03-22T11:47:38Z</time></trkpt><trkpt lat="42.931047359454446" lon="13.566009943061344"><ele>692.6666666666667</ele><time>2026-03-22T11:47:39Z</time></trkpt><trkpt lat="42.93121233841339" lon="13.565958228169363"><ele>691.0</ele><time>2026-03-22T11:47:40Z</time></trkpt><trkpt lat="42.93136153835602" lon="13.565934984199274"><ele>691.0</ele><time>2026-03-22T11:47:41Z</time></trkpt><trkpt lat="42.93150246971431" lon="13.565928032965056"><ele>691.0</ele><time>2026-03-22T11:47:42Z</time></trkpt><trkpt lat="42.931648988138264" lon="13.565938316723376"><ele>691.0</ele><time>2026-03-22T11:47:43Z</time></trkpt><trkpt lat="42.93180798371397" lon="13.565967943388069"><ele>691.0</ele><time>2026-03-22T11:47:44Z</time></trkpt><trkpt lat="42.9320041446227" lon="13.566017452094274"><ele>688.6666666666667</ele><time>2026-03-22T11:47:45Z</time></trkpt><trkpt lat="42.93218722352565" lon="13.56604757209893"><ele>686.3333333333334</ele><time>2026-03-22T11:47:46Z</time></trkpt><trkpt lat="42.93233183948026" lon="13.56608809682401"><ele>684.0</ele><time>2026-03-22T11:47:47Z</time></trkpt><trkpt lat="42.9324889817611" lon="13.56610362245414"><ele>682.0</ele><time>2026-03-22T11:47:48Z</time></trkpt><trkpt lat="42.93259977971688" lon="13.566122298163489"><ele>680.0</ele><time>2026-03-22T11:47:49Z</time></trkpt><trkpt lat="42.93268054190116" lon="13.566142435550859"><ele>678.0</ele><time>2026-03-22T11:47:50Z</time></trkpt><trkpt lat="42.93274459775092" lon="13.566190359595588"><ele>676.0</ele><time>2026-03-22T11:47:51Z</time></trkpt><trkpt lat="42.93275237554109" lon="13.566311266948336"><ele>674.0</ele><time>2026-03-22T11:47:52Z</time></trkpt><trkpt lat="42.93271089283739" lon="13.56638209646843"><ele>672.0</ele><time>2026-03-22T11:47:53Z</time></trkpt><trkpt lat="42.93264551816249" lon="13.566416113290343"><ele>672.0</ele><time>2026-03-22T11:47:54Z</time></trkpt><trkpt lat="42.932577423336824" lon="13.566559085869862"><ele>672.0</ele><time>2026-03-22T11:47:55Z</time></trkpt><trkpt lat="42.932503617430726" lon="13.566792976410166"><ele>672.0</ele><time>2026-03-22T11:47:56Z</time></trkpt><trkpt lat="42.93251417986102" lon="13.567082383842699"><ele>672.6666666666666</ele><time>2026-03-22T11:47:57Z</time></trkpt><trkpt lat="42.9325298055487" lon="13.567341512954936"><ele>673.3333333333333</ele><time>2026-03-22T11:47:58Z</time></trkpt><trkpt lat="42.932554642003375" lon="13.567577740906922"><ele>674.0</ele><time>2026-03-22T11:47:59Z</time></trkpt><trkpt lat="42.932616772695035" lon="13.567772337787462"><ele>675.0</ele><time>2026-03-22T11:48:00Z</time></trkpt><trkpt lat="42.932691917242515" lon="13.567920632579929"><ele>676.0</ele><time>2026-03-22T11:48:01Z</time></trkpt><trkpt lat="42.932785152826185" lon="13.56803736297346"><ele>677.0</ele><time>2026-03-22T11:48:02Z</time></trkpt><trkpt lat="42.93287327452978" lon="13.568130367219638"><ele>678.0</ele><time>2026-03-22T11:48:03Z</time></trkpt><trkpt lat="42.93294280889941" lon="13.568191304661664"><ele>678.0</ele><time>2026-03-22T11:48:04Z</time></trkpt><trkpt lat="42.93299788527467" lon="13.56824303846479"><ele>678.0</ele><time>2026-03-22T11:48:05Z</time></trkpt><trkpt lat="42.93309514666508" lon="13.5683066362137"><ele>678.0</ele><time>2026-03-22T11:48:06.999Z</time></trkpt><trkpt lat="42.93316044167862" lon="13.568370842158133"><ele>678.0</ele><time>2026-03-22T11:48:08.999Z</time></trkpt><trkpt lat="42.933245394650946" lon="13.568444714378717"><ele>678.0</ele><time>2026-03-22T11:48:40.999Z</time></trkpt><trkpt lat="42.93335062614657" lon="13.568505615061248"><ele>675.5</ele><time>2026-03-22T11:48:41.999Z</time></trkpt><trkpt lat="42.93346278129569" lon="13.568559479958283"><ele>673.0</ele><time>2026-03-22T11:48:42.999Z</time></trkpt><trkpt lat="42.93358300263914" lon="13.568608480204514"><ele>670.5</ele><time>2026-03-22T11:48:43.999Z</time></trkpt><trkpt lat="42.93367998263868" lon="13.56863932985701"><ele>668.0</ele><time>2026-03-22T11:48:44.999Z</time></trkpt><trkpt lat="42.93378063733225" lon="13.568686987727347"><ele>665.25</ele><time>2026-03-22T11:48:45.999Z</time></trkpt><trkpt lat="42.9339147445717" lon="13.568729763505464"><ele>662.5</ele><time>2026-03-22T11:48:46.999Z</time></trkpt><trkpt lat="42.93402209158417" lon="13.56874718627832"><ele>659.75</ele><time>2026-03-22T11:48:47.999Z</time></trkpt><trkpt lat="42.93412389088327" lon="13.568726032255444"><ele>657.0</ele><time>2026-03-22T11:48:48.999Z</time></trkpt><trkpt lat="42.93422416229826" lon="13.568742023450984"><ele>656.4000000000001</ele><time>2026-03-22T11:48:49.999Z</time></trkpt><trkpt lat="42.93431883357984" lon="13.568733465387163"><ele>655.8000000000001</ele><time>2026-03-22T11:48:50.999Z</time></trkpt><trkpt lat="42.93440929964671" lon="13.568717171224923"><ele>655.2</ele><time>2026-03-22T11:48:51.999Z</time></trkpt><trkpt lat="42.93450262968359" lon="13.568721833576905"><ele>654.6</ele><time>2026-03-22T11:48:52.999Z</time></trkpt><trkpt lat="42.93459364265255" lon="13.568694986375428"><ele>654.0</ele><time>2026-03-22T11:48:53.998Z</time></trkpt><trkpt lat="42.934683225114014" lon="13.568689652311297"><ele>654.0</ele><time>2026-03-22T11:48:54.998Z</time></trkpt><trkpt lat="42.934767021572384" lon="13.568687248467818"><ele>654.0</ele><time>2026-03-22T11:48:55.998Z</time></trkpt><trkpt lat="42.93483886085004" lon="13.568669527759381"><ele>654.0</ele><time>2026-03-22T11:48:56.998Z</time></trkpt><trkpt lat="42.93490326834857" lon="13.568666655074672"><ele>654.0</ele><time>2026-03-22T11:48:57.998Z</time></trkpt><trkpt lat="42.934950556231605" lon="13.568604462335015"><ele>654.0</ele><time>2026-03-22T11:48:58.998Z</time></trkpt><trkpt lat="42.934893028070945" lon="13.568442711938557"><ele>654.0</ele><time>2026-03-22T11:49:00.998Z</time></trkpt><trkpt lat="42.93487720447959" lon="13.56834801421389"><ele>654.0</ele><time>2026-03-22T11:49:01.998Z</time></trkpt><trkpt lat="42.93479098345802" lon="13.568264000953421"><ele>654.0</ele><time>2026-03-22T11:49:02.998Z</time></trkpt><trkpt lat="42.93470436786191" lon="13.568183158131786"><ele>654.0</ele><time>2026-03-22T11:49:03.998Z</time></trkpt><trkpt lat="42.934649804791086" lon="13.568084241125957"><ele>654.0</ele><time>2026-03-22T11:49:04.998Z</time></trkpt><trkpt lat="42.934587268615175" lon="13.567995823915386"><ele>654.0</ele><time>2026-03-22T11:49:05.998Z</time></trkpt><trkpt lat="42.934551310896815" lon="13.567888978918306"><ele>652.2</ele><time>2026-03-22T11:49:06.998Z</time></trkpt><trkpt lat="42.93453547715318" lon="13.567772222623292"><ele>650.4000000000001</ele><time>2026-03-22T11:49:07.998Z</time></trkpt><trkpt lat="42.93455555019084" lon="13.567600729925338"><ele>648.6</ele><time>2026-03-22T11:49:08.998Z</time></trkpt><trkpt lat="42.934615865287086" lon="13.567473095725541"><ele>646.8</ele><time>2026-03-22T11:49:09.998Z</time></trkpt><trkpt lat="42.93468487053337" lon="13.567385944592877"><ele>645.0</ele><time>2026-03-22T11:49:10.998Z</time></trkpt><trkpt lat="42.93477513032356" lon="13.567333242770706"><ele>645.0</ele><time>2026-03-22T11:49:11.998Z</time></trkpt><trkpt lat="42.934875638909226" lon="13.567340320573146"><ele>645.0</ele><time>2026-03-22T11:49:12.998Z</time></trkpt><trkpt lat="42.93494776187977" lon="13.567496089364376"><ele>645.0</ele><time>2026-03-22T11:49:13.998Z</time></trkpt><trkpt lat="42.9350322892054" lon="13.56761150425336"><ele>645.0</ele><time>2026-03-22T11:49:14.998Z</time></trkpt><trkpt lat="42.93514730634635" lon="13.567759588699213"><ele>641.6666666666666</ele><time>2026-03-22T11:49:15.998Z</time></trkpt><trkpt lat="42.935283002368806" lon="13.567919402266327"><ele>638.3333333333333</ele><time>2026-03-22T11:49:16.998Z</time></trkpt><trkpt lat="42.935425510038634" lon="13.568073703505224"><ele>635.0</ele><time>2026-03-22T11:49:17.998Z</time></trkpt><trkpt lat="42.93554340489312" lon="13.568200960173872"><ele>635.0</ele><time>2026-03-22T11:49:18.998Z</time></trkpt><trkpt lat="42.935640712519216" lon="13.568305581000136"><ele>635.0</ele><time>2026-03-22T11:49:19.998Z</time></trkpt><trkpt lat="42.93572291946758" lon="13.56839018207655"><ele>635.0</ele><time>2026-03-22T11:49:20.998Z</time></trkpt><trkpt lat="42.93579866347542" lon="13.568442526264962"><ele>635.0</ele><time>2026-03-22T11:49:21.998Z</time></trkpt><trkpt lat="42.93588237105398" lon="13.568546376848662"><ele>635.0</ele><time>2026-03-22T11:49:23.998Z</time></trkpt><trkpt lat="42.935934065258" lon="13.568614047641365"><ele>634.2</ele><time>2026-03-22T11:49:25.998Z</time></trkpt><trkpt lat="42.93593874478922" lon="13.568724552644818"><ele>633.4</ele><time>2026-03-22T11:49:28.998Z</time></trkpt><trkpt lat="42.935822576745494" lon="13.568712867566022"><ele>632.6</ele><time>2026-03-22T11:49:29.998Z</time></trkpt><trkpt lat="42.935784502139256" lon="13.568792669549486"><ele>631.8</ele><time>2026-03-22T11:49:30.998Z</time></trkpt><trkpt lat="42.935721806045755" lon="13.568928850376704"><ele>631.0</ele><time>2026-03-22T11:49:31.998Z</time></trkpt><trkpt lat="42.93565468691784" lon="13.569099200624706"><ele>631.0</ele><time>2026-03-22T11:49:32.998Z</time></trkpt><trkpt lat="42.935613301353904" lon="13.569198632650567"><ele>631.0</ele><time>2026-03-22T11:49:33.998Z</time></trkpt><trkpt lat="42.93555754738089" lon="13.569308611031385"><ele>631.0</ele><time>2026-03-22T11:49:36Z</time></trkpt><trkpt lat="42.9356929543613" lon="13.569475307454914"><ele>631.0</ele><time>2026-03-22T11:49:43Z</time></trkpt><trkpt lat="42.93576514942029" lon="13.569471708910516"><ele>631.0</ele><time>2026-03-22T11:49:44Z</time></trkpt><trkpt lat="42.93589880336491" lon="13.56944822988411"><ele>628.3333333333334</ele><time>2026-03-22T11:49:46Z</time></trkpt><trkpt lat="42.93596753280539" lon="13.56943283371904"><ele>625.6666666666667</ele><time>2026-03-22T11:49:47Z</time></trkpt><trkpt lat="42.93602971211733" lon="13.569407699475963"><ele>623.0</ele><time>2026-03-22T11:49:48Z</time></trkpt><trkpt lat="42.936140791547636" lon="13.569378659584418"><ele>620.3333333333334</ele><time>2026-03-22T11:49:50Z</time></trkpt><trkpt lat="42.93621594262314" lon="13.569268917505143"><ele>617.6666666666666</ele><time>2026-03-22T11:49:52Z</time></trkpt><trkpt lat="42.93628719503696" lon="13.569210604004398"><ele>615.0</ele><time>2026-03-22T11:49:54Z</time></trkpt><trkpt lat="42.9363803411133" lon="13.569234139069406"><ele>615.0</ele><time>2026-03-22T11:49:56Z</time></trkpt><trkpt lat="42.936476773686124" lon="13.569293923595517"><ele>615.0</ele><time>2026-03-22T11:49:57Z</time></trkpt><trkpt lat="42.93657333692323" lon="13.569383880529452"><ele>615.0</ele><time>2026-03-22T11:49:58Z</time></trkpt><trkpt lat="42.93666483667018" lon="13.569454380638426"><ele>615.0</ele><time>2026-03-22T11:49:59Z</time></trkpt><trkpt lat="42.93675203452332" lon="13.569562939097164"><ele>615.0</ele><time>2026-03-22T11:50:00Z</time></trkpt><trkpt lat="42.936848088229375" lon="13.569647116839663"><ele>611.4</ele><time>2026-03-22T11:50:01Z</time></trkpt><trkpt lat="42.936944379292264" lon="13.569708425750612"><ele>607.8</ele><time>2026-03-22T11:50:02Z</time></trkpt><trkpt lat="42.93703066432174" lon="13.569777626996748"><ele>604.2</ele><time>2026-03-22T11:50:03Z</time></trkpt><trkpt lat="42.93711043526692" lon="13.569839895895145"><ele>600.6</ele><time>2026-03-22T11:50:03.999Z</time></trkpt><trkpt lat="42.937166232217" lon="13.569926054831493"><ele>597.0</ele><time>2026-03-22T11:50:04.999Z</time></trkpt><trkpt lat="42.93720411791375" lon="13.57005327178656"><ele>597.0</ele><time>2026-03-22T11:50:06.999Z</time></trkpt><trkpt lat="42.93709415776139" lon="13.570123608491711"><ele>597.0</ele><time>2026-03-22T11:50:08.999Z</time></trkpt><trkpt lat="42.937029262211695" lon="13.570157648155728"><ele>597.0</ele><time>2026-03-22T11:50:09.999Z</time></trkpt><trkpt lat="42.936961857017465" lon="13.570264858813388"><ele>597.0</ele><time>2026-03-22T11:50:10.999Z</time></trkpt><trkpt lat="42.93691196779757" lon="13.570351435279873"><ele>597.0</ele><time>2026-03-22T11:50:11.999Z</time></trkpt><trkpt lat="42.93687260435566" lon="13.57044896452304"><ele>595.5</ele><time>2026-03-22T11:50:12.999Z</time></trkpt><trkpt lat="42.93686519929042" lon="13.570604430142074"><ele>594.0</ele><time>2026-03-22T11:50:13.999Z</time></trkpt><trkpt lat="42.93687707930704" lon="13.57072611133375"><ele>592.5</ele><time>2026-03-22T11:50:14.999Z</time></trkpt><trkpt lat="42.93696761989278" lon="13.57087096651209"><ele>591.0</ele><time>2026-03-22T11:50:15.999Z</time></trkpt><trkpt lat="42.937075360049" lon="13.570940166711194"><ele>591.0</ele><time>2026-03-22T11:50:16.999Z</time></trkpt><trkpt lat="42.93717655259296" lon="13.571038377075332"><ele>591.0</ele><time>2026-03-22T11:50:17.999Z</time></trkpt><trkpt lat="42.93729207266331" lon="13.571108729915599"><ele>591.0</ele><time>2026-03-22T11:50:18.999Z</time></trkpt><trkpt lat="42.93742160940136" lon="13.571214451468919"><ele>591.0</ele><time>2026-03-22T11:50:19.999Z</time></trkpt><trkpt lat="42.93749429926038" lon="13.571339053785644"><ele>588.5</ele><time>2026-03-22T11:50:20.999Z</time></trkpt><trkpt lat="42.93755902212889" lon="13.571378707180514"><ele>586.0</ele><time>2026-03-22T11:50:21.999Z</time></trkpt><trkpt lat="42.93767583294361" lon="13.571497875937828"><ele>583.5</ele><time>2026-03-22T11:50:22.999Z</time></trkpt><trkpt lat="42.937817662634444" lon="13.571574661033525"><ele>581.0</ele><time>2026-03-22T11:50:23.999Z</time></trkpt><trkpt lat="42.937950196150766" lon="13.571638924846045"><ele>581.0</ele><time>2026-03-22T11:50:24.999Z</time></trkpt><trkpt lat="42.93806136169806" lon="13.57170303862318"><ele>581.0</ele><time>2026-03-22T11:50:25.999Z</time></trkpt><trkpt lat="42.93814311954799" lon="13.571760168952657"><ele>581.0</ele><time>2026-03-22T11:50:26.999Z</time></trkpt><trkpt lat="42.9382292092679" lon="13.571845132193406"><ele>581.0</ele><time>2026-03-22T11:50:27.999Z</time></trkpt><trkpt lat="42.93830285754104" lon="13.571920852737513"><ele>581.0</ele><time>2026-03-22T11:50:28.999Z</time></trkpt><trkpt lat="42.93837345643575" lon="13.571984451981798"><ele>577.8333333333333</ele><time>2026-03-22T11:50:29.999Z</time></trkpt><trkpt lat="42.938428225936626" lon="13.57206085900333"><ele>574.6666666666666</ele><time>2026-03-22T11:50:30.999Z</time></trkpt><trkpt lat="42.938477450431236" lon="13.572141458213816"><ele>571.5</ele><time>2026-03-22T11:50:31.999Z</time></trkpt><trkpt lat="42.93851608338126" lon="13.57223581883054"><ele>568.3333333333334</ele><time>2026-03-22T11:50:32.999Z</time></trkpt><trkpt lat="42.938556537240515" lon="13.572335550375204"><ele>565.1666666666667</ele><time>2026-03-22T11:50:33.999Z</time></trkpt><trkpt lat="42.9385966312607" lon="13.572438354470657"><ele>562.0</ele><time>2026-03-22T11:50:34.999Z</time></trkpt><trkpt lat="42.9386421408004" lon="13.572550008693431"><ele>562.0</ele><time>2026-03-22T11:50:35.999Z</time></trkpt><trkpt lat="42.93868967484221" lon="13.57265383616037"><ele>562.0</ele><time>2026-03-22T11:50:36.999Z</time></trkpt><trkpt lat="42.93873865789718" lon="13.572757582133331"><ele>562.0</ele><time>2026-03-22T11:50:37.999Z</time></trkpt><trkpt lat="42.93878783883338" lon="13.572861747156685"><ele>562.0</ele><time>2026-03-22T11:50:38.999Z</time></trkpt><trkpt lat="42.93883857955047" lon="13.572960431685573"><ele>562.0</ele><time>2026-03-22T11:50:39.999Z</time></trkpt><trkpt lat="42.938894432759284" lon="13.57305936814892"><ele>562.0</ele><time>2026-03-22T11:50:40.999Z</time></trkpt><trkpt lat="42.93895317426276" lon="13.573149317456314"><ele>562.0</ele><time>2026-03-22T11:50:41.999Z</time></trkpt><trkpt lat="42.93901108965023" lon="13.573224003289965"><ele>562.0</ele><time>2026-03-22T11:50:42.999Z</time></trkpt><trkpt lat="42.93908959608477" lon="13.573301169891929"><ele>562.0</ele><time>2026-03-22T11:50:43.999Z</time></trkpt><trkpt lat="42.93916036493288" lon="13.573357646634305"><ele>562.0</ele><time>2026-03-22T11:50:44.999Z</time></trkpt><trkpt lat="42.939236106395256" lon="13.57339864241833"><ele>562.0</ele><time>2026-03-22T11:50:45.999Z</time></trkpt><trkpt lat="42.93935547647848" lon="13.573454125471457"><ele>555.6</ele><time>2026-03-22T11:50:47.999Z</time></trkpt><trkpt lat="42.939430479364944" lon="13.57344843239834"><ele>549.2</ele><time>2026-03-22T11:50:48.999Z</time></trkpt><trkpt lat="42.93950178093118" lon="13.573360776762053"><ele>542.8</ele><time>2026-03-22T11:50:49.999Z</time></trkpt><trkpt lat="42.939621111837425" lon="13.573317380401468"><ele>536.4</ele><time>2026-03-22T11:50:51.999Z</time></trkpt><trkpt lat="42.939681811869484" lon="13.57335250423539"><ele>530.0</ele><time>2026-03-22T11:50:52.999Z</time></trkpt><trkpt lat="42.939718881775185" lon="13.573523643033093"><ele>530.0</ele><time>2026-03-22T11:50:54.999Z</time></trkpt><trkpt lat="42.939779739141215" lon="13.57361031722178"><ele>530.0</ele><time>2026-03-22T11:50:55.998Z</time></trkpt><trkpt lat="42.939836412577115" lon="13.573749402669387"><ele>530.0</ele><time>2026-03-22T11:50:56.998Z</time></trkpt><trkpt lat="42.939901491928445" lon="13.57387183946359"><ele>530.0</ele><time>2026-03-22T11:50:57.998Z</time></trkpt><trkpt lat="42.939955834923396" lon="13.573994083152174"><ele>530.0</ele><time>2026-03-22T11:50:58.998Z</time></trkpt><trkpt lat="42.940015144877954" lon="13.57410986510549"><ele>527.2</ele><time>2026-03-22T11:50:59.998Z</time></trkpt><trkpt lat="42.94008557146449" lon="13.574245906844126"><ele>524.4</ele><time>2026-03-22T11:51:00.998Z</time></trkpt><trkpt lat="42.94015033797514" lon="13.5743717170789"><ele>521.6</ele><time>2026-03-22T11:51:01.998Z</time></trkpt><trkpt lat="42.94021074151314" lon="13.574493640461391"><ele>518.8</ele><time>2026-03-22T11:51:02.998Z</time></trkpt><trkpt lat="42.94026340694471" lon="13.574613294723154"><ele>516.0</ele><time>2026-03-22T11:51:03.998Z</time></trkpt><trkpt lat="42.94030816434022" lon="13.574728010244918"><ele>516.0</ele><time>2026-03-22T11:51:04.998Z</time></trkpt><trkpt lat="42.940352093014894" lon="13.574839191618066"><ele>516.0</ele><time>2026-03-22T11:51:05.998Z</time></trkpt><trkpt lat="42.94039682836221" lon="13.574948361275467"><ele>516.0</ele><time>2026-03-22T11:51:06.998Z</time></trkpt><trkpt lat="42.940437192599525" lon="13.575041142916717"><ele>516.0</ele><time>2026-03-22T11:51:07.998Z</time></trkpt><trkpt lat="42.94048923127516" lon="13.575134461416798"><ele>516.0</ele><time>2026-03-22T11:51:08.998Z</time></trkpt><trkpt lat="42.94055190963594" lon="13.57523678964977"><ele>516.0</ele><time>2026-03-22T11:51:09.998Z</time></trkpt><trkpt lat="42.94063460837979" lon="13.575362038759282"><ele>513.75</ele><time>2026-03-22T11:51:10.998Z</time></trkpt><trkpt lat="42.94073324998899" lon="13.575505881723888"><ele>511.5</ele><time>2026-03-22T11:51:11.998Z</time></trkpt><trkpt lat="42.940825001295984" lon="13.575637562476006"><ele>509.25</ele><time>2026-03-22T11:51:12.998Z</time></trkpt><trkpt lat="42.94092755013078" lon="13.57574003836267"><ele>507.0</ele><time>2026-03-22T11:51:13.998Z</time></trkpt><trkpt lat="42.94100884087278" lon="13.575842618984968"><ele>504.40000000000003</ele><time>2026-03-22T11:51:14.998Z</time></trkpt><trkpt lat="42.941100140848256" lon="13.575937504373355"><ele>501.80000000000007</ele><time>2026-03-22T11:51:15.998Z</time></trkpt><trkpt lat="42.94118777727882" lon="13.576010393715729"><ele>499.2</ele><time>2026-03-22T11:51:16.998Z</time></trkpt><trkpt lat="42.94128227395438" lon="13.576068629855897"><ele>496.6</ele><time>2026-03-22T11:51:17.998Z</time></trkpt><trkpt lat="42.94138139059094" lon="13.576120703039964"><ele>494.0</ele><time>2026-03-22T11:51:18.998Z</time></trkpt><trkpt lat="42.94149053838447" lon="13.576186381125975"><ele>493.25</ele><time>2026-03-22T11:51:19.998Z</time></trkpt><trkpt lat="42.941603840285346" lon="13.576250115863367"><ele>492.5</ele><time>2026-03-22T11:51:20.998Z</time></trkpt><trkpt lat="42.94171702112841" lon="13.576301912250567"><ele>491.75</ele><time>2026-03-22T11:51:21.998Z</time></trkpt><trkpt lat="42.94182606177047" lon="13.57635369078574"><ele>491.0</ele><time>2026-03-22T11:51:22.998Z</time></trkpt><trkpt lat="42.94193059418109" lon="13.576406943791504"><ele>488.8</ele><time>2026-03-22T11:51:23.998Z</time></trkpt><trkpt lat="42.9420266478827" lon="13.576458940285777"><ele>486.6</ele><time>2026-03-22T11:51:24.998Z</time></trkpt><trkpt lat="42.94212484661145" lon="13.576496226112912"><ele>484.4</ele><time>2026-03-22T11:51:25.998Z</time></trkpt><trkpt lat="42.94221257799535" lon="13.576513658509723"><ele>482.2</ele><time>2026-03-22T11:51:26.998Z</time></trkpt><trkpt lat="42.942300676619254" lon="13.576497032957725"><ele>480.0</ele><time>2026-03-22T11:51:27.998Z</time></trkpt><trkpt lat="42.942376371142494" lon="13.576509862458321"><ele>480.0</ele><time>2026-03-22T11:51:28.998Z</time></trkpt><trkpt lat="42.9424524856104" lon="13.576522763110365"><ele>480.0</ele><time>2026-03-22T11:51:29.998Z</time></trkpt><trkpt lat="42.94251092863343" lon="13.576581274838947"><ele>480.0</ele><time>2026-03-22T11:51:30.998Z</time></trkpt><trkpt lat="42.94253012042835" lon="13.576681416465213"><ele>480.0</ele><time>2026-03-22T11:51:31.998Z</time></trkpt><trkpt lat="42.94252972601727" lon="13.576776755072213"><ele>480.0</ele><time>2026-03-22T11:51:32.998Z</time></trkpt><trkpt lat="42.94255021281852" lon="13.576906533387875"><ele>480.0</ele><time>2026-03-22T11:51:33.998Z</time></trkpt><trkpt lat="42.942602578714634" lon="13.577104411307616"><ele>475.75</ele><time>2026-03-22T11:51:34.998Z</time></trkpt><trkpt lat="42.942658390077476" lon="13.577273816648532"><ele>471.5</ele><time>2026-03-22T11:51:35.998Z</time></trkpt><trkpt lat="42.94273534439925" lon="13.577427831915873"><ele>467.25</ele><time>2026-03-22T11:51:36.998Z</time></trkpt><trkpt lat="42.94284180443345" lon="13.577588492035572"><ele>463.0</ele><time>2026-03-22T11:51:37.998Z</time></trkpt><trkpt lat="42.94295077706302" lon="13.57776556135348"><ele>464.5</ele><time>2026-03-22T11:51:38.998Z</time></trkpt><trkpt lat="42.94303492950134" lon="13.577907499504233"><ele>466.0</ele><time>2026-03-22T11:51:39.998Z</time></trkpt><trkpt lat="42.943097456405454" lon="13.578040850176485"><ele>467.5</ele><time>2026-03-22T11:51:41Z</time></trkpt><trkpt lat="42.94314391678583" lon="13.578172520305547"><ele>469.0</ele><time>2026-03-22T11:51:42Z</time></trkpt><trkpt lat="42.94320167121284" lon="13.578328405049628"><ele>469.0</ele><time>2026-03-22T11:51:43Z</time></trkpt><trkpt lat="42.943262602572965" lon="13.578467317487773"><ele>469.0</ele><time>2026-03-22T11:51:44Z</time></trkpt><trkpt lat="42.94332030682181" lon="13.57859497757693"><ele>469.0</ele><time>2026-03-22T11:51:45Z</time></trkpt><trkpt lat="42.943387812662245" lon="13.57874689622924"><ele>469.0</ele><time>2026-03-22T11:51:46Z</time></trkpt><trkpt lat="42.943456898021594" lon="13.578952534184534"><ele>464.25</ele><time>2026-03-22T11:51:47Z</time></trkpt><trkpt lat="42.94350586169219" lon="13.579127069959593"><ele>459.5</ele><time>2026-03-22T11:51:48Z</time></trkpt><trkpt lat="42.94354429883875" lon="13.579287495969727"><ele>454.75</ele><time>2026-03-22T11:51:49Z</time></trkpt><trkpt lat="42.94357382579907" lon="13.579442422530976"><ele>450.0</ele><time>2026-03-22T11:51:50Z</time></trkpt><trkpt lat="42.94358330055924" lon="13.579567610427393"><ele>450.75</ele><time>2026-03-22T11:51:51Z</time></trkpt><trkpt lat="42.943566722516856" lon="13.579688343655487"><ele>451.5</ele><time>2026-03-22T11:51:52Z</time></trkpt><trkpt lat="42.943523057883034" lon="13.579786954952972"><ele>452.25</ele><time>2026-03-22T11:51:53Z</time></trkpt><trkpt lat="42.94343620038918" lon="13.579967382170715"><ele>453.0</ele><time>2026-03-22T11:51:54Z</time></trkpt><trkpt lat="42.94331762649699" lon="13.580195895505106"><ele>447.5</ele><time>2026-03-22T11:51:55Z</time></trkpt><trkpt lat="42.94318787038118" lon="13.58046119393034"><ele>442.0</ele><time>2026-03-22T11:51:56Z</time></trkpt><trkpt lat="42.943044040259984" lon="13.580724626688513"><ele>442.0</ele><time>2026-03-22T11:51:57Z</time></trkpt><trkpt lat="42.9428708144067" lon="13.580944536955155"><ele>442.0</ele><time>2026-03-22T11:51:58Z</time></trkpt><trkpt lat="42.94269244018333" lon="13.581140093818982"><ele>441.33333333333337</ele><time>2026-03-22T11:51:59Z</time></trkpt><trkpt lat="42.94256521152233" lon="13.581271521814925"><ele>440.66666666666663</ele><time>2026-03-22T11:52:00Z</time></trkpt><trkpt lat="42.942434340226455" lon="13.581405977833528"><ele>440.0</ele><time>2026-03-22T11:52:01Z</time></trkpt><trkpt lat="42.942313536344905" lon="13.581551201525347"><ele>440.0</ele><time>2026-03-22T11:52:02Z</time></trkpt><trkpt lat="42.942216613668926" lon="13.581721818166352"><ele>440.0</ele><time>2026-03-22T11:52:03Z</time></trkpt><trkpt lat="42.942121790301734" lon="13.581931755076992"><ele>440.0</ele><time>2026-03-22T11:52:04Z</time></trkpt><trkpt lat="42.94203352117135" lon="13.582136789894017"><ele>439.8</ele><time>2026-03-22T11:52:05Z</time></trkpt><trkpt lat="42.94197217674964" lon="13.582291458153286"><ele>439.6</ele><time>2026-03-22T11:52:06Z</time></trkpt><trkpt lat="42.94192897621582" lon="13.58241296387409"><ele>439.4</ele><time>2026-03-22T11:52:07Z</time></trkpt><trkpt lat="42.94190289997478" lon="13.5825280890506"><ele>439.2</ele><time>2026-03-22T11:52:08Z</time></trkpt><trkpt lat="42.94191300817933" lon="13.582659600644682"><ele>439.0</ele><time>2026-03-22T11:52:09Z</time></trkpt><trkpt lat="42.94193964417023" lon="13.582774107399693"><ele>439.0</ele><time>2026-03-22T11:52:10Z</time></trkpt><trkpt lat="42.94212342214396" lon="13.582828686596331"><ele>439.0</ele><time>2026-03-22T11:52:11Z</time></trkpt><trkpt lat="42.94223642562978" lon="13.582895052029595"><ele>439.0</ele><time>2026-03-22T11:52:12Z</time></trkpt><trkpt lat="42.94239227880918" lon="13.582992009679954"><ele>435.6666666666667</ele><time>2026-03-22T11:52:13Z</time></trkpt><trkpt lat="42.94259470216013" lon="13.583116680720575"><ele>432.33333333333337</ele><time>2026-03-22T11:52:14Z</time></trkpt><trkpt lat="42.94275791452785" lon="13.583222152504675"><ele>429.0</ele><time>2026-03-22T11:52:15Z</time></trkpt><trkpt lat="42.942907642744196" lon="13.58332169930715"><ele>429.0</ele><time>2026-03-22T11:52:16Z</time></trkpt><trkpt lat="42.943025918789004" lon="13.583390408257095"><ele>429.0</ele><time>2026-03-22T11:52:16.999Z</time></trkpt><trkpt lat="42.94313190855607" lon="13.583438739968463"><ele>429.0</ele><time>2026-03-22T11:52:17.999Z</time></trkpt><trkpt lat="42.943229324160356" lon="13.583416129539508"><ele>429.0</ele><time>2026-03-22T11:52:18.999Z</time></trkpt><trkpt lat="42.943302022020276" lon="13.583335505467108"><ele>429.0</ele><time>2026-03-22T11:52:19.999Z</time></trkpt><trkpt lat="42.94333868769708" lon="13.58318879012704"><ele>426.33333333333337</ele><time>2026-03-22T11:52:20.999Z</time></trkpt><trkpt lat="42.943428187821915" lon="13.582990843539147"><ele>423.6666666666667</ele><time>2026-03-22T11:52:21.999Z</time></trkpt><trkpt lat="42.94353167074957" lon="13.58274026402529"><ele>421.0</ele><time>2026-03-22T11:52:22.999Z</time></trkpt><trkpt lat="42.94363733084503" lon="13.582467208839896"><ele>421.0</ele><time>2026-03-22T11:52:23.999Z</time></trkpt><trkpt lat="42.94372644395465" lon="13.582237763500443"><ele>421.0</ele><time>2026-03-22T11:52:24.999Z</time></trkpt><trkpt lat="42.9438110992898" lon="13.582071002566462"><ele>421.0</ele><time>2026-03-22T11:52:25.999Z</time></trkpt><trkpt lat="42.94390902097589" lon="13.581955382459606"><ele>420.75</ele><time>2026-03-22T11:52:26.999Z</time></trkpt><trkpt lat="42.944007627364236" lon="13.58186807107763"><ele>420.5</ele><time>2026-03-22T11:52:27.999Z</time></trkpt><trkpt lat="42.94414447214128" lon="13.581845876009076"><ele>420.25</ele><time>2026-03-22T11:52:28.999Z</time></trkpt><trkpt lat="42.94426293672582" lon="13.581877679456493"><ele>420.0</ele><time>2026-03-22T11:52:29.999Z</time></trkpt><trkpt lat="42.94440737252016" lon="13.581942536152022"><ele>418.33333333333337</ele><time>2026-03-22T11:52:30.999Z</time></trkpt><trkpt lat="42.94459311035925" lon="13.582034060336811"><ele>416.6666666666667</ele><time>2026-03-22T11:52:31.999Z</time></trkpt><trkpt lat="42.94475234485808" lon="13.58208180997805"><ele>415.0</ele><time>2026-03-22T11:52:32.999Z</time></trkpt><trkpt lat="42.94490654489108" lon="13.582126323096626"><ele>413.25</ele><time>2026-03-22T11:52:33.999Z</time></trkpt><trkpt lat="42.945055816625285" lon="13.582169514159963"><ele>411.5</ele><time>2026-03-22T11:52:34.999Z</time></trkpt><trkpt lat="42.94520482890688" lon="13.58222317989555"><ele>409.75</ele><time>2026-03-22T11:52:35.999Z</time></trkpt><trkpt lat="42.94533901145524" lon="13.58227705149525"><ele>408.0</ele><time>2026-03-22T11:52:36.999Z</time></trkpt><trkpt lat="42.945449139704714" lon="13.582277108661764"><ele>408.0</ele><time>2026-03-22T11:52:37.999Z</time></trkpt><trkpt lat="42.94554893356294" lon="13.582272179849106"><ele>408.0</ele><time>2026-03-22T11:52:38.999Z</time></trkpt><trkpt lat="42.9456525003415" lon="13.582222915599091"><ele>408.0</ele><time>2026-03-22T11:52:39.999Z</time></trkpt><trkpt lat="42.94575764332043" lon="13.582182268428538"><ele>408.0</ele><time>2026-03-22T11:52:40.999Z</time></trkpt><trkpt lat="42.94586147733944" lon="13.582141041499785"><ele>408.0</ele><time>2026-03-22T11:52:41.999Z</time></trkpt><trkpt lat="42.94595833226768" lon="13.5821293840617"><ele>406.2</ele><time>2026-03-22T11:52:42.999Z</time></trkpt><trkpt lat="42.946046092530835" lon="13.58210880164996"><ele>404.4</ele><time>2026-03-22T11:52:43.999Z</time></trkpt><trkpt lat="42.94613234649508" lon="13.582112566572752"><ele>402.59999999999997</ele><time>2026-03-22T11:52:44.999Z</time></trkpt><trkpt lat="42.946213267743644" lon="13.58211126796135"><ele>400.79999999999995</ele><time>2026-03-22T11:52:45.999Z</time></trkpt><trkpt lat="42.946308894609466" lon="13.582092036866538"><ele>399.0</ele><time>2026-03-22T11:52:46.999Z</time></trkpt><trkpt lat="42.946404838606476" lon="13.58206530910501"><ele>399.0</ele><time>2026-03-22T11:52:47.999Z</time></trkpt><trkpt lat="42.94651843567885" lon="13.582093841527346"><ele>399.0</ele><time>2026-03-22T11:52:48.999Z</time></trkpt><trkpt lat="42.94663510353998" lon="13.582098078467148"><ele>399.0</ele><time>2026-03-22T11:52:49.999Z</time></trkpt><trkpt lat="42.94675899965136" lon="13.582098794953387"><ele>399.0</ele><time>2026-03-22T11:52:50.999Z</time></trkpt><trkpt lat="42.94687511428868" lon="13.582097082295453"><ele>397.6</ele><time>2026-03-22T11:52:51.999Z</time></trkpt><trkpt lat="42.94696746602813" lon="13.582086685179382"><ele>396.2</ele><time>2026-03-22T11:52:52.999Z</time></trkpt><trkpt lat="42.947066755008095" lon="13.582067304705717"><ele>394.8</ele><time>2026-03-22T11:52:53.999Z</time></trkpt><trkpt lat="42.947176112435955" lon="13.58203964572477"><ele>393.40000000000003</ele><time>2026-03-22T11:52:54.999Z</time></trkpt><trkpt lat="42.94728829805247" lon="13.582007602178324"><ele>392.0</ele><time>2026-03-22T11:52:55.999Z</time></trkpt><trkpt lat="42.947411601813066" lon="13.581971412124425"><ele>391.5</ele><time>2026-03-22T11:52:56.999Z</time></trkpt><trkpt lat="42.94753720894394" lon="13.581935064595465"><ele>391.0</ele><time>2026-03-22T11:52:57.999Z</time></trkpt><trkpt lat="42.94765961748867" lon="13.58190277691236"><ele>390.5</ele><time>2026-03-22T11:52:58.999Z</time></trkpt><trkpt lat="42.94777400665478" lon="13.581878596169208"><ele>390.0</ele><time>2026-03-22T11:52:59.999Z</time></trkpt><trkpt lat="42.947874929069506" lon="13.581860871988237"><ele>388.5</ele><time>2026-03-22T11:53:00.999Z</time></trkpt><trkpt lat="42.94797759458796" lon="13.581817801822092"><ele>387.0</ele><time>2026-03-22T11:53:01.999Z</time></trkpt><trkpt lat="42.94809158566662" lon="13.581754221559335"><ele>385.5</ele><time>2026-03-22T11:53:02.999Z</time></trkpt><trkpt lat="42.94820134631918" lon="13.581689589174918"><ele>384.0</ele><time>2026-03-22T11:53:03.999Z</time></trkpt><trkpt lat="42.94831311072998" lon="13.58162335787448"><ele>383.0</ele><time>2026-03-22T11:53:04.999Z</time></trkpt><trkpt lat="42.9484058584486" lon="13.581574088430347"><ele>382.0</ele><time>2026-03-22T11:53:05.999Z</time></trkpt><trkpt lat="42.94848570009083" lon="13.581530249810724"><ele>381.0</ele><time>2026-03-22T11:53:06.999Z</time></trkpt><trkpt lat="42.948561116768" lon="13.58148261234045"><ele>380.0</ele><time>2026-03-22T11:53:07.998Z</time></trkpt><trkpt lat="42.94863318326015" lon="13.581420663298536"><ele>379.0</ele><time>2026-03-22T11:53:08.998Z</time></trkpt><trkpt lat="42.94871087420023" lon="13.581357034060497"><ele>378.0</ele><time>2026-03-22T11:53:09.998Z</time></trkpt><trkpt lat="42.94880010387828" lon="13.581294087901343"><ele>378.0</ele><time>2026-03-22T11:53:10.998Z</time></trkpt><trkpt lat="42.94890595615146" lon="13.581265419738203"><ele>378.0</ele><time>2026-03-22T11:53:11.998Z</time></trkpt><trkpt lat="42.948991681169936" lon="13.581248239986397"><ele>378.0</ele><time>2026-03-22T11:53:12.998Z</time></trkpt><trkpt lat="42.94908273561814" lon="13.581231095276392"><ele>378.0</ele><time>2026-03-22T11:53:13.998Z</time></trkpt><trkpt lat="42.949188283507084" lon="13.581237597033562"><ele>378.0</ele><time>2026-03-22T11:53:14.998Z</time></trkpt><trkpt lat="42.94930716695593" lon="13.58126021255532"><ele>374.5</ele><time>2026-03-22T11:53:15.998Z</time></trkpt><trkpt lat="42.94942443111508" lon="13.581297281689176"><ele>371.0</ele><time>2026-03-22T11:53:16.998Z</time></trkpt><trkpt lat="42.94954111740746" lon="13.58136688688455"><ele>367.5</ele><time>2026-03-22T11:53:17.998Z</time></trkpt><trkpt lat="42.94964986960702" lon="13.581399928249063"><ele>364.0</ele><time>2026-03-22T11:53:18.998Z</time></trkpt><trkpt lat="42.94974398378437" lon="13.581438738185675"><ele>364.0</ele><time>2026-03-22T11:53:19.998Z</time></trkpt><trkpt lat="42.94983433055232" lon="13.581455530614653"><ele>364.0</ele><time>2026-03-22T11:53:20.998Z</time></trkpt><trkpt lat="42.94991704908151" lon="13.581468008661355"><ele>364.0</ele><time>2026-03-22T11:53:21.998Z</time></trkpt><trkpt lat="42.94999001344404" lon="13.58147304003926"><ele>364.0</ele><time>2026-03-22T11:53:22.998Z</time></trkpt><trkpt lat="42.950082610424865" lon="13.58147219500241"><ele>364.0</ele><time>2026-03-22T11:53:23.998Z</time></trkpt><trkpt lat="42.950185015540015" lon="13.581484757003684"><ele>364.0</ele><time>2026-03-22T11:53:24.998Z</time></trkpt><trkpt lat="42.95026088384265" lon="13.58150007591489"><ele>362.0</ele><time>2026-03-22T11:53:25.998Z</time></trkpt><trkpt lat="42.950356522227835" lon="13.581521455355889"><ele>360.0</ele><time>2026-03-22T11:53:26.998Z</time></trkpt><trkpt lat="42.95043491852142" lon="13.581538980321273"><ele>358.0</ele><time>2026-03-22T11:53:27.998Z</time></trkpt><trkpt lat="42.95051371008788" lon="13.58155439658054"><ele>356.0</ele><time>2026-03-22T11:53:28.998Z</time></trkpt><trkpt lat="42.95058127718925" lon="13.581555968529347"><ele>354.0</ele><time>2026-03-22T11:53:29.998Z</time></trkpt><trkpt lat="42.950670206437486" lon="13.581559061755268"><ele>352.0</ele><time>2026-03-22T11:53:30.998Z</time></trkpt><trkpt lat="42.95073224050958" lon="13.58150102859338"><ele>352.0</ele><time>2026-03-22T11:53:31.998Z</time></trkpt><trkpt lat="42.9508055156219" lon="13.581450458798882"><ele>352.0</ele><time>2026-03-22T11:53:32.998Z</time></trkpt><trkpt lat="42.95087543898271" lon="13.581399641230538"><ele>352.0</ele><time>2026-03-22T11:53:33.998Z</time></trkpt><trkpt lat="42.95095469873124" lon="13.58134884867235"><ele>352.0</ele><time>2026-03-22T11:53:34.998Z</time></trkpt><trkpt lat="42.95101699352849" lon="13.58131859946916"><ele>352.0</ele><time>2026-03-22T11:53:35.998Z</time></trkpt><trkpt lat="42.95112296537058" lon="13.581287454817632"><ele>352.0</ele><time>2026-03-22T11:53:37.998Z</time></trkpt><trkpt lat="42.95119557583062" lon="13.58127104473116"><ele>351.0</ele><time>2026-03-22T11:53:39.998Z</time></trkpt><trkpt lat="42.95130992381766" lon="13.581207913532717"><ele>350.0</ele><time>2026-03-22T11:53:42.998Z</time></trkpt><trkpt lat="42.95137977441599" lon="13.581065653472466"><ele>349.0</ele><time>2026-03-22T11:53:43.998Z</time></trkpt><trkpt lat="42.95148410680116" lon="13.580892321069255"><ele>348.0</ele><time>2026-03-22T11:53:44.998Z</time></trkpt><trkpt lat="42.95157256133223" lon="13.58073081802295"><ele>348.0</ele><time>2026-03-22T11:53:45.998Z</time></trkpt><trkpt lat="42.951651154982414" lon="13.580563943566485"><ele>348.0</ele><time>2026-03-22T11:53:47Z</time></trkpt><trkpt lat="42.951712884546865" lon="13.580391708754423"><ele>348.0</ele><time>2026-03-22T11:53:48Z</time></trkpt><trkpt lat="42.95178738979595" lon="13.580209618262248"><ele>348.0</ele><time>2026-03-22T11:53:49Z</time></trkpt><trkpt lat="42.95182485760647" lon="13.580001864467496"><ele>347.0</ele><time>2026-03-22T11:53:50Z</time></trkpt><trkpt lat="42.9518563610131" lon="13.57979663699445"><ele>346.0</ele><time>2026-03-22T11:53:51Z</time></trkpt><trkpt lat="42.95188678470061" lon="13.579615826108535"><ele>345.0</ele><time>2026-03-22T11:53:52Z</time></trkpt><trkpt lat="42.951869810511305" lon="13.579433177837283"><ele>344.0</ele><time>2026-03-22T11:53:53Z</time></trkpt><trkpt lat="42.95190289274705" lon="13.579279882315916"><ele>343.25</ele><time>2026-03-22T11:53:54Z</time></trkpt><trkpt lat="42.951960823037545" lon="13.579120426174756"><ele>342.5</ele><time>2026-03-22T11:53:55Z</time></trkpt><trkpt lat="42.952058186341276" lon="13.578969196643948"><ele>341.75</ele><time>2026-03-22T11:53:56Z</time></trkpt><trkpt lat="42.952197386020835" lon="13.57886201102555"><ele>341.0</ele><time>2026-03-22T11:53:57Z</time></trkpt><trkpt lat="42.95234861133929" lon="13.578776876434588"><ele>341.0</ele><time>2026-03-22T11:53:58Z</time></trkpt><trkpt lat="42.95251801800799" lon="13.5787153944254"><ele>341.0</ele><time>2026-03-22T11:53:59Z</time></trkpt><trkpt lat="42.9526928029518" lon="13.578684487497114"><ele>341.0</ele><time>2026-03-22T11:54:00Z</time></trkpt><trkpt lat="42.95286022839467" lon="13.57863912846585"><ele>342.0</ele><time>2026-03-22T11:54:01Z</time></trkpt><trkpt lat="42.953012784356005" lon="13.57856974272526"><ele>343.0</ele><time>2026-03-22T11:54:02Z</time></trkpt><trkpt lat="42.953156498704104" lon="13.578512807971126"><ele>344.0</ele><time>2026-03-22T11:54:03Z</time></trkpt><trkpt lat="42.9532736086247" lon="13.578435800149201"><ele>345.0</ele><time>2026-03-22T11:54:04Z</time></trkpt><trkpt lat="42.95335806592651" lon="13.578336303357387"><ele>344.3333333333333</ele><time>2026-03-22T11:54:05Z</time></trkpt><trkpt lat="42.953456666729906" lon="13.578182783979113"><ele>343.66666666666663</ele><time>2026-03-22T11:54:06Z</time></trkpt><trkpt lat="42.95358698747536" lon="13.577981042831192"><ele>343.0</ele><time>2026-03-22T11:54:07Z</time></trkpt><trkpt lat="42.95373426421793" lon="13.577815560880763"><ele>343.0</ele><time>2026-03-22T11:54:08Z</time></trkpt><trkpt lat="42.95387850276154" lon="13.577690870821955"><ele>343.0</ele><time>2026-03-22T11:54:09Z</time></trkpt><trkpt lat="42.95401090414217" lon="13.577570939658283"><ele>343.0</ele><time>2026-03-22T11:54:10Z</time></trkpt><trkpt lat="42.95413355649691" lon="13.577446765635054"><ele>341.5</ele><time>2026-03-22T11:54:11Z</time></trkpt><trkpt lat="42.95425104499773" lon="13.577308348753899"><ele>340.0</ele><time>2026-03-22T11:54:12Z</time></trkpt><trkpt lat="42.95433638813374" lon="13.57716859046013"><ele>338.5</ele><time>2026-03-22T11:54:13Z</time></trkpt><trkpt lat="42.95440818291323" lon="13.577025657017753"><ele>337.0</ele><time>2026-03-22T11:54:14Z</time></trkpt><trkpt lat="42.954469462517395" lon="13.576868713831418"><ele>337.0</ele><time>2026-03-22T11:54:15Z</time></trkpt><trkpt lat="42.95451618840942" lon="13.576690469782209"><ele>337.0</ele><time>2026-03-22T11:54:16Z</time></trkpt><trkpt lat="42.954547585998725" lon="13.576498176564572"><ele>337.0</ele><time>2026-03-22T11:54:17Z</time></trkpt><trkpt lat="42.95455741080666" lon="13.576300060221202"><ele>337.0</ele><time>2026-03-22T11:54:18Z</time></trkpt><trkpt lat="42.95454928526929" lon="13.57609038012173"><ele>338.0</ele><time>2026-03-22T11:54:19Z</time></trkpt><trkpt lat="42.954525547227256" lon="13.575855685669008"><ele>339.0</ele><time>2026-03-22T11:54:20Z</time></trkpt><trkpt lat="42.954534059428184" lon="13.57564765229432"><ele>340.0</ele><time>2026-03-22T11:54:21Z</time></trkpt><trkpt lat="42.95457850008569" lon="13.575460605093557"><ele>340.8</ele><time>2026-03-22T11:54:22Z</time></trkpt><trkpt lat="42.95461997238845" lon="13.575310215522515"><ele>341.6</ele><time>2026-03-22T11:54:23Z</time></trkpt><trkpt lat="42.95465801374914" lon="13.575164355015074"><ele>342.4</ele><time>2026-03-22T11:54:24Z</time></trkpt><trkpt lat="42.954691042006786" lon="13.57503311550701"><ele>343.2</ele><time>2026-03-22T11:54:25Z</time></trkpt><trkpt lat="42.95472242503368" lon="13.574909845354227"><ele>344.0</ele><time>2026-03-22T11:54:26Z</time></trkpt><trkpt lat="42.954752803750885" lon="13.57479846931725"><ele>344.0</ele><time>2026-03-22T11:54:26.999Z</time></trkpt><trkpt lat="42.9547827642108" lon="13.574699277059784"><ele>344.0</ele><time>2026-03-22T11:54:27.999Z</time></trkpt><trkpt lat="42.9548130148987" lon="13.574605795981252"><ele>344.0</ele><time>2026-03-22T11:54:28.999Z</time></trkpt><trkpt lat="42.9548515714659" lon="13.574466451271558"><ele>344.0</ele><time>2026-03-22T11:54:30.999Z</time></trkpt><trkpt lat="42.95477773854384" lon="13.574392050578513"><ele>344.0</ele><time>2026-03-22T11:54:31.999Z</time></trkpt><trkpt lat="42.954717916766846" lon="13.574257154391699"><ele>343.6666666666667</ele><time>2026-03-22T11:54:32.999Z</time></trkpt><trkpt lat="42.95461497315388" lon="13.574085287717548"><ele>343.3333333333333</ele><time>2026-03-22T11:54:33.999Z</time></trkpt><trkpt lat="42.95449946676044" lon="13.573882117050237"><ele>343.0</ele><time>2026-03-22T11:54:34.999Z</time></trkpt><trkpt lat="42.95440121995572" lon="13.573704032306056"><ele>342.16666666666663</ele><time>2026-03-22T11:54:35.999Z</time></trkpt><trkpt lat="42.95433464619397" lon="13.57359382084547"><ele>341.3333333333333</ele><time>2026-03-22T11:54:36.999Z</time></trkpt><trkpt lat="42.95429131941731" lon="13.573509118860594"><ele>340.5</ele><time>2026-03-22T11:54:37.999Z</time></trkpt><trkpt lat="42.95427098928074" lon="13.57341847475532"><ele>339.6666666666667</ele><time>2026-03-22T11:54:38.999Z</time></trkpt><trkpt lat="42.95425175813685" lon="13.573334972717072"><ele>338.83333333333337</ele><time>2026-03-22T11:54:39.999Z</time></trkpt><trkpt lat="42.95423112936627" lon="13.573224733750939"><ele>338.0</ele><time>2026-03-22T11:54:41.999Z</time></trkpt><trkpt lat="42.95433482126562" lon="13.573051963977008"><ele>338.0</ele><time>2026-03-22T11:54:42.999Z</time></trkpt><trkpt lat="42.954430907245595" lon="13.573043317128873"><ele>338.0</ele><time>2026-03-22T11:54:43.999Z</time></trkpt><trkpt lat="42.954533229392396" lon="13.573269114566973"><ele>338.0</ele><time>2026-03-22T11:54:45.999Z</time></trkpt><trkpt lat="42.954567049670736" lon="13.573356617769607"><ele>338.0</ele><time>2026-03-22T11:54:46.999Z</time></trkpt><trkpt lat="42.954625587486966" lon="13.573459820178579"><ele>338.0</ele><time>2026-03-22T11:54:47.999Z</time></trkpt><trkpt lat="42.95470140774612" lon="13.57359099525353"><ele>338.0</ele><time>2026-03-22T11:54:48.999Z</time></trkpt><trkpt lat="42.95478837231953" lon="13.573741450975263"><ele>338.0</ele><time>2026-03-22T11:54:49.999Z</time></trkpt><trkpt lat="42.954911127642355" lon="13.573955806273586"><ele>331.5</ele><time>2026-03-22T11:54:50.999Z</time></trkpt><trkpt lat="42.955049593880474" lon="13.574203943596693"><ele>325.0</ele><time>2026-03-22T11:54:51.999Z</time></trkpt><trkpt lat="42.955179283804924" lon="13.574484972312872"><ele>325.3333333333333</ele><time>2026-03-22T11:54:52.999Z</time></trkpt><trkpt lat="42.9552600932186" lon="13.57475758238412"><ele>325.6666666666667</ele><time>2026-03-22T11:54:53.999Z</time></trkpt><trkpt lat="42.95529965028057" lon="13.574993539394564"><ele>326.0</ele><time>2026-03-22T11:54:54.999Z</time></trkpt><trkpt lat="42.95531282565264" lon="13.575217169217002"><ele>326.6666666666667</ele><time>2026-03-22T11:54:55.999Z</time></trkpt><trkpt lat="42.95531181040876" lon="13.5754392046211"><ele>327.3333333333333</ele><time>2026-03-22T11:54:56.999Z</time></trkpt><trkpt lat="42.9553034339875" lon="13.575706995954539"><ele>328.0</ele><time>2026-03-22T11:54:57.999Z</time></trkpt><trkpt lat="42.95529455369991" lon="13.57602306335856"><ele>326.3333333333333</ele><time>2026-03-22T11:54:58.999Z</time></trkpt><trkpt lat="42.9552879088069" lon="13.576326870594055"><ele>324.6666666666667</ele><time>2026-03-22T11:54:59.999Z</time></trkpt><trkpt lat="42.95528182835309" lon="13.57660487164249"><ele>323.0</ele><time>2026-03-22T11:55:00.999Z</time></trkpt><trkpt lat="42.955274750017225" lon="13.576859316928209"><ele>322.33333333333337</ele><time>2026-03-22T11:55:01.999Z</time></trkpt><trkpt lat="42.955267147990085" lon="13.577135139547707"><ele>321.6666666666667</ele><time>2026-03-22T11:55:02.999Z</time></trkpt><trkpt lat="42.955273430784956" lon="13.577464598571646"><ele>321.0</ele><time>2026-03-22T11:55:03.999Z</time></trkpt><trkpt lat="42.95531394489372" lon="13.577827376883754"><ele>320.6666666666667</ele><time>2026-03-22T11:55:04.999Z</time></trkpt><trkpt lat="42.955331503478675" lon="13.577934874129038"><ele>320.33333333333337</ele><time>2026-03-22T11:55:05.999Z</time></trkpt><trkpt lat="42.955391058354216" lon="13.578242880179731"><ele>320.0</ele><time>2026-03-22T11:55:06.999Z</time></trkpt><trkpt lat="42.95546642509753" lon="13.578548400179788"><ele>322.0</ele><time>2026-03-22T11:55:07.999Z</time></trkpt><trkpt lat="42.955539863860444" lon="13.578803305217894"><ele>324.0</ele><time>2026-03-22T11:55:08.999Z</time></trkpt><trkpt lat="42.95561316762926" lon="13.57903480748184"><ele>326.0</ele><time>2026-03-22T11:55:09.999Z</time></trkpt><trkpt lat="42.95569123242584" lon="13.57924618373872"><ele>326.0</ele><time>2026-03-22T11:55:10.999Z</time></trkpt><trkpt lat="42.95577086388163" lon="13.57943887625993"><ele>326.0</ele><time>2026-03-22T11:55:11.999Z</time></trkpt><trkpt lat="42.95585827420485" lon="13.579633615176643"><ele>326.0</ele><time>2026-03-22T11:55:12.999Z</time></trkpt><trkpt lat="42.955950596450485" lon="13.579827487395548"><ele>325.6666666666667</ele><time>2026-03-22T11:55:13.999Z</time></trkpt><trkpt lat="42.95605187367258" lon="13.580030498945911"><ele>325.3333333333333</ele><time>2026-03-22T11:55:14.999Z</time></trkpt><trkpt lat="42.95618169320679" lon="13.580242062004515"><ele>325.0</ele><time>2026-03-22T11:55:15.999Z</time></trkpt><trkpt lat="42.95633095832034" lon="13.580482684192056"><ele>325.0</ele><time>2026-03-22T11:55:16.998Z</time></trkpt><trkpt lat="42.95651982107248" lon="13.580752930197184"><ele>325.0</ele><time>2026-03-22T11:55:17.998Z</time></trkpt><trkpt lat="42.95672767964344" lon="13.580992173450037"><ele>322.0</ele><time>2026-03-22T11:55:18.998Z</time></trkpt><trkpt lat="42.95689417280103" lon="13.581219109485962"><ele>319.0</ele><time>2026-03-22T11:55:19.998Z</time></trkpt><trkpt lat="42.95705445175619" lon="13.581428894512365"><ele>319.0</ele><time>2026-03-22T11:55:20.998Z</time></trkpt><trkpt lat="42.95720492294698" lon="13.581623757457658"><ele>319.0</ele><time>2026-03-22T11:55:21.998Z</time></trkpt><trkpt lat="42.95735558961402" lon="13.581817158761144"><ele>319.0</ele><time>2026-03-22T11:55:22.998Z</time></trkpt><trkpt lat="42.95750880382967" lon="13.58201282165778"><ele>318.66666666666663</ele><time>2026-03-22T11:55:23.998Z</time></trkpt><trkpt lat="42.95766663724866" lon="13.582189003675825"><ele>318.3333333333333</ele><time>2026-03-22T11:55:24.998Z</time></trkpt><trkpt lat="42.95779048667416" lon="13.58235588731873"><ele>318.0</ele><time>2026-03-22T11:55:25.998Z</time></trkpt><trkpt lat="42.957905483215455" lon="13.58250673265565"><ele>318.0</ele><time>2026-03-22T11:55:26.998Z</time></trkpt><trkpt lat="42.957984052890495" lon="13.582684566930103"><ele>318.0</ele><time>2026-03-22T11:55:27.998Z</time></trkpt><trkpt lat="42.958046274819374" lon="13.582858235819106"><ele>318.0</ele><time>2026-03-22T11:55:28.998Z</time></trkpt><trkpt lat="42.958092090631276" lon="13.583033561008161"><ele>318.0</ele><time>2026-03-22T11:55:29.998Z</time></trkpt><trkpt lat="42.958124590974876" lon="13.58325034163271"><ele>315.6666666666667</ele><time>2026-03-22T11:55:30.998Z</time></trkpt><trkpt lat="42.95814237825664" lon="13.583498258370799"><ele>313.33333333333337</ele><time>2026-03-22T11:55:31.998Z</time></trkpt><trkpt lat="42.95815563603552" lon="13.58375874487541"><ele>311.0</ele><time>2026-03-22T11:55:32.998Z</time></trkpt><trkpt lat="42.95817048260439" lon="13.584028936750189"><ele>309.6666666666667</ele><time>2026-03-22T11:55:33.998Z</time></trkpt><trkpt lat="42.958186416471555" lon="13.584292657361681"><ele>308.3333333333333</ele><time>2026-03-22T11:55:34.998Z</time></trkpt><trkpt lat="42.95820193349243" lon="13.584536613575859"><ele>307.0</ele><time>2026-03-22T11:55:35.998Z</time></trkpt><trkpt lat="42.958250365486634" lon="13.5847800906902"><ele>307.0</ele><time>2026-03-22T11:55:36.998Z</time></trkpt><trkpt lat="42.95832518383637" lon="13.584986230972202"><ele>307.0</ele><time>2026-03-22T11:55:37.998Z</time></trkpt><trkpt lat="42.95842200772874" lon="13.585160605438892"><ele>307.0</ele><time>2026-03-22T11:55:38.998Z</time></trkpt><trkpt lat="42.958537123836926" lon="13.585308532493713"><ele>305.0</ele><time>2026-03-22T11:55:39.998Z</time></trkpt><trkpt lat="42.958665978616345" lon="13.585475150653883"><ele>303.0</ele><time>2026-03-22T11:55:40.998Z</time></trkpt><trkpt lat="42.95882359619883" lon="13.585610613692538"><ele>301.0</ele><time>2026-03-22T11:55:41.998Z</time></trkpt><trkpt lat="42.95900632260745" lon="13.585714898620866"><ele>300.5</ele><time>2026-03-22T11:55:42.998Z</time></trkpt><trkpt lat="42.959215749989795" lon="13.58581278850107"><ele>300.0</ele><time>2026-03-22T11:55:43.998Z</time></trkpt><trkpt lat="42.959442446844584" lon="13.585886767308347"><ele>300.0</ele><time>2026-03-22T11:55:44.998Z</time></trkpt><trkpt lat="42.95962631208745" lon="13.585971265677554"><ele>300.0</ele><time>2026-03-22T11:55:45.998Z</time></trkpt><trkpt lat="42.95979404183577" lon="13.58604812895997"><ele>300.0</ele><time>2026-03-22T11:55:46.998Z</time></trkpt><trkpt lat="42.95994768876141" lon="13.586115133317039"><ele>301.3333333333333</ele><time>2026-03-22T11:55:47.998Z</time></trkpt><trkpt lat="42.96010101606664" lon="13.586187187009632"><ele>302.66666666666663</ele><time>2026-03-22T11:55:48.998Z</time></trkpt><trkpt lat="42.96025916199393" lon="13.5862593120241"><ele>304.0</ele><time>2026-03-22T11:55:49.998Z</time></trkpt><trkpt lat="42.96041948888463" lon="13.586334574884273"><ele>304.0</ele><time>2026-03-22T11:55:50.998Z</time></trkpt><trkpt lat="42.960557289201034" lon="13.586420290114646"><ele>304.0</ele><time>2026-03-22T11:55:51.998Z</time></trkpt><trkpt lat="42.96066661905819" lon="13.586556946226885"><ele>304.0</ele><time>2026-03-22T11:55:53Z</time></trkpt><trkpt lat="42.96076987875163" lon="13.58667629714467"><ele>304.0</ele><time>2026-03-22T11:55:54Z</time></trkpt><trkpt lat="42.96085054746786" lon="13.586850060308466"><ele>307.3333333333333</ele><time>2026-03-22T11:55:55Z</time></trkpt><trkpt lat="42.960931900901144" lon="13.587037421852404"><ele>310.6666666666667</ele><time>2026-03-22T11:55:56Z</time></trkpt><trkpt lat="42.96102421183836" lon="13.587271078967637"><ele>314.0</ele><time>2026-03-22T11:55:57Z</time></trkpt><trkpt lat="42.961081133509005" lon="13.587571485854617"><ele>310.5</ele><time>2026-03-22T11:55:58Z</time></trkpt><trkpt lat="42.961202219187975" lon="13.58787511202845"><ele>307.0</ele><time>2026-03-22T11:55:59Z</time></trkpt><trkpt lat="42.9613153288471" lon="13.588145554768742"><ele>307.0</ele><time>2026-03-22T11:56:00Z</time></trkpt><trkpt lat="42.961423448104455" lon="13.588396477378513"><ele>307.0</ele><time>2026-03-22T11:56:01Z</time></trkpt><trkpt lat="42.96153082286267" lon="13.588615727964191"><ele>307.0</ele><time>2026-03-22T11:56:02Z</time></trkpt><trkpt lat="42.9616432812936" lon="13.588805203097351"><ele>309.3333333333333</ele><time>2026-03-22T11:56:03Z</time></trkpt><trkpt lat="42.961751443017995" lon="13.588978708209819"><ele>311.6666666666667</ele><time>2026-03-22T11:56:04Z</time></trkpt><trkpt lat="42.96185170134103" lon="13.589139535235311"><ele>314.0</ele><time>2026-03-22T11:56:05Z</time></trkpt><trkpt lat="42.96195249526815" lon="13.589302919314761"><ele>314.0</ele><time>2026-03-22T11:56:06Z</time></trkpt><trkpt lat="42.9620626774934" lon="13.589488847044139"><ele>314.0</ele><time>2026-03-22T11:56:07Z</time></trkpt><trkpt lat="42.962182088346296" lon="13.589716332982128"><ele>314.0</ele><time>2026-03-22T11:56:08Z</time></trkpt><trkpt lat="42.962303068586635" lon="13.589989056593343"><ele>308.0</ele><time>2026-03-22T11:56:09Z</time></trkpt><trkpt lat="42.96242101838352" lon="13.590275867767764"><ele>302.0</ele><time>2026-03-22T11:56:10Z</time></trkpt><trkpt lat="42.96252568406063" lon="13.59053499793567"><ele>303.0</ele><time>2026-03-22T11:56:11Z</time></trkpt><trkpt lat="42.96262260542051" lon="13.590774955047197"><ele>304.0</ele><time>2026-03-22T11:56:12Z</time></trkpt><trkpt lat="42.962711579889614" lon="13.590995032784832"><ele>305.0</ele><time>2026-03-22T11:56:13Z</time></trkpt><trkpt lat="42.962800529903234" lon="13.591214984354398"><ele>305.0</ele><time>2026-03-22T11:56:14Z</time></trkpt><trkpt lat="42.96289936227469" lon="13.591459483418017"><ele>305.0</ele><time>2026-03-22T11:56:15Z</time></trkpt><trkpt lat="42.96300045979432" lon="13.591707735575843"><ele>305.0</ele><time>2026-03-22T11:56:16Z</time></trkpt><trkpt lat="42.9631104822429" lon="13.591961314043973"><ele>302.6666666666667</ele><time>2026-03-22T11:56:17Z</time></trkpt><trkpt lat="42.96323093684701" lon="13.59220117802699"><ele>300.3333333333333</ele><time>2026-03-22T11:56:18Z</time></trkpt><trkpt lat="42.96336456708876" lon="13.592433739707635"><ele>298.0</ele><time>2026-03-22T11:56:19Z</time></trkpt><trkpt lat="42.9635096109946" lon="13.592643565499133"><ele>300.0</ele><time>2026-03-22T11:56:20Z</time></trkpt><trkpt lat="42.96365667259276" lon="13.59284082449821"><ele>302.0</ele><time>2026-03-22T11:56:21Z</time></trkpt><trkpt lat="42.96382417916901" lon="13.593065507247477"><ele>304.0</ele><time>2026-03-22T11:56:22Z</time></trkpt><trkpt lat="42.96400849861241" lon="13.593312890355504"><ele>303.5</ele><time>2026-03-22T11:56:23Z</time></trkpt><trkpt lat="42.96420477296557" lon="13.5935768844805"><ele>303.0</ele><time>2026-03-22T11:56:24Z</time></trkpt><trkpt lat="42.96439744077239" lon="13.59383916019974"><ele>303.0</ele><time>2026-03-22T11:56:25Z</time></trkpt><trkpt lat="42.964575216139714" lon="13.594076892177105"><ele>303.0</ele><time>2026-03-22T11:56:26Z</time></trkpt><trkpt lat="42.96473884355172" lon="13.594292711246307"><ele>303.0</ele><time>2026-03-22T11:56:27Z</time></trkpt><trkpt lat="42.96489702019768" lon="13.594498327594582"><ele>303.0</ele><time>2026-03-22T11:56:28Z</time></trkpt><trkpt lat="42.96504595286361" lon="13.594701637912516"><ele>303.0</ele><time>2026-03-22T11:56:29Z</time></trkpt><trkpt lat="42.96517403514588" lon="13.594898697717172"><ele>304.3333333333333</ele><time>2026-03-22T11:56:30Z</time></trkpt><trkpt lat="42.96527156426908" lon="13.595099833684124"><ele>305.66666666666663</ele><time>2026-03-22T11:56:31Z</time></trkpt><trkpt lat="42.96535935012591" lon="13.59532834758989"><ele>307.0</ele><time>2026-03-22T11:56:32Z</time></trkpt><trkpt lat="42.96543748564798" lon="13.595575098836887"><ele>307.0</ele><time>2026-03-22T11:56:33Z</time></trkpt><trkpt lat="42.96552308822501" lon="13.59585702511336"><ele>307.0</ele><time>2026-03-22T11:56:33.999Z</time></trkpt><trkpt lat="42.965616050138976" lon="13.596161267300554"><ele>302.0</ele><time>2026-03-22T11:56:34.999Z</time></trkpt><trkpt lat="42.965711266652114" lon="13.59646344921594"><ele>297.0</ele><time>2026-03-22T11:56:35.999Z</time></trkpt><trkpt lat="42.96582469606981" lon="13.596742299550769"><ele>299.0</ele><time>2026-03-22T11:56:36.999Z</time></trkpt><trkpt lat="42.96596147442546" lon="13.596988382518658"><ele>301.0</ele><time>2026-03-22T11:56:37.999Z</time></trkpt><trkpt lat="42.96609600774349" lon="13.597227422516916"><ele>303.0</ele><time>2026-03-22T11:56:38.999Z</time></trkpt><trkpt lat="42.966239016482376" lon="13.597488234482197"><ele>303.0</ele><time>2026-03-22T11:56:39.999Z</time></trkpt><trkpt lat="42.96639212964515" lon="13.597768000750163"><ele>303.0</ele><time>2026-03-22T11:56:40.999Z</time></trkpt><trkpt lat="42.96655792656545" lon="13.598069787235731"><ele>305.5</ele><time>2026-03-22T11:56:41.999Z</time></trkpt><trkpt lat="42.966726179205274" lon="13.598370508002489"><ele>308.0</ele><time>2026-03-22T11:56:42.999Z</time></trkpt><trkpt lat="42.96687791192945" lon="13.598641072303254"><ele>302.6666666666667</ele><time>2026-03-22T11:56:43.999Z</time></trkpt><trkpt lat="42.96701870374645" lon="13.59889212703883"><ele>297.3333333333333</ele><time>2026-03-22T11:56:44.999Z</time></trkpt><trkpt lat="42.96714681060313" lon="13.599121962025754"><ele>292.0</ele><time>2026-03-22T11:56:45.999Z</time></trkpt><trkpt lat="42.96727568028807" lon="13.599353703732604"><ele>293.5</ele><time>2026-03-22T11:56:46.999Z</time></trkpt><trkpt lat="42.967410885190965" lon="13.599596837573953"><ele>295.0</ele><time>2026-03-22T11:56:47.999Z</time></trkpt><trkpt lat="42.96755521388559" lon="13.599859842968739"><ele>295.0</ele><time>2026-03-22T11:56:48.999Z</time></trkpt><trkpt lat="42.96768656119391" lon="13.600101103692698"><ele>295.0</ele><time>2026-03-22T11:56:49.999Z</time></trkpt><trkpt lat="42.96781031542783" lon="13.600333746341809"><ele>295.0</ele><time>2026-03-22T11:56:50.999Z</time></trkpt><trkpt lat="42.96793110821504" lon="13.600560813481598"><ele>294.0</ele><time>2026-03-22T11:56:51.999Z</time></trkpt><trkpt lat="42.96805740933591" lon="13.600800255252189"><ele>293.0</ele><time>2026-03-22T11:56:52.999Z</time></trkpt><trkpt lat="42.96813585998152" lon="13.601105212516071"><ele>289.0</ele><time>2026-03-22T11:56:53.999Z</time></trkpt><trkpt lat="42.968201353826736" lon="13.601436262489447"><ele>285.0</ele><time>2026-03-22T11:56:54.999Z</time></trkpt><trkpt lat="42.96827135501761" lon="13.601766102575583"><ele>282.0</ele><time>2026-03-22T11:56:55.999Z</time></trkpt><trkpt lat="42.96833999357411" lon="13.602071966124528"><ele>279.0</ele><time>2026-03-22T11:56:56.999Z</time></trkpt><trkpt lat="42.968410405135096" lon="13.602388735309077"><ele>290.5</ele><time>2026-03-22T11:56:57.999Z</time></trkpt><trkpt lat="42.9684732062204" lon="13.602725802353444"><ele>302.0</ele><time>2026-03-22T11:56:58.999Z</time></trkpt><trkpt lat="42.96852562856965" lon="13.60305166044657"><ele>302.0</ele><time>2026-03-22T11:56:59.999Z</time></trkpt><trkpt lat="42.96856875959095" lon="13.603360432649664"><ele>302.0</ele><time>2026-03-22T11:57:00.999Z</time></trkpt><trkpt lat="42.96860950518381" lon="13.603667218920565"><ele>301.5</ele><time>2026-03-22T11:57:01.999Z</time></trkpt><trkpt lat="42.96864963906398" lon="13.603978510835578"><ele>301.0</ele><time>2026-03-22T11:57:02.999Z</time></trkpt><trkpt lat="42.968692480989766" lon="13.60428969482124"><ele>299.5</ele><time>2026-03-22T11:57:03.999Z</time></trkpt><trkpt lat="42.9687318928065" lon="13.604613460753159"><ele>298.0</ele><time>2026-03-22T11:57:04.999Z</time></trkpt><trkpt lat="42.96876367392208" lon="13.60493157856864"><ele>298.0</ele><time>2026-03-22T11:57:05.999Z</time></trkpt><trkpt lat="42.968786295854855" lon="13.605239339216253"><ele>298.0</ele><time>2026-03-22T11:57:06.999Z</time></trkpt><trkpt lat="42.96880599517938" lon="13.605549813306144"><ele>295.66666666666663</ele><time>2026-03-22T11:57:07.999Z</time></trkpt><trkpt lat="42.96881685516535" lon="13.605852337496513"><ele>293.3333333333333</ele><time>2026-03-22T11:57:08.999Z</time></trkpt><trkpt lat="42.96880708354458" lon="13.606150192753871"><ele>291.0</ele><time>2026-03-22T11:57:09.999Z</time></trkpt><trkpt lat="42.9687770938928" lon="13.606444557486489"><ele>289.3333333333333</ele><time>2026-03-22T11:57:10.999Z</time></trkpt><trkpt lat="42.96874522890516" lon="13.606717420323205"><ele>287.66666666666663</ele><time>2026-03-22T11:57:11.999Z</time></trkpt><trkpt lat="42.9687233203198" lon="13.606956611611285"><ele>286.0</ele><time>2026-03-22T11:57:12.999Z</time></trkpt><trkpt lat="42.968716439137786" lon="13.607194901427517"><ele>283.3333333333333</ele><time>2026-03-22T11:57:13.999Z</time></trkpt><trkpt lat="42.96876012617667" lon="13.607460224950378"><ele>280.6666666666667</ele><time>2026-03-22T11:57:14.999Z</time></trkpt><trkpt lat="42.9688437483305" lon="13.607731128729023"><ele>278.0</ele><time>2026-03-22T11:57:15.999Z</time></trkpt><trkpt lat="42.96893421521831" lon="13.608040937579988"><ele>276.33333333333337</ele><time>2026-03-22T11:57:16.999Z</time></trkpt><trkpt lat="42.96900270281152" lon="13.608313958927306"><ele>274.6666666666667</ele><time>2026-03-22T11:57:17.999Z</time></trkpt><trkpt lat="42.969050532301424" lon="13.608563377388428"><ele>273.0</ele><time>2026-03-22T11:57:18.999Z</time></trkpt><trkpt lat="42.96908844559015" lon="13.608790053175458"><ele>272.0</ele><time>2026-03-22T11:57:19.999Z</time></trkpt><trkpt lat="42.96912131812341" lon="13.609017230288508"><ele>271.0</ele><time>2026-03-22T11:57:20.999Z</time></trkpt><trkpt lat="42.96914973198644" lon="13.60925105839028"><ele>270.0</ele><time>2026-03-22T11:57:21.999Z</time></trkpt><trkpt lat="42.969184158445046" lon="13.60951546209792"><ele>271.6666666666667</ele><time>2026-03-22T11:57:22.998Z</time></trkpt><trkpt lat="42.969217637074074" lon="13.609762135596167"><ele>273.33333333333337</ele><time>2026-03-22T11:57:23.998Z</time></trkpt><trkpt lat="42.96924297774523" lon="13.609969637560626"><ele>275.0</ele><time>2026-03-22T11:57:24.998Z</time></trkpt><trkpt lat="42.96926172327439" lon="13.61015812469973"><ele>274.75</ele><time>2026-03-22T11:57:25.998Z</time></trkpt><trkpt lat="42.96926634337692" lon="13.610337873689009"><ele>274.5</ele><time>2026-03-22T11:57:26.998Z</time></trkpt><trkpt lat="42.969241007233876" lon="13.610515542207349"><ele>274.25</ele><time>2026-03-22T11:57:27.998Z</time></trkpt><trkpt lat="42.969179548438994" lon="13.610696439338438"><ele>274.0</ele><time>2026-03-22T11:57:28.998Z</time></trkpt><trkpt lat="42.96907609599901" lon="13.610877623012792"><ele>270.0</ele><time>2026-03-22T11:57:29.998Z</time></trkpt><trkpt lat="42.96894427635807" lon="13.61104717992087"><ele>266.0</ele><time>2026-03-22T11:57:30.998Z</time></trkpt><trkpt lat="42.96882169246882" lon="13.61118423428445"><ele>262.0</ele><time>2026-03-22T11:57:31.998Z</time></trkpt><trkpt lat="42.968717554841916" lon="13.611297439529451"><ele>261.25</ele><time>2026-03-22T11:57:32.998Z</time></trkpt><trkpt lat="42.9686173154926" lon="13.611404085935472"><ele>260.5</ele><time>2026-03-22T11:57:33.998Z</time></trkpt><trkpt lat="42.96851646360239" lon="13.61151553675266"><ele>259.75</ele><time>2026-03-22T11:57:34.998Z</time></trkpt><trkpt lat="42.968411861014324" lon="13.61163339949251"><ele>259.0</ele><time>2026-03-22T11:57:35.998Z</time></trkpt><trkpt lat="42.96830072902606" lon="13.611749981969943"><ele>258.5</ele><time>2026-03-22T11:57:36.998Z</time></trkpt><trkpt lat="42.968190885951515" lon="13.611878196828092"><ele>258.0</ele><time>2026-03-22T11:57:37.998Z</time></trkpt><trkpt lat="42.96808396023707" lon="13.612004776645158"><ele>257.5</ele><time>2026-03-22T11:57:38.998Z</time></trkpt><trkpt lat="42.96797455223166" lon="13.612131814672725"><ele>257.0</ele><time>2026-03-22T11:57:39.998Z</time></trkpt><trkpt lat="42.96786436721604" lon="13.612264162731568"><ele>257.0</ele><time>2026-03-22T11:57:40.998Z</time></trkpt><trkpt lat="42.967739369998384" lon="13.612407171402065"><ele>257.0</ele><time>2026-03-22T11:57:41.998Z</time></trkpt><trkpt lat="42.96759898450794" lon="13.612541684857446"><ele>257.0</ele><time>2026-03-22T11:57:42.998Z</time></trkpt><trkpt lat="42.96744647819418" lon="13.612652821853539"><ele>256.33333333333337</ele><time>2026-03-22T11:57:43.998Z</time></trkpt><trkpt lat="42.967267822873595" lon="13.612770605945027"><ele>255.66666666666669</ele><time>2026-03-22T11:57:44.998Z</time></trkpt><trkpt lat="42.96709767863423" lon="13.61286235169125"><ele>255.0</ele><time>2026-03-22T11:57:45.998Z</time></trkpt><trkpt lat="42.96694525500112" lon="13.612918470600082"><ele>255.0</ele><time>2026-03-22T11:57:46.998Z</time></trkpt><trkpt lat="42.96680052120276" lon="13.612961227694528"><ele>255.0</ele><time>2026-03-22T11:57:47.998Z</time></trkpt><trkpt lat="42.9666721696077" lon="13.613004030737763"><ele>255.0</ele><time>2026-03-22T11:57:48.998Z</time></trkpt><trkpt lat="42.96654582387629" lon="13.613046582524087"><ele>255.0</ele><time>2026-03-22T11:57:49.998Z</time></trkpt><trkpt lat="42.96640621760598" lon="13.613102913839205"><ele>255.0</ele><time>2026-03-22T11:57:50.998Z</time></trkpt><trkpt lat="42.966273830959125" lon="13.61315430119909"><ele>255.0</ele><time>2026-03-22T11:57:51.998Z</time></trkpt><trkpt lat="42.96614761977963" lon="13.613209089792806"><ele>255.0</ele><time>2026-03-22T11:57:52.998Z</time></trkpt><trkpt lat="42.96602492119008" lon="13.613289988648123"><ele>255.0</ele><time>2026-03-22T11:57:53.998Z</time></trkpt><trkpt lat="42.96587862311114" lon="13.613433177996654"><ele>254.33333333333331</ele><time>2026-03-22T11:57:54.998Z</time></trkpt><trkpt lat="42.96573644700951" lon="13.613634572768095"><ele>253.66666666666666</ele><time>2026-03-22T11:57:55.998Z</time></trkpt><trkpt lat="42.96558939885379" lon="13.613868509326277"><ele>253.0</ele><time>2026-03-22T11:57:56.998Z</time></trkpt><trkpt lat="42.96533061108146" lon="13.614012326307284"><ele>253.0</ele><time>2026-03-22T11:57:57.998Z</time></trkpt><trkpt lat="42.965186963331455" lon="13.614248551633173"><ele>253.0</ele><time>2026-03-22T11:57:59Z</time></trkpt><trkpt lat="42.965047182821046" lon="13.61447374064463"><ele>253.0</ele><time>2026-03-22T11:58:00Z</time></trkpt><trkpt lat="42.964902523255645" lon="13.614713274149574"><ele>252.0</ele><time>2026-03-22T11:58:01Z</time></trkpt><trkpt lat="42.96475149534907" lon="13.614959030874973"><ele>251.0</ele><time>2026-03-22T11:58:02Z</time></trkpt><trkpt lat="42.96460454294815" lon="13.61519815514574"><ele>250.0</ele><time>2026-03-22T11:58:03Z</time></trkpt><trkpt lat="42.964478867939974" lon="13.61540489984574"><ele>249.0</ele><time>2026-03-22T11:58:04Z</time></trkpt><trkpt lat="42.96437259761751" lon="13.615591812812125"><ele>248.0</ele><time>2026-03-22T11:58:05Z</time></trkpt><trkpt lat="42.96426600951233" lon="13.615781080812047"><ele>247.66666666666669</ele><time>2026-03-22T11:58:06Z</time></trkpt><trkpt lat="42.96418182855585" lon="13.616027660297874"><ele>247.33333333333331</ele><time>2026-03-22T11:58:07Z</time></trkpt><trkpt lat="42.964134307891975" lon="13.616317254584464"><ele>247.0</ele><time>2026-03-22T11:58:08Z</time></trkpt><trkpt lat="42.96414910166851" lon="13.616624151809926"><ele>247.5</ele><time>2026-03-22T11:58:09Z</time></trkpt><trkpt lat="42.964210967517886" lon="13.61694499092711"><ele>248.0</ele><time>2026-03-22T11:58:10Z</time></trkpt><trkpt lat="42.96427424245798" lon="13.617278109382609"><ele>248.66666666666669</ele><time>2026-03-22T11:58:11Z</time></trkpt><trkpt lat="42.9643310230627" lon="13.617571343230454"><ele>249.33333333333331</ele><time>2026-03-22T11:58:12Z</time></trkpt><trkpt lat="42.96438280396689" lon="13.617825474969402"><ele>250.0</ele><time>2026-03-22T11:58:13Z</time></trkpt><trkpt lat="42.96441934706511" lon="13.618059003728058"><ele>251.75</ele><time>2026-03-22T11:58:14Z</time></trkpt><trkpt lat="42.964436695876" lon="13.618261026448018"><ele>253.5</ele><time>2026-03-22T11:58:15Z</time></trkpt><trkpt lat="42.96444084993349" lon="13.618441584147003"><ele>255.25</ele><time>2026-03-22T11:58:16Z</time></trkpt><trkpt lat="42.96441065878068" lon="13.618604650993808"><ele>257.0</ele><time>2026-03-22T11:58:17Z</time></trkpt><trkpt lat="42.964352851373384" lon="13.618791038583982"><ele>255.66666666666669</ele><time>2026-03-22T11:58:18Z</time></trkpt><trkpt lat="42.96423978923734" lon="13.618984267879274"><ele>254.33333333333331</ele><time>2026-03-22T11:58:19Z</time></trkpt><trkpt lat="42.96408821161027" lon="13.619216328611074"><ele>253.0</ele><time>2026-03-22T11:58:20Z</time></trkpt><trkpt lat="42.96390088870446" lon="13.619471480190832"><ele>260.0</ele><time>2026-03-22T11:58:21Z</time></trkpt><trkpt lat="42.963723760818205" lon="13.619710167001358"><ele>267.0</ele><time>2026-03-22T11:58:22Z</time></trkpt><trkpt lat="42.96357960211819" lon="13.619907110881337"><ele>267.0</ele><time>2026-03-22T11:58:23Z</time></trkpt><trkpt lat="42.96344787339774" lon="13.620102579961392"><ele>267.0</ele><time>2026-03-22T11:58:24Z</time></trkpt><trkpt lat="42.96331877406883" lon="13.620330066720802"><ele>267.0</ele><time>2026-03-22T11:58:25Z</time></trkpt><trkpt lat="42.96319925037828" lon="13.620622849241173"><ele>265.0</ele><time>2026-03-22T11:58:26Z</time></trkpt><trkpt lat="42.96307998390073" lon="13.620932496850811"><ele>263.0</ele><time>2026-03-22T11:58:27Z</time></trkpt><trkpt lat="42.962969624737255" lon="13.621210321097562"><ele>263.0</ele><time>2026-03-22T11:58:28Z</time></trkpt><trkpt lat="42.9628608597392" lon="13.621467691894555"><ele>263.0</ele><time>2026-03-22T11:58:29Z</time></trkpt><trkpt lat="42.96276310249851" lon="13.621718792444378"><ele>263.0</ele><time>2026-03-22T11:58:30Z</time></trkpt><trkpt lat="42.96268478135927" lon="13.621967091662778"><ele>265.6666666666667</ele><time>2026-03-22T11:58:31Z</time></trkpt><trkpt lat="42.96264250414842" lon="13.62223911952367"><ele>268.3333333333333</ele><time>2026-03-22T11:58:32Z</time></trkpt><trkpt lat="42.962614334299325" lon="13.622526865316667"><ele>271.0</ele><time>2026-03-22T11:58:33Z</time></trkpt><trkpt lat="42.96258882782063" lon="13.622827240576894"><ele>272.3333333333333</ele><time>2026-03-22T11:58:34Z</time></trkpt><trkpt lat="42.9625353241869" lon="13.623075372655563"><ele>273.6666666666667</ele><time>2026-03-22T11:58:35Z</time></trkpt><trkpt lat="42.96245838868358" lon="13.623302839594578"><ele>275.0</ele><time>2026-03-22T11:58:36Z</time></trkpt><trkpt lat="42.962357251455074" lon="13.623471191073122"><ele>268.0</ele><time>2026-03-22T11:58:37Z</time></trkpt><trkpt lat="42.96225335953467" lon="13.623657935018636"><ele>261.0</ele><time>2026-03-22T11:58:38Z</time></trkpt><trkpt lat="42.96215628692538" lon="13.623868956966891"><ele>254.0</ele><time>2026-03-22T11:58:39Z</time></trkpt><trkpt lat="42.962099596480456" lon="13.624141149962263"><ele>254.0</ele><time>2026-03-22T11:58:39.999Z</time></trkpt><trkpt lat="42.96207677160876" lon="13.624420763283368"><ele>254.0</ele><time>2026-03-22T11:58:40.999Z</time></trkpt><trkpt lat="42.96205702443907" lon="13.624712563729151"><ele>254.0</ele><time>2026-03-22T11:58:41.999Z</time></trkpt><trkpt lat="42.9620350219494" lon="13.624989928286976"><ele>254.0</ele><time>2026-03-22T11:58:42.999Z</time></trkpt><trkpt lat="42.96200139906713" lon="13.625228122207966"><ele>254.0</ele><time>2026-03-22T11:58:43.999Z</time></trkpt><trkpt lat="42.96195328638752" lon="13.625483953484439"><ele>254.0</ele><time>2026-03-22T11:58:44.999Z</time></trkpt><trkpt lat="42.961892585211736" lon="13.625733852370942"><ele>254.0</ele><time>2026-03-22T11:58:45.999Z</time></trkpt><trkpt lat="42.96183242876225" lon="13.625973990427134"><ele>254.0</ele><time>2026-03-22T11:58:46.999Z</time></trkpt><trkpt lat="42.96176608204805" lon="13.626235643627465"><ele>254.0</ele><time>2026-03-22T11:58:47.999Z</time></trkpt><trkpt lat="42.96170908734391" lon="13.626535572515813"><ele>248.66666666666669</ele><time>2026-03-22T11:58:48.999Z</time></trkpt><trkpt lat="42.96166743604374" lon="13.626828463286735"><ele>243.33333333333331</ele><time>2026-03-22T11:58:49.999Z</time></trkpt><trkpt lat="42.961648467664155" lon="13.627125133234738"><ele>238.0</ele><time>2026-03-22T11:58:50.999Z</time></trkpt><trkpt lat="42.96164673864764" lon="13.62744025657072"><ele>238.33333333333331</ele><time>2026-03-22T11:58:51.999Z</time></trkpt><trkpt lat="42.961670505906305" lon="13.627767788107269"><ele>238.66666666666669</ele><time>2026-03-22T11:58:52.999Z</time></trkpt><trkpt lat="42.96169071118413" lon="13.628051172577704"><ele>239.0</ele><time>2026-03-22T11:58:53.999Z</time></trkpt><trkpt lat="42.9617134032447" lon="13.628341625477487"><ele>239.0</ele><time>2026-03-22T11:58:54.999Z</time></trkpt><trkpt lat="42.961735927967354" lon="13.628629936657195"><ele>239.0</ele><time>2026-03-22T11:58:55.999Z</time></trkpt><trkpt lat="42.961759787602325" lon="13.628935334363533"><ele>239.0</ele><time>2026-03-22T11:58:56.999Z</time></trkpt><trkpt lat="42.961782074809584" lon="13.629223634201251"><ele>240.0</ele><time>2026-03-22T11:58:57.999Z</time></trkpt><trkpt lat="42.961803717210174" lon="13.629489296905968"><ele>241.0</ele><time>2026-03-22T11:58:58.999Z</time></trkpt><trkpt lat="42.96182768866596" lon="13.629748357737691"><ele>242.0</ele><time>2026-03-22T11:58:59.999Z</time></trkpt><trkpt lat="42.96186084045184" lon="13.630020722469762"><ele>242.0</ele><time>2026-03-22T11:59:00.999Z</time></trkpt><trkpt lat="42.96190305415905" lon="13.630304836343504"><ele>242.0</ele><time>2026-03-22T11:59:01.999Z</time></trkpt><trkpt lat="42.96194801885295" lon="13.63057891226932"><ele>242.0</ele><time>2026-03-22T11:59:02.999Z</time></trkpt><trkpt lat="42.96199140963298" lon="13.630827802978285"><ele>240.66666666666669</ele><time>2026-03-22T11:59:03.999Z</time></trkpt><trkpt lat="42.962044312737355" lon="13.631079435642059"><ele>239.33333333333331</ele><time>2026-03-22T11:59:04.999Z</time></trkpt><trkpt lat="42.962113146442874" lon="13.6313332495802"><ele>238.0</ele><time>2026-03-22T11:59:05.999Z</time></trkpt><trkpt lat="42.96219819030444" lon="13.631619447289117"><ele>236.33333333333331</ele><time>2026-03-22T11:59:06.999Z</time></trkpt><trkpt lat="42.96228964373008" lon="13.631917781947376"><ele>234.66666666666669</ele><time>2026-03-22T11:59:07.999Z</time></trkpt><trkpt lat="42.96236894944618" lon="13.632170565349691"><ele>233.0</ele><time>2026-03-22T11:59:08.999Z</time></trkpt><trkpt lat="42.962438507779076" lon="13.632384290464998"><ele>232.66666666666669</ele><time>2026-03-22T11:59:09.999Z</time></trkpt><trkpt lat="42.962517708337195" lon="13.632575891946615"><ele>232.33333333333331</ele><time>2026-03-22T11:59:10.999Z</time></trkpt><trkpt lat="42.96262710973774" lon="13.63275153687954"><ele>232.0</ele><time>2026-03-22T11:59:11.999Z</time></trkpt><trkpt lat="42.962788593849936" lon="13.632904864511756"><ele>232.0</ele><time>2026-03-22T11:59:12.999Z</time></trkpt><trkpt lat="42.96296299156157" lon="13.633071943237455"><ele>232.0</ele><time>2026-03-22T11:59:13.999Z</time></trkpt><trkpt lat="42.96310110450975" lon="13.633252308141046"><ele>232.0</ele><time>2026-03-22T11:59:14.999Z</time></trkpt><trkpt lat="42.963227743059754" lon="13.633453370226098"><ele>229.33333333333331</ele><time>2026-03-22T11:59:15.999Z</time></trkpt><trkpt lat="42.963318047872825" lon="13.633681292685345"><ele>226.66666666666669</ele><time>2026-03-22T11:59:16.999Z</time></trkpt><trkpt lat="42.963394659066324" lon="13.633945527706183"><ele>224.0</ele><time>2026-03-22T11:59:17.999Z</time></trkpt><trkpt lat="42.9634588673953" lon="13.634229284299265"><ele>225.66666666666669</ele><time>2026-03-22T11:59:18.999Z</time></trkpt><trkpt lat="42.96351680863443" lon="13.634485809916454"><ele>227.33333333333331</ele><time>2026-03-22T11:59:19.999Z</time></trkpt><trkpt lat="42.963566414318265" lon="13.634705431177768"><ele>229.0</ele><time>2026-03-22T11:59:20.999Z</time></trkpt><trkpt lat="42.963622999578384" lon="13.634917881926587"><ele>229.0</ele><time>2026-03-22T11:59:21.999Z</time></trkpt><trkpt lat="42.96391570526065" lon="13.63505419782767"><ele>229.0</ele><time>2026-03-22T11:59:22.999Z</time></trkpt><trkpt lat="42.964094090052356" lon="13.63523935698992"><ele>229.0</ele><time>2026-03-22T11:59:23.999Z</time></trkpt><trkpt lat="42.96429102994797" lon="13.635444750456346"><ele>229.0</ele><time>2026-03-22T11:59:24.999Z</time></trkpt><trkpt lat="42.96447677852" lon="13.63565617040635"><ele>229.0</ele><time>2026-03-22T11:59:25.999Z</time></trkpt><trkpt lat="42.96461429146956" lon="13.635815891827928"><ele>229.0</ele><time>2026-03-22T11:59:26.999Z</time></trkpt><trkpt lat="42.964707714454214" lon="13.63594272834422"><ele>229.0</ele><time>2026-03-22T11:59:27.998Z</time></trkpt><trkpt lat="42.965046619828605" lon="13.636286450878766"><ele>229.5</ele><time>2026-03-22T11:59:28.998Z</time></trkpt><trkpt lat="42.965235343532655" lon="13.636493127344224"><ele>230.0</ele><time>2026-03-22T11:59:29.998Z</time></trkpt><trkpt lat="42.96540176799587" lon="13.636683766441971"><ele>230.0</ele><time>2026-03-22T11:59:30.998Z</time></trkpt><trkpt lat="42.96556055772071" lon="13.636857633774968"><ele>230.0</ele><time>2026-03-22T11:59:31.998Z</time></trkpt><trkpt lat="42.96571334507646" lon="13.637020241303695"><ele>230.0</ele><time>2026-03-22T11:59:32.998Z</time></trkpt><trkpt lat="42.96586567234231" lon="13.637178981117316"><ele>227.66666666666669</ele><time>2026-03-22T11:59:33.998Z</time></trkpt><trkpt lat="42.96603990035744" lon="13.637327737103872"><ele>225.33333333333331</ele><time>2026-03-22T11:59:34.998Z</time></trkpt><trkpt lat="42.96622771377665" lon="13.637449862450215"><ele>223.0</ele><time>2026-03-22T11:59:35.998Z</time></trkpt><trkpt lat="42.966421394248826" lon="13.637561461426943"><ele>223.0</ele><time>2026-03-22T11:59:36.998Z</time></trkpt><trkpt lat="42.96660124383028" lon="13.63767328422641"><ele>223.0</ele><time>2026-03-22T11:59:37.998Z</time></trkpt><trkpt lat="42.96677422745566" lon="13.637808958276949"><ele>223.0</ele><time>2026-03-22T11:59:38.998Z</time></trkpt><trkpt lat="42.96694719640585" lon="13.63797721316781"><ele>224.0</ele><time>2026-03-22T11:59:39.998Z</time></trkpt><trkpt lat="42.967105996175654" lon="13.638190985121886"><ele>225.0</ele><time>2026-03-22T11:59:40.998Z</time></trkpt><trkpt lat="42.96726647057383" lon="13.63844983858037"><ele>228.0</ele><time>2026-03-22T11:59:41.998Z</time></trkpt><trkpt lat="42.96742449697315" lon="13.638709735690258"><ele>231.0</ele><time>2026-03-22T11:59:42.998Z</time></trkpt><trkpt lat="42.96760603785539" lon="13.638944522503586"><ele>231.0</ele><time>2026-03-22T11:59:43.998Z</time></trkpt><trkpt lat="42.96780575547534" lon="13.63915364498188"><ele>231.0</ele><time>2026-03-22T11:59:44.998Z</time></trkpt><trkpt lat="42.96798507944788" lon="13.639387084438827"><ele>231.0</ele><time>2026-03-22T11:59:45.998Z</time></trkpt><trkpt lat="42.96817822682022" lon="13.639583900846986"><ele>231.0</ele><time>2026-03-22T11:59:46.998Z</time></trkpt><trkpt lat="42.96837986987402" lon="13.639786944605765"><ele>231.0</ele><time>2026-03-22T11:59:47.998Z</time></trkpt><trkpt lat="42.968576161441014" lon="13.639989416300372"><ele>231.0</ele><time>2026-03-22T11:59:48.998Z</time></trkpt><trkpt lat="42.96875670342672" lon="13.640181383266142"><ele>225.33333333333331</ele><time>2026-03-22T11:59:49.998Z</time></trkpt><trkpt lat="42.96892206030846" lon="13.640365802432225"><ele>219.66666666666666</ele><time>2026-03-22T11:59:50.998Z</time></trkpt><trkpt lat="42.969057401633854" lon="13.640547480050547"><ele>214.0</ele><time>2026-03-22T11:59:51.998Z</time></trkpt><trkpt lat="42.96917247951436" lon="13.64073861354052"><ele>216.0</ele><time>2026-03-22T11:59:52.998Z</time></trkpt><trkpt lat="42.9692969433717" lon="13.640967995542928"><ele>218.0</ele><time>2026-03-22T11:59:53.998Z</time></trkpt><trkpt lat="42.96940251775048" lon="13.641190848583713"><ele>220.0</ele><time>2026-03-22T11:59:54.998Z</time></trkpt><trkpt lat="42.96948105734396" lon="13.641438447818171"><ele>220.0</ele><time>2026-03-22T11:59:55.998Z</time></trkpt><trkpt lat="42.969543818097286" lon="13.64169910960857"><ele>220.0</ele><time>2026-03-22T11:59:56.998Z</time></trkpt><trkpt lat="42.96960513382168" lon="13.64198823941549"><ele>220.0</ele><time>2026-03-22T11:59:57.998Z</time></trkpt><trkpt lat="42.96966038802942" lon="13.642270290906147"><ele>219.0</ele><time>2026-03-22T11:59:58.998Z</time></trkpt><trkpt lat="42.96971283232153" lon="13.642564454520402"><ele>218.0</ele><time>2026-03-22T11:59:59.998Z</time></trkpt><trkpt lat="42.969754271445694" lon="13.642839538399873"><ele>217.0</ele><time>2026-03-22T12:00:00.998Z</time></trkpt><trkpt lat="42.96979758938686" lon="13.643108985159259"><ele>215.0</ele><time>2026-03-22T12:00:01.998Z</time></trkpt><trkpt lat="42.96983823769859" lon="13.643364232843934"><ele>213.0</ele><time>2026-03-22T12:00:02.998Z</time></trkpt><trkpt lat="42.969875838769646" lon="13.643607834276429"><ele>211.0</ele><time>2026-03-22T12:00:03.998Z</time></trkpt><trkpt lat="42.9699171564596" lon="13.643852524317662"><ele>210.33333333333331</ele><time>2026-03-22T12:00:05Z</time></trkpt><trkpt lat="42.9699763448933" lon="13.644105836959973"><ele>209.66666666666669</ele><time>2026-03-22T12:00:06Z</time></trkpt><trkpt lat="42.970063610205514" lon="13.644364826202166"><ele>209.0</ele><time>2026-03-22T12:00:07Z</time></trkpt><trkpt lat="42.970165350649665" lon="13.644615727950757"><ele>208.66666666666669</ele><time>2026-03-22T12:00:08Z</time></trkpt><trkpt lat="42.970289620613364" lon="13.644863854017707"><ele>208.33333333333331</ele><time>2026-03-22T12:00:09Z</time></trkpt><trkpt lat="42.97041825865312" lon="13.645103311855712"><ele>208.0</ele><time>2026-03-22T12:00:10Z</time></trkpt><trkpt lat="42.970567161664086" lon="13.64534024445076"><ele>208.0</ele><time>2026-03-22T12:00:11Z</time></trkpt><trkpt lat="42.97070433024181" lon="13.645543300534369"><ele>208.0</ele><time>2026-03-22T12:00:12Z</time></trkpt><trkpt lat="42.9708280505903" lon="13.64572515986812"><ele>208.0</ele><time>2026-03-22T12:00:13Z</time></trkpt><trkpt lat="42.970946898038235" lon="13.64590874061803"><ele>210.5</ele><time>2026-03-22T12:00:14Z</time></trkpt><trkpt lat="42.971029053556535" lon="13.646075142543953"><ele>213.0</ele><time>2026-03-22T12:00:15Z</time></trkpt><trkpt lat="42.971084409251304" lon="13.646258937782452"><ele>215.5</ele><time>2026-03-22T12:00:16Z</time></trkpt><trkpt lat="42.971106162875735" lon="13.646456183736863"><ele>218.0</ele><time>2026-03-22T12:00:17Z</time></trkpt><trkpt lat="42.97109024619733" lon="13.6466543484362"><ele>218.0</ele><time>2026-03-22T12:00:18Z</time></trkpt><trkpt lat="42.97105160372574" lon="13.646902643706353"><ele>218.0</ele><time>2026-03-22T12:00:19Z</time></trkpt><trkpt lat="42.970997536596975" lon="13.647208760544098"><ele>218.0</ele><time>2026-03-22T12:00:20Z</time></trkpt><trkpt lat="42.97094890331626" lon="13.647507953450914"><ele>217.66666666666669</ele><time>2026-03-22T12:00:21Z</time></trkpt><trkpt lat="42.97091714461607" lon="13.647771521479969"><ele>217.33333333333331</ele><time>2026-03-22T12:00:22Z</time></trkpt><trkpt lat="42.97089876143705" lon="13.648029510355599"><ele>217.0</ele><time>2026-03-22T12:00:23Z</time></trkpt><trkpt lat="42.970896047711236" lon="13.648263281013588"><ele>217.66666666666666</ele><time>2026-03-22T12:00:24Z</time></trkpt><trkpt lat="42.9709079020462" lon="13.648509967566655"><ele>218.33333333333331</ele><time>2026-03-22T12:00:25Z</time></trkpt><trkpt lat="42.970922316922916" lon="13.648761601312163"><ele>219.0</ele><time>2026-03-22T12:00:26Z</time></trkpt><trkpt lat="42.97093745952378" lon="13.64901943476873"><ele>219.0</ele><time>2026-03-22T12:00:27Z</time></trkpt><trkpt lat="42.97095115505123" lon="13.649251328016524"><ele>219.0</ele><time>2026-03-22T12:00:28Z</time></trkpt><trkpt lat="42.970974149343185" lon="13.649480905677054"><ele>219.0</ele><time>2026-03-22T12:00:29Z</time></trkpt><trkpt lat="42.97102007448461" lon="13.649724904071443"><ele>217.0</ele><time>2026-03-22T12:00:30Z</time></trkpt><trkpt lat="42.97109627771628" lon="13.649964506977154"><ele>215.0</ele><time>2026-03-22T12:00:31Z</time></trkpt><trkpt lat="42.9711820038059" lon="13.650224446510043"><ele>213.0</ele><time>2026-03-22T12:00:32Z</time></trkpt><trkpt lat="42.97127310857781" lon="13.650484586351673"><ele>210.33333333333331</ele><time>2026-03-22T12:00:33Z</time></trkpt><trkpt lat="42.971357378812016" lon="13.650722786507744"><ele>207.66666666666666</ele><time>2026-03-22T12:00:34Z</time></trkpt><trkpt lat="42.97143812294274" lon="13.650967362445332"><ele>205.0</ele><time>2026-03-22T12:00:35Z</time></trkpt><trkpt lat="42.97152261471585" lon="13.651223290123147"><ele>203.33333333333331</ele><time>2026-03-22T12:00:36Z</time></trkpt><trkpt lat="42.971609169147825" lon="13.651492298631851"><ele>201.66666666666669</ele><time>2026-03-22T12:00:37Z</time></trkpt><trkpt lat="42.97169342949193" lon="13.651762952802457"><ele>200.0</ele><time>2026-03-22T12:00:38Z</time></trkpt><trkpt lat="42.971774260103075" lon="13.65203230371254"><ele>203.33333333333334</ele><time>2026-03-22T12:00:39Z</time></trkpt><trkpt lat="42.971853952308614" lon="13.65229352309247"><ele>206.66666666666669</ele><time>2026-03-22T12:00:40Z</time></trkpt><trkpt lat="42.9719288895282" lon="13.652534906475715"><ele>210.0</ele><time>2026-03-22T12:00:41Z</time></trkpt><trkpt lat="42.97199782929614" lon="13.65275697115238"><ele>208.0</ele><time>2026-03-22T12:00:42Z</time></trkpt><trkpt lat="42.97206713583435" lon="13.652976617671992"><ele>206.0</ele><time>2026-03-22T12:00:43Z</time></trkpt><trkpt lat="42.972147605970626" lon="13.653203993513863"><ele>204.0</ele><time>2026-03-22T12:00:44Z</time></trkpt><trkpt lat="42.97223791068033" lon="13.653437286914164"><ele>202.33333333333331</ele><time>2026-03-22T12:00:44.999Z</time></trkpt><trkpt lat="42.97232083675396" lon="13.653663184773102"><ele>200.66666666666666</ele><time>2026-03-22T12:00:45.999Z</time></trkpt><trkpt lat="42.97238719506607" lon="13.65388935038461"><ele>199.0</ele><time>2026-03-22T12:00:46.999Z</time></trkpt><trkpt lat="42.972424116312894" lon="13.65413483312072"><ele>199.0</ele><time>2026-03-22T12:00:47.999Z</time></trkpt><trkpt lat="42.97242504512453" lon="13.654374546780375"><ele>199.0</ele><time>2026-03-22T12:00:48.999Z</time></trkpt><trkpt lat="42.972402366939114" lon="13.654646347893472"><ele>199.0</ele><time>2026-03-22T12:00:49.999Z</time></trkpt><trkpt lat="42.97237421485086" lon="13.654953529583652"><ele>197.5</ele><time>2026-03-22T12:00:50.999Z</time></trkpt><trkpt lat="42.97234758250941" lon="13.65526465083481"><ele>196.0</ele><time>2026-03-22T12:00:51.999Z</time></trkpt><trkpt lat="42.97232240603725" lon="13.65557864750956"><ele>195.66666666666666</ele><time>2026-03-22T12:00:52.999Z</time></trkpt><trkpt lat="42.97230291152768" lon="13.655885208631908"><ele>195.33333333333331</ele><time>2026-03-22T12:00:53.999Z</time></trkpt><trkpt lat="42.97228299402749" lon="13.65617946983995"><ele>195.0</ele><time>2026-03-22T12:00:54.999Z</time></trkpt><trkpt lat="42.9722613548255" lon="13.656452895920584"><ele>195.0</ele><time>2026-03-22T12:00:55.999Z</time></trkpt><trkpt lat="42.97223593144138" lon="13.656717129651582"><ele>195.0</ele><time>2026-03-22T12:00:56.999Z</time></trkpt><trkpt lat="42.972212666617104" lon="13.656980080203908"><ele>195.0</ele><time>2026-03-22T12:00:57.999Z</time></trkpt><trkpt lat="42.972194069686154" lon="13.657252779198053"><ele>195.66666666666669</ele><time>2026-03-22T12:00:58.999Z</time></trkpt><trkpt lat="42.97218774471713" lon="13.657538429102623"><ele>196.33333333333334</ele><time>2026-03-22T12:00:59.999Z</time></trkpt><trkpt lat="42.97219547952011" lon="13.657819668564946"><ele>197.0</ele><time>2026-03-22T12:01:00.999Z</time></trkpt><trkpt lat="42.97220518051441" lon="13.658097820557833"><ele>197.33333333333334</ele><time>2026-03-22T12:01:01.999Z</time></trkpt><trkpt lat="42.97221534192382" lon="13.65837837327797"><ele>197.66666666666669</ele><time>2026-03-22T12:01:02.999Z</time></trkpt><trkpt lat="42.97222673958755" lon="13.658683090038611"><ele>198.0</ele><time>2026-03-22T12:01:03.999Z</time></trkpt><trkpt lat="42.972238939097636" lon="13.659008517926182"><ele>197.0</ele><time>2026-03-22T12:01:04.999Z</time></trkpt><trkpt lat="42.97225154580457" lon="13.659362021624203"><ele>196.0</ele><time>2026-03-22T12:01:05.999Z</time></trkpt><trkpt lat="42.97226460729356" lon="13.65973469844079"><ele>195.5</ele><time>2026-03-22T12:01:06.999Z</time></trkpt><trkpt lat="42.972276848841034" lon="13.66008291287444"><ele>195.0</ele><time>2026-03-22T12:01:07.999Z</time></trkpt><trkpt lat="42.972287141183784" lon="13.66039633625446"><ele>195.0</ele><time>2026-03-22T12:01:08.999Z</time></trkpt><trkpt lat="42.97229398250522" lon="13.66069326074777"><ele>195.0</ele><time>2026-03-22T12:01:09.999Z</time></trkpt><trkpt lat="42.972299345901924" lon="13.660988067839815"><ele>195.0</ele><time>2026-03-22T12:01:10.999Z</time></trkpt><trkpt lat="42.97228492601522" lon="13.661281209731618"><ele>193.5</ele><time>2026-03-22T12:01:11.999Z</time></trkpt><trkpt lat="42.972254124033405" lon="13.661591305900055"><ele>192.0</ele><time>2026-03-22T12:01:12.999Z</time></trkpt><trkpt lat="42.97221973368712" lon="13.661912806058695"><ele>192.33333333333331</ele><time>2026-03-22T12:01:13.999Z</time></trkpt><trkpt lat="42.972185404392086" lon="13.662204527412568"><ele>192.66666666666666</ele><time>2026-03-22T12:01:14.999Z</time></trkpt><trkpt lat="42.972154608633055" lon="13.662490364464468"><ele>193.0</ele><time>2026-03-22T12:01:15.999Z</time></trkpt><trkpt lat="42.97211243501183" lon="13.662754887955494"><ele>195.33333333333331</ele><time>2026-03-22T12:01:16.999Z</time></trkpt><trkpt lat="42.97205347782241" lon="13.663031302804287"><ele>197.66666666666669</ele><time>2026-03-22T12:01:17.999Z</time></trkpt><trkpt lat="42.97197188184527" lon="13.663319475630736"><ele>200.0</ele><time>2026-03-22T12:01:18.999Z</time></trkpt><trkpt lat="42.97186676862679" lon="13.663647476057738"><ele>202.5</ele><time>2026-03-22T12:01:19.999Z</time></trkpt><trkpt lat="42.97176773421819" lon="13.663949328860244"><ele>205.0</ele><time>2026-03-22T12:01:20.999Z</time></trkpt><trkpt lat="42.971683024209995" lon="13.664225922737495"><ele>200.0</ele><time>2026-03-22T12:01:21.999Z</time></trkpt><trkpt lat="42.971609580097855" lon="13.664497919573693"><ele>195.0</ele><time>2026-03-22T12:01:22.999Z</time></trkpt><trkpt lat="42.97154506728935" lon="13.664786959351428"><ele>190.0</ele><time>2026-03-22T12:01:23.999Z</time></trkpt><trkpt lat="42.9714947328721" lon="13.665084064874863"><ele>190.0</ele><time>2026-03-22T12:01:24.999Z</time></trkpt><trkpt lat="42.971447891965276" lon="13.665372836657653"><ele>190.0</ele><time>2026-03-22T12:01:25.999Z</time></trkpt><trkpt lat="42.97139914132581" lon="13.66567338195806"><ele>190.0</ele><time>2026-03-22T12:01:26.999Z</time></trkpt><trkpt lat="42.971359636831465" lon="13.665976146420936"><ele>193.0</ele><time>2026-03-22T12:01:27.999Z</time></trkpt><trkpt lat="42.97153173720348" lon="13.66635180882797"><ele>196.0</ele><time>2026-03-22T12:01:28.999Z</time></trkpt><trkpt lat="42.97152685232561" lon="13.666646341546723"><ele>196.0</ele><time>2026-03-22T12:01:29.999Z</time></trkpt><trkpt lat="42.97151697821056" lon="13.666937694514454"><ele>196.0</ele><time>2026-03-22T12:01:30.999Z</time></trkpt><trkpt lat="42.971481210124914" lon="13.667246995565147"><ele>196.0</ele><time>2026-03-22T12:01:31.999Z</time></trkpt><trkpt lat="42.97140699439306" lon="13.667552680164242"><ele>194.33333333333331</ele><time>2026-03-22T12:01:32.998Z</time></trkpt><trkpt lat="42.971322133960946" lon="13.667847606273297"><ele>192.66666666666666</ele><time>2026-03-22T12:01:33.998Z</time></trkpt><trkpt lat="42.971222996553756" lon="13.668103712261688"><ele>191.0</ele><time>2026-03-22T12:01:34.998Z</time></trkpt><trkpt lat="42.971125597031694" lon="13.668340141985226"><ele>191.0</ele><time>2026-03-22T12:01:35.998Z</time></trkpt><trkpt lat="42.9710426341869" lon="13.668575945554801"><ele>191.0</ele><time>2026-03-22T12:01:36.998Z</time></trkpt><trkpt lat="42.97095751571718" lon="13.668812454818886"><ele>191.0</ele><time>2026-03-22T12:01:37.998Z</time></trkpt><trkpt lat="42.97088154794113" lon="13.66903659023212"><ele>188.25</ele><time>2026-03-22T12:01:38.998Z</time></trkpt><trkpt lat="42.97081847511845" lon="13.669218289295024"><ele>185.5</ele><time>2026-03-22T12:01:39.998Z</time></trkpt><trkpt lat="42.97076013094544" lon="13.669375500926506"><ele>182.75</ele><time>2026-03-22T12:01:40.998Z</time></trkpt><trkpt lat="42.97070935930539" lon="13.669520137207058"><ele>180.0</ele><time>2026-03-22T12:01:41.998Z</time></trkpt><trkpt lat="42.97066033871573" lon="13.669671123588756"><ele>179.8</ele><time>2026-03-22T12:01:42.998Z</time></trkpt><trkpt lat="42.97061375289652" lon="13.669806648363931"><ele>179.6</ele><time>2026-03-22T12:01:43.998Z</time></trkpt><trkpt lat="42.97057046454172" lon="13.669932902573532"><ele>179.39999999999998</ele><time>2026-03-22T12:01:44.998Z</time></trkpt><trkpt lat="42.97051963316596" lon="13.670067876648377"><ele>179.2</ele><time>2026-03-22T12:01:45.998Z</time></trkpt><trkpt lat="42.97047039904578" lon="13.670211206913619"><ele>179.0</ele><time>2026-03-22T12:01:46.998Z</time></trkpt><trkpt lat="42.97041724704585" lon="13.670372205496355"><ele>180.0</ele><time>2026-03-22T12:01:47.998Z</time></trkpt><trkpt lat="42.970371016947084" lon="13.670542290078991"><ele>181.0</ele><time>2026-03-22T12:01:48.998Z</time></trkpt><trkpt lat="42.97032844873256" lon="13.670740663725113"><ele>182.0</ele><time>2026-03-22T12:01:49.998Z</time></trkpt><trkpt lat="42.97028374590708" lon="13.67099679373223"><ele>183.33333333333331</ele><time>2026-03-22T12:01:50.998Z</time></trkpt><trkpt lat="42.97024878501357" lon="13.671241968486312"><ele>184.66666666666666</ele><time>2026-03-22T12:01:51.998Z</time></trkpt><trkpt lat="42.97021154396161" lon="13.671470536421383"><ele>186.0</ele><time>2026-03-22T12:01:52.998Z</time></trkpt><trkpt lat="42.970178759844266" lon="13.671681287114994"><ele>186.0</ele><time>2026-03-22T12:01:53.998Z</time></trkpt><trkpt lat="42.97014736658332" lon="13.671869983620324"><ele>186.0</ele><time>2026-03-22T12:01:54.998Z</time></trkpt><trkpt lat="42.97011994220892" lon="13.67202935246248"><ele>186.0</ele><time>2026-03-22T12:01:55.998Z</time></trkpt><trkpt lat="42.97009386763372" lon="13.672160661618726"><ele>186.0</ele><time>2026-03-22T12:01:56.998Z</time></trkpt><trkpt lat="42.9700678341326" lon="13.672288300763645"><ele>185.5</ele><time>2026-03-22T12:01:57.998Z</time></trkpt><trkpt lat="42.97004684256948" lon="13.67240435347592"><ele>185.0</ele><time>2026-03-22T12:01:58.998Z</time></trkpt><trkpt lat="42.970027430652166" lon="13.672508244209721"><ele>184.5</ele><time>2026-03-22T12:01:59.998Z</time></trkpt><trkpt lat="42.97000739521261" lon="13.672615468702926"><ele>184.0</ele><time>2026-03-22T12:02:00.998Z</time></trkpt><trkpt lat="42.96999658013392" lon="13.672726435403932"><ele>183.5</ele><time>2026-03-22T12:02:01.998Z</time></trkpt><trkpt lat="42.969984902305384" lon="13.6728270464615"><ele>183.0</ele><time>2026-03-22T12:02:02.998Z</time></trkpt><trkpt lat="42.969966053508195" lon="13.672922664962636"><ele>183.0</ele><time>2026-03-22T12:02:03.998Z</time></trkpt><trkpt lat="42.96994166988854" lon="13.673015495285929"><ele>183.0</ele><time>2026-03-22T12:02:04.998Z</time></trkpt><trkpt lat="42.96992646717824" lon="13.673106065448607"><ele>183.0</ele><time>2026-03-22T12:02:05.998Z</time></trkpt><trkpt lat="42.96988806759515" lon="13.673268569399502"><ele>183.0</ele><time>2026-03-22T12:02:07.998Z</time></trkpt><trkpt lat="42.96986804910321" lon="13.673357092793772"><ele>183.0</ele><time>2026-03-22T12:02:08.998Z</time></trkpt><trkpt lat="42.969833939716644" lon="13.673459382624634"><ele>183.0</ele><time>2026-03-22T12:02:09.998Z</time></trkpt><trkpt lat="42.969783431872074" lon="13.67358003666172"><ele>182.8</ele><time>2026-03-22T12:02:11Z</time></trkpt><trkpt lat="42.96970903431201" lon="13.673699783927082"><ele>182.60000000000002</ele><time>2026-03-22T12:02:12Z</time></trkpt><trkpt lat="42.96963453309226" lon="13.673810133007748"><ele>182.39999999999998</ele><time>2026-03-22T12:02:13Z</time></trkpt><trkpt lat="42.96955577876963" lon="13.6739165432144"><ele>182.2</ele><time>2026-03-22T12:02:14Z</time></trkpt><trkpt lat="42.969476479192835" lon="13.674024730321673"><ele>182.0</ele><time>2026-03-22T12:02:15Z</time></trkpt><trkpt lat="42.969398405099035" lon="13.67413248904409"><ele>182.0</ele><time>2026-03-22T12:02:16Z</time></trkpt><trkpt lat="42.969319720539715" lon="13.67424224365439"><ele>182.0</ele><time>2026-03-22T12:02:17Z</time></trkpt><trkpt lat="42.96924075004554" lon="13.674366693803412"><ele>182.0</ele><time>2026-03-22T12:02:18Z</time></trkpt><trkpt lat="42.96914355224379" lon="13.674516489031395"><ele>182.0</ele><time>2026-03-22T12:02:19Z</time></trkpt><trkpt lat="42.96902775283905" lon="13.67466962090671"><ele>181.33333333333331</ele><time>2026-03-22T12:02:20Z</time></trkpt><trkpt lat="42.96890101869739" lon="13.674828705108997"><ele>180.66666666666666</ele><time>2026-03-22T12:02:21Z</time></trkpt><trkpt lat="42.96877421775782" lon="13.674994505121866"><ele>180.0</ele><time>2026-03-22T12:02:22Z</time></trkpt><trkpt lat="42.96863967923342" lon="13.675180566191736"><ele>177.5</ele><time>2026-03-22T12:02:23Z</time></trkpt><trkpt lat="42.96849223452879" lon="13.6753830330894"><ele>175.0</ele><time>2026-03-22T12:02:24Z</time></trkpt><trkpt lat="42.96831520596995" lon="13.675620857472214"><ele>175.0</ele><time>2026-03-22T12:02:25Z</time></trkpt><trkpt lat="42.96813996096937" lon="13.675860577550413"><ele>175.0</ele><time>2026-03-22T12:02:26Z</time></trkpt><trkpt lat="42.96796181147729" lon="13.676113843838714"><ele>181.0</ele><time>2026-03-22T12:02:27Z</time></trkpt><trkpt lat="42.96777050021414" lon="13.67638179950405"><ele>187.0</ele><time>2026-03-22T12:02:28Z</time></trkpt><trkpt lat="42.96756291688149" lon="13.676665862420277"><ele>181.5</ele><time>2026-03-22T12:02:29Z</time></trkpt><trkpt lat="42.96735815141204" lon="13.676935273279938"><ele>176.0</ele><time>2026-03-22T12:02:30Z</time></trkpt><trkpt lat="42.967153143226184" lon="13.677204867300489"><ele>176.0</ele><time>2026-03-22T12:02:31Z</time></trkpt><trkpt lat="42.96695495101131" lon="13.67746803400134"><ele>176.0</ele><time>2026-03-22T12:02:32Z</time></trkpt><trkpt lat="42.96677440879201" lon="13.677711426987285"><ele>173.5</ele><time>2026-03-22T12:02:33Z</time></trkpt><trkpt lat="42.96652581726346" lon="13.677815856821079"><ele>171.0</ele><time>2026-03-22T12:02:34Z</time></trkpt><trkpt lat="42.96636510031021" lon="13.678031154720369"><ele>171.0</ele><time>2026-03-22T12:02:35Z</time></trkpt><trkpt lat="42.96619426009035" lon="13.67826077163521"><ele>171.0</ele><time>2026-03-22T12:02:36Z</time></trkpt><trkpt lat="42.966029505277994" lon="13.678485308638546"><ele>171.0</ele><time>2026-03-22T12:02:37Z</time></trkpt><trkpt lat="42.965869167330936" lon="13.678703264046208"><ele>171.0</ele><time>2026-03-22T12:02:38Z</time></trkpt><trkpt lat="42.96570524401315" lon="13.678934562848154"><ele>171.0</ele><time>2026-03-22T12:02:39Z</time></trkpt><trkpt lat="42.96555112100083" lon="13.679177743888118"><ele>171.0</ele><time>2026-03-22T12:02:40Z</time></trkpt><trkpt lat="42.96541063316294" lon="13.67941647662232"><ele>178.0</ele><time>2026-03-22T12:02:41Z</time></trkpt><trkpt lat="42.96526843799501" lon="13.679672009768167"><ele>185.0</ele><time>2026-03-22T12:02:42Z</time></trkpt><trkpt lat="42.965132662168315" lon="13.679940175483301"><ele>178.5</ele><time>2026-03-22T12:02:43Z</time></trkpt><trkpt lat="42.96499918039838" lon="13.680215207505446"><ele>172.0</ele><time>2026-03-22T12:02:44Z</time></trkpt><trkpt lat="42.96487646558701" lon="13.680483316631811"><ele>172.0</ele><time>2026-03-22T12:02:45Z</time></trkpt><trkpt lat="42.96476444483473" lon="13.680745604729388"><ele>172.0</ele><time>2026-03-22T12:02:46Z</time></trkpt><trkpt lat="42.964657042959594" lon="13.681000862247794"><ele>172.0</ele><time>2026-03-22T12:02:47Z</time></trkpt><trkpt lat="42.96466059153266" lon="13.681331061957607"><ele>173.66666666666669</ele><time>2026-03-22T12:02:48Z</time></trkpt><trkpt lat="42.964557916314604" lon="13.681583054975073"><ele>175.33333333333334</ele><time>2026-03-22T12:02:49Z</time></trkpt><trkpt lat="42.9644622575294" lon="13.681840218303945"><ele>177.0</ele><time>2026-03-22T12:02:49.999Z</time></trkpt><trkpt lat="42.964384197576365" lon="13.682119772777925"><ele>178.5</ele><time>2026-03-22T12:02:50.999Z</time></trkpt><trkpt lat="42.964206462316994" lon="13.682415651492743"><ele>180.0</ele><time>2026-03-22T12:02:51.999Z</time></trkpt><trkpt lat="42.964159346305" lon="13.682791435874178"><ele>172.0</ele><time>2026-03-22T12:02:52.999Z</time></trkpt><trkpt lat="42.96412005503238" lon="13.683172831888115"><ele>164.0</ele><time>2026-03-22T12:02:53.999Z</time></trkpt><trkpt lat="42.96407924041096" lon="13.683554235751771"><ele>164.0</ele><time>2026-03-22T12:02:54.999Z</time></trkpt><trkpt lat="42.964040739954065" lon="13.683914014335336"><ele>164.0</ele><time>2026-03-22T12:02:55.999Z</time></trkpt><trkpt lat="42.9640081972407" lon="13.684241440776375"><ele>164.0</ele><time>2026-03-22T12:02:56.999Z</time></trkpt><trkpt lat="42.96397809800109" lon="13.684546540151322"><ele>164.0</ele><time>2026-03-22T12:02:57.999Z</time></trkpt><trkpt lat="42.96394743925162" lon="13.684846012466748"><ele>164.0</ele><time>2026-03-22T12:02:58.999Z</time></trkpt><trkpt lat="42.96391476840636" lon="13.685159697207345"><ele>162.5</ele><time>2026-03-22T12:02:59.999Z</time></trkpt><trkpt lat="42.963880858121826" lon="13.685475738160592"><ele>161.0</ele><time>2026-03-22T12:03:00.999Z</time></trkpt><trkpt lat="42.96384911229188" lon="13.68579082152762"><ele>160.5</ele><time>2026-03-22T12:03:01.999Z</time></trkpt><trkpt lat="42.96381927618947" lon="13.686102803744404"><ele>160.0</ele><time>2026-03-22T12:03:02.999Z</time></trkpt><trkpt lat="42.96379235449481" lon="13.686416595655228"><ele>160.0</ele><time>2026-03-22T12:03:03.999Z</time></trkpt><trkpt lat="42.963774932552546" lon="13.686734621201516"><ele>160.0</ele><time>2026-03-22T12:03:04.999Z</time></trkpt><trkpt lat="42.963777664014486" lon="13.687055217543325"><ele>160.0</ele><time>2026-03-22T12:03:05.999Z</time></trkpt><trkpt lat="42.96380238952869" lon="13.68737686697678"><ele>160.0</ele><time>2026-03-22T12:03:06.999Z</time></trkpt><trkpt lat="42.96385005267924" lon="13.687682934119573"><ele>159.5</ele><time>2026-03-22T12:03:07.999Z</time></trkpt><trkpt lat="42.96391728607863" lon="13.687992198454545"><ele>159.0</ele><time>2026-03-22T12:03:08.999Z</time></trkpt><trkpt lat="42.963994854967176" lon="13.688291591543782"><ele>157.0</ele><time>2026-03-22T12:03:09.999Z</time></trkpt><trkpt lat="42.96408819069637" lon="13.688623109767432"><ele>155.0</ele><time>2026-03-22T12:03:10.999Z</time></trkpt><trkpt lat="42.964166860408604" lon="13.688914220797818"><ele>158.33333333333331</ele><time>2026-03-22T12:03:11.999Z</time></trkpt><trkpt lat="42.9642303758011" lon="13.689210319664404"><ele>161.66666666666666</ele><time>2026-03-22T12:03:12.999Z</time></trkpt><trkpt lat="42.96427072170594" lon="13.68950287096452"><ele>165.0</ele><time>2026-03-22T12:03:13.999Z</time></trkpt><trkpt lat="42.964293444065184" lon="13.68982032650784"><ele>165.0</ele><time>2026-03-22T12:03:14.999Z</time></trkpt><trkpt lat="42.964303507228855" lon="13.6901695564764"><ele>165.0</ele><time>2026-03-22T12:03:15.999Z</time></trkpt><trkpt lat="42.964307820632015" lon="13.690553199986903"><ele>165.0</ele><time>2026-03-22T12:03:16.999Z</time></trkpt><trkpt lat="42.96430541164759" lon="13.69092721866644"><ele>165.0</ele><time>2026-03-22T12:03:17.999Z</time></trkpt><trkpt lat="42.964298429773756" lon="13.69125939260287"><ele>165.0</ele><time>2026-03-22T12:03:18.999Z</time></trkpt><trkpt lat="42.964292384406455" lon="13.691553159030963"><ele>165.0</ele><time>2026-03-22T12:03:19.999Z</time></trkpt><trkpt lat="42.96428819013374" lon="13.691836337067116"><ele>165.0</ele><time>2026-03-22T12:03:20.999Z</time></trkpt><trkpt lat="42.964285359860575" lon="13.69213074317299"><ele>165.0</ele><time>2026-03-22T12:03:21.999Z</time></trkpt><trkpt lat="42.96428394755595" lon="13.692436654503068"><ele>165.0</ele><time>2026-03-22T12:03:22.999Z</time></trkpt><trkpt lat="42.96429573894178" lon="13.692749401497611"><ele>162.0</ele><time>2026-03-22T12:03:23.999Z</time></trkpt><trkpt lat="42.964331094870886" lon="13.69306995960537"><ele>159.0</ele><time>2026-03-22T12:03:24.999Z</time></trkpt><trkpt lat="42.964388329613314" lon="13.693390619754503"><ele>156.5</ele><time>2026-03-22T12:03:25.999Z</time></trkpt><trkpt lat="42.964467597598706" lon="13.693712299316386"><ele>154.0</ele><time>2026-03-22T12:03:26.999Z</time></trkpt><trkpt lat="42.964550761051235" lon="13.694029483174427"><ele>154.0</ele><time>2026-03-22T12:03:27.999Z</time></trkpt><trkpt lat="42.96463340445764" lon="13.694342415854083"><ele>154.0</ele><time>2026-03-22T12:03:28.999Z</time></trkpt><trkpt lat="42.964715940723316" lon="13.694648152268366"><ele>152.66666666666669</ele><time>2026-03-22T12:03:29.999Z</time></trkpt><trkpt lat="42.964794458902304" lon="13.69493940479368"><ele>151.33333333333334</ele><time>2026-03-22T12:03:30.999Z</time></trkpt><trkpt lat="42.964871581079095" lon="13.69522144171862"><ele>150.0</ele><time>2026-03-22T12:03:31.999Z</time></trkpt><trkpt lat="42.9649562662413" lon="13.69550738656219"><ele>151.0</ele><time>2026-03-22T12:03:32.999Z</time></trkpt><trkpt lat="42.96506167836177" lon="13.695807986854208"><ele>152.0</ele><time>2026-03-22T12:03:33.999Z</time></trkpt><trkpt lat="42.965179292811236" lon="13.696115080331172"><ele>150.0</ele><time>2026-03-22T12:03:34.999Z</time></trkpt><trkpt lat="42.96531024815488" lon="13.696421968254262"><ele>148.0</ele><time>2026-03-22T12:03:35.999Z</time></trkpt><trkpt lat="42.965446821026504" lon="13.696718081846237"><ele>146.5</ele><time>2026-03-22T12:03:36.999Z</time></trkpt><trkpt lat="42.965585089260934" lon="13.69700823200802"><ele>145.0</ele><time>2026-03-22T12:03:37.998Z</time></trkpt><trkpt lat="42.96571888060754" lon="13.697284690951932"><ele>145.0</ele><time>2026-03-22T12:03:38.998Z</time></trkpt><trkpt lat="42.96584531777996" lon="13.697554016333829"><ele>145.0</ele><time>2026-03-22T12:03:39.998Z</time></trkpt><trkpt lat="42.96597222158921" lon="13.697824335735703"><ele>147.5</ele><time>2026-03-22T12:03:40.998Z</time></trkpt><trkpt lat="42.96610012889725" lon="13.698096792665305"><ele>150.0</ele><time>2026-03-22T12:03:41.998Z</time></trkpt><trkpt lat="42.96622574178629" lon="13.698368715989936"><ele>148.0</ele><time>2026-03-22T12:03:42.998Z</time></trkpt><trkpt lat="42.96634848655543" lon="13.698645154220145"><ele>146.0</ele><time>2026-03-22T12:03:43.998Z</time></trkpt><trkpt lat="42.96645387011115" lon="13.698910944210061"><ele>146.0</ele><time>2026-03-22T12:03:44.998Z</time></trkpt><trkpt lat="42.96655159270846" lon="13.699177943011634"><ele>146.0</ele><time>2026-03-22T12:03:45.998Z</time></trkpt><trkpt lat="42.96663806753459" lon="13.699432160207255"><ele>146.0</ele><time>2026-03-22T12:03:46.998Z</time></trkpt><trkpt lat="42.966716593497914" lon="13.699687886974171"><ele>148.33333333333331</ele><time>2026-03-22T12:03:47.998Z</time></trkpt><trkpt lat="42.96678693246715" lon="13.699940936223213"><ele>150.66666666666666</ele><time>2026-03-22T12:03:48.998Z</time></trkpt><trkpt lat="42.96684638088391" lon="13.700194969806727"><ele>153.0</ele><time>2026-03-22T12:03:49.998Z</time></trkpt><trkpt lat="42.96690500836222" lon="13.700460659664763"><ele>153.0</ele><time>2026-03-22T12:03:50.998Z</time></trkpt><trkpt lat="42.96696330385294" lon="13.70073399215383"><ele>153.0</ele><time>2026-03-22T12:03:51.998Z</time></trkpt><trkpt lat="42.96701652882825" lon="13.70099608586866"><ele>153.0</ele><time>2026-03-22T12:03:52.998Z</time></trkpt><trkpt lat="42.967069002046564" lon="13.701252205567776"><ele>151.66666666666666</ele><time>2026-03-22T12:03:53.998Z</time></trkpt><trkpt lat="42.967121440621504" lon="13.70150388891715"><ele>150.33333333333331</ele><time>2026-03-22T12:03:54.998Z</time></trkpt><trkpt lat="42.96717243870114" lon="13.70174865846196"><ele>149.0</ele><time>2026-03-22T12:03:55.998Z</time></trkpt><trkpt lat="42.96722547535126" lon="13.702007688875943"><ele>147.66666666666666</ele><time>2026-03-22T12:03:56.998Z</time></trkpt><trkpt lat="42.967282365820104" lon="13.702287676875585"><ele>146.33333333333334</ele><time>2026-03-22T12:03:57.998Z</time></trkpt><trkpt lat="42.96734071554422" lon="13.70257623318345"><ele>145.0</ele><time>2026-03-22T12:03:58.998Z</time></trkpt><trkpt lat="42.96739899376606" lon="13.702864452286864"><ele>144.0</ele><time>2026-03-22T12:03:59.998Z</time></trkpt><trkpt lat="42.967460324953215" lon="13.70316777004424"><ele>143.0</ele><time>2026-03-22T12:04:00.998Z</time></trkpt><trkpt lat="42.967522882043085" lon="13.703471513141059"><ele>146.0</ele><time>2026-03-22T12:04:01.998Z</time></trkpt><trkpt lat="42.96758655050841" lon="13.703781063581598"><ele>149.0</ele><time>2026-03-22T12:04:02.998Z</time></trkpt><trkpt lat="42.96764788841155" lon="13.704079871908938"><ele>149.0</ele><time>2026-03-22T12:04:03.998Z</time></trkpt><trkpt lat="42.96771088127406" lon="13.704384777823883"><ele>149.0</ele><time>2026-03-22T12:04:04.998Z</time></trkpt><trkpt lat="42.96777319660073" lon="13.70468640429292"><ele>147.0</ele><time>2026-03-22T12:04:05.998Z</time></trkpt><trkpt lat="42.96783756685243" lon="13.704997977241995"><ele>145.0</ele><time>2026-03-22T12:04:06.998Z</time></trkpt><trkpt lat="42.96789936158612" lon="13.70530113828224"><ele>142.5</ele><time>2026-03-22T12:04:07.998Z</time></trkpt><trkpt lat="42.967959816566776" lon="13.705601119281122"><ele>140.0</ele><time>2026-03-22T12:04:08.998Z</time></trkpt><trkpt lat="42.96801914997389" lon="13.705895535022343"><ele>139.0</ele><time>2026-03-22T12:04:09.998Z</time></trkpt><trkpt lat="42.96807702857058" lon="13.706182731841817"><ele>138.0</ele><time>2026-03-22T12:04:10.998Z</time></trkpt><trkpt lat="42.96813380486083" lon="13.706464459010613"><ele>137.0</ele><time>2026-03-22T12:04:11.998Z</time></trkpt><trkpt lat="42.96818985252492" lon="13.706742570701437"><ele>137.0</ele><time>2026-03-22T12:04:12.998Z</time></trkpt><trkpt lat="42.968245022823425" lon="13.70701613204516"><ele>137.0</ele><time>2026-03-22T12:04:13.998Z</time></trkpt><trkpt lat="42.96829840585016" lon="13.707280819302891"><ele>137.0</ele><time>2026-03-22T12:04:14.998Z</time></trkpt><trkpt lat="42.96835162180666" lon="13.707543648444082"><ele>137.66666666666666</ele><time>2026-03-22T12:04:15.998Z</time></trkpt><trkpt lat="42.9684039599848" lon="13.707802628647402"><ele>138.33333333333334</ele><time>2026-03-22T12:04:17Z</time></trkpt><trkpt lat="42.96845798255044" lon="13.708066747604738"><ele>139.0</ele><time>2026-03-22T12:04:18Z</time></trkpt><trkpt lat="42.96851343254864" lon="13.708342786191169"><ele>138.0</ele><time>2026-03-22T12:04:19Z</time></trkpt><trkpt lat="42.96857021401368" lon="13.708630310959768"><ele>137.0</ele><time>2026-03-22T12:04:20Z</time></trkpt><trkpt lat="42.96863067365855" lon="13.708928310900719"><ele>136.0</ele><time>2026-03-22T12:04:21Z</time></trkpt><trkpt lat="42.96869427614181" lon="13.709241980780416"><ele>134.5</ele><time>2026-03-22T12:04:22Z</time></trkpt><trkpt lat="42.968762869009666" lon="13.709583898701181"><ele>133.0</ele><time>2026-03-22T12:04:23Z</time></trkpt><trkpt lat="42.96883127033754" lon="13.709920878167251"><ele>133.0</ele><time>2026-03-22T12:04:24Z</time></trkpt><trkpt lat="42.96889352036962" lon="13.710227010235911"><ele>133.0</ele><time>2026-03-22T12:04:25Z</time></trkpt><trkpt lat="42.968951754489034" lon="13.710513392810714"><ele>132.0</ele><time>2026-03-22T12:04:26Z</time></trkpt><trkpt lat="42.96900338779563" lon="13.710767314292333"><ele>131.0</ele><time>2026-03-22T12:04:27Z</time></trkpt><trkpt lat="42.969047711229834" lon="13.710985286060012"><ele>130.0</ele><time>2026-03-22T12:04:28Z</time></trkpt><trkpt lat="42.96908427697462" lon="13.711165106581758"><ele>130.0</ele><time>2026-03-22T12:04:29Z</time></trkpt><trkpt lat="42.96911754823124" lon="13.711328725689143"><ele>130.0</ele><time>2026-03-22T12:04:30Z</time></trkpt><trkpt lat="42.96919259263108" lon="13.711453235276585"><ele>130.0</ele><time>2026-03-22T12:04:31Z</time></trkpt><trkpt lat="42.969191187670425" lon="13.711598536357721"><ele>130.0</ele><time>2026-03-22T12:04:32Z</time></trkpt><trkpt lat="42.96919065793242" lon="13.71172929735047"><ele>130.0</ele><time>2026-03-22T12:04:33Z</time></trkpt><trkpt lat="42.969210278106075" lon="13.711834267099594"><ele>130.0</ele><time>2026-03-22T12:04:34Z</time></trkpt><trkpt lat="42.9692568725851" lon="13.711948984044225"><ele>130.0</ele><time>2026-03-22T12:04:35Z</time></trkpt><trkpt lat="42.96932194037566" lon="13.712057924994467"><ele>130.0</ele><time>2026-03-22T12:04:36Z</time></trkpt><trkpt lat="42.96937842319987" lon="13.712190906533161"><ele>130.0</ele><time>2026-03-22T12:04:37Z</time></trkpt><trkpt lat="42.969411863252994" lon="13.712350227540021"><ele>130.0</ele><time>2026-03-22T12:04:38Z</time></trkpt><trkpt lat="42.96944931003442" lon="13.712533405778736"><ele>130.66666666666669</ele><time>2026-03-22T12:04:39Z</time></trkpt><trkpt lat="42.969495692506726" lon="13.71275136073183"><ele>131.33333333333334</ele><time>2026-03-22T12:04:40Z</time></trkpt><trkpt lat="42.969543129947574" lon="13.713012180601819"><ele>132.0</ele><time>2026-03-22T12:04:41Z</time></trkpt><trkpt lat="42.96958844388754" lon="13.713287359519008"><ele>132.0</ele><time>2026-03-22T12:04:42Z</time></trkpt><trkpt lat="42.9696517585062" lon="13.713568735310329"><ele>132.0</ele><time>2026-03-22T12:04:43Z</time></trkpt><trkpt lat="42.969716998775155" lon="13.713869189924953"><ele>132.0</ele><time>2026-03-22T12:04:44Z</time></trkpt><trkpt lat="42.96979013188079" lon="13.714213117972728"><ele>129.5</ele><time>2026-03-22T12:04:45Z</time></trkpt><trkpt lat="42.96986163595206" lon="13.714548347918578"><ele>127.0</ele><time>2026-03-22T12:04:46Z</time></trkpt><trkpt lat="42.96992278456913" lon="13.714848347951225"><ele>127.0</ele><time>2026-03-22T12:04:47Z</time></trkpt><trkpt lat="42.96998916709081" lon="13.715127847307278"><ele>127.0</ele><time>2026-03-22T12:04:48Z</time></trkpt><trkpt lat="42.97006730102984" lon="13.715420559035365"><ele>127.0</ele><time>2026-03-22T12:04:49Z</time></trkpt><trkpt lat="42.970137232442305" lon="13.715764743572612"><ele>129.0</ele><time>2026-03-22T12:04:50Z</time></trkpt><trkpt lat="42.970194598336086" lon="13.716096107857725"><ele>131.0</ele><time>2026-03-22T12:04:51Z</time></trkpt><trkpt lat="42.97023618814244" lon="13.716386193214499"><ele>131.0</ele><time>2026-03-22T12:04:52Z</time></trkpt><trkpt lat="42.97027993073988" lon="13.71664786105404"><ele>131.0</ele><time>2026-03-22T12:04:53Z</time></trkpt><trkpt lat="42.97033294937218" lon="13.716898293957067"><ele>131.0</ele><time>2026-03-22T12:04:54Z</time></trkpt><trkpt lat="42.970388879376685" lon="13.717166757286162"><ele>131.0</ele><time>2026-03-22T12:04:55Z</time></trkpt><trkpt lat="42.970434850378204" lon="13.717405284555541"><ele>131.0</ele><time>2026-03-22T12:04:55.999Z</time></trkpt><trkpt lat="42.97048245491571" lon="13.717626324115253"><ele>131.0</ele><time>2026-03-22T12:04:56.999Z</time></trkpt><trkpt lat="42.97052884457547" lon="13.717838191368928"><ele>129.66666666666666</ele><time>2026-03-22T12:04:57.999Z</time></trkpt><trkpt lat="42.970503265698305" lon="13.71807929940625"><ele>128.33333333333334</ele><time>2026-03-22T12:04:58.999Z</time></trkpt><trkpt lat="42.97054581842987" lon="13.718284213307454"><ele>127.0</ele><time>2026-03-22T12:04:59.999Z</time></trkpt><trkpt lat="42.970585483764424" lon="13.718475222623477"><ele>126.66666666666667</ele><time>2026-03-22T12:05:00.999Z</time></trkpt><trkpt lat="42.97070051072548" lon="13.718652642500167"><ele>126.33333333333334</ele><time>2026-03-22T12:05:01.999Z</time></trkpt><trkpt lat="42.970745994516015" lon="13.718867217452452"><ele>126.0</ele><time>2026-03-22T12:05:02.999Z</time></trkpt><trkpt lat="42.970787085796566" lon="13.719073122185064"><ele>126.0</ele><time>2026-03-22T12:05:03.999Z</time></trkpt><trkpt lat="42.97082404647419" lon="13.719270162612958"><ele>126.0</ele><time>2026-03-22T12:05:04.999Z</time></trkpt><trkpt lat="42.97079867733368" lon="13.719506351163817"><ele>126.0</ele><time>2026-03-22T12:05:05.999Z</time></trkpt><trkpt lat="42.970840308446036" lon="13.719709703141891"><ele>125.66666666666666</ele><time>2026-03-22T12:05:06.999Z</time></trkpt><trkpt lat="42.97088725795978" lon="13.719915370813247"><ele>125.33333333333333</ele><time>2026-03-22T12:05:07.999Z</time></trkpt><trkpt lat="42.970940924691725" lon="13.72013096061457"><ele>125.0</ele><time>2026-03-22T12:05:08.999Z</time></trkpt><trkpt lat="42.971019548029915" lon="13.720401896257895"><ele>125.0</ele><time>2026-03-22T12:05:09.999Z</time></trkpt><trkpt lat="42.971109624237556" lon="13.720644086175128"><ele>125.0</ele><time>2026-03-22T12:05:10.999Z</time></trkpt><trkpt lat="42.971173878264146" lon="13.720793062063048"><ele>125.0</ele><time>2026-03-22T12:05:11.999Z</time></trkpt><trkpt lat="42.97125145935944" lon="13.720954110405925"><ele>122.5</ele><time>2026-03-22T12:05:12.999Z</time></trkpt><trkpt lat="42.971461079025296" lon="13.721229324188718"><ele>120.0</ele><time>2026-03-22T12:05:13.999Z</time></trkpt><trkpt lat="42.97158408303977" lon="13.721455074008535"><ele>121.0</ele><time>2026-03-22T12:05:14.999Z</time></trkpt><trkpt lat="42.971715806392076" lon="13.72166657795161"><ele>122.0</ele><time>2026-03-22T12:05:15.999Z</time></trkpt><trkpt lat="42.971827507304226" lon="13.721849850908754"><ele>123.0</ele><time>2026-03-22T12:05:16.999Z</time></trkpt><trkpt lat="42.97194015005495" lon="13.722044159692665"><ele>123.0</ele><time>2026-03-22T12:05:17.999Z</time></trkpt><trkpt lat="42.97205679720879" lon="13.722253591148037"><ele>123.0</ele><time>2026-03-22T12:05:18.999Z</time></trkpt><trkpt lat="42.97218233427696" lon="13.722458660708703"><ele>123.0</ele><time>2026-03-22T12:05:19.999Z</time></trkpt><trkpt lat="42.97224104792248" lon="13.72271192642628"><ele>122.33333333333334</ele><time>2026-03-22T12:05:20.999Z</time></trkpt><trkpt lat="42.97234258979122" lon="13.722891174612306"><ele>121.66666666666667</ele><time>2026-03-22T12:05:21.999Z</time></trkpt><trkpt lat="42.972444288047996" lon="13.723093382664535"><ele>121.0</ele><time>2026-03-22T12:05:22.999Z</time></trkpt><trkpt lat="42.972542983223356" lon="13.723331190435978"><ele>122.33333333333334</ele><time>2026-03-22T12:05:23.999Z</time></trkpt><trkpt lat="42.972618508997705" lon="13.72356441992191"><ele>123.66666666666666</ele><time>2026-03-22T12:05:24.999Z</time></trkpt><trkpt lat="42.97268379259824" lon="13.72381631449028"><ele>125.0</ele><time>2026-03-22T12:05:25.999Z</time></trkpt><trkpt lat="42.972733968203066" lon="13.724076604196483"><ele>125.0</ele><time>2026-03-22T12:05:26.999Z</time></trkpt><trkpt lat="42.97277215953438" lon="13.724347794412692"><ele>125.0</ele><time>2026-03-22T12:05:27.999Z</time></trkpt><trkpt lat="42.97279159588081" lon="13.724626492644258"><ele>125.0</ele><time>2026-03-22T12:05:28.999Z</time></trkpt><trkpt lat="42.972816427886336" lon="13.724926867944925"><ele>124.5</ele><time>2026-03-22T12:05:29.999Z</time></trkpt><trkpt lat="42.972842957996036" lon="13.725247783957983"><ele>124.0</ele><time>2026-03-22T12:05:30.999Z</time></trkpt><trkpt lat="42.97287018490164" lon="13.72558007937132"><ele>124.0</ele><time>2026-03-22T12:05:31.999Z</time></trkpt><trkpt lat="42.972897205238105" lon="13.725909999723692"><ele>124.0</ele><time>2026-03-22T12:05:32.999Z</time></trkpt><trkpt lat="42.97292605492387" lon="13.726262022806923"><ele>124.0</ele><time>2026-03-22T12:05:33.999Z</time></trkpt><trkpt lat="42.97295555747169" lon="13.72660500147048"><ele>124.0</ele><time>2026-03-22T12:05:34.999Z</time></trkpt><trkpt lat="42.972984738973324" lon="13.726944247888742"><ele>124.0</ele><time>2026-03-22T12:05:35.999Z</time></trkpt><trkpt lat="42.973013059528526" lon="13.727278538744374"><ele>124.0</ele><time>2026-03-22T12:05:36.999Z</time></trkpt><trkpt lat="42.97304098591287" lon="13.727608464176436"><ele>123.0</ele><time>2026-03-22T12:05:37.999Z</time></trkpt><trkpt lat="42.973068768316814" lon="13.727936364087771"><ele>122.0</ele><time>2026-03-22T12:05:38.999Z</time></trkpt><trkpt lat="42.97309597001786" lon="13.728253530813342"><ele>122.66666666666666</ele><time>2026-03-22T12:05:39.999Z</time></trkpt><trkpt lat="42.97312306748786" lon="13.728560693752549"><ele>123.33333333333334</ele><time>2026-03-22T12:05:40.999Z</time></trkpt><trkpt lat="42.97314955886228" lon="13.728860986225337"><ele>124.0</ele><time>2026-03-22T12:05:41.999Z</time></trkpt><trkpt lat="42.97318048037141" lon="13.729172113154299"><ele>123.33333333333334</ele><time>2026-03-22T12:05:42.999Z</time></trkpt><trkpt lat="42.97321374593956" lon="13.729461069332267"><ele>122.66666666666666</ele><time>2026-03-22T12:05:43.998Z</time></trkpt><trkpt lat="42.97324762663245" lon="13.729742508644028"><ele>122.0</ele><time>2026-03-22T12:05:44.998Z</time></trkpt><trkpt lat="42.97328429376769" lon="13.730028730540774"><ele>122.0</ele><time>2026-03-22T12:05:45.998Z</time></trkpt><trkpt lat="42.97332171733632" lon="13.73030925910653"><ele>122.0</ele><time>2026-03-22T12:05:46.998Z</time></trkpt><trkpt lat="42.973457653174805" lon="13.73056773167742"><ele>122.0</ele><time>2026-03-22T12:05:47.998Z</time></trkpt><trkpt lat="42.97349014047956" lon="13.73084571054015"><ele>123.0</ele><time>2026-03-22T12:05:48.998Z</time></trkpt><trkpt lat="42.97353180018719" lon="13.73113329358822"><ele>124.0</ele><time>2026-03-22T12:05:49.998Z</time></trkpt><trkpt lat="42.97357065682008" lon="13.731414852142816"><ele>125.0</ele><time>2026-03-22T12:05:50.998Z</time></trkpt><trkpt lat="42.97360281165167" lon="13.73168141144216"><ele>125.66666666666666</ele><time>2026-03-22T12:05:51.998Z</time></trkpt><trkpt lat="42.97354198946268" lon="13.731970785975626"><ele>126.33333333333334</ele><time>2026-03-22T12:05:52.998Z</time></trkpt><trkpt lat="42.97357576370592" lon="13.732226375235037"><ele>127.0</ele><time>2026-03-22T12:05:53.998Z</time></trkpt><trkpt lat="42.973610237332515" lon="13.732487084862294"><ele>124.66666666666667</ele><time>2026-03-22T12:05:54.998Z</time></trkpt><trkpt lat="42.9737425228596" lon="13.732729995385663"><ele>122.33333333333334</ele><time>2026-03-22T12:05:55.998Z</time></trkpt><trkpt lat="42.97377301487612" lon="13.732970566173517"><ele>120.0</ele><time>2026-03-22T12:05:56.998Z</time></trkpt><trkpt lat="42.973798691728625" lon="13.733219635205353"><ele>120.0</ele><time>2026-03-22T12:05:57.998Z</time></trkpt><trkpt lat="42.97383351104027" lon="13.733487843831092"><ele>120.0</ele><time>2026-03-22T12:05:58.998Z</time></trkpt><trkpt lat="42.973788422988726" lon="13.733802272995712"><ele>120.0</ele><time>2026-03-22T12:05:59.998Z</time></trkpt><trkpt lat="42.9738305076733" lon="13.73411709806415"><ele>117.0</ele><time>2026-03-22T12:06:00.998Z</time></trkpt><trkpt lat="42.97387785093482" lon="13.734457988493611"><ele>114.0</ele><time>2026-03-22T12:06:01.998Z</time></trkpt><trkpt lat="42.973926796606406" lon="13.734817948848017"><ele>114.0</ele><time>2026-03-22T12:06:02.998Z</time></trkpt><trkpt lat="42.97397459623955" lon="13.735184766393353"><ele>114.0</ele><time>2026-03-22T12:06:03.998Z</time></trkpt><trkpt lat="42.974024488451406" lon="13.735545483517393"><ele>113.66666666666666</ele><time>2026-03-22T12:06:04.998Z</time></trkpt><trkpt lat="42.9740712633984" lon="13.73585742542261"><ele>113.33333333333333</ele><time>2026-03-22T12:06:05.998Z</time></trkpt><trkpt lat="42.974113991280454" lon="13.736139912327548"><ele>113.0</ele><time>2026-03-22T12:06:06.998Z</time></trkpt><trkpt lat="42.974158441721215" lon="13.73641132244881"><ele>117.0</ele><time>2026-03-22T12:06:07.998Z</time></trkpt><trkpt lat="42.97420002840198" lon="13.736654840337303"><ele>121.0</ele><time>2026-03-22T12:06:08.998Z</time></trkpt><trkpt lat="42.974244189084985" lon="13.736911313378947"><ele>125.0</ele><time>2026-03-22T12:06:09.998Z</time></trkpt><trkpt lat="42.97428812028983" lon="13.737166453683425"><ele>125.0</ele><time>2026-03-22T12:06:10.998Z</time></trkpt><trkpt lat="42.97433494218424" lon="13.737424998002364"><ele>125.0</ele><time>2026-03-22T12:06:11.998Z</time></trkpt><trkpt lat="42.97438057744026" lon="13.73768722088589"><ele>125.0</ele><time>2026-03-22T12:06:12.998Z</time></trkpt><trkpt lat="42.97441880500118" lon="13.737961253549521"><ele>126.0</ele><time>2026-03-22T12:06:13.998Z</time></trkpt><trkpt lat="42.97444183587812" lon="13.738239009245866"><ele>127.0</ele><time>2026-03-22T12:06:14.998Z</time></trkpt><trkpt lat="42.97445031844364" lon="13.738530812078585"><ele>128.0</ele><time>2026-03-22T12:06:15.998Z</time></trkpt><trkpt lat="42.974443207611344" lon="13.738827577154282"><ele>128.5</ele><time>2026-03-22T12:06:16.998Z</time></trkpt><trkpt lat="42.974426120721475" lon="13.739132859445522"><ele>129.0</ele><time>2026-03-22T12:06:17.998Z</time></trkpt><trkpt lat="42.97440241846486" lon="13.739440630082473"><ele>130.5</ele><time>2026-03-22T12:06:18.998Z</time></trkpt><trkpt lat="42.97447566815353" lon="13.739775785586751"><ele>132.0</ele><time>2026-03-22T12:06:19.998Z</time></trkpt><trkpt lat="42.974448190163216" lon="13.740097910191482"><ele>132.5</ele><time>2026-03-22T12:06:20.998Z</time></trkpt><trkpt lat="42.97441964402932" lon="13.740416790234185"><ele>133.0</ele><time>2026-03-22T12:06:21.998Z</time></trkpt><trkpt lat="42.97439387585838" lon="13.740719396313553"><ele>133.0</ele><time>2026-03-22T12:06:23Z</time></trkpt><trkpt lat="42.97437099944106" lon="13.741007773490315"><ele>133.0</ele><time>2026-03-22T12:06:24Z</time></trkpt><trkpt lat="42.97435099602422" lon="13.74127666407615"><ele>133.0</ele><time>2026-03-22T12:06:25Z</time></trkpt><trkpt lat="42.974212766844126" lon="13.741518054858128"><ele>132.33333333333334</ele><time>2026-03-22T12:06:26Z</time></trkpt><trkpt lat="42.974189662762036" lon="13.741775898277028"><ele>131.66666666666666</ele><time>2026-03-22T12:06:27Z</time></trkpt><trkpt lat="42.97417011000347" lon="13.742018128318993"><ele>131.0</ele><time>2026-03-22T12:06:28Z</time></trkpt><trkpt lat="42.974148576383556" lon="13.742274421737351"><ele>123.33333333333333</ele><time>2026-03-22T12:06:29Z</time></trkpt><trkpt lat="42.97412560625346" lon="13.742529703000553"><ele>115.66666666666666</ele><time>2026-03-22T12:06:30Z</time></trkpt><trkpt lat="42.97409836493213" lon="13.742778804912314"><ele>108.0</ele><time>2026-03-22T12:06:31Z</time></trkpt><trkpt lat="42.97406431399635" lon="13.743034622684107"><ele>108.0</ele><time>2026-03-22T12:06:32Z</time></trkpt><trkpt lat="42.97402538250416" lon="13.743282818543433"><ele>108.0</ele><time>2026-03-22T12:06:33Z</time></trkpt><trkpt lat="42.97397170013411" lon="13.743536050434068"><ele>108.0</ele><time>2026-03-22T12:06:34Z</time></trkpt><trkpt lat="42.97390928948941" lon="13.743779200959365"><ele>109.66666666666666</ele><time>2026-03-22T12:06:35Z</time></trkpt><trkpt lat="42.97383829757105" lon="13.744026415744145"><ele>111.33333333333333</ele><time>2026-03-22T12:06:36Z</time></trkpt><trkpt lat="42.97376204609413" lon="13.744282276055301"><ele>113.0</ele><time>2026-03-22T12:06:37Z</time></trkpt><trkpt lat="42.973675515378126" lon="13.74456945700519"><ele>116.5</ele><time>2026-03-22T12:06:38Z</time></trkpt><trkpt lat="42.973580515799014" lon="13.74489494610873"><ele>120.0</ele><time>2026-03-22T12:06:39Z</time></trkpt><trkpt lat="42.973476375479436" lon="13.745241185944227"><ele>124.0</ele><time>2026-03-22T12:06:40Z</time></trkpt><trkpt lat="42.97336271620386" lon="13.745637759608638"><ele>128.0</ele><time>2026-03-22T12:06:41Z</time></trkpt><trkpt lat="42.97327162265326" lon="13.746032561558676"><ele>117.5</ele><time>2026-03-22T12:06:42Z</time></trkpt><trkpt lat="42.973201496762854" lon="13.746386516046725"><ele>107.0</ele><time>2026-03-22T12:06:43Z</time></trkpt><trkpt lat="42.9731472047562" lon="13.746721357606875"><ele>107.5</ele><time>2026-03-22T12:06:44Z</time></trkpt><trkpt lat="42.97310021601939" lon="13.747030011104531"><ele>108.0</ele><time>2026-03-22T12:06:45Z</time></trkpt><trkpt lat="42.9730551803003" lon="13.747327858510003"><ele>108.0</ele><time>2026-03-22T12:06:46Z</time></trkpt><trkpt lat="42.97301307828867" lon="13.747606303046297"><ele>108.0</ele><time>2026-03-22T12:06:47Z</time></trkpt><trkpt lat="42.97297294829094" lon="13.747866594160827"><ele>108.0</ele><time>2026-03-22T12:06:48Z</time></trkpt><trkpt lat="42.97293428570734" lon="13.748117721849088"><ele>109.0</ele><time>2026-03-22T12:06:49Z</time></trkpt><trkpt lat="42.97289775891895" lon="13.748354976811195"><ele>110.0</ele><time>2026-03-22T12:06:50Z</time></trkpt><trkpt lat="42.97286052295094" lon="13.748596838186781"><ele>111.0</ele><time>2026-03-22T12:06:51Z</time></trkpt><trkpt lat="42.97282220504925" lon="13.748845727051037"><ele>110.33333333333334</ele><time>2026-03-22T12:06:52Z</time></trkpt><trkpt lat="42.972781349687146" lon="13.749111097680835"><ele>109.66666666666667</ele><time>2026-03-22T12:06:53Z</time></trkpt><trkpt lat="42.97273859159127" lon="13.749387287385792"><ele>109.0</ele><time>2026-03-22T12:06:54Z</time></trkpt><trkpt lat="42.97269081055058" lon="13.749668981652293"><ele>109.0</ele><time>2026-03-22T12:06:55Z</time></trkpt><trkpt lat="42.97263630937873" lon="13.74995201912764"><ele>109.0</ele><time>2026-03-22T12:06:56Z</time></trkpt><trkpt lat="42.97257163784668" lon="13.750234821491528"><ele>109.0</ele><time>2026-03-22T12:06:57Z</time></trkpt><trkpt lat="42.97249374808683" lon="13.750515480514757"><ele>108.66666666666667</ele><time>2026-03-22T12:06:58Z</time></trkpt><trkpt lat="42.972411294040285" lon="13.750798284021176"><ele>108.33333333333334</ele><time>2026-03-22T12:06:59Z</time></trkpt><trkpt lat="42.97233173915887" lon="13.751066004276831"><ele>108.0</ele><time>2026-03-22T12:07:00Z</time></trkpt><trkpt lat="42.97225626493807" lon="13.751315109746738"><ele>108.0</ele><time>2026-03-22T12:07:01Z</time></trkpt><trkpt lat="42.97218586173882" lon="13.751546016798978"><ele>108.0</ele><time>2026-03-22T12:07:01.999Z</time></trkpt><trkpt lat="42.97211658387253" lon="13.75177323301876"><ele>108.0</ele><time>2026-03-22T12:07:02.999Z</time></trkpt><trkpt lat="42.972049358468745" lon="13.751994526071805"><ele>109.33333333333334</ele><time>2026-03-22T12:07:03.999Z</time></trkpt><trkpt lat="42.97198557522189" lon="13.75221022579245"><ele>110.66666666666667</ele><time>2026-03-22T12:07:04.999Z</time></trkpt><trkpt lat="42.97192183288162" lon="13.75242578714589"><ele>112.0</ele><time>2026-03-22T12:07:05.999Z</time></trkpt><trkpt lat="42.97186043839834" lon="13.752633408615775"><ele>111.33333333333334</ele><time>2026-03-22T12:07:06.999Z</time></trkpt><trkpt lat="42.971796962094764" lon="13.752842848858489"><ele>110.66666666666666</ele><time>2026-03-22T12:07:07.999Z</time></trkpt><trkpt lat="42.97172989686382" lon="13.753060089568772"><ele>110.0</ele><time>2026-03-22T12:07:08.999Z</time></trkpt><trkpt lat="42.9716624991366" lon="13.75328772828388"><ele>106.0</ele><time>2026-03-22T12:07:09.999Z</time></trkpt><trkpt lat="42.97160507847657" lon="13.75353400579235"><ele>102.0</ele><time>2026-03-22T12:07:10.999Z</time></trkpt><trkpt lat="42.971557859526605" lon="13.753784869599698"><ele>98.0</ele><time>2026-03-22T12:07:11.999Z</time></trkpt><trkpt lat="42.97151634088946" lon="13.754043192180024"><ele>98.0</ele><time>2026-03-22T12:07:12.999Z</time></trkpt><trkpt lat="42.971492889358544" lon="13.754307340863987"><ele>98.0</ele><time>2026-03-22T12:07:13.999Z</time></trkpt><trkpt lat="42.971479629583115" lon="13.754588980202486"><ele>98.0</ele><time>2026-03-22T12:07:14.999Z</time></trkpt><trkpt lat="42.97147973830125" lon="13.754876814958003"><ele>97.66666666666666</ele><time>2026-03-22T12:07:15.999Z</time></trkpt><trkpt lat="42.97149772534065" lon="13.755168097599611"><ele>97.33333333333334</ele><time>2026-03-22T12:07:16.999Z</time></trkpt><trkpt lat="42.97152862406953" lon="13.755460056545914"><ele>97.0</ele><time>2026-03-22T12:07:17.999Z</time></trkpt><trkpt lat="42.97157881834306" lon="13.75578084952868"><ele>98.5</ele><time>2026-03-22T12:07:18.999Z</time></trkpt><trkpt lat="42.971640793360855" lon="13.756136936621832"><ele>100.0</ele><time>2026-03-22T12:07:19.999Z</time></trkpt><trkpt lat="42.971705399277084" lon="13.756517762478284"><ele>100.0</ele><time>2026-03-22T12:07:20.999Z</time></trkpt><trkpt lat="42.97176348228694" lon="13.756859072508112"><ele>100.0</ele><time>2026-03-22T12:07:21.999Z</time></trkpt><trkpt lat="42.97182379177145" lon="13.757215175906053"><ele>97.5</ele><time>2026-03-22T12:07:22.999Z</time></trkpt><trkpt lat="42.97188441394236" lon="13.757594122168662"><ele>95.0</ele><time>2026-03-22T12:07:23.999Z</time></trkpt><trkpt lat="42.9719521142931" lon="13.758016195419502"><ele>94.5</ele><time>2026-03-22T12:07:24.999Z</time></trkpt><trkpt lat="42.97202216155761" lon="13.758435854986612"><ele>94.0</ele><time>2026-03-22T12:07:25.999Z</time></trkpt><trkpt lat="42.972094539211454" lon="13.75885963342561"><ele>92.5</ele><time>2026-03-22T12:07:26.999Z</time></trkpt><trkpt lat="42.97216090181785" lon="13.759248423622301"><ele>91.0</ele><time>2026-03-22T12:07:27.999Z</time></trkpt><trkpt lat="42.972224347296226" lon="13.75961940839499"><ele>90.0</ele><time>2026-03-22T12:07:28.999Z</time></trkpt><trkpt lat="42.97228194653324" lon="13.75994939643759"><ele>89.0</ele><time>2026-03-22T12:07:29.999Z</time></trkpt><trkpt lat="42.972330888184295" lon="13.760237156948204"><ele>88.33333333333334</ele><time>2026-03-22T12:07:30.999Z</time></trkpt><trkpt lat="42.97237190199952" lon="13.760481445183947"><ele>87.66666666666667</ele><time>2026-03-22T12:07:31.999Z</time></trkpt><trkpt lat="42.972405467721984" lon="13.760681370759515"><ele>87.0</ele><time>2026-03-22T12:07:32.999Z</time></trkpt><trkpt lat="42.97244119020305" lon="13.760894142395676"><ele>86.66666666666667</ele><time>2026-03-22T12:07:33.999Z</time></trkpt><trkpt lat="42.97247521012937" lon="13.761097917453833"><ele>86.33333333333334</ele><time>2026-03-22T12:07:34.999Z</time></trkpt><trkpt lat="42.97260793587262" lon="13.761263288793609"><ele>86.0</ele><time>2026-03-22T12:07:35.999Z</time></trkpt><trkpt lat="42.97263850551012" lon="13.761443024332864"><ele>86.5</ele><time>2026-03-22T12:07:36.999Z</time></trkpt><trkpt lat="42.97266437133497" lon="13.761598545065393"><ele>87.0</ele><time>2026-03-22T12:07:37.999Z</time></trkpt><trkpt lat="42.97268528169965" lon="13.761747023002368"><ele>87.5</ele><time>2026-03-22T12:07:38.999Z</time></trkpt><trkpt lat="42.972611054724524" lon="13.761915906217427"><ele>88.0</ele><time>2026-03-22T12:07:39.999Z</time></trkpt><trkpt lat="42.97263286558069" lon="13.762047735963808"><ele>88.0</ele><time>2026-03-22T12:07:40.999Z</time></trkpt><trkpt lat="42.97265429314407" lon="13.762177249065232"><ele>88.0</ele><time>2026-03-22T12:07:41.999Z</time></trkpt><trkpt lat="42.97267436392751" lon="13.762298561542353"><ele>88.0</ele><time>2026-03-22T12:07:42.999Z</time></trkpt><trkpt lat="42.97269138693146" lon="13.762401452473343"><ele>88.0</ele><time>2026-03-22T12:07:43.999Z</time></trkpt><trkpt lat="42.972706467333325" lon="13.762492601944166"><ele>88.0</ele><time>2026-03-22T12:07:44.999Z</time></trkpt><trkpt lat="42.97272313109399" lon="13.762595478452758"><ele>88.0</ele><time>2026-03-22T12:07:46.999Z</time></trkpt><trkpt lat="42.972911601309775" lon="13.762456739926062"><ele>88.0</ele><time>2026-03-22T12:07:48.998Z</time></trkpt><trkpt lat="42.97285787085629" lon="13.762386712614335"><ele>88.0</ele><time>2026-03-22T12:07:51.998Z</time></trkpt><trkpt lat="42.97293964934595" lon="13.76227119325597"><ele>88.0</ele><time>2026-03-22T12:07:52.998Z</time></trkpt><trkpt lat="42.972984424851404" lon="13.762180063272282"><ele>88.0</ele><time>2026-03-22T12:07:54.998Z</time></trkpt><trkpt lat="42.973040981035176" lon="13.762129683498477"><ele>88.0</ele><time>2026-03-22T12:08:51Z</time></trkpt><trkpt lat="42.97304378376978" lon="13.762031166148557"><ele>88.0</ele><time>2026-03-22T12:09:45.999Z</time></trkpt></trkseg></trk></gpx>